<?xml version="1.0" encoding="UTF-8" standalone="no" ?>
<gpx xmlns="http://www.topografix.com/GPX/1/1" xmlns:xsi="http://www.w3.org/2001/XMLSchema-instance" xsi:schemaLocation="http://www.topografix.com/GPX/1/1 http://www.topografix.com/GPX/1/1/gpx.xsd" version="1.1" creator="VisuGPX - https://www.visugpx.com">
  <metadata>
    <name>2021-06-03-01</name>
  </metadata>
  <trk>
    <name><![CDATA[2021-06-03-01]]></name>
    <extensions>
      <line xmlns="http://www.topografix.com/GPX/gpx_style/0/2">
        <width>2</width>
      </line>
    </extensions>
    <trkseg>
      <trkpt lat="44.888" lon="-0.51727">
        <ele>34</ele>
        <time>2021-06-03T07:18:04.000Z</time>
      </trkpt>
      <trkpt lat="44.888" lon="-0.51727">
        <ele>34.6</ele>
        <time>2021-06-03T07:18:06.000Z</time>
      </trkpt>
      <trkpt lat="44.88803" lon="-0.51726">
        <ele>35.8</ele>
        <time>2021-06-03T07:19:59.000Z</time>
      </trkpt>
      <trkpt lat="44.88801" lon="-0.51723">
        <ele>35.7</ele>
        <time>2021-06-03T07:20:00.000Z</time>
      </trkpt>
      <trkpt lat="44.88798" lon="-0.51714">
        <ele>36.8</ele>
        <time>2021-06-03T07:22:54.000Z</time>
      </trkpt>
      <trkpt lat="44.88805" lon="-0.51724">
        <ele>37.6</ele>
        <time>2021-06-03T07:27:43.000Z</time>
      </trkpt>
      <trkpt lat="44.88807" lon="-0.51718">
        <ele>37.2</ele>
        <time>2021-06-03T07:30:03.000Z</time>
      </trkpt>
      <trkpt lat="44.88807" lon="-0.51719">
        <ele>37.3</ele>
        <time>2021-06-03T07:30:04.000Z</time>
      </trkpt>
      <trkpt lat="44.88819" lon="-0.51707">
        <ele>37.4</ele>
        <time>2021-06-03T07:30:13.000Z</time>
      </trkpt>
      <trkpt lat="44.88824" lon="-0.51699">
        <ele>36.9</ele>
        <time>2021-06-03T07:30:16.000Z</time>
      </trkpt>
      <trkpt lat="44.88827" lon="-0.51688">
        <ele>36.8</ele>
        <time>2021-06-03T07:30:19.000Z</time>
      </trkpt>
      <trkpt lat="44.88832" lon="-0.51679">
        <ele>37</ele>
        <time>2021-06-03T07:30:22.000Z</time>
      </trkpt>
      <trkpt lat="44.88841" lon="-0.51678">
        <ele>37</ele>
        <time>2021-06-03T07:30:25.000Z</time>
      </trkpt>
      <trkpt lat="44.88848" lon="-0.51679">
        <ele>36.8</ele>
        <time>2021-06-03T07:30:27.000Z</time>
      </trkpt>
      <trkpt lat="44.88856" lon="-0.51677">
        <ele>37</ele>
        <time>2021-06-03T07:30:29.000Z</time>
      </trkpt>
      <trkpt lat="44.88862" lon="-0.51674">
        <ele>37.3</ele>
        <time>2021-06-03T07:30:31.000Z</time>
      </trkpt>
      <trkpt lat="44.8887" lon="-0.5167">
        <ele>37.5</ele>
        <time>2021-06-03T07:30:33.000Z</time>
      </trkpt>
      <trkpt lat="44.88877" lon="-0.51666">
        <ele>37.9</ele>
        <time>2021-06-03T07:30:35.000Z</time>
      </trkpt>
      <trkpt lat="44.88885" lon="-0.51662">
        <ele>37.5</ele>
        <time>2021-06-03T07:30:37.000Z</time>
      </trkpt>
      <trkpt lat="44.88893" lon="-0.51657">
        <ele>37.5</ele>
        <time>2021-06-03T07:30:39.000Z</time>
      </trkpt>
      <trkpt lat="44.88901" lon="-0.51653">
        <ele>37.6</ele>
        <time>2021-06-03T07:30:41.000Z</time>
      </trkpt>
      <trkpt lat="44.88909" lon="-0.51649">
        <ele>37.8</ele>
        <time>2021-06-03T07:30:43.000Z</time>
      </trkpt>
      <trkpt lat="44.88917" lon="-0.51645">
        <ele>37.9</ele>
        <time>2021-06-03T07:30:45.000Z</time>
      </trkpt>
      <trkpt lat="44.88925" lon="-0.51641">
        <ele>37.9</ele>
        <time>2021-06-03T07:30:47.000Z</time>
      </trkpt>
      <trkpt lat="44.88934" lon="-0.51638">
        <ele>38.2</ele>
        <time>2021-06-03T07:30:49.000Z</time>
      </trkpt>
      <trkpt lat="44.88942" lon="-0.51635">
        <ele>38.1</ele>
        <time>2021-06-03T07:30:51.000Z</time>
      </trkpt>
      <trkpt lat="44.88946" lon="-0.51633">
        <ele>38.1</ele>
        <time>2021-06-03T07:30:52.000Z</time>
      </trkpt>
      <trkpt lat="44.88951" lon="-0.51632">
        <ele>38</ele>
        <time>2021-06-03T07:30:53.000Z</time>
      </trkpt>
      <trkpt lat="44.88955" lon="-0.5163">
        <ele>37.9</ele>
        <time>2021-06-03T07:30:54.000Z</time>
      </trkpt>
      <trkpt lat="44.88959" lon="-0.51628">
        <ele>37.9</ele>
        <time>2021-06-03T07:30:55.000Z</time>
      </trkpt>
      <trkpt lat="44.88968" lon="-0.51624">
        <ele>38.1</ele>
        <time>2021-06-03T07:30:57.000Z</time>
      </trkpt>
      <trkpt lat="44.88976" lon="-0.51622">
        <ele>38.3</ele>
        <time>2021-06-03T07:30:59.000Z</time>
      </trkpt>
      <trkpt lat="44.88985" lon="-0.51621">
        <ele>38.2</ele>
        <time>2021-06-03T07:31:01.000Z</time>
      </trkpt>
      <trkpt lat="44.88993" lon="-0.5162">
        <ele>37.9</ele>
        <time>2021-06-03T07:31:03.000Z</time>
      </trkpt>
      <trkpt lat="44.89002" lon="-0.5162">
        <ele>38.2</ele>
        <time>2021-06-03T07:31:05.000Z</time>
      </trkpt>
      <trkpt lat="44.89006" lon="-0.51619">
        <ele>38.3</ele>
        <time>2021-06-03T07:31:06.000Z</time>
      </trkpt>
      <trkpt lat="44.89018" lon="-0.51618">
        <ele>38.5</ele>
        <time>2021-06-03T07:31:09.000Z</time>
      </trkpt>
      <trkpt lat="44.89026" lon="-0.51617">
        <ele>38.6</ele>
        <time>2021-06-03T07:31:11.000Z</time>
      </trkpt>
      <trkpt lat="44.89032" lon="-0.51615">
        <ele>38.5</ele>
        <time>2021-06-03T07:31:13.000Z</time>
      </trkpt>
      <trkpt lat="44.89039" lon="-0.51615">
        <ele>38.3</ele>
        <time>2021-06-03T07:31:15.000Z</time>
      </trkpt>
      <trkpt lat="44.89046" lon="-0.51616">
        <ele>38.6</ele>
        <time>2021-06-03T07:31:17.000Z</time>
      </trkpt>
      <trkpt lat="44.89053" lon="-0.51616">
        <ele>38.5</ele>
        <time>2021-06-03T07:31:19.000Z</time>
      </trkpt>
      <trkpt lat="44.8906" lon="-0.51616">
        <ele>38.3</ele>
        <time>2021-06-03T07:31:21.000Z</time>
      </trkpt>
      <trkpt lat="44.89068" lon="-0.51612">
        <ele>38</ele>
        <time>2021-06-03T07:31:24.000Z</time>
      </trkpt>
      <trkpt lat="44.89077" lon="-0.51611">
        <ele>38</ele>
        <time>2021-06-03T07:31:27.000Z</time>
      </trkpt>
      <trkpt lat="44.89083" lon="-0.51611">
        <ele>38.2</ele>
        <time>2021-06-03T07:31:29.000Z</time>
      </trkpt>
      <trkpt lat="44.89089" lon="-0.51611">
        <ele>38</ele>
        <time>2021-06-03T07:31:31.000Z</time>
      </trkpt>
      <trkpt lat="44.89096" lon="-0.51611">
        <ele>37.8</ele>
        <time>2021-06-03T07:31:33.000Z</time>
      </trkpt>
      <trkpt lat="44.89105" lon="-0.51612">
        <ele>38</ele>
        <time>2021-06-03T07:31:36.000Z</time>
      </trkpt>
      <trkpt lat="44.89113" lon="-0.51613">
        <ele>38.3</ele>
        <time>2021-06-03T07:31:39.000Z</time>
      </trkpt>
      <trkpt lat="44.8912" lon="-0.51613">
        <ele>38.5</ele>
        <time>2021-06-03T07:31:41.000Z</time>
      </trkpt>
      <trkpt lat="44.89128" lon="-0.51613">
        <ele>39.1</ele>
        <time>2021-06-03T07:31:43.000Z</time>
      </trkpt>
      <trkpt lat="44.89135" lon="-0.51612">
        <ele>39.3</ele>
        <time>2021-06-03T07:31:45.000Z</time>
      </trkpt>
      <trkpt lat="44.89143" lon="-0.51611">
        <ele>39.1</ele>
        <time>2021-06-03T07:31:47.000Z</time>
      </trkpt>
      <trkpt lat="44.89151" lon="-0.51609">
        <ele>38.9</ele>
        <time>2021-06-03T07:31:49.000Z</time>
      </trkpt>
      <trkpt lat="44.89158" lon="-0.51609">
        <ele>39.1</ele>
        <time>2021-06-03T07:31:51.000Z</time>
      </trkpt>
      <trkpt lat="44.89164" lon="-0.51608">
        <ele>39.1</ele>
        <time>2021-06-03T07:31:53.000Z</time>
      </trkpt>
      <trkpt lat="44.8917" lon="-0.51608">
        <ele>39.1</ele>
        <time>2021-06-03T07:31:55.000Z</time>
      </trkpt>
      <trkpt lat="44.89177" lon="-0.51608">
        <ele>39</ele>
        <time>2021-06-03T07:31:57.000Z</time>
      </trkpt>
      <trkpt lat="44.89184" lon="-0.51607">
        <ele>39.2</ele>
        <time>2021-06-03T07:31:59.000Z</time>
      </trkpt>
      <trkpt lat="44.89191" lon="-0.51607">
        <ele>39</ele>
        <time>2021-06-03T07:32:01.000Z</time>
      </trkpt>
      <trkpt lat="44.89198" lon="-0.51607">
        <ele>38.4</ele>
        <time>2021-06-03T07:32:03.000Z</time>
      </trkpt>
      <trkpt lat="44.89205" lon="-0.51606">
        <ele>38.7</ele>
        <time>2021-06-03T07:32:05.000Z</time>
      </trkpt>
      <trkpt lat="44.89212" lon="-0.51606">
        <ele>39</ele>
        <time>2021-06-03T07:32:07.000Z</time>
      </trkpt>
      <trkpt lat="44.89215" lon="-0.51606">
        <ele>39.3</ele>
        <time>2021-06-03T07:32:08.000Z</time>
      </trkpt>
      <trkpt lat="44.89225" lon="-0.51605">
        <ele>39.7</ele>
        <time>2021-06-03T07:32:11.000Z</time>
      </trkpt>
      <trkpt lat="44.89232" lon="-0.51604">
        <ele>39.6</ele>
        <time>2021-06-03T07:32:13.000Z</time>
      </trkpt>
      <trkpt lat="44.89238" lon="-0.51603">
        <ele>39.4</ele>
        <time>2021-06-03T07:32:15.000Z</time>
      </trkpt>
      <trkpt lat="44.89245" lon="-0.51603">
        <ele>39.3</ele>
        <time>2021-06-03T07:32:17.000Z</time>
      </trkpt>
      <trkpt lat="44.89252" lon="-0.51602">
        <ele>39.3</ele>
        <time>2021-06-03T07:32:19.000Z</time>
      </trkpt>
      <trkpt lat="44.8926" lon="-0.51602">
        <ele>39.4</ele>
        <time>2021-06-03T07:32:21.000Z</time>
      </trkpt>
      <trkpt lat="44.89269" lon="-0.51602">
        <ele>38.6</ele>
        <time>2021-06-03T07:32:31.000Z</time>
      </trkpt>
      <trkpt lat="44.89277" lon="-0.51602">
        <ele>40.1</ele>
        <time>2021-06-03T07:32:41.000Z</time>
      </trkpt>
      <trkpt lat="44.89283" lon="-0.51603">
        <ele>39.7</ele>
        <time>2021-06-03T07:32:43.000Z</time>
      </trkpt>
      <trkpt lat="44.8929" lon="-0.51603">
        <ele>40.3</ele>
        <time>2021-06-03T07:32:45.000Z</time>
      </trkpt>
      <trkpt lat="44.89296" lon="-0.51605">
        <ele>40.2</ele>
        <time>2021-06-03T07:32:47.000Z</time>
      </trkpt>
      <trkpt lat="44.89304" lon="-0.51606">
        <ele>39.9</ele>
        <time>2021-06-03T07:32:49.000Z</time>
      </trkpt>
      <trkpt lat="44.89312" lon="-0.51609">
        <ele>39.4</ele>
        <time>2021-06-03T07:32:51.000Z</time>
      </trkpt>
      <trkpt lat="44.8932" lon="-0.51612">
        <ele>39.1</ele>
        <time>2021-06-03T07:32:53.000Z</time>
      </trkpt>
      <trkpt lat="44.89328" lon="-0.51616">
        <ele>39.1</ele>
        <time>2021-06-03T07:32:55.000Z</time>
      </trkpt>
      <trkpt lat="44.89336" lon="-0.5162">
        <ele>37.5</ele>
        <time>2021-06-03T07:32:57.000Z</time>
      </trkpt>
      <trkpt lat="44.89344" lon="-0.51624">
        <ele>38.7</ele>
        <time>2021-06-03T07:32:59.000Z</time>
      </trkpt>
      <trkpt lat="44.89353" lon="-0.51628">
        <ele>39</ele>
        <time>2021-06-03T07:33:01.000Z</time>
      </trkpt>
      <trkpt lat="44.89361" lon="-0.51632">
        <ele>38.7</ele>
        <time>2021-06-03T07:33:03.000Z</time>
      </trkpt>
      <trkpt lat="44.8937" lon="-0.51636">
        <ele>38.5</ele>
        <time>2021-06-03T07:33:05.000Z</time>
      </trkpt>
      <trkpt lat="44.89378" lon="-0.51639">
        <ele>38.4</ele>
        <time>2021-06-03T07:33:07.000Z</time>
      </trkpt>
      <trkpt lat="44.89382" lon="-0.51641">
        <ele>38.2</ele>
        <time>2021-06-03T07:33:08.000Z</time>
      </trkpt>
      <trkpt lat="44.89386" lon="-0.51644">
        <ele>38</ele>
        <time>2021-06-03T07:33:09.000Z</time>
      </trkpt>
      <trkpt lat="44.89391" lon="-0.51646">
        <ele>37.6</ele>
        <time>2021-06-03T07:33:10.000Z</time>
      </trkpt>
      <trkpt lat="44.89399" lon="-0.5165">
        <ele>37.9</ele>
        <time>2021-06-03T07:33:12.000Z</time>
      </trkpt>
      <trkpt lat="44.89406" lon="-0.51654">
        <ele>38.6</ele>
        <time>2021-06-03T07:33:14.000Z</time>
      </trkpt>
      <trkpt lat="44.89414" lon="-0.51657">
        <ele>38.5</ele>
        <time>2021-06-03T07:33:16.000Z</time>
      </trkpt>
      <trkpt lat="44.89423" lon="-0.5166">
        <ele>37.7</ele>
        <time>2021-06-03T07:33:18.000Z</time>
      </trkpt>
      <trkpt lat="44.89431" lon="-0.51665">
        <ele>37.3</ele>
        <time>2021-06-03T07:33:20.000Z</time>
      </trkpt>
      <trkpt lat="44.89438" lon="-0.51669">
        <ele>37.4</ele>
        <time>2021-06-03T07:33:22.000Z</time>
      </trkpt>
      <trkpt lat="44.89447" lon="-0.51673">
        <ele>37.8</ele>
        <time>2021-06-03T07:33:24.000Z</time>
      </trkpt>
      <trkpt lat="44.89455" lon="-0.51676">
        <ele>38.2</ele>
        <time>2021-06-03T07:33:26.000Z</time>
      </trkpt>
      <trkpt lat="44.8946" lon="-0.51678">
        <ele>38.2</ele>
        <time>2021-06-03T07:33:27.000Z</time>
      </trkpt>
      <trkpt lat="44.89468" lon="-0.51679">
        <ele>38.1</ele>
        <time>2021-06-03T07:33:29.000Z</time>
      </trkpt>
      <trkpt lat="44.89477" lon="-0.51679">
        <ele>37.5</ele>
        <time>2021-06-03T07:33:31.000Z</time>
      </trkpt>
      <trkpt lat="44.89486" lon="-0.51679">
        <ele>36.7</ele>
        <time>2021-06-03T07:33:33.000Z</time>
      </trkpt>
      <trkpt lat="44.89494" lon="-0.51677">
        <ele>37.1</ele>
        <time>2021-06-03T07:33:35.000Z</time>
      </trkpt>
      <trkpt lat="44.89502" lon="-0.51674">
        <ele>37</ele>
        <time>2021-06-03T07:33:37.000Z</time>
      </trkpt>
      <trkpt lat="44.89511" lon="-0.51671">
        <ele>37</ele>
        <time>2021-06-03T07:33:39.000Z</time>
      </trkpt>
      <trkpt lat="44.89519" lon="-0.51668">
        <ele>36.7</ele>
        <time>2021-06-03T07:33:41.000Z</time>
      </trkpt>
      <trkpt lat="44.89526" lon="-0.51666">
        <ele>36.7</ele>
        <time>2021-06-03T07:33:43.000Z</time>
      </trkpt>
      <trkpt lat="44.89534" lon="-0.51663">
        <ele>37</ele>
        <time>2021-06-03T07:33:45.000Z</time>
      </trkpt>
      <trkpt lat="44.89542" lon="-0.5166">
        <ele>37.3</ele>
        <time>2021-06-03T07:33:47.000Z</time>
      </trkpt>
      <trkpt lat="44.89549" lon="-0.51658">
        <ele>36.6</ele>
        <time>2021-06-03T07:33:49.000Z</time>
      </trkpt>
      <trkpt lat="44.89555" lon="-0.51656">
        <ele>37.3</ele>
        <time>2021-06-03T07:33:51.000Z</time>
      </trkpt>
      <trkpt lat="44.89563" lon="-0.51652">
        <ele>37.7</ele>
        <time>2021-06-03T07:33:55.000Z</time>
      </trkpt>
      <trkpt lat="44.89568" lon="-0.51658">
        <ele>37.8</ele>
        <time>2021-06-03T07:34:01.000Z</time>
      </trkpt>
      <trkpt lat="44.89571" lon="-0.51668">
        <ele>38</ele>
        <time>2021-06-03T07:34:04.000Z</time>
      </trkpt>
      <trkpt lat="44.89577" lon="-0.51675">
        <ele>38.4</ele>
        <time>2021-06-03T07:34:07.000Z</time>
      </trkpt>
      <trkpt lat="44.89585" lon="-0.51681">
        <ele>37.8</ele>
        <time>2021-06-03T07:34:10.000Z</time>
      </trkpt>
      <trkpt lat="44.89587" lon="-0.51683">
        <ele>37.6</ele>
        <time>2021-06-03T07:34:11.000Z</time>
      </trkpt>
      <trkpt lat="44.89598" lon="-0.51688">
        <ele>37</ele>
        <time>2021-06-03T07:34:15.000Z</time>
      </trkpt>
      <trkpt lat="44.89606" lon="-0.51689">
        <ele>37.6</ele>
        <time>2021-06-03T07:34:19.000Z</time>
      </trkpt>
      <trkpt lat="44.89609" lon="-0.51699">
        <ele>37.5</ele>
        <time>2021-06-03T07:34:23.000Z</time>
      </trkpt>
      <trkpt lat="44.89613" lon="-0.5171">
        <ele>37.1</ele>
        <time>2021-06-03T07:34:26.000Z</time>
      </trkpt>
      <trkpt lat="44.89617" lon="-0.51718">
        <ele>36.9</ele>
        <time>2021-06-03T07:34:28.000Z</time>
      </trkpt>
      <trkpt lat="44.89624" lon="-0.51725">
        <ele>36.5</ele>
        <time>2021-06-03T07:34:30.000Z</time>
      </trkpt>
      <trkpt lat="44.89632" lon="-0.51729">
        <ele>36.1</ele>
        <time>2021-06-03T07:34:32.000Z</time>
      </trkpt>
      <trkpt lat="44.8964" lon="-0.51731">
        <ele>36.8</ele>
        <time>2021-06-03T07:34:34.000Z</time>
      </trkpt>
      <trkpt lat="44.89645" lon="-0.5173">
        <ele>37</ele>
        <time>2021-06-03T07:34:35.000Z</time>
      </trkpt>
      <trkpt lat="44.89654" lon="-0.51729">
        <ele>37.3</ele>
        <time>2021-06-03T07:34:37.000Z</time>
      </trkpt>
      <trkpt lat="44.89662" lon="-0.51727">
        <ele>37.1</ele>
        <time>2021-06-03T07:34:39.000Z</time>
      </trkpt>
      <trkpt lat="44.89671" lon="-0.51724">
        <ele>37.2</ele>
        <time>2021-06-03T07:34:41.000Z</time>
      </trkpt>
      <trkpt lat="44.89679" lon="-0.51721">
        <ele>37.1</ele>
        <time>2021-06-03T07:34:43.000Z</time>
      </trkpt>
      <trkpt lat="44.89686" lon="-0.51719">
        <ele>36.8</ele>
        <time>2021-06-03T07:34:45.000Z</time>
      </trkpt>
      <trkpt lat="44.89693" lon="-0.51717">
        <ele>36.6</ele>
        <time>2021-06-03T07:34:47.000Z</time>
      </trkpt>
      <trkpt lat="44.897" lon="-0.51716">
        <ele>36.7</ele>
        <time>2021-06-03T07:34:49.000Z</time>
      </trkpt>
      <trkpt lat="44.89707" lon="-0.51716">
        <ele>36.5</ele>
        <time>2021-06-03T07:34:51.000Z</time>
      </trkpt>
      <trkpt lat="44.89715" lon="-0.51718">
        <ele>36.4</ele>
        <time>2021-06-03T07:34:54.000Z</time>
      </trkpt>
      <trkpt lat="44.89721" lon="-0.51721">
        <ele>36.9</ele>
        <time>2021-06-03T07:34:57.000Z</time>
      </trkpt>
      <trkpt lat="44.89728" lon="-0.51719">
        <ele>37.1</ele>
        <time>2021-06-03T07:34:59.000Z</time>
      </trkpt>
      <trkpt lat="44.89736" lon="-0.51718">
        <ele>37.3</ele>
        <time>2021-06-03T07:35:01.000Z</time>
      </trkpt>
      <trkpt lat="44.89744" lon="-0.51717">
        <ele>37.8</ele>
        <time>2021-06-03T07:35:03.000Z</time>
      </trkpt>
      <trkpt lat="44.89752" lon="-0.51717">
        <ele>37.4</ele>
        <time>2021-06-03T07:35:05.000Z</time>
      </trkpt>
      <trkpt lat="44.8976" lon="-0.51718">
        <ele>37.2</ele>
        <time>2021-06-03T07:35:07.000Z</time>
      </trkpt>
      <trkpt lat="44.89769" lon="-0.51719">
        <ele>36.6</ele>
        <time>2021-06-03T07:35:09.000Z</time>
      </trkpt>
      <trkpt lat="44.89774" lon="-0.51719">
        <ele>36.2</ele>
        <time>2021-06-03T07:35:10.000Z</time>
      </trkpt>
      <trkpt lat="44.89778" lon="-0.5172">
        <ele>36.3</ele>
        <time>2021-06-03T07:35:11.000Z</time>
      </trkpt>
      <trkpt lat="44.89783" lon="-0.5172">
        <ele>36.3</ele>
        <time>2021-06-03T07:35:12.000Z</time>
      </trkpt>
      <trkpt lat="44.89788" lon="-0.51721">
        <ele>36.2</ele>
        <time>2021-06-03T07:35:13.000Z</time>
      </trkpt>
      <trkpt lat="44.89792" lon="-0.51722">
        <ele>36.1</ele>
        <time>2021-06-03T07:35:14.000Z</time>
      </trkpt>
      <trkpt lat="44.89797" lon="-0.51722">
        <ele>36</ele>
        <time>2021-06-03T07:35:15.000Z</time>
      </trkpt>
      <trkpt lat="44.89802" lon="-0.51723">
        <ele>35.9</ele>
        <time>2021-06-03T07:35:16.000Z</time>
      </trkpt>
      <trkpt lat="44.89806" lon="-0.51724">
        <ele>35.8</ele>
        <time>2021-06-03T07:35:17.000Z</time>
      </trkpt>
      <trkpt lat="44.89811" lon="-0.51724">
        <ele>35.9</ele>
        <time>2021-06-03T07:35:18.000Z</time>
      </trkpt>
      <trkpt lat="44.89816" lon="-0.51725">
        <ele>36</ele>
        <time>2021-06-03T07:35:19.000Z</time>
      </trkpt>
      <trkpt lat="44.89821" lon="-0.51726">
        <ele>36</ele>
        <time>2021-06-03T07:35:20.000Z</time>
      </trkpt>
      <trkpt lat="44.89826" lon="-0.51726">
        <ele>35.8</ele>
        <time>2021-06-03T07:35:21.000Z</time>
      </trkpt>
      <trkpt lat="44.89832" lon="-0.51727">
        <ele>35.7</ele>
        <time>2021-06-03T07:35:22.000Z</time>
      </trkpt>
      <trkpt lat="44.89837" lon="-0.51727">
        <ele>35.4</ele>
        <time>2021-06-03T07:35:23.000Z</time>
      </trkpt>
      <trkpt lat="44.89843" lon="-0.51728">
        <ele>35.2</ele>
        <time>2021-06-03T07:35:24.000Z</time>
      </trkpt>
      <trkpt lat="44.89849" lon="-0.51729">
        <ele>34.7</ele>
        <time>2021-06-03T07:35:25.000Z</time>
      </trkpt>
      <trkpt lat="44.89856" lon="-0.51729">
        <ele>34.4</ele>
        <time>2021-06-03T07:35:26.000Z</time>
      </trkpt>
      <trkpt lat="44.89863" lon="-0.51729">
        <ele>34.1</ele>
        <time>2021-06-03T07:35:27.000Z</time>
      </trkpt>
      <trkpt lat="44.8987" lon="-0.5173">
        <ele>33.8</ele>
        <time>2021-06-03T07:35:28.000Z</time>
      </trkpt>
      <trkpt lat="44.89877" lon="-0.51731">
        <ele>33.5</ele>
        <time>2021-06-03T07:35:29.000Z</time>
      </trkpt>
      <trkpt lat="44.89885" lon="-0.51731">
        <ele>33.4</ele>
        <time>2021-06-03T07:35:30.000Z</time>
      </trkpt>
      <trkpt lat="44.89892" lon="-0.51732">
        <ele>33.3</ele>
        <time>2021-06-03T07:35:31.000Z</time>
      </trkpt>
      <trkpt lat="44.89899" lon="-0.51733">
        <ele>32.5</ele>
        <time>2021-06-03T07:35:32.000Z</time>
      </trkpt>
      <trkpt lat="44.89907" lon="-0.51734">
        <ele>32</ele>
        <time>2021-06-03T07:35:33.000Z</time>
      </trkpt>
      <trkpt lat="44.89913" lon="-0.51735">
        <ele>31.5</ele>
        <time>2021-06-03T07:35:34.000Z</time>
      </trkpt>
      <trkpt lat="44.8992" lon="-0.51736">
        <ele>31.2</ele>
        <time>2021-06-03T07:35:35.000Z</time>
      </trkpt>
      <trkpt lat="44.89927" lon="-0.51737">
        <ele>30.9</ele>
        <time>2021-06-03T07:35:36.000Z</time>
      </trkpt>
      <trkpt lat="44.89934" lon="-0.51738">
        <ele>31.1</ele>
        <time>2021-06-03T07:35:37.000Z</time>
      </trkpt>
      <trkpt lat="44.8994" lon="-0.51739">
        <ele>31.3</ele>
        <time>2021-06-03T07:35:38.000Z</time>
      </trkpt>
      <trkpt lat="44.89947" lon="-0.51739">
        <ele>31.4</ele>
        <time>2021-06-03T07:35:39.000Z</time>
      </trkpt>
      <trkpt lat="44.89953" lon="-0.5174">
        <ele>31.1</ele>
        <time>2021-06-03T07:35:40.000Z</time>
      </trkpt>
      <trkpt lat="44.8996" lon="-0.5174">
        <ele>30.9</ele>
        <time>2021-06-03T07:35:41.000Z</time>
      </trkpt>
      <trkpt lat="44.89966" lon="-0.5174">
        <ele>30.7</ele>
        <time>2021-06-03T07:35:42.000Z</time>
      </trkpt>
      <trkpt lat="44.89971" lon="-0.5174">
        <ele>30.6</ele>
        <time>2021-06-03T07:35:43.000Z</time>
      </trkpt>
      <trkpt lat="44.89977" lon="-0.5174">
        <ele>30.9</ele>
        <time>2021-06-03T07:35:44.000Z</time>
      </trkpt>
      <trkpt lat="44.89982" lon="-0.5174">
        <ele>31.2</ele>
        <time>2021-06-03T07:35:45.000Z</time>
      </trkpt>
      <trkpt lat="44.89991" lon="-0.51739">
        <ele>30.9</ele>
        <time>2021-06-03T07:35:47.000Z</time>
      </trkpt>
      <trkpt lat="44.89999" lon="-0.51736">
        <ele>29.9</ele>
        <time>2021-06-03T07:35:50.000Z</time>
      </trkpt>
      <trkpt lat="44.90006" lon="-0.51733">
        <ele>30.2</ele>
        <time>2021-06-03T07:35:52.000Z</time>
      </trkpt>
      <trkpt lat="44.90014" lon="-0.51732">
        <ele>30</ele>
        <time>2021-06-03T07:35:54.000Z</time>
      </trkpt>
      <trkpt lat="44.90023" lon="-0.51732">
        <ele>29.5</ele>
        <time>2021-06-03T07:35:56.000Z</time>
      </trkpt>
      <trkpt lat="44.90027" lon="-0.51732">
        <ele>29.3</ele>
        <time>2021-06-03T07:35:57.000Z</time>
      </trkpt>
      <trkpt lat="44.90032" lon="-0.51732">
        <ele>29.2</ele>
        <time>2021-06-03T07:35:58.000Z</time>
      </trkpt>
      <trkpt lat="44.90037" lon="-0.51733">
        <ele>29.1</ele>
        <time>2021-06-03T07:35:59.000Z</time>
      </trkpt>
      <trkpt lat="44.90045" lon="-0.51733">
        <ele>28.8</ele>
        <time>2021-06-03T07:36:01.000Z</time>
      </trkpt>
      <trkpt lat="44.90053" lon="-0.51732">
        <ele>28.2</ele>
        <time>2021-06-03T07:36:03.000Z</time>
      </trkpt>
      <trkpt lat="44.90059" lon="-0.51732">
        <ele>27.8</ele>
        <time>2021-06-03T07:36:05.000Z</time>
      </trkpt>
      <trkpt lat="44.90066" lon="-0.51733">
        <ele>28.1</ele>
        <time>2021-06-03T07:36:07.000Z</time>
      </trkpt>
      <trkpt lat="44.90073" lon="-0.51735">
        <ele>28</ele>
        <time>2021-06-03T07:36:09.000Z</time>
      </trkpt>
      <trkpt lat="44.9008" lon="-0.51739">
        <ele>27.5</ele>
        <time>2021-06-03T07:36:11.000Z</time>
      </trkpt>
      <trkpt lat="44.90088" lon="-0.51744">
        <ele>27.4</ele>
        <time>2021-06-03T07:36:13.000Z</time>
      </trkpt>
      <trkpt lat="44.90091" lon="-0.51747">
        <ele>27.4</ele>
        <time>2021-06-03T07:36:14.000Z</time>
      </trkpt>
      <trkpt lat="44.90101" lon="-0.51757">
        <ele>27.9</ele>
        <time>2021-06-03T07:36:17.000Z</time>
      </trkpt>
      <trkpt lat="44.90108" lon="-0.51765">
        <ele>27.8</ele>
        <time>2021-06-03T07:36:19.000Z</time>
      </trkpt>
      <trkpt lat="44.90111" lon="-0.51771">
        <ele>27.4</ele>
        <time>2021-06-03T07:36:20.000Z</time>
      </trkpt>
      <trkpt lat="44.90117" lon="-0.51779">
        <ele>26.7</ele>
        <time>2021-06-03T07:36:22.000Z</time>
      </trkpt>
      <trkpt lat="44.90122" lon="-0.51784">
        <ele>26.1</ele>
        <time>2021-06-03T07:36:24.000Z</time>
      </trkpt>
      <trkpt lat="44.90127" lon="-0.5179">
        <ele>25.6</ele>
        <time>2021-06-03T07:36:26.000Z</time>
      </trkpt>
      <trkpt lat="44.90134" lon="-0.51796">
        <ele>25</ele>
        <time>2021-06-03T07:36:28.000Z</time>
      </trkpt>
      <trkpt lat="44.90139" lon="-0.51797">
        <ele>24.4</ele>
        <time>2021-06-03T07:36:29.000Z</time>
      </trkpt>
      <trkpt lat="44.90144" lon="-0.51798">
        <ele>24</ele>
        <time>2021-06-03T07:36:30.000Z</time>
      </trkpt>
      <trkpt lat="44.90148" lon="-0.51799">
        <ele>23.6</ele>
        <time>2021-06-03T07:36:31.000Z</time>
      </trkpt>
      <trkpt lat="44.90153" lon="-0.518">
        <ele>23.2</ele>
        <time>2021-06-03T07:36:32.000Z</time>
      </trkpt>
      <trkpt lat="44.90159" lon="-0.518">
        <ele>22.8</ele>
        <time>2021-06-03T07:36:33.000Z</time>
      </trkpt>
      <trkpt lat="44.90164" lon="-0.51801">
        <ele>22.9</ele>
        <time>2021-06-03T07:36:34.000Z</time>
      </trkpt>
      <trkpt lat="44.90169" lon="-0.51801">
        <ele>23</ele>
        <time>2021-06-03T07:36:35.000Z</time>
      </trkpt>
      <trkpt lat="44.90175" lon="-0.51802">
        <ele>23.1</ele>
        <time>2021-06-03T07:36:36.000Z</time>
      </trkpt>
      <trkpt lat="44.9018" lon="-0.51803">
        <ele>22.5</ele>
        <time>2021-06-03T07:36:37.000Z</time>
      </trkpt>
      <trkpt lat="44.90186" lon="-0.51804">
        <ele>22</ele>
        <time>2021-06-03T07:36:38.000Z</time>
      </trkpt>
      <trkpt lat="44.90193" lon="-0.51805">
        <ele>21.3</ele>
        <time>2021-06-03T07:36:39.000Z</time>
      </trkpt>
      <trkpt lat="44.902" lon="-0.51806">
        <ele>20.9</ele>
        <time>2021-06-03T07:36:40.000Z</time>
      </trkpt>
      <trkpt lat="44.90206" lon="-0.51808">
        <ele>19.8</ele>
        <time>2021-06-03T07:36:41.000Z</time>
      </trkpt>
      <trkpt lat="44.90211" lon="-0.5181">
        <ele>19</ele>
        <time>2021-06-03T07:36:42.000Z</time>
      </trkpt>
      <trkpt lat="44.90216" lon="-0.51812">
        <ele>18.4</ele>
        <time>2021-06-03T07:36:43.000Z</time>
      </trkpt>
      <trkpt lat="44.90221" lon="-0.51815">
        <ele>17.7</ele>
        <time>2021-06-03T07:36:44.000Z</time>
      </trkpt>
      <trkpt lat="44.90226" lon="-0.51818">
        <ele>17.3</ele>
        <time>2021-06-03T07:36:45.000Z</time>
      </trkpt>
      <trkpt lat="44.90232" lon="-0.5182">
        <ele>16.4</ele>
        <time>2021-06-03T07:36:46.000Z</time>
      </trkpt>
      <trkpt lat="44.90237" lon="-0.51824">
        <ele>15.7</ele>
        <time>2021-06-03T07:36:47.000Z</time>
      </trkpt>
      <trkpt lat="44.90243" lon="-0.51826">
        <ele>15.1</ele>
        <time>2021-06-03T07:36:48.000Z</time>
      </trkpt>
      <trkpt lat="44.9025" lon="-0.51829">
        <ele>14.7</ele>
        <time>2021-06-03T07:36:49.000Z</time>
      </trkpt>
      <trkpt lat="44.90255" lon="-0.5183">
        <ele>14.4</ele>
        <time>2021-06-03T07:36:50.000Z</time>
      </trkpt>
      <trkpt lat="44.90262" lon="-0.51832">
        <ele>13.9</ele>
        <time>2021-06-03T07:36:51.000Z</time>
      </trkpt>
      <trkpt lat="44.90269" lon="-0.51833">
        <ele>13.5</ele>
        <time>2021-06-03T07:36:52.000Z</time>
      </trkpt>
      <trkpt lat="44.90276" lon="-0.51833">
        <ele>12.4</ele>
        <time>2021-06-03T07:36:53.000Z</time>
      </trkpt>
      <trkpt lat="44.90283" lon="-0.51833">
        <ele>11.6</ele>
        <time>2021-06-03T07:36:54.000Z</time>
      </trkpt>
      <trkpt lat="44.90289" lon="-0.51832">
        <ele>11</ele>
        <time>2021-06-03T07:36:55.000Z</time>
      </trkpt>
      <trkpt lat="44.90294" lon="-0.51832">
        <ele>10.2</ele>
        <time>2021-06-03T07:36:56.000Z</time>
      </trkpt>
      <trkpt lat="44.90303" lon="-0.5183">
        <ele>8.8</ele>
        <time>2021-06-03T07:36:58.000Z</time>
      </trkpt>
      <trkpt lat="44.90308" lon="-0.51829">
        <ele>8.2</ele>
        <time>2021-06-03T07:36:59.000Z</time>
      </trkpt>
      <trkpt lat="44.90313" lon="-0.51829">
        <ele>8</ele>
        <time>2021-06-03T07:37:00.000Z</time>
      </trkpt>
      <trkpt lat="44.90318" lon="-0.51828">
        <ele>7.9</ele>
        <time>2021-06-03T07:37:01.000Z</time>
      </trkpt>
      <trkpt lat="44.90324" lon="-0.51826">
        <ele>7.8</ele>
        <time>2021-06-03T07:37:02.000Z</time>
      </trkpt>
      <trkpt lat="44.90329" lon="-0.51824">
        <ele>7.3</ele>
        <time>2021-06-03T07:37:03.000Z</time>
      </trkpt>
      <trkpt lat="44.90335" lon="-0.51821">
        <ele>7</ele>
        <time>2021-06-03T07:37:04.000Z</time>
      </trkpt>
      <trkpt lat="44.90341" lon="-0.51819">
        <ele>6.9</ele>
        <time>2021-06-03T07:37:05.000Z</time>
      </trkpt>
      <trkpt lat="44.90347" lon="-0.51816">
        <ele>6.8</ele>
        <time>2021-06-03T07:37:06.000Z</time>
      </trkpt>
      <trkpt lat="44.90354" lon="-0.51814">
        <ele>6.5</ele>
        <time>2021-06-03T07:37:07.000Z</time>
      </trkpt>
      <trkpt lat="44.90361" lon="-0.51811">
        <ele>6.3</ele>
        <time>2021-06-03T07:37:08.000Z</time>
      </trkpt>
      <trkpt lat="44.90367" lon="-0.51809">
        <ele>6.1</ele>
        <time>2021-06-03T07:37:09.000Z</time>
      </trkpt>
      <trkpt lat="44.90374" lon="-0.51806">
        <ele>5.4</ele>
        <time>2021-06-03T07:37:10.000Z</time>
      </trkpt>
      <trkpt lat="44.90381" lon="-0.51804">
        <ele>4.9</ele>
        <time>2021-06-03T07:37:11.000Z</time>
      </trkpt>
      <trkpt lat="44.90387" lon="-0.51801">
        <ele>4.4</ele>
        <time>2021-06-03T07:37:12.000Z</time>
      </trkpt>
      <trkpt lat="44.90394" lon="-0.51798">
        <ele>4</ele>
        <time>2021-06-03T07:37:13.000Z</time>
      </trkpt>
      <trkpt lat="44.90401" lon="-0.51796">
        <ele>3.8</ele>
        <time>2021-06-03T07:37:14.000Z</time>
      </trkpt>
      <trkpt lat="44.90407" lon="-0.51793">
        <ele>4</ele>
        <time>2021-06-03T07:37:15.000Z</time>
      </trkpt>
      <trkpt lat="44.90414" lon="-0.5179">
        <ele>4.1</ele>
        <time>2021-06-03T07:37:16.000Z</time>
      </trkpt>
      <trkpt lat="44.90421" lon="-0.51787">
        <ele>4.3</ele>
        <time>2021-06-03T07:37:17.000Z</time>
      </trkpt>
      <trkpt lat="44.90427" lon="-0.51784">
        <ele>4.5</ele>
        <time>2021-06-03T07:37:18.000Z</time>
      </trkpt>
      <trkpt lat="44.90434" lon="-0.51781">
        <ele>3.7</ele>
        <time>2021-06-03T07:37:19.000Z</time>
      </trkpt>
      <trkpt lat="44.90441" lon="-0.51777">
        <ele>3.1</ele>
        <time>2021-06-03T07:37:20.000Z</time>
      </trkpt>
      <trkpt lat="44.90447" lon="-0.51774">
        <ele>2.7</ele>
        <time>2021-06-03T07:37:21.000Z</time>
      </trkpt>
      <trkpt lat="44.90454" lon="-0.51771">
        <ele>2.5</ele>
        <time>2021-06-03T07:37:22.000Z</time>
      </trkpt>
      <trkpt lat="44.90461" lon="-0.51768">
        <ele>2.3</ele>
        <time>2021-06-03T07:37:23.000Z</time>
      </trkpt>
      <trkpt lat="44.90467" lon="-0.51765">
        <ele>2.4</ele>
        <time>2021-06-03T07:37:24.000Z</time>
      </trkpt>
      <trkpt lat="44.90473" lon="-0.51762">
        <ele>2.4</ele>
        <time>2021-06-03T07:37:25.000Z</time>
      </trkpt>
      <trkpt lat="44.9048" lon="-0.5176">
        <ele>2.4</ele>
        <time>2021-06-03T07:37:26.000Z</time>
      </trkpt>
      <trkpt lat="44.90486" lon="-0.51757">
        <ele>2.3</ele>
        <time>2021-06-03T07:37:27.000Z</time>
      </trkpt>
      <trkpt lat="44.90492" lon="-0.51754">
        <ele>2.3</ele>
        <time>2021-06-03T07:37:28.000Z</time>
      </trkpt>
      <trkpt lat="44.90499" lon="-0.51752">
        <ele>2.5</ele>
        <time>2021-06-03T07:37:29.000Z</time>
      </trkpt>
      <trkpt lat="44.90505" lon="-0.51749">
        <ele>2.7</ele>
        <time>2021-06-03T07:37:30.000Z</time>
      </trkpt>
      <trkpt lat="44.90511" lon="-0.51747">
        <ele>2.3</ele>
        <time>2021-06-03T07:37:31.000Z</time>
      </trkpt>
      <trkpt lat="44.90516" lon="-0.51744">
        <ele>1.9</ele>
        <time>2021-06-03T07:37:32.000Z</time>
      </trkpt>
      <trkpt lat="44.90522" lon="-0.51738">
        <ele>1.8</ele>
        <time>2021-06-03T07:37:34.000Z</time>
      </trkpt>
      <trkpt lat="44.90527" lon="-0.51732">
        <ele>2.1</ele>
        <time>2021-06-03T07:37:36.000Z</time>
      </trkpt>
      <trkpt lat="44.90533" lon="-0.51724">
        <ele>2</ele>
        <time>2021-06-03T07:37:38.000Z</time>
      </trkpt>
      <trkpt lat="44.90541" lon="-0.51722">
        <ele>1.7</ele>
        <time>2021-06-03T07:37:40.000Z</time>
      </trkpt>
      <trkpt lat="44.90546" lon="-0.51723">
        <ele>1.8</ele>
        <time>2021-06-03T07:37:41.000Z</time>
      </trkpt>
      <trkpt lat="44.90551" lon="-0.51724">
        <ele>1.9</ele>
        <time>2021-06-03T07:37:42.000Z</time>
      </trkpt>
      <trkpt lat="44.90555" lon="-0.51723">
        <ele>1.4</ele>
        <time>2021-06-03T07:37:43.000Z</time>
      </trkpt>
      <trkpt lat="44.9056" lon="-0.51722">
        <ele>1.1</ele>
        <time>2021-06-03T07:37:44.000Z</time>
      </trkpt>
      <trkpt lat="44.90565" lon="-0.51721">
        <ele>1.1</ele>
        <time>2021-06-03T07:37:45.000Z</time>
      </trkpt>
      <trkpt lat="44.9057" lon="-0.5172">
        <ele>1.2</ele>
        <time>2021-06-03T07:37:46.000Z</time>
      </trkpt>
      <trkpt lat="44.90576" lon="-0.51718">
        <ele>1.2</ele>
        <time>2021-06-03T07:37:47.000Z</time>
      </trkpt>
      <trkpt lat="44.90581" lon="-0.51717">
        <ele>0.6</ele>
        <time>2021-06-03T07:37:48.000Z</time>
      </trkpt>
      <trkpt lat="44.90587" lon="-0.51715">
        <ele>0.2</ele>
        <time>2021-06-03T07:37:49.000Z</time>
      </trkpt>
      <trkpt lat="44.90593" lon="-0.51714">
        <ele>0.2</ele>
        <time>2021-06-03T07:37:50.000Z</time>
      </trkpt>
      <trkpt lat="44.906" lon="-0.51713">
        <ele>0.2</ele>
        <time>2021-06-03T07:37:51.000Z</time>
      </trkpt>
      <trkpt lat="44.90606" lon="-0.51712">
        <ele>0.2</ele>
        <time>2021-06-03T07:37:52.000Z</time>
      </trkpt>
      <trkpt lat="44.90613" lon="-0.51711">
        <ele>12.3</ele>
        <time>2021-06-03T07:37:53.000Z</time>
      </trkpt>
      <trkpt lat="44.90619" lon="-0.51711">
        <ele>12.1</ele>
        <time>2021-06-03T07:37:54.000Z</time>
      </trkpt>
      <trkpt lat="44.90626" lon="-0.51711">
        <ele>-0.5</ele>
        <time>2021-06-03T07:37:55.000Z</time>
      </trkpt>
      <trkpt lat="44.90634" lon="-0.5171">
        <ele>-0.8</ele>
        <time>2021-06-03T07:37:56.000Z</time>
      </trkpt>
      <trkpt lat="44.90641" lon="-0.5171">
        <ele>-0.9</ele>
        <time>2021-06-03T07:37:57.000Z</time>
      </trkpt>
      <trkpt lat="44.90648" lon="-0.5171">
        <ele>-1</ele>
        <time>2021-06-03T07:37:58.000Z</time>
      </trkpt>
      <trkpt lat="44.90655" lon="-0.51711">
        <ele>-1.1</ele>
        <time>2021-06-03T07:37:59.000Z</time>
      </trkpt>
      <trkpt lat="44.90663" lon="-0.51711">
        <ele>-1.7</ele>
        <time>2021-06-03T07:38:00.000Z</time>
      </trkpt>
      <trkpt lat="44.9067" lon="-0.51711">
        <ele>-2.1</ele>
        <time>2021-06-03T07:38:01.000Z</time>
      </trkpt>
      <trkpt lat="44.90678" lon="-0.51711">
        <ele>-2</ele>
        <time>2021-06-03T07:38:02.000Z</time>
      </trkpt>
      <trkpt lat="44.90685" lon="-0.51712">
        <ele>-1.9</ele>
        <time>2021-06-03T07:38:03.000Z</time>
      </trkpt>
      <trkpt lat="44.90692" lon="-0.51713">
        <ele>-2.5</ele>
        <time>2021-06-03T07:38:04.000Z</time>
      </trkpt>
      <trkpt lat="44.90699" lon="-0.51716">
        <ele>-2.9</ele>
        <time>2021-06-03T07:38:05.000Z</time>
      </trkpt>
      <trkpt lat="44.90706" lon="-0.51717">
        <ele>-3.3</ele>
        <time>2021-06-03T07:38:06.000Z</time>
      </trkpt>
      <trkpt lat="44.90713" lon="-0.51716">
        <ele>-3.6</ele>
        <time>2021-06-03T07:38:07.000Z</time>
      </trkpt>
      <trkpt lat="44.9072" lon="-0.51714">
        <ele>-3.9</ele>
        <time>2021-06-03T07:38:08.000Z</time>
      </trkpt>
      <trkpt lat="44.90726" lon="-0.51711">
        <ele>-3.8</ele>
        <time>2021-06-03T07:38:09.000Z</time>
      </trkpt>
      <trkpt lat="44.90733" lon="-0.51709">
        <ele>-3.7</ele>
        <time>2021-06-03T07:38:10.000Z</time>
      </trkpt>
      <trkpt lat="44.9074" lon="-0.51707">
        <ele>-3.9</ele>
        <time>2021-06-03T07:38:11.000Z</time>
      </trkpt>
      <trkpt lat="44.90747" lon="-0.51704">
        <ele>-4.1</ele>
        <time>2021-06-03T07:38:12.000Z</time>
      </trkpt>
      <trkpt lat="44.90753" lon="-0.51702">
        <ele>-4.2</ele>
        <time>2021-06-03T07:38:13.000Z</time>
      </trkpt>
      <trkpt lat="44.90758" lon="-0.517">
        <ele>-4.4</ele>
        <time>2021-06-03T07:38:14.000Z</time>
      </trkpt>
      <trkpt lat="44.90763" lon="-0.51696">
        <ele>-4.6</ele>
        <time>2021-06-03T07:38:15.000Z</time>
      </trkpt>
      <trkpt lat="44.90767" lon="-0.51691">
        <ele>-4.4</ele>
        <time>2021-06-03T07:38:16.000Z</time>
      </trkpt>
      <trkpt lat="44.90771" lon="-0.51686">
        <ele>-4.3</ele>
        <time>2021-06-03T07:38:17.000Z</time>
      </trkpt>
      <trkpt lat="44.90775" lon="-0.51682">
        <ele>-4.2</ele>
        <time>2021-06-03T07:38:18.000Z</time>
      </trkpt>
      <trkpt lat="44.90779" lon="-0.51678">
        <ele>-4.5</ele>
        <time>2021-06-03T07:38:19.000Z</time>
      </trkpt>
      <trkpt lat="44.90783" lon="-0.51674">
        <ele>-4.6</ele>
        <time>2021-06-03T07:38:20.000Z</time>
      </trkpt>
      <trkpt lat="44.90791" lon="-0.51666">
        <ele>-5.3</ele>
        <time>2021-06-03T07:38:22.000Z</time>
      </trkpt>
      <trkpt lat="44.90797" lon="-0.5166">
        <ele>-5.3</ele>
        <time>2021-06-03T07:38:24.000Z</time>
      </trkpt>
      <trkpt lat="44.90803" lon="-0.51654">
        <ele>-5</ele>
        <time>2021-06-03T07:38:26.000Z</time>
      </trkpt>
      <trkpt lat="44.90808" lon="-0.51649">
        <ele>-5</ele>
        <time>2021-06-03T07:38:28.000Z</time>
      </trkpt>
      <trkpt lat="44.90813" lon="-0.51643">
        <ele>-5.2</ele>
        <time>2021-06-03T07:38:30.000Z</time>
      </trkpt>
      <trkpt lat="44.90819" lon="-0.51637">
        <ele>-5.3</ele>
        <time>2021-06-03T07:38:32.000Z</time>
      </trkpt>
      <trkpt lat="44.90824" lon="-0.51631">
        <ele>-5.3</ele>
        <time>2021-06-03T07:38:34.000Z</time>
      </trkpt>
      <trkpt lat="44.9083" lon="-0.51624">
        <ele>-4.9</ele>
        <time>2021-06-03T07:38:36.000Z</time>
      </trkpt>
      <trkpt lat="44.90834" lon="-0.51618">
        <ele>-5.1</ele>
        <time>2021-06-03T07:38:38.000Z</time>
      </trkpt>
      <trkpt lat="44.9084" lon="-0.51612">
        <ele>-5.4</ele>
        <time>2021-06-03T07:38:40.000Z</time>
      </trkpt>
      <trkpt lat="44.90846" lon="-0.51605">
        <ele>-5.3</ele>
        <time>2021-06-03T07:38:42.000Z</time>
      </trkpt>
      <trkpt lat="44.90852" lon="-0.51598">
        <ele>-5.2</ele>
        <time>2021-06-03T07:38:44.000Z</time>
      </trkpt>
      <trkpt lat="44.90858" lon="-0.51593">
        <ele>-4.8</ele>
        <time>2021-06-03T07:38:46.000Z</time>
      </trkpt>
      <trkpt lat="44.90865" lon="-0.51587">
        <ele>-4.1</ele>
        <time>2021-06-03T07:38:48.000Z</time>
      </trkpt>
      <trkpt lat="44.9087" lon="-0.51579">
        <ele>-3.2</ele>
        <time>2021-06-03T07:38:50.000Z</time>
      </trkpt>
      <trkpt lat="44.90876" lon="-0.51572">
        <ele>-3.3</ele>
        <time>2021-06-03T07:38:52.000Z</time>
      </trkpt>
      <trkpt lat="44.90882" lon="-0.51565">
        <ele>-3.6</ele>
        <time>2021-06-03T07:38:54.000Z</time>
      </trkpt>
      <trkpt lat="44.90887" lon="-0.51558">
        <ele>-3.6</ele>
        <time>2021-06-03T07:38:56.000Z</time>
      </trkpt>
      <trkpt lat="44.90892" lon="-0.51551">
        <ele>-3.2</ele>
        <time>2021-06-03T07:38:58.000Z</time>
      </trkpt>
      <trkpt lat="44.90896" lon="-0.51544">
        <ele>-3.2</ele>
        <time>2021-06-03T07:39:00.000Z</time>
      </trkpt>
      <trkpt lat="44.90899" lon="-0.51536">
        <ele>-2</ele>
        <time>2021-06-03T07:39:02.000Z</time>
      </trkpt>
      <trkpt lat="44.90901" lon="-0.51528">
        <ele>-1.4</ele>
        <time>2021-06-03T07:39:04.000Z</time>
      </trkpt>
      <trkpt lat="44.90903" lon="-0.51516">
        <ele>-1.5</ele>
        <time>2021-06-03T07:39:07.000Z</time>
      </trkpt>
      <trkpt lat="44.90903" lon="-0.51503">
        <ele>-1.9</ele>
        <time>2021-06-03T07:39:10.000Z</time>
      </trkpt>
      <trkpt lat="44.90903" lon="-0.51491">
        <ele>-1.6</ele>
        <time>2021-06-03T07:39:13.000Z</time>
      </trkpt>
      <trkpt lat="44.90907" lon="-0.51483">
        <ele>-1.3</ele>
        <time>2021-06-03T07:39:16.000Z</time>
      </trkpt>
      <trkpt lat="44.90909" lon="-0.51481">
        <ele>-1.2</ele>
        <time>2021-06-03T07:39:17.000Z</time>
      </trkpt>
      <trkpt lat="44.9092" lon="-0.5148">
        <ele>-0.3</ele>
        <time>2021-06-03T07:39:22.000Z</time>
      </trkpt>
      <trkpt lat="44.90928" lon="-0.51485">
        <ele>0.2</ele>
        <time>2021-06-03T07:39:25.000Z</time>
      </trkpt>
      <trkpt lat="44.90934" lon="-0.51482">
        <ele>0.2</ele>
        <time>2021-06-03T07:39:27.000Z</time>
      </trkpt>
      <trkpt lat="44.9094" lon="-0.51477">
        <ele>11.7</ele>
        <time>2021-06-03T07:39:29.000Z</time>
      </trkpt>
      <trkpt lat="44.90946" lon="-0.51471">
        <ele>0.1</ele>
        <time>2021-06-03T07:39:31.000Z</time>
      </trkpt>
      <trkpt lat="44.90951" lon="-0.51466">
        <ele>12.2</ele>
        <time>2021-06-03T07:39:33.000Z</time>
      </trkpt>
      <trkpt lat="44.90956" lon="-0.51461">
        <ele>0.7</ele>
        <time>2021-06-03T07:39:35.000Z</time>
      </trkpt>
      <trkpt lat="44.90961" lon="-0.51456">
        <ele>0.7</ele>
        <time>2021-06-03T07:39:37.000Z</time>
      </trkpt>
      <trkpt lat="44.90967" lon="-0.51452">
        <ele>0.8</ele>
        <time>2021-06-03T07:39:39.000Z</time>
      </trkpt>
      <trkpt lat="44.90973" lon="-0.51448">
        <ele>1.1</ele>
        <time>2021-06-03T07:39:41.000Z</time>
      </trkpt>
      <trkpt lat="44.90979" lon="-0.51443">
        <ele>1.8</ele>
        <time>2021-06-03T07:39:43.000Z</time>
      </trkpt>
      <trkpt lat="44.90985" lon="-0.51438">
        <ele>1.4</ele>
        <time>2021-06-03T07:39:45.000Z</time>
      </trkpt>
      <trkpt lat="44.90991" lon="-0.51433">
        <ele>1.2</ele>
        <time>2021-06-03T07:39:47.000Z</time>
      </trkpt>
      <trkpt lat="44.90997" lon="-0.51428">
        <ele>1.4</ele>
        <time>2021-06-03T07:39:49.000Z</time>
      </trkpt>
      <trkpt lat="44.91003" lon="-0.51423">
        <ele>1.9</ele>
        <time>2021-06-03T07:39:51.000Z</time>
      </trkpt>
      <trkpt lat="44.9101" lon="-0.51418">
        <ele>2.1</ele>
        <time>2021-06-03T07:39:53.000Z</time>
      </trkpt>
      <trkpt lat="44.91015" lon="-0.51412">
        <ele>2</ele>
        <time>2021-06-03T07:39:55.000Z</time>
      </trkpt>
      <trkpt lat="44.91022" lon="-0.51405">
        <ele>2.5</ele>
        <time>2021-06-03T07:39:57.000Z</time>
      </trkpt>
      <trkpt lat="44.91028" lon="-0.51398">
        <ele>1.7</ele>
        <time>2021-06-03T07:39:59.000Z</time>
      </trkpt>
      <trkpt lat="44.91035" lon="-0.51391">
        <ele>1.4</ele>
        <time>2021-06-03T07:40:01.000Z</time>
      </trkpt>
      <trkpt lat="44.91042" lon="-0.51384">
        <ele>1.7</ele>
        <time>2021-06-03T07:40:03.000Z</time>
      </trkpt>
      <trkpt lat="44.91046" lon="-0.5138">
        <ele>1.9</ele>
        <time>2021-06-03T07:40:04.000Z</time>
      </trkpt>
      <trkpt lat="44.9105" lon="-0.51377">
        <ele>2</ele>
        <time>2021-06-03T07:40:05.000Z</time>
      </trkpt>
      <trkpt lat="44.91057" lon="-0.5137">
        <ele>2.1</ele>
        <time>2021-06-03T07:40:07.000Z</time>
      </trkpt>
      <trkpt lat="44.91065" lon="-0.51364">
        <ele>2.2</ele>
        <time>2021-06-03T07:40:09.000Z</time>
      </trkpt>
      <trkpt lat="44.91073" lon="-0.51359">
        <ele>2.2</ele>
        <time>2021-06-03T07:40:11.000Z</time>
      </trkpt>
      <trkpt lat="44.91077" lon="-0.51356">
        <ele>2.1</ele>
        <time>2021-06-03T07:40:12.000Z</time>
      </trkpt>
      <trkpt lat="44.91081" lon="-0.51353">
        <ele>2.1</ele>
        <time>2021-06-03T07:40:13.000Z</time>
      </trkpt>
      <trkpt lat="44.91089" lon="-0.51347">
        <ele>2.2</ele>
        <time>2021-06-03T07:40:15.000Z</time>
      </trkpt>
      <trkpt lat="44.91096" lon="-0.51341">
        <ele>2.5</ele>
        <time>2021-06-03T07:40:17.000Z</time>
      </trkpt>
      <trkpt lat="44.911" lon="-0.51338">
        <ele>2.7</ele>
        <time>2021-06-03T07:40:18.000Z</time>
      </trkpt>
      <trkpt lat="44.91105" lon="-0.51336">
        <ele>2.8</ele>
        <time>2021-06-03T07:40:19.000Z</time>
      </trkpt>
      <trkpt lat="44.91109" lon="-0.51333">
        <ele>2.9</ele>
        <time>2021-06-03T07:40:20.000Z</time>
      </trkpt>
      <trkpt lat="44.91113" lon="-0.5133">
        <ele>3</ele>
        <time>2021-06-03T07:40:21.000Z</time>
      </trkpt>
      <trkpt lat="44.91117" lon="-0.51327">
        <ele>3.1</ele>
        <time>2021-06-03T07:40:22.000Z</time>
      </trkpt>
      <trkpt lat="44.91121" lon="-0.51324">
        <ele>3.2</ele>
        <time>2021-06-03T07:40:23.000Z</time>
      </trkpt>
      <trkpt lat="44.91125" lon="-0.51321">
        <ele>3.2</ele>
        <time>2021-06-03T07:40:24.000Z</time>
      </trkpt>
      <trkpt lat="44.91129" lon="-0.51318">
        <ele>3.2</ele>
        <time>2021-06-03T07:40:25.000Z</time>
      </trkpt>
      <trkpt lat="44.91133" lon="-0.51316">
        <ele>3.2</ele>
        <time>2021-06-03T07:40:26.000Z</time>
      </trkpt>
      <trkpt lat="44.91138" lon="-0.51313">
        <ele>3.1</ele>
        <time>2021-06-03T07:40:27.000Z</time>
      </trkpt>
      <trkpt lat="44.91142" lon="-0.5131">
        <ele>3.1</ele>
        <time>2021-06-03T07:40:28.000Z</time>
      </trkpt>
      <trkpt lat="44.91146" lon="-0.51308">
        <ele>3.2</ele>
        <time>2021-06-03T07:40:29.000Z</time>
      </trkpt>
      <trkpt lat="44.91154" lon="-0.51302">
        <ele>3.7</ele>
        <time>2021-06-03T07:40:31.000Z</time>
      </trkpt>
      <trkpt lat="44.91162" lon="-0.51296">
        <ele>4.2</ele>
        <time>2021-06-03T07:40:33.000Z</time>
      </trkpt>
      <trkpt lat="44.91169" lon="-0.51291">
        <ele>3.5</ele>
        <time>2021-06-03T07:40:35.000Z</time>
      </trkpt>
      <trkpt lat="44.91177" lon="-0.51286">
        <ele>3.8</ele>
        <time>2021-06-03T07:40:37.000Z</time>
      </trkpt>
      <trkpt lat="44.91184" lon="-0.51281">
        <ele>4.4</ele>
        <time>2021-06-03T07:40:39.000Z</time>
      </trkpt>
      <trkpt lat="44.91191" lon="-0.51275">
        <ele>4.8</ele>
        <time>2021-06-03T07:40:41.000Z</time>
      </trkpt>
      <trkpt lat="44.91199" lon="-0.5127">
        <ele>5.2</ele>
        <time>2021-06-03T07:40:43.000Z</time>
      </trkpt>
      <trkpt lat="44.91206" lon="-0.51265">
        <ele>5.6</ele>
        <time>2021-06-03T07:40:45.000Z</time>
      </trkpt>
      <trkpt lat="44.91213" lon="-0.5126">
        <ele>5.6</ele>
        <time>2021-06-03T07:40:47.000Z</time>
      </trkpt>
      <trkpt lat="44.9122" lon="-0.51255">
        <ele>5.1</ele>
        <time>2021-06-03T07:40:49.000Z</time>
      </trkpt>
      <trkpt lat="44.91227" lon="-0.5125">
        <ele>5.5</ele>
        <time>2021-06-03T07:40:51.000Z</time>
      </trkpt>
      <trkpt lat="44.91235" lon="-0.51245">
        <ele>5.9</ele>
        <time>2021-06-03T07:40:53.000Z</time>
      </trkpt>
      <trkpt lat="44.91241" lon="-0.5124">
        <ele>6.4</ele>
        <time>2021-06-03T07:40:55.000Z</time>
      </trkpt>
      <trkpt lat="44.91248" lon="-0.51235">
        <ele>6.8</ele>
        <time>2021-06-03T07:40:57.000Z</time>
      </trkpt>
      <trkpt lat="44.91255" lon="-0.51231">
        <ele>6.6</ele>
        <time>2021-06-03T07:40:59.000Z</time>
      </trkpt>
      <trkpt lat="44.91262" lon="-0.51226">
        <ele>6.9</ele>
        <time>2021-06-03T07:41:01.000Z</time>
      </trkpt>
      <trkpt lat="44.91269" lon="-0.5122">
        <ele>6.5</ele>
        <time>2021-06-03T07:41:03.000Z</time>
      </trkpt>
      <trkpt lat="44.91276" lon="-0.51215">
        <ele>6.5</ele>
        <time>2021-06-03T07:41:05.000Z</time>
      </trkpt>
      <trkpt lat="44.91284" lon="-0.51209">
        <ele>6.6</ele>
        <time>2021-06-03T07:41:07.000Z</time>
      </trkpt>
      <trkpt lat="44.91292" lon="-0.51203">
        <ele>6.6</ele>
        <time>2021-06-03T07:41:09.000Z</time>
      </trkpt>
      <trkpt lat="44.91299" lon="-0.51197">
        <ele>6.6</ele>
        <time>2021-06-03T07:41:11.000Z</time>
      </trkpt>
      <trkpt lat="44.91306" lon="-0.5119">
        <ele>7</ele>
        <time>2021-06-03T07:41:13.000Z</time>
      </trkpt>
      <trkpt lat="44.91313" lon="-0.51184">
        <ele>8</ele>
        <time>2021-06-03T07:41:15.000Z</time>
      </trkpt>
      <trkpt lat="44.9132" lon="-0.51179">
        <ele>8.2</ele>
        <time>2021-06-03T07:41:17.000Z</time>
      </trkpt>
      <trkpt lat="44.91327" lon="-0.51173">
        <ele>8.3</ele>
        <time>2021-06-03T07:41:19.000Z</time>
      </trkpt>
      <trkpt lat="44.91331" lon="-0.5117">
        <ele>8.4</ele>
        <time>2021-06-03T07:41:20.000Z</time>
      </trkpt>
      <trkpt lat="44.91341" lon="-0.51162">
        <ele>8.9</ele>
        <time>2021-06-03T07:41:23.000Z</time>
      </trkpt>
      <trkpt lat="44.91348" lon="-0.51155">
        <ele>8.8</ele>
        <time>2021-06-03T07:41:25.000Z</time>
      </trkpt>
      <trkpt lat="44.91354" lon="-0.5115">
        <ele>9</ele>
        <time>2021-06-03T07:41:27.000Z</time>
      </trkpt>
      <trkpt lat="44.91361" lon="-0.51145">
        <ele>8.8</ele>
        <time>2021-06-03T07:41:29.000Z</time>
      </trkpt>
      <trkpt lat="44.91366" lon="-0.5114">
        <ele>8.2</ele>
        <time>2021-06-03T07:41:31.000Z</time>
      </trkpt>
      <trkpt lat="44.91371" lon="-0.5113">
        <ele>8.9</ele>
        <time>2021-06-03T07:41:34.000Z</time>
      </trkpt>
      <trkpt lat="44.91374" lon="-0.51119">
        <ele>10.1</ele>
        <time>2021-06-03T07:41:37.000Z</time>
      </trkpt>
      <trkpt lat="44.91379" lon="-0.51109">
        <ele>8.9</ele>
        <time>2021-06-03T07:41:41.000Z</time>
      </trkpt>
      <trkpt lat="44.91386" lon="-0.51109">
        <ele>9.2</ele>
        <time>2021-06-03T07:41:44.000Z</time>
      </trkpt>
      <trkpt lat="44.91392" lon="-0.51112">
        <ele>9.8</ele>
        <time>2021-06-03T07:41:46.000Z</time>
      </trkpt>
      <trkpt lat="44.914" lon="-0.51111">
        <ele>9.6</ele>
        <time>2021-06-03T07:41:48.000Z</time>
      </trkpt>
      <trkpt lat="44.91407" lon="-0.51106">
        <ele>9.6</ele>
        <time>2021-06-03T07:41:50.000Z</time>
      </trkpt>
      <trkpt lat="44.91415" lon="-0.511">
        <ele>9.8</ele>
        <time>2021-06-03T07:41:52.000Z</time>
      </trkpt>
      <trkpt lat="44.91422" lon="-0.51093">
        <ele>10</ele>
        <time>2021-06-03T07:41:54.000Z</time>
      </trkpt>
      <trkpt lat="44.91428" lon="-0.51087">
        <ele>10.1</ele>
        <time>2021-06-03T07:41:56.000Z</time>
      </trkpt>
      <trkpt lat="44.91435" lon="-0.5108">
        <ele>9.7</ele>
        <time>2021-06-03T07:41:58.000Z</time>
      </trkpt>
      <trkpt lat="44.91442" lon="-0.51074">
        <ele>9.7</ele>
        <time>2021-06-03T07:42:00.000Z</time>
      </trkpt>
      <trkpt lat="44.91449" lon="-0.51067">
        <ele>9.3</ele>
        <time>2021-06-03T07:42:02.000Z</time>
      </trkpt>
      <trkpt lat="44.91456" lon="-0.51061">
        <ele>9.2</ele>
        <time>2021-06-03T07:42:04.000Z</time>
      </trkpt>
      <trkpt lat="44.91463" lon="-0.51055">
        <ele>8.8</ele>
        <time>2021-06-03T07:42:06.000Z</time>
      </trkpt>
      <trkpt lat="44.91471" lon="-0.51049">
        <ele>7.9</ele>
        <time>2021-06-03T07:42:08.000Z</time>
      </trkpt>
      <trkpt lat="44.91474" lon="-0.51045">
        <ele>8.7</ele>
        <time>2021-06-03T07:42:09.000Z</time>
      </trkpt>
      <trkpt lat="44.91478" lon="-0.51042">
        <ele>9.2</ele>
        <time>2021-06-03T07:42:10.000Z</time>
      </trkpt>
      <trkpt lat="44.91482" lon="-0.51038">
        <ele>9.2</ele>
        <time>2021-06-03T07:42:11.000Z</time>
      </trkpt>
      <trkpt lat="44.91486" lon="-0.51035">
        <ele>9.1</ele>
        <time>2021-06-03T07:42:12.000Z</time>
      </trkpt>
      <trkpt lat="44.9149" lon="-0.51031">
        <ele>9.1</ele>
        <time>2021-06-03T07:42:13.000Z</time>
      </trkpt>
      <trkpt lat="44.91494" lon="-0.51028">
        <ele>9.6</ele>
        <time>2021-06-03T07:42:14.000Z</time>
      </trkpt>
      <trkpt lat="44.91498" lon="-0.51024">
        <ele>9.9</ele>
        <time>2021-06-03T07:42:15.000Z</time>
      </trkpt>
      <trkpt lat="44.91502" lon="-0.51021">
        <ele>10</ele>
        <time>2021-06-03T07:42:16.000Z</time>
      </trkpt>
      <trkpt lat="44.91506" lon="-0.51017">
        <ele>10</ele>
        <time>2021-06-03T07:42:17.000Z</time>
      </trkpt>
      <trkpt lat="44.91511" lon="-0.51013">
        <ele>10</ele>
        <time>2021-06-03T07:42:18.000Z</time>
      </trkpt>
      <trkpt lat="44.91515" lon="-0.5101">
        <ele>9.9</ele>
        <time>2021-06-03T07:42:19.000Z</time>
      </trkpt>
      <trkpt lat="44.91519" lon="-0.51007">
        <ele>9.9</ele>
        <time>2021-06-03T07:42:20.000Z</time>
      </trkpt>
      <trkpt lat="44.91523" lon="-0.51003">
        <ele>9.7</ele>
        <time>2021-06-03T07:42:21.000Z</time>
      </trkpt>
      <trkpt lat="44.91528" lon="-0.51">
        <ele>9.6</ele>
        <time>2021-06-03T07:42:22.000Z</time>
      </trkpt>
      <trkpt lat="44.91531" lon="-0.50997">
        <ele>9.5</ele>
        <time>2021-06-03T07:42:23.000Z</time>
      </trkpt>
      <trkpt lat="44.91535" lon="-0.50993">
        <ele>9.4</ele>
        <time>2021-06-03T07:42:24.000Z</time>
      </trkpt>
      <trkpt lat="44.91539" lon="-0.5099">
        <ele>10.1</ele>
        <time>2021-06-03T07:42:25.000Z</time>
      </trkpt>
      <trkpt lat="44.91543" lon="-0.50986">
        <ele>10.6</ele>
        <time>2021-06-03T07:42:26.000Z</time>
      </trkpt>
      <trkpt lat="44.9155" lon="-0.50978">
        <ele>11.1</ele>
        <time>2021-06-03T07:42:28.000Z</time>
      </trkpt>
      <trkpt lat="44.91557" lon="-0.50971">
        <ele>10.8</ele>
        <time>2021-06-03T07:42:30.000Z</time>
      </trkpt>
      <trkpt lat="44.91564" lon="-0.50966">
        <ele>11.5</ele>
        <time>2021-06-03T07:42:32.000Z</time>
      </trkpt>
      <trkpt lat="44.91571" lon="-0.50961">
        <ele>12.6</ele>
        <time>2021-06-03T07:42:34.000Z</time>
      </trkpt>
      <trkpt lat="44.91578" lon="-0.50956">
        <ele>12.6</ele>
        <time>2021-06-03T07:42:36.000Z</time>
      </trkpt>
      <trkpt lat="44.91584" lon="-0.50951">
        <ele>12.1</ele>
        <time>2021-06-03T07:42:38.000Z</time>
      </trkpt>
      <trkpt lat="44.91589" lon="-0.50945">
        <ele>12.2</ele>
        <time>2021-06-03T07:42:40.000Z</time>
      </trkpt>
      <trkpt lat="44.91595" lon="-0.5094">
        <ele>12.8</ele>
        <time>2021-06-03T07:42:42.000Z</time>
      </trkpt>
      <trkpt lat="44.91602" lon="-0.50935">
        <ele>12.9</ele>
        <time>2021-06-03T07:42:44.000Z</time>
      </trkpt>
      <trkpt lat="44.91608" lon="-0.50929">
        <ele>12.8</ele>
        <time>2021-06-03T07:42:46.000Z</time>
      </trkpt>
      <trkpt lat="44.91614" lon="-0.50924">
        <ele>13.3</ele>
        <time>2021-06-03T07:42:48.000Z</time>
      </trkpt>
      <trkpt lat="44.9162" lon="-0.50918">
        <ele>14.6</ele>
        <time>2021-06-03T07:42:50.000Z</time>
      </trkpt>
      <trkpt lat="44.91625" lon="-0.50913">
        <ele>14.1</ele>
        <time>2021-06-03T07:42:52.000Z</time>
      </trkpt>
      <trkpt lat="44.91631" lon="-0.50907">
        <ele>14.4</ele>
        <time>2021-06-03T07:42:54.000Z</time>
      </trkpt>
      <trkpt lat="44.91637" lon="-0.509">
        <ele>14.7</ele>
        <time>2021-06-03T07:42:56.000Z</time>
      </trkpt>
      <trkpt lat="44.91643" lon="-0.50893">
        <ele>14.6</ele>
        <time>2021-06-03T07:42:58.000Z</time>
      </trkpt>
      <trkpt lat="44.91648" lon="-0.50885">
        <ele>15.1</ele>
        <time>2021-06-03T07:43:00.000Z</time>
      </trkpt>
      <trkpt lat="44.91654" lon="-0.50877">
        <ele>14.8</ele>
        <time>2021-06-03T07:43:02.000Z</time>
      </trkpt>
      <trkpt lat="44.9166" lon="-0.50868">
        <ele>14.6</ele>
        <time>2021-06-03T07:43:04.000Z</time>
      </trkpt>
      <trkpt lat="44.91666" lon="-0.50859">
        <ele>14.7</ele>
        <time>2021-06-03T07:43:06.000Z</time>
      </trkpt>
      <trkpt lat="44.91669" lon="-0.50854">
        <ele>14.8</ele>
        <time>2021-06-03T07:43:07.000Z</time>
      </trkpt>
      <trkpt lat="44.91672" lon="-0.50849">
        <ele>14.8</ele>
        <time>2021-06-03T07:43:08.000Z</time>
      </trkpt>
      <trkpt lat="44.91677" lon="-0.50839">
        <ele>15.2</ele>
        <time>2021-06-03T07:43:10.000Z</time>
      </trkpt>
      <trkpt lat="44.91683" lon="-0.5083">
        <ele>15.6</ele>
        <time>2021-06-03T07:43:12.000Z</time>
      </trkpt>
      <trkpt lat="44.91688" lon="-0.50821">
        <ele>16.2</ele>
        <time>2021-06-03T07:43:14.000Z</time>
      </trkpt>
      <trkpt lat="44.91693" lon="-0.50811">
        <ele>16.2</ele>
        <time>2021-06-03T07:43:16.000Z</time>
      </trkpt>
      <trkpt lat="44.91698" lon="-0.50802">
        <ele>16.1</ele>
        <time>2021-06-03T07:43:18.000Z</time>
      </trkpt>
      <trkpt lat="44.91703" lon="-0.50793">
        <ele>16.5</ele>
        <time>2021-06-03T07:43:20.000Z</time>
      </trkpt>
      <trkpt lat="44.91708" lon="-0.50784">
        <ele>16.8</ele>
        <time>2021-06-03T07:43:22.000Z</time>
      </trkpt>
      <trkpt lat="44.9171" lon="-0.5078">
        <ele>16.8</ele>
        <time>2021-06-03T07:43:23.000Z</time>
      </trkpt>
      <trkpt lat="44.91717" lon="-0.50767">
        <ele>16.8</ele>
        <time>2021-06-03T07:43:26.000Z</time>
      </trkpt>
      <trkpt lat="44.91722" lon="-0.50758">
        <ele>17.1</ele>
        <time>2021-06-03T07:43:28.000Z</time>
      </trkpt>
      <trkpt lat="44.91727" lon="-0.50749">
        <ele>17.1</ele>
        <time>2021-06-03T07:43:30.000Z</time>
      </trkpt>
      <trkpt lat="44.91731" lon="-0.50741">
        <ele>17.2</ele>
        <time>2021-06-03T07:43:32.000Z</time>
      </trkpt>
      <trkpt lat="44.91736" lon="-0.50733">
        <ele>17.6</ele>
        <time>2021-06-03T07:43:34.000Z</time>
      </trkpt>
      <trkpt lat="44.9174" lon="-0.50726">
        <ele>18.2</ele>
        <time>2021-06-03T07:43:36.000Z</time>
      </trkpt>
      <trkpt lat="44.91743" lon="-0.50719">
        <ele>18.4</ele>
        <time>2021-06-03T07:43:38.000Z</time>
      </trkpt>
      <trkpt lat="44.91747" lon="-0.50712">
        <ele>19.2</ele>
        <time>2021-06-03T07:43:40.000Z</time>
      </trkpt>
      <trkpt lat="44.91751" lon="-0.50701">
        <ele>19.6</ele>
        <time>2021-06-03T07:43:43.000Z</time>
      </trkpt>
      <trkpt lat="44.91753" lon="-0.5069">
        <ele>20.1</ele>
        <time>2021-06-03T07:43:46.000Z</time>
      </trkpt>
      <trkpt lat="44.91753" lon="-0.5068">
        <ele>19.7</ele>
        <time>2021-06-03T07:43:49.000Z</time>
      </trkpt>
      <trkpt lat="44.91755" lon="-0.50671">
        <ele>18.8</ele>
        <time>2021-06-03T07:43:52.000Z</time>
      </trkpt>
      <trkpt lat="44.91762" lon="-0.50663">
        <ele>19.9</ele>
        <time>2021-06-03T07:43:55.000Z</time>
      </trkpt>
      <trkpt lat="44.91767" lon="-0.50659">
        <ele>20</ele>
        <time>2021-06-03T07:43:57.000Z</time>
      </trkpt>
      <trkpt lat="44.91772" lon="-0.50652">
        <ele>19.2</ele>
        <time>2021-06-03T07:43:59.000Z</time>
      </trkpt>
      <trkpt lat="44.91776" lon="-0.50643">
        <ele>19</ele>
        <time>2021-06-03T07:44:01.000Z</time>
      </trkpt>
      <trkpt lat="44.9178" lon="-0.50634">
        <ele>19.1</ele>
        <time>2021-06-03T07:44:03.000Z</time>
      </trkpt>
      <trkpt lat="44.91783" lon="-0.50624">
        <ele>19.4</ele>
        <time>2021-06-03T07:44:05.000Z</time>
      </trkpt>
      <trkpt lat="44.91787" lon="-0.50614">
        <ele>19.4</ele>
        <time>2021-06-03T07:44:07.000Z</time>
      </trkpt>
      <trkpt lat="44.91791" lon="-0.50603">
        <ele>19.1</ele>
        <time>2021-06-03T07:44:09.000Z</time>
      </trkpt>
      <trkpt lat="44.91794" lon="-0.50592">
        <ele>19.5</ele>
        <time>2021-06-03T07:44:11.000Z</time>
      </trkpt>
      <trkpt lat="44.91797" lon="-0.50581">
        <ele>19.4</ele>
        <time>2021-06-03T07:44:13.000Z</time>
      </trkpt>
      <trkpt lat="44.91801" lon="-0.50571">
        <ele>19.5</ele>
        <time>2021-06-03T07:44:15.000Z</time>
      </trkpt>
      <trkpt lat="44.91804" lon="-0.5056">
        <ele>19.6</ele>
        <time>2021-06-03T07:44:17.000Z</time>
      </trkpt>
      <trkpt lat="44.91808" lon="-0.5055">
        <ele>19.7</ele>
        <time>2021-06-03T07:44:19.000Z</time>
      </trkpt>
      <trkpt lat="44.91811" lon="-0.50538">
        <ele>19.9</ele>
        <time>2021-06-03T07:44:21.000Z</time>
      </trkpt>
      <trkpt lat="44.91814" lon="-0.50527">
        <ele>19.5</ele>
        <time>2021-06-03T07:44:23.000Z</time>
      </trkpt>
      <trkpt lat="44.91815" lon="-0.50521">
        <ele>19.6</ele>
        <time>2021-06-03T07:44:24.000Z</time>
      </trkpt>
      <trkpt lat="44.91819" lon="-0.50503">
        <ele>19.8</ele>
        <time>2021-06-03T07:44:27.000Z</time>
      </trkpt>
      <trkpt lat="44.91822" lon="-0.50491">
        <ele>19.4</ele>
        <time>2021-06-03T07:44:29.000Z</time>
      </trkpt>
      <trkpt lat="44.91824" lon="-0.5048">
        <ele>19.1</ele>
        <time>2021-06-03T07:44:31.000Z</time>
      </trkpt>
      <trkpt lat="44.91826" lon="-0.50468">
        <ele>19.1</ele>
        <time>2021-06-03T07:44:33.000Z</time>
      </trkpt>
      <trkpt lat="44.91828" lon="-0.50457">
        <ele>19.6</ele>
        <time>2021-06-03T07:44:35.000Z</time>
      </trkpt>
      <trkpt lat="44.91829" lon="-0.50446">
        <ele>19.6</ele>
        <time>2021-06-03T07:44:37.000Z</time>
      </trkpt>
      <trkpt lat="44.91831" lon="-0.50435">
        <ele>19.4</ele>
        <time>2021-06-03T07:44:39.000Z</time>
      </trkpt>
      <trkpt lat="44.91833" lon="-0.50425">
        <ele>19.3</ele>
        <time>2021-06-03T07:44:41.000Z</time>
      </trkpt>
      <trkpt lat="44.91834" lon="-0.50415">
        <ele>19.5</ele>
        <time>2021-06-03T07:44:43.000Z</time>
      </trkpt>
      <trkpt lat="44.91835" lon="-0.50405">
        <ele>20</ele>
        <time>2021-06-03T07:44:45.000Z</time>
      </trkpt>
      <trkpt lat="44.91836" lon="-0.50395">
        <ele>20.4</ele>
        <time>2021-06-03T07:44:47.000Z</time>
      </trkpt>
      <trkpt lat="44.91837" lon="-0.50385">
        <ele>20.5</ele>
        <time>2021-06-03T07:44:49.000Z</time>
      </trkpt>
      <trkpt lat="44.91839" lon="-0.50375">
        <ele>20.3</ele>
        <time>2021-06-03T07:44:51.000Z</time>
      </trkpt>
      <trkpt lat="44.91839" lon="-0.50365">
        <ele>20.9</ele>
        <time>2021-06-03T07:44:53.000Z</time>
      </trkpt>
      <trkpt lat="44.9184" lon="-0.50352">
        <ele>21</ele>
        <time>2021-06-03T07:44:56.000Z</time>
      </trkpt>
      <trkpt lat="44.91845" lon="-0.50347">
        <ele>20.9</ele>
        <time>2021-06-03T07:44:58.000Z</time>
      </trkpt>
      <trkpt lat="44.91851" lon="-0.50344">
        <ele>21</ele>
        <time>2021-06-03T07:45:00.000Z</time>
      </trkpt>
      <trkpt lat="44.91857" lon="-0.50345">
        <ele>21.1</ele>
        <time>2021-06-03T07:45:02.000Z</time>
      </trkpt>
      <trkpt lat="44.91863" lon="-0.50349">
        <ele>21.2</ele>
        <time>2021-06-03T07:45:04.000Z</time>
      </trkpt>
      <trkpt lat="44.9187" lon="-0.50352">
        <ele>21.3</ele>
        <time>2021-06-03T07:45:06.000Z</time>
      </trkpt>
      <trkpt lat="44.91877" lon="-0.50353">
        <ele>21.6</ele>
        <time>2021-06-03T07:45:08.000Z</time>
      </trkpt>
      <trkpt lat="44.91885" lon="-0.50353">
        <ele>21.8</ele>
        <time>2021-06-03T07:45:10.000Z</time>
      </trkpt>
      <trkpt lat="44.91893" lon="-0.50351">
        <ele>22</ele>
        <time>2021-06-03T07:45:12.000Z</time>
      </trkpt>
      <trkpt lat="44.919" lon="-0.50347">
        <ele>21.7</ele>
        <time>2021-06-03T07:45:14.000Z</time>
      </trkpt>
      <trkpt lat="44.91908" lon="-0.50343">
        <ele>21.5</ele>
        <time>2021-06-03T07:45:16.000Z</time>
      </trkpt>
      <trkpt lat="44.91916" lon="-0.50338">
        <ele>21.6</ele>
        <time>2021-06-03T07:45:18.000Z</time>
      </trkpt>
      <trkpt lat="44.91924" lon="-0.50333">
        <ele>22.2</ele>
        <time>2021-06-03T07:45:20.000Z</time>
      </trkpt>
      <trkpt lat="44.91932" lon="-0.50327">
        <ele>22.8</ele>
        <time>2021-06-03T07:45:22.000Z</time>
      </trkpt>
      <trkpt lat="44.91939" lon="-0.5032">
        <ele>22.9</ele>
        <time>2021-06-03T07:45:24.000Z</time>
      </trkpt>
      <trkpt lat="44.91942" lon="-0.50317">
        <ele>22.9</ele>
        <time>2021-06-03T07:45:25.000Z</time>
      </trkpt>
      <trkpt lat="44.91953" lon="-0.50307">
        <ele>23.5</ele>
        <time>2021-06-03T07:45:28.000Z</time>
      </trkpt>
      <trkpt lat="44.91959" lon="-0.50302">
        <ele>23.4</ele>
        <time>2021-06-03T07:45:30.000Z</time>
      </trkpt>
      <trkpt lat="44.91964" lon="-0.50296">
        <ele>23.1</ele>
        <time>2021-06-03T07:45:32.000Z</time>
      </trkpt>
      <trkpt lat="44.9197" lon="-0.50289">
        <ele>22.9</ele>
        <time>2021-06-03T07:45:34.000Z</time>
      </trkpt>
      <trkpt lat="44.91976" lon="-0.50284">
        <ele>24</ele>
        <time>2021-06-03T07:45:36.000Z</time>
      </trkpt>
      <trkpt lat="44.91983" lon="-0.50278">
        <ele>24.1</ele>
        <time>2021-06-03T07:45:38.000Z</time>
      </trkpt>
      <trkpt lat="44.91989" lon="-0.50272">
        <ele>23.8</ele>
        <time>2021-06-03T07:45:40.000Z</time>
      </trkpt>
      <trkpt lat="44.91996" lon="-0.50265">
        <ele>23.4</ele>
        <time>2021-06-03T07:45:42.000Z</time>
      </trkpt>
      <trkpt lat="44.92003" lon="-0.50259">
        <ele>23.2</ele>
        <time>2021-06-03T07:45:44.000Z</time>
      </trkpt>
      <trkpt lat="44.9201" lon="-0.50253">
        <ele>23.5</ele>
        <time>2021-06-03T07:45:46.000Z</time>
      </trkpt>
      <trkpt lat="44.92016" lon="-0.50246">
        <ele>23.3</ele>
        <time>2021-06-03T07:45:48.000Z</time>
      </trkpt>
      <trkpt lat="44.92023" lon="-0.50241">
        <ele>23.6</ele>
        <time>2021-06-03T07:45:50.000Z</time>
      </trkpt>
      <trkpt lat="44.92031" lon="-0.50235">
        <ele>24</ele>
        <time>2021-06-03T07:45:52.000Z</time>
      </trkpt>
      <trkpt lat="44.92038" lon="-0.5023">
        <ele>23.8</ele>
        <time>2021-06-03T07:45:54.000Z</time>
      </trkpt>
      <trkpt lat="44.92046" lon="-0.50226">
        <ele>23.3</ele>
        <time>2021-06-03T07:45:56.000Z</time>
      </trkpt>
      <trkpt lat="44.92054" lon="-0.50221">
        <ele>23</ele>
        <time>2021-06-03T07:45:58.000Z</time>
      </trkpt>
      <trkpt lat="44.92063" lon="-0.50219">
        <ele>23.6</ele>
        <time>2021-06-03T07:46:00.000Z</time>
      </trkpt>
      <trkpt lat="44.92071" lon="-0.50216">
        <ele>23.4</ele>
        <time>2021-06-03T07:46:02.000Z</time>
      </trkpt>
      <trkpt lat="44.9208" lon="-0.50213">
        <ele>23.2</ele>
        <time>2021-06-03T07:46:04.000Z</time>
      </trkpt>
      <trkpt lat="44.92088" lon="-0.5021">
        <ele>22.8</ele>
        <time>2021-06-03T07:46:06.000Z</time>
      </trkpt>
      <trkpt lat="44.92093" lon="-0.50208">
        <ele>22.7</ele>
        <time>2021-06-03T07:46:07.000Z</time>
      </trkpt>
      <trkpt lat="44.92097" lon="-0.50206">
        <ele>22.2</ele>
        <time>2021-06-03T07:46:08.000Z</time>
      </trkpt>
      <trkpt lat="44.92102" lon="-0.50205">
        <ele>21.8</ele>
        <time>2021-06-03T07:46:09.000Z</time>
      </trkpt>
      <trkpt lat="44.92106" lon="-0.50204">
        <ele>21.5</ele>
        <time>2021-06-03T07:46:10.000Z</time>
      </trkpt>
      <trkpt lat="44.92111" lon="-0.50203">
        <ele>21.6</ele>
        <time>2021-06-03T07:46:11.000Z</time>
      </trkpt>
      <trkpt lat="44.92116" lon="-0.50202">
        <ele>21.6</ele>
        <time>2021-06-03T07:46:12.000Z</time>
      </trkpt>
      <trkpt lat="44.92121" lon="-0.50201">
        <ele>21.4</ele>
        <time>2021-06-03T07:46:13.000Z</time>
      </trkpt>
      <trkpt lat="44.92125" lon="-0.502">
        <ele>21.3</ele>
        <time>2021-06-03T07:46:14.000Z</time>
      </trkpt>
      <trkpt lat="44.9213" lon="-0.50199">
        <ele>21.2</ele>
        <time>2021-06-03T07:46:15.000Z</time>
      </trkpt>
      <trkpt lat="44.92135" lon="-0.50198">
        <ele>21.3</ele>
        <time>2021-06-03T07:46:16.000Z</time>
      </trkpt>
      <trkpt lat="44.9214" lon="-0.50198">
        <ele>21.4</ele>
        <time>2021-06-03T07:46:17.000Z</time>
      </trkpt>
      <trkpt lat="44.92145" lon="-0.50197">
        <ele>21.5</ele>
        <time>2021-06-03T07:46:18.000Z</time>
      </trkpt>
      <trkpt lat="44.9215" lon="-0.50196">
        <ele>21.5</ele>
        <time>2021-06-03T07:46:19.000Z</time>
      </trkpt>
      <trkpt lat="44.92155" lon="-0.50195">
        <ele>21</ele>
        <time>2021-06-03T07:46:20.000Z</time>
      </trkpt>
      <trkpt lat="44.9216" lon="-0.50194">
        <ele>20.6</ele>
        <time>2021-06-03T07:46:21.000Z</time>
      </trkpt>
      <trkpt lat="44.92165" lon="-0.50195">
        <ele>20.4</ele>
        <time>2021-06-03T07:46:22.000Z</time>
      </trkpt>
      <trkpt lat="44.9217" lon="-0.50196">
        <ele>20.5</ele>
        <time>2021-06-03T07:46:23.000Z</time>
      </trkpt>
      <trkpt lat="44.92175" lon="-0.50197">
        <ele>20.5</ele>
        <time>2021-06-03T07:46:24.000Z</time>
      </trkpt>
      <trkpt lat="44.9218" lon="-0.50196">
        <ele>20.4</ele>
        <time>2021-06-03T07:46:25.000Z</time>
      </trkpt>
      <trkpt lat="44.92185" lon="-0.50196">
        <ele>20.2</ele>
        <time>2021-06-03T07:46:26.000Z</time>
      </trkpt>
      <trkpt lat="44.9219" lon="-0.50195">
        <ele>20.1</ele>
        <time>2021-06-03T07:46:27.000Z</time>
      </trkpt>
      <trkpt lat="44.92195" lon="-0.50193">
        <ele>20</ele>
        <time>2021-06-03T07:46:28.000Z</time>
      </trkpt>
      <trkpt lat="44.922" lon="-0.50192">
        <ele>20</ele>
        <time>2021-06-03T07:46:29.000Z</time>
      </trkpt>
      <trkpt lat="44.92206" lon="-0.50191">
        <ele>19.8</ele>
        <time>2021-06-03T07:46:30.000Z</time>
      </trkpt>
      <trkpt lat="44.92211" lon="-0.50189">
        <ele>19.6</ele>
        <time>2021-06-03T07:46:31.000Z</time>
      </trkpt>
      <trkpt lat="44.92217" lon="-0.50187">
        <ele>19.6</ele>
        <time>2021-06-03T07:46:32.000Z</time>
      </trkpt>
      <trkpt lat="44.92222" lon="-0.50185">
        <ele>19.6</ele>
        <time>2021-06-03T07:46:33.000Z</time>
      </trkpt>
      <trkpt lat="44.92228" lon="-0.50182">
        <ele>19.6</ele>
        <time>2021-06-03T07:46:34.000Z</time>
      </trkpt>
      <trkpt lat="44.92234" lon="-0.50179">
        <ele>19.3</ele>
        <time>2021-06-03T07:46:35.000Z</time>
      </trkpt>
      <trkpt lat="44.92239" lon="-0.50176">
        <ele>19.1</ele>
        <time>2021-06-03T07:46:36.000Z</time>
      </trkpt>
      <trkpt lat="44.92244" lon="-0.50172">
        <ele>18.8</ele>
        <time>2021-06-03T07:46:37.000Z</time>
      </trkpt>
      <trkpt lat="44.92249" lon="-0.50167">
        <ele>18.6</ele>
        <time>2021-06-03T07:46:38.000Z</time>
      </trkpt>
      <trkpt lat="44.92254" lon="-0.50163">
        <ele>18.2</ele>
        <time>2021-06-03T07:46:39.000Z</time>
      </trkpt>
      <trkpt lat="44.92259" lon="-0.50158">
        <ele>18</ele>
        <time>2021-06-03T07:46:40.000Z</time>
      </trkpt>
      <trkpt lat="44.92264" lon="-0.50154">
        <ele>17.8</ele>
        <time>2021-06-03T07:46:41.000Z</time>
      </trkpt>
      <trkpt lat="44.92268" lon="-0.5015">
        <ele>17</ele>
        <time>2021-06-03T07:46:42.000Z</time>
      </trkpt>
      <trkpt lat="44.92273" lon="-0.50146">
        <ele>16.4</ele>
        <time>2021-06-03T07:46:43.000Z</time>
      </trkpt>
      <trkpt lat="44.92277" lon="-0.50142">
        <ele>16</ele>
        <time>2021-06-03T07:46:44.000Z</time>
      </trkpt>
      <trkpt lat="44.92284" lon="-0.50134">
        <ele>14.9</ele>
        <time>2021-06-03T07:46:46.000Z</time>
      </trkpt>
      <trkpt lat="44.92287" lon="-0.5013">
        <ele>14.4</ele>
        <time>2021-06-03T07:46:47.000Z</time>
      </trkpt>
      <trkpt lat="44.92291" lon="-0.50126">
        <ele>13.9</ele>
        <time>2021-06-03T07:46:48.000Z</time>
      </trkpt>
      <trkpt lat="44.92294" lon="-0.5012">
        <ele>14.1</ele>
        <time>2021-06-03T07:46:49.000Z</time>
      </trkpt>
      <trkpt lat="44.92296" lon="-0.50113">
        <ele>14.3</ele>
        <time>2021-06-03T07:46:50.000Z</time>
      </trkpt>
      <trkpt lat="44.92298" lon="-0.50106">
        <ele>13.9</ele>
        <time>2021-06-03T07:46:51.000Z</time>
      </trkpt>
      <trkpt lat="44.92301" lon="-0.50099">
        <ele>13.6</ele>
        <time>2021-06-03T07:46:52.000Z</time>
      </trkpt>
      <trkpt lat="44.92304" lon="-0.50093">
        <ele>13.4</ele>
        <time>2021-06-03T07:46:53.000Z</time>
      </trkpt>
      <trkpt lat="44.92308" lon="-0.50088">
        <ele>13.1</ele>
        <time>2021-06-03T07:46:54.000Z</time>
      </trkpt>
      <trkpt lat="44.92312" lon="-0.50083">
        <ele>12.8</ele>
        <time>2021-06-03T07:46:55.000Z</time>
      </trkpt>
      <trkpt lat="44.92315" lon="-0.50078">
        <ele>12.5</ele>
        <time>2021-06-03T07:46:56.000Z</time>
      </trkpt>
      <trkpt lat="44.92321" lon="-0.5007">
        <ele>12.2</ele>
        <time>2021-06-03T07:46:58.000Z</time>
      </trkpt>
      <trkpt lat="44.92329" lon="-0.50065">
        <ele>12.2</ele>
        <time>2021-06-03T07:47:00.000Z</time>
      </trkpt>
      <trkpt lat="44.92332" lon="-0.50061">
        <ele>11.5</ele>
        <time>2021-06-03T07:47:01.000Z</time>
      </trkpt>
      <trkpt lat="44.92336" lon="-0.50056">
        <ele>10.9</ele>
        <time>2021-06-03T07:47:02.000Z</time>
      </trkpt>
      <trkpt lat="44.92339" lon="-0.50049">
        <ele>11.1</ele>
        <time>2021-06-03T07:47:03.000Z</time>
      </trkpt>
      <trkpt lat="44.92342" lon="-0.50042">
        <ele>11.2</ele>
        <time>2021-06-03T07:47:04.000Z</time>
      </trkpt>
      <trkpt lat="44.92345" lon="-0.50035">
        <ele>11.1</ele>
        <time>2021-06-03T07:47:05.000Z</time>
      </trkpt>
      <trkpt lat="44.92348" lon="-0.50028">
        <ele>11</ele>
        <time>2021-06-03T07:47:06.000Z</time>
      </trkpt>
      <trkpt lat="44.9235" lon="-0.50022">
        <ele>10.9</ele>
        <time>2021-06-03T07:47:07.000Z</time>
      </trkpt>
      <trkpt lat="44.92353" lon="-0.50015">
        <ele>10.7</ele>
        <time>2021-06-03T07:47:08.000Z</time>
      </trkpt>
      <trkpt lat="44.92356" lon="-0.50008">
        <ele>10.5</ele>
        <time>2021-06-03T07:47:09.000Z</time>
      </trkpt>
      <trkpt lat="44.92358" lon="-0.50002">
        <ele>10.2</ele>
        <time>2021-06-03T07:47:10.000Z</time>
      </trkpt>
      <trkpt lat="44.92361" lon="-0.49995">
        <ele>9.9</ele>
        <time>2021-06-03T07:47:11.000Z</time>
      </trkpt>
      <trkpt lat="44.92364" lon="-0.49988">
        <ele>9.9</ele>
        <time>2021-06-03T07:47:12.000Z</time>
      </trkpt>
      <trkpt lat="44.92366" lon="-0.49981">
        <ele>9.9</ele>
        <time>2021-06-03T07:47:13.000Z</time>
      </trkpt>
      <trkpt lat="44.92369" lon="-0.49974">
        <ele>9.9</ele>
        <time>2021-06-03T07:47:14.000Z</time>
      </trkpt>
      <trkpt lat="44.92372" lon="-0.49967">
        <ele>9.4</ele>
        <time>2021-06-03T07:47:15.000Z</time>
      </trkpt>
      <trkpt lat="44.92375" lon="-0.49961">
        <ele>9.1</ele>
        <time>2021-06-03T07:47:16.000Z</time>
      </trkpt>
      <trkpt lat="44.92377" lon="-0.49954">
        <ele>8.9</ele>
        <time>2021-06-03T07:47:17.000Z</time>
      </trkpt>
      <trkpt lat="44.9238" lon="-0.49947">
        <ele>8.8</ele>
        <time>2021-06-03T07:47:18.000Z</time>
      </trkpt>
      <trkpt lat="44.92383" lon="-0.4994">
        <ele>8.7</ele>
        <time>2021-06-03T07:47:19.000Z</time>
      </trkpt>
      <trkpt lat="44.92385" lon="-0.49933">
        <ele>8.4</ele>
        <time>2021-06-03T07:47:20.000Z</time>
      </trkpt>
      <trkpt lat="44.92388" lon="-0.49927">
        <ele>8.3</ele>
        <time>2021-06-03T07:47:21.000Z</time>
      </trkpt>
      <trkpt lat="44.92391" lon="-0.4992">
        <ele>8.1</ele>
        <time>2021-06-03T07:47:22.000Z</time>
      </trkpt>
      <trkpt lat="44.92394" lon="-0.49913">
        <ele>8.1</ele>
        <time>2021-06-03T07:47:23.000Z</time>
      </trkpt>
      <trkpt lat="44.92397" lon="-0.49906">
        <ele>7.8</ele>
        <time>2021-06-03T07:47:24.000Z</time>
      </trkpt>
      <trkpt lat="44.92399" lon="-0.49899">
        <ele>7.7</ele>
        <time>2021-06-03T07:47:25.000Z</time>
      </trkpt>
      <trkpt lat="44.92402" lon="-0.49892">
        <ele>7.6</ele>
        <time>2021-06-03T07:47:26.000Z</time>
      </trkpt>
      <trkpt lat="44.92405" lon="-0.49885">
        <ele>7.1</ele>
        <time>2021-06-03T07:47:27.000Z</time>
      </trkpt>
      <trkpt lat="44.92408" lon="-0.49878">
        <ele>6.7</ele>
        <time>2021-06-03T07:47:28.000Z</time>
      </trkpt>
      <trkpt lat="44.9241" lon="-0.49871">
        <ele>6.8</ele>
        <time>2021-06-03T07:47:29.000Z</time>
      </trkpt>
      <trkpt lat="44.92413" lon="-0.49864">
        <ele>6.9</ele>
        <time>2021-06-03T07:47:30.000Z</time>
      </trkpt>
      <trkpt lat="44.92416" lon="-0.49857">
        <ele>6.7</ele>
        <time>2021-06-03T07:47:31.000Z</time>
      </trkpt>
      <trkpt lat="44.92418" lon="-0.49851">
        <ele>6.6</ele>
        <time>2021-06-03T07:47:32.000Z</time>
      </trkpt>
      <trkpt lat="44.92421" lon="-0.49844">
        <ele>6.4</ele>
        <time>2021-06-03T07:47:33.000Z</time>
      </trkpt>
      <trkpt lat="44.92424" lon="-0.49837">
        <ele>6</ele>
        <time>2021-06-03T07:47:34.000Z</time>
      </trkpt>
      <trkpt lat="44.92426" lon="-0.4983">
        <ele>5.7</ele>
        <time>2021-06-03T07:47:35.000Z</time>
      </trkpt>
      <trkpt lat="44.92429" lon="-0.49824">
        <ele>5.8</ele>
        <time>2021-06-03T07:47:36.000Z</time>
      </trkpt>
      <trkpt lat="44.92432" lon="-0.49817">
        <ele>6</ele>
        <time>2021-06-03T07:47:37.000Z</time>
      </trkpt>
      <trkpt lat="44.92435" lon="-0.49811">
        <ele>6.1</ele>
        <time>2021-06-03T07:47:38.000Z</time>
      </trkpt>
      <trkpt lat="44.92437" lon="-0.49805">
        <ele>5.7</ele>
        <time>2021-06-03T07:47:39.000Z</time>
      </trkpt>
      <trkpt lat="44.92442" lon="-0.49794">
        <ele>5.1</ele>
        <time>2021-06-03T07:47:41.000Z</time>
      </trkpt>
      <trkpt lat="44.92445" lon="-0.49785">
        <ele>4.9</ele>
        <time>2021-06-03T07:47:43.000Z</time>
      </trkpt>
      <trkpt lat="44.92448" lon="-0.49776">
        <ele>5.2</ele>
        <time>2021-06-03T07:47:45.000Z</time>
      </trkpt>
      <trkpt lat="44.92453" lon="-0.49766">
        <ele>5</ele>
        <time>2021-06-03T07:47:48.000Z</time>
      </trkpt>
      <trkpt lat="44.92459" lon="-0.49767">
        <ele>4.8</ele>
        <time>2021-06-03T07:47:50.000Z</time>
      </trkpt>
      <trkpt lat="44.92464" lon="-0.49775">
        <ele>4.4</ele>
        <time>2021-06-03T07:47:52.000Z</time>
      </trkpt>
      <trkpt lat="44.92469" lon="-0.49783">
        <ele>4.3</ele>
        <time>2021-06-03T07:47:54.000Z</time>
      </trkpt>
      <trkpt lat="44.92476" lon="-0.49792">
        <ele>3.9</ele>
        <time>2021-06-03T07:47:56.000Z</time>
      </trkpt>
      <trkpt lat="44.92483" lon="-0.498">
        <ele>4.2</ele>
        <time>2021-06-03T07:47:58.000Z</time>
      </trkpt>
      <trkpt lat="44.92489" lon="-0.49809">
        <ele>4.5</ele>
        <time>2021-06-03T07:48:00.000Z</time>
      </trkpt>
      <trkpt lat="44.92492" lon="-0.49813">
        <ele>4.5</ele>
        <time>2021-06-03T07:48:01.000Z</time>
      </trkpt>
      <trkpt lat="44.92496" lon="-0.49818">
        <ele>4.4</ele>
        <time>2021-06-03T07:48:02.000Z</time>
      </trkpt>
      <trkpt lat="44.92499" lon="-0.49822">
        <ele>4.4</ele>
        <time>2021-06-03T07:48:03.000Z</time>
      </trkpt>
      <trkpt lat="44.92503" lon="-0.49826">
        <ele>4.4</ele>
        <time>2021-06-03T07:48:04.000Z</time>
      </trkpt>
      <trkpt lat="44.92506" lon="-0.49831">
        <ele>4.1</ele>
        <time>2021-06-03T07:48:05.000Z</time>
      </trkpt>
      <trkpt lat="44.92509" lon="-0.49835">
        <ele>3.9</ele>
        <time>2021-06-03T07:48:06.000Z</time>
      </trkpt>
      <trkpt lat="44.92513" lon="-0.4984">
        <ele>3.7</ele>
        <time>2021-06-03T07:48:07.000Z</time>
      </trkpt>
      <trkpt lat="44.92517" lon="-0.49845">
        <ele>3.5</ele>
        <time>2021-06-03T07:48:08.000Z</time>
      </trkpt>
      <trkpt lat="44.92521" lon="-0.4985">
        <ele>3.8</ele>
        <time>2021-06-03T07:48:09.000Z</time>
      </trkpt>
      <trkpt lat="44.92525" lon="-0.49854">
        <ele>4</ele>
        <time>2021-06-03T07:48:10.000Z</time>
      </trkpt>
      <trkpt lat="44.92529" lon="-0.49859">
        <ele>4.2</ele>
        <time>2021-06-03T07:48:11.000Z</time>
      </trkpt>
      <trkpt lat="44.92533" lon="-0.49863">
        <ele>3.9</ele>
        <time>2021-06-03T07:48:12.000Z</time>
      </trkpt>
      <trkpt lat="44.92538" lon="-0.49867">
        <ele>3.7</ele>
        <time>2021-06-03T07:48:13.000Z</time>
      </trkpt>
      <trkpt lat="44.92542" lon="-0.49871">
        <ele>3.5</ele>
        <time>2021-06-03T07:48:14.000Z</time>
      </trkpt>
      <trkpt lat="44.92547" lon="-0.49875">
        <ele>3.3</ele>
        <time>2021-06-03T07:48:15.000Z</time>
      </trkpt>
      <trkpt lat="44.92552" lon="-0.49878">
        <ele>3.1</ele>
        <time>2021-06-03T07:48:16.000Z</time>
      </trkpt>
      <trkpt lat="44.92557" lon="-0.4988">
        <ele>3.3</ele>
        <time>2021-06-03T07:48:17.000Z</time>
      </trkpt>
      <trkpt lat="44.92562" lon="-0.49882">
        <ele>3.4</ele>
        <time>2021-06-03T07:48:18.000Z</time>
      </trkpt>
      <trkpt lat="44.92567" lon="-0.49882">
        <ele>3.1</ele>
        <time>2021-06-03T07:48:19.000Z</time>
      </trkpt>
      <trkpt lat="44.92571" lon="-0.4988">
        <ele>2.9</ele>
        <time>2021-06-03T07:48:20.000Z</time>
      </trkpt>
      <trkpt lat="44.92576" lon="-0.49877">
        <ele>2.6</ele>
        <time>2021-06-03T07:48:21.000Z</time>
      </trkpt>
      <trkpt lat="44.92581" lon="-0.49874">
        <ele>2.5</ele>
        <time>2021-06-03T07:48:22.000Z</time>
      </trkpt>
      <trkpt lat="44.92586" lon="-0.49871">
        <ele>2.3</ele>
        <time>2021-06-03T07:48:23.000Z</time>
      </trkpt>
      <trkpt lat="44.92591" lon="-0.49868">
        <ele>2.2</ele>
        <time>2021-06-03T07:48:24.000Z</time>
      </trkpt>
      <trkpt lat="44.92596" lon="-0.49865">
        <ele>2.1</ele>
        <time>2021-06-03T07:48:25.000Z</time>
      </trkpt>
      <trkpt lat="44.92601" lon="-0.49862">
        <ele>2.3</ele>
        <time>2021-06-03T07:48:26.000Z</time>
      </trkpt>
      <trkpt lat="44.92605" lon="-0.49859">
        <ele>2.5</ele>
        <time>2021-06-03T07:48:27.000Z</time>
      </trkpt>
      <trkpt lat="44.9261" lon="-0.49856">
        <ele>2.3</ele>
        <time>2021-06-03T07:48:28.000Z</time>
      </trkpt>
      <trkpt lat="44.92615" lon="-0.49853">
        <ele>2.1</ele>
        <time>2021-06-03T07:48:29.000Z</time>
      </trkpt>
      <trkpt lat="44.9262" lon="-0.4985">
        <ele>2</ele>
        <time>2021-06-03T07:48:30.000Z</time>
      </trkpt>
      <trkpt lat="44.92625" lon="-0.49847">
        <ele>1.8</ele>
        <time>2021-06-03T07:48:31.000Z</time>
      </trkpt>
      <trkpt lat="44.92629" lon="-0.49843">
        <ele>1.7</ele>
        <time>2021-06-03T07:48:32.000Z</time>
      </trkpt>
      <trkpt lat="44.92634" lon="-0.49839">
        <ele>1.1</ele>
        <time>2021-06-03T07:48:33.000Z</time>
      </trkpt>
      <trkpt lat="44.92638" lon="-0.49835">
        <ele>0.7</ele>
        <time>2021-06-03T07:48:34.000Z</time>
      </trkpt>
      <trkpt lat="44.92642" lon="-0.49831">
        <ele>0.4</ele>
        <time>2021-06-03T07:48:35.000Z</time>
      </trkpt>
      <trkpt lat="44.92647" lon="-0.49828">
        <ele>0.7</ele>
        <time>2021-06-03T07:48:36.000Z</time>
      </trkpt>
      <trkpt lat="44.92651" lon="-0.49824">
        <ele>1</ele>
        <time>2021-06-03T07:48:37.000Z</time>
      </trkpt>
      <trkpt lat="44.92655" lon="-0.4982">
        <ele>1.1</ele>
        <time>2021-06-03T07:48:38.000Z</time>
      </trkpt>
      <trkpt lat="44.9266" lon="-0.49816">
        <ele>1.2</ele>
        <time>2021-06-03T07:48:39.000Z</time>
      </trkpt>
      <trkpt lat="44.92664" lon="-0.49812">
        <ele>0.9</ele>
        <time>2021-06-03T07:48:40.000Z</time>
      </trkpt>
      <trkpt lat="44.92668" lon="-0.49808">
        <ele>0.8</ele>
        <time>2021-06-03T07:48:41.000Z</time>
      </trkpt>
      <trkpt lat="44.92672" lon="-0.49804">
        <ele>0.6</ele>
        <time>2021-06-03T07:48:42.000Z</time>
      </trkpt>
      <trkpt lat="44.92676" lon="-0.498">
        <ele>0.7</ele>
        <time>2021-06-03T07:48:43.000Z</time>
      </trkpt>
      <trkpt lat="44.92681" lon="-0.49796">
        <ele>0.8</ele>
        <time>2021-06-03T07:48:44.000Z</time>
      </trkpt>
      <trkpt lat="44.92685" lon="-0.49792">
        <ele>0.9</ele>
        <time>2021-06-03T07:48:45.000Z</time>
      </trkpt>
      <trkpt lat="44.9269" lon="-0.49788">
        <ele>1</ele>
        <time>2021-06-03T07:48:46.000Z</time>
      </trkpt>
      <trkpt lat="44.92694" lon="-0.49785">
        <ele>0.7</ele>
        <time>2021-06-03T07:48:47.000Z</time>
      </trkpt>
      <trkpt lat="44.92699" lon="-0.49783">
        <ele>0.6</ele>
        <time>2021-06-03T07:48:48.000Z</time>
      </trkpt>
      <trkpt lat="44.92703" lon="-0.49781">
        <ele>0.4</ele>
        <time>2021-06-03T07:48:49.000Z</time>
      </trkpt>
      <trkpt lat="44.92708" lon="-0.49778">
        <ele>0.6</ele>
        <time>2021-06-03T07:48:50.000Z</time>
      </trkpt>
      <trkpt lat="44.92713" lon="-0.49777">
        <ele>0.8</ele>
        <time>2021-06-03T07:48:51.000Z</time>
      </trkpt>
      <trkpt lat="44.92718" lon="-0.49775">
        <ele>0.8</ele>
        <time>2021-06-03T07:48:52.000Z</time>
      </trkpt>
      <trkpt lat="44.92723" lon="-0.49774">
        <ele>0.8</ele>
        <time>2021-06-03T07:48:53.000Z</time>
      </trkpt>
      <trkpt lat="44.92728" lon="-0.49772">
        <ele>0.8</ele>
        <time>2021-06-03T07:48:54.000Z</time>
      </trkpt>
      <trkpt lat="44.92734" lon="-0.49771">
        <ele>0.7</ele>
        <time>2021-06-03T07:48:55.000Z</time>
      </trkpt>
      <trkpt lat="44.92739" lon="-0.4977">
        <ele>0.7</ele>
        <time>2021-06-03T07:48:56.000Z</time>
      </trkpt>
      <trkpt lat="44.92744" lon="-0.49768">
        <ele>0.2</ele>
        <time>2021-06-03T07:48:57.000Z</time>
      </trkpt>
      <trkpt lat="44.92749" lon="-0.49767">
        <ele>7</ele>
        <time>2021-06-03T07:48:58.000Z</time>
      </trkpt>
      <trkpt lat="44.92755" lon="-0.49766">
        <ele>0.1</ele>
        <time>2021-06-03T07:48:59.000Z</time>
      </trkpt>
      <trkpt lat="44.9276" lon="-0.49766">
        <ele>0.3</ele>
        <time>2021-06-03T07:49:00.000Z</time>
      </trkpt>
      <trkpt lat="44.92764" lon="-0.49765">
        <ele>0.4</ele>
        <time>2021-06-03T07:49:01.000Z</time>
      </trkpt>
      <trkpt lat="44.92769" lon="-0.49764">
        <ele>0.9</ele>
        <time>2021-06-03T07:49:02.000Z</time>
      </trkpt>
      <trkpt lat="44.92777" lon="-0.4976">
        <ele>1.5</ele>
        <time>2021-06-03T07:49:04.000Z</time>
      </trkpt>
      <trkpt lat="44.92785" lon="-0.49757">
        <ele>1.4</ele>
        <time>2021-06-03T07:49:06.000Z</time>
      </trkpt>
      <trkpt lat="44.92792" lon="-0.49753">
        <ele>1.2</ele>
        <time>2021-06-03T07:49:08.000Z</time>
      </trkpt>
      <trkpt lat="44.928" lon="-0.49749">
        <ele>1.2</ele>
        <time>2021-06-03T07:49:10.000Z</time>
      </trkpt>
      <trkpt lat="44.92805" lon="-0.49747">
        <ele>1.2</ele>
        <time>2021-06-03T07:49:11.000Z</time>
      </trkpt>
      <trkpt lat="44.92809" lon="-0.49745">
        <ele>1.2</ele>
        <time>2021-06-03T07:49:12.000Z</time>
      </trkpt>
      <trkpt lat="44.92817" lon="-0.49741">
        <ele>1</ele>
        <time>2021-06-03T07:49:14.000Z</time>
      </trkpt>
      <trkpt lat="44.92824" lon="-0.49738">
        <ele>1</ele>
        <time>2021-06-03T07:49:16.000Z</time>
      </trkpt>
      <trkpt lat="44.92831" lon="-0.49738">
        <ele>0.7</ele>
        <time>2021-06-03T07:49:18.000Z</time>
      </trkpt>
      <trkpt lat="44.92836" lon="-0.4974">
        <ele>0.2</ele>
        <time>2021-06-03T07:49:20.000Z</time>
      </trkpt>
      <trkpt lat="44.92843" lon="-0.49736">
        <ele>0.9</ele>
        <time>2021-06-03T07:49:22.000Z</time>
      </trkpt>
      <trkpt lat="44.92862" lon="-0.49744">
        <ele>9.9</ele>
        <time>2021-06-03T07:49:38.000Z</time>
      </trkpt>
      <trkpt lat="44.92873" lon="-0.49745">
        <ele>0.3</ele>
        <time>2021-06-03T07:49:48.000Z</time>
      </trkpt>
      <trkpt lat="44.92881" lon="-0.49744">
        <ele>0.7</ele>
        <time>2021-06-03T07:50:11.000Z</time>
      </trkpt>
      <trkpt lat="44.92885" lon="-0.49735">
        <ele>1.1</ele>
        <time>2021-06-03T07:50:15.000Z</time>
      </trkpt>
      <trkpt lat="44.92888" lon="-0.49724">
        <ele>1.6</ele>
        <time>2021-06-03T07:50:18.000Z</time>
      </trkpt>
      <trkpt lat="44.92891" lon="-0.49713">
        <ele>2.2</ele>
        <time>2021-06-03T07:50:21.000Z</time>
      </trkpt>
      <trkpt lat="44.92894" lon="-0.49702">
        <ele>2.2</ele>
        <time>2021-06-03T07:50:24.000Z</time>
      </trkpt>
      <trkpt lat="44.92896" lon="-0.49692">
        <ele>2.7</ele>
        <time>2021-06-03T07:50:27.000Z</time>
      </trkpt>
      <trkpt lat="44.92899" lon="-0.49683">
        <ele>2.9</ele>
        <time>2021-06-03T07:50:30.000Z</time>
      </trkpt>
      <trkpt lat="44.92905" lon="-0.49675">
        <ele>3.4</ele>
        <time>2021-06-03T07:50:33.000Z</time>
      </trkpt>
      <trkpt lat="44.9291" lon="-0.49668">
        <ele>3.9</ele>
        <time>2021-06-03T07:50:35.000Z</time>
      </trkpt>
      <trkpt lat="44.92915" lon="-0.49661">
        <ele>4.4</ele>
        <time>2021-06-03T07:50:37.000Z</time>
      </trkpt>
      <trkpt lat="44.92923" lon="-0.49657">
        <ele>4.6</ele>
        <time>2021-06-03T07:50:39.000Z</time>
      </trkpt>
      <trkpt lat="44.92931" lon="-0.49653">
        <ele>4.4</ele>
        <time>2021-06-03T07:50:41.000Z</time>
      </trkpt>
      <trkpt lat="44.9294" lon="-0.49651">
        <ele>4.3</ele>
        <time>2021-06-03T07:50:43.000Z</time>
      </trkpt>
      <trkpt lat="44.92948" lon="-0.4965">
        <ele>4.9</ele>
        <time>2021-06-03T07:50:45.000Z</time>
      </trkpt>
      <trkpt lat="44.92956" lon="-0.49649">
        <ele>5.5</ele>
        <time>2021-06-03T07:50:47.000Z</time>
      </trkpt>
      <trkpt lat="44.92964" lon="-0.49647">
        <ele>5.9</ele>
        <time>2021-06-03T07:50:49.000Z</time>
      </trkpt>
      <trkpt lat="44.92967" lon="-0.49643">
        <ele>6</ele>
        <time>2021-06-03T07:50:50.000Z</time>
      </trkpt>
      <trkpt lat="44.92975" lon="-0.49629">
        <ele>6.1</ele>
        <time>2021-06-03T07:50:53.000Z</time>
      </trkpt>
      <trkpt lat="44.92977" lon="-0.49618">
        <ele>6</ele>
        <time>2021-06-03T07:50:55.000Z</time>
      </trkpt>
      <trkpt lat="44.92981" lon="-0.49607">
        <ele>6.4</ele>
        <time>2021-06-03T07:50:57.000Z</time>
      </trkpt>
      <trkpt lat="44.92985" lon="-0.49602">
        <ele>6.8</ele>
        <time>2021-06-03T07:50:58.000Z</time>
      </trkpt>
      <trkpt lat="44.92989" lon="-0.49598">
        <ele>7.1</ele>
        <time>2021-06-03T07:50:59.000Z</time>
      </trkpt>
      <trkpt lat="44.92992" lon="-0.49593">
        <ele>7.2</ele>
        <time>2021-06-03T07:51:00.000Z</time>
      </trkpt>
      <trkpt lat="44.92996" lon="-0.49587">
        <ele>7.3</ele>
        <time>2021-06-03T07:51:01.000Z</time>
      </trkpt>
      <trkpt lat="44.92999" lon="-0.49582">
        <ele>7.4</ele>
        <time>2021-06-03T07:51:02.000Z</time>
      </trkpt>
      <trkpt lat="44.93002" lon="-0.49575">
        <ele>7.4</ele>
        <time>2021-06-03T07:51:03.000Z</time>
      </trkpt>
      <trkpt lat="44.93004" lon="-0.49569">
        <ele>7.4</ele>
        <time>2021-06-03T07:51:04.000Z</time>
      </trkpt>
      <trkpt lat="44.93008" lon="-0.49563">
        <ele>7.5</ele>
        <time>2021-06-03T07:51:05.000Z</time>
      </trkpt>
      <trkpt lat="44.93011" lon="-0.49557">
        <ele>7.5</ele>
        <time>2021-06-03T07:51:06.000Z</time>
      </trkpt>
      <trkpt lat="44.93015" lon="-0.49551">
        <ele>7</ele>
        <time>2021-06-03T07:51:07.000Z</time>
      </trkpt>
      <trkpt lat="44.93018" lon="-0.49546">
        <ele>6.7</ele>
        <time>2021-06-03T07:51:08.000Z</time>
      </trkpt>
      <trkpt lat="44.93022" lon="-0.4954">
        <ele>6.5</ele>
        <time>2021-06-03T07:51:09.000Z</time>
      </trkpt>
      <trkpt lat="44.93025" lon="-0.49534">
        <ele>6.8</ele>
        <time>2021-06-03T07:51:10.000Z</time>
      </trkpt>
      <trkpt lat="44.93029" lon="-0.49529">
        <ele>7.1</ele>
        <time>2021-06-03T07:51:11.000Z</time>
      </trkpt>
      <trkpt lat="44.93033" lon="-0.49525">
        <ele>7.2</ele>
        <time>2021-06-03T07:51:12.000Z</time>
      </trkpt>
      <trkpt lat="44.93036" lon="-0.4952">
        <ele>7.3</ele>
        <time>2021-06-03T07:51:13.000Z</time>
      </trkpt>
      <trkpt lat="44.9304" lon="-0.49515">
        <ele>7.4</ele>
        <time>2021-06-03T07:51:14.000Z</time>
      </trkpt>
      <trkpt lat="44.93043" lon="-0.4951">
        <ele>7.4</ele>
        <time>2021-06-03T07:51:15.000Z</time>
      </trkpt>
      <trkpt lat="44.93047" lon="-0.49506">
        <ele>7.5</ele>
        <time>2021-06-03T07:51:16.000Z</time>
      </trkpt>
      <trkpt lat="44.93051" lon="-0.49501">
        <ele>8</ele>
        <time>2021-06-03T07:51:17.000Z</time>
      </trkpt>
      <trkpt lat="44.93055" lon="-0.49497">
        <ele>8.3</ele>
        <time>2021-06-03T07:51:18.000Z</time>
      </trkpt>
      <trkpt lat="44.93058" lon="-0.49493">
        <ele>8.2</ele>
        <time>2021-06-03T07:51:19.000Z</time>
      </trkpt>
      <trkpt lat="44.93062" lon="-0.4949">
        <ele>8.1</ele>
        <time>2021-06-03T07:51:20.000Z</time>
      </trkpt>
      <trkpt lat="44.93066" lon="-0.49486">
        <ele>8</ele>
        <time>2021-06-03T07:51:21.000Z</time>
      </trkpt>
      <trkpt lat="44.9307" lon="-0.49482">
        <ele>8.2</ele>
        <time>2021-06-03T07:51:22.000Z</time>
      </trkpt>
      <trkpt lat="44.93077" lon="-0.49475">
        <ele>8.5</ele>
        <time>2021-06-03T07:51:24.000Z</time>
      </trkpt>
      <trkpt lat="44.93081" lon="-0.49472">
        <ele>8.6</ele>
        <time>2021-06-03T07:51:25.000Z</time>
      </trkpt>
      <trkpt lat="44.93085" lon="-0.49468">
        <ele>8.4</ele>
        <time>2021-06-03T07:51:26.000Z</time>
      </trkpt>
      <trkpt lat="44.93089" lon="-0.49464">
        <ele>8.3</ele>
        <time>2021-06-03T07:51:27.000Z</time>
      </trkpt>
      <trkpt lat="44.93092" lon="-0.4946">
        <ele>8.2</ele>
        <time>2021-06-03T07:51:28.000Z</time>
      </trkpt>
      <trkpt lat="44.93096" lon="-0.49456">
        <ele>8.2</ele>
        <time>2021-06-03T07:51:29.000Z</time>
      </trkpt>
      <trkpt lat="44.931" lon="-0.49452">
        <ele>8.2</ele>
        <time>2021-06-03T07:51:30.000Z</time>
      </trkpt>
      <trkpt lat="44.93104" lon="-0.49447">
        <ele>8.6</ele>
        <time>2021-06-03T07:51:31.000Z</time>
      </trkpt>
      <trkpt lat="44.93108" lon="-0.49443">
        <ele>8.9</ele>
        <time>2021-06-03T07:51:32.000Z</time>
      </trkpt>
      <trkpt lat="44.93112" lon="-0.49438">
        <ele>9</ele>
        <time>2021-06-03T07:51:33.000Z</time>
      </trkpt>
      <trkpt lat="44.93116" lon="-0.49433">
        <ele>9</ele>
        <time>2021-06-03T07:51:34.000Z</time>
      </trkpt>
      <trkpt lat="44.9312" lon="-0.49428">
        <ele>9</ele>
        <time>2021-06-03T07:51:35.000Z</time>
      </trkpt>
      <trkpt lat="44.93124" lon="-0.49423">
        <ele>8.7</ele>
        <time>2021-06-03T07:51:36.000Z</time>
      </trkpt>
      <trkpt lat="44.93127" lon="-0.49419">
        <ele>8.5</ele>
        <time>2021-06-03T07:51:37.000Z</time>
      </trkpt>
      <trkpt lat="44.93131" lon="-0.49414">
        <ele>8.6</ele>
        <time>2021-06-03T07:51:38.000Z</time>
      </trkpt>
      <trkpt lat="44.93134" lon="-0.49409">
        <ele>8.7</ele>
        <time>2021-06-03T07:51:39.000Z</time>
      </trkpt>
      <trkpt lat="44.93138" lon="-0.49403">
        <ele>8.7</ele>
        <time>2021-06-03T07:51:40.000Z</time>
      </trkpt>
      <trkpt lat="44.93141" lon="-0.49398">
        <ele>8.6</ele>
        <time>2021-06-03T07:51:41.000Z</time>
      </trkpt>
      <trkpt lat="44.93145" lon="-0.49393">
        <ele>8.5</ele>
        <time>2021-06-03T07:51:42.000Z</time>
      </trkpt>
      <trkpt lat="44.93148" lon="-0.49388">
        <ele>8.2</ele>
        <time>2021-06-03T07:51:43.000Z</time>
      </trkpt>
      <trkpt lat="44.93152" lon="-0.49383">
        <ele>7.9</ele>
        <time>2021-06-03T07:51:44.000Z</time>
      </trkpt>
      <trkpt lat="44.93155" lon="-0.49378">
        <ele>8.5</ele>
        <time>2021-06-03T07:51:45.000Z</time>
      </trkpt>
      <trkpt lat="44.93159" lon="-0.49372">
        <ele>8.9</ele>
        <time>2021-06-03T07:51:46.000Z</time>
      </trkpt>
      <trkpt lat="44.93163" lon="-0.49367">
        <ele>9.2</ele>
        <time>2021-06-03T07:51:47.000Z</time>
      </trkpt>
      <trkpt lat="44.93167" lon="-0.49361">
        <ele>8.8</ele>
        <time>2021-06-03T07:51:48.000Z</time>
      </trkpt>
      <trkpt lat="44.9317" lon="-0.49356">
        <ele>8.5</ele>
        <time>2021-06-03T07:51:49.000Z</time>
      </trkpt>
      <trkpt lat="44.93173" lon="-0.4935">
        <ele>8.9</ele>
        <time>2021-06-03T07:51:50.000Z</time>
      </trkpt>
      <trkpt lat="44.93176" lon="-0.49345">
        <ele>9.2</ele>
        <time>2021-06-03T07:51:51.000Z</time>
      </trkpt>
      <trkpt lat="44.9318" lon="-0.4934">
        <ele>8.9</ele>
        <time>2021-06-03T07:51:52.000Z</time>
      </trkpt>
      <trkpt lat="44.93183" lon="-0.49335">
        <ele>8.7</ele>
        <time>2021-06-03T07:51:53.000Z</time>
      </trkpt>
      <trkpt lat="44.93186" lon="-0.4933">
        <ele>8.6</ele>
        <time>2021-06-03T07:51:54.000Z</time>
      </trkpt>
      <trkpt lat="44.9319" lon="-0.49325">
        <ele>8.5</ele>
        <time>2021-06-03T07:51:55.000Z</time>
      </trkpt>
      <trkpt lat="44.93195" lon="-0.49315">
        <ele>8.2</ele>
        <time>2021-06-03T07:51:57.000Z</time>
      </trkpt>
      <trkpt lat="44.93199" lon="-0.49307">
        <ele>7.9</ele>
        <time>2021-06-03T07:51:59.000Z</time>
      </trkpt>
      <trkpt lat="44.93204" lon="-0.49297">
        <ele>7.9</ele>
        <time>2021-06-03T07:52:01.000Z</time>
      </trkpt>
      <trkpt lat="44.93209" lon="-0.49288">
        <ele>8.3</ele>
        <time>2021-06-03T07:52:03.000Z</time>
      </trkpt>
      <trkpt lat="44.93214" lon="-0.49278">
        <ele>8.5</ele>
        <time>2021-06-03T07:52:05.000Z</time>
      </trkpt>
      <trkpt lat="44.93217" lon="-0.49272">
        <ele>8.5</ele>
        <time>2021-06-03T07:52:06.000Z</time>
      </trkpt>
      <trkpt lat="44.9322" lon="-0.49267">
        <ele>8.5</ele>
        <time>2021-06-03T07:52:07.000Z</time>
      </trkpt>
      <trkpt lat="44.93223" lon="-0.49262">
        <ele>8.5</ele>
        <time>2021-06-03T07:52:08.000Z</time>
      </trkpt>
      <trkpt lat="44.93225" lon="-0.49256">
        <ele>8.3</ele>
        <time>2021-06-03T07:52:09.000Z</time>
      </trkpt>
      <trkpt lat="44.93228" lon="-0.49251">
        <ele>8.2</ele>
        <time>2021-06-03T07:52:10.000Z</time>
      </trkpt>
      <trkpt lat="44.93231" lon="-0.49246">
        <ele>8.1</ele>
        <time>2021-06-03T07:52:11.000Z</time>
      </trkpt>
      <trkpt lat="44.93235" lon="-0.4924">
        <ele>8</ele>
        <time>2021-06-03T07:52:12.000Z</time>
      </trkpt>
      <trkpt lat="44.93238" lon="-0.49234">
        <ele>8</ele>
        <time>2021-06-03T07:52:13.000Z</time>
      </trkpt>
      <trkpt lat="44.93241" lon="-0.49228">
        <ele>8.3</ele>
        <time>2021-06-03T07:52:14.000Z</time>
      </trkpt>
      <trkpt lat="44.93243" lon="-0.49222">
        <ele>8.5</ele>
        <time>2021-06-03T07:52:15.000Z</time>
      </trkpt>
      <trkpt lat="44.93246" lon="-0.49216">
        <ele>8.4</ele>
        <time>2021-06-03T07:52:16.000Z</time>
      </trkpt>
      <trkpt lat="44.93249" lon="-0.4921">
        <ele>8.3</ele>
        <time>2021-06-03T07:52:17.000Z</time>
      </trkpt>
      <trkpt lat="44.93251" lon="-0.49204">
        <ele>8.3</ele>
        <time>2021-06-03T07:52:18.000Z</time>
      </trkpt>
      <trkpt lat="44.93254" lon="-0.49199">
        <ele>8.1</ele>
        <time>2021-06-03T07:52:19.000Z</time>
      </trkpt>
      <trkpt lat="44.93256" lon="-0.49193">
        <ele>8</ele>
        <time>2021-06-03T07:52:20.000Z</time>
      </trkpt>
      <trkpt lat="44.93258" lon="-0.49187">
        <ele>8.1</ele>
        <time>2021-06-03T07:52:21.000Z</time>
      </trkpt>
      <trkpt lat="44.93259" lon="-0.4918">
        <ele>8.2</ele>
        <time>2021-06-03T07:52:22.000Z</time>
      </trkpt>
      <trkpt lat="44.93261" lon="-0.49174">
        <ele>8.3</ele>
        <time>2021-06-03T07:52:23.000Z</time>
      </trkpt>
      <trkpt lat="44.93263" lon="-0.49168">
        <ele>8.3</ele>
        <time>2021-06-03T07:52:24.000Z</time>
      </trkpt>
      <trkpt lat="44.93265" lon="-0.49162">
        <ele>8.3</ele>
        <time>2021-06-03T07:52:25.000Z</time>
      </trkpt>
      <trkpt lat="44.93266" lon="-0.49156">
        <ele>8.3</ele>
        <time>2021-06-03T07:52:26.000Z</time>
      </trkpt>
      <trkpt lat="44.93268" lon="-0.4915">
        <ele>8.4</ele>
        <time>2021-06-03T07:52:27.000Z</time>
      </trkpt>
      <trkpt lat="44.9327" lon="-0.49143">
        <ele>8.2</ele>
        <time>2021-06-03T07:52:28.000Z</time>
      </trkpt>
      <trkpt lat="44.93273" lon="-0.49138">
        <ele>8.1</ele>
        <time>2021-06-03T07:52:29.000Z</time>
      </trkpt>
      <trkpt lat="44.93275" lon="-0.49132">
        <ele>8.1</ele>
        <time>2021-06-03T07:52:30.000Z</time>
      </trkpt>
      <trkpt lat="44.93278" lon="-0.49126">
        <ele>8.2</ele>
        <time>2021-06-03T07:52:31.000Z</time>
      </trkpt>
      <trkpt lat="44.9328" lon="-0.4912">
        <ele>8.2</ele>
        <time>2021-06-03T07:52:32.000Z</time>
      </trkpt>
      <trkpt lat="44.93282" lon="-0.49114">
        <ele>7.7</ele>
        <time>2021-06-03T07:52:33.000Z</time>
      </trkpt>
      <trkpt lat="44.93285" lon="-0.49109">
        <ele>7.3</ele>
        <time>2021-06-03T07:52:34.000Z</time>
      </trkpt>
      <trkpt lat="44.93287" lon="-0.49103">
        <ele>7.2</ele>
        <time>2021-06-03T07:52:35.000Z</time>
      </trkpt>
      <trkpt lat="44.93289" lon="-0.49097">
        <ele>7.1</ele>
        <time>2021-06-03T07:52:36.000Z</time>
      </trkpt>
      <trkpt lat="44.93292" lon="-0.4909">
        <ele>7.1</ele>
        <time>2021-06-03T07:52:37.000Z</time>
      </trkpt>
      <trkpt lat="44.93295" lon="-0.49084">
        <ele>7.4</ele>
        <time>2021-06-03T07:52:38.000Z</time>
      </trkpt>
      <trkpt lat="44.93298" lon="-0.49077">
        <ele>7.7</ele>
        <time>2021-06-03T07:52:39.000Z</time>
      </trkpt>
      <trkpt lat="44.933" lon="-0.49071">
        <ele>7.5</ele>
        <time>2021-06-03T07:52:40.000Z</time>
      </trkpt>
      <trkpt lat="44.93303" lon="-0.49065">
        <ele>7.5</ele>
        <time>2021-06-03T07:52:41.000Z</time>
      </trkpt>
      <trkpt lat="44.93305" lon="-0.49058">
        <ele>7.7</ele>
        <time>2021-06-03T07:52:42.000Z</time>
      </trkpt>
      <trkpt lat="44.93307" lon="-0.49053">
        <ele>7.8</ele>
        <time>2021-06-03T07:52:43.000Z</time>
      </trkpt>
      <trkpt lat="44.93309" lon="-0.49047">
        <ele>7.9</ele>
        <time>2021-06-03T07:52:44.000Z</time>
      </trkpt>
      <trkpt lat="44.93311" lon="-0.49041">
        <ele>7.9</ele>
        <time>2021-06-03T07:52:45.000Z</time>
      </trkpt>
      <trkpt lat="44.93313" lon="-0.49035">
        <ele>7.9</ele>
        <time>2021-06-03T07:52:46.000Z</time>
      </trkpt>
      <trkpt lat="44.93318" lon="-0.49024">
        <ele>8.2</ele>
        <time>2021-06-03T07:52:48.000Z</time>
      </trkpt>
      <trkpt lat="44.9332" lon="-0.49018">
        <ele>8.4</ele>
        <time>2021-06-03T07:52:49.000Z</time>
      </trkpt>
      <trkpt lat="44.93323" lon="-0.49013">
        <ele>8.5</ele>
        <time>2021-06-03T07:52:50.000Z</time>
      </trkpt>
      <trkpt lat="44.93327" lon="-0.49007">
        <ele>8.6</ele>
        <time>2021-06-03T07:52:51.000Z</time>
      </trkpt>
      <trkpt lat="44.9333" lon="-0.49002">
        <ele>8.3</ele>
        <time>2021-06-03T07:52:52.000Z</time>
      </trkpt>
      <trkpt lat="44.93333" lon="-0.48997">
        <ele>8.2</ele>
        <time>2021-06-03T07:52:53.000Z</time>
      </trkpt>
      <trkpt lat="44.93336" lon="-0.48992">
        <ele>8.4</ele>
        <time>2021-06-03T07:52:54.000Z</time>
      </trkpt>
      <trkpt lat="44.93339" lon="-0.48987">
        <ele>8.5</ele>
        <time>2021-06-03T07:52:55.000Z</time>
      </trkpt>
      <trkpt lat="44.93343" lon="-0.48982">
        <ele>8.6</ele>
        <time>2021-06-03T07:52:56.000Z</time>
      </trkpt>
      <trkpt lat="44.93346" lon="-0.48977">
        <ele>8.5</ele>
        <time>2021-06-03T07:52:57.000Z</time>
      </trkpt>
      <trkpt lat="44.9335" lon="-0.48973">
        <ele>8.4</ele>
        <time>2021-06-03T07:52:58.000Z</time>
      </trkpt>
      <trkpt lat="44.93354" lon="-0.48968">
        <ele>8.4</ele>
        <time>2021-06-03T07:52:59.000Z</time>
      </trkpt>
      <trkpt lat="44.93358" lon="-0.48963">
        <ele>8.4</ele>
        <time>2021-06-03T07:53:00.000Z</time>
      </trkpt>
      <trkpt lat="44.93362" lon="-0.48958">
        <ele>8.3</ele>
        <time>2021-06-03T07:53:01.000Z</time>
      </trkpt>
      <trkpt lat="44.93366" lon="-0.48954">
        <ele>8.3</ele>
        <time>2021-06-03T07:53:02.000Z</time>
      </trkpt>
      <trkpt lat="44.9337" lon="-0.4895">
        <ele>8.3</ele>
        <time>2021-06-03T07:53:03.000Z</time>
      </trkpt>
      <trkpt lat="44.93375" lon="-0.48945">
        <ele>8.3</ele>
        <time>2021-06-03T07:53:04.000Z</time>
      </trkpt>
      <trkpt lat="44.93379" lon="-0.48941">
        <ele>8.3</ele>
        <time>2021-06-03T07:53:05.000Z</time>
      </trkpt>
      <trkpt lat="44.93383" lon="-0.48937">
        <ele>8.4</ele>
        <time>2021-06-03T07:53:06.000Z</time>
      </trkpt>
      <trkpt lat="44.93387" lon="-0.48932">
        <ele>8.5</ele>
        <time>2021-06-03T07:53:07.000Z</time>
      </trkpt>
      <trkpt lat="44.93391" lon="-0.48927">
        <ele>8.3</ele>
        <time>2021-06-03T07:53:08.000Z</time>
      </trkpt>
      <trkpt lat="44.93395" lon="-0.48923">
        <ele>8.1</ele>
        <time>2021-06-03T07:53:09.000Z</time>
      </trkpt>
      <trkpt lat="44.93399" lon="-0.48918">
        <ele>8</ele>
        <time>2021-06-03T07:53:10.000Z</time>
      </trkpt>
      <trkpt lat="44.93403" lon="-0.48914">
        <ele>8.3</ele>
        <time>2021-06-03T07:53:11.000Z</time>
      </trkpt>
      <trkpt lat="44.93407" lon="-0.48909">
        <ele>8.4</ele>
        <time>2021-06-03T07:53:12.000Z</time>
      </trkpt>
      <trkpt lat="44.93411" lon="-0.48905">
        <ele>8.5</ele>
        <time>2021-06-03T07:53:13.000Z</time>
      </trkpt>
      <trkpt lat="44.93416" lon="-0.489">
        <ele>8.5</ele>
        <time>2021-06-03T07:53:14.000Z</time>
      </trkpt>
      <trkpt lat="44.9342" lon="-0.48896">
        <ele>8.5</ele>
        <time>2021-06-03T07:53:15.000Z</time>
      </trkpt>
      <trkpt lat="44.93424" lon="-0.48892">
        <ele>8.4</ele>
        <time>2021-06-03T07:53:16.000Z</time>
      </trkpt>
      <trkpt lat="44.93428" lon="-0.48888">
        <ele>8.3</ele>
        <time>2021-06-03T07:53:17.000Z</time>
      </trkpt>
      <trkpt lat="44.93432" lon="-0.48883">
        <ele>8.4</ele>
        <time>2021-06-03T07:53:18.000Z</time>
      </trkpt>
      <trkpt lat="44.93435" lon="-0.48879">
        <ele>8.5</ele>
        <time>2021-06-03T07:53:19.000Z</time>
      </trkpt>
      <trkpt lat="44.93439" lon="-0.48874">
        <ele>8.5</ele>
        <time>2021-06-03T07:53:20.000Z</time>
      </trkpt>
      <trkpt lat="44.93443" lon="-0.4887">
        <ele>8.6</ele>
        <time>2021-06-03T07:53:21.000Z</time>
      </trkpt>
      <trkpt lat="44.93447" lon="-0.48865">
        <ele>8.6</ele>
        <time>2021-06-03T07:53:22.000Z</time>
      </trkpt>
      <trkpt lat="44.93451" lon="-0.48861">
        <ele>8.4</ele>
        <time>2021-06-03T07:53:23.000Z</time>
      </trkpt>
      <trkpt lat="44.93455" lon="-0.48856">
        <ele>8.2</ele>
        <time>2021-06-03T07:53:24.000Z</time>
      </trkpt>
      <trkpt lat="44.93459" lon="-0.48852">
        <ele>8.3</ele>
        <time>2021-06-03T07:53:25.000Z</time>
      </trkpt>
      <trkpt lat="44.93473" lon="-0.48838">
        <ele>8</ele>
        <time>2021-06-03T07:53:28.000Z</time>
      </trkpt>
      <trkpt lat="44.93486" lon="-0.48825">
        <ele>8</ele>
        <time>2021-06-03T07:53:32.000Z</time>
      </trkpt>
      <trkpt lat="44.93497" lon="-0.48813">
        <ele>8</ele>
        <time>2021-06-03T07:53:36.000Z</time>
      </trkpt>
      <trkpt lat="44.93502" lon="-0.488">
        <ele>8</ele>
        <time>2021-06-03T07:53:40.000Z</time>
      </trkpt>
      <trkpt lat="44.93498" lon="-0.48784">
        <ele>8</ele>
        <time>2021-06-03T07:53:44.000Z</time>
      </trkpt>
      <trkpt lat="44.93493" lon="-0.48762">
        <ele>8</ele>
        <time>2021-06-03T07:53:48.000Z</time>
      </trkpt>
      <trkpt lat="44.93492" lon="-0.48733">
        <ele>8</ele>
        <time>2021-06-03T07:53:52.000Z</time>
      </trkpt>
      <trkpt lat="44.93492" lon="-0.48721">
        <ele>8.1</ele>
        <time>2021-06-03T07:53:54.000Z</time>
      </trkpt>
      <trkpt lat="44.93495" lon="-0.4869">
        <ele>8.4</ele>
        <time>2021-06-03T07:53:58.000Z</time>
      </trkpt>
      <trkpt lat="44.93496" lon="-0.48683">
        <ele>8.5</ele>
        <time>2021-06-03T07:53:59.000Z</time>
      </trkpt>
      <trkpt lat="44.93498" lon="-0.48676">
        <ele>8.6</ele>
        <time>2021-06-03T07:54:00.000Z</time>
      </trkpt>
      <trkpt lat="44.93499" lon="-0.48669">
        <ele>8.6</ele>
        <time>2021-06-03T07:54:01.000Z</time>
      </trkpt>
      <trkpt lat="44.935" lon="-0.48662">
        <ele>8.6</ele>
        <time>2021-06-03T07:54:02.000Z</time>
      </trkpt>
      <trkpt lat="44.93501" lon="-0.48655">
        <ele>8.5</ele>
        <time>2021-06-03T07:54:03.000Z</time>
      </trkpt>
      <trkpt lat="44.93503" lon="-0.48647">
        <ele>8.5</ele>
        <time>2021-06-03T07:54:04.000Z</time>
      </trkpt>
      <trkpt lat="44.93505" lon="-0.4864">
        <ele>8.4</ele>
        <time>2021-06-03T07:54:05.000Z</time>
      </trkpt>
      <trkpt lat="44.93507" lon="-0.48633">
        <ele>8.3</ele>
        <time>2021-06-03T07:54:06.000Z</time>
      </trkpt>
      <trkpt lat="44.93508" lon="-0.48626">
        <ele>8.2</ele>
        <time>2021-06-03T07:54:07.000Z</time>
      </trkpt>
      <trkpt lat="44.9351" lon="-0.48619">
        <ele>8.4</ele>
        <time>2021-06-03T07:54:08.000Z</time>
      </trkpt>
      <trkpt lat="44.93512" lon="-0.48612">
        <ele>8.5</ele>
        <time>2021-06-03T07:54:09.000Z</time>
      </trkpt>
      <trkpt lat="44.93514" lon="-0.48605">
        <ele>8.2</ele>
        <time>2021-06-03T07:54:10.000Z</time>
      </trkpt>
      <trkpt lat="44.93517" lon="-0.48598">
        <ele>8</ele>
        <time>2021-06-03T07:54:11.000Z</time>
      </trkpt>
      <trkpt lat="44.93519" lon="-0.48591">
        <ele>7.8</ele>
        <time>2021-06-03T07:54:12.000Z</time>
      </trkpt>
      <trkpt lat="44.93521" lon="-0.48584">
        <ele>7.8</ele>
        <time>2021-06-03T07:54:13.000Z</time>
      </trkpt>
      <trkpt lat="44.93522" lon="-0.48578">
        <ele>7.8</ele>
        <time>2021-06-03T07:54:14.000Z</time>
      </trkpt>
      <trkpt lat="44.93524" lon="-0.48572">
        <ele>8</ele>
        <time>2021-06-03T07:54:15.000Z</time>
      </trkpt>
      <trkpt lat="44.93527" lon="-0.4856">
        <ele>8.2</ele>
        <time>2021-06-03T07:54:17.000Z</time>
      </trkpt>
      <trkpt lat="44.9353" lon="-0.48548">
        <ele>8.3</ele>
        <time>2021-06-03T07:54:19.000Z</time>
      </trkpt>
      <trkpt lat="44.93532" lon="-0.48542">
        <ele>8.2</ele>
        <time>2021-06-03T07:54:20.000Z</time>
      </trkpt>
      <trkpt lat="44.93535" lon="-0.4853">
        <ele>8.1</ele>
        <time>2021-06-03T07:54:22.000Z</time>
      </trkpt>
      <trkpt lat="44.93538" lon="-0.48519">
        <ele>7.8</ele>
        <time>2021-06-03T07:54:24.000Z</time>
      </trkpt>
      <trkpt lat="44.93539" lon="-0.48513">
        <ele>7.6</ele>
        <time>2021-06-03T07:54:25.000Z</time>
      </trkpt>
      <trkpt lat="44.93542" lon="-0.48501">
        <ele>7.7</ele>
        <time>2021-06-03T07:54:27.000Z</time>
      </trkpt>
      <trkpt lat="44.93545" lon="-0.4849">
        <ele>7.7</ele>
        <time>2021-06-03T07:54:29.000Z</time>
      </trkpt>
      <trkpt lat="44.93546" lon="-0.48478">
        <ele>7.6</ele>
        <time>2021-06-03T07:54:31.000Z</time>
      </trkpt>
      <trkpt lat="44.93548" lon="-0.48467">
        <ele>7.5</ele>
        <time>2021-06-03T07:54:33.000Z</time>
      </trkpt>
      <trkpt lat="44.93549" lon="-0.48455">
        <ele>7.4</ele>
        <time>2021-06-03T07:54:35.000Z</time>
      </trkpt>
      <trkpt lat="44.9355" lon="-0.48448">
        <ele>7.4</ele>
        <time>2021-06-03T07:54:36.000Z</time>
      </trkpt>
      <trkpt lat="44.9355" lon="-0.48442">
        <ele>7.4</ele>
        <time>2021-06-03T07:54:37.000Z</time>
      </trkpt>
      <trkpt lat="44.93551" lon="-0.48436">
        <ele>7.4</ele>
        <time>2021-06-03T07:54:38.000Z</time>
      </trkpt>
      <trkpt lat="44.93552" lon="-0.48429">
        <ele>7.2</ele>
        <time>2021-06-03T07:54:39.000Z</time>
      </trkpt>
      <trkpt lat="44.93554" lon="-0.48417">
        <ele>7.1</ele>
        <time>2021-06-03T07:54:41.000Z</time>
      </trkpt>
      <trkpt lat="44.93557" lon="-0.48405">
        <ele>6.9</ele>
        <time>2021-06-03T07:54:43.000Z</time>
      </trkpt>
      <trkpt lat="44.93559" lon="-0.48394">
        <ele>6.6</ele>
        <time>2021-06-03T07:54:45.000Z</time>
      </trkpt>
      <trkpt lat="44.93561" lon="-0.48383">
        <ele>6.7</ele>
        <time>2021-06-03T07:54:47.000Z</time>
      </trkpt>
      <trkpt lat="44.93563" lon="-0.48374">
        <ele>6.6</ele>
        <time>2021-06-03T07:54:49.000Z</time>
      </trkpt>
      <trkpt lat="44.93564" lon="-0.48365">
        <ele>6.8</ele>
        <time>2021-06-03T07:54:51.000Z</time>
      </trkpt>
      <trkpt lat="44.93565" lon="-0.48355">
        <ele>7</ele>
        <time>2021-06-03T07:54:53.000Z</time>
      </trkpt>
      <trkpt lat="44.93568" lon="-0.48346">
        <ele>7</ele>
        <time>2021-06-03T07:54:55.000Z</time>
      </trkpt>
      <trkpt lat="44.93571" lon="-0.48342">
        <ele>7</ele>
        <time>2021-06-03T07:54:56.000Z</time>
      </trkpt>
      <trkpt lat="44.93579" lon="-0.48328">
        <ele>6.2</ele>
        <time>2021-06-03T07:54:59.000Z</time>
      </trkpt>
      <trkpt lat="44.93582" lon="-0.48323">
        <ele>6.3</ele>
        <time>2021-06-03T07:55:00.000Z</time>
      </trkpt>
      <trkpt lat="44.93585" lon="-0.48318">
        <ele>6.5</ele>
        <time>2021-06-03T07:55:01.000Z</time>
      </trkpt>
      <trkpt lat="44.93589" lon="-0.48313">
        <ele>6.4</ele>
        <time>2021-06-03T07:55:02.000Z</time>
      </trkpt>
      <trkpt lat="44.93592" lon="-0.48307">
        <ele>6.3</ele>
        <time>2021-06-03T07:55:03.000Z</time>
      </trkpt>
      <trkpt lat="44.93596" lon="-0.48302">
        <ele>6.2</ele>
        <time>2021-06-03T07:55:04.000Z</time>
      </trkpt>
      <trkpt lat="44.93599" lon="-0.48297">
        <ele>6</ele>
        <time>2021-06-03T07:55:05.000Z</time>
      </trkpt>
      <trkpt lat="44.93603" lon="-0.48292">
        <ele>5.9</ele>
        <time>2021-06-03T07:55:06.000Z</time>
      </trkpt>
      <trkpt lat="44.93606" lon="-0.48287">
        <ele>6.3</ele>
        <time>2021-06-03T07:55:07.000Z</time>
      </trkpt>
      <trkpt lat="44.9361" lon="-0.48282">
        <ele>6.7</ele>
        <time>2021-06-03T07:55:08.000Z</time>
      </trkpt>
      <trkpt lat="44.93613" lon="-0.48277">
        <ele>6.6</ele>
        <time>2021-06-03T07:55:09.000Z</time>
      </trkpt>
      <trkpt lat="44.93617" lon="-0.48272">
        <ele>6.6</ele>
        <time>2021-06-03T07:55:10.000Z</time>
      </trkpt>
      <trkpt lat="44.9362" lon="-0.48267">
        <ele>6.6</ele>
        <time>2021-06-03T07:55:11.000Z</time>
      </trkpt>
      <trkpt lat="44.93623" lon="-0.48262">
        <ele>6.6</ele>
        <time>2021-06-03T07:55:12.000Z</time>
      </trkpt>
      <trkpt lat="44.93625" lon="-0.48257">
        <ele>6.6</ele>
        <time>2021-06-03T07:55:13.000Z</time>
      </trkpt>
      <trkpt lat="44.93628" lon="-0.48251">
        <ele>6.8</ele>
        <time>2021-06-03T07:55:14.000Z</time>
      </trkpt>
      <trkpt lat="44.93631" lon="-0.48246">
        <ele>6.9</ele>
        <time>2021-06-03T07:55:15.000Z</time>
      </trkpt>
      <trkpt lat="44.93633" lon="-0.48241">
        <ele>7.1</ele>
        <time>2021-06-03T07:55:16.000Z</time>
      </trkpt>
      <trkpt lat="44.93636" lon="-0.48235">
        <ele>6.6</ele>
        <time>2021-06-03T07:55:17.000Z</time>
      </trkpt>
      <trkpt lat="44.93639" lon="-0.4823">
        <ele>6.3</ele>
        <time>2021-06-03T07:55:18.000Z</time>
      </trkpt>
      <trkpt lat="44.93642" lon="-0.48224">
        <ele>6.3</ele>
        <time>2021-06-03T07:55:19.000Z</time>
      </trkpt>
      <trkpt lat="44.93645" lon="-0.48218">
        <ele>6.3</ele>
        <time>2021-06-03T07:55:20.000Z</time>
      </trkpt>
      <trkpt lat="44.93648" lon="-0.48212">
        <ele>6.4</ele>
        <time>2021-06-03T07:55:21.000Z</time>
      </trkpt>
      <trkpt lat="44.93651" lon="-0.48206">
        <ele>6.4</ele>
        <time>2021-06-03T07:55:22.000Z</time>
      </trkpt>
      <trkpt lat="44.93654" lon="-0.48201">
        <ele>6.4</ele>
        <time>2021-06-03T07:55:23.000Z</time>
      </trkpt>
      <trkpt lat="44.93657" lon="-0.48195">
        <ele>6.5</ele>
        <time>2021-06-03T07:55:24.000Z</time>
      </trkpt>
      <trkpt lat="44.93661" lon="-0.48184">
        <ele>6.6</ele>
        <time>2021-06-03T07:55:26.000Z</time>
      </trkpt>
      <trkpt lat="44.93665" lon="-0.48174">
        <ele>6.9</ele>
        <time>2021-06-03T07:55:28.000Z</time>
      </trkpt>
      <trkpt lat="44.93669" lon="-0.48165">
        <ele>7.3</ele>
        <time>2021-06-03T07:55:30.000Z</time>
      </trkpt>
      <trkpt lat="44.93672" lon="-0.48155">
        <ele>7</ele>
        <time>2021-06-03T07:55:32.000Z</time>
      </trkpt>
      <trkpt lat="44.93676" lon="-0.48146">
        <ele>6.6</ele>
        <time>2021-06-03T07:55:34.000Z</time>
      </trkpt>
      <trkpt lat="44.93679" lon="-0.48137">
        <ele>6.3</ele>
        <time>2021-06-03T07:55:36.000Z</time>
      </trkpt>
      <trkpt lat="44.93683" lon="-0.48126">
        <ele>6.4</ele>
        <time>2021-06-03T07:55:39.000Z</time>
      </trkpt>
      <trkpt lat="44.93685" lon="-0.48116">
        <ele>6.5</ele>
        <time>2021-06-03T07:55:47.000Z</time>
      </trkpt>
      <trkpt lat="44.93686" lon="-0.48104">
        <ele>6.1</ele>
        <time>2021-06-03T07:55:50.000Z</time>
      </trkpt>
      <trkpt lat="44.9369" lon="-0.48097">
        <ele>6.3</ele>
        <time>2021-06-03T07:55:52.000Z</time>
      </trkpt>
      <trkpt lat="44.93696" lon="-0.4809">
        <ele>7</ele>
        <time>2021-06-03T07:55:55.000Z</time>
      </trkpt>
      <trkpt lat="44.93701" lon="-0.48082">
        <ele>7.7</ele>
        <time>2021-06-03T07:55:59.000Z</time>
      </trkpt>
      <trkpt lat="44.93702" lon="-0.48079">
        <ele>7.8</ele>
        <time>2021-06-03T07:56:00.000Z</time>
      </trkpt>
      <trkpt lat="44.93708" lon="-0.48065">
        <ele>7.6</ele>
        <time>2021-06-03T07:56:04.000Z</time>
      </trkpt>
      <trkpt lat="44.93712" lon="-0.48057">
        <ele>7.3</ele>
        <time>2021-06-03T07:56:06.000Z</time>
      </trkpt>
      <trkpt lat="44.93716" lon="-0.48048">
        <ele>7.2</ele>
        <time>2021-06-03T07:56:08.000Z</time>
      </trkpt>
      <trkpt lat="44.93719" lon="-0.48038">
        <ele>7.5</ele>
        <time>2021-06-03T07:56:10.000Z</time>
      </trkpt>
      <trkpt lat="44.93723" lon="-0.48027">
        <ele>7.7</ele>
        <time>2021-06-03T07:56:12.000Z</time>
      </trkpt>
      <trkpt lat="44.93726" lon="-0.48017">
        <ele>7.1</ele>
        <time>2021-06-03T07:56:14.000Z</time>
      </trkpt>
      <trkpt lat="44.9373" lon="-0.48006">
        <ele>7.2</ele>
        <time>2021-06-03T07:56:16.000Z</time>
      </trkpt>
      <trkpt lat="44.93733" lon="-0.47995">
        <ele>7.2</ele>
        <time>2021-06-03T07:56:18.000Z</time>
      </trkpt>
      <trkpt lat="44.93737" lon="-0.47984">
        <ele>6.9</ele>
        <time>2021-06-03T07:56:20.000Z</time>
      </trkpt>
      <trkpt lat="44.93739" lon="-0.47978">
        <ele>6.9</ele>
        <time>2021-06-03T07:56:21.000Z</time>
      </trkpt>
      <trkpt lat="44.9374" lon="-0.47972">
        <ele>7</ele>
        <time>2021-06-03T07:56:22.000Z</time>
      </trkpt>
      <trkpt lat="44.93742" lon="-0.47966">
        <ele>7.2</ele>
        <time>2021-06-03T07:56:23.000Z</time>
      </trkpt>
      <trkpt lat="44.93744" lon="-0.4796">
        <ele>7.3</ele>
        <time>2021-06-03T07:56:24.000Z</time>
      </trkpt>
      <trkpt lat="44.93745" lon="-0.47954">
        <ele>7.2</ele>
        <time>2021-06-03T07:56:25.000Z</time>
      </trkpt>
      <trkpt lat="44.93749" lon="-0.47942">
        <ele>7.1</ele>
        <time>2021-06-03T07:56:27.000Z</time>
      </trkpt>
      <trkpt lat="44.93753" lon="-0.47931">
        <ele>7.1</ele>
        <time>2021-06-03T07:56:29.000Z</time>
      </trkpt>
      <trkpt lat="44.93756" lon="-0.4792">
        <ele>7.4</ele>
        <time>2021-06-03T07:56:31.000Z</time>
      </trkpt>
      <trkpt lat="44.93759" lon="-0.47908">
        <ele>7.3</ele>
        <time>2021-06-03T07:56:33.000Z</time>
      </trkpt>
      <trkpt lat="44.93761" lon="-0.47902">
        <ele>7.2</ele>
        <time>2021-06-03T07:56:34.000Z</time>
      </trkpt>
      <trkpt lat="44.93763" lon="-0.47896">
        <ele>7</ele>
        <time>2021-06-03T07:56:35.000Z</time>
      </trkpt>
      <trkpt lat="44.93764" lon="-0.4789">
        <ele>6.8</ele>
        <time>2021-06-03T07:56:36.000Z</time>
      </trkpt>
      <trkpt lat="44.93766" lon="-0.47884">
        <ele>7</ele>
        <time>2021-06-03T07:56:37.000Z</time>
      </trkpt>
      <trkpt lat="44.93767" lon="-0.47877">
        <ele>7.2</ele>
        <time>2021-06-03T07:56:38.000Z</time>
      </trkpt>
      <trkpt lat="44.93769" lon="-0.47871">
        <ele>7.3</ele>
        <time>2021-06-03T07:56:39.000Z</time>
      </trkpt>
      <trkpt lat="44.9377" lon="-0.47864">
        <ele>6.8</ele>
        <time>2021-06-03T07:56:40.000Z</time>
      </trkpt>
      <trkpt lat="44.93772" lon="-0.47857">
        <ele>6.5</ele>
        <time>2021-06-03T07:56:41.000Z</time>
      </trkpt>
      <trkpt lat="44.93774" lon="-0.4785">
        <ele>6.2</ele>
        <time>2021-06-03T07:56:42.000Z</time>
      </trkpt>
      <trkpt lat="44.93775" lon="-0.47843">
        <ele>5.9</ele>
        <time>2021-06-03T07:56:43.000Z</time>
      </trkpt>
      <trkpt lat="44.93777" lon="-0.47836">
        <ele>5.9</ele>
        <time>2021-06-03T07:56:44.000Z</time>
      </trkpt>
      <trkpt lat="44.93779" lon="-0.47829">
        <ele>5.8</ele>
        <time>2021-06-03T07:56:45.000Z</time>
      </trkpt>
      <trkpt lat="44.9378" lon="-0.47822">
        <ele>5.8</ele>
        <time>2021-06-03T07:56:46.000Z</time>
      </trkpt>
      <trkpt lat="44.93782" lon="-0.47815">
        <ele>5.9</ele>
        <time>2021-06-03T07:56:47.000Z</time>
      </trkpt>
      <trkpt lat="44.93784" lon="-0.47808">
        <ele>5.9</ele>
        <time>2021-06-03T07:56:48.000Z</time>
      </trkpt>
      <trkpt lat="44.93787" lon="-0.47797">
        <ele>5.4</ele>
        <time>2021-06-03T07:56:50.000Z</time>
      </trkpt>
      <trkpt lat="44.93793" lon="-0.47789">
        <ele>5.2</ele>
        <time>2021-06-03T07:56:52.000Z</time>
      </trkpt>
      <trkpt lat="44.93801" lon="-0.47787">
        <ele>5.3</ele>
        <time>2021-06-03T07:56:54.000Z</time>
      </trkpt>
      <trkpt lat="44.93809" lon="-0.47791">
        <ele>5.2</ele>
        <time>2021-06-03T07:56:56.000Z</time>
      </trkpt>
      <trkpt lat="44.93816" lon="-0.47798">
        <ele>4.9</ele>
        <time>2021-06-03T07:56:58.000Z</time>
      </trkpt>
      <trkpt lat="44.9382" lon="-0.47802">
        <ele>5.2</ele>
        <time>2021-06-03T07:56:59.000Z</time>
      </trkpt>
      <trkpt lat="44.93823" lon="-0.47807">
        <ele>5.4</ele>
        <time>2021-06-03T07:57:00.000Z</time>
      </trkpt>
      <trkpt lat="44.93827" lon="-0.47811">
        <ele>5</ele>
        <time>2021-06-03T07:57:01.000Z</time>
      </trkpt>
      <trkpt lat="44.9383" lon="-0.47815">
        <ele>4.8</ele>
        <time>2021-06-03T07:57:02.000Z</time>
      </trkpt>
      <trkpt lat="44.93834" lon="-0.47818">
        <ele>4.9</ele>
        <time>2021-06-03T07:57:03.000Z</time>
      </trkpt>
      <trkpt lat="44.93838" lon="-0.47822">
        <ele>5</ele>
        <time>2021-06-03T07:57:04.000Z</time>
      </trkpt>
      <trkpt lat="44.93845" lon="-0.47829">
        <ele>4.9</ele>
        <time>2021-06-03T07:57:06.000Z</time>
      </trkpt>
      <trkpt lat="44.93852" lon="-0.47836">
        <ele>4.7</ele>
        <time>2021-06-03T07:57:08.000Z</time>
      </trkpt>
      <trkpt lat="44.93859" lon="-0.47845">
        <ele>4.9</ele>
        <time>2021-06-03T07:57:10.000Z</time>
      </trkpt>
      <trkpt lat="44.93865" lon="-0.47853">
        <ele>5.3</ele>
        <time>2021-06-03T07:57:12.000Z</time>
      </trkpt>
      <trkpt lat="44.93871" lon="-0.4786">
        <ele>5.3</ele>
        <time>2021-06-03T07:57:14.000Z</time>
      </trkpt>
      <trkpt lat="44.93877" lon="-0.47864">
        <ele>4.5</ele>
        <time>2021-06-03T07:57:16.000Z</time>
      </trkpt>
      <trkpt lat="44.93884" lon="-0.47866">
        <ele>4.6</ele>
        <time>2021-06-03T07:57:19.000Z</time>
      </trkpt>
      <trkpt lat="44.93893" lon="-0.47866">
        <ele>4.9</ele>
        <time>2021-06-03T07:58:01.000Z</time>
      </trkpt>
      <trkpt lat="44.93893" lon="-0.47866">
        <ele>4.8</ele>
        <time>2021-06-03T07:58:02.000Z</time>
      </trkpt>
      <trkpt lat="44.93903" lon="-0.47865">
        <ele>7</ele>
        <time>2021-06-03T08:00:01.000Z</time>
      </trkpt>
      <trkpt lat="44.93908" lon="-0.47887">
        <ele>7.1</ele>
        <time>2021-06-03T08:00:08.000Z</time>
      </trkpt>
      <trkpt lat="44.9391" lon="-0.47895">
        <ele>6.9</ele>
        <time>2021-06-03T08:00:10.000Z</time>
      </trkpt>
      <trkpt lat="44.93913" lon="-0.47903">
        <ele>6.8</ele>
        <time>2021-06-03T08:00:12.000Z</time>
      </trkpt>
      <trkpt lat="44.93917" lon="-0.4791">
        <ele>6.5</ele>
        <time>2021-06-03T08:00:14.000Z</time>
      </trkpt>
      <trkpt lat="44.93922" lon="-0.47917">
        <ele>6.5</ele>
        <time>2021-06-03T08:00:16.000Z</time>
      </trkpt>
      <trkpt lat="44.93928" lon="-0.47925">
        <ele>6.5</ele>
        <time>2021-06-03T08:00:18.000Z</time>
      </trkpt>
      <trkpt lat="44.93933" lon="-0.47932">
        <ele>6.6</ele>
        <time>2021-06-03T08:00:20.000Z</time>
      </trkpt>
      <trkpt lat="44.9394" lon="-0.4794">
        <ele>6.8</ele>
        <time>2021-06-03T08:00:22.000Z</time>
      </trkpt>
      <trkpt lat="44.93946" lon="-0.47948">
        <ele>7</ele>
        <time>2021-06-03T08:00:24.000Z</time>
      </trkpt>
      <trkpt lat="44.93952" lon="-0.47956">
        <ele>6.9</ele>
        <time>2021-06-03T08:00:26.000Z</time>
      </trkpt>
      <trkpt lat="44.93958" lon="-0.47963">
        <ele>6.6</ele>
        <time>2021-06-03T08:00:28.000Z</time>
      </trkpt>
      <trkpt lat="44.93964" lon="-0.47971">
        <ele>6.7</ele>
        <time>2021-06-03T08:00:30.000Z</time>
      </trkpt>
      <trkpt lat="44.9397" lon="-0.47978">
        <ele>7.1</ele>
        <time>2021-06-03T08:00:32.000Z</time>
      </trkpt>
      <trkpt lat="44.93976" lon="-0.47986">
        <ele>7.4</ele>
        <time>2021-06-03T08:00:34.000Z</time>
      </trkpt>
      <trkpt lat="44.93981" lon="-0.47994">
        <ele>7.1</ele>
        <time>2021-06-03T08:00:36.000Z</time>
      </trkpt>
      <trkpt lat="44.93987" lon="-0.48002">
        <ele>6.8</ele>
        <time>2021-06-03T08:00:38.000Z</time>
      </trkpt>
      <trkpt lat="44.93992" lon="-0.4801">
        <ele>7.1</ele>
        <time>2021-06-03T08:00:40.000Z</time>
      </trkpt>
      <trkpt lat="44.93998" lon="-0.48018">
        <ele>7.4</ele>
        <time>2021-06-03T08:00:42.000Z</time>
      </trkpt>
      <trkpt lat="44.94004" lon="-0.48026">
        <ele>7.3</ele>
        <time>2021-06-03T08:00:44.000Z</time>
      </trkpt>
      <trkpt lat="44.94009" lon="-0.48036">
        <ele>7.4</ele>
        <time>2021-06-03T08:00:46.000Z</time>
      </trkpt>
      <trkpt lat="44.94014" lon="-0.48045">
        <ele>7.8</ele>
        <time>2021-06-03T08:00:48.000Z</time>
      </trkpt>
      <trkpt lat="44.94019" lon="-0.48055">
        <ele>7</ele>
        <time>2021-06-03T08:00:50.000Z</time>
      </trkpt>
      <trkpt lat="44.94022" lon="-0.48061">
        <ele>6.8</ele>
        <time>2021-06-03T08:00:51.000Z</time>
      </trkpt>
      <trkpt lat="44.94024" lon="-0.48066">
        <ele>6.7</ele>
        <time>2021-06-03T08:00:52.000Z</time>
      </trkpt>
      <trkpt lat="44.94027" lon="-0.48072">
        <ele>7.1</ele>
        <time>2021-06-03T08:00:53.000Z</time>
      </trkpt>
      <trkpt lat="44.9403" lon="-0.48077">
        <ele>7.5</ele>
        <time>2021-06-03T08:00:54.000Z</time>
      </trkpt>
      <trkpt lat="44.94033" lon="-0.48083">
        <ele>7.7</ele>
        <time>2021-06-03T08:00:55.000Z</time>
      </trkpt>
      <trkpt lat="44.94036" lon="-0.48089">
        <ele>7.7</ele>
        <time>2021-06-03T08:00:56.000Z</time>
      </trkpt>
      <trkpt lat="44.94039" lon="-0.48094">
        <ele>7.7</ele>
        <time>2021-06-03T08:00:57.000Z</time>
      </trkpt>
      <trkpt lat="44.94042" lon="-0.481">
        <ele>7.5</ele>
        <time>2021-06-03T08:00:58.000Z</time>
      </trkpt>
      <trkpt lat="44.94045" lon="-0.48106">
        <ele>7.3</ele>
        <time>2021-06-03T08:00:59.000Z</time>
      </trkpt>
      <trkpt lat="44.94048" lon="-0.48112">
        <ele>7.2</ele>
        <time>2021-06-03T08:01:00.000Z</time>
      </trkpt>
      <trkpt lat="44.94051" lon="-0.48117">
        <ele>6.9</ele>
        <time>2021-06-03T08:01:01.000Z</time>
      </trkpt>
      <trkpt lat="44.94055" lon="-0.48123">
        <ele>6.8</ele>
        <time>2021-06-03T08:01:02.000Z</time>
      </trkpt>
      <trkpt lat="44.94058" lon="-0.48129">
        <ele>7.1</ele>
        <time>2021-06-03T08:01:03.000Z</time>
      </trkpt>
      <trkpt lat="44.94061" lon="-0.48135">
        <ele>7.4</ele>
        <time>2021-06-03T08:01:04.000Z</time>
      </trkpt>
      <trkpt lat="44.94065" lon="-0.4814">
        <ele>7.6</ele>
        <time>2021-06-03T08:01:05.000Z</time>
      </trkpt>
      <trkpt lat="44.94068" lon="-0.48146">
        <ele>7.8</ele>
        <time>2021-06-03T08:01:06.000Z</time>
      </trkpt>
      <trkpt lat="44.94072" lon="-0.48151">
        <ele>8</ele>
        <time>2021-06-03T08:01:07.000Z</time>
      </trkpt>
      <trkpt lat="44.94075" lon="-0.48157">
        <ele>8.1</ele>
        <time>2021-06-03T08:01:08.000Z</time>
      </trkpt>
      <trkpt lat="44.94078" lon="-0.48163">
        <ele>8.2</ele>
        <time>2021-06-03T08:01:09.000Z</time>
      </trkpt>
      <trkpt lat="44.94082" lon="-0.48168">
        <ele>8</ele>
        <time>2021-06-03T08:01:10.000Z</time>
      </trkpt>
      <trkpt lat="44.94085" lon="-0.48174">
        <ele>7.9</ele>
        <time>2021-06-03T08:01:11.000Z</time>
      </trkpt>
      <trkpt lat="44.94088" lon="-0.4818">
        <ele>7.6</ele>
        <time>2021-06-03T08:01:12.000Z</time>
      </trkpt>
      <trkpt lat="44.94091" lon="-0.48186">
        <ele>7.4</ele>
        <time>2021-06-03T08:01:13.000Z</time>
      </trkpt>
      <trkpt lat="44.94093" lon="-0.48192">
        <ele>7.3</ele>
        <time>2021-06-03T08:01:14.000Z</time>
      </trkpt>
      <trkpt lat="44.94096" lon="-0.48198">
        <ele>7.3</ele>
        <time>2021-06-03T08:01:15.000Z</time>
      </trkpt>
      <trkpt lat="44.94099" lon="-0.48205">
        <ele>7.2</ele>
        <time>2021-06-03T08:01:16.000Z</time>
      </trkpt>
      <trkpt lat="44.94101" lon="-0.48211">
        <ele>7.3</ele>
        <time>2021-06-03T08:01:17.000Z</time>
      </trkpt>
      <trkpt lat="44.94102" lon="-0.48218">
        <ele>7.3</ele>
        <time>2021-06-03T08:01:18.000Z</time>
      </trkpt>
      <trkpt lat="44.94104" lon="-0.48224">
        <ele>7.3</ele>
        <time>2021-06-03T08:01:19.000Z</time>
      </trkpt>
      <trkpt lat="44.94105" lon="-0.48231">
        <ele>7.5</ele>
        <time>2021-06-03T08:01:20.000Z</time>
      </trkpt>
      <trkpt lat="44.94107" lon="-0.48242">
        <ele>7.7</ele>
        <time>2021-06-03T08:01:22.000Z</time>
      </trkpt>
      <trkpt lat="44.9411" lon="-0.48252">
        <ele>7.5</ele>
        <time>2021-06-03T08:01:24.000Z</time>
      </trkpt>
      <trkpt lat="44.94111" lon="-0.48262">
        <ele>7.2</ele>
        <time>2021-06-03T08:01:26.000Z</time>
      </trkpt>
      <trkpt lat="44.94109" lon="-0.48272">
        <ele>8</ele>
        <time>2021-06-03T08:01:28.000Z</time>
      </trkpt>
      <trkpt lat="44.94104" lon="-0.48281">
        <ele>7.5</ele>
        <time>2021-06-03T08:01:30.000Z</time>
      </trkpt>
      <trkpt lat="44.94103" lon="-0.48293">
        <ele>7.9</ele>
        <time>2021-06-03T08:01:32.000Z</time>
      </trkpt>
      <trkpt lat="44.94105" lon="-0.48305">
        <ele>7.9</ele>
        <time>2021-06-03T08:01:34.000Z</time>
      </trkpt>
      <trkpt lat="44.94107" lon="-0.48311">
        <ele>7.8</ele>
        <time>2021-06-03T08:01:35.000Z</time>
      </trkpt>
      <trkpt lat="44.94109" lon="-0.48317">
        <ele>7.8</ele>
        <time>2021-06-03T08:01:36.000Z</time>
      </trkpt>
      <trkpt lat="44.94112" lon="-0.48323">
        <ele>7.8</ele>
        <time>2021-06-03T08:01:37.000Z</time>
      </trkpt>
      <trkpt lat="44.94115" lon="-0.48329">
        <ele>7.8</ele>
        <time>2021-06-03T08:01:38.000Z</time>
      </trkpt>
      <trkpt lat="44.94118" lon="-0.48334">
        <ele>7.8</ele>
        <time>2021-06-03T08:01:39.000Z</time>
      </trkpt>
      <trkpt lat="44.94121" lon="-0.4834">
        <ele>7.8</ele>
        <time>2021-06-03T08:01:40.000Z</time>
      </trkpt>
      <trkpt lat="44.94124" lon="-0.48346">
        <ele>7.7</ele>
        <time>2021-06-03T08:01:41.000Z</time>
      </trkpt>
      <trkpt lat="44.94127" lon="-0.48352">
        <ele>7.6</ele>
        <time>2021-06-03T08:01:42.000Z</time>
      </trkpt>
      <trkpt lat="44.9413" lon="-0.48357">
        <ele>7.6</ele>
        <time>2021-06-03T08:01:43.000Z</time>
      </trkpt>
      <trkpt lat="44.94132" lon="-0.48363">
        <ele>7.6</ele>
        <time>2021-06-03T08:01:44.000Z</time>
      </trkpt>
      <trkpt lat="44.94135" lon="-0.48368">
        <ele>7.6</ele>
        <time>2021-06-03T08:01:45.000Z</time>
      </trkpt>
      <trkpt lat="44.94138" lon="-0.48374">
        <ele>8</ele>
        <time>2021-06-03T08:01:46.000Z</time>
      </trkpt>
      <trkpt lat="44.94141" lon="-0.4838">
        <ele>8.2</ele>
        <time>2021-06-03T08:01:47.000Z</time>
      </trkpt>
      <trkpt lat="44.94144" lon="-0.48385">
        <ele>8.3</ele>
        <time>2021-06-03T08:01:48.000Z</time>
      </trkpt>
      <trkpt lat="44.94147" lon="-0.48391">
        <ele>8.4</ele>
        <time>2021-06-03T08:01:49.000Z</time>
      </trkpt>
      <trkpt lat="44.9415" lon="-0.48396">
        <ele>8.3</ele>
        <time>2021-06-03T08:01:50.000Z</time>
      </trkpt>
      <trkpt lat="44.94153" lon="-0.48402">
        <ele>8.2</ele>
        <time>2021-06-03T08:01:51.000Z</time>
      </trkpt>
      <trkpt lat="44.94156" lon="-0.48408">
        <ele>8.1</ele>
        <time>2021-06-03T08:01:52.000Z</time>
      </trkpt>
      <trkpt lat="44.94159" lon="-0.48414">
        <ele>8.2</ele>
        <time>2021-06-03T08:01:53.000Z</time>
      </trkpt>
      <trkpt lat="44.94162" lon="-0.4842">
        <ele>8.3</ele>
        <time>2021-06-03T08:01:54.000Z</time>
      </trkpt>
      <trkpt lat="44.94165" lon="-0.48426">
        <ele>8.4</ele>
        <time>2021-06-03T08:01:55.000Z</time>
      </trkpt>
      <trkpt lat="44.94168" lon="-0.48432">
        <ele>8.6</ele>
        <time>2021-06-03T08:01:56.000Z</time>
      </trkpt>
      <trkpt lat="44.9417" lon="-0.48438">
        <ele>8.6</ele>
        <time>2021-06-03T08:01:57.000Z</time>
      </trkpt>
      <trkpt lat="44.94173" lon="-0.48445">
        <ele>8.7</ele>
        <time>2021-06-03T08:01:58.000Z</time>
      </trkpt>
      <trkpt lat="44.94176" lon="-0.48451">
        <ele>8.7</ele>
        <time>2021-06-03T08:01:59.000Z</time>
      </trkpt>
      <trkpt lat="44.94179" lon="-0.48456">
        <ele>8.6</ele>
        <time>2021-06-03T08:02:00.000Z</time>
      </trkpt>
      <trkpt lat="44.94182" lon="-0.48463">
        <ele>8.6</ele>
        <time>2021-06-03T08:02:01.000Z</time>
      </trkpt>
      <trkpt lat="44.94184" lon="-0.48469">
        <ele>7.9</ele>
        <time>2021-06-03T08:02:02.000Z</time>
      </trkpt>
      <trkpt lat="44.94187" lon="-0.48475">
        <ele>7.4</ele>
        <time>2021-06-03T08:02:03.000Z</time>
      </trkpt>
      <trkpt lat="44.94189" lon="-0.48481">
        <ele>7.1</ele>
        <time>2021-06-03T08:02:04.000Z</time>
      </trkpt>
      <trkpt lat="44.94192" lon="-0.48487">
        <ele>7.8</ele>
        <time>2021-06-03T08:02:05.000Z</time>
      </trkpt>
      <trkpt lat="44.94194" lon="-0.48493">
        <ele>8.4</ele>
        <time>2021-06-03T08:02:06.000Z</time>
      </trkpt>
      <trkpt lat="44.94197" lon="-0.48499">
        <ele>8.5</ele>
        <time>2021-06-03T08:02:07.000Z</time>
      </trkpt>
      <trkpt lat="44.94199" lon="-0.48505">
        <ele>8.5</ele>
        <time>2021-06-03T08:02:08.000Z</time>
      </trkpt>
      <trkpt lat="44.94201" lon="-0.48511">
        <ele>8.8</ele>
        <time>2021-06-03T08:02:09.000Z</time>
      </trkpt>
      <trkpt lat="44.94203" lon="-0.48517">
        <ele>9</ele>
        <time>2021-06-03T08:02:10.000Z</time>
      </trkpt>
      <trkpt lat="44.94207" lon="-0.48528">
        <ele>9</ele>
        <time>2021-06-03T08:02:12.000Z</time>
      </trkpt>
      <trkpt lat="44.9421" lon="-0.48539">
        <ele>9</ele>
        <time>2021-06-03T08:02:14.000Z</time>
      </trkpt>
      <trkpt lat="44.94211" lon="-0.48551">
        <ele>9</ele>
        <time>2021-06-03T08:02:16.000Z</time>
      </trkpt>
      <trkpt lat="44.94212" lon="-0.48562">
        <ele>8.9</ele>
        <time>2021-06-03T08:02:18.000Z</time>
      </trkpt>
      <trkpt lat="44.94216" lon="-0.48572">
        <ele>8.5</ele>
        <time>2021-06-03T08:02:20.000Z</time>
      </trkpt>
      <trkpt lat="44.94219" lon="-0.48583">
        <ele>8.4</ele>
        <time>2021-06-03T08:02:22.000Z</time>
      </trkpt>
      <trkpt lat="44.94221" lon="-0.48589">
        <ele>8.4</ele>
        <time>2021-06-03T08:02:23.000Z</time>
      </trkpt>
      <trkpt lat="44.94224" lon="-0.48595">
        <ele>8.5</ele>
        <time>2021-06-03T08:02:24.000Z</time>
      </trkpt>
      <trkpt lat="44.94228" lon="-0.48599">
        <ele>8.5</ele>
        <time>2021-06-03T08:02:25.000Z</time>
      </trkpt>
      <trkpt lat="44.94232" lon="-0.48603">
        <ele>8.8</ele>
        <time>2021-06-03T08:02:26.000Z</time>
      </trkpt>
      <trkpt lat="44.94236" lon="-0.48607">
        <ele>9</ele>
        <time>2021-06-03T08:02:27.000Z</time>
      </trkpt>
      <trkpt lat="44.9424" lon="-0.4861">
        <ele>9.1</ele>
        <time>2021-06-03T08:02:28.000Z</time>
      </trkpt>
      <trkpt lat="44.94245" lon="-0.48612">
        <ele>9.1</ele>
        <time>2021-06-03T08:02:29.000Z</time>
      </trkpt>
      <trkpt lat="44.94249" lon="-0.48615">
        <ele>9.1</ele>
        <time>2021-06-03T08:02:30.000Z</time>
      </trkpt>
      <trkpt lat="44.94253" lon="-0.48617">
        <ele>9.4</ele>
        <time>2021-06-03T08:02:31.000Z</time>
      </trkpt>
      <trkpt lat="44.94257" lon="-0.48619">
        <ele>9.6</ele>
        <time>2021-06-03T08:02:32.000Z</time>
      </trkpt>
      <trkpt lat="44.94262" lon="-0.48621">
        <ele>9.6</ele>
        <time>2021-06-03T08:02:33.000Z</time>
      </trkpt>
      <trkpt lat="44.9427" lon="-0.48625">
        <ele>10</ele>
        <time>2021-06-03T08:02:35.000Z</time>
      </trkpt>
      <trkpt lat="44.94278" lon="-0.48626">
        <ele>10.4</ele>
        <time>2021-06-03T08:02:37.000Z</time>
      </trkpt>
      <trkpt lat="44.94286" lon="-0.48628">
        <ele>10</ele>
        <time>2021-06-03T08:02:39.000Z</time>
      </trkpt>
      <trkpt lat="44.94294" lon="-0.4863">
        <ele>9.6</ele>
        <time>2021-06-03T08:02:41.000Z</time>
      </trkpt>
      <trkpt lat="44.94302" lon="-0.48633">
        <ele>9.9</ele>
        <time>2021-06-03T08:02:43.000Z</time>
      </trkpt>
      <trkpt lat="44.94307" lon="-0.48635">
        <ele>10.2</ele>
        <time>2021-06-03T08:02:44.000Z</time>
      </trkpt>
      <trkpt lat="44.94311" lon="-0.48638">
        <ele>10</ele>
        <time>2021-06-03T08:02:45.000Z</time>
      </trkpt>
      <trkpt lat="44.94315" lon="-0.4864">
        <ele>9.9</ele>
        <time>2021-06-03T08:02:46.000Z</time>
      </trkpt>
      <trkpt lat="44.94319" lon="-0.48643">
        <ele>9.9</ele>
        <time>2021-06-03T08:02:47.000Z</time>
      </trkpt>
      <trkpt lat="44.94323" lon="-0.48647">
        <ele>10</ele>
        <time>2021-06-03T08:02:48.000Z</time>
      </trkpt>
      <trkpt lat="44.94327" lon="-0.4865">
        <ele>10</ele>
        <time>2021-06-03T08:02:49.000Z</time>
      </trkpt>
      <trkpt lat="44.94331" lon="-0.48654">
        <ele>9.8</ele>
        <time>2021-06-03T08:02:50.000Z</time>
      </trkpt>
      <trkpt lat="44.94338" lon="-0.48661">
        <ele>9.9</ele>
        <time>2021-06-03T08:02:52.000Z</time>
      </trkpt>
      <trkpt lat="44.94342" lon="-0.48665">
        <ele>10</ele>
        <time>2021-06-03T08:02:53.000Z</time>
      </trkpt>
      <trkpt lat="44.94346" lon="-0.48668">
        <ele>10.1</ele>
        <time>2021-06-03T08:02:54.000Z</time>
      </trkpt>
      <trkpt lat="44.9435" lon="-0.48673">
        <ele>10</ele>
        <time>2021-06-03T08:02:55.000Z</time>
      </trkpt>
      <trkpt lat="44.94354" lon="-0.48677">
        <ele>9.8</ele>
        <time>2021-06-03T08:02:56.000Z</time>
      </trkpt>
      <trkpt lat="44.94358" lon="-0.48681">
        <ele>9.3</ele>
        <time>2021-06-03T08:02:57.000Z</time>
      </trkpt>
      <trkpt lat="44.94362" lon="-0.48685">
        <ele>8.9</ele>
        <time>2021-06-03T08:02:58.000Z</time>
      </trkpt>
      <trkpt lat="44.94366" lon="-0.48689">
        <ele>9</ele>
        <time>2021-06-03T08:02:59.000Z</time>
      </trkpt>
      <trkpt lat="44.9437" lon="-0.48693">
        <ele>9.1</ele>
        <time>2021-06-03T08:03:00.000Z</time>
      </trkpt>
      <trkpt lat="44.94374" lon="-0.48696">
        <ele>9.1</ele>
        <time>2021-06-03T08:03:01.000Z</time>
      </trkpt>
      <trkpt lat="44.94378" lon="-0.487">
        <ele>9.7</ele>
        <time>2021-06-03T08:03:02.000Z</time>
      </trkpt>
      <trkpt lat="44.94382" lon="-0.48704">
        <ele>10.1</ele>
        <time>2021-06-03T08:03:03.000Z</time>
      </trkpt>
      <trkpt lat="44.94386" lon="-0.48709">
        <ele>10.1</ele>
        <time>2021-06-03T08:03:04.000Z</time>
      </trkpt>
      <trkpt lat="44.9439" lon="-0.48713">
        <ele>10.2</ele>
        <time>2021-06-03T08:03:05.000Z</time>
      </trkpt>
      <trkpt lat="44.94394" lon="-0.48717">
        <ele>9.7</ele>
        <time>2021-06-03T08:03:06.000Z</time>
      </trkpt>
      <trkpt lat="44.94397" lon="-0.48722">
        <ele>9.3</ele>
        <time>2021-06-03T08:03:07.000Z</time>
      </trkpt>
      <trkpt lat="44.94401" lon="-0.48726">
        <ele>9</ele>
        <time>2021-06-03T08:03:08.000Z</time>
      </trkpt>
      <trkpt lat="44.94404" lon="-0.48731">
        <ele>9.1</ele>
        <time>2021-06-03T08:03:09.000Z</time>
      </trkpt>
      <trkpt lat="44.94408" lon="-0.48735">
        <ele>9.2</ele>
        <time>2021-06-03T08:03:10.000Z</time>
      </trkpt>
      <trkpt lat="44.94412" lon="-0.48739">
        <ele>9.3</ele>
        <time>2021-06-03T08:03:11.000Z</time>
      </trkpt>
      <trkpt lat="44.94415" lon="-0.48744">
        <ele>9.4</ele>
        <time>2021-06-03T08:03:12.000Z</time>
      </trkpt>
      <trkpt lat="44.94419" lon="-0.48749">
        <ele>10.1</ele>
        <time>2021-06-03T08:03:13.000Z</time>
      </trkpt>
      <trkpt lat="44.94422" lon="-0.48753">
        <ele>10.7</ele>
        <time>2021-06-03T08:03:14.000Z</time>
      </trkpt>
      <trkpt lat="44.94426" lon="-0.48758">
        <ele>11.2</ele>
        <time>2021-06-03T08:03:15.000Z</time>
      </trkpt>
      <trkpt lat="44.94432" lon="-0.48766">
        <ele>11.1</ele>
        <time>2021-06-03T08:03:17.000Z</time>
      </trkpt>
      <trkpt lat="44.94436" lon="-0.4877">
        <ele>10.7</ele>
        <time>2021-06-03T08:03:18.000Z</time>
      </trkpt>
      <trkpt lat="44.9444" lon="-0.48774">
        <ele>10.4</ele>
        <time>2021-06-03T08:03:19.000Z</time>
      </trkpt>
      <trkpt lat="44.94443" lon="-0.48778">
        <ele>10.2</ele>
        <time>2021-06-03T08:03:20.000Z</time>
      </trkpt>
      <trkpt lat="44.94446" lon="-0.48784">
        <ele>10.4</ele>
        <time>2021-06-03T08:03:21.000Z</time>
      </trkpt>
      <trkpt lat="44.94449" lon="-0.48789">
        <ele>10.5</ele>
        <time>2021-06-03T08:03:22.000Z</time>
      </trkpt>
      <trkpt lat="44.94452" lon="-0.48796">
        <ele>10.5</ele>
        <time>2021-06-03T08:03:23.000Z</time>
      </trkpt>
      <trkpt lat="44.94455" lon="-0.48801">
        <ele>10.6</ele>
        <time>2021-06-03T08:03:24.000Z</time>
      </trkpt>
      <trkpt lat="44.94458" lon="-0.48806">
        <ele>10.4</ele>
        <time>2021-06-03T08:03:25.000Z</time>
      </trkpt>
      <trkpt lat="44.94461" lon="-0.48812">
        <ele>10.2</ele>
        <time>2021-06-03T08:03:26.000Z</time>
      </trkpt>
      <trkpt lat="44.94464" lon="-0.48817">
        <ele>10.1</ele>
        <time>2021-06-03T08:03:27.000Z</time>
      </trkpt>
      <trkpt lat="44.94467" lon="-0.48822">
        <ele>10.3</ele>
        <time>2021-06-03T08:03:28.000Z</time>
      </trkpt>
      <trkpt lat="44.94472" lon="-0.48832">
        <ele>10.6</ele>
        <time>2021-06-03T08:03:30.000Z</time>
      </trkpt>
      <trkpt lat="44.94477" lon="-0.48842">
        <ele>10.8</ele>
        <time>2021-06-03T08:03:32.000Z</time>
      </trkpt>
      <trkpt lat="44.94482" lon="-0.48852">
        <ele>10.8</ele>
        <time>2021-06-03T08:03:34.000Z</time>
      </trkpt>
      <trkpt lat="44.94487" lon="-0.48863">
        <ele>11.2</ele>
        <time>2021-06-03T08:03:36.000Z</time>
      </trkpt>
      <trkpt lat="44.94489" lon="-0.48868">
        <ele>11.1</ele>
        <time>2021-06-03T08:03:37.000Z</time>
      </trkpt>
      <trkpt lat="44.94492" lon="-0.48874">
        <ele>11</ele>
        <time>2021-06-03T08:03:38.000Z</time>
      </trkpt>
      <trkpt lat="44.94494" lon="-0.48879">
        <ele>10.8</ele>
        <time>2021-06-03T08:03:39.000Z</time>
      </trkpt>
      <trkpt lat="44.94498" lon="-0.4889">
        <ele>10.4</ele>
        <time>2021-06-03T08:03:41.000Z</time>
      </trkpt>
      <trkpt lat="44.94502" lon="-0.48901">
        <ele>10.8</ele>
        <time>2021-06-03T08:03:43.000Z</time>
      </trkpt>
      <trkpt lat="44.94505" lon="-0.48912">
        <ele>10.6</ele>
        <time>2021-06-03T08:03:45.000Z</time>
      </trkpt>
      <trkpt lat="44.94509" lon="-0.48921">
        <ele>10.3</ele>
        <time>2021-06-03T08:03:47.000Z</time>
      </trkpt>
      <trkpt lat="44.94512" lon="-0.48931">
        <ele>10.6</ele>
        <time>2021-06-03T08:03:49.000Z</time>
      </trkpt>
      <trkpt lat="44.94514" lon="-0.48941">
        <ele>11.1</ele>
        <time>2021-06-03T08:03:51.000Z</time>
      </trkpt>
      <trkpt lat="44.94517" lon="-0.48951">
        <ele>11.7</ele>
        <time>2021-06-03T08:03:53.000Z</time>
      </trkpt>
      <trkpt lat="44.9452" lon="-0.48961">
        <ele>10.9</ele>
        <time>2021-06-03T08:03:55.000Z</time>
      </trkpt>
      <trkpt lat="44.94523" lon="-0.4897">
        <ele>10.9</ele>
        <time>2021-06-03T08:03:57.000Z</time>
      </trkpt>
      <trkpt lat="44.9453" lon="-0.48972">
        <ele>10.9</ele>
        <time>2021-06-03T08:03:59.000Z</time>
      </trkpt>
      <trkpt lat="44.94538" lon="-0.4897">
        <ele>10.9</ele>
        <time>2021-06-03T08:04:01.000Z</time>
      </trkpt>
      <trkpt lat="44.94545" lon="-0.48967">
        <ele>10.6</ele>
        <time>2021-06-03T08:04:03.000Z</time>
      </trkpt>
      <trkpt lat="44.94554" lon="-0.48963">
        <ele>10.3</ele>
        <time>2021-06-03T08:04:05.000Z</time>
      </trkpt>
      <trkpt lat="44.94559" lon="-0.48961">
        <ele>10.2</ele>
        <time>2021-06-03T08:04:06.000Z</time>
      </trkpt>
      <trkpt lat="44.94563" lon="-0.48959">
        <ele>10.1</ele>
        <time>2021-06-03T08:04:07.000Z</time>
      </trkpt>
      <trkpt lat="44.94568" lon="-0.48957">
        <ele>10.1</ele>
        <time>2021-06-03T08:04:08.000Z</time>
      </trkpt>
      <trkpt lat="44.94574" lon="-0.48955">
        <ele>10.1</ele>
        <time>2021-06-03T08:04:09.000Z</time>
      </trkpt>
      <trkpt lat="44.94579" lon="-0.48953">
        <ele>10.1</ele>
        <time>2021-06-03T08:04:10.000Z</time>
      </trkpt>
      <trkpt lat="44.94584" lon="-0.48952">
        <ele>10.1</ele>
        <time>2021-06-03T08:04:11.000Z</time>
      </trkpt>
      <trkpt lat="44.94589" lon="-0.4895">
        <ele>10.1</ele>
        <time>2021-06-03T08:04:12.000Z</time>
      </trkpt>
      <trkpt lat="44.94594" lon="-0.48948">
        <ele>10.3</ele>
        <time>2021-06-03T08:04:13.000Z</time>
      </trkpt>
      <trkpt lat="44.94599" lon="-0.48946">
        <ele>10.4</ele>
        <time>2021-06-03T08:04:14.000Z</time>
      </trkpt>
      <trkpt lat="44.94604" lon="-0.48945">
        <ele>10.5</ele>
        <time>2021-06-03T08:04:15.000Z</time>
      </trkpt>
      <trkpt lat="44.9461" lon="-0.48943">
        <ele>10.5</ele>
        <time>2021-06-03T08:04:16.000Z</time>
      </trkpt>
      <trkpt lat="44.94615" lon="-0.48942">
        <ele>10.6</ele>
        <time>2021-06-03T08:04:17.000Z</time>
      </trkpt>
      <trkpt lat="44.9462" lon="-0.4894">
        <ele>10.2</ele>
        <time>2021-06-03T08:04:18.000Z</time>
      </trkpt>
      <trkpt lat="44.94625" lon="-0.48939">
        <ele>9.8</ele>
        <time>2021-06-03T08:04:19.000Z</time>
      </trkpt>
      <trkpt lat="44.9463" lon="-0.48937">
        <ele>9.6</ele>
        <time>2021-06-03T08:04:20.000Z</time>
      </trkpt>
      <trkpt lat="44.94636" lon="-0.48935">
        <ele>9.4</ele>
        <time>2021-06-03T08:04:21.000Z</time>
      </trkpt>
      <trkpt lat="44.94641" lon="-0.48933">
        <ele>9.4</ele>
        <time>2021-06-03T08:04:22.000Z</time>
      </trkpt>
      <trkpt lat="44.94647" lon="-0.48932">
        <ele>9.3</ele>
        <time>2021-06-03T08:04:23.000Z</time>
      </trkpt>
      <trkpt lat="44.94652" lon="-0.4893">
        <ele>9.3</ele>
        <time>2021-06-03T08:04:24.000Z</time>
      </trkpt>
      <trkpt lat="44.94657" lon="-0.48929">
        <ele>9.6</ele>
        <time>2021-06-03T08:04:25.000Z</time>
      </trkpt>
      <trkpt lat="44.94662" lon="-0.48927">
        <ele>9.8</ele>
        <time>2021-06-03T08:04:26.000Z</time>
      </trkpt>
      <trkpt lat="44.94667" lon="-0.48925">
        <ele>10</ele>
        <time>2021-06-03T08:04:27.000Z</time>
      </trkpt>
      <trkpt lat="44.94672" lon="-0.48923">
        <ele>10.1</ele>
        <time>2021-06-03T08:04:28.000Z</time>
      </trkpt>
      <trkpt lat="44.94678" lon="-0.48921">
        <ele>9.7</ele>
        <time>2021-06-03T08:04:29.000Z</time>
      </trkpt>
      <trkpt lat="44.94683" lon="-0.4892">
        <ele>9.3</ele>
        <time>2021-06-03T08:04:30.000Z</time>
      </trkpt>
      <trkpt lat="44.94688" lon="-0.48918">
        <ele>9.1</ele>
        <time>2021-06-03T08:04:31.000Z</time>
      </trkpt>
      <trkpt lat="44.94693" lon="-0.48916">
        <ele>9.2</ele>
        <time>2021-06-03T08:04:32.000Z</time>
      </trkpt>
      <trkpt lat="44.94698" lon="-0.48914">
        <ele>9.3</ele>
        <time>2021-06-03T08:04:33.000Z</time>
      </trkpt>
      <trkpt lat="44.94703" lon="-0.48912">
        <ele>9.3</ele>
        <time>2021-06-03T08:04:34.000Z</time>
      </trkpt>
      <trkpt lat="44.94709" lon="-0.4891">
        <ele>9.4</ele>
        <time>2021-06-03T08:04:35.000Z</time>
      </trkpt>
      <trkpt lat="44.94714" lon="-0.48908">
        <ele>8.9</ele>
        <time>2021-06-03T08:04:36.000Z</time>
      </trkpt>
      <trkpt lat="44.94719" lon="-0.48907">
        <ele>8.6</ele>
        <time>2021-06-03T08:04:37.000Z</time>
      </trkpt>
      <trkpt lat="44.94725" lon="-0.48905">
        <ele>8.4</ele>
        <time>2021-06-03T08:04:38.000Z</time>
      </trkpt>
      <trkpt lat="44.9473" lon="-0.48903">
        <ele>8.2</ele>
        <time>2021-06-03T08:04:39.000Z</time>
      </trkpt>
      <trkpt lat="44.94735" lon="-0.48901">
        <ele>8.1</ele>
        <time>2021-06-03T08:04:40.000Z</time>
      </trkpt>
      <trkpt lat="44.9474" lon="-0.48899">
        <ele>8.2</ele>
        <time>2021-06-03T08:04:41.000Z</time>
      </trkpt>
      <trkpt lat="44.94745" lon="-0.48896">
        <ele>8.3</ele>
        <time>2021-06-03T08:04:42.000Z</time>
      </trkpt>
      <trkpt lat="44.9475" lon="-0.48893">
        <ele>8.3</ele>
        <time>2021-06-03T08:04:43.000Z</time>
      </trkpt>
      <trkpt lat="44.94755" lon="-0.48891">
        <ele>8.8</ele>
        <time>2021-06-03T08:04:44.000Z</time>
      </trkpt>
      <trkpt lat="44.94759" lon="-0.48888">
        <ele>9.2</ele>
        <time>2021-06-03T08:04:45.000Z</time>
      </trkpt>
      <trkpt lat="44.94764" lon="-0.48886">
        <ele>9.4</ele>
        <time>2021-06-03T08:04:46.000Z</time>
      </trkpt>
      <trkpt lat="44.94769" lon="-0.48883">
        <ele>9.5</ele>
        <time>2021-06-03T08:04:47.000Z</time>
      </trkpt>
      <trkpt lat="44.94774" lon="-0.4888">
        <ele>9.2</ele>
        <time>2021-06-03T08:04:48.000Z</time>
      </trkpt>
      <trkpt lat="44.94779" lon="-0.48877">
        <ele>8.9</ele>
        <time>2021-06-03T08:04:49.000Z</time>
      </trkpt>
      <trkpt lat="44.94784" lon="-0.48875">
        <ele>8.8</ele>
        <time>2021-06-03T08:04:50.000Z</time>
      </trkpt>
      <trkpt lat="44.94788" lon="-0.48872">
        <ele>9</ele>
        <time>2021-06-03T08:04:51.000Z</time>
      </trkpt>
      <trkpt lat="44.94793" lon="-0.48869">
        <ele>9.2</ele>
        <time>2021-06-03T08:04:52.000Z</time>
      </trkpt>
      <trkpt lat="44.94798" lon="-0.48866">
        <ele>9</ele>
        <time>2021-06-03T08:04:53.000Z</time>
      </trkpt>
      <trkpt lat="44.94802" lon="-0.48863">
        <ele>8.9</ele>
        <time>2021-06-03T08:04:54.000Z</time>
      </trkpt>
      <trkpt lat="44.94807" lon="-0.48861">
        <ele>8.8</ele>
        <time>2021-06-03T08:04:55.000Z</time>
      </trkpt>
      <trkpt lat="44.94812" lon="-0.48858">
        <ele>8.8</ele>
        <time>2021-06-03T08:04:56.000Z</time>
      </trkpt>
      <trkpt lat="44.94817" lon="-0.48855">
        <ele>8.8</ele>
        <time>2021-06-03T08:04:57.000Z</time>
      </trkpt>
      <trkpt lat="44.94822" lon="-0.48852">
        <ele>8.9</ele>
        <time>2021-06-03T08:04:58.000Z</time>
      </trkpt>
      <trkpt lat="44.94827" lon="-0.48849">
        <ele>8.9</ele>
        <time>2021-06-03T08:04:59.000Z</time>
      </trkpt>
      <trkpt lat="44.94832" lon="-0.48846">
        <ele>8.9</ele>
        <time>2021-06-03T08:05:00.000Z</time>
      </trkpt>
      <trkpt lat="44.94837" lon="-0.48843">
        <ele>8.8</ele>
        <time>2021-06-03T08:05:01.000Z</time>
      </trkpt>
      <trkpt lat="44.94843" lon="-0.4884">
        <ele>8.7</ele>
        <time>2021-06-03T08:05:02.000Z</time>
      </trkpt>
      <trkpt lat="44.94848" lon="-0.48837">
        <ele>9.1</ele>
        <time>2021-06-03T08:05:03.000Z</time>
      </trkpt>
      <trkpt lat="44.94853" lon="-0.48834">
        <ele>9.4</ele>
        <time>2021-06-03T08:05:04.000Z</time>
      </trkpt>
      <trkpt lat="44.94858" lon="-0.48831">
        <ele>9.1</ele>
        <time>2021-06-03T08:05:05.000Z</time>
      </trkpt>
      <trkpt lat="44.94863" lon="-0.48828">
        <ele>8.9</ele>
        <time>2021-06-03T08:05:06.000Z</time>
      </trkpt>
      <trkpt lat="44.94869" lon="-0.48826">
        <ele>8.6</ele>
        <time>2021-06-03T08:05:07.000Z</time>
      </trkpt>
      <trkpt lat="44.94874" lon="-0.48823">
        <ele>8.3</ele>
        <time>2021-06-03T08:05:08.000Z</time>
      </trkpt>
      <trkpt lat="44.94879" lon="-0.4882">
        <ele>8.1</ele>
        <time>2021-06-03T08:05:09.000Z</time>
      </trkpt>
      <trkpt lat="44.94884" lon="-0.48817">
        <ele>8</ele>
        <time>2021-06-03T08:05:10.000Z</time>
      </trkpt>
      <trkpt lat="44.94889" lon="-0.48814">
        <ele>7.8</ele>
        <time>2021-06-03T08:05:11.000Z</time>
      </trkpt>
      <trkpt lat="44.94894" lon="-0.48811">
        <ele>7.9</ele>
        <time>2021-06-03T08:05:12.000Z</time>
      </trkpt>
      <trkpt lat="44.949" lon="-0.48808">
        <ele>8</ele>
        <time>2021-06-03T08:05:13.000Z</time>
      </trkpt>
      <trkpt lat="44.94905" lon="-0.48806">
        <ele>8.1</ele>
        <time>2021-06-03T08:05:14.000Z</time>
      </trkpt>
      <trkpt lat="44.9491" lon="-0.48804">
        <ele>8.2</ele>
        <time>2021-06-03T08:05:15.000Z</time>
      </trkpt>
      <trkpt lat="44.94915" lon="-0.48801">
        <ele>8.3</ele>
        <time>2021-06-03T08:05:16.000Z</time>
      </trkpt>
      <trkpt lat="44.94921" lon="-0.48799">
        <ele>8.1</ele>
        <time>2021-06-03T08:05:17.000Z</time>
      </trkpt>
      <trkpt lat="44.94926" lon="-0.48797">
        <ele>8</ele>
        <time>2021-06-03T08:05:18.000Z</time>
      </trkpt>
      <trkpt lat="44.94931" lon="-0.48794">
        <ele>7.7</ele>
        <time>2021-06-03T08:05:19.000Z</time>
      </trkpt>
      <trkpt lat="44.94936" lon="-0.48791">
        <ele>7.5</ele>
        <time>2021-06-03T08:05:20.000Z</time>
      </trkpt>
      <trkpt lat="44.94942" lon="-0.48789">
        <ele>7.4</ele>
        <time>2021-06-03T08:05:21.000Z</time>
      </trkpt>
      <trkpt lat="44.94947" lon="-0.48787">
        <ele>7.2</ele>
        <time>2021-06-03T08:05:22.000Z</time>
      </trkpt>
      <trkpt lat="44.94952" lon="-0.48785">
        <ele>7</ele>
        <time>2021-06-03T08:05:23.000Z</time>
      </trkpt>
      <trkpt lat="44.94958" lon="-0.48782">
        <ele>7.2</ele>
        <time>2021-06-03T08:05:24.000Z</time>
      </trkpt>
      <trkpt lat="44.94963" lon="-0.4878">
        <ele>7.4</ele>
        <time>2021-06-03T08:05:25.000Z</time>
      </trkpt>
      <trkpt lat="44.94968" lon="-0.48778">
        <ele>7.3</ele>
        <time>2021-06-03T08:05:26.000Z</time>
      </trkpt>
      <trkpt lat="44.94974" lon="-0.48775">
        <ele>7.2</ele>
        <time>2021-06-03T08:05:27.000Z</time>
      </trkpt>
      <trkpt lat="44.9498" lon="-0.48773">
        <ele>7.2</ele>
        <time>2021-06-03T08:05:28.000Z</time>
      </trkpt>
      <trkpt lat="44.94985" lon="-0.48771">
        <ele>7.3</ele>
        <time>2021-06-03T08:05:29.000Z</time>
      </trkpt>
      <trkpt lat="44.94991" lon="-0.48769">
        <ele>7.4</ele>
        <time>2021-06-03T08:05:30.000Z</time>
      </trkpt>
      <trkpt lat="44.94996" lon="-0.48766">
        <ele>7.1</ele>
        <time>2021-06-03T08:05:31.000Z</time>
      </trkpt>
      <trkpt lat="44.95002" lon="-0.48764">
        <ele>6.9</ele>
        <time>2021-06-03T08:05:32.000Z</time>
      </trkpt>
      <trkpt lat="44.95007" lon="-0.48762">
        <ele>6.5</ele>
        <time>2021-06-03T08:05:33.000Z</time>
      </trkpt>
      <trkpt lat="44.95013" lon="-0.4876">
        <ele>6.3</ele>
        <time>2021-06-03T08:05:34.000Z</time>
      </trkpt>
      <trkpt lat="44.95018" lon="-0.48758">
        <ele>6.1</ele>
        <time>2021-06-03T08:05:35.000Z</time>
      </trkpt>
      <trkpt lat="44.95024" lon="-0.48755">
        <ele>6.2</ele>
        <time>2021-06-03T08:05:36.000Z</time>
      </trkpt>
      <trkpt lat="44.95029" lon="-0.48753">
        <ele>6.3</ele>
        <time>2021-06-03T08:05:37.000Z</time>
      </trkpt>
      <trkpt lat="44.95035" lon="-0.48751">
        <ele>6.3</ele>
        <time>2021-06-03T08:05:38.000Z</time>
      </trkpt>
      <trkpt lat="44.9504" lon="-0.48748">
        <ele>6.3</ele>
        <time>2021-06-03T08:05:39.000Z</time>
      </trkpt>
      <trkpt lat="44.95046" lon="-0.48746">
        <ele>6.3</ele>
        <time>2021-06-03T08:05:40.000Z</time>
      </trkpt>
      <trkpt lat="44.95051" lon="-0.48744">
        <ele>6.2</ele>
        <time>2021-06-03T08:05:41.000Z</time>
      </trkpt>
      <trkpt lat="44.95056" lon="-0.48742">
        <ele>6.1</ele>
        <time>2021-06-03T08:05:42.000Z</time>
      </trkpt>
      <trkpt lat="44.95062" lon="-0.4874">
        <ele>6.2</ele>
        <time>2021-06-03T08:05:43.000Z</time>
      </trkpt>
      <trkpt lat="44.95067" lon="-0.48738">
        <ele>6.2</ele>
        <time>2021-06-03T08:05:44.000Z</time>
      </trkpt>
      <trkpt lat="44.95073" lon="-0.48735">
        <ele>6.5</ele>
        <time>2021-06-03T08:05:45.000Z</time>
      </trkpt>
      <trkpt lat="44.95078" lon="-0.48733">
        <ele>6.7</ele>
        <time>2021-06-03T08:05:46.000Z</time>
      </trkpt>
      <trkpt lat="44.95083" lon="-0.48731">
        <ele>6.8</ele>
        <time>2021-06-03T08:05:47.000Z</time>
      </trkpt>
      <trkpt lat="44.95088" lon="-0.48729">
        <ele>6.8</ele>
        <time>2021-06-03T08:05:48.000Z</time>
      </trkpt>
      <trkpt lat="44.95094" lon="-0.48727">
        <ele>6.7</ele>
        <time>2021-06-03T08:05:49.000Z</time>
      </trkpt>
      <trkpt lat="44.95099" lon="-0.48725">
        <ele>6.4</ele>
        <time>2021-06-03T08:05:50.000Z</time>
      </trkpt>
      <trkpt lat="44.95105" lon="-0.48723">
        <ele>6.1</ele>
        <time>2021-06-03T08:05:51.000Z</time>
      </trkpt>
      <trkpt lat="44.9511" lon="-0.48721">
        <ele>6.1</ele>
        <time>2021-06-03T08:05:52.000Z</time>
      </trkpt>
      <trkpt lat="44.95115" lon="-0.48718">
        <ele>6.1</ele>
        <time>2021-06-03T08:05:53.000Z</time>
      </trkpt>
      <trkpt lat="44.9512" lon="-0.48716">
        <ele>6.1</ele>
        <time>2021-06-03T08:05:54.000Z</time>
      </trkpt>
      <trkpt lat="44.95125" lon="-0.48713">
        <ele>5.8</ele>
        <time>2021-06-03T08:05:55.000Z</time>
      </trkpt>
      <trkpt lat="44.9513" lon="-0.48711">
        <ele>5.6</ele>
        <time>2021-06-03T08:05:56.000Z</time>
      </trkpt>
      <trkpt lat="44.95135" lon="-0.48709">
        <ele>5.4</ele>
        <time>2021-06-03T08:05:57.000Z</time>
      </trkpt>
      <trkpt lat="44.9514" lon="-0.48708">
        <ele>5.3</ele>
        <time>2021-06-03T08:05:58.000Z</time>
      </trkpt>
      <trkpt lat="44.95145" lon="-0.48705">
        <ele>5.2</ele>
        <time>2021-06-03T08:05:59.000Z</time>
      </trkpt>
      <trkpt lat="44.9515" lon="-0.48703">
        <ele>5.2</ele>
        <time>2021-06-03T08:06:00.000Z</time>
      </trkpt>
      <trkpt lat="44.95155" lon="-0.48701">
        <ele>5.3</ele>
        <time>2021-06-03T08:06:01.000Z</time>
      </trkpt>
      <trkpt lat="44.9516" lon="-0.48699">
        <ele>5.1</ele>
        <time>2021-06-03T08:06:02.000Z</time>
      </trkpt>
      <trkpt lat="44.95165" lon="-0.48697">
        <ele>4.9</ele>
        <time>2021-06-03T08:06:03.000Z</time>
      </trkpt>
      <trkpt lat="44.9517" lon="-0.48695">
        <ele>4.8</ele>
        <time>2021-06-03T08:06:04.000Z</time>
      </trkpt>
      <trkpt lat="44.95175" lon="-0.48692">
        <ele>4.8</ele>
        <time>2021-06-03T08:06:05.000Z</time>
      </trkpt>
      <trkpt lat="44.9518" lon="-0.4869">
        <ele>4.7</ele>
        <time>2021-06-03T08:06:06.000Z</time>
      </trkpt>
      <trkpt lat="44.95185" lon="-0.48688">
        <ele>4.7</ele>
        <time>2021-06-03T08:06:07.000Z</time>
      </trkpt>
      <trkpt lat="44.9519" lon="-0.48686">
        <ele>4.6</ele>
        <time>2021-06-03T08:06:08.000Z</time>
      </trkpt>
      <trkpt lat="44.95195" lon="-0.48684">
        <ele>4.5</ele>
        <time>2021-06-03T08:06:09.000Z</time>
      </trkpt>
      <trkpt lat="44.952" lon="-0.48682">
        <ele>4.5</ele>
        <time>2021-06-03T08:06:10.000Z</time>
      </trkpt>
      <trkpt lat="44.95205" lon="-0.48679">
        <ele>4.4</ele>
        <time>2021-06-03T08:06:11.000Z</time>
      </trkpt>
      <trkpt lat="44.9521" lon="-0.48677">
        <ele>4.3</ele>
        <time>2021-06-03T08:06:12.000Z</time>
      </trkpt>
      <trkpt lat="44.95215" lon="-0.48675">
        <ele>4.3</ele>
        <time>2021-06-03T08:06:13.000Z</time>
      </trkpt>
      <trkpt lat="44.9522" lon="-0.48673">
        <ele>4.2</ele>
        <time>2021-06-03T08:06:14.000Z</time>
      </trkpt>
      <trkpt lat="44.95225" lon="-0.48671">
        <ele>4.2</ele>
        <time>2021-06-03T08:06:15.000Z</time>
      </trkpt>
      <trkpt lat="44.9523" lon="-0.48669">
        <ele>4.1</ele>
        <time>2021-06-03T08:06:16.000Z</time>
      </trkpt>
      <trkpt lat="44.95235" lon="-0.48667">
        <ele>4.1</ele>
        <time>2021-06-03T08:06:17.000Z</time>
      </trkpt>
      <trkpt lat="44.9524" lon="-0.48665">
        <ele>4</ele>
        <time>2021-06-03T08:06:18.000Z</time>
      </trkpt>
      <trkpt lat="44.95245" lon="-0.48662">
        <ele>4.3</ele>
        <time>2021-06-03T08:06:19.000Z</time>
      </trkpt>
      <trkpt lat="44.9525" lon="-0.4866">
        <ele>4.5</ele>
        <time>2021-06-03T08:06:20.000Z</time>
      </trkpt>
      <trkpt lat="44.95255" lon="-0.48658">
        <ele>4.3</ele>
        <time>2021-06-03T08:06:21.000Z</time>
      </trkpt>
      <trkpt lat="44.9526" lon="-0.48656">
        <ele>4.1</ele>
        <time>2021-06-03T08:06:22.000Z</time>
      </trkpt>
      <trkpt lat="44.95265" lon="-0.48654">
        <ele>3.9</ele>
        <time>2021-06-03T08:06:23.000Z</time>
      </trkpt>
      <trkpt lat="44.9527" lon="-0.48652">
        <ele>3.8</ele>
        <time>2021-06-03T08:06:24.000Z</time>
      </trkpt>
      <trkpt lat="44.95276" lon="-0.4865">
        <ele>3.6</ele>
        <time>2021-06-03T08:06:25.000Z</time>
      </trkpt>
      <trkpt lat="44.95281" lon="-0.48648">
        <ele>3.4</ele>
        <time>2021-06-03T08:06:26.000Z</time>
      </trkpt>
      <trkpt lat="44.95286" lon="-0.48645">
        <ele>3.3</ele>
        <time>2021-06-03T08:06:27.000Z</time>
      </trkpt>
      <trkpt lat="44.95291" lon="-0.48643">
        <ele>3.3</ele>
        <time>2021-06-03T08:06:28.000Z</time>
      </trkpt>
      <trkpt lat="44.95296" lon="-0.48641">
        <ele>3.4</ele>
        <time>2021-06-03T08:06:29.000Z</time>
      </trkpt>
      <trkpt lat="44.95301" lon="-0.48639">
        <ele>3.3</ele>
        <time>2021-06-03T08:06:30.000Z</time>
      </trkpt>
      <trkpt lat="44.95307" lon="-0.48637">
        <ele>3.3</ele>
        <time>2021-06-03T08:06:31.000Z</time>
      </trkpt>
      <trkpt lat="44.95312" lon="-0.48635">
        <ele>3.3</ele>
        <time>2021-06-03T08:06:32.000Z</time>
      </trkpt>
      <trkpt lat="44.95316" lon="-0.48633">
        <ele>3.5</ele>
        <time>2021-06-03T08:06:33.000Z</time>
      </trkpt>
      <trkpt lat="44.95321" lon="-0.48631">
        <ele>3.6</ele>
        <time>2021-06-03T08:06:34.000Z</time>
      </trkpt>
      <trkpt lat="44.95326" lon="-0.48628">
        <ele>3.5</ele>
        <time>2021-06-03T08:06:35.000Z</time>
      </trkpt>
      <trkpt lat="44.95331" lon="-0.48626">
        <ele>3.4</ele>
        <time>2021-06-03T08:06:36.000Z</time>
      </trkpt>
      <trkpt lat="44.95336" lon="-0.48624">
        <ele>3.3</ele>
        <time>2021-06-03T08:06:37.000Z</time>
      </trkpt>
      <trkpt lat="44.9534" lon="-0.48622">
        <ele>3.4</ele>
        <time>2021-06-03T08:06:38.000Z</time>
      </trkpt>
      <trkpt lat="44.95345" lon="-0.4862">
        <ele>3.5</ele>
        <time>2021-06-03T08:06:39.000Z</time>
      </trkpt>
      <trkpt lat="44.9535" lon="-0.48619">
        <ele>3.1</ele>
        <time>2021-06-03T08:06:40.000Z</time>
      </trkpt>
      <trkpt lat="44.95355" lon="-0.48616">
        <ele>2.8</ele>
        <time>2021-06-03T08:06:41.000Z</time>
      </trkpt>
      <trkpt lat="44.95359" lon="-0.48614">
        <ele>3</ele>
        <time>2021-06-03T08:06:42.000Z</time>
      </trkpt>
      <trkpt lat="44.95364" lon="-0.48612">
        <ele>3.2</ele>
        <time>2021-06-03T08:06:43.000Z</time>
      </trkpt>
      <trkpt lat="44.95369" lon="-0.4861">
        <ele>3.3</ele>
        <time>2021-06-03T08:06:44.000Z</time>
      </trkpt>
      <trkpt lat="44.95373" lon="-0.48608">
        <ele>3</ele>
        <time>2021-06-03T08:06:45.000Z</time>
      </trkpt>
      <trkpt lat="44.95378" lon="-0.48606">
        <ele>2.7</ele>
        <time>2021-06-03T08:06:46.000Z</time>
      </trkpt>
      <trkpt lat="44.95382" lon="-0.48604">
        <ele>2.8</ele>
        <time>2021-06-03T08:06:47.000Z</time>
      </trkpt>
      <trkpt lat="44.95387" lon="-0.48602">
        <ele>2.9</ele>
        <time>2021-06-03T08:06:48.000Z</time>
      </trkpt>
      <trkpt lat="44.95392" lon="-0.486">
        <ele>2.7</ele>
        <time>2021-06-03T08:06:49.000Z</time>
      </trkpt>
      <trkpt lat="44.95397" lon="-0.48598">
        <ele>2.5</ele>
        <time>2021-06-03T08:06:50.000Z</time>
      </trkpt>
      <trkpt lat="44.95402" lon="-0.48596">
        <ele>2.4</ele>
        <time>2021-06-03T08:06:51.000Z</time>
      </trkpt>
      <trkpt lat="44.95406" lon="-0.48594">
        <ele>1.8</ele>
        <time>2021-06-03T08:06:52.000Z</time>
      </trkpt>
      <trkpt lat="44.95411" lon="-0.48592">
        <ele>1.4</ele>
        <time>2021-06-03T08:06:53.000Z</time>
      </trkpt>
      <trkpt lat="44.95416" lon="-0.4859">
        <ele>1.8</ele>
        <time>2021-06-03T08:06:54.000Z</time>
      </trkpt>
      <trkpt lat="44.95421" lon="-0.48588">
        <ele>2.1</ele>
        <time>2021-06-03T08:06:55.000Z</time>
      </trkpt>
      <trkpt lat="44.95426" lon="-0.48586">
        <ele>2.3</ele>
        <time>2021-06-03T08:06:56.000Z</time>
      </trkpt>
      <trkpt lat="44.9543" lon="-0.48583">
        <ele>2.6</ele>
        <time>2021-06-03T08:06:57.000Z</time>
      </trkpt>
      <trkpt lat="44.95435" lon="-0.48581">
        <ele>2.8</ele>
        <time>2021-06-03T08:06:58.000Z</time>
      </trkpt>
      <trkpt lat="44.9544" lon="-0.48579">
        <ele>2.7</ele>
        <time>2021-06-03T08:06:59.000Z</time>
      </trkpt>
      <trkpt lat="44.95445" lon="-0.48578">
        <ele>2.7</ele>
        <time>2021-06-03T08:07:00.000Z</time>
      </trkpt>
      <trkpt lat="44.9545" lon="-0.48576">
        <ele>2.5</ele>
        <time>2021-06-03T08:07:01.000Z</time>
      </trkpt>
      <trkpt lat="44.95455" lon="-0.48574">
        <ele>2.3</ele>
        <time>2021-06-03T08:07:02.000Z</time>
      </trkpt>
      <trkpt lat="44.9546" lon="-0.48573">
        <ele>2.2</ele>
        <time>2021-06-03T08:07:03.000Z</time>
      </trkpt>
      <trkpt lat="44.95465" lon="-0.48571">
        <ele>2.2</ele>
        <time>2021-06-03T08:07:04.000Z</time>
      </trkpt>
      <trkpt lat="44.9547" lon="-0.48569">
        <ele>2.1</ele>
        <time>2021-06-03T08:07:05.000Z</time>
      </trkpt>
      <trkpt lat="44.95475" lon="-0.48567">
        <ele>2.1</ele>
        <time>2021-06-03T08:07:06.000Z</time>
      </trkpt>
      <trkpt lat="44.9548" lon="-0.48565">
        <ele>2.1</ele>
        <time>2021-06-03T08:07:07.000Z</time>
      </trkpt>
      <trkpt lat="44.95484" lon="-0.48563">
        <ele>2.1</ele>
        <time>2021-06-03T08:07:08.000Z</time>
      </trkpt>
      <trkpt lat="44.95489" lon="-0.48561">
        <ele>2.1</ele>
        <time>2021-06-03T08:07:09.000Z</time>
      </trkpt>
      <trkpt lat="44.95494" lon="-0.48559">
        <ele>2.1</ele>
        <time>2021-06-03T08:07:10.000Z</time>
      </trkpt>
      <trkpt lat="44.95499" lon="-0.48557">
        <ele>1.9</ele>
        <time>2021-06-03T08:07:11.000Z</time>
      </trkpt>
      <trkpt lat="44.95504" lon="-0.48555">
        <ele>1.7</ele>
        <time>2021-06-03T08:07:12.000Z</time>
      </trkpt>
      <trkpt lat="44.95509" lon="-0.48553">
        <ele>1.9</ele>
        <time>2021-06-03T08:07:13.000Z</time>
      </trkpt>
      <trkpt lat="44.95514" lon="-0.48551">
        <ele>2</ele>
        <time>2021-06-03T08:07:14.000Z</time>
      </trkpt>
      <trkpt lat="44.95519" lon="-0.4855">
        <ele>2.1</ele>
        <time>2021-06-03T08:07:15.000Z</time>
      </trkpt>
      <trkpt lat="44.95525" lon="-0.48547">
        <ele>2.3</ele>
        <time>2021-06-03T08:07:16.000Z</time>
      </trkpt>
      <trkpt lat="44.9553" lon="-0.48546">
        <ele>2.5</ele>
        <time>2021-06-03T08:07:17.000Z</time>
      </trkpt>
      <trkpt lat="44.95535" lon="-0.48544">
        <ele>2.6</ele>
        <time>2021-06-03T08:07:18.000Z</time>
      </trkpt>
      <trkpt lat="44.9554" lon="-0.48541">
        <ele>2.7</ele>
        <time>2021-06-03T08:07:19.000Z</time>
      </trkpt>
      <trkpt lat="44.95545" lon="-0.48539">
        <ele>2.5</ele>
        <time>2021-06-03T08:07:20.000Z</time>
      </trkpt>
      <trkpt lat="44.9555" lon="-0.48538">
        <ele>2.3</ele>
        <time>2021-06-03T08:07:21.000Z</time>
      </trkpt>
      <trkpt lat="44.95555" lon="-0.48535">
        <ele>2.2</ele>
        <time>2021-06-03T08:07:22.000Z</time>
      </trkpt>
      <trkpt lat="44.9556" lon="-0.48534">
        <ele>2.3</ele>
        <time>2021-06-03T08:07:23.000Z</time>
      </trkpt>
      <trkpt lat="44.95565" lon="-0.48532">
        <ele>2.4</ele>
        <time>2021-06-03T08:07:24.000Z</time>
      </trkpt>
      <trkpt lat="44.9557" lon="-0.4853">
        <ele>2.4</ele>
        <time>2021-06-03T08:07:25.000Z</time>
      </trkpt>
      <trkpt lat="44.95575" lon="-0.48528">
        <ele>2.4</ele>
        <time>2021-06-03T08:07:26.000Z</time>
      </trkpt>
      <trkpt lat="44.9558" lon="-0.48526">
        <ele>2.4</ele>
        <time>2021-06-03T08:07:27.000Z</time>
      </trkpt>
      <trkpt lat="44.95585" lon="-0.48524">
        <ele>2.4</ele>
        <time>2021-06-03T08:07:28.000Z</time>
      </trkpt>
      <trkpt lat="44.9559" lon="-0.48522">
        <ele>2.4</ele>
        <time>2021-06-03T08:07:29.000Z</time>
      </trkpt>
      <trkpt lat="44.95595" lon="-0.4852">
        <ele>2.4</ele>
        <time>2021-06-03T08:07:30.000Z</time>
      </trkpt>
      <trkpt lat="44.95604" lon="-0.48516">
        <ele>2.1</ele>
        <time>2021-06-03T08:07:32.000Z</time>
      </trkpt>
      <trkpt lat="44.95612" lon="-0.48512">
        <ele>2.1</ele>
        <time>2021-06-03T08:07:34.000Z</time>
      </trkpt>
      <trkpt lat="44.95617" lon="-0.48511">
        <ele>2.2</ele>
        <time>2021-06-03T08:07:35.000Z</time>
      </trkpt>
      <trkpt lat="44.95622" lon="-0.48509">
        <ele>2.3</ele>
        <time>2021-06-03T08:07:36.000Z</time>
      </trkpt>
      <trkpt lat="44.95627" lon="-0.48507">
        <ele>2.2</ele>
        <time>2021-06-03T08:07:37.000Z</time>
      </trkpt>
      <trkpt lat="44.95632" lon="-0.48506">
        <ele>2.2</ele>
        <time>2021-06-03T08:07:38.000Z</time>
      </trkpt>
      <trkpt lat="44.95637" lon="-0.48504">
        <ele>2.5</ele>
        <time>2021-06-03T08:07:39.000Z</time>
      </trkpt>
      <trkpt lat="44.95643" lon="-0.48502">
        <ele>2.7</ele>
        <time>2021-06-03T08:07:40.000Z</time>
      </trkpt>
      <trkpt lat="44.95648" lon="-0.485">
        <ele>2.9</ele>
        <time>2021-06-03T08:07:41.000Z</time>
      </trkpt>
      <trkpt lat="44.95653" lon="-0.48498">
        <ele>2.6</ele>
        <time>2021-06-03T08:07:42.000Z</time>
      </trkpt>
      <trkpt lat="44.95658" lon="-0.48496">
        <ele>2.5</ele>
        <time>2021-06-03T08:07:43.000Z</time>
      </trkpt>
      <trkpt lat="44.95663" lon="-0.48494">
        <ele>2.4</ele>
        <time>2021-06-03T08:07:44.000Z</time>
      </trkpt>
      <trkpt lat="44.95669" lon="-0.48493">
        <ele>2.4</ele>
        <time>2021-06-03T08:07:45.000Z</time>
      </trkpt>
      <trkpt lat="44.95674" lon="-0.48491">
        <ele>2.2</ele>
        <time>2021-06-03T08:07:46.000Z</time>
      </trkpt>
      <trkpt lat="44.9568" lon="-0.4849">
        <ele>2</ele>
        <time>2021-06-03T08:07:47.000Z</time>
      </trkpt>
      <trkpt lat="44.95685" lon="-0.48488">
        <ele>1.9</ele>
        <time>2021-06-03T08:07:48.000Z</time>
      </trkpt>
      <trkpt lat="44.9569" lon="-0.48486">
        <ele>1.5</ele>
        <time>2021-06-03T08:07:49.000Z</time>
      </trkpt>
      <trkpt lat="44.95695" lon="-0.48484">
        <ele>1.3</ele>
        <time>2021-06-03T08:07:50.000Z</time>
      </trkpt>
      <trkpt lat="44.957" lon="-0.48483">
        <ele>1.6</ele>
        <time>2021-06-03T08:07:51.000Z</time>
      </trkpt>
      <trkpt lat="44.95705" lon="-0.48481">
        <ele>1.8</ele>
        <time>2021-06-03T08:07:52.000Z</time>
      </trkpt>
      <trkpt lat="44.9571" lon="-0.48479">
        <ele>2</ele>
        <time>2021-06-03T08:07:53.000Z</time>
      </trkpt>
      <trkpt lat="44.95715" lon="-0.48477">
        <ele>2.1</ele>
        <time>2021-06-03T08:07:54.000Z</time>
      </trkpt>
      <trkpt lat="44.9572" lon="-0.48476">
        <ele>2.3</ele>
        <time>2021-06-03T08:07:55.000Z</time>
      </trkpt>
      <trkpt lat="44.95725" lon="-0.48474">
        <ele>2.4</ele>
        <time>2021-06-03T08:07:56.000Z</time>
      </trkpt>
      <trkpt lat="44.9573" lon="-0.48472">
        <ele>2.5</ele>
        <time>2021-06-03T08:07:57.000Z</time>
      </trkpt>
      <trkpt lat="44.95734" lon="-0.48471">
        <ele>2.2</ele>
        <time>2021-06-03T08:07:58.000Z</time>
      </trkpt>
      <trkpt lat="44.9574" lon="-0.48469">
        <ele>2</ele>
        <time>2021-06-03T08:07:59.000Z</time>
      </trkpt>
      <trkpt lat="44.95745" lon="-0.48467">
        <ele>1.8</ele>
        <time>2021-06-03T08:08:00.000Z</time>
      </trkpt>
      <trkpt lat="44.9575" lon="-0.48465">
        <ele>1.8</ele>
        <time>2021-06-03T08:08:01.000Z</time>
      </trkpt>
      <trkpt lat="44.95755" lon="-0.48463">
        <ele>1.8</ele>
        <time>2021-06-03T08:08:02.000Z</time>
      </trkpt>
      <trkpt lat="44.9576" lon="-0.48461">
        <ele>1.6</ele>
        <time>2021-06-03T08:08:03.000Z</time>
      </trkpt>
      <trkpt lat="44.95764" lon="-0.4846">
        <ele>1.4</ele>
        <time>2021-06-03T08:08:04.000Z</time>
      </trkpt>
      <trkpt lat="44.95769" lon="-0.48457">
        <ele>1.1</ele>
        <time>2021-06-03T08:08:05.000Z</time>
      </trkpt>
      <trkpt lat="44.95774" lon="-0.48456">
        <ele>0.9</ele>
        <time>2021-06-03T08:08:06.000Z</time>
      </trkpt>
      <trkpt lat="44.95779" lon="-0.48453">
        <ele>0.7</ele>
        <time>2021-06-03T08:08:07.000Z</time>
      </trkpt>
      <trkpt lat="44.95784" lon="-0.48452">
        <ele>0.9</ele>
        <time>2021-06-03T08:08:08.000Z</time>
      </trkpt>
      <trkpt lat="44.95789" lon="-0.4845">
        <ele>1</ele>
        <time>2021-06-03T08:08:09.000Z</time>
      </trkpt>
      <trkpt lat="44.95794" lon="-0.48448">
        <ele>1.4</ele>
        <time>2021-06-03T08:08:10.000Z</time>
      </trkpt>
      <trkpt lat="44.95799" lon="-0.48447">
        <ele>1.8</ele>
        <time>2021-06-03T08:08:11.000Z</time>
      </trkpt>
      <trkpt lat="44.95804" lon="-0.48445">
        <ele>1.2</ele>
        <time>2021-06-03T08:08:12.000Z</time>
      </trkpt>
      <trkpt lat="44.95809" lon="-0.48443">
        <ele>0.8</ele>
        <time>2021-06-03T08:08:13.000Z</time>
      </trkpt>
      <trkpt lat="44.95814" lon="-0.48442">
        <ele>0.5</ele>
        <time>2021-06-03T08:08:14.000Z</time>
      </trkpt>
      <trkpt lat="44.95818" lon="-0.4844">
        <ele>1.3</ele>
        <time>2021-06-03T08:08:15.000Z</time>
      </trkpt>
      <trkpt lat="44.95823" lon="-0.48438">
        <ele>1.8</ele>
        <time>2021-06-03T08:08:16.000Z</time>
      </trkpt>
      <trkpt lat="44.95828" lon="-0.48437">
        <ele>2.1</ele>
        <time>2021-06-03T08:08:17.000Z</time>
      </trkpt>
      <trkpt lat="44.95836" lon="-0.48433">
        <ele>2.6</ele>
        <time>2021-06-03T08:08:19.000Z</time>
      </trkpt>
      <trkpt lat="44.95845" lon="-0.4843">
        <ele>2.2</ele>
        <time>2021-06-03T08:08:21.000Z</time>
      </trkpt>
      <trkpt lat="44.95853" lon="-0.48427">
        <ele>1.5</ele>
        <time>2021-06-03T08:08:23.000Z</time>
      </trkpt>
      <trkpt lat="44.9586" lon="-0.48425">
        <ele>1.9</ele>
        <time>2021-06-03T08:08:25.000Z</time>
      </trkpt>
      <trkpt lat="44.95868" lon="-0.48421">
        <ele>1.5</ele>
        <time>2021-06-03T08:08:27.000Z</time>
      </trkpt>
      <trkpt lat="44.95875" lon="-0.48415">
        <ele>1.1</ele>
        <time>2021-06-03T08:08:29.000Z</time>
      </trkpt>
      <trkpt lat="44.95878" lon="-0.48403">
        <ele>1.7</ele>
        <time>2021-06-03T08:08:31.000Z</time>
      </trkpt>
      <trkpt lat="44.95877" lon="-0.48396">
        <ele>2.1</ele>
        <time>2021-06-03T08:08:32.000Z</time>
      </trkpt>
      <trkpt lat="44.95876" lon="-0.48389">
        <ele>2.4</ele>
        <time>2021-06-03T08:08:33.000Z</time>
      </trkpt>
      <trkpt lat="44.95874" lon="-0.48383">
        <ele>2.2</ele>
        <time>2021-06-03T08:08:34.000Z</time>
      </trkpt>
      <trkpt lat="44.95872" lon="-0.48377">
        <ele>2</ele>
        <time>2021-06-03T08:08:35.000Z</time>
      </trkpt>
      <trkpt lat="44.9587" lon="-0.4837">
        <ele>1.9</ele>
        <time>2021-06-03T08:08:36.000Z</time>
      </trkpt>
      <trkpt lat="44.95867" lon="-0.48364">
        <ele>1.9</ele>
        <time>2021-06-03T08:08:37.000Z</time>
      </trkpt>
      <trkpt lat="44.95865" lon="-0.48358">
        <ele>1.9</ele>
        <time>2021-06-03T08:08:38.000Z</time>
      </trkpt>
      <trkpt lat="44.95863" lon="-0.48352">
        <ele>1.7</ele>
        <time>2021-06-03T08:08:39.000Z</time>
      </trkpt>
      <trkpt lat="44.95861" lon="-0.48347">
        <ele>1.6</ele>
        <time>2021-06-03T08:08:40.000Z</time>
      </trkpt>
      <trkpt lat="44.95857" lon="-0.48335">
        <ele>1.2</ele>
        <time>2021-06-03T08:08:42.000Z</time>
      </trkpt>
      <trkpt lat="44.95855" lon="-0.48329">
        <ele>1.1</ele>
        <time>2021-06-03T08:08:43.000Z</time>
      </trkpt>
      <trkpt lat="44.95851" lon="-0.48318">
        <ele>1</ele>
        <time>2021-06-03T08:08:45.000Z</time>
      </trkpt>
      <trkpt lat="44.95848" lon="-0.48308">
        <ele>1</ele>
        <time>2021-06-03T08:08:47.000Z</time>
      </trkpt>
      <trkpt lat="44.95846" lon="-0.48302">
        <ele>1.1</ele>
        <time>2021-06-03T08:08:48.000Z</time>
      </trkpt>
      <trkpt lat="44.95844" lon="-0.48296">
        <ele>1.2</ele>
        <time>2021-06-03T08:08:49.000Z</time>
      </trkpt>
      <trkpt lat="44.95841" lon="-0.4829">
        <ele>1.6</ele>
        <time>2021-06-03T08:08:50.000Z</time>
      </trkpt>
      <trkpt lat="44.95839" lon="-0.48284">
        <ele>1.9</ele>
        <time>2021-06-03T08:08:51.000Z</time>
      </trkpt>
      <trkpt lat="44.95837" lon="-0.48279">
        <ele>2.1</ele>
        <time>2021-06-03T08:08:52.000Z</time>
      </trkpt>
      <trkpt lat="44.95834" lon="-0.48273">
        <ele>1.9</ele>
        <time>2021-06-03T08:08:53.000Z</time>
      </trkpt>
      <trkpt lat="44.95832" lon="-0.48266">
        <ele>1.8</ele>
        <time>2021-06-03T08:08:54.000Z</time>
      </trkpt>
      <trkpt lat="44.9583" lon="-0.4826">
        <ele>1.8</ele>
        <time>2021-06-03T08:08:55.000Z</time>
      </trkpt>
      <trkpt lat="44.95827" lon="-0.48254">
        <ele>1.8</ele>
        <time>2021-06-03T08:08:56.000Z</time>
      </trkpt>
      <trkpt lat="44.95825" lon="-0.48248">
        <ele>1.8</ele>
        <time>2021-06-03T08:08:57.000Z</time>
      </trkpt>
      <trkpt lat="44.95823" lon="-0.48242">
        <ele>2.1</ele>
        <time>2021-06-03T08:08:58.000Z</time>
      </trkpt>
      <trkpt lat="44.9582" lon="-0.48237">
        <ele>2.4</ele>
        <time>2021-06-03T08:08:59.000Z</time>
      </trkpt>
      <trkpt lat="44.95818" lon="-0.48231">
        <ele>1.8</ele>
        <time>2021-06-03T08:09:00.000Z</time>
      </trkpt>
      <trkpt lat="44.95816" lon="-0.48225">
        <ele>1.3</ele>
        <time>2021-06-03T08:09:01.000Z</time>
      </trkpt>
      <trkpt lat="44.95813" lon="-0.48219">
        <ele>1.1</ele>
        <time>2021-06-03T08:09:02.000Z</time>
      </trkpt>
      <trkpt lat="44.95811" lon="-0.48213">
        <ele>0.9</ele>
        <time>2021-06-03T08:09:03.000Z</time>
      </trkpt>
      <trkpt lat="44.95808" lon="-0.48207">
        <ele>0.8</ele>
        <time>2021-06-03T08:09:04.000Z</time>
      </trkpt>
      <trkpt lat="44.95806" lon="-0.48201">
        <ele>0.8</ele>
        <time>2021-06-03T08:09:05.000Z</time>
      </trkpt>
      <trkpt lat="44.95804" lon="-0.48195">
        <ele>0.8</ele>
        <time>2021-06-03T08:09:06.000Z</time>
      </trkpt>
      <trkpt lat="44.95801" lon="-0.48189">
        <ele>1.1</ele>
        <time>2021-06-03T08:09:07.000Z</time>
      </trkpt>
      <trkpt lat="44.95799" lon="-0.48183">
        <ele>1.3</ele>
        <time>2021-06-03T08:09:08.000Z</time>
      </trkpt>
      <trkpt lat="44.95797" lon="-0.48177">
        <ele>1.2</ele>
        <time>2021-06-03T08:09:09.000Z</time>
      </trkpt>
      <trkpt lat="44.95794" lon="-0.48171">
        <ele>1.1</ele>
        <time>2021-06-03T08:09:10.000Z</time>
      </trkpt>
      <trkpt lat="44.95792" lon="-0.48165">
        <ele>1.1</ele>
        <time>2021-06-03T08:09:11.000Z</time>
      </trkpt>
      <trkpt lat="44.9579" lon="-0.48159">
        <ele>0.7</ele>
        <time>2021-06-03T08:09:12.000Z</time>
      </trkpt>
      <trkpt lat="44.95788" lon="-0.48153">
        <ele>0.4</ele>
        <time>2021-06-03T08:09:13.000Z</time>
      </trkpt>
      <trkpt lat="44.95786" lon="-0.48146">
        <ele>0.9</ele>
        <time>2021-06-03T08:09:14.000Z</time>
      </trkpt>
      <trkpt lat="44.95785" lon="-0.4814">
        <ele>1.3</ele>
        <time>2021-06-03T08:09:15.000Z</time>
      </trkpt>
      <trkpt lat="44.95784" lon="-0.48133">
        <ele>1.3</ele>
        <time>2021-06-03T08:09:16.000Z</time>
      </trkpt>
      <trkpt lat="44.95784" lon="-0.48126">
        <ele>1.3</ele>
        <time>2021-06-03T08:09:17.000Z</time>
      </trkpt>
      <trkpt lat="44.95784" lon="-0.4812">
        <ele>1.3</ele>
        <time>2021-06-03T08:09:18.000Z</time>
      </trkpt>
      <trkpt lat="44.95785" lon="-0.48113">
        <ele>1.5</ele>
        <time>2021-06-03T08:09:19.000Z</time>
      </trkpt>
      <trkpt lat="44.95786" lon="-0.48107">
        <ele>1.6</ele>
        <time>2021-06-03T08:09:20.000Z</time>
      </trkpt>
      <trkpt lat="44.95788" lon="-0.481">
        <ele>0.9</ele>
        <time>2021-06-03T08:09:21.000Z</time>
      </trkpt>
      <trkpt lat="44.9579" lon="-0.48095">
        <ele>0.4</ele>
        <time>2021-06-03T08:09:22.000Z</time>
      </trkpt>
      <trkpt lat="44.95793" lon="-0.48089">
        <ele>0.1</ele>
        <time>2021-06-03T08:09:23.000Z</time>
      </trkpt>
      <trkpt lat="44.95796" lon="-0.48084">
        <ele>0.2</ele>
        <time>2021-06-03T08:09:24.000Z</time>
      </trkpt>
      <trkpt lat="44.958" lon="-0.48079">
        <ele>0.4</ele>
        <time>2021-06-03T08:09:25.000Z</time>
      </trkpt>
      <trkpt lat="44.95804" lon="-0.48074">
        <ele>0.9</ele>
        <time>2021-06-03T08:09:26.000Z</time>
      </trkpt>
      <trkpt lat="44.95808" lon="-0.48071">
        <ele>1.4</ele>
        <time>2021-06-03T08:09:27.000Z</time>
      </trkpt>
      <trkpt lat="44.95812" lon="-0.48067">
        <ele>1.4</ele>
        <time>2021-06-03T08:09:28.000Z</time>
      </trkpt>
      <trkpt lat="44.95817" lon="-0.48063">
        <ele>1.4</ele>
        <time>2021-06-03T08:09:29.000Z</time>
      </trkpt>
      <trkpt lat="44.95821" lon="-0.48059">
        <ele>1.4</ele>
        <time>2021-06-03T08:09:30.000Z</time>
      </trkpt>
      <trkpt lat="44.95825" lon="-0.48055">
        <ele>1.7</ele>
        <time>2021-06-03T08:09:31.000Z</time>
      </trkpt>
      <trkpt lat="44.9583" lon="-0.48052">
        <ele>1.9</ele>
        <time>2021-06-03T08:09:32.000Z</time>
      </trkpt>
      <trkpt lat="44.95834" lon="-0.48048">
        <ele>1.9</ele>
        <time>2021-06-03T08:09:33.000Z</time>
      </trkpt>
      <trkpt lat="44.95838" lon="-0.48045">
        <ele>1.9</ele>
        <time>2021-06-03T08:09:34.000Z</time>
      </trkpt>
      <trkpt lat="44.95843" lon="-0.48042">
        <ele>1.9</ele>
        <time>2021-06-03T08:09:35.000Z</time>
      </trkpt>
      <trkpt lat="44.95847" lon="-0.48038">
        <ele>1.7</ele>
        <time>2021-06-03T08:09:36.000Z</time>
      </trkpt>
      <trkpt lat="44.95851" lon="-0.48035">
        <ele>1.5</ele>
        <time>2021-06-03T08:09:37.000Z</time>
      </trkpt>
      <trkpt lat="44.95854" lon="-0.48031">
        <ele>1.3</ele>
        <time>2021-06-03T08:09:38.000Z</time>
      </trkpt>
      <trkpt lat="44.95858" lon="-0.48028">
        <ele>1.1</ele>
        <time>2021-06-03T08:09:39.000Z</time>
      </trkpt>
      <trkpt lat="44.95862" lon="-0.48023">
        <ele>1.1</ele>
        <time>2021-06-03T08:09:40.000Z</time>
      </trkpt>
      <trkpt lat="44.95866" lon="-0.48018">
        <ele>1.2</ele>
        <time>2021-06-03T08:09:41.000Z</time>
      </trkpt>
      <trkpt lat="44.9587" lon="-0.48013">
        <ele>1.2</ele>
        <time>2021-06-03T08:09:42.000Z</time>
      </trkpt>
      <trkpt lat="44.95873" lon="-0.48008">
        <ele>1.4</ele>
        <time>2021-06-03T08:09:43.000Z</time>
      </trkpt>
      <trkpt lat="44.95876" lon="-0.48002">
        <ele>1.6</ele>
        <time>2021-06-03T08:09:44.000Z</time>
      </trkpt>
      <trkpt lat="44.95879" lon="-0.47996">
        <ele>1.8</ele>
        <time>2021-06-03T08:09:45.000Z</time>
      </trkpt>
      <trkpt lat="44.95881" lon="-0.4799">
        <ele>2.1</ele>
        <time>2021-06-03T08:09:46.000Z</time>
      </trkpt>
      <trkpt lat="44.95883" lon="-0.47984">
        <ele>2</ele>
        <time>2021-06-03T08:09:47.000Z</time>
      </trkpt>
      <trkpt lat="44.95884" lon="-0.47977">
        <ele>2</ele>
        <time>2021-06-03T08:09:48.000Z</time>
      </trkpt>
      <trkpt lat="44.95885" lon="-0.4797">
        <ele>2</ele>
        <time>2021-06-03T08:09:49.000Z</time>
      </trkpt>
      <trkpt lat="44.95885" lon="-0.47964">
        <ele>1.7</ele>
        <time>2021-06-03T08:09:50.000Z</time>
      </trkpt>
      <trkpt lat="44.95885" lon="-0.47957">
        <ele>1.6</ele>
        <time>2021-06-03T08:09:51.000Z</time>
      </trkpt>
      <trkpt lat="44.95885" lon="-0.4795">
        <ele>1.6</ele>
        <time>2021-06-03T08:09:52.000Z</time>
      </trkpt>
      <trkpt lat="44.95885" lon="-0.47943">
        <ele>1.6</ele>
        <time>2021-06-03T08:09:53.000Z</time>
      </trkpt>
      <trkpt lat="44.95884" lon="-0.47936">
        <ele>1.8</ele>
        <time>2021-06-03T08:09:54.000Z</time>
      </trkpt>
      <trkpt lat="44.95882" lon="-0.47925">
        <ele>2.1</ele>
        <time>2021-06-03T08:09:56.000Z</time>
      </trkpt>
      <trkpt lat="44.95879" lon="-0.47915">
        <ele>2.3</ele>
        <time>2021-06-03T08:09:58.000Z</time>
      </trkpt>
      <trkpt lat="44.95875" lon="-0.47905">
        <ele>2.4</ele>
        <time>2021-06-03T08:10:00.000Z</time>
      </trkpt>
      <trkpt lat="44.9587" lon="-0.47894">
        <ele>2.1</ele>
        <time>2021-06-03T08:10:02.000Z</time>
      </trkpt>
      <trkpt lat="44.95867" lon="-0.47889">
        <ele>1.8</ele>
        <time>2021-06-03T08:10:03.000Z</time>
      </trkpt>
      <trkpt lat="44.95863" lon="-0.47884">
        <ele>1.9</ele>
        <time>2021-06-03T08:10:04.000Z</time>
      </trkpt>
      <trkpt lat="44.95859" lon="-0.4788">
        <ele>1.9</ele>
        <time>2021-06-03T08:10:05.000Z</time>
      </trkpt>
      <trkpt lat="44.95855" lon="-0.47877">
        <ele>1.9</ele>
        <time>2021-06-03T08:10:06.000Z</time>
      </trkpt>
      <trkpt lat="44.95851" lon="-0.47874">
        <ele>1.9</ele>
        <time>2021-06-03T08:10:07.000Z</time>
      </trkpt>
      <trkpt lat="44.95846" lon="-0.47872">
        <ele>2</ele>
        <time>2021-06-03T08:10:08.000Z</time>
      </trkpt>
      <trkpt lat="44.95841" lon="-0.4787">
        <ele>1.8</ele>
        <time>2021-06-03T08:10:09.000Z</time>
      </trkpt>
      <trkpt lat="44.95837" lon="-0.47868">
        <ele>1.6</ele>
        <time>2021-06-03T08:10:10.000Z</time>
      </trkpt>
      <trkpt lat="44.95832" lon="-0.47867">
        <ele>1.6</ele>
        <time>2021-06-03T08:10:11.000Z</time>
      </trkpt>
      <trkpt lat="44.95828" lon="-0.47866">
        <ele>1.6</ele>
        <time>2021-06-03T08:10:12.000Z</time>
      </trkpt>
      <trkpt lat="44.95823" lon="-0.47866">
        <ele>1.2</ele>
        <time>2021-06-03T08:10:13.000Z</time>
      </trkpt>
      <trkpt lat="44.95814" lon="-0.47865">
        <ele>0.7</ele>
        <time>2021-06-03T08:10:15.000Z</time>
      </trkpt>
      <trkpt lat="44.95805" lon="-0.47866">
        <ele>0.8</ele>
        <time>2021-06-03T08:10:17.000Z</time>
      </trkpt>
      <trkpt lat="44.958" lon="-0.47865">
        <ele>0.9</ele>
        <time>2021-06-03T08:10:18.000Z</time>
      </trkpt>
      <trkpt lat="44.95796" lon="-0.47865">
        <ele>1</ele>
        <time>2021-06-03T08:10:19.000Z</time>
      </trkpt>
      <trkpt lat="44.95791" lon="-0.47865">
        <ele>1.1</ele>
        <time>2021-06-03T08:10:20.000Z</time>
      </trkpt>
      <trkpt lat="44.95787" lon="-0.47865">
        <ele>0.7</ele>
        <time>2021-06-03T08:10:21.000Z</time>
      </trkpt>
      <trkpt lat="44.95782" lon="-0.47864">
        <ele>0.4</ele>
        <time>2021-06-03T08:10:22.000Z</time>
      </trkpt>
      <trkpt lat="44.95777" lon="-0.47864">
        <ele>0.7</ele>
        <time>2021-06-03T08:10:23.000Z</time>
      </trkpt>
      <trkpt lat="44.95772" lon="-0.47863">
        <ele>0.9</ele>
        <time>2021-06-03T08:10:24.000Z</time>
      </trkpt>
      <trkpt lat="44.95767" lon="-0.47863">
        <ele>0.7</ele>
        <time>2021-06-03T08:10:25.000Z</time>
      </trkpt>
      <trkpt lat="44.95763" lon="-0.47863">
        <ele>0.6</ele>
        <time>2021-06-03T08:10:26.000Z</time>
      </trkpt>
      <trkpt lat="44.95758" lon="-0.47862">
        <ele>0.5</ele>
        <time>2021-06-03T08:10:27.000Z</time>
      </trkpt>
      <trkpt lat="44.95753" lon="-0.47862">
        <ele>0.6</ele>
        <time>2021-06-03T08:10:28.000Z</time>
      </trkpt>
      <trkpt lat="44.95748" lon="-0.47861">
        <ele>0.7</ele>
        <time>2021-06-03T08:10:29.000Z</time>
      </trkpt>
      <trkpt lat="44.95743" lon="-0.47861">
        <ele>0.8</ele>
        <time>2021-06-03T08:10:30.000Z</time>
      </trkpt>
      <trkpt lat="44.95738" lon="-0.4786">
        <ele>0.9</ele>
        <time>2021-06-03T08:10:31.000Z</time>
      </trkpt>
      <trkpt lat="44.95733" lon="-0.4786">
        <ele>1.1</ele>
        <time>2021-06-03T08:10:32.000Z</time>
      </trkpt>
      <trkpt lat="44.95728" lon="-0.47859">
        <ele>1.3</ele>
        <time>2021-06-03T08:10:33.000Z</time>
      </trkpt>
      <trkpt lat="44.95723" lon="-0.47859">
        <ele>1.4</ele>
        <time>2021-06-03T08:10:34.000Z</time>
      </trkpt>
      <trkpt lat="44.95718" lon="-0.47859">
        <ele>1.6</ele>
        <time>2021-06-03T08:10:35.000Z</time>
      </trkpt>
      <trkpt lat="44.95713" lon="-0.47858">
        <ele>1.8</ele>
        <time>2021-06-03T08:10:36.000Z</time>
      </trkpt>
      <trkpt lat="44.95708" lon="-0.47857">
        <ele>1.6</ele>
        <time>2021-06-03T08:10:37.000Z</time>
      </trkpt>
      <trkpt lat="44.95702" lon="-0.47855">
        <ele>1.5</ele>
        <time>2021-06-03T08:10:38.000Z</time>
      </trkpt>
      <trkpt lat="44.95694" lon="-0.47852">
        <ele>1</ele>
        <time>2021-06-03T08:10:40.000Z</time>
      </trkpt>
      <trkpt lat="44.95689" lon="-0.47849">
        <ele>0.8</ele>
        <time>2021-06-03T08:10:41.000Z</time>
      </trkpt>
      <trkpt lat="44.95685" lon="-0.47846">
        <ele>1.3</ele>
        <time>2021-06-03T08:10:42.000Z</time>
      </trkpt>
      <trkpt lat="44.95682" lon="-0.47842">
        <ele>1.6</ele>
        <time>2021-06-03T08:10:43.000Z</time>
      </trkpt>
      <trkpt lat="44.95678" lon="-0.47838">
        <ele>1.4</ele>
        <time>2021-06-03T08:10:44.000Z</time>
      </trkpt>
      <trkpt lat="44.95675" lon="-0.47832">
        <ele>1.2</ele>
        <time>2021-06-03T08:10:45.000Z</time>
      </trkpt>
      <trkpt lat="44.95672" lon="-0.47827">
        <ele>1</ele>
        <time>2021-06-03T08:10:46.000Z</time>
      </trkpt>
      <trkpt lat="44.95669" lon="-0.47821">
        <ele>0.8</ele>
        <time>2021-06-03T08:10:47.000Z</time>
      </trkpt>
      <trkpt lat="44.95666" lon="-0.47815">
        <ele>0.6</ele>
        <time>2021-06-03T08:10:48.000Z</time>
      </trkpt>
      <trkpt lat="44.95664" lon="-0.47809">
        <ele>0.9</ele>
        <time>2021-06-03T08:10:49.000Z</time>
      </trkpt>
      <trkpt lat="44.95661" lon="-0.47803">
        <ele>1.1</ele>
        <time>2021-06-03T08:10:50.000Z</time>
      </trkpt>
      <trkpt lat="44.95659" lon="-0.47797">
        <ele>0.7</ele>
        <time>2021-06-03T08:10:51.000Z</time>
      </trkpt>
      <trkpt lat="44.95657" lon="-0.47791">
        <ele>0.4</ele>
        <time>2021-06-03T08:10:52.000Z</time>
      </trkpt>
      <trkpt lat="44.95654" lon="-0.47785">
        <ele>0.1</ele>
        <time>2021-06-03T08:10:53.000Z</time>
      </trkpt>
      <trkpt lat="44.95652" lon="-0.47778">
        <ele>0.1</ele>
        <time>2021-06-03T08:10:54.000Z</time>
      </trkpt>
      <trkpt lat="44.9565" lon="-0.47772">
        <ele>0.2</ele>
        <time>2021-06-03T08:10:55.000Z</time>
      </trkpt>
      <trkpt lat="44.95649" lon="-0.47765">
        <ele>0.5</ele>
        <time>2021-06-03T08:10:56.000Z</time>
      </trkpt>
      <trkpt lat="44.95647" lon="-0.47759">
        <ele>0.8</ele>
        <time>2021-06-03T08:10:57.000Z</time>
      </trkpt>
      <trkpt lat="44.95647" lon="-0.47752">
        <ele>1</ele>
        <time>2021-06-03T08:10:58.000Z</time>
      </trkpt>
      <trkpt lat="44.95646" lon="-0.47745">
        <ele>0.9</ele>
        <time>2021-06-03T08:10:59.000Z</time>
      </trkpt>
      <trkpt lat="44.95646" lon="-0.47738">
        <ele>0.8</ele>
        <time>2021-06-03T08:11:00.000Z</time>
      </trkpt>
      <trkpt lat="44.95647" lon="-0.47732">
        <ele>0.9</ele>
        <time>2021-06-03T08:11:01.000Z</time>
      </trkpt>
      <trkpt lat="44.95648" lon="-0.47725">
        <ele>1</ele>
        <time>2021-06-03T08:11:02.000Z</time>
      </trkpt>
      <trkpt lat="44.9565" lon="-0.47719">
        <ele>0.7</ele>
        <time>2021-06-03T08:11:03.000Z</time>
      </trkpt>
      <trkpt lat="44.95651" lon="-0.47712">
        <ele>0.5</ele>
        <time>2021-06-03T08:11:04.000Z</time>
      </trkpt>
      <trkpt lat="44.95653" lon="-0.47706">
        <ele>0.4</ele>
        <time>2021-06-03T08:11:05.000Z</time>
      </trkpt>
      <trkpt lat="44.95655" lon="-0.477">
        <ele>0.4</ele>
        <time>2021-06-03T08:11:06.000Z</time>
      </trkpt>
      <trkpt lat="44.95657" lon="-0.47694">
        <ele>0.4</ele>
        <time>2021-06-03T08:11:07.000Z</time>
      </trkpt>
      <trkpt lat="44.95659" lon="-0.47688">
        <ele>0.4</ele>
        <time>2021-06-03T08:11:08.000Z</time>
      </trkpt>
      <trkpt lat="44.95661" lon="-0.47682">
        <ele>0.4</ele>
        <time>2021-06-03T08:11:09.000Z</time>
      </trkpt>
      <trkpt lat="44.95664" lon="-0.47671">
        <ele>0.3</ele>
        <time>2021-06-03T08:11:11.000Z</time>
      </trkpt>
      <trkpt lat="44.95666" lon="-0.47665">
        <ele>0.3</ele>
        <time>2021-06-03T08:11:12.000Z</time>
      </trkpt>
      <trkpt lat="44.95668" lon="-0.47659">
        <ele>0.6</ele>
        <time>2021-06-03T08:11:13.000Z</time>
      </trkpt>
      <trkpt lat="44.95672" lon="-0.47648">
        <ele>0.9</ele>
        <time>2021-06-03T08:11:15.000Z</time>
      </trkpt>
      <trkpt lat="44.95674" lon="-0.47642">
        <ele>0.9</ele>
        <time>2021-06-03T08:11:16.000Z</time>
      </trkpt>
      <trkpt lat="44.95676" lon="-0.47636">
        <ele>1</ele>
        <time>2021-06-03T08:11:17.000Z</time>
      </trkpt>
      <trkpt lat="44.95679" lon="-0.4763">
        <ele>0.8</ele>
        <time>2021-06-03T08:11:18.000Z</time>
      </trkpt>
      <trkpt lat="44.95681" lon="-0.47624">
        <ele>0.7</ele>
        <time>2021-06-03T08:11:19.000Z</time>
      </trkpt>
      <trkpt lat="44.95683" lon="-0.47618">
        <ele>0.8</ele>
        <time>2021-06-03T08:11:20.000Z</time>
      </trkpt>
      <trkpt lat="44.95686" lon="-0.47611">
        <ele>0.9</ele>
        <time>2021-06-03T08:11:21.000Z</time>
      </trkpt>
      <trkpt lat="44.95688" lon="-0.47605">
        <ele>1.3</ele>
        <time>2021-06-03T08:11:22.000Z</time>
      </trkpt>
      <trkpt lat="44.9569" lon="-0.47599">
        <ele>1.6</ele>
        <time>2021-06-03T08:11:23.000Z</time>
      </trkpt>
      <trkpt lat="44.95692" lon="-0.47593">
        <ele>1.8</ele>
        <time>2021-06-03T08:11:24.000Z</time>
      </trkpt>
      <trkpt lat="44.95694" lon="-0.47587">
        <ele>1.9</ele>
        <time>2021-06-03T08:11:25.000Z</time>
      </trkpt>
      <trkpt lat="44.95695" lon="-0.4758">
        <ele>2</ele>
        <time>2021-06-03T08:11:26.000Z</time>
      </trkpt>
      <trkpt lat="44.95697" lon="-0.47574">
        <ele>1.7</ele>
        <time>2021-06-03T08:11:27.000Z</time>
      </trkpt>
      <trkpt lat="44.95699" lon="-0.47567">
        <ele>1.5</ele>
        <time>2021-06-03T08:11:28.000Z</time>
      </trkpt>
      <trkpt lat="44.957" lon="-0.47561">
        <ele>1.6</ele>
        <time>2021-06-03T08:11:29.000Z</time>
      </trkpt>
      <trkpt lat="44.95702" lon="-0.47554">
        <ele>1.6</ele>
        <time>2021-06-03T08:11:30.000Z</time>
      </trkpt>
      <trkpt lat="44.95703" lon="-0.47547">
        <ele>1.7</ele>
        <time>2021-06-03T08:11:31.000Z</time>
      </trkpt>
      <trkpt lat="44.95704" lon="-0.4754">
        <ele>1.7</ele>
        <time>2021-06-03T08:11:32.000Z</time>
      </trkpt>
      <trkpt lat="44.95704" lon="-0.47533">
        <ele>1.6</ele>
        <time>2021-06-03T08:11:33.000Z</time>
      </trkpt>
      <trkpt lat="44.95705" lon="-0.47526">
        <ele>1.4</ele>
        <time>2021-06-03T08:11:34.000Z</time>
      </trkpt>
      <trkpt lat="44.95705" lon="-0.47519">
        <ele>1.3</ele>
        <time>2021-06-03T08:11:35.000Z</time>
      </trkpt>
      <trkpt lat="44.95706" lon="-0.47512">
        <ele>1.3</ele>
        <time>2021-06-03T08:11:36.000Z</time>
      </trkpt>
      <trkpt lat="44.95706" lon="-0.47505">
        <ele>1.3</ele>
        <time>2021-06-03T08:11:37.000Z</time>
      </trkpt>
      <trkpt lat="44.95706" lon="-0.47498">
        <ele>1.3</ele>
        <time>2021-06-03T08:11:38.000Z</time>
      </trkpt>
      <trkpt lat="44.95706" lon="-0.47492">
        <ele>1.3</ele>
        <time>2021-06-03T08:11:39.000Z</time>
      </trkpt>
      <trkpt lat="44.95706" lon="-0.47485">
        <ele>1.4</ele>
        <time>2021-06-03T08:11:40.000Z</time>
      </trkpt>
      <trkpt lat="44.95706" lon="-0.47478">
        <ele>1</ele>
        <time>2021-06-03T08:11:41.000Z</time>
      </trkpt>
      <trkpt lat="44.95706" lon="-0.47471">
        <ele>0.6</ele>
        <time>2021-06-03T08:11:42.000Z</time>
      </trkpt>
      <trkpt lat="44.95706" lon="-0.47464">
        <ele>0.4</ele>
        <time>2021-06-03T08:11:43.000Z</time>
      </trkpt>
      <trkpt lat="44.95706" lon="-0.47457">
        <ele>0.8</ele>
        <time>2021-06-03T08:11:44.000Z</time>
      </trkpt>
      <trkpt lat="44.95706" lon="-0.47451">
        <ele>1.1</ele>
        <time>2021-06-03T08:11:45.000Z</time>
      </trkpt>
      <trkpt lat="44.95706" lon="-0.47444">
        <ele>1.2</ele>
        <time>2021-06-03T08:11:46.000Z</time>
      </trkpt>
      <trkpt lat="44.95706" lon="-0.47437">
        <ele>1.3</ele>
        <time>2021-06-03T08:11:47.000Z</time>
      </trkpt>
      <trkpt lat="44.95706" lon="-0.47431">
        <ele>1.2</ele>
        <time>2021-06-03T08:11:48.000Z</time>
      </trkpt>
      <trkpt lat="44.95706" lon="-0.47424">
        <ele>1.1</ele>
        <time>2021-06-03T08:11:49.000Z</time>
      </trkpt>
      <trkpt lat="44.95705" lon="-0.47417">
        <ele>1</ele>
        <time>2021-06-03T08:11:50.000Z</time>
      </trkpt>
      <trkpt lat="44.95705" lon="-0.4741">
        <ele>0.9</ele>
        <time>2021-06-03T08:11:51.000Z</time>
      </trkpt>
      <trkpt lat="44.95705" lon="-0.47403">
        <ele>0.9</ele>
        <time>2021-06-03T08:11:52.000Z</time>
      </trkpt>
      <trkpt lat="44.95705" lon="-0.47397">
        <ele>1</ele>
        <time>2021-06-03T08:11:53.000Z</time>
      </trkpt>
      <trkpt lat="44.95705" lon="-0.4739">
        <ele>1.1</ele>
        <time>2021-06-03T08:11:54.000Z</time>
      </trkpt>
      <trkpt lat="44.95704" lon="-0.47383">
        <ele>1.2</ele>
        <time>2021-06-03T08:11:55.000Z</time>
      </trkpt>
      <trkpt lat="44.95704" lon="-0.47376">
        <ele>1.3</ele>
        <time>2021-06-03T08:11:56.000Z</time>
      </trkpt>
      <trkpt lat="44.95704" lon="-0.47369">
        <ele>1.4</ele>
        <time>2021-06-03T08:11:57.000Z</time>
      </trkpt>
      <trkpt lat="44.95704" lon="-0.47362">
        <ele>1.1</ele>
        <time>2021-06-03T08:11:58.000Z</time>
      </trkpt>
      <trkpt lat="44.95704" lon="-0.47355">
        <ele>0.9</ele>
        <time>2021-06-03T08:11:59.000Z</time>
      </trkpt>
      <trkpt lat="44.95704" lon="-0.47348">
        <ele>1</ele>
        <time>2021-06-03T08:12:00.000Z</time>
      </trkpt>
      <trkpt lat="44.95704" lon="-0.47341">
        <ele>1.1</ele>
        <time>2021-06-03T08:12:01.000Z</time>
      </trkpt>
      <trkpt lat="44.95704" lon="-0.47334">
        <ele>1.1</ele>
        <time>2021-06-03T08:12:02.000Z</time>
      </trkpt>
      <trkpt lat="44.95704" lon="-0.47327">
        <ele>1.4</ele>
        <time>2021-06-03T08:12:03.000Z</time>
      </trkpt>
      <trkpt lat="44.95704" lon="-0.47319">
        <ele>1.6</ele>
        <time>2021-06-03T08:12:04.000Z</time>
      </trkpt>
      <trkpt lat="44.95704" lon="-0.47312">
        <ele>1.8</ele>
        <time>2021-06-03T08:12:05.000Z</time>
      </trkpt>
      <trkpt lat="44.95704" lon="-0.47305">
        <ele>1.9</ele>
        <time>2021-06-03T08:12:06.000Z</time>
      </trkpt>
      <trkpt lat="44.95704" lon="-0.47298">
        <ele>1.9</ele>
        <time>2021-06-03T08:12:07.000Z</time>
      </trkpt>
      <trkpt lat="44.95704" lon="-0.47291">
        <ele>2</ele>
        <time>2021-06-03T08:12:08.000Z</time>
      </trkpt>
      <trkpt lat="44.95703" lon="-0.47284">
        <ele>2</ele>
        <time>2021-06-03T08:12:09.000Z</time>
      </trkpt>
      <trkpt lat="44.95703" lon="-0.47277">
        <ele>1.6</ele>
        <time>2021-06-03T08:12:10.000Z</time>
      </trkpt>
      <trkpt lat="44.95703" lon="-0.4727">
        <ele>1.3</ele>
        <time>2021-06-03T08:12:11.000Z</time>
      </trkpt>
      <trkpt lat="44.95703" lon="-0.47263">
        <ele>1.8</ele>
        <time>2021-06-03T08:12:12.000Z</time>
      </trkpt>
      <trkpt lat="44.95703" lon="-0.47255">
        <ele>2.2</ele>
        <time>2021-06-03T08:12:13.000Z</time>
      </trkpt>
      <trkpt lat="44.95703" lon="-0.47248">
        <ele>1.9</ele>
        <time>2021-06-03T08:12:14.000Z</time>
      </trkpt>
      <trkpt lat="44.95703" lon="-0.47242">
        <ele>1.7</ele>
        <time>2021-06-03T08:12:15.000Z</time>
      </trkpt>
      <trkpt lat="44.95703" lon="-0.47235">
        <ele>1.5</ele>
        <time>2021-06-03T08:12:16.000Z</time>
      </trkpt>
      <trkpt lat="44.95703" lon="-0.47228">
        <ele>1.4</ele>
        <time>2021-06-03T08:12:17.000Z</time>
      </trkpt>
      <trkpt lat="44.95702" lon="-0.47221">
        <ele>1.3</ele>
        <time>2021-06-03T08:12:18.000Z</time>
      </trkpt>
      <trkpt lat="44.95702" lon="-0.47214">
        <ele>1.7</ele>
        <time>2021-06-03T08:12:19.000Z</time>
      </trkpt>
      <trkpt lat="44.95702" lon="-0.47207">
        <ele>2</ele>
        <time>2021-06-03T08:12:20.000Z</time>
      </trkpt>
      <trkpt lat="44.95702" lon="-0.472">
        <ele>2.3</ele>
        <time>2021-06-03T08:12:21.000Z</time>
      </trkpt>
      <trkpt lat="44.95702" lon="-0.47193">
        <ele>1.6</ele>
        <time>2021-06-03T08:12:22.000Z</time>
      </trkpt>
      <trkpt lat="44.95702" lon="-0.47187">
        <ele>1</ele>
        <time>2021-06-03T08:12:23.000Z</time>
      </trkpt>
      <trkpt lat="44.95702" lon="-0.4718">
        <ele>1.1</ele>
        <time>2021-06-03T08:12:24.000Z</time>
      </trkpt>
      <trkpt lat="44.95702" lon="-0.47173">
        <ele>1.1</ele>
        <time>2021-06-03T08:12:25.000Z</time>
      </trkpt>
      <trkpt lat="44.95702" lon="-0.47166">
        <ele>1.6</ele>
        <time>2021-06-03T08:12:26.000Z</time>
      </trkpt>
      <trkpt lat="44.95702" lon="-0.47159">
        <ele>2</ele>
        <time>2021-06-03T08:12:27.000Z</time>
      </trkpt>
      <trkpt lat="44.95702" lon="-0.47152">
        <ele>2.3</ele>
        <time>2021-06-03T08:12:28.000Z</time>
      </trkpt>
      <trkpt lat="44.95702" lon="-0.47146">
        <ele>2.4</ele>
        <time>2021-06-03T08:12:29.000Z</time>
      </trkpt>
      <trkpt lat="44.95702" lon="-0.47139">
        <ele>2.6</ele>
        <time>2021-06-03T08:12:30.000Z</time>
      </trkpt>
      <trkpt lat="44.95702" lon="-0.47132">
        <ele>2.4</ele>
        <time>2021-06-03T08:12:31.000Z</time>
      </trkpt>
      <trkpt lat="44.95702" lon="-0.47125">
        <ele>2.3</ele>
        <time>2021-06-03T08:12:32.000Z</time>
      </trkpt>
      <trkpt lat="44.95702" lon="-0.47118">
        <ele>1.8</ele>
        <time>2021-06-03T08:12:33.000Z</time>
      </trkpt>
      <trkpt lat="44.95702" lon="-0.47111">
        <ele>1.5</ele>
        <time>2021-06-03T08:12:34.000Z</time>
      </trkpt>
      <trkpt lat="44.95702" lon="-0.47105">
        <ele>1.2</ele>
        <time>2021-06-03T08:12:35.000Z</time>
      </trkpt>
      <trkpt lat="44.95702" lon="-0.47098">
        <ele>1.5</ele>
        <time>2021-06-03T08:12:36.000Z</time>
      </trkpt>
      <trkpt lat="44.95701" lon="-0.47091">
        <ele>1.7</ele>
        <time>2021-06-03T08:12:37.000Z</time>
      </trkpt>
      <trkpt lat="44.95701" lon="-0.47085">
        <ele>2</ele>
        <time>2021-06-03T08:12:38.000Z</time>
      </trkpt>
      <trkpt lat="44.95701" lon="-0.47078">
        <ele>2.2</ele>
        <time>2021-06-03T08:12:39.000Z</time>
      </trkpt>
      <trkpt lat="44.95701" lon="-0.47071">
        <ele>2.3</ele>
        <time>2021-06-03T08:12:40.000Z</time>
      </trkpt>
      <trkpt lat="44.95701" lon="-0.47064">
        <ele>2.4</ele>
        <time>2021-06-03T08:12:41.000Z</time>
      </trkpt>
      <trkpt lat="44.95701" lon="-0.47057">
        <ele>2.5</ele>
        <time>2021-06-03T08:12:42.000Z</time>
      </trkpt>
      <trkpt lat="44.95701" lon="-0.4705">
        <ele>2.3</ele>
        <time>2021-06-03T08:12:43.000Z</time>
      </trkpt>
      <trkpt lat="44.95701" lon="-0.47043">
        <ele>2.1</ele>
        <time>2021-06-03T08:12:44.000Z</time>
      </trkpt>
      <trkpt lat="44.95701" lon="-0.47036">
        <ele>2</ele>
        <time>2021-06-03T08:12:45.000Z</time>
      </trkpt>
      <trkpt lat="44.95701" lon="-0.47029">
        <ele>2</ele>
        <time>2021-06-03T08:12:46.000Z</time>
      </trkpt>
      <trkpt lat="44.957" lon="-0.47022">
        <ele>1.9</ele>
        <time>2021-06-03T08:12:47.000Z</time>
      </trkpt>
      <trkpt lat="44.957" lon="-0.47016">
        <ele>1.8</ele>
        <time>2021-06-03T08:12:48.000Z</time>
      </trkpt>
      <trkpt lat="44.957" lon="-0.47009">
        <ele>1.7</ele>
        <time>2021-06-03T08:12:49.000Z</time>
      </trkpt>
      <trkpt lat="44.957" lon="-0.47002">
        <ele>1.9</ele>
        <time>2021-06-03T08:12:50.000Z</time>
      </trkpt>
      <trkpt lat="44.957" lon="-0.46995">
        <ele>2</ele>
        <time>2021-06-03T08:12:51.000Z</time>
      </trkpt>
      <trkpt lat="44.957" lon="-0.46988">
        <ele>2</ele>
        <time>2021-06-03T08:12:52.000Z</time>
      </trkpt>
      <trkpt lat="44.957" lon="-0.46981">
        <ele>2</ele>
        <time>2021-06-03T08:12:53.000Z</time>
      </trkpt>
      <trkpt lat="44.957" lon="-0.46975">
        <ele>2</ele>
        <time>2021-06-03T08:12:54.000Z</time>
      </trkpt>
      <trkpt lat="44.957" lon="-0.46968">
        <ele>1.8</ele>
        <time>2021-06-03T08:12:55.000Z</time>
      </trkpt>
      <trkpt lat="44.957" lon="-0.46956">
        <ele>1.9</ele>
        <time>2021-06-03T08:12:57.000Z</time>
      </trkpt>
      <trkpt lat="44.957" lon="-0.46943">
        <ele>2.3</ele>
        <time>2021-06-03T08:12:59.000Z</time>
      </trkpt>
      <trkpt lat="44.957" lon="-0.46931">
        <ele>2</ele>
        <time>2021-06-03T08:13:01.000Z</time>
      </trkpt>
      <trkpt lat="44.957" lon="-0.4692">
        <ele>2.6</ele>
        <time>2021-06-03T08:13:03.000Z</time>
      </trkpt>
      <trkpt lat="44.957" lon="-0.46909">
        <ele>2.3</ele>
        <time>2021-06-03T08:13:05.000Z</time>
      </trkpt>
      <trkpt lat="44.957" lon="-0.46899">
        <ele>2.5</ele>
        <time>2021-06-03T08:13:07.000Z</time>
      </trkpt>
      <trkpt lat="44.95699" lon="-0.46889">
        <ele>2.6</ele>
        <time>2021-06-03T08:13:10.000Z</time>
      </trkpt>
      <trkpt lat="44.95693" lon="-0.4688">
        <ele>2.9</ele>
        <time>2021-06-03T08:13:13.000Z</time>
      </trkpt>
      <trkpt lat="44.95686" lon="-0.46878">
        <ele>2.4</ele>
        <time>2021-06-03T08:13:15.000Z</time>
      </trkpt>
      <trkpt lat="44.95682" lon="-0.46878">
        <ele>2.3</ele>
        <time>2021-06-03T08:13:16.000Z</time>
      </trkpt>
      <trkpt lat="44.9567" lon="-0.46877">
        <ele>2.3</ele>
        <time>2021-06-03T08:13:19.000Z</time>
      </trkpt>
      <trkpt lat="44.95662" lon="-0.46878">
        <ele>2.1</ele>
        <time>2021-06-03T08:13:21.000Z</time>
      </trkpt>
      <trkpt lat="44.95653" lon="-0.46879">
        <ele>2</ele>
        <time>2021-06-03T08:13:23.000Z</time>
      </trkpt>
      <trkpt lat="44.95645" lon="-0.46882">
        <ele>2.2</ele>
        <time>2021-06-03T08:13:25.000Z</time>
      </trkpt>
      <trkpt lat="44.95637" lon="-0.46886">
        <ele>2.2</ele>
        <time>2021-06-03T08:13:27.000Z</time>
      </trkpt>
      <trkpt lat="44.95631" lon="-0.46893">
        <ele>2</ele>
        <time>2021-06-03T08:13:29.000Z</time>
      </trkpt>
      <trkpt lat="44.95627" lon="-0.469">
        <ele>2.2</ele>
        <time>2021-06-03T08:13:31.000Z</time>
      </trkpt>
      <trkpt lat="44.95622" lon="-0.46907">
        <ele>2.3</ele>
        <time>2021-06-03T08:13:33.000Z</time>
      </trkpt>
      <trkpt lat="44.95616" lon="-0.46911">
        <ele>1.7</ele>
        <time>2021-06-03T08:13:35.000Z</time>
      </trkpt>
      <trkpt lat="44.95608" lon="-0.4691">
        <ele>1.5</ele>
        <time>2021-06-03T08:13:38.000Z</time>
      </trkpt>
      <trkpt lat="44.95605" lon="-0.46899">
        <ele>2.2</ele>
        <time>2021-06-03T08:13:42.000Z</time>
      </trkpt>
      <trkpt lat="44.95604" lon="-0.46889">
        <ele>2.7</ele>
        <time>2021-06-03T08:13:45.000Z</time>
      </trkpt>
      <trkpt lat="44.95607" lon="-0.46878">
        <ele>3.6</ele>
        <time>2021-06-03T08:13:48.000Z</time>
      </trkpt>
      <trkpt lat="44.95614" lon="-0.46871">
        <ele>3.3</ele>
        <time>2021-06-03T08:13:51.000Z</time>
      </trkpt>
      <trkpt lat="44.95619" lon="-0.46862">
        <ele>2.9</ele>
        <time>2021-06-03T08:13:54.000Z</time>
      </trkpt>
      <trkpt lat="44.95624" lon="-0.46853">
        <ele>3.2</ele>
        <time>2021-06-03T08:14:00.000Z</time>
      </trkpt>
      <trkpt lat="44.95624" lon="-0.46841">
        <ele>3.4</ele>
        <time>2021-06-03T08:14:04.000Z</time>
      </trkpt>
      <trkpt lat="44.95631" lon="-0.46837">
        <ele>3.2</ele>
        <time>2021-06-03T08:14:08.000Z</time>
      </trkpt>
      <trkpt lat="44.95638" lon="-0.46838">
        <ele>3</ele>
        <time>2021-06-03T08:14:10.000Z</time>
      </trkpt>
      <trkpt lat="44.95645" lon="-0.46839">
        <ele>2.9</ele>
        <time>2021-06-03T08:14:12.000Z</time>
      </trkpt>
      <trkpt lat="44.95652" lon="-0.4684">
        <ele>3.4</ele>
        <time>2021-06-03T08:14:14.000Z</time>
      </trkpt>
      <trkpt lat="44.9566" lon="-0.46841">
        <ele>3.4</ele>
        <time>2021-06-03T08:14:16.000Z</time>
      </trkpt>
      <trkpt lat="44.95665" lon="-0.46842">
        <ele>3.2</ele>
        <time>2021-06-03T08:14:17.000Z</time>
      </trkpt>
      <trkpt lat="44.95678" lon="-0.46845">
        <ele>3.9</ele>
        <time>2021-06-03T08:14:20.000Z</time>
      </trkpt>
      <trkpt lat="44.95682" lon="-0.46846">
        <ele>4.3</ele>
        <time>2021-06-03T08:14:21.000Z</time>
      </trkpt>
      <trkpt lat="44.95691" lon="-0.46848">
        <ele>4.8</ele>
        <time>2021-06-03T08:14:23.000Z</time>
      </trkpt>
      <trkpt lat="44.95699" lon="-0.4685">
        <ele>5.2</ele>
        <time>2021-06-03T08:14:25.000Z</time>
      </trkpt>
      <trkpt lat="44.95707" lon="-0.46852">
        <ele>5.3</ele>
        <time>2021-06-03T08:14:27.000Z</time>
      </trkpt>
      <trkpt lat="44.95715" lon="-0.46853">
        <ele>5.2</ele>
        <time>2021-06-03T08:14:29.000Z</time>
      </trkpt>
      <trkpt lat="44.95723" lon="-0.46854">
        <ele>5.6</ele>
        <time>2021-06-03T08:14:31.000Z</time>
      </trkpt>
      <trkpt lat="44.95731" lon="-0.46855">
        <ele>6.1</ele>
        <time>2021-06-03T08:14:33.000Z</time>
      </trkpt>
      <trkpt lat="44.9574" lon="-0.46855">
        <ele>6</ele>
        <time>2021-06-03T08:14:35.000Z</time>
      </trkpt>
      <trkpt lat="44.95748" lon="-0.46855">
        <ele>6</ele>
        <time>2021-06-03T08:14:37.000Z</time>
      </trkpt>
      <trkpt lat="44.95753" lon="-0.46854">
        <ele>6.2</ele>
        <time>2021-06-03T08:14:38.000Z</time>
      </trkpt>
      <trkpt lat="44.95758" lon="-0.46854">
        <ele>6.3</ele>
        <time>2021-06-03T08:14:39.000Z</time>
      </trkpt>
      <trkpt lat="44.95763" lon="-0.46853">
        <ele>6.4</ele>
        <time>2021-06-03T08:14:40.000Z</time>
      </trkpt>
      <trkpt lat="44.95768" lon="-0.46852">
        <ele>6.5</ele>
        <time>2021-06-03T08:14:41.000Z</time>
      </trkpt>
      <trkpt lat="44.95773" lon="-0.46851">
        <ele>6.3</ele>
        <time>2021-06-03T08:14:42.000Z</time>
      </trkpt>
      <trkpt lat="44.95777" lon="-0.46849">
        <ele>6.2</ele>
        <time>2021-06-03T08:14:43.000Z</time>
      </trkpt>
      <trkpt lat="44.95782" lon="-0.46848">
        <ele>7</ele>
        <time>2021-06-03T08:14:44.000Z</time>
      </trkpt>
      <trkpt lat="44.95787" lon="-0.46846">
        <ele>7.7</ele>
        <time>2021-06-03T08:14:45.000Z</time>
      </trkpt>
      <trkpt lat="44.95791" lon="-0.46845">
        <ele>7.5</ele>
        <time>2021-06-03T08:14:46.000Z</time>
      </trkpt>
      <trkpt lat="44.95796" lon="-0.46843">
        <ele>7.3</ele>
        <time>2021-06-03T08:14:47.000Z</time>
      </trkpt>
      <trkpt lat="44.95804" lon="-0.4684">
        <ele>7.5</ele>
        <time>2021-06-03T08:14:49.000Z</time>
      </trkpt>
      <trkpt lat="44.95813" lon="-0.46836">
        <ele>7.7</ele>
        <time>2021-06-03T08:14:51.000Z</time>
      </trkpt>
      <trkpt lat="44.95817" lon="-0.46833">
        <ele>7.7</ele>
        <time>2021-06-03T08:14:52.000Z</time>
      </trkpt>
      <trkpt lat="44.95821" lon="-0.46831">
        <ele>8.1</ele>
        <time>2021-06-03T08:14:53.000Z</time>
      </trkpt>
      <trkpt lat="44.95826" lon="-0.46829">
        <ele>8.4</ele>
        <time>2021-06-03T08:14:54.000Z</time>
      </trkpt>
      <trkpt lat="44.9583" lon="-0.46827">
        <ele>8.6</ele>
        <time>2021-06-03T08:14:55.000Z</time>
      </trkpt>
      <trkpt lat="44.95834" lon="-0.46824">
        <ele>9</ele>
        <time>2021-06-03T08:14:56.000Z</time>
      </trkpt>
      <trkpt lat="44.95842" lon="-0.46818">
        <ele>9.7</ele>
        <time>2021-06-03T08:14:58.000Z</time>
      </trkpt>
      <trkpt lat="44.9585" lon="-0.46812">
        <ele>10.3</ele>
        <time>2021-06-03T08:15:00.000Z</time>
      </trkpt>
      <trkpt lat="44.95857" lon="-0.46806">
        <ele>9.7</ele>
        <time>2021-06-03T08:15:02.000Z</time>
      </trkpt>
      <trkpt lat="44.95864" lon="-0.46799">
        <ele>9.7</ele>
        <time>2021-06-03T08:15:04.000Z</time>
      </trkpt>
      <trkpt lat="44.95872" lon="-0.46792">
        <ele>9.9</ele>
        <time>2021-06-03T08:15:06.000Z</time>
      </trkpt>
      <trkpt lat="44.95878" lon="-0.46784">
        <ele>10.6</ele>
        <time>2021-06-03T08:15:08.000Z</time>
      </trkpt>
      <trkpt lat="44.95885" lon="-0.46776">
        <ele>11.5</ele>
        <time>2021-06-03T08:15:10.000Z</time>
      </trkpt>
      <trkpt lat="44.95891" lon="-0.46768">
        <ele>11.6</ele>
        <time>2021-06-03T08:15:12.000Z</time>
      </trkpt>
      <trkpt lat="44.95897" lon="-0.46761">
        <ele>11.2</ele>
        <time>2021-06-03T08:15:14.000Z</time>
      </trkpt>
      <trkpt lat="44.95902" lon="-0.46753">
        <ele>11.9</ele>
        <time>2021-06-03T08:15:16.000Z</time>
      </trkpt>
      <trkpt lat="44.95908" lon="-0.46745">
        <ele>12.2</ele>
        <time>2021-06-03T08:15:18.000Z</time>
      </trkpt>
      <trkpt lat="44.9591" lon="-0.4674">
        <ele>12.4</ele>
        <time>2021-06-03T08:15:19.000Z</time>
      </trkpt>
      <trkpt lat="44.95917" lon="-0.46727">
        <ele>13.6</ele>
        <time>2021-06-03T08:15:22.000Z</time>
      </trkpt>
      <trkpt lat="44.95921" lon="-0.46718">
        <ele>14.3</ele>
        <time>2021-06-03T08:15:24.000Z</time>
      </trkpt>
      <trkpt lat="44.95925" lon="-0.46708">
        <ele>14.3</ele>
        <time>2021-06-03T08:15:26.000Z</time>
      </trkpt>
      <trkpt lat="44.95929" lon="-0.46699">
        <ele>14.6</ele>
        <time>2021-06-03T08:15:28.000Z</time>
      </trkpt>
      <trkpt lat="44.95934" lon="-0.46691">
        <ele>15.7</ele>
        <time>2021-06-03T08:15:30.000Z</time>
      </trkpt>
      <trkpt lat="44.95938" lon="-0.46681">
        <ele>15.4</ele>
        <time>2021-06-03T08:15:32.000Z</time>
      </trkpt>
      <trkpt lat="44.95942" lon="-0.46673">
        <ele>15.5</ele>
        <time>2021-06-03T08:15:34.000Z</time>
      </trkpt>
      <trkpt lat="44.95947" lon="-0.46664">
        <ele>15.4</ele>
        <time>2021-06-03T08:15:36.000Z</time>
      </trkpt>
      <trkpt lat="44.95951" lon="-0.46655">
        <ele>15.1</ele>
        <time>2021-06-03T08:15:38.000Z</time>
      </trkpt>
      <trkpt lat="44.95955" lon="-0.46646">
        <ele>15</ele>
        <time>2021-06-03T08:15:40.000Z</time>
      </trkpt>
      <trkpt lat="44.9596" lon="-0.46638">
        <ele>15.4</ele>
        <time>2021-06-03T08:15:42.000Z</time>
      </trkpt>
      <trkpt lat="44.95964" lon="-0.46629">
        <ele>16.1</ele>
        <time>2021-06-03T08:15:44.000Z</time>
      </trkpt>
      <trkpt lat="44.95969" lon="-0.4662">
        <ele>16.5</ele>
        <time>2021-06-03T08:15:46.000Z</time>
      </trkpt>
      <trkpt lat="44.95973" lon="-0.46611">
        <ele>16.9</ele>
        <time>2021-06-03T08:15:48.000Z</time>
      </trkpt>
      <trkpt lat="44.95977" lon="-0.46602">
        <ele>17.1</ele>
        <time>2021-06-03T08:15:50.000Z</time>
      </trkpt>
      <trkpt lat="44.95982" lon="-0.46592">
        <ele>17</ele>
        <time>2021-06-03T08:15:52.000Z</time>
      </trkpt>
      <trkpt lat="44.95986" lon="-0.46582">
        <ele>17</ele>
        <time>2021-06-03T08:15:54.000Z</time>
      </trkpt>
      <trkpt lat="44.95991" lon="-0.46573">
        <ele>17.7</ele>
        <time>2021-06-03T08:15:56.000Z</time>
      </trkpt>
      <trkpt lat="44.95996" lon="-0.46563">
        <ele>18.4</ele>
        <time>2021-06-03T08:15:58.000Z</time>
      </trkpt>
      <trkpt lat="44.96" lon="-0.46554">
        <ele>18.6</ele>
        <time>2021-06-03T08:16:00.000Z</time>
      </trkpt>
      <trkpt lat="44.96005" lon="-0.46545">
        <ele>18.3</ele>
        <time>2021-06-03T08:16:02.000Z</time>
      </trkpt>
      <trkpt lat="44.96009" lon="-0.46535">
        <ele>18</ele>
        <time>2021-06-03T08:16:04.000Z</time>
      </trkpt>
      <trkpt lat="44.96013" lon="-0.46526">
        <ele>19.1</ele>
        <time>2021-06-03T08:16:06.000Z</time>
      </trkpt>
      <trkpt lat="44.96018" lon="-0.46517">
        <ele>19.2</ele>
        <time>2021-06-03T08:16:08.000Z</time>
      </trkpt>
      <trkpt lat="44.96022" lon="-0.46508">
        <ele>19.5</ele>
        <time>2021-06-03T08:16:10.000Z</time>
      </trkpt>
      <trkpt lat="44.96027" lon="-0.46498">
        <ele>19.9</ele>
        <time>2021-06-03T08:16:12.000Z</time>
      </trkpt>
      <trkpt lat="44.96031" lon="-0.46488">
        <ele>20.6</ele>
        <time>2021-06-03T08:16:14.000Z</time>
      </trkpt>
      <trkpt lat="44.96035" lon="-0.46479">
        <ele>21.1</ele>
        <time>2021-06-03T08:16:16.000Z</time>
      </trkpt>
      <trkpt lat="44.96039" lon="-0.4647">
        <ele>20.9</ele>
        <time>2021-06-03T08:16:18.000Z</time>
      </trkpt>
      <trkpt lat="44.96043" lon="-0.4646">
        <ele>20.7</ele>
        <time>2021-06-03T08:16:20.000Z</time>
      </trkpt>
      <trkpt lat="44.96045" lon="-0.46455">
        <ele>21</ele>
        <time>2021-06-03T08:16:21.000Z</time>
      </trkpt>
      <trkpt lat="44.96053" lon="-0.46441">
        <ele>21</ele>
        <time>2021-06-03T08:16:24.000Z</time>
      </trkpt>
      <trkpt lat="44.96058" lon="-0.46432">
        <ele>20.7</ele>
        <time>2021-06-03T08:16:26.000Z</time>
      </trkpt>
      <trkpt lat="44.96063" lon="-0.46421">
        <ele>21.2</ele>
        <time>2021-06-03T08:16:28.000Z</time>
      </trkpt>
      <trkpt lat="44.96068" lon="-0.46412">
        <ele>21.8</ele>
        <time>2021-06-03T08:16:30.000Z</time>
      </trkpt>
      <trkpt lat="44.96072" lon="-0.46402">
        <ele>21.9</ele>
        <time>2021-06-03T08:16:32.000Z</time>
      </trkpt>
      <trkpt lat="44.96077" lon="-0.46392">
        <ele>21.5</ele>
        <time>2021-06-03T08:16:34.000Z</time>
      </trkpt>
      <trkpt lat="44.96083" lon="-0.46383">
        <ele>22</ele>
        <time>2021-06-03T08:16:36.000Z</time>
      </trkpt>
      <trkpt lat="44.96088" lon="-0.46374">
        <ele>22.3</ele>
        <time>2021-06-03T08:16:38.000Z</time>
      </trkpt>
      <trkpt lat="44.96092" lon="-0.46363">
        <ele>22</ele>
        <time>2021-06-03T08:16:40.000Z</time>
      </trkpt>
      <trkpt lat="44.96096" lon="-0.46353">
        <ele>21.8</ele>
        <time>2021-06-03T08:16:42.000Z</time>
      </trkpt>
      <trkpt lat="44.96101" lon="-0.46343">
        <ele>21.1</ele>
        <time>2021-06-03T08:16:44.000Z</time>
      </trkpt>
      <trkpt lat="44.96105" lon="-0.46334">
        <ele>21.1</ele>
        <time>2021-06-03T08:16:46.000Z</time>
      </trkpt>
      <trkpt lat="44.9611" lon="-0.46323">
        <ele>21.3</ele>
        <time>2021-06-03T08:16:48.000Z</time>
      </trkpt>
      <trkpt lat="44.96114" lon="-0.46313">
        <ele>21.9</ele>
        <time>2021-06-03T08:16:50.000Z</time>
      </trkpt>
      <trkpt lat="44.96118" lon="-0.46303">
        <ele>22.3</ele>
        <time>2021-06-03T08:16:52.000Z</time>
      </trkpt>
      <trkpt lat="44.96123" lon="-0.46293">
        <ele>22.6</ele>
        <time>2021-06-03T08:16:54.000Z</time>
      </trkpt>
      <trkpt lat="44.96127" lon="-0.46283">
        <ele>22.8</ele>
        <time>2021-06-03T08:16:56.000Z</time>
      </trkpt>
      <trkpt lat="44.96132" lon="-0.46273">
        <ele>23.1</ele>
        <time>2021-06-03T08:16:58.000Z</time>
      </trkpt>
      <trkpt lat="44.96136" lon="-0.46264">
        <ele>23.2</ele>
        <time>2021-06-03T08:17:00.000Z</time>
      </trkpt>
      <trkpt lat="44.96141" lon="-0.46254">
        <ele>23.5</ele>
        <time>2021-06-03T08:17:02.000Z</time>
      </trkpt>
      <trkpt lat="44.96145" lon="-0.46244">
        <ele>23.5</ele>
        <time>2021-06-03T08:17:04.000Z</time>
      </trkpt>
      <trkpt lat="44.96147" lon="-0.46238">
        <ele>23.4</ele>
        <time>2021-06-03T08:17:05.000Z</time>
      </trkpt>
      <trkpt lat="44.9615" lon="-0.46232">
        <ele>23.5</ele>
        <time>2021-06-03T08:17:06.000Z</time>
      </trkpt>
      <trkpt lat="44.96152" lon="-0.46227">
        <ele>23.5</ele>
        <time>2021-06-03T08:17:07.000Z</time>
      </trkpt>
      <trkpt lat="44.96154" lon="-0.46219">
        <ele>23.5</ele>
        <time>2021-06-03T08:17:08.000Z</time>
      </trkpt>
      <trkpt lat="44.96156" lon="-0.46213">
        <ele>23.7</ele>
        <time>2021-06-03T08:17:09.000Z</time>
      </trkpt>
      <trkpt lat="44.96158" lon="-0.46207">
        <ele>23.9</ele>
        <time>2021-06-03T08:17:10.000Z</time>
      </trkpt>
      <trkpt lat="44.96161" lon="-0.46201">
        <ele>23.8</ele>
        <time>2021-06-03T08:17:11.000Z</time>
      </trkpt>
      <trkpt lat="44.96164" lon="-0.46195">
        <ele>23.8</ele>
        <time>2021-06-03T08:17:12.000Z</time>
      </trkpt>
      <trkpt lat="44.96166" lon="-0.46189">
        <ele>23.7</ele>
        <time>2021-06-03T08:17:13.000Z</time>
      </trkpt>
      <trkpt lat="44.96169" lon="-0.46183">
        <ele>23.6</ele>
        <time>2021-06-03T08:17:14.000Z</time>
      </trkpt>
      <trkpt lat="44.96172" lon="-0.46177">
        <ele>23.5</ele>
        <time>2021-06-03T08:17:15.000Z</time>
      </trkpt>
      <trkpt lat="44.96174" lon="-0.46171">
        <ele>23.4</ele>
        <time>2021-06-03T08:17:16.000Z</time>
      </trkpt>
      <trkpt lat="44.96177" lon="-0.46165">
        <ele>23.4</ele>
        <time>2021-06-03T08:17:17.000Z</time>
      </trkpt>
      <trkpt lat="44.96179" lon="-0.46159">
        <ele>23.5</ele>
        <time>2021-06-03T08:17:18.000Z</time>
      </trkpt>
      <trkpt lat="44.96182" lon="-0.46153">
        <ele>23.6</ele>
        <time>2021-06-03T08:17:19.000Z</time>
      </trkpt>
      <trkpt lat="44.96185" lon="-0.46148">
        <ele>23.6</ele>
        <time>2021-06-03T08:17:20.000Z</time>
      </trkpt>
      <trkpt lat="44.96188" lon="-0.46142">
        <ele>23.5</ele>
        <time>2021-06-03T08:17:21.000Z</time>
      </trkpt>
      <trkpt lat="44.9619" lon="-0.46136">
        <ele>23.4</ele>
        <time>2021-06-03T08:17:22.000Z</time>
      </trkpt>
      <trkpt lat="44.96193" lon="-0.4613">
        <ele>23.6</ele>
        <time>2021-06-03T08:17:23.000Z</time>
      </trkpt>
      <trkpt lat="44.96196" lon="-0.46124">
        <ele>23.7</ele>
        <time>2021-06-03T08:17:24.000Z</time>
      </trkpt>
      <trkpt lat="44.96198" lon="-0.46118">
        <ele>23.6</ele>
        <time>2021-06-03T08:17:25.000Z</time>
      </trkpt>
      <trkpt lat="44.96201" lon="-0.46112">
        <ele>23.5</ele>
        <time>2021-06-03T08:17:26.000Z</time>
      </trkpt>
      <trkpt lat="44.96204" lon="-0.46106">
        <ele>23.4</ele>
        <time>2021-06-03T08:17:27.000Z</time>
      </trkpt>
      <trkpt lat="44.96207" lon="-0.461">
        <ele>23.6</ele>
        <time>2021-06-03T08:17:28.000Z</time>
      </trkpt>
      <trkpt lat="44.96209" lon="-0.46094">
        <ele>23.7</ele>
        <time>2021-06-03T08:17:29.000Z</time>
      </trkpt>
      <trkpt lat="44.96212" lon="-0.46088">
        <ele>24</ele>
        <time>2021-06-03T08:17:30.000Z</time>
      </trkpt>
      <trkpt lat="44.96215" lon="-0.46082">
        <ele>24.2</ele>
        <time>2021-06-03T08:17:31.000Z</time>
      </trkpt>
      <trkpt lat="44.96218" lon="-0.46076">
        <ele>24.1</ele>
        <time>2021-06-03T08:17:32.000Z</time>
      </trkpt>
      <trkpt lat="44.9622" lon="-0.46071">
        <ele>24</ele>
        <time>2021-06-03T08:17:33.000Z</time>
      </trkpt>
      <trkpt lat="44.96223" lon="-0.46065">
        <ele>23.9</ele>
        <time>2021-06-03T08:17:34.000Z</time>
      </trkpt>
      <trkpt lat="44.96226" lon="-0.46058">
        <ele>23.4</ele>
        <time>2021-06-03T08:17:35.000Z</time>
      </trkpt>
      <trkpt lat="44.96228" lon="-0.46052">
        <ele>22.9</ele>
        <time>2021-06-03T08:17:36.000Z</time>
      </trkpt>
      <trkpt lat="44.96231" lon="-0.46046">
        <ele>23</ele>
        <time>2021-06-03T08:17:37.000Z</time>
      </trkpt>
      <trkpt lat="44.96234" lon="-0.46039">
        <ele>23</ele>
        <time>2021-06-03T08:17:38.000Z</time>
      </trkpt>
      <trkpt lat="44.96236" lon="-0.46033">
        <ele>23</ele>
        <time>2021-06-03T08:17:39.000Z</time>
      </trkpt>
      <trkpt lat="44.96239" lon="-0.46027">
        <ele>22.8</ele>
        <time>2021-06-03T08:17:40.000Z</time>
      </trkpt>
      <trkpt lat="44.96242" lon="-0.46021">
        <ele>22.7</ele>
        <time>2021-06-03T08:17:41.000Z</time>
      </trkpt>
      <trkpt lat="44.96244" lon="-0.46015">
        <ele>22.7</ele>
        <time>2021-06-03T08:17:42.000Z</time>
      </trkpt>
      <trkpt lat="44.96247" lon="-0.46008">
        <ele>22.8</ele>
        <time>2021-06-03T08:17:43.000Z</time>
      </trkpt>
      <trkpt lat="44.9625" lon="-0.46002">
        <ele>22.7</ele>
        <time>2021-06-03T08:17:44.000Z</time>
      </trkpt>
      <trkpt lat="44.96253" lon="-0.45996">
        <ele>22.6</ele>
        <time>2021-06-03T08:17:45.000Z</time>
      </trkpt>
      <trkpt lat="44.96255" lon="-0.4599">
        <ele>22.5</ele>
        <time>2021-06-03T08:17:46.000Z</time>
      </trkpt>
      <trkpt lat="44.96258" lon="-0.45984">
        <ele>22.3</ele>
        <time>2021-06-03T08:17:47.000Z</time>
      </trkpt>
      <trkpt lat="44.96261" lon="-0.45978">
        <ele>22.2</ele>
        <time>2021-06-03T08:17:48.000Z</time>
      </trkpt>
      <trkpt lat="44.96264" lon="-0.45972">
        <ele>22.5</ele>
        <time>2021-06-03T08:17:49.000Z</time>
      </trkpt>
      <trkpt lat="44.96266" lon="-0.45966">
        <ele>22.7</ele>
        <time>2021-06-03T08:17:50.000Z</time>
      </trkpt>
      <trkpt lat="44.96269" lon="-0.4596">
        <ele>22.5</ele>
        <time>2021-06-03T08:17:51.000Z</time>
      </trkpt>
      <trkpt lat="44.96272" lon="-0.45954">
        <ele>22.4</ele>
        <time>2021-06-03T08:17:52.000Z</time>
      </trkpt>
      <trkpt lat="44.96274" lon="-0.45948">
        <ele>22.2</ele>
        <time>2021-06-03T08:17:53.000Z</time>
      </trkpt>
      <trkpt lat="44.96277" lon="-0.45943">
        <ele>22.5</ele>
        <time>2021-06-03T08:17:54.000Z</time>
      </trkpt>
      <trkpt lat="44.9628" lon="-0.45937">
        <ele>22.7</ele>
        <time>2021-06-03T08:17:55.000Z</time>
      </trkpt>
      <trkpt lat="44.96282" lon="-0.45931">
        <ele>22.6</ele>
        <time>2021-06-03T08:17:56.000Z</time>
      </trkpt>
      <trkpt lat="44.96285" lon="-0.45925">
        <ele>22.6</ele>
        <time>2021-06-03T08:17:57.000Z</time>
      </trkpt>
      <trkpt lat="44.96287" lon="-0.45918">
        <ele>22.5</ele>
        <time>2021-06-03T08:17:58.000Z</time>
      </trkpt>
      <trkpt lat="44.9629" lon="-0.45912">
        <ele>22.2</ele>
        <time>2021-06-03T08:17:59.000Z</time>
      </trkpt>
      <trkpt lat="44.96293" lon="-0.45906">
        <ele>21.9</ele>
        <time>2021-06-03T08:18:00.000Z</time>
      </trkpt>
      <trkpt lat="44.96296" lon="-0.459">
        <ele>21.9</ele>
        <time>2021-06-03T08:18:01.000Z</time>
      </trkpt>
      <trkpt lat="44.96298" lon="-0.45894">
        <ele>21.9</ele>
        <time>2021-06-03T08:18:02.000Z</time>
      </trkpt>
      <trkpt lat="44.96301" lon="-0.45889">
        <ele>21.5</ele>
        <time>2021-06-03T08:18:03.000Z</time>
      </trkpt>
      <trkpt lat="44.96303" lon="-0.45883">
        <ele>21.2</ele>
        <time>2021-06-03T08:18:04.000Z</time>
      </trkpt>
      <trkpt lat="44.96306" lon="-0.45877">
        <ele>21</ele>
        <time>2021-06-03T08:18:05.000Z</time>
      </trkpt>
      <trkpt lat="44.96308" lon="-0.45871">
        <ele>21</ele>
        <time>2021-06-03T08:18:06.000Z</time>
      </trkpt>
      <trkpt lat="44.96311" lon="-0.45864">
        <ele>20.9</ele>
        <time>2021-06-03T08:18:07.000Z</time>
      </trkpt>
      <trkpt lat="44.96313" lon="-0.45857">
        <ele>20.9</ele>
        <time>2021-06-03T08:18:08.000Z</time>
      </trkpt>
      <trkpt lat="44.96316" lon="-0.45851">
        <ele>20.8</ele>
        <time>2021-06-03T08:18:09.000Z</time>
      </trkpt>
      <trkpt lat="44.9632" lon="-0.45845">
        <ele>20.8</ele>
        <time>2021-06-03T08:18:10.000Z</time>
      </trkpt>
      <trkpt lat="44.96323" lon="-0.45839">
        <ele>20.8</ele>
        <time>2021-06-03T08:18:11.000Z</time>
      </trkpt>
      <trkpt lat="44.96326" lon="-0.45832">
        <ele>20.8</ele>
        <time>2021-06-03T08:18:12.000Z</time>
      </trkpt>
      <trkpt lat="44.96329" lon="-0.45826">
        <ele>20.8</ele>
        <time>2021-06-03T08:18:13.000Z</time>
      </trkpt>
      <trkpt lat="44.96332" lon="-0.45819">
        <ele>20.7</ele>
        <time>2021-06-03T08:18:14.000Z</time>
      </trkpt>
      <trkpt lat="44.96335" lon="-0.45812">
        <ele>20.8</ele>
        <time>2021-06-03T08:18:15.000Z</time>
      </trkpt>
      <trkpt lat="44.96338" lon="-0.45805">
        <ele>20.8</ele>
        <time>2021-06-03T08:18:16.000Z</time>
      </trkpt>
      <trkpt lat="44.96342" lon="-0.45798">
        <ele>20.9</ele>
        <time>2021-06-03T08:18:17.000Z</time>
      </trkpt>
      <trkpt lat="44.96345" lon="-0.45791">
        <ele>20.5</ele>
        <time>2021-06-03T08:18:18.000Z</time>
      </trkpt>
      <trkpt lat="44.96348" lon="-0.45784">
        <ele>20.2</ele>
        <time>2021-06-03T08:18:19.000Z</time>
      </trkpt>
      <trkpt lat="44.96351" lon="-0.45777">
        <ele>20.2</ele>
        <time>2021-06-03T08:18:20.000Z</time>
      </trkpt>
      <trkpt lat="44.96354" lon="-0.4577">
        <ele>20.2</ele>
        <time>2021-06-03T08:18:21.000Z</time>
      </trkpt>
      <trkpt lat="44.96358" lon="-0.45763">
        <ele>19.9</ele>
        <time>2021-06-03T08:18:22.000Z</time>
      </trkpt>
      <trkpt lat="44.96361" lon="-0.45756">
        <ele>19.7</ele>
        <time>2021-06-03T08:18:23.000Z</time>
      </trkpt>
      <trkpt lat="44.96364" lon="-0.4575">
        <ele>19.5</ele>
        <time>2021-06-03T08:18:24.000Z</time>
      </trkpt>
      <trkpt lat="44.96367" lon="-0.45743">
        <ele>19.2</ele>
        <time>2021-06-03T08:18:25.000Z</time>
      </trkpt>
      <trkpt lat="44.9637" lon="-0.45736">
        <ele>18.9</ele>
        <time>2021-06-03T08:18:26.000Z</time>
      </trkpt>
      <trkpt lat="44.96374" lon="-0.45729">
        <ele>18.7</ele>
        <time>2021-06-03T08:18:27.000Z</time>
      </trkpt>
      <trkpt lat="44.96377" lon="-0.45722">
        <ele>18.5</ele>
        <time>2021-06-03T08:18:28.000Z</time>
      </trkpt>
      <trkpt lat="44.9638" lon="-0.45715">
        <ele>18.2</ele>
        <time>2021-06-03T08:18:29.000Z</time>
      </trkpt>
      <trkpt lat="44.96384" lon="-0.45708">
        <ele>17.9</ele>
        <time>2021-06-03T08:18:30.000Z</time>
      </trkpt>
      <trkpt lat="44.96387" lon="-0.45701">
        <ele>17.7</ele>
        <time>2021-06-03T08:18:31.000Z</time>
      </trkpt>
      <trkpt lat="44.9639" lon="-0.45694">
        <ele>17.6</ele>
        <time>2021-06-03T08:18:32.000Z</time>
      </trkpt>
      <trkpt lat="44.96394" lon="-0.45687">
        <ele>17.4</ele>
        <time>2021-06-03T08:18:33.000Z</time>
      </trkpt>
      <trkpt lat="44.96397" lon="-0.4568">
        <ele>17</ele>
        <time>2021-06-03T08:18:34.000Z</time>
      </trkpt>
      <trkpt lat="44.964" lon="-0.45673">
        <ele>16.7</ele>
        <time>2021-06-03T08:18:35.000Z</time>
      </trkpt>
      <trkpt lat="44.96404" lon="-0.45666">
        <ele>16.5</ele>
        <time>2021-06-03T08:18:36.000Z</time>
      </trkpt>
      <trkpt lat="44.96407" lon="-0.45659">
        <ele>16.4</ele>
        <time>2021-06-03T08:18:37.000Z</time>
      </trkpt>
      <trkpt lat="44.9641" lon="-0.45652">
        <ele>16.3</ele>
        <time>2021-06-03T08:18:38.000Z</time>
      </trkpt>
      <trkpt lat="44.96414" lon="-0.45645">
        <ele>16.1</ele>
        <time>2021-06-03T08:18:39.000Z</time>
      </trkpt>
      <trkpt lat="44.96417" lon="-0.45638">
        <ele>16</ele>
        <time>2021-06-03T08:18:40.000Z</time>
      </trkpt>
      <trkpt lat="44.96421" lon="-0.45631">
        <ele>16</ele>
        <time>2021-06-03T08:18:41.000Z</time>
      </trkpt>
      <trkpt lat="44.96425" lon="-0.45624">
        <ele>15.9</ele>
        <time>2021-06-03T08:18:42.000Z</time>
      </trkpt>
      <trkpt lat="44.96429" lon="-0.45618">
        <ele>15.9</ele>
        <time>2021-06-03T08:18:43.000Z</time>
      </trkpt>
      <trkpt lat="44.96433" lon="-0.45611">
        <ele>15.7</ele>
        <time>2021-06-03T08:18:44.000Z</time>
      </trkpt>
      <trkpt lat="44.96437" lon="-0.45604">
        <ele>15.6</ele>
        <time>2021-06-03T08:18:45.000Z</time>
      </trkpt>
      <trkpt lat="44.96442" lon="-0.45598">
        <ele>15.4</ele>
        <time>2021-06-03T08:18:46.000Z</time>
      </trkpt>
      <trkpt lat="44.96447" lon="-0.45592">
        <ele>15.3</ele>
        <time>2021-06-03T08:18:47.000Z</time>
      </trkpt>
      <trkpt lat="44.96451" lon="-0.45586">
        <ele>15</ele>
        <time>2021-06-03T08:18:48.000Z</time>
      </trkpt>
      <trkpt lat="44.96456" lon="-0.45579">
        <ele>14.8</ele>
        <time>2021-06-03T08:18:49.000Z</time>
      </trkpt>
      <trkpt lat="44.96462" lon="-0.45573">
        <ele>14.6</ele>
        <time>2021-06-03T08:18:50.000Z</time>
      </trkpt>
      <trkpt lat="44.96467" lon="-0.45567">
        <ele>14.5</ele>
        <time>2021-06-03T08:18:51.000Z</time>
      </trkpt>
      <trkpt lat="44.96472" lon="-0.45561">
        <ele>14.4</ele>
        <time>2021-06-03T08:18:52.000Z</time>
      </trkpt>
      <trkpt lat="44.96478" lon="-0.45555">
        <ele>14</ele>
        <time>2021-06-03T08:18:53.000Z</time>
      </trkpt>
      <trkpt lat="44.96484" lon="-0.45549">
        <ele>13.6</ele>
        <time>2021-06-03T08:18:54.000Z</time>
      </trkpt>
      <trkpt lat="44.9649" lon="-0.45544">
        <ele>13.4</ele>
        <time>2021-06-03T08:18:55.000Z</time>
      </trkpt>
      <trkpt lat="44.96497" lon="-0.45539">
        <ele>13.2</ele>
        <time>2021-06-03T08:18:56.000Z</time>
      </trkpt>
      <trkpt lat="44.96503" lon="-0.45533">
        <ele>13</ele>
        <time>2021-06-03T08:18:57.000Z</time>
      </trkpt>
      <trkpt lat="44.96509" lon="-0.45528">
        <ele>12.5</ele>
        <time>2021-06-03T08:18:58.000Z</time>
      </trkpt>
      <trkpt lat="44.96516" lon="-0.45524">
        <ele>12.1</ele>
        <time>2021-06-03T08:18:59.000Z</time>
      </trkpt>
      <trkpt lat="44.96523" lon="-0.45519">
        <ele>11.9</ele>
        <time>2021-06-03T08:19:00.000Z</time>
      </trkpt>
      <trkpt lat="44.9653" lon="-0.45515">
        <ele>11.7</ele>
        <time>2021-06-03T08:19:01.000Z</time>
      </trkpt>
      <trkpt lat="44.96537" lon="-0.45511">
        <ele>11.6</ele>
        <time>2021-06-03T08:19:02.000Z</time>
      </trkpt>
      <trkpt lat="44.96545" lon="-0.45508">
        <ele>11</ele>
        <time>2021-06-03T08:19:03.000Z</time>
      </trkpt>
      <trkpt lat="44.96552" lon="-0.45504">
        <ele>10.6</ele>
        <time>2021-06-03T08:19:04.000Z</time>
      </trkpt>
      <trkpt lat="44.9656" lon="-0.45501">
        <ele>10.2</ele>
        <time>2021-06-03T08:19:05.000Z</time>
      </trkpt>
      <trkpt lat="44.96567" lon="-0.45498">
        <ele>10</ele>
        <time>2021-06-03T08:19:06.000Z</time>
      </trkpt>
      <trkpt lat="44.96574" lon="-0.45496">
        <ele>9.7</ele>
        <time>2021-06-03T08:19:07.000Z</time>
      </trkpt>
      <trkpt lat="44.96582" lon="-0.45493">
        <ele>9.5</ele>
        <time>2021-06-03T08:19:08.000Z</time>
      </trkpt>
      <trkpt lat="44.9659" lon="-0.45491">
        <ele>9.3</ele>
        <time>2021-06-03T08:19:09.000Z</time>
      </trkpt>
      <trkpt lat="44.96597" lon="-0.45489">
        <ele>9.1</ele>
        <time>2021-06-03T08:19:10.000Z</time>
      </trkpt>
      <trkpt lat="44.96604" lon="-0.45487">
        <ele>9</ele>
        <time>2021-06-03T08:19:11.000Z</time>
      </trkpt>
      <trkpt lat="44.96612" lon="-0.45485">
        <ele>8.8</ele>
        <time>2021-06-03T08:19:12.000Z</time>
      </trkpt>
      <trkpt lat="44.96619" lon="-0.45484">
        <ele>8.6</ele>
        <time>2021-06-03T08:19:13.000Z</time>
      </trkpt>
      <trkpt lat="44.96625" lon="-0.45483">
        <ele>8.4</ele>
        <time>2021-06-03T08:19:14.000Z</time>
      </trkpt>
      <trkpt lat="44.96632" lon="-0.45483">
        <ele>8.2</ele>
        <time>2021-06-03T08:19:15.000Z</time>
      </trkpt>
      <trkpt lat="44.96638" lon="-0.45482">
        <ele>7.9</ele>
        <time>2021-06-03T08:19:16.000Z</time>
      </trkpt>
      <trkpt lat="44.96645" lon="-0.45482">
        <ele>8.2</ele>
        <time>2021-06-03T08:19:17.000Z</time>
      </trkpt>
      <trkpt lat="44.9665" lon="-0.45482">
        <ele>8.4</ele>
        <time>2021-06-03T08:19:18.000Z</time>
      </trkpt>
      <trkpt lat="44.96655" lon="-0.45482">
        <ele>8.3</ele>
        <time>2021-06-03T08:19:19.000Z</time>
      </trkpt>
      <trkpt lat="44.96664" lon="-0.45482">
        <ele>8.2</ele>
        <time>2021-06-03T08:19:21.000Z</time>
      </trkpt>
      <trkpt lat="44.96671" lon="-0.4548">
        <ele>6.9</ele>
        <time>2021-06-03T08:19:23.000Z</time>
      </trkpt>
      <trkpt lat="44.96674" lon="-0.45478">
        <ele>6.6</ele>
        <time>2021-06-03T08:19:24.000Z</time>
      </trkpt>
      <trkpt lat="44.96671" lon="-0.45464">
        <ele>5.1</ele>
        <time>2021-06-03T08:19:44.000Z</time>
      </trkpt>
      <trkpt lat="44.96679" lon="-0.45465">
        <ele>5.4</ele>
        <time>2021-06-03T08:21:53.000Z</time>
      </trkpt>
      <trkpt lat="44.96681" lon="-0.45467">
        <ele>5.4</ele>
        <time>2021-06-03T08:21:54.000Z</time>
      </trkpt>
      <trkpt lat="44.96693" lon="-0.45482">
        <ele>6.9</ele>
        <time>2021-06-03T08:22:21.000Z</time>
      </trkpt>
      <trkpt lat="44.96698" lon="-0.45491">
        <ele>7.2</ele>
        <time>2021-06-03T08:22:27.000Z</time>
      </trkpt>
      <trkpt lat="44.96705" lon="-0.45493">
        <ele>8</ele>
        <time>2021-06-03T08:22:30.000Z</time>
      </trkpt>
      <trkpt lat="44.9671" lon="-0.45503">
        <ele>8.2</ele>
        <time>2021-06-03T08:22:34.000Z</time>
      </trkpt>
      <trkpt lat="44.96713" lon="-0.45511">
        <ele>7.7</ele>
        <time>2021-06-03T08:22:36.000Z</time>
      </trkpt>
      <trkpt lat="44.96717" lon="-0.45521">
        <ele>7.1</ele>
        <time>2021-06-03T08:22:38.000Z</time>
      </trkpt>
      <trkpt lat="44.9672" lon="-0.45526">
        <ele>6.9</ele>
        <time>2021-06-03T08:22:39.000Z</time>
      </trkpt>
      <trkpt lat="44.96723" lon="-0.45532">
        <ele>6.8</ele>
        <time>2021-06-03T08:22:40.000Z</time>
      </trkpt>
      <trkpt lat="44.96727" lon="-0.45538">
        <ele>6.7</ele>
        <time>2021-06-03T08:22:41.000Z</time>
      </trkpt>
      <trkpt lat="44.9673" lon="-0.45544">
        <ele>6.6</ele>
        <time>2021-06-03T08:22:42.000Z</time>
      </trkpt>
      <trkpt lat="44.96734" lon="-0.45549">
        <ele>6.5</ele>
        <time>2021-06-03T08:22:43.000Z</time>
      </trkpt>
      <trkpt lat="44.96738" lon="-0.45555">
        <ele>6.4</ele>
        <time>2021-06-03T08:22:44.000Z</time>
      </trkpt>
      <trkpt lat="44.96742" lon="-0.45559">
        <ele>6.3</ele>
        <time>2021-06-03T08:22:45.000Z</time>
      </trkpt>
      <trkpt lat="44.96746" lon="-0.45563">
        <ele>6.1</ele>
        <time>2021-06-03T08:22:46.000Z</time>
      </trkpt>
      <trkpt lat="44.96751" lon="-0.45567">
        <ele>5.9</ele>
        <time>2021-06-03T08:22:47.000Z</time>
      </trkpt>
      <trkpt lat="44.96755" lon="-0.45571">
        <ele>5.8</ele>
        <time>2021-06-03T08:22:48.000Z</time>
      </trkpt>
      <trkpt lat="44.96759" lon="-0.45574">
        <ele>5.7</ele>
        <time>2021-06-03T08:22:49.000Z</time>
      </trkpt>
      <trkpt lat="44.96763" lon="-0.45576">
        <ele>5.7</ele>
        <time>2021-06-03T08:22:50.000Z</time>
      </trkpt>
      <trkpt lat="44.96768" lon="-0.45577">
        <ele>5.7</ele>
        <time>2021-06-03T08:22:51.000Z</time>
      </trkpt>
      <trkpt lat="44.96776" lon="-0.45575">
        <ele>5.8</ele>
        <time>2021-06-03T08:22:53.000Z</time>
      </trkpt>
      <trkpt lat="44.96783" lon="-0.45572">
        <ele>5.9</ele>
        <time>2021-06-03T08:22:55.000Z</time>
      </trkpt>
      <trkpt lat="44.96786" lon="-0.4557">
        <ele>5.9</ele>
        <time>2021-06-03T08:22:56.000Z</time>
      </trkpt>
      <trkpt lat="44.96793" lon="-0.45561">
        <ele>5.8</ele>
        <time>2021-06-03T08:22:59.000Z</time>
      </trkpt>
      <trkpt lat="44.96798" lon="-0.45557">
        <ele>6.1</ele>
        <time>2021-06-03T08:23:01.000Z</time>
      </trkpt>
      <trkpt lat="44.96805" lon="-0.45551">
        <ele>6.5</ele>
        <time>2021-06-03T08:23:04.000Z</time>
      </trkpt>
      <trkpt lat="44.96812" lon="-0.45545">
        <ele>7.4</ele>
        <time>2021-06-03T08:23:07.000Z</time>
      </trkpt>
      <trkpt lat="44.96818" lon="-0.45541">
        <ele>8</ele>
        <time>2021-06-03T08:23:10.000Z</time>
      </trkpt>
      <trkpt lat="44.96826" lon="-0.45535">
        <ele>8.8</ele>
        <time>2021-06-03T08:23:14.000Z</time>
      </trkpt>
      <trkpt lat="44.96833" lon="-0.4553">
        <ele>9.7</ele>
        <time>2021-06-03T08:23:19.000Z</time>
      </trkpt>
      <trkpt lat="44.96841" lon="-0.45524">
        <ele>11</ele>
        <time>2021-06-03T08:23:25.000Z</time>
      </trkpt>
      <trkpt lat="44.96848" lon="-0.45519">
        <ele>11.2</ele>
        <time>2021-06-03T08:23:30.000Z</time>
      </trkpt>
      <trkpt lat="44.96855" lon="-0.45514">
        <ele>12.2</ele>
        <time>2021-06-03T08:23:34.000Z</time>
      </trkpt>
      <trkpt lat="44.96863" lon="-0.45508">
        <ele>12.5</ele>
        <time>2021-06-03T08:23:38.000Z</time>
      </trkpt>
      <trkpt lat="44.96869" lon="-0.45504">
        <ele>13.2</ele>
        <time>2021-06-03T08:23:41.000Z</time>
      </trkpt>
      <trkpt lat="44.96876" lon="-0.45501">
        <ele>13.9</ele>
        <time>2021-06-03T08:23:44.000Z</time>
      </trkpt>
      <trkpt lat="44.96883" lon="-0.45498">
        <ele>14.4</ele>
        <time>2021-06-03T08:23:47.000Z</time>
      </trkpt>
      <trkpt lat="44.96889" lon="-0.45496">
        <ele>14.9</ele>
        <time>2021-06-03T08:23:50.000Z</time>
      </trkpt>
      <trkpt lat="44.96896" lon="-0.45491">
        <ele>15.8</ele>
        <time>2021-06-03T08:23:53.000Z</time>
      </trkpt>
      <trkpt lat="44.96903" lon="-0.45487">
        <ele>16.6</ele>
        <time>2021-06-03T08:23:56.000Z</time>
      </trkpt>
      <trkpt lat="44.96906" lon="-0.45486">
        <ele>17.1</ele>
        <time>2021-06-03T08:23:57.000Z</time>
      </trkpt>
      <trkpt lat="44.96912" lon="-0.45496">
        <ele>20.2</ele>
        <time>2021-06-03T08:24:08.000Z</time>
      </trkpt>
      <trkpt lat="44.96906" lon="-0.45504">
        <ele>20</ele>
        <time>2021-06-03T08:24:12.000Z</time>
      </trkpt>
      <trkpt lat="44.96901" lon="-0.45513">
        <ele>20.2</ele>
        <time>2021-06-03T08:24:16.000Z</time>
      </trkpt>
      <trkpt lat="44.96897" lon="-0.45524">
        <ele>21.7</ele>
        <time>2021-06-03T08:24:25.000Z</time>
      </trkpt>
      <trkpt lat="44.96889" lon="-0.45531">
        <ele>21.9</ele>
        <time>2021-06-03T08:24:37.000Z</time>
      </trkpt>
      <trkpt lat="44.96891" lon="-0.45519">
        <ele>22</ele>
        <time>2021-06-03T08:28:38.000Z</time>
      </trkpt>
      <trkpt lat="44.96891" lon="-0.45518">
        <ele>21.9</ele>
        <time>2021-06-03T08:28:39.000Z</time>
      </trkpt>
      <trkpt lat="44.96894" lon="-0.45506">
        <ele>23.2</ele>
        <time>2021-06-03T08:29:47.000Z</time>
      </trkpt>
      <trkpt lat="44.96903" lon="-0.45492">
        <ele>22.4</ele>
        <time>2021-06-03T08:29:51.000Z</time>
      </trkpt>
      <trkpt lat="44.96908" lon="-0.45485">
        <ele>21.8</ele>
        <time>2021-06-03T08:29:53.000Z</time>
      </trkpt>
      <trkpt lat="44.96913" lon="-0.45475">
        <ele>21.4</ele>
        <time>2021-06-03T08:29:57.000Z</time>
      </trkpt>
      <trkpt lat="44.96913" lon="-0.45463">
        <ele>20.6</ele>
        <time>2021-06-03T08:30:04.000Z</time>
      </trkpt>
      <trkpt lat="44.96918" lon="-0.45454">
        <ele>20.7</ele>
        <time>2021-06-03T08:30:09.000Z</time>
      </trkpt>
      <trkpt lat="44.96925" lon="-0.45452">
        <ele>20.7</ele>
        <time>2021-06-03T08:30:12.000Z</time>
      </trkpt>
      <trkpt lat="44.96931" lon="-0.4545">
        <ele>20.8</ele>
        <time>2021-06-03T08:30:15.000Z</time>
      </trkpt>
      <trkpt lat="44.96938" lon="-0.45447">
        <ele>21.3</ele>
        <time>2021-06-03T08:30:18.000Z</time>
      </trkpt>
      <trkpt lat="44.96945" lon="-0.45445">
        <ele>21.9</ele>
        <time>2021-06-03T08:30:21.000Z</time>
      </trkpt>
      <trkpt lat="44.96953" lon="-0.45442">
        <ele>22.2</ele>
        <time>2021-06-03T08:30:24.000Z</time>
      </trkpt>
      <trkpt lat="44.9696" lon="-0.4544">
        <ele>22.3</ele>
        <time>2021-06-03T08:30:27.000Z</time>
      </trkpt>
      <trkpt lat="44.96967" lon="-0.45437">
        <ele>23.5</ele>
        <time>2021-06-03T08:30:30.000Z</time>
      </trkpt>
      <trkpt lat="44.96973" lon="-0.45435">
        <ele>23.5</ele>
        <time>2021-06-03T08:30:32.000Z</time>
      </trkpt>
      <trkpt lat="44.96979" lon="-0.45433">
        <ele>23.9</ele>
        <time>2021-06-03T08:30:34.000Z</time>
      </trkpt>
      <trkpt lat="44.96987" lon="-0.45429">
        <ele>24.3</ele>
        <time>2021-06-03T08:30:37.000Z</time>
      </trkpt>
      <trkpt lat="44.96995" lon="-0.45423">
        <ele>24.2</ele>
        <time>2021-06-03T08:30:40.000Z</time>
      </trkpt>
      <trkpt lat="44.97002" lon="-0.45419">
        <ele>24.4</ele>
        <time>2021-06-03T08:30:43.000Z</time>
      </trkpt>
      <trkpt lat="44.9701" lon="-0.45414">
        <ele>24.6</ele>
        <time>2021-06-03T08:30:46.000Z</time>
      </trkpt>
      <trkpt lat="44.97018" lon="-0.4541">
        <ele>25.3</ele>
        <time>2021-06-03T08:30:49.000Z</time>
      </trkpt>
      <trkpt lat="44.97021" lon="-0.45409">
        <ele>25.5</ele>
        <time>2021-06-03T08:30:50.000Z</time>
      </trkpt>
      <trkpt lat="44.97034" lon="-0.45402">
        <ele>26.5</ele>
        <time>2021-06-03T08:30:55.000Z</time>
      </trkpt>
      <trkpt lat="44.97042" lon="-0.45398">
        <ele>26.6</ele>
        <time>2021-06-03T08:30:58.000Z</time>
      </trkpt>
      <trkpt lat="44.9705" lon="-0.45394">
        <ele>25.9</ele>
        <time>2021-06-03T08:31:01.000Z</time>
      </trkpt>
      <trkpt lat="44.97058" lon="-0.4539">
        <ele>26.8</ele>
        <time>2021-06-03T08:31:04.000Z</time>
      </trkpt>
      <trkpt lat="44.97066" lon="-0.45386">
        <ele>27.1</ele>
        <time>2021-06-03T08:31:07.000Z</time>
      </trkpt>
      <trkpt lat="44.97074" lon="-0.45382">
        <ele>27.9</ele>
        <time>2021-06-03T08:31:10.000Z</time>
      </trkpt>
      <trkpt lat="44.97082" lon="-0.45379">
        <ele>27.5</ele>
        <time>2021-06-03T08:31:13.000Z</time>
      </trkpt>
      <trkpt lat="44.97089" lon="-0.45374">
        <ele>28.2</ele>
        <time>2021-06-03T08:31:16.000Z</time>
      </trkpt>
      <trkpt lat="44.97097" lon="-0.4537">
        <ele>28.3</ele>
        <time>2021-06-03T08:31:19.000Z</time>
      </trkpt>
      <trkpt lat="44.97102" lon="-0.45367">
        <ele>28.3</ele>
        <time>2021-06-03T08:31:21.000Z</time>
      </trkpt>
      <trkpt lat="44.97109" lon="-0.45364">
        <ele>28.4</ele>
        <time>2021-06-03T08:31:23.000Z</time>
      </trkpt>
      <trkpt lat="44.97116" lon="-0.45361">
        <ele>28.7</ele>
        <time>2021-06-03T08:31:25.000Z</time>
      </trkpt>
      <trkpt lat="44.97122" lon="-0.45359">
        <ele>29.1</ele>
        <time>2021-06-03T08:31:27.000Z</time>
      </trkpt>
      <trkpt lat="44.9713" lon="-0.45356">
        <ele>29.4</ele>
        <time>2021-06-03T08:31:30.000Z</time>
      </trkpt>
      <trkpt lat="44.97138" lon="-0.45352">
        <ele>29.5</ele>
        <time>2021-06-03T08:31:34.000Z</time>
      </trkpt>
      <trkpt lat="44.97146" lon="-0.45353">
        <ele>29.5</ele>
        <time>2021-06-03T08:31:50.000Z</time>
      </trkpt>
      <trkpt lat="44.97148" lon="-0.45354">
        <ele>29.7</ele>
        <time>2021-06-03T08:31:51.000Z</time>
      </trkpt>
      <trkpt lat="44.97161" lon="-0.45353">
        <ele>29.8</ele>
        <time>2021-06-03T08:31:58.000Z</time>
      </trkpt>
      <trkpt lat="44.97168" lon="-0.45346">
        <ele>29.9</ele>
        <time>2021-06-03T08:32:07.000Z</time>
      </trkpt>
      <trkpt lat="44.97174" lon="-0.45338">
        <ele>30.4</ele>
        <time>2021-06-03T08:32:22.000Z</time>
      </trkpt>
      <trkpt lat="44.97171" lon="-0.45327">
        <ele>33.5</ele>
        <time>2021-06-03T08:38:26.000Z</time>
      </trkpt>
      <trkpt lat="44.97171" lon="-0.45326">
        <ele>33.3</ele>
        <time>2021-06-03T08:38:27.000Z</time>
      </trkpt>
      <trkpt lat="44.97163" lon="-0.45319">
        <ele>37.1</ele>
        <time>2021-06-03T08:43:25.000Z</time>
      </trkpt>
      <trkpt lat="44.97147" lon="-0.45325">
        <ele>37</ele>
        <time>2021-06-03T08:43:56.000Z</time>
      </trkpt>
      <trkpt lat="44.97143" lon="-0.45315">
        <ele>37.1</ele>
        <time>2021-06-03T08:44:07.000Z</time>
      </trkpt>
      <trkpt lat="44.9714" lon="-0.45305">
        <ele>37.8</ele>
        <time>2021-06-03T08:44:10.000Z</time>
      </trkpt>
      <trkpt lat="44.97137" lon="-0.45293">
        <ele>38.5</ele>
        <time>2021-06-03T08:44:13.000Z</time>
      </trkpt>
      <trkpt lat="44.97135" lon="-0.45285">
        <ele>38.6</ele>
        <time>2021-06-03T08:44:15.000Z</time>
      </trkpt>
      <trkpt lat="44.97133" lon="-0.45276">
        <ele>39</ele>
        <time>2021-06-03T08:44:17.000Z</time>
      </trkpt>
      <trkpt lat="44.97132" lon="-0.45268">
        <ele>39</ele>
        <time>2021-06-03T08:44:19.000Z</time>
      </trkpt>
      <trkpt lat="44.97131" lon="-0.45259">
        <ele>38.7</ele>
        <time>2021-06-03T08:44:21.000Z</time>
      </trkpt>
      <trkpt lat="44.9713" lon="-0.45247">
        <ele>38.5</ele>
        <time>2021-06-03T08:44:24.000Z</time>
      </trkpt>
      <trkpt lat="44.97128" lon="-0.45234">
        <ele>38.5</ele>
        <time>2021-06-03T08:44:27.000Z</time>
      </trkpt>
      <trkpt lat="44.97128" lon="-0.4523">
        <ele>38.5</ele>
        <time>2021-06-03T08:44:28.000Z</time>
      </trkpt>
      <trkpt lat="44.97126" lon="-0.45217">
        <ele>39</ele>
        <time>2021-06-03T08:44:31.000Z</time>
      </trkpt>
      <trkpt lat="44.97125" lon="-0.45207">
        <ele>38.9</ele>
        <time>2021-06-03T08:44:33.000Z</time>
      </trkpt>
      <trkpt lat="44.97124" lon="-0.45198">
        <ele>38.8</ele>
        <time>2021-06-03T08:44:35.000Z</time>
      </trkpt>
      <trkpt lat="44.97123" lon="-0.45189">
        <ele>39.6</ele>
        <time>2021-06-03T08:44:37.000Z</time>
      </trkpt>
      <trkpt lat="44.97122" lon="-0.4518">
        <ele>40</ele>
        <time>2021-06-03T08:44:39.000Z</time>
      </trkpt>
      <trkpt lat="44.97121" lon="-0.45172">
        <ele>39.4</ele>
        <time>2021-06-03T08:44:41.000Z</time>
      </trkpt>
      <trkpt lat="44.9712" lon="-0.45163">
        <ele>38.8</ele>
        <time>2021-06-03T08:44:43.000Z</time>
      </trkpt>
      <trkpt lat="44.97119" lon="-0.45154">
        <ele>38.8</ele>
        <time>2021-06-03T08:44:45.000Z</time>
      </trkpt>
      <trkpt lat="44.97118" lon="-0.45145">
        <ele>39.3</ele>
        <time>2021-06-03T08:44:47.000Z</time>
      </trkpt>
      <trkpt lat="44.97118" lon="-0.45135">
        <ele>39.7</ele>
        <time>2021-06-03T08:44:49.000Z</time>
      </trkpt>
      <trkpt lat="44.97119" lon="-0.45126">
        <ele>40.1</ele>
        <time>2021-06-03T08:44:51.000Z</time>
      </trkpt>
      <trkpt lat="44.97122" lon="-0.45116">
        <ele>40.6</ele>
        <time>2021-06-03T08:44:53.000Z</time>
      </trkpt>
      <trkpt lat="44.97125" lon="-0.45106">
        <ele>40.9</ele>
        <time>2021-06-03T08:44:55.000Z</time>
      </trkpt>
      <trkpt lat="44.97128" lon="-0.45097">
        <ele>40.7</ele>
        <time>2021-06-03T08:44:57.000Z</time>
      </trkpt>
      <trkpt lat="44.97131" lon="-0.45087">
        <ele>40.5</ele>
        <time>2021-06-03T08:44:59.000Z</time>
      </trkpt>
      <trkpt lat="44.97135" lon="-0.45078">
        <ele>40.4</ele>
        <time>2021-06-03T08:45:01.000Z</time>
      </trkpt>
      <trkpt lat="44.97138" lon="-0.45068">
        <ele>40.4</ele>
        <time>2021-06-03T08:45:03.000Z</time>
      </trkpt>
      <trkpt lat="44.97141" lon="-0.45058">
        <ele>40.4</ele>
        <time>2021-06-03T08:45:05.000Z</time>
      </trkpt>
      <trkpt lat="44.97144" lon="-0.45049">
        <ele>39.9</ele>
        <time>2021-06-03T08:45:07.000Z</time>
      </trkpt>
      <trkpt lat="44.97145" lon="-0.45039">
        <ele>40</ele>
        <time>2021-06-03T08:45:09.000Z</time>
      </trkpt>
      <trkpt lat="44.97147" lon="-0.45028">
        <ele>40.5</ele>
        <time>2021-06-03T08:45:11.000Z</time>
      </trkpt>
      <trkpt lat="44.97147" lon="-0.45017">
        <ele>40.7</ele>
        <time>2021-06-03T08:45:13.000Z</time>
      </trkpt>
      <trkpt lat="44.97147" lon="-0.45007">
        <ele>40.8</ele>
        <time>2021-06-03T08:45:15.000Z</time>
      </trkpt>
      <trkpt lat="44.97147" lon="-0.44996">
        <ele>41.3</ele>
        <time>2021-06-03T08:45:17.000Z</time>
      </trkpt>
      <trkpt lat="44.97147" lon="-0.44986">
        <ele>41.6</ele>
        <time>2021-06-03T08:45:19.000Z</time>
      </trkpt>
      <trkpt lat="44.97147" lon="-0.44975">
        <ele>41.7</ele>
        <time>2021-06-03T08:45:21.000Z</time>
      </trkpt>
      <trkpt lat="44.97146" lon="-0.44965">
        <ele>41.6</ele>
        <time>2021-06-03T08:45:23.000Z</time>
      </trkpt>
      <trkpt lat="44.97144" lon="-0.44956">
        <ele>41.6</ele>
        <time>2021-06-03T08:45:25.000Z</time>
      </trkpt>
      <trkpt lat="44.97142" lon="-0.44947">
        <ele>41.6</ele>
        <time>2021-06-03T08:45:27.000Z</time>
      </trkpt>
      <trkpt lat="44.9714" lon="-0.44938">
        <ele>42.2</ele>
        <time>2021-06-03T08:45:29.000Z</time>
      </trkpt>
      <trkpt lat="44.97139" lon="-0.44933">
        <ele>42</ele>
        <time>2021-06-03T08:45:30.000Z</time>
      </trkpt>
      <trkpt lat="44.97136" lon="-0.44918">
        <ele>42.1</ele>
        <time>2021-06-03T08:45:33.000Z</time>
      </trkpt>
      <trkpt lat="44.97134" lon="-0.44909">
        <ele>42.6</ele>
        <time>2021-06-03T08:45:35.000Z</time>
      </trkpt>
      <trkpt lat="44.97133" lon="-0.449">
        <ele>42.9</ele>
        <time>2021-06-03T08:45:37.000Z</time>
      </trkpt>
      <trkpt lat="44.97132" lon="-0.44891">
        <ele>43.1</ele>
        <time>2021-06-03T08:45:39.000Z</time>
      </trkpt>
      <trkpt lat="44.97131" lon="-0.44882">
        <ele>42.6</ele>
        <time>2021-06-03T08:45:41.000Z</time>
      </trkpt>
      <trkpt lat="44.9713" lon="-0.44873">
        <ele>43.3</ele>
        <time>2021-06-03T08:45:43.000Z</time>
      </trkpt>
      <trkpt lat="44.9713" lon="-0.44863">
        <ele>44</ele>
        <time>2021-06-03T08:45:45.000Z</time>
      </trkpt>
      <trkpt lat="44.97129" lon="-0.44853">
        <ele>44.2</ele>
        <time>2021-06-03T08:45:47.000Z</time>
      </trkpt>
      <trkpt lat="44.97127" lon="-0.44843">
        <ele>43.9</ele>
        <time>2021-06-03T08:45:49.000Z</time>
      </trkpt>
      <trkpt lat="44.97125" lon="-0.44833">
        <ele>43.8</ele>
        <time>2021-06-03T08:45:51.000Z</time>
      </trkpt>
      <trkpt lat="44.97123" lon="-0.44824">
        <ele>44</ele>
        <time>2021-06-03T08:45:53.000Z</time>
      </trkpt>
      <trkpt lat="44.97121" lon="-0.44814">
        <ele>43.8</ele>
        <time>2021-06-03T08:45:55.000Z</time>
      </trkpt>
      <trkpt lat="44.97118" lon="-0.44805">
        <ele>44.3</ele>
        <time>2021-06-03T08:45:57.000Z</time>
      </trkpt>
      <trkpt lat="44.97116" lon="-0.44797">
        <ele>44.8</ele>
        <time>2021-06-03T08:45:59.000Z</time>
      </trkpt>
      <trkpt lat="44.97113" lon="-0.44789">
        <ele>45</ele>
        <time>2021-06-03T08:46:01.000Z</time>
      </trkpt>
      <trkpt lat="44.9711" lon="-0.4478">
        <ele>45.3</ele>
        <time>2021-06-03T08:46:03.000Z</time>
      </trkpt>
      <trkpt lat="44.97107" lon="-0.44772">
        <ele>45.7</ele>
        <time>2021-06-03T08:46:05.000Z</time>
      </trkpt>
      <trkpt lat="44.97104" lon="-0.44763">
        <ele>45.5</ele>
        <time>2021-06-03T08:46:07.000Z</time>
      </trkpt>
      <trkpt lat="44.97102" lon="-0.44753">
        <ele>46.1</ele>
        <time>2021-06-03T08:46:09.000Z</time>
      </trkpt>
      <trkpt lat="44.97102" lon="-0.44743">
        <ele>46.5</ele>
        <time>2021-06-03T08:46:11.000Z</time>
      </trkpt>
      <trkpt lat="44.97105" lon="-0.44734">
        <ele>46</ele>
        <time>2021-06-03T08:46:13.000Z</time>
      </trkpt>
      <trkpt lat="44.97108" lon="-0.44726">
        <ele>45.9</ele>
        <time>2021-06-03T08:46:15.000Z</time>
      </trkpt>
      <trkpt lat="44.97113" lon="-0.44718">
        <ele>46.2</ele>
        <time>2021-06-03T08:46:17.000Z</time>
      </trkpt>
      <trkpt lat="44.97117" lon="-0.4471">
        <ele>47</ele>
        <time>2021-06-03T08:46:19.000Z</time>
      </trkpt>
      <trkpt lat="44.97121" lon="-0.447">
        <ele>47.2</ele>
        <time>2021-06-03T08:46:21.000Z</time>
      </trkpt>
      <trkpt lat="44.97124" lon="-0.44689">
        <ele>47.2</ele>
        <time>2021-06-03T08:46:23.000Z</time>
      </trkpt>
      <trkpt lat="44.97126" lon="-0.44682">
        <ele>47.2</ele>
        <time>2021-06-03T08:46:24.000Z</time>
      </trkpt>
      <trkpt lat="44.97128" lon="-0.4467">
        <ele>47.2</ele>
        <time>2021-06-03T08:46:26.000Z</time>
      </trkpt>
      <trkpt lat="44.97128" lon="-0.44664">
        <ele>47.4</ele>
        <time>2021-06-03T08:46:27.000Z</time>
      </trkpt>
      <trkpt lat="44.97128" lon="-0.44657">
        <ele>47.5</ele>
        <time>2021-06-03T08:46:28.000Z</time>
      </trkpt>
      <trkpt lat="44.97128" lon="-0.44645">
        <ele>47.5</ele>
        <time>2021-06-03T08:46:30.000Z</time>
      </trkpt>
      <trkpt lat="44.97128" lon="-0.44639">
        <ele>47.4</ele>
        <time>2021-06-03T08:46:31.000Z</time>
      </trkpt>
      <trkpt lat="44.97126" lon="-0.44626">
        <ele>47.5</ele>
        <time>2021-06-03T08:46:33.000Z</time>
      </trkpt>
      <trkpt lat="44.97126" lon="-0.4462">
        <ele>47.4</ele>
        <time>2021-06-03T08:46:34.000Z</time>
      </trkpt>
      <trkpt lat="44.97124" lon="-0.44608">
        <ele>47.3</ele>
        <time>2021-06-03T08:46:36.000Z</time>
      </trkpt>
      <trkpt lat="44.97123" lon="-0.44601">
        <ele>47.2</ele>
        <time>2021-06-03T08:46:37.000Z</time>
      </trkpt>
      <trkpt lat="44.97122" lon="-0.44595">
        <ele>47.1</ele>
        <time>2021-06-03T08:46:38.000Z</time>
      </trkpt>
      <trkpt lat="44.97122" lon="-0.44589">
        <ele>47.1</ele>
        <time>2021-06-03T08:46:39.000Z</time>
      </trkpt>
      <trkpt lat="44.97121" lon="-0.44582">
        <ele>47.1</ele>
        <time>2021-06-03T08:46:40.000Z</time>
      </trkpt>
      <trkpt lat="44.97121" lon="-0.44576">
        <ele>47.2</ele>
        <time>2021-06-03T08:46:41.000Z</time>
      </trkpt>
      <trkpt lat="44.9712" lon="-0.44569">
        <ele>47.2</ele>
        <time>2021-06-03T08:46:42.000Z</time>
      </trkpt>
      <trkpt lat="44.9712" lon="-0.44563">
        <ele>47.2</ele>
        <time>2021-06-03T08:46:43.000Z</time>
      </trkpt>
      <trkpt lat="44.9712" lon="-0.44557">
        <ele>47.5</ele>
        <time>2021-06-03T08:46:44.000Z</time>
      </trkpt>
      <trkpt lat="44.9712" lon="-0.4455">
        <ele>47.7</ele>
        <time>2021-06-03T08:46:45.000Z</time>
      </trkpt>
      <trkpt lat="44.97121" lon="-0.44543">
        <ele>47.6</ele>
        <time>2021-06-03T08:46:46.000Z</time>
      </trkpt>
      <trkpt lat="44.97121" lon="-0.44537">
        <ele>47.5</ele>
        <time>2021-06-03T08:46:47.000Z</time>
      </trkpt>
      <trkpt lat="44.97122" lon="-0.44531">
        <ele>47.6</ele>
        <time>2021-06-03T08:46:48.000Z</time>
      </trkpt>
      <trkpt lat="44.97122" lon="-0.44524">
        <ele>47.6</ele>
        <time>2021-06-03T08:46:49.000Z</time>
      </trkpt>
      <trkpt lat="44.97123" lon="-0.44518">
        <ele>47.7</ele>
        <time>2021-06-03T08:46:50.000Z</time>
      </trkpt>
      <trkpt lat="44.97124" lon="-0.44511">
        <ele>47.5</ele>
        <time>2021-06-03T08:46:51.000Z</time>
      </trkpt>
      <trkpt lat="44.97124" lon="-0.44505">
        <ele>47.4</ele>
        <time>2021-06-03T08:46:52.000Z</time>
      </trkpt>
      <trkpt lat="44.97125" lon="-0.44493">
        <ele>47.8</ele>
        <time>2021-06-03T08:46:54.000Z</time>
      </trkpt>
      <trkpt lat="44.97127" lon="-0.4448">
        <ele>47.8</ele>
        <time>2021-06-03T08:46:56.000Z</time>
      </trkpt>
      <trkpt lat="44.97128" lon="-0.44468">
        <ele>47.6</ele>
        <time>2021-06-03T08:46:58.000Z</time>
      </trkpt>
      <trkpt lat="44.97129" lon="-0.44456">
        <ele>47.9</ele>
        <time>2021-06-03T08:47:00.000Z</time>
      </trkpt>
      <trkpt lat="44.97131" lon="-0.44445">
        <ele>48.5</ele>
        <time>2021-06-03T08:47:02.000Z</time>
      </trkpt>
      <trkpt lat="44.97132" lon="-0.44434">
        <ele>48.5</ele>
        <time>2021-06-03T08:47:04.000Z</time>
      </trkpt>
      <trkpt lat="44.97133" lon="-0.44422">
        <ele>49</ele>
        <time>2021-06-03T08:47:06.000Z</time>
      </trkpt>
      <trkpt lat="44.97133" lon="-0.44411">
        <ele>49.3</ele>
        <time>2021-06-03T08:47:08.000Z</time>
      </trkpt>
      <trkpt lat="44.97134" lon="-0.44399">
        <ele>49.7</ele>
        <time>2021-06-03T08:47:10.000Z</time>
      </trkpt>
      <trkpt lat="44.97135" lon="-0.44387">
        <ele>50</ele>
        <time>2021-06-03T08:47:12.000Z</time>
      </trkpt>
      <trkpt lat="44.97135" lon="-0.44376">
        <ele>50</ele>
        <time>2021-06-03T08:47:14.000Z</time>
      </trkpt>
      <trkpt lat="44.97135" lon="-0.44364">
        <ele>49.6</ele>
        <time>2021-06-03T08:47:16.000Z</time>
      </trkpt>
      <trkpt lat="44.97134" lon="-0.44352">
        <ele>49.7</ele>
        <time>2021-06-03T08:47:18.000Z</time>
      </trkpt>
      <trkpt lat="44.97133" lon="-0.4434">
        <ele>50.1</ele>
        <time>2021-06-03T08:47:20.000Z</time>
      </trkpt>
      <trkpt lat="44.97131" lon="-0.44328">
        <ele>50.1</ele>
        <time>2021-06-03T08:47:22.000Z</time>
      </trkpt>
      <trkpt lat="44.97131" lon="-0.44321">
        <ele>50.1</ele>
        <time>2021-06-03T08:47:23.000Z</time>
      </trkpt>
      <trkpt lat="44.9713" lon="-0.44315">
        <ele>50.1</ele>
        <time>2021-06-03T08:47:24.000Z</time>
      </trkpt>
      <trkpt lat="44.97129" lon="-0.44308">
        <ele>50.1</ele>
        <time>2021-06-03T08:47:25.000Z</time>
      </trkpt>
      <trkpt lat="44.97128" lon="-0.44302">
        <ele>50.5</ele>
        <time>2021-06-03T08:47:26.000Z</time>
      </trkpt>
      <trkpt lat="44.97127" lon="-0.44295">
        <ele>50.8</ele>
        <time>2021-06-03T08:47:27.000Z</time>
      </trkpt>
      <trkpt lat="44.97126" lon="-0.44289">
        <ele>51</ele>
        <time>2021-06-03T08:47:28.000Z</time>
      </trkpt>
      <trkpt lat="44.97124" lon="-0.44282">
        <ele>50.8</ele>
        <time>2021-06-03T08:47:29.000Z</time>
      </trkpt>
      <trkpt lat="44.97123" lon="-0.44276">
        <ele>50.6</ele>
        <time>2021-06-03T08:47:30.000Z</time>
      </trkpt>
      <trkpt lat="44.97122" lon="-0.44269">
        <ele>50.4</ele>
        <time>2021-06-03T08:47:31.000Z</time>
      </trkpt>
      <trkpt lat="44.97121" lon="-0.44263">
        <ele>50.2</ele>
        <time>2021-06-03T08:47:32.000Z</time>
      </trkpt>
      <trkpt lat="44.9712" lon="-0.44256">
        <ele>50.1</ele>
        <time>2021-06-03T08:47:33.000Z</time>
      </trkpt>
      <trkpt lat="44.97119" lon="-0.4425">
        <ele>50.4</ele>
        <time>2021-06-03T08:47:34.000Z</time>
      </trkpt>
      <trkpt lat="44.97118" lon="-0.44243">
        <ele>50.6</ele>
        <time>2021-06-03T08:47:35.000Z</time>
      </trkpt>
      <trkpt lat="44.97116" lon="-0.44237">
        <ele>50.4</ele>
        <time>2021-06-03T08:47:36.000Z</time>
      </trkpt>
      <trkpt lat="44.97115" lon="-0.44231">
        <ele>50.3</ele>
        <time>2021-06-03T08:47:37.000Z</time>
      </trkpt>
      <trkpt lat="44.97114" lon="-0.44224">
        <ele>50.4</ele>
        <time>2021-06-03T08:47:38.000Z</time>
      </trkpt>
      <trkpt lat="44.97112" lon="-0.44212">
        <ele>50.5</ele>
        <time>2021-06-03T08:47:40.000Z</time>
      </trkpt>
      <trkpt lat="44.9711" lon="-0.442">
        <ele>50.9</ele>
        <time>2021-06-03T08:47:42.000Z</time>
      </trkpt>
      <trkpt lat="44.97109" lon="-0.44187">
        <ele>50.8</ele>
        <time>2021-06-03T08:47:44.000Z</time>
      </trkpt>
      <trkpt lat="44.97108" lon="-0.44175">
        <ele>50.9</ele>
        <time>2021-06-03T08:47:46.000Z</time>
      </trkpt>
      <trkpt lat="44.97107" lon="-0.44169">
        <ele>51</ele>
        <time>2021-06-03T08:47:47.000Z</time>
      </trkpt>
      <trkpt lat="44.97107" lon="-0.44162">
        <ele>51.1</ele>
        <time>2021-06-03T08:47:48.000Z</time>
      </trkpt>
      <trkpt lat="44.97108" lon="-0.44155">
        <ele>51.2</ele>
        <time>2021-06-03T08:47:49.000Z</time>
      </trkpt>
      <trkpt lat="44.97108" lon="-0.44149">
        <ele>51.1</ele>
        <time>2021-06-03T08:47:50.000Z</time>
      </trkpt>
      <trkpt lat="44.97108" lon="-0.44142">
        <ele>51</ele>
        <time>2021-06-03T08:47:51.000Z</time>
      </trkpt>
      <trkpt lat="44.97109" lon="-0.44136">
        <ele>51</ele>
        <time>2021-06-03T08:47:52.000Z</time>
      </trkpt>
      <trkpt lat="44.97109" lon="-0.44129">
        <ele>50.9</ele>
        <time>2021-06-03T08:47:53.000Z</time>
      </trkpt>
      <trkpt lat="44.9711" lon="-0.44122">
        <ele>50.8</ele>
        <time>2021-06-03T08:47:54.000Z</time>
      </trkpt>
      <trkpt lat="44.97111" lon="-0.44115">
        <ele>50.8</ele>
        <time>2021-06-03T08:47:55.000Z</time>
      </trkpt>
      <trkpt lat="44.97112" lon="-0.44109">
        <ele>50.9</ele>
        <time>2021-06-03T08:47:56.000Z</time>
      </trkpt>
      <trkpt lat="44.97113" lon="-0.44102">
        <ele>50.9</ele>
        <time>2021-06-03T08:47:57.000Z</time>
      </trkpt>
      <trkpt lat="44.97114" lon="-0.44095">
        <ele>50.8</ele>
        <time>2021-06-03T08:47:58.000Z</time>
      </trkpt>
      <trkpt lat="44.97115" lon="-0.44088">
        <ele>50.8</ele>
        <time>2021-06-03T08:47:59.000Z</time>
      </trkpt>
      <trkpt lat="44.97116" lon="-0.44081">
        <ele>50.6</ele>
        <time>2021-06-03T08:48:00.000Z</time>
      </trkpt>
      <trkpt lat="44.97117" lon="-0.44075">
        <ele>50.4</ele>
        <time>2021-06-03T08:48:01.000Z</time>
      </trkpt>
      <trkpt lat="44.97118" lon="-0.44068">
        <ele>50.2</ele>
        <time>2021-06-03T08:48:02.000Z</time>
      </trkpt>
      <trkpt lat="44.97119" lon="-0.44061">
        <ele>50.1</ele>
        <time>2021-06-03T08:48:03.000Z</time>
      </trkpt>
      <trkpt lat="44.9712" lon="-0.44055">
        <ele>50.2</ele>
        <time>2021-06-03T08:48:04.000Z</time>
      </trkpt>
      <trkpt lat="44.97121" lon="-0.44048">
        <ele>50.2</ele>
        <time>2021-06-03T08:48:05.000Z</time>
      </trkpt>
      <trkpt lat="44.97122" lon="-0.44041">
        <ele>50.2</ele>
        <time>2021-06-03T08:48:06.000Z</time>
      </trkpt>
      <trkpt lat="44.97123" lon="-0.44035">
        <ele>50</ele>
        <time>2021-06-03T08:48:07.000Z</time>
      </trkpt>
      <trkpt lat="44.97124" lon="-0.44028">
        <ele>49.8</ele>
        <time>2021-06-03T08:48:08.000Z</time>
      </trkpt>
      <trkpt lat="44.97125" lon="-0.44021">
        <ele>49.6</ele>
        <time>2021-06-03T08:48:09.000Z</time>
      </trkpt>
      <trkpt lat="44.97126" lon="-0.44014">
        <ele>49.4</ele>
        <time>2021-06-03T08:48:10.000Z</time>
      </trkpt>
      <trkpt lat="44.97127" lon="-0.44008">
        <ele>49.3</ele>
        <time>2021-06-03T08:48:11.000Z</time>
      </trkpt>
      <trkpt lat="44.97128" lon="-0.44001">
        <ele>49.5</ele>
        <time>2021-06-03T08:48:12.000Z</time>
      </trkpt>
      <trkpt lat="44.97129" lon="-0.43993">
        <ele>49.7</ele>
        <time>2021-06-03T08:48:13.000Z</time>
      </trkpt>
      <trkpt lat="44.9713" lon="-0.43986">
        <ele>49.7</ele>
        <time>2021-06-03T08:48:14.000Z</time>
      </trkpt>
      <trkpt lat="44.9713" lon="-0.43979">
        <ele>49.6</ele>
        <time>2021-06-03T08:48:15.000Z</time>
      </trkpt>
      <trkpt lat="44.97131" lon="-0.43972">
        <ele>49.8</ele>
        <time>2021-06-03T08:48:16.000Z</time>
      </trkpt>
      <trkpt lat="44.97131" lon="-0.43965">
        <ele>49.9</ele>
        <time>2021-06-03T08:48:17.000Z</time>
      </trkpt>
      <trkpt lat="44.97132" lon="-0.43959">
        <ele>49.9</ele>
        <time>2021-06-03T08:48:18.000Z</time>
      </trkpt>
      <trkpt lat="44.97132" lon="-0.43952">
        <ele>49.8</ele>
        <time>2021-06-03T08:48:19.000Z</time>
      </trkpt>
      <trkpt lat="44.97133" lon="-0.43945">
        <ele>49.7</ele>
        <time>2021-06-03T08:48:20.000Z</time>
      </trkpt>
      <trkpt lat="44.97133" lon="-0.43939">
        <ele>49.5</ele>
        <time>2021-06-03T08:48:21.000Z</time>
      </trkpt>
      <trkpt lat="44.97134" lon="-0.43932">
        <ele>49.3</ele>
        <time>2021-06-03T08:48:22.000Z</time>
      </trkpt>
      <trkpt lat="44.97134" lon="-0.43925">
        <ele>48.9</ele>
        <time>2021-06-03T08:48:23.000Z</time>
      </trkpt>
      <trkpt lat="44.97135" lon="-0.43918">
        <ele>48.6</ele>
        <time>2021-06-03T08:48:24.000Z</time>
      </trkpt>
      <trkpt lat="44.97136" lon="-0.43912">
        <ele>48.4</ele>
        <time>2021-06-03T08:48:25.000Z</time>
      </trkpt>
      <trkpt lat="44.97136" lon="-0.43905">
        <ele>48.2</ele>
        <time>2021-06-03T08:48:26.000Z</time>
      </trkpt>
      <trkpt lat="44.97137" lon="-0.43898">
        <ele>48.1</ele>
        <time>2021-06-03T08:48:27.000Z</time>
      </trkpt>
      <trkpt lat="44.97138" lon="-0.43891">
        <ele>47.9</ele>
        <time>2021-06-03T08:48:28.000Z</time>
      </trkpt>
      <trkpt lat="44.97139" lon="-0.43884">
        <ele>47.7</ele>
        <time>2021-06-03T08:48:29.000Z</time>
      </trkpt>
      <trkpt lat="44.9714" lon="-0.43877">
        <ele>47.6</ele>
        <time>2021-06-03T08:48:30.000Z</time>
      </trkpt>
      <trkpt lat="44.97142" lon="-0.43871">
        <ele>47.4</ele>
        <time>2021-06-03T08:48:31.000Z</time>
      </trkpt>
      <trkpt lat="44.97143" lon="-0.43864">
        <ele>47.3</ele>
        <time>2021-06-03T08:48:32.000Z</time>
      </trkpt>
      <trkpt lat="44.97144" lon="-0.43857">
        <ele>47.5</ele>
        <time>2021-06-03T08:48:33.000Z</time>
      </trkpt>
      <trkpt lat="44.97146" lon="-0.4385">
        <ele>47.6</ele>
        <time>2021-06-03T08:48:34.000Z</time>
      </trkpt>
      <trkpt lat="44.97148" lon="-0.43844">
        <ele>47.6</ele>
        <time>2021-06-03T08:48:35.000Z</time>
      </trkpt>
      <trkpt lat="44.9715" lon="-0.43838">
        <ele>47.6</ele>
        <time>2021-06-03T08:48:36.000Z</time>
      </trkpt>
      <trkpt lat="44.97151" lon="-0.43831">
        <ele>47.7</ele>
        <time>2021-06-03T08:48:37.000Z</time>
      </trkpt>
      <trkpt lat="44.97154" lon="-0.43825">
        <ele>47.6</ele>
        <time>2021-06-03T08:48:38.000Z</time>
      </trkpt>
      <trkpt lat="44.97156" lon="-0.43819">
        <ele>47.5</ele>
        <time>2021-06-03T08:48:39.000Z</time>
      </trkpt>
      <trkpt lat="44.97159" lon="-0.43813">
        <ele>47.3</ele>
        <time>2021-06-03T08:48:40.000Z</time>
      </trkpt>
      <trkpt lat="44.97162" lon="-0.43808">
        <ele>47.2</ele>
        <time>2021-06-03T08:48:41.000Z</time>
      </trkpt>
      <trkpt lat="44.97165" lon="-0.43802">
        <ele>47.2</ele>
        <time>2021-06-03T08:48:42.000Z</time>
      </trkpt>
      <trkpt lat="44.97168" lon="-0.43797">
        <ele>47.1</ele>
        <time>2021-06-03T08:48:43.000Z</time>
      </trkpt>
      <trkpt lat="44.97171" lon="-0.43792">
        <ele>47.1</ele>
        <time>2021-06-03T08:48:44.000Z</time>
      </trkpt>
      <trkpt lat="44.97175" lon="-0.43787">
        <ele>46.8</ele>
        <time>2021-06-03T08:48:45.000Z</time>
      </trkpt>
      <trkpt lat="44.97178" lon="-0.43782">
        <ele>46.6</ele>
        <time>2021-06-03T08:48:46.000Z</time>
      </trkpt>
      <trkpt lat="44.97182" lon="-0.43777">
        <ele>46.3</ele>
        <time>2021-06-03T08:48:47.000Z</time>
      </trkpt>
      <trkpt lat="44.97186" lon="-0.43772">
        <ele>46.1</ele>
        <time>2021-06-03T08:48:48.000Z</time>
      </trkpt>
      <trkpt lat="44.97189" lon="-0.43767">
        <ele>46</ele>
        <time>2021-06-03T08:48:49.000Z</time>
      </trkpt>
      <trkpt lat="44.97194" lon="-0.43763">
        <ele>45.8</ele>
        <time>2021-06-03T08:48:50.000Z</time>
      </trkpt>
      <trkpt lat="44.97198" lon="-0.43758">
        <ele>45.6</ele>
        <time>2021-06-03T08:48:51.000Z</time>
      </trkpt>
      <trkpt lat="44.97202" lon="-0.43754">
        <ele>45.7</ele>
        <time>2021-06-03T08:48:52.000Z</time>
      </trkpt>
      <trkpt lat="44.97206" lon="-0.43749">
        <ele>45.7</ele>
        <time>2021-06-03T08:48:53.000Z</time>
      </trkpt>
      <trkpt lat="44.97211" lon="-0.43745">
        <ele>45.6</ele>
        <time>2021-06-03T08:48:54.000Z</time>
      </trkpt>
      <trkpt lat="44.97215" lon="-0.4374">
        <ele>45.5</ele>
        <time>2021-06-03T08:48:55.000Z</time>
      </trkpt>
      <trkpt lat="44.97219" lon="-0.43736">
        <ele>45.4</ele>
        <time>2021-06-03T08:48:56.000Z</time>
      </trkpt>
      <trkpt lat="44.97223" lon="-0.43731">
        <ele>44.9</ele>
        <time>2021-06-03T08:48:57.000Z</time>
      </trkpt>
      <trkpt lat="44.97228" lon="-0.43727">
        <ele>44.6</ele>
        <time>2021-06-03T08:48:58.000Z</time>
      </trkpt>
      <trkpt lat="44.97232" lon="-0.43722">
        <ele>44.6</ele>
        <time>2021-06-03T08:48:59.000Z</time>
      </trkpt>
      <trkpt lat="44.97236" lon="-0.43716">
        <ele>44.6</ele>
        <time>2021-06-03T08:49:00.000Z</time>
      </trkpt>
      <trkpt lat="44.97241" lon="-0.43711">
        <ele>44.5</ele>
        <time>2021-06-03T08:49:01.000Z</time>
      </trkpt>
      <trkpt lat="44.97245" lon="-0.43705">
        <ele>44.5</ele>
        <time>2021-06-03T08:49:02.000Z</time>
      </trkpt>
      <trkpt lat="44.97249" lon="-0.43698">
        <ele>44.5</ele>
        <time>2021-06-03T08:49:03.000Z</time>
      </trkpt>
      <trkpt lat="44.97253" lon="-0.43692">
        <ele>44.4</ele>
        <time>2021-06-03T08:49:04.000Z</time>
      </trkpt>
      <trkpt lat="44.97257" lon="-0.43685">
        <ele>44.4</ele>
        <time>2021-06-03T08:49:05.000Z</time>
      </trkpt>
      <trkpt lat="44.9726" lon="-0.43678">
        <ele>44.2</ele>
        <time>2021-06-03T08:49:06.000Z</time>
      </trkpt>
      <trkpt lat="44.97264" lon="-0.43671">
        <ele>44.1</ele>
        <time>2021-06-03T08:49:07.000Z</time>
      </trkpt>
      <trkpt lat="44.97267" lon="-0.43664">
        <ele>44.1</ele>
        <time>2021-06-03T08:49:08.000Z</time>
      </trkpt>
      <trkpt lat="44.9727" lon="-0.43656">
        <ele>43.8</ele>
        <time>2021-06-03T08:49:09.000Z</time>
      </trkpt>
      <trkpt lat="44.97273" lon="-0.43648">
        <ele>43.5</ele>
        <time>2021-06-03T08:49:10.000Z</time>
      </trkpt>
      <trkpt lat="44.97276" lon="-0.43639">
        <ele>43.3</ele>
        <time>2021-06-03T08:49:11.000Z</time>
      </trkpt>
      <trkpt lat="44.97278" lon="-0.43631">
        <ele>43.1</ele>
        <time>2021-06-03T08:49:12.000Z</time>
      </trkpt>
      <trkpt lat="44.9728" lon="-0.43622">
        <ele>42.9</ele>
        <time>2021-06-03T08:49:13.000Z</time>
      </trkpt>
      <trkpt lat="44.97281" lon="-0.43613">
        <ele>42.7</ele>
        <time>2021-06-03T08:49:14.000Z</time>
      </trkpt>
      <trkpt lat="44.97283" lon="-0.43605">
        <ele>42.6</ele>
        <time>2021-06-03T08:49:15.000Z</time>
      </trkpt>
      <trkpt lat="44.97284" lon="-0.43595">
        <ele>42.2</ele>
        <time>2021-06-03T08:49:16.000Z</time>
      </trkpt>
      <trkpt lat="44.97284" lon="-0.43586">
        <ele>41.9</ele>
        <time>2021-06-03T08:49:17.000Z</time>
      </trkpt>
      <trkpt lat="44.97284" lon="-0.43577">
        <ele>41.9</ele>
        <time>2021-06-03T08:49:18.000Z</time>
      </trkpt>
      <trkpt lat="44.97285" lon="-0.43568">
        <ele>41.9</ele>
        <time>2021-06-03T08:49:19.000Z</time>
      </trkpt>
      <trkpt lat="44.97285" lon="-0.43558">
        <ele>41.6</ele>
        <time>2021-06-03T08:49:20.000Z</time>
      </trkpt>
      <trkpt lat="44.97285" lon="-0.43549">
        <ele>41.3</ele>
        <time>2021-06-03T08:49:21.000Z</time>
      </trkpt>
      <trkpt lat="44.97285" lon="-0.43539">
        <ele>41.1</ele>
        <time>2021-06-03T08:49:22.000Z</time>
      </trkpt>
      <trkpt lat="44.97284" lon="-0.43529">
        <ele>41</ele>
        <time>2021-06-03T08:49:23.000Z</time>
      </trkpt>
      <trkpt lat="44.97284" lon="-0.4352">
        <ele>41</ele>
        <time>2021-06-03T08:49:24.000Z</time>
      </trkpt>
      <trkpt lat="44.97283" lon="-0.4351">
        <ele>40.8</ele>
        <time>2021-06-03T08:49:25.000Z</time>
      </trkpt>
      <trkpt lat="44.97283" lon="-0.435">
        <ele>40.7</ele>
        <time>2021-06-03T08:49:26.000Z</time>
      </trkpt>
      <trkpt lat="44.97283" lon="-0.4349">
        <ele>40.6</ele>
        <time>2021-06-03T08:49:27.000Z</time>
      </trkpt>
      <trkpt lat="44.97283" lon="-0.43481">
        <ele>40.2</ele>
        <time>2021-06-03T08:49:28.000Z</time>
      </trkpt>
      <trkpt lat="44.97283" lon="-0.43471">
        <ele>40</ele>
        <time>2021-06-03T08:49:29.000Z</time>
      </trkpt>
      <trkpt lat="44.97282" lon="-0.4346">
        <ele>39.5</ele>
        <time>2021-06-03T08:49:30.000Z</time>
      </trkpt>
      <trkpt lat="44.97282" lon="-0.4345">
        <ele>39.2</ele>
        <time>2021-06-03T08:49:31.000Z</time>
      </trkpt>
      <trkpt lat="44.97282" lon="-0.43439">
        <ele>38.5</ele>
        <time>2021-06-03T08:49:32.000Z</time>
      </trkpt>
      <trkpt lat="44.97281" lon="-0.43429">
        <ele>38</ele>
        <time>2021-06-03T08:49:33.000Z</time>
      </trkpt>
      <trkpt lat="44.97281" lon="-0.43418">
        <ele>37.6</ele>
        <time>2021-06-03T08:49:34.000Z</time>
      </trkpt>
      <trkpt lat="44.9728" lon="-0.43408">
        <ele>37.3</ele>
        <time>2021-06-03T08:49:35.000Z</time>
      </trkpt>
      <trkpt lat="44.9728" lon="-0.43397">
        <ele>37.1</ele>
        <time>2021-06-03T08:49:36.000Z</time>
      </trkpt>
      <trkpt lat="44.97279" lon="-0.43387">
        <ele>37</ele>
        <time>2021-06-03T08:49:37.000Z</time>
      </trkpt>
      <trkpt lat="44.97279" lon="-0.43377">
        <ele>36.9</ele>
        <time>2021-06-03T08:49:38.000Z</time>
      </trkpt>
      <trkpt lat="44.97279" lon="-0.43367">
        <ele>36.7</ele>
        <time>2021-06-03T08:49:39.000Z</time>
      </trkpt>
      <trkpt lat="44.97278" lon="-0.43357">
        <ele>36.6</ele>
        <time>2021-06-03T08:49:40.000Z</time>
      </trkpt>
      <trkpt lat="44.97278" lon="-0.43348">
        <ele>36.5</ele>
        <time>2021-06-03T08:49:41.000Z</time>
      </trkpt>
      <trkpt lat="44.97278" lon="-0.4334">
        <ele>36.3</ele>
        <time>2021-06-03T08:49:42.000Z</time>
      </trkpt>
      <trkpt lat="44.97277" lon="-0.43332">
        <ele>36.1</ele>
        <time>2021-06-03T08:49:43.000Z</time>
      </trkpt>
      <trkpt lat="44.97277" lon="-0.43324">
        <ele>36.2</ele>
        <time>2021-06-03T08:49:44.000Z</time>
      </trkpt>
      <trkpt lat="44.97277" lon="-0.43316">
        <ele>36.2</ele>
        <time>2021-06-03T08:49:45.000Z</time>
      </trkpt>
      <trkpt lat="44.97277" lon="-0.43308">
        <ele>36.3</ele>
        <time>2021-06-03T08:49:46.000Z</time>
      </trkpt>
      <trkpt lat="44.97277" lon="-0.43301">
        <ele>36.4</ele>
        <time>2021-06-03T08:49:47.000Z</time>
      </trkpt>
      <trkpt lat="44.97276" lon="-0.43294">
        <ele>36.4</ele>
        <time>2021-06-03T08:49:48.000Z</time>
      </trkpt>
      <trkpt lat="44.97276" lon="-0.43286">
        <ele>36.1</ele>
        <time>2021-06-03T08:49:49.000Z</time>
      </trkpt>
      <trkpt lat="44.97276" lon="-0.43279">
        <ele>35.9</ele>
        <time>2021-06-03T08:49:50.000Z</time>
      </trkpt>
      <trkpt lat="44.97275" lon="-0.43272">
        <ele>35.9</ele>
        <time>2021-06-03T08:49:51.000Z</time>
      </trkpt>
      <trkpt lat="44.97275" lon="-0.43264">
        <ele>35.8</ele>
        <time>2021-06-03T08:49:52.000Z</time>
      </trkpt>
      <trkpt lat="44.97275" lon="-0.43257">
        <ele>35.8</ele>
        <time>2021-06-03T08:49:53.000Z</time>
      </trkpt>
      <trkpt lat="44.97275" lon="-0.43249">
        <ele>36.2</ele>
        <time>2021-06-03T08:49:54.000Z</time>
      </trkpt>
      <trkpt lat="44.97274" lon="-0.43242">
        <ele>36.5</ele>
        <time>2021-06-03T08:49:55.000Z</time>
      </trkpt>
      <trkpt lat="44.97274" lon="-0.43234">
        <ele>36.1</ele>
        <time>2021-06-03T08:49:56.000Z</time>
      </trkpt>
      <trkpt lat="44.97273" lon="-0.43226">
        <ele>35.8</ele>
        <time>2021-06-03T08:49:57.000Z</time>
      </trkpt>
      <trkpt lat="44.97273" lon="-0.43217">
        <ele>35.4</ele>
        <time>2021-06-03T08:49:58.000Z</time>
      </trkpt>
      <trkpt lat="44.97272" lon="-0.43209">
        <ele>35</ele>
        <time>2021-06-03T08:49:59.000Z</time>
      </trkpt>
      <trkpt lat="44.97272" lon="-0.432">
        <ele>34.7</ele>
        <time>2021-06-03T08:50:00.000Z</time>
      </trkpt>
      <trkpt lat="44.97271" lon="-0.43191">
        <ele>34.3</ele>
        <time>2021-06-03T08:50:01.000Z</time>
      </trkpt>
      <trkpt lat="44.9727" lon="-0.43182">
        <ele>34.1</ele>
        <time>2021-06-03T08:50:02.000Z</time>
      </trkpt>
      <trkpt lat="44.9727" lon="-0.43173">
        <ele>34.1</ele>
        <time>2021-06-03T08:50:03.000Z</time>
      </trkpt>
      <trkpt lat="44.97269" lon="-0.43164">
        <ele>34.1</ele>
        <time>2021-06-03T08:50:04.000Z</time>
      </trkpt>
      <trkpt lat="44.97268" lon="-0.43154">
        <ele>33.3</ele>
        <time>2021-06-03T08:50:05.000Z</time>
      </trkpt>
      <trkpt lat="44.97267" lon="-0.43145">
        <ele>32.7</ele>
        <time>2021-06-03T08:50:06.000Z</time>
      </trkpt>
      <trkpt lat="44.97266" lon="-0.43135">
        <ele>32.2</ele>
        <time>2021-06-03T08:50:07.000Z</time>
      </trkpt>
      <trkpt lat="44.97265" lon="-0.43126">
        <ele>32.3</ele>
        <time>2021-06-03T08:50:08.000Z</time>
      </trkpt>
      <trkpt lat="44.97264" lon="-0.43117">
        <ele>32.3</ele>
        <time>2021-06-03T08:50:09.000Z</time>
      </trkpt>
      <trkpt lat="44.97263" lon="-0.43108">
        <ele>31.9</ele>
        <time>2021-06-03T08:50:10.000Z</time>
      </trkpt>
      <trkpt lat="44.97262" lon="-0.43099">
        <ele>31.7</ele>
        <time>2021-06-03T08:50:11.000Z</time>
      </trkpt>
      <trkpt lat="44.9726" lon="-0.4309">
        <ele>31.5</ele>
        <time>2021-06-03T08:50:12.000Z</time>
      </trkpt>
      <trkpt lat="44.97259" lon="-0.43081">
        <ele>31.5</ele>
        <time>2021-06-03T08:50:13.000Z</time>
      </trkpt>
      <trkpt lat="44.97258" lon="-0.43073">
        <ele>31.6</ele>
        <time>2021-06-03T08:50:14.000Z</time>
      </trkpt>
      <trkpt lat="44.97257" lon="-0.43064">
        <ele>31.3</ele>
        <time>2021-06-03T08:50:15.000Z</time>
      </trkpt>
      <trkpt lat="44.97256" lon="-0.43056">
        <ele>31.1</ele>
        <time>2021-06-03T08:50:16.000Z</time>
      </trkpt>
      <trkpt lat="44.97255" lon="-0.43048">
        <ele>31</ele>
        <time>2021-06-03T08:50:17.000Z</time>
      </trkpt>
      <trkpt lat="44.97253" lon="-0.43039">
        <ele>30.8</ele>
        <time>2021-06-03T08:50:18.000Z</time>
      </trkpt>
      <trkpt lat="44.97252" lon="-0.43031">
        <ele>30.8</ele>
        <time>2021-06-03T08:50:19.000Z</time>
      </trkpt>
      <trkpt lat="44.97251" lon="-0.43023">
        <ele>30.7</ele>
        <time>2021-06-03T08:50:20.000Z</time>
      </trkpt>
      <trkpt lat="44.97249" lon="-0.43015">
        <ele>30.7</ele>
        <time>2021-06-03T08:50:21.000Z</time>
      </trkpt>
      <trkpt lat="44.97248" lon="-0.43007">
        <ele>30.4</ele>
        <time>2021-06-03T08:50:22.000Z</time>
      </trkpt>
      <trkpt lat="44.97247" lon="-0.42999">
        <ele>30.2</ele>
        <time>2021-06-03T08:50:23.000Z</time>
      </trkpt>
      <trkpt lat="44.97246" lon="-0.42991">
        <ele>30.1</ele>
        <time>2021-06-03T08:50:24.000Z</time>
      </trkpt>
      <trkpt lat="44.97245" lon="-0.42983">
        <ele>29.9</ele>
        <time>2021-06-03T08:50:25.000Z</time>
      </trkpt>
      <trkpt lat="44.97244" lon="-0.42974">
        <ele>29.8</ele>
        <time>2021-06-03T08:50:26.000Z</time>
      </trkpt>
      <trkpt lat="44.97243" lon="-0.42966">
        <ele>29.9</ele>
        <time>2021-06-03T08:50:27.000Z</time>
      </trkpt>
      <trkpt lat="44.97242" lon="-0.42957">
        <ele>29.9</ele>
        <time>2021-06-03T08:50:28.000Z</time>
      </trkpt>
      <trkpt lat="44.97241" lon="-0.42948">
        <ele>29.3</ele>
        <time>2021-06-03T08:50:29.000Z</time>
      </trkpt>
      <trkpt lat="44.97241" lon="-0.4294">
        <ele>28.9</ele>
        <time>2021-06-03T08:50:30.000Z</time>
      </trkpt>
      <trkpt lat="44.9724" lon="-0.42931">
        <ele>28.5</ele>
        <time>2021-06-03T08:50:31.000Z</time>
      </trkpt>
      <trkpt lat="44.97239" lon="-0.42922">
        <ele>28.3</ele>
        <time>2021-06-03T08:50:32.000Z</time>
      </trkpt>
      <trkpt lat="44.97238" lon="-0.42914">
        <ele>28.2</ele>
        <time>2021-06-03T08:50:33.000Z</time>
      </trkpt>
      <trkpt lat="44.97238" lon="-0.42905">
        <ele>27.8</ele>
        <time>2021-06-03T08:50:34.000Z</time>
      </trkpt>
      <trkpt lat="44.97237" lon="-0.42896">
        <ele>27.4</ele>
        <time>2021-06-03T08:50:35.000Z</time>
      </trkpt>
      <trkpt lat="44.97237" lon="-0.42888">
        <ele>27.4</ele>
        <time>2021-06-03T08:50:36.000Z</time>
      </trkpt>
      <trkpt lat="44.97236" lon="-0.42879">
        <ele>27.3</ele>
        <time>2021-06-03T08:50:37.000Z</time>
      </trkpt>
      <trkpt lat="44.97236" lon="-0.4287">
        <ele>27.3</ele>
        <time>2021-06-03T08:50:38.000Z</time>
      </trkpt>
      <trkpt lat="44.97235" lon="-0.42862">
        <ele>27.2</ele>
        <time>2021-06-03T08:50:39.000Z</time>
      </trkpt>
      <trkpt lat="44.97234" lon="-0.42852">
        <ele>27.1</ele>
        <time>2021-06-03T08:50:40.000Z</time>
      </trkpt>
      <trkpt lat="44.97233" lon="-0.42843">
        <ele>27</ele>
        <time>2021-06-03T08:50:41.000Z</time>
      </trkpt>
      <trkpt lat="44.97232" lon="-0.42835">
        <ele>26.9</ele>
        <time>2021-06-03T08:50:42.000Z</time>
      </trkpt>
      <trkpt lat="44.97231" lon="-0.42826">
        <ele>26.3</ele>
        <time>2021-06-03T08:50:43.000Z</time>
      </trkpt>
      <trkpt lat="44.9723" lon="-0.42818">
        <ele>25.7</ele>
        <time>2021-06-03T08:50:44.000Z</time>
      </trkpt>
      <trkpt lat="44.9723" lon="-0.42809">
        <ele>25.4</ele>
        <time>2021-06-03T08:50:45.000Z</time>
      </trkpt>
      <trkpt lat="44.97229" lon="-0.42802">
        <ele>25.6</ele>
        <time>2021-06-03T08:50:46.000Z</time>
      </trkpt>
      <trkpt lat="44.97228" lon="-0.42795">
        <ele>25.7</ele>
        <time>2021-06-03T08:50:47.000Z</time>
      </trkpt>
      <trkpt lat="44.97227" lon="-0.42788">
        <ele>25.6</ele>
        <time>2021-06-03T08:50:48.000Z</time>
      </trkpt>
      <trkpt lat="44.97225" lon="-0.42781">
        <ele>25.6</ele>
        <time>2021-06-03T08:50:49.000Z</time>
      </trkpt>
      <trkpt lat="44.97225" lon="-0.42774">
        <ele>25.5</ele>
        <time>2021-06-03T08:50:50.000Z</time>
      </trkpt>
      <trkpt lat="44.97224" lon="-0.42766">
        <ele>25.2</ele>
        <time>2021-06-03T08:50:51.000Z</time>
      </trkpt>
      <trkpt lat="44.97223" lon="-0.42759">
        <ele>24.9</ele>
        <time>2021-06-03T08:50:52.000Z</time>
      </trkpt>
      <trkpt lat="44.97223" lon="-0.42751">
        <ele>24.9</ele>
        <time>2021-06-03T08:50:53.000Z</time>
      </trkpt>
      <trkpt lat="44.97223" lon="-0.42743">
        <ele>24.9</ele>
        <time>2021-06-03T08:50:54.000Z</time>
      </trkpt>
      <trkpt lat="44.97223" lon="-0.42734">
        <ele>24.7</ele>
        <time>2021-06-03T08:50:55.000Z</time>
      </trkpt>
      <trkpt lat="44.97223" lon="-0.42726">
        <ele>24.5</ele>
        <time>2021-06-03T08:50:56.000Z</time>
      </trkpt>
      <trkpt lat="44.97224" lon="-0.42717">
        <ele>24.4</ele>
        <time>2021-06-03T08:50:57.000Z</time>
      </trkpt>
      <trkpt lat="44.97225" lon="-0.42709">
        <ele>24.3</ele>
        <time>2021-06-03T08:50:58.000Z</time>
      </trkpt>
      <trkpt lat="44.97225" lon="-0.427">
        <ele>24.2</ele>
        <time>2021-06-03T08:50:59.000Z</time>
      </trkpt>
      <trkpt lat="44.97225" lon="-0.42691">
        <ele>23.6</ele>
        <time>2021-06-03T08:51:00.000Z</time>
      </trkpt>
      <trkpt lat="44.97226" lon="-0.42682">
        <ele>23.2</ele>
        <time>2021-06-03T08:51:01.000Z</time>
      </trkpt>
      <trkpt lat="44.97226" lon="-0.42675">
        <ele>23.3</ele>
        <time>2021-06-03T08:51:02.000Z</time>
      </trkpt>
      <trkpt lat="44.97227" lon="-0.42668">
        <ele>23.3</ele>
        <time>2021-06-03T08:51:03.000Z</time>
      </trkpt>
      <trkpt lat="44.97232" lon="-0.42658">
        <ele>23.1</ele>
        <time>2021-06-03T08:51:05.000Z</time>
      </trkpt>
      <trkpt lat="44.97239" lon="-0.42653">
        <ele>23.1</ele>
        <time>2021-06-03T08:51:07.000Z</time>
      </trkpt>
      <trkpt lat="44.97248" lon="-0.42651">
        <ele>23.1</ele>
        <time>2021-06-03T08:51:09.000Z</time>
      </trkpt>
      <trkpt lat="44.97257" lon="-0.42649">
        <ele>23</ele>
        <time>2021-06-03T08:51:11.000Z</time>
      </trkpt>
      <trkpt lat="44.97265" lon="-0.42646">
        <ele>23.3</ele>
        <time>2021-06-03T08:51:13.000Z</time>
      </trkpt>
      <trkpt lat="44.97273" lon="-0.42642">
        <ele>24</ele>
        <time>2021-06-03T08:51:15.000Z</time>
      </trkpt>
      <trkpt lat="44.9728" lon="-0.42638">
        <ele>24.4</ele>
        <time>2021-06-03T08:51:17.000Z</time>
      </trkpt>
      <trkpt lat="44.97288" lon="-0.42633">
        <ele>24.4</ele>
        <time>2021-06-03T08:51:19.000Z</time>
      </trkpt>
      <trkpt lat="44.97293" lon="-0.4263">
        <ele>24.3</ele>
        <time>2021-06-03T08:51:20.000Z</time>
      </trkpt>
      <trkpt lat="44.97297" lon="-0.42627">
        <ele>24</ele>
        <time>2021-06-03T08:51:21.000Z</time>
      </trkpt>
      <trkpt lat="44.97302" lon="-0.42623">
        <ele>23.8</ele>
        <time>2021-06-03T08:51:22.000Z</time>
      </trkpt>
      <trkpt lat="44.97306" lon="-0.42619">
        <ele>23.7</ele>
        <time>2021-06-03T08:51:23.000Z</time>
      </trkpt>
      <trkpt lat="44.9731" lon="-0.42616">
        <ele>23.7</ele>
        <time>2021-06-03T08:51:24.000Z</time>
      </trkpt>
      <trkpt lat="44.97314" lon="-0.42612">
        <ele>23.7</ele>
        <time>2021-06-03T08:51:25.000Z</time>
      </trkpt>
      <trkpt lat="44.97322" lon="-0.42606">
        <ele>23.5</ele>
        <time>2021-06-03T08:51:27.000Z</time>
      </trkpt>
      <trkpt lat="44.97326" lon="-0.42602">
        <ele>23.4</ele>
        <time>2021-06-03T08:51:28.000Z</time>
      </trkpt>
      <trkpt lat="44.97329" lon="-0.42598">
        <ele>23.3</ele>
        <time>2021-06-03T08:51:29.000Z</time>
      </trkpt>
      <trkpt lat="44.97336" lon="-0.42591">
        <ele>23.5</ele>
        <time>2021-06-03T08:51:31.000Z</time>
      </trkpt>
      <trkpt lat="44.97343" lon="-0.42583">
        <ele>23.4</ele>
        <time>2021-06-03T08:51:33.000Z</time>
      </trkpt>
      <trkpt lat="44.97347" lon="-0.42578">
        <ele>23.2</ele>
        <time>2021-06-03T08:51:34.000Z</time>
      </trkpt>
      <trkpt lat="44.97351" lon="-0.42573">
        <ele>23</ele>
        <time>2021-06-03T08:51:35.000Z</time>
      </trkpt>
      <trkpt lat="44.97355" lon="-0.42567">
        <ele>23</ele>
        <time>2021-06-03T08:51:36.000Z</time>
      </trkpt>
      <trkpt lat="44.97358" lon="-0.42561">
        <ele>23</ele>
        <time>2021-06-03T08:51:37.000Z</time>
      </trkpt>
      <trkpt lat="44.97361" lon="-0.42555">
        <ele>23.2</ele>
        <time>2021-06-03T08:51:38.000Z</time>
      </trkpt>
      <trkpt lat="44.97364" lon="-0.42548">
        <ele>23.4</ele>
        <time>2021-06-03T08:51:39.000Z</time>
      </trkpt>
      <trkpt lat="44.97366" lon="-0.42541">
        <ele>23.3</ele>
        <time>2021-06-03T08:51:40.000Z</time>
      </trkpt>
      <trkpt lat="44.97369" lon="-0.42534">
        <ele>23.3</ele>
        <time>2021-06-03T08:51:41.000Z</time>
      </trkpt>
      <trkpt lat="44.97371" lon="-0.42527">
        <ele>23.2</ele>
        <time>2021-06-03T08:51:42.000Z</time>
      </trkpt>
      <trkpt lat="44.97373" lon="-0.4252">
        <ele>23.1</ele>
        <time>2021-06-03T08:51:43.000Z</time>
      </trkpt>
      <trkpt lat="44.97375" lon="-0.42512">
        <ele>23</ele>
        <time>2021-06-03T08:51:44.000Z</time>
      </trkpt>
      <trkpt lat="44.97377" lon="-0.42505">
        <ele>23</ele>
        <time>2021-06-03T08:51:45.000Z</time>
      </trkpt>
      <trkpt lat="44.97378" lon="-0.42497">
        <ele>23</ele>
        <time>2021-06-03T08:51:46.000Z</time>
      </trkpt>
      <trkpt lat="44.9738" lon="-0.4249">
        <ele>23.1</ele>
        <time>2021-06-03T08:51:47.000Z</time>
      </trkpt>
      <trkpt lat="44.97382" lon="-0.42483">
        <ele>23.2</ele>
        <time>2021-06-03T08:51:48.000Z</time>
      </trkpt>
      <trkpt lat="44.97384" lon="-0.42475">
        <ele>23.3</ele>
        <time>2021-06-03T08:51:49.000Z</time>
      </trkpt>
      <trkpt lat="44.97386" lon="-0.42467">
        <ele>23.2</ele>
        <time>2021-06-03T08:51:50.000Z</time>
      </trkpt>
      <trkpt lat="44.97388" lon="-0.4246">
        <ele>23.1</ele>
        <time>2021-06-03T08:51:51.000Z</time>
      </trkpt>
      <trkpt lat="44.97391" lon="-0.42452">
        <ele>22.9</ele>
        <time>2021-06-03T08:51:52.000Z</time>
      </trkpt>
      <trkpt lat="44.97393" lon="-0.42445">
        <ele>22.8</ele>
        <time>2021-06-03T08:51:53.000Z</time>
      </trkpt>
      <trkpt lat="44.97396" lon="-0.42438">
        <ele>22.7</ele>
        <time>2021-06-03T08:51:54.000Z</time>
      </trkpt>
      <trkpt lat="44.97399" lon="-0.42431">
        <ele>22.8</ele>
        <time>2021-06-03T08:51:55.000Z</time>
      </trkpt>
      <trkpt lat="44.97402" lon="-0.42424">
        <ele>22.9</ele>
        <time>2021-06-03T08:51:56.000Z</time>
      </trkpt>
      <trkpt lat="44.97405" lon="-0.42418">
        <ele>22.8</ele>
        <time>2021-06-03T08:51:57.000Z</time>
      </trkpt>
      <trkpt lat="44.97409" lon="-0.42411">
        <ele>22.8</ele>
        <time>2021-06-03T08:51:58.000Z</time>
      </trkpt>
      <trkpt lat="44.97412" lon="-0.42405">
        <ele>22.8</ele>
        <time>2021-06-03T08:51:59.000Z</time>
      </trkpt>
      <trkpt lat="44.97415" lon="-0.42399">
        <ele>22.8</ele>
        <time>2021-06-03T08:52:00.000Z</time>
      </trkpt>
      <trkpt lat="44.97419" lon="-0.42392">
        <ele>22.8</ele>
        <time>2021-06-03T08:52:01.000Z</time>
      </trkpt>
      <trkpt lat="44.97423" lon="-0.42386">
        <ele>22.9</ele>
        <time>2021-06-03T08:52:02.000Z</time>
      </trkpt>
      <trkpt lat="44.97427" lon="-0.4238">
        <ele>23</ele>
        <time>2021-06-03T08:52:03.000Z</time>
      </trkpt>
      <trkpt lat="44.97431" lon="-0.42373">
        <ele>23</ele>
        <time>2021-06-03T08:52:04.000Z</time>
      </trkpt>
      <trkpt lat="44.97435" lon="-0.42367">
        <ele>23.1</ele>
        <time>2021-06-03T08:52:05.000Z</time>
      </trkpt>
      <trkpt lat="44.9744" lon="-0.42361">
        <ele>22.9</ele>
        <time>2021-06-03T08:52:06.000Z</time>
      </trkpt>
      <trkpt lat="44.97444" lon="-0.42354">
        <ele>22.8</ele>
        <time>2021-06-03T08:52:07.000Z</time>
      </trkpt>
      <trkpt lat="44.97448" lon="-0.42348">
        <ele>22.7</ele>
        <time>2021-06-03T08:52:08.000Z</time>
      </trkpt>
      <trkpt lat="44.97452" lon="-0.42342">
        <ele>23</ele>
        <time>2021-06-03T08:52:09.000Z</time>
      </trkpt>
      <trkpt lat="44.97455" lon="-0.42336">
        <ele>23.2</ele>
        <time>2021-06-03T08:52:10.000Z</time>
      </trkpt>
      <trkpt lat="44.97459" lon="-0.4233">
        <ele>23</ele>
        <time>2021-06-03T08:52:11.000Z</time>
      </trkpt>
      <trkpt lat="44.97463" lon="-0.42323">
        <ele>22.9</ele>
        <time>2021-06-03T08:52:12.000Z</time>
      </trkpt>
      <trkpt lat="44.97466" lon="-0.42317">
        <ele>22.9</ele>
        <time>2021-06-03T08:52:13.000Z</time>
      </trkpt>
      <trkpt lat="44.9747" lon="-0.4231">
        <ele>22.8</ele>
        <time>2021-06-03T08:52:14.000Z</time>
      </trkpt>
      <trkpt lat="44.97474" lon="-0.42303">
        <ele>22.8</ele>
        <time>2021-06-03T08:52:15.000Z</time>
      </trkpt>
      <trkpt lat="44.97477" lon="-0.42296">
        <ele>23.1</ele>
        <time>2021-06-03T08:52:16.000Z</time>
      </trkpt>
      <trkpt lat="44.9748" lon="-0.42289">
        <ele>23.4</ele>
        <time>2021-06-03T08:52:17.000Z</time>
      </trkpt>
      <trkpt lat="44.97484" lon="-0.42283">
        <ele>23.4</ele>
        <time>2021-06-03T08:52:18.000Z</time>
      </trkpt>
      <trkpt lat="44.97487" lon="-0.42276">
        <ele>23.4</ele>
        <time>2021-06-03T08:52:19.000Z</time>
      </trkpt>
      <trkpt lat="44.9749" lon="-0.4227">
        <ele>23.5</ele>
        <time>2021-06-03T08:52:20.000Z</time>
      </trkpt>
      <trkpt lat="44.97493" lon="-0.42264">
        <ele>23.5</ele>
        <time>2021-06-03T08:52:21.000Z</time>
      </trkpt>
      <trkpt lat="44.97497" lon="-0.42258">
        <ele>23.6</ele>
        <time>2021-06-03T08:52:22.000Z</time>
      </trkpt>
      <trkpt lat="44.975" lon="-0.42251">
        <ele>23.6</ele>
        <time>2021-06-03T08:52:23.000Z</time>
      </trkpt>
      <trkpt lat="44.97503" lon="-0.42245">
        <ele>23.6</ele>
        <time>2021-06-03T08:52:24.000Z</time>
      </trkpt>
      <trkpt lat="44.97506" lon="-0.42238">
        <ele>23.5</ele>
        <time>2021-06-03T08:52:25.000Z</time>
      </trkpt>
      <trkpt lat="44.97508" lon="-0.42232">
        <ele>23.5</ele>
        <time>2021-06-03T08:52:26.000Z</time>
      </trkpt>
      <trkpt lat="44.97511" lon="-0.42226">
        <ele>23.5</ele>
        <time>2021-06-03T08:52:27.000Z</time>
      </trkpt>
      <trkpt lat="44.97514" lon="-0.4222">
        <ele>24</ele>
        <time>2021-06-03T08:52:28.000Z</time>
      </trkpt>
      <trkpt lat="44.97517" lon="-0.42214">
        <ele>24.5</ele>
        <time>2021-06-03T08:52:29.000Z</time>
      </trkpt>
      <trkpt lat="44.9752" lon="-0.42208">
        <ele>24.5</ele>
        <time>2021-06-03T08:52:30.000Z</time>
      </trkpt>
      <trkpt lat="44.97522" lon="-0.42202">
        <ele>24.5</ele>
        <time>2021-06-03T08:52:31.000Z</time>
      </trkpt>
      <trkpt lat="44.97525" lon="-0.42196">
        <ele>24.5</ele>
        <time>2021-06-03T08:52:32.000Z</time>
      </trkpt>
      <trkpt lat="44.97528" lon="-0.4219">
        <ele>24.6</ele>
        <time>2021-06-03T08:52:33.000Z</time>
      </trkpt>
      <trkpt lat="44.9753" lon="-0.42184">
        <ele>24.7</ele>
        <time>2021-06-03T08:52:34.000Z</time>
      </trkpt>
      <trkpt lat="44.97533" lon="-0.42179">
        <ele>24.9</ele>
        <time>2021-06-03T08:52:35.000Z</time>
      </trkpt>
      <trkpt lat="44.97535" lon="-0.42173">
        <ele>25.1</ele>
        <time>2021-06-03T08:52:36.000Z</time>
      </trkpt>
      <trkpt lat="44.97538" lon="-0.42167">
        <ele>25.4</ele>
        <time>2021-06-03T08:52:37.000Z</time>
      </trkpt>
      <trkpt lat="44.97541" lon="-0.42162">
        <ele>25.7</ele>
        <time>2021-06-03T08:52:38.000Z</time>
      </trkpt>
      <trkpt lat="44.97543" lon="-0.42156">
        <ele>25.9</ele>
        <time>2021-06-03T08:52:39.000Z</time>
      </trkpt>
      <trkpt lat="44.97548" lon="-0.42146">
        <ele>25.6</ele>
        <time>2021-06-03T08:52:41.000Z</time>
      </trkpt>
      <trkpt lat="44.97552" lon="-0.42136">
        <ele>26.1</ele>
        <time>2021-06-03T08:52:43.000Z</time>
      </trkpt>
      <trkpt lat="44.97555" lon="-0.42127">
        <ele>25.5</ele>
        <time>2021-06-03T08:52:45.000Z</time>
      </trkpt>
      <trkpt lat="44.97559" lon="-0.42119">
        <ele>25.3</ele>
        <time>2021-06-03T08:52:47.000Z</time>
      </trkpt>
      <trkpt lat="44.97562" lon="-0.42112">
        <ele>25.4</ele>
        <time>2021-06-03T08:52:49.000Z</time>
      </trkpt>
      <trkpt lat="44.97567" lon="-0.42102">
        <ele>25.6</ele>
        <time>2021-06-03T08:52:52.000Z</time>
      </trkpt>
      <trkpt lat="44.9757" lon="-0.42091">
        <ele>25.4</ele>
        <time>2021-06-03T08:52:55.000Z</time>
      </trkpt>
      <trkpt lat="44.97572" lon="-0.42079">
        <ele>25.9</ele>
        <time>2021-06-03T08:52:58.000Z</time>
      </trkpt>
      <trkpt lat="44.97573" lon="-0.42071">
        <ele>26</ele>
        <time>2021-06-03T08:53:00.000Z</time>
      </trkpt>
      <trkpt lat="44.97575" lon="-0.42062">
        <ele>25.9</ele>
        <time>2021-06-03T08:53:02.000Z</time>
      </trkpt>
      <trkpt lat="44.97578" lon="-0.42053">
        <ele>26.5</ele>
        <time>2021-06-03T08:53:04.000Z</time>
      </trkpt>
      <trkpt lat="44.97582" lon="-0.42044">
        <ele>26.4</ele>
        <time>2021-06-03T08:53:06.000Z</time>
      </trkpt>
      <trkpt lat="44.97586" lon="-0.42034">
        <ele>26.1</ele>
        <time>2021-06-03T08:53:08.000Z</time>
      </trkpt>
      <trkpt lat="44.97589" lon="-0.42029">
        <ele>26.1</ele>
        <time>2021-06-03T08:53:09.000Z</time>
      </trkpt>
      <trkpt lat="44.97592" lon="-0.42024">
        <ele>26</ele>
        <time>2021-06-03T08:53:10.000Z</time>
      </trkpt>
      <trkpt lat="44.97595" lon="-0.42019">
        <ele>26.2</ele>
        <time>2021-06-03T08:53:11.000Z</time>
      </trkpt>
      <trkpt lat="44.97598" lon="-0.42013">
        <ele>26.4</ele>
        <time>2021-06-03T08:53:12.000Z</time>
      </trkpt>
      <trkpt lat="44.976" lon="-0.42008">
        <ele>26.3</ele>
        <time>2021-06-03T08:53:13.000Z</time>
      </trkpt>
      <trkpt lat="44.97605" lon="-0.41997">
        <ele>26.2</ele>
        <time>2021-06-03T08:53:15.000Z</time>
      </trkpt>
      <trkpt lat="44.9761" lon="-0.41987">
        <ele>26.1</ele>
        <time>2021-06-03T08:53:17.000Z</time>
      </trkpt>
      <trkpt lat="44.97615" lon="-0.41977">
        <ele>26</ele>
        <time>2021-06-03T08:53:19.000Z</time>
      </trkpt>
      <trkpt lat="44.9762" lon="-0.41967">
        <ele>26.1</ele>
        <time>2021-06-03T08:53:21.000Z</time>
      </trkpt>
      <trkpt lat="44.97624" lon="-0.41956">
        <ele>26</ele>
        <time>2021-06-03T08:53:23.000Z</time>
      </trkpt>
      <trkpt lat="44.97629" lon="-0.41945">
        <ele>25.9</ele>
        <time>2021-06-03T08:53:25.000Z</time>
      </trkpt>
      <trkpt lat="44.97633" lon="-0.41935">
        <ele>25.9</ele>
        <time>2021-06-03T08:53:27.000Z</time>
      </trkpt>
      <trkpt lat="44.97636" lon="-0.41929">
        <ele>25.9</ele>
        <time>2021-06-03T08:53:28.000Z</time>
      </trkpt>
      <trkpt lat="44.97638" lon="-0.41924">
        <ele>26</ele>
        <time>2021-06-03T08:53:29.000Z</time>
      </trkpt>
      <trkpt lat="44.97641" lon="-0.41919">
        <ele>25.9</ele>
        <time>2021-06-03T08:53:30.000Z</time>
      </trkpt>
      <trkpt lat="44.97644" lon="-0.41913">
        <ele>25.9</ele>
        <time>2021-06-03T08:53:31.000Z</time>
      </trkpt>
      <trkpt lat="44.97647" lon="-0.41908">
        <ele>25.7</ele>
        <time>2021-06-03T08:53:32.000Z</time>
      </trkpt>
      <trkpt lat="44.97652" lon="-0.41898">
        <ele>25.6</ele>
        <time>2021-06-03T08:53:34.000Z</time>
      </trkpt>
      <trkpt lat="44.97658" lon="-0.41888">
        <ele>25.6</ele>
        <time>2021-06-03T08:53:36.000Z</time>
      </trkpt>
      <trkpt lat="44.97661" lon="-0.41883">
        <ele>25.7</ele>
        <time>2021-06-03T08:53:37.000Z</time>
      </trkpt>
      <trkpt lat="44.97663" lon="-0.41878">
        <ele>25.7</ele>
        <time>2021-06-03T08:53:38.000Z</time>
      </trkpt>
      <trkpt lat="44.97667" lon="-0.41873">
        <ele>25.6</ele>
        <time>2021-06-03T08:53:39.000Z</time>
      </trkpt>
      <trkpt lat="44.97669" lon="-0.41868">
        <ele>25.5</ele>
        <time>2021-06-03T08:53:40.000Z</time>
      </trkpt>
      <trkpt lat="44.97672" lon="-0.41862">
        <ele>25.4</ele>
        <time>2021-06-03T08:53:41.000Z</time>
      </trkpt>
      <trkpt lat="44.97676" lon="-0.41857">
        <ele>25.3</ele>
        <time>2021-06-03T08:53:42.000Z</time>
      </trkpt>
      <trkpt lat="44.97679" lon="-0.41852">
        <ele>25.2</ele>
        <time>2021-06-03T08:53:43.000Z</time>
      </trkpt>
      <trkpt lat="44.97682" lon="-0.41848">
        <ele>25.1</ele>
        <time>2021-06-03T08:53:44.000Z</time>
      </trkpt>
      <trkpt lat="44.97689" lon="-0.41839">
        <ele>25.6</ele>
        <time>2021-06-03T08:53:46.000Z</time>
      </trkpt>
      <trkpt lat="44.97693" lon="-0.41832">
        <ele>26.3</ele>
        <time>2021-06-03T08:53:48.000Z</time>
      </trkpt>
      <trkpt lat="44.97699" lon="-0.41825">
        <ele>26.3</ele>
        <time>2021-06-03T08:53:50.000Z</time>
      </trkpt>
      <trkpt lat="44.97705" lon="-0.41819">
        <ele>26.5</ele>
        <time>2021-06-03T08:53:52.000Z</time>
      </trkpt>
      <trkpt lat="44.97713" lon="-0.41812">
        <ele>26.1</ele>
        <time>2021-06-03T08:53:54.000Z</time>
      </trkpt>
      <trkpt lat="44.9772" lon="-0.41805">
        <ele>26.1</ele>
        <time>2021-06-03T08:53:56.000Z</time>
      </trkpt>
      <trkpt lat="44.97727" lon="-0.41798">
        <ele>26.3</ele>
        <time>2021-06-03T08:53:58.000Z</time>
      </trkpt>
      <trkpt lat="44.97732" lon="-0.4179">
        <ele>26.5</ele>
        <time>2021-06-03T08:54:00.000Z</time>
      </trkpt>
      <trkpt lat="44.97737" lon="-0.41781">
        <ele>26.6</ele>
        <time>2021-06-03T08:54:02.000Z</time>
      </trkpt>
      <trkpt lat="44.9774" lon="-0.4177">
        <ele>26.9</ele>
        <time>2021-06-03T08:54:04.000Z</time>
      </trkpt>
      <trkpt lat="44.97743" lon="-0.4176">
        <ele>27.8</ele>
        <time>2021-06-03T08:54:06.000Z</time>
      </trkpt>
      <trkpt lat="44.97745" lon="-0.41749">
        <ele>28</ele>
        <time>2021-06-03T08:54:08.000Z</time>
      </trkpt>
      <trkpt lat="44.97747" lon="-0.41739">
        <ele>28.1</ele>
        <time>2021-06-03T08:54:10.000Z</time>
      </trkpt>
      <trkpt lat="44.97751" lon="-0.4173">
        <ele>28.6</ele>
        <time>2021-06-03T08:54:12.000Z</time>
      </trkpt>
      <trkpt lat="44.97755" lon="-0.4172">
        <ele>29</ele>
        <time>2021-06-03T08:54:14.000Z</time>
      </trkpt>
      <trkpt lat="44.97758" lon="-0.41711">
        <ele>28.7</ele>
        <time>2021-06-03T08:54:16.000Z</time>
      </trkpt>
      <trkpt lat="44.97762" lon="-0.41702">
        <ele>29.4</ele>
        <time>2021-06-03T08:54:18.000Z</time>
      </trkpt>
      <trkpt lat="44.97766" lon="-0.41693">
        <ele>29.6</ele>
        <time>2021-06-03T08:54:20.000Z</time>
      </trkpt>
      <trkpt lat="44.9777" lon="-0.41685">
        <ele>29.9</ele>
        <time>2021-06-03T08:54:22.000Z</time>
      </trkpt>
      <trkpt lat="44.97774" lon="-0.41676">
        <ele>30.2</ele>
        <time>2021-06-03T08:54:24.000Z</time>
      </trkpt>
      <trkpt lat="44.97777" lon="-0.41669">
        <ele>30.3</ele>
        <time>2021-06-03T08:54:26.000Z</time>
      </trkpt>
      <trkpt lat="44.97781" lon="-0.4166">
        <ele>30.4</ele>
        <time>2021-06-03T08:54:28.000Z</time>
      </trkpt>
      <trkpt lat="44.97786" lon="-0.41651">
        <ele>30.3</ele>
        <time>2021-06-03T08:54:30.000Z</time>
      </trkpt>
      <trkpt lat="44.9779" lon="-0.41642">
        <ele>30.8</ele>
        <time>2021-06-03T08:54:32.000Z</time>
      </trkpt>
      <trkpt lat="44.97795" lon="-0.41632">
        <ele>30.9</ele>
        <time>2021-06-03T08:54:34.000Z</time>
      </trkpt>
      <trkpt lat="44.97799" lon="-0.41621">
        <ele>30.8</ele>
        <time>2021-06-03T08:54:36.000Z</time>
      </trkpt>
      <trkpt lat="44.97804" lon="-0.41611">
        <ele>30.5</ele>
        <time>2021-06-03T08:54:38.000Z</time>
      </trkpt>
      <trkpt lat="44.97807" lon="-0.41605">
        <ele>30.3</ele>
        <time>2021-06-03T08:54:39.000Z</time>
      </trkpt>
      <trkpt lat="44.97809" lon="-0.416">
        <ele>30.2</ele>
        <time>2021-06-03T08:54:40.000Z</time>
      </trkpt>
      <trkpt lat="44.97817" lon="-0.41585">
        <ele>30</ele>
        <time>2021-06-03T08:54:43.000Z</time>
      </trkpt>
      <trkpt lat="44.97821" lon="-0.41574">
        <ele>30.2</ele>
        <time>2021-06-03T08:54:45.000Z</time>
      </trkpt>
      <trkpt lat="44.97826" lon="-0.41564">
        <ele>30.5</ele>
        <time>2021-06-03T08:54:47.000Z</time>
      </trkpt>
      <trkpt lat="44.9783" lon="-0.41554">
        <ele>29.8</ele>
        <time>2021-06-03T08:54:49.000Z</time>
      </trkpt>
      <trkpt lat="44.97834" lon="-0.41543">
        <ele>29.5</ele>
        <time>2021-06-03T08:54:51.000Z</time>
      </trkpt>
      <trkpt lat="44.97838" lon="-0.41533">
        <ele>29.6</ele>
        <time>2021-06-03T08:54:53.000Z</time>
      </trkpt>
      <trkpt lat="44.97841" lon="-0.41522">
        <ele>29.9</ele>
        <time>2021-06-03T08:54:55.000Z</time>
      </trkpt>
      <trkpt lat="44.97845" lon="-0.41511">
        <ele>30.1</ele>
        <time>2021-06-03T08:54:57.000Z</time>
      </trkpt>
      <trkpt lat="44.97847" lon="-0.415">
        <ele>30.4</ele>
        <time>2021-06-03T08:54:59.000Z</time>
      </trkpt>
      <trkpt lat="44.97852" lon="-0.41489">
        <ele>30.4</ele>
        <time>2021-06-03T08:55:01.000Z</time>
      </trkpt>
      <trkpt lat="44.97855" lon="-0.41479">
        <ele>30.1</ele>
        <time>2021-06-03T08:55:03.000Z</time>
      </trkpt>
      <trkpt lat="44.97859" lon="-0.41468">
        <ele>29.8</ele>
        <time>2021-06-03T08:55:05.000Z</time>
      </trkpt>
      <trkpt lat="44.97863" lon="-0.41457">
        <ele>29.4</ele>
        <time>2021-06-03T08:55:07.000Z</time>
      </trkpt>
      <trkpt lat="44.97867" lon="-0.41446">
        <ele>29.3</ele>
        <time>2021-06-03T08:55:09.000Z</time>
      </trkpt>
      <trkpt lat="44.97871" lon="-0.41435">
        <ele>29.4</ele>
        <time>2021-06-03T08:55:11.000Z</time>
      </trkpt>
      <trkpt lat="44.97876" lon="-0.41425">
        <ele>29.5</ele>
        <time>2021-06-03T08:55:13.000Z</time>
      </trkpt>
      <trkpt lat="44.97881" lon="-0.41416">
        <ele>29.3</ele>
        <time>2021-06-03T08:55:15.000Z</time>
      </trkpt>
      <trkpt lat="44.97886" lon="-0.41407">
        <ele>29.1</ele>
        <time>2021-06-03T08:55:17.000Z</time>
      </trkpt>
      <trkpt lat="44.97892" lon="-0.41397">
        <ele>29.3</ele>
        <time>2021-06-03T08:55:19.000Z</time>
      </trkpt>
      <trkpt lat="44.97897" lon="-0.41389">
        <ele>29.7</ele>
        <time>2021-06-03T08:55:21.000Z</time>
      </trkpt>
      <trkpt lat="44.97903" lon="-0.4138">
        <ele>29.9</ele>
        <time>2021-06-03T08:55:23.000Z</time>
      </trkpt>
      <trkpt lat="44.97909" lon="-0.41372">
        <ele>30.1</ele>
        <time>2021-06-03T08:55:25.000Z</time>
      </trkpt>
      <trkpt lat="44.97915" lon="-0.41363">
        <ele>30.4</ele>
        <time>2021-06-03T08:55:27.000Z</time>
      </trkpt>
      <trkpt lat="44.97921" lon="-0.41355">
        <ele>30.7</ele>
        <time>2021-06-03T08:55:29.000Z</time>
      </trkpt>
      <trkpt lat="44.97927" lon="-0.41346">
        <ele>30.3</ele>
        <time>2021-06-03T08:55:31.000Z</time>
      </trkpt>
      <trkpt lat="44.97933" lon="-0.41337">
        <ele>30.1</ele>
        <time>2021-06-03T08:55:33.000Z</time>
      </trkpt>
      <trkpt lat="44.97936" lon="-0.41332">
        <ele>30.1</ele>
        <time>2021-06-03T08:55:34.000Z</time>
      </trkpt>
      <trkpt lat="44.97939" lon="-0.41327">
        <ele>30.2</ele>
        <time>2021-06-03T08:55:35.000Z</time>
      </trkpt>
      <trkpt lat="44.97944" lon="-0.41317">
        <ele>30.3</ele>
        <time>2021-06-03T08:55:37.000Z</time>
      </trkpt>
      <trkpt lat="44.97949" lon="-0.41306">
        <ele>30.4</ele>
        <time>2021-06-03T08:55:39.000Z</time>
      </trkpt>
      <trkpt lat="44.97952" lon="-0.41294">
        <ele>30.5</ele>
        <time>2021-06-03T08:55:41.000Z</time>
      </trkpt>
      <trkpt lat="44.97953" lon="-0.41288">
        <ele>30.7</ele>
        <time>2021-06-03T08:55:42.000Z</time>
      </trkpt>
      <trkpt lat="44.97954" lon="-0.41269">
        <ele>30.7</ele>
        <time>2021-06-03T08:55:45.000Z</time>
      </trkpt>
      <trkpt lat="44.97953" lon="-0.41257">
        <ele>31</ele>
        <time>2021-06-03T08:55:47.000Z</time>
      </trkpt>
      <trkpt lat="44.9795" lon="-0.41246">
        <ele>31.4</ele>
        <time>2021-06-03T08:55:49.000Z</time>
      </trkpt>
      <trkpt lat="44.97948" lon="-0.41234">
        <ele>31</ele>
        <time>2021-06-03T08:55:51.000Z</time>
      </trkpt>
      <trkpt lat="44.97945" lon="-0.41225">
        <ele>31</ele>
        <time>2021-06-03T08:55:53.000Z</time>
      </trkpt>
      <trkpt lat="44.97942" lon="-0.41215">
        <ele>30.2</ele>
        <time>2021-06-03T08:55:55.000Z</time>
      </trkpt>
      <trkpt lat="44.97939" lon="-0.41203">
        <ele>30.2</ele>
        <time>2021-06-03T08:55:57.000Z</time>
      </trkpt>
      <trkpt lat="44.97936" lon="-0.41192">
        <ele>30.4</ele>
        <time>2021-06-03T08:55:59.000Z</time>
      </trkpt>
      <trkpt lat="44.97933" lon="-0.4118">
        <ele>30.4</ele>
        <time>2021-06-03T08:56:01.000Z</time>
      </trkpt>
      <trkpt lat="44.97931" lon="-0.41169">
        <ele>30.4</ele>
        <time>2021-06-03T08:56:03.000Z</time>
      </trkpt>
      <trkpt lat="44.97928" lon="-0.41158">
        <ele>30.2</ele>
        <time>2021-06-03T08:56:05.000Z</time>
      </trkpt>
      <trkpt lat="44.97925" lon="-0.41147">
        <ele>30.9</ele>
        <time>2021-06-03T08:56:07.000Z</time>
      </trkpt>
      <trkpt lat="44.97922" lon="-0.41137">
        <ele>30.9</ele>
        <time>2021-06-03T08:56:09.000Z</time>
      </trkpt>
      <trkpt lat="44.97919" lon="-0.41127">
        <ele>31.1</ele>
        <time>2021-06-03T08:56:11.000Z</time>
      </trkpt>
      <trkpt lat="44.97916" lon="-0.41116">
        <ele>31.3</ele>
        <time>2021-06-03T08:56:13.000Z</time>
      </trkpt>
      <trkpt lat="44.97913" lon="-0.41104">
        <ele>31.4</ele>
        <time>2021-06-03T08:56:15.000Z</time>
      </trkpt>
      <trkpt lat="44.9791" lon="-0.41093">
        <ele>31.6</ele>
        <time>2021-06-03T08:56:17.000Z</time>
      </trkpt>
      <trkpt lat="44.97906" lon="-0.41083">
        <ele>31.9</ele>
        <time>2021-06-03T08:56:19.000Z</time>
      </trkpt>
      <trkpt lat="44.97903" lon="-0.41073">
        <ele>31.9</ele>
        <time>2021-06-03T08:56:21.000Z</time>
      </trkpt>
      <trkpt lat="44.979" lon="-0.41065">
        <ele>31.8</ele>
        <time>2021-06-03T08:56:23.000Z</time>
      </trkpt>
      <trkpt lat="44.97896" lon="-0.41057">
        <ele>31.9</ele>
        <time>2021-06-03T08:56:25.000Z</time>
      </trkpt>
      <trkpt lat="44.97892" lon="-0.41047">
        <ele>32.1</ele>
        <time>2021-06-03T08:56:28.000Z</time>
      </trkpt>
      <trkpt lat="44.97891" lon="-0.41036">
        <ele>31.9</ele>
        <time>2021-06-03T08:56:32.000Z</time>
      </trkpt>
      <trkpt lat="44.97895" lon="-0.4103">
        <ele>32</ele>
        <time>2021-06-03T08:56:34.000Z</time>
      </trkpt>
      <trkpt lat="44.97902" lon="-0.41024">
        <ele>31.4</ele>
        <time>2021-06-03T08:56:36.000Z</time>
      </trkpt>
      <trkpt lat="44.97908" lon="-0.41017">
        <ele>31</ele>
        <time>2021-06-03T08:56:38.000Z</time>
      </trkpt>
      <trkpt lat="44.97912" lon="-0.41014">
        <ele>30.7</ele>
        <time>2021-06-03T08:56:39.000Z</time>
      </trkpt>
      <trkpt lat="44.97916" lon="-0.4101">
        <ele>30.5</ele>
        <time>2021-06-03T08:56:40.000Z</time>
      </trkpt>
      <trkpt lat="44.9792" lon="-0.41006">
        <ele>30.4</ele>
        <time>2021-06-03T08:56:41.000Z</time>
      </trkpt>
      <trkpt lat="44.97923" lon="-0.41002">
        <ele>30.4</ele>
        <time>2021-06-03T08:56:42.000Z</time>
      </trkpt>
      <trkpt lat="44.97927" lon="-0.40998">
        <ele>30.4</ele>
        <time>2021-06-03T08:56:43.000Z</time>
      </trkpt>
      <trkpt lat="44.97935" lon="-0.40991">
        <ele>29.8</ele>
        <time>2021-06-03T08:56:45.000Z</time>
      </trkpt>
      <trkpt lat="44.97942" lon="-0.40985">
        <ele>30</ele>
        <time>2021-06-03T08:56:47.000Z</time>
      </trkpt>
      <trkpt lat="44.9795" lon="-0.40979">
        <ele>30</ele>
        <time>2021-06-03T08:56:49.000Z</time>
      </trkpt>
      <trkpt lat="44.97954" lon="-0.40975">
        <ele>30</ele>
        <time>2021-06-03T08:56:50.000Z</time>
      </trkpt>
      <trkpt lat="44.97961" lon="-0.40969">
        <ele>30.2</ele>
        <time>2021-06-03T08:56:52.000Z</time>
      </trkpt>
      <trkpt lat="44.97969" lon="-0.40963">
        <ele>30.3</ele>
        <time>2021-06-03T08:56:54.000Z</time>
      </trkpt>
      <trkpt lat="44.97977" lon="-0.40957">
        <ele>30.2</ele>
        <time>2021-06-03T08:56:56.000Z</time>
      </trkpt>
      <trkpt lat="44.97984" lon="-0.40952">
        <ele>30.7</ele>
        <time>2021-06-03T08:56:58.000Z</time>
      </trkpt>
      <trkpt lat="44.97991" lon="-0.40947">
        <ele>31.4</ele>
        <time>2021-06-03T08:57:00.000Z</time>
      </trkpt>
      <trkpt lat="44.97998" lon="-0.40942">
        <ele>32.1</ele>
        <time>2021-06-03T08:57:02.000Z</time>
      </trkpt>
      <trkpt lat="44.98005" lon="-0.40937">
        <ele>31.8</ele>
        <time>2021-06-03T08:57:04.000Z</time>
      </trkpt>
      <trkpt lat="44.98011" lon="-0.40932">
        <ele>31.7</ele>
        <time>2021-06-03T08:57:06.000Z</time>
      </trkpt>
      <trkpt lat="44.98017" lon="-0.40927">
        <ele>32</ele>
        <time>2021-06-03T08:57:08.000Z</time>
      </trkpt>
      <trkpt lat="44.98023" lon="-0.40923">
        <ele>32.6</ele>
        <time>2021-06-03T08:57:10.000Z</time>
      </trkpt>
      <trkpt lat="44.98029" lon="-0.40919">
        <ele>33</ele>
        <time>2021-06-03T08:57:12.000Z</time>
      </trkpt>
      <trkpt lat="44.98036" lon="-0.40915">
        <ele>32.8</ele>
        <time>2021-06-03T08:57:14.000Z</time>
      </trkpt>
      <trkpt lat="44.98043" lon="-0.4091">
        <ele>32.5</ele>
        <time>2021-06-03T08:57:16.000Z</time>
      </trkpt>
      <trkpt lat="44.9805" lon="-0.40905">
        <ele>32.4</ele>
        <time>2021-06-03T08:57:18.000Z</time>
      </trkpt>
      <trkpt lat="44.98057" lon="-0.40901">
        <ele>32.8</ele>
        <time>2021-06-03T08:57:20.000Z</time>
      </trkpt>
      <trkpt lat="44.98064" lon="-0.40896">
        <ele>33</ele>
        <time>2021-06-03T08:57:22.000Z</time>
      </trkpt>
      <trkpt lat="44.98072" lon="-0.40892">
        <ele>32.4</ele>
        <time>2021-06-03T08:57:24.000Z</time>
      </trkpt>
      <trkpt lat="44.9808" lon="-0.40886">
        <ele>31.9</ele>
        <time>2021-06-03T08:57:26.000Z</time>
      </trkpt>
      <trkpt lat="44.98084" lon="-0.40884">
        <ele>31.8</ele>
        <time>2021-06-03T08:57:27.000Z</time>
      </trkpt>
      <trkpt lat="44.98089" lon="-0.40881">
        <ele>31.6</ele>
        <time>2021-06-03T08:57:28.000Z</time>
      </trkpt>
      <trkpt lat="44.98093" lon="-0.40878">
        <ele>31.8</ele>
        <time>2021-06-03T08:57:29.000Z</time>
      </trkpt>
      <trkpt lat="44.98097" lon="-0.40876">
        <ele>31.9</ele>
        <time>2021-06-03T08:57:30.000Z</time>
      </trkpt>
      <trkpt lat="44.98101" lon="-0.40873">
        <ele>32</ele>
        <time>2021-06-03T08:57:31.000Z</time>
      </trkpt>
      <trkpt lat="44.98106" lon="-0.4087">
        <ele>32.1</ele>
        <time>2021-06-03T08:57:32.000Z</time>
      </trkpt>
      <trkpt lat="44.9811" lon="-0.40868">
        <ele>32.2</ele>
        <time>2021-06-03T08:57:33.000Z</time>
      </trkpt>
      <trkpt lat="44.98115" lon="-0.40865">
        <ele>31.8</ele>
        <time>2021-06-03T08:57:34.000Z</time>
      </trkpt>
      <trkpt lat="44.98119" lon="-0.40862">
        <ele>31.5</ele>
        <time>2021-06-03T08:57:35.000Z</time>
      </trkpt>
      <trkpt lat="44.98124" lon="-0.40859">
        <ele>31.5</ele>
        <time>2021-06-03T08:57:36.000Z</time>
      </trkpt>
      <trkpt lat="44.98129" lon="-0.40857">
        <ele>31.6</ele>
        <time>2021-06-03T08:57:37.000Z</time>
      </trkpt>
      <trkpt lat="44.98133" lon="-0.40854">
        <ele>31.6</ele>
        <time>2021-06-03T08:57:38.000Z</time>
      </trkpt>
      <trkpt lat="44.98137" lon="-0.40851">
        <ele>31.4</ele>
        <time>2021-06-03T08:57:39.000Z</time>
      </trkpt>
      <trkpt lat="44.98145" lon="-0.40846">
        <ele>30.9</ele>
        <time>2021-06-03T08:57:41.000Z</time>
      </trkpt>
      <trkpt lat="44.98153" lon="-0.40839">
        <ele>30.7</ele>
        <time>2021-06-03T08:57:43.000Z</time>
      </trkpt>
      <trkpt lat="44.98157" lon="-0.40837">
        <ele>30.7</ele>
        <time>2021-06-03T08:57:44.000Z</time>
      </trkpt>
      <trkpt lat="44.98168" lon="-0.40828">
        <ele>30.7</ele>
        <time>2021-06-03T08:57:47.000Z</time>
      </trkpt>
      <trkpt lat="44.98172" lon="-0.40825">
        <ele>30.4</ele>
        <time>2021-06-03T08:57:48.000Z</time>
      </trkpt>
      <trkpt lat="44.98176" lon="-0.40822">
        <ele>30.2</ele>
        <time>2021-06-03T08:57:49.000Z</time>
      </trkpt>
      <trkpt lat="44.98181" lon="-0.40819">
        <ele>30.1</ele>
        <time>2021-06-03T08:57:50.000Z</time>
      </trkpt>
      <trkpt lat="44.98185" lon="-0.40816">
        <ele>30.2</ele>
        <time>2021-06-03T08:57:51.000Z</time>
      </trkpt>
      <trkpt lat="44.98189" lon="-0.40812">
        <ele>30.4</ele>
        <time>2021-06-03T08:57:52.000Z</time>
      </trkpt>
      <trkpt lat="44.98193" lon="-0.40809">
        <ele>30.1</ele>
        <time>2021-06-03T08:57:53.000Z</time>
      </trkpt>
      <trkpt lat="44.98197" lon="-0.40806">
        <ele>29.9</ele>
        <time>2021-06-03T08:57:54.000Z</time>
      </trkpt>
      <trkpt lat="44.98201" lon="-0.40803">
        <ele>30</ele>
        <time>2021-06-03T08:57:55.000Z</time>
      </trkpt>
      <trkpt lat="44.98209" lon="-0.40797">
        <ele>30.1</ele>
        <time>2021-06-03T08:57:57.000Z</time>
      </trkpt>
      <trkpt lat="44.98216" lon="-0.40791">
        <ele>30.1</ele>
        <time>2021-06-03T08:58:00.000Z</time>
      </trkpt>
      <trkpt lat="44.98224" lon="-0.40785">
        <ele>29.2</ele>
        <time>2021-06-03T08:58:07.000Z</time>
      </trkpt>
      <trkpt lat="44.98233" lon="-0.40783">
        <ele>29.4</ele>
        <time>2021-06-03T08:58:33.000Z</time>
      </trkpt>
      <trkpt lat="44.98239" lon="-0.40774">
        <ele>29.4</ele>
        <time>2021-06-03T08:58:40.000Z</time>
      </trkpt>
      <trkpt lat="44.98244" lon="-0.40765">
        <ele>29.7</ele>
        <time>2021-06-03T08:59:10.000Z</time>
      </trkpt>
      <trkpt lat="44.98245" lon="-0.40764">
        <ele>29.8</ele>
        <time>2021-06-03T08:59:11.000Z</time>
      </trkpt>
      <trkpt lat="44.98255" lon="-0.40757">
        <ele>29.5</ele>
        <time>2021-06-03T08:59:15.000Z</time>
      </trkpt>
      <trkpt lat="44.98261" lon="-0.40751">
        <ele>29.4</ele>
        <time>2021-06-03T08:59:17.000Z</time>
      </trkpt>
      <trkpt lat="44.98268" lon="-0.40744">
        <ele>29.4</ele>
        <time>2021-06-03T08:59:19.000Z</time>
      </trkpt>
      <trkpt lat="44.98275" lon="-0.40737">
        <ele>29.4</ele>
        <time>2021-06-03T08:59:21.000Z</time>
      </trkpt>
      <trkpt lat="44.98283" lon="-0.40729">
        <ele>29.4</ele>
        <time>2021-06-03T08:59:23.000Z</time>
      </trkpt>
      <trkpt lat="44.98287" lon="-0.40726">
        <ele>29.4</ele>
        <time>2021-06-03T08:59:24.000Z</time>
      </trkpt>
      <trkpt lat="44.98291" lon="-0.40722">
        <ele>29.3</ele>
        <time>2021-06-03T08:59:25.000Z</time>
      </trkpt>
      <trkpt lat="44.98295" lon="-0.40719">
        <ele>29.3</ele>
        <time>2021-06-03T08:59:26.000Z</time>
      </trkpt>
      <trkpt lat="44.98299" lon="-0.40715">
        <ele>29.3</ele>
        <time>2021-06-03T08:59:27.000Z</time>
      </trkpt>
      <trkpt lat="44.98303" lon="-0.40712">
        <ele>29.2</ele>
        <time>2021-06-03T08:59:28.000Z</time>
      </trkpt>
      <trkpt lat="44.98307" lon="-0.40709">
        <ele>29.2</ele>
        <time>2021-06-03T08:59:29.000Z</time>
      </trkpt>
      <trkpt lat="44.98312" lon="-0.40706">
        <ele>29.1</ele>
        <time>2021-06-03T08:59:30.000Z</time>
      </trkpt>
      <trkpt lat="44.98316" lon="-0.40703">
        <ele>29.1</ele>
        <time>2021-06-03T08:59:31.000Z</time>
      </trkpt>
      <trkpt lat="44.98324" lon="-0.40697">
        <ele>29.3</ele>
        <time>2021-06-03T08:59:33.000Z</time>
      </trkpt>
      <trkpt lat="44.98328" lon="-0.40695">
        <ele>29.4</ele>
        <time>2021-06-03T08:59:34.000Z</time>
      </trkpt>
      <trkpt lat="44.98332" lon="-0.40692">
        <ele>29.7</ele>
        <time>2021-06-03T08:59:35.000Z</time>
      </trkpt>
      <trkpt lat="44.98336" lon="-0.40689">
        <ele>29.8</ele>
        <time>2021-06-03T08:59:36.000Z</time>
      </trkpt>
      <trkpt lat="44.98344" lon="-0.40682">
        <ele>29.8</ele>
        <time>2021-06-03T08:59:38.000Z</time>
      </trkpt>
      <trkpt lat="44.98351" lon="-0.40675">
        <ele>29.9</ele>
        <time>2021-06-03T08:59:40.000Z</time>
      </trkpt>
      <trkpt lat="44.98358" lon="-0.40668">
        <ele>30.2</ele>
        <time>2021-06-03T08:59:42.000Z</time>
      </trkpt>
      <trkpt lat="44.98365" lon="-0.40661">
        <ele>30.6</ele>
        <time>2021-06-03T08:59:44.000Z</time>
      </trkpt>
      <trkpt lat="44.98372" lon="-0.40654">
        <ele>30.9</ele>
        <time>2021-06-03T08:59:46.000Z</time>
      </trkpt>
      <trkpt lat="44.98378" lon="-0.40647">
        <ele>31.4</ele>
        <time>2021-06-03T08:59:48.000Z</time>
      </trkpt>
      <trkpt lat="44.98385" lon="-0.4064">
        <ele>32</ele>
        <time>2021-06-03T08:59:50.000Z</time>
      </trkpt>
      <trkpt lat="44.98391" lon="-0.40633">
        <ele>32.4</ele>
        <time>2021-06-03T08:59:52.000Z</time>
      </trkpt>
      <trkpt lat="44.98398" lon="-0.40626">
        <ele>32.9</ele>
        <time>2021-06-03T08:59:54.000Z</time>
      </trkpt>
      <trkpt lat="44.98404" lon="-0.4062">
        <ele>33.4</ele>
        <time>2021-06-03T08:59:56.000Z</time>
      </trkpt>
      <trkpt lat="44.98411" lon="-0.40613">
        <ele>33.8</ele>
        <time>2021-06-03T08:59:58.000Z</time>
      </trkpt>
      <trkpt lat="44.98417" lon="-0.40606">
        <ele>33.9</ele>
        <time>2021-06-03T09:00:00.000Z</time>
      </trkpt>
      <trkpt lat="44.98423" lon="-0.40599">
        <ele>34.6</ele>
        <time>2021-06-03T09:00:02.000Z</time>
      </trkpt>
      <trkpt lat="44.98429" lon="-0.40592">
        <ele>35.1</ele>
        <time>2021-06-03T09:00:04.000Z</time>
      </trkpt>
      <trkpt lat="44.98435" lon="-0.40585">
        <ele>35.5</ele>
        <time>2021-06-03T09:00:06.000Z</time>
      </trkpt>
      <trkpt lat="44.98442" lon="-0.40579">
        <ele>35.7</ele>
        <time>2021-06-03T09:00:08.000Z</time>
      </trkpt>
      <trkpt lat="44.98448" lon="-0.40573">
        <ele>35.7</ele>
        <time>2021-06-03T09:00:10.000Z</time>
      </trkpt>
      <trkpt lat="44.98455" lon="-0.40566">
        <ele>36.1</ele>
        <time>2021-06-03T09:00:12.000Z</time>
      </trkpt>
      <trkpt lat="44.98458" lon="-0.40563">
        <ele>36.4</ele>
        <time>2021-06-03T09:00:13.000Z</time>
      </trkpt>
      <trkpt lat="44.98467" lon="-0.40554">
        <ele>36.1</ele>
        <time>2021-06-03T09:00:16.000Z</time>
      </trkpt>
      <trkpt lat="44.98473" lon="-0.40549">
        <ele>36.4</ele>
        <time>2021-06-03T09:00:18.000Z</time>
      </trkpt>
      <trkpt lat="44.98479" lon="-0.40543">
        <ele>36.8</ele>
        <time>2021-06-03T09:00:20.000Z</time>
      </trkpt>
      <trkpt lat="44.98484" lon="-0.40538">
        <ele>37</ele>
        <time>2021-06-03T09:00:22.000Z</time>
      </trkpt>
      <trkpt lat="44.9849" lon="-0.40532">
        <ele>37.1</ele>
        <time>2021-06-03T09:00:25.000Z</time>
      </trkpt>
      <trkpt lat="44.98497" lon="-0.40526">
        <ele>37.1</ele>
        <time>2021-06-03T09:00:29.000Z</time>
      </trkpt>
      <trkpt lat="44.98498" lon="-0.40515">
        <ele>36.2</ele>
        <time>2021-06-03T09:00:33.000Z</time>
      </trkpt>
      <trkpt lat="44.98498" lon="-0.40506">
        <ele>36.2</ele>
        <time>2021-06-03T09:00:35.000Z</time>
      </trkpt>
      <trkpt lat="44.98499" lon="-0.40496">
        <ele>36.3</ele>
        <time>2021-06-03T09:00:37.000Z</time>
      </trkpt>
      <trkpt lat="44.98499" lon="-0.40484">
        <ele>36.4</ele>
        <time>2021-06-03T09:00:39.000Z</time>
      </trkpt>
      <trkpt lat="44.98499" lon="-0.40477">
        <ele>36.4</ele>
        <time>2021-06-03T09:00:40.000Z</time>
      </trkpt>
      <trkpt lat="44.98499" lon="-0.4047">
        <ele>35.8</ele>
        <time>2021-06-03T09:00:41.000Z</time>
      </trkpt>
      <trkpt lat="44.985" lon="-0.40463">
        <ele>35.4</ele>
        <time>2021-06-03T09:00:42.000Z</time>
      </trkpt>
      <trkpt lat="44.985" lon="-0.40456">
        <ele>35.2</ele>
        <time>2021-06-03T09:00:43.000Z</time>
      </trkpt>
      <trkpt lat="44.98501" lon="-0.40449">
        <ele>34.6</ele>
        <time>2021-06-03T09:00:44.000Z</time>
      </trkpt>
      <trkpt lat="44.98501" lon="-0.40441">
        <ele>34.1</ele>
        <time>2021-06-03T09:00:45.000Z</time>
      </trkpt>
      <trkpt lat="44.98502" lon="-0.40434">
        <ele>34</ele>
        <time>2021-06-03T09:00:46.000Z</time>
      </trkpt>
      <trkpt lat="44.98503" lon="-0.40427">
        <ele>33.9</ele>
        <time>2021-06-03T09:00:47.000Z</time>
      </trkpt>
      <trkpt lat="44.98505" lon="-0.4042">
        <ele>34</ele>
        <time>2021-06-03T09:00:48.000Z</time>
      </trkpt>
      <trkpt lat="44.98506" lon="-0.40413">
        <ele>34.1</ele>
        <time>2021-06-03T09:00:49.000Z</time>
      </trkpt>
      <trkpt lat="44.98508" lon="-0.40405">
        <ele>34.2</ele>
        <time>2021-06-03T09:00:50.000Z</time>
      </trkpt>
      <trkpt lat="44.98509" lon="-0.40398">
        <ele>34</ele>
        <time>2021-06-03T09:00:51.000Z</time>
      </trkpt>
      <trkpt lat="44.98511" lon="-0.40391">
        <ele>34</ele>
        <time>2021-06-03T09:00:52.000Z</time>
      </trkpt>
      <trkpt lat="44.98513" lon="-0.40383">
        <ele>33.5</ele>
        <time>2021-06-03T09:00:53.000Z</time>
      </trkpt>
      <trkpt lat="44.98515" lon="-0.40376">
        <ele>33.2</ele>
        <time>2021-06-03T09:00:54.000Z</time>
      </trkpt>
      <trkpt lat="44.98516" lon="-0.40368">
        <ele>33</ele>
        <time>2021-06-03T09:00:55.000Z</time>
      </trkpt>
      <trkpt lat="44.98518" lon="-0.4036">
        <ele>32.7</ele>
        <time>2021-06-03T09:00:56.000Z</time>
      </trkpt>
      <trkpt lat="44.9852" lon="-0.40352">
        <ele>32.5</ele>
        <time>2021-06-03T09:00:57.000Z</time>
      </trkpt>
      <trkpt lat="44.98522" lon="-0.40343">
        <ele>32.5</ele>
        <time>2021-06-03T09:00:58.000Z</time>
      </trkpt>
      <trkpt lat="44.98524" lon="-0.40335">
        <ele>32.4</ele>
        <time>2021-06-03T09:00:59.000Z</time>
      </trkpt>
      <trkpt lat="44.98526" lon="-0.40327">
        <ele>32.1</ele>
        <time>2021-06-03T09:01:00.000Z</time>
      </trkpt>
      <trkpt lat="44.98527" lon="-0.40318">
        <ele>31.8</ele>
        <time>2021-06-03T09:01:01.000Z</time>
      </trkpt>
      <trkpt lat="44.98529" lon="-0.4031">
        <ele>31.6</ele>
        <time>2021-06-03T09:01:02.000Z</time>
      </trkpt>
      <trkpt lat="44.98532" lon="-0.40302">
        <ele>31.6</ele>
        <time>2021-06-03T09:01:03.000Z</time>
      </trkpt>
      <trkpt lat="44.98534" lon="-0.40293">
        <ele>31.5</ele>
        <time>2021-06-03T09:01:04.000Z</time>
      </trkpt>
      <trkpt lat="44.98537" lon="-0.40285">
        <ele>30.9</ele>
        <time>2021-06-03T09:01:05.000Z</time>
      </trkpt>
      <trkpt lat="44.98539" lon="-0.40276">
        <ele>30.4</ele>
        <time>2021-06-03T09:01:06.000Z</time>
      </trkpt>
      <trkpt lat="44.98542" lon="-0.40268">
        <ele>30.2</ele>
        <time>2021-06-03T09:01:07.000Z</time>
      </trkpt>
      <trkpt lat="44.98544" lon="-0.40259">
        <ele>30.1</ele>
        <time>2021-06-03T09:01:08.000Z</time>
      </trkpt>
      <trkpt lat="44.98546" lon="-0.4025">
        <ele>30</ele>
        <time>2021-06-03T09:01:09.000Z</time>
      </trkpt>
      <trkpt lat="44.98548" lon="-0.40242">
        <ele>29.9</ele>
        <time>2021-06-03T09:01:10.000Z</time>
      </trkpt>
      <trkpt lat="44.9855" lon="-0.40233">
        <ele>29.8</ele>
        <time>2021-06-03T09:01:11.000Z</time>
      </trkpt>
      <trkpt lat="44.98553" lon="-0.40224">
        <ele>29.5</ele>
        <time>2021-06-03T09:01:12.000Z</time>
      </trkpt>
      <trkpt lat="44.98554" lon="-0.40215">
        <ele>29.2</ele>
        <time>2021-06-03T09:01:13.000Z</time>
      </trkpt>
      <trkpt lat="44.98556" lon="-0.40206">
        <ele>29</ele>
        <time>2021-06-03T09:01:14.000Z</time>
      </trkpt>
      <trkpt lat="44.98557" lon="-0.40197">
        <ele>28.7</ele>
        <time>2021-06-03T09:01:15.000Z</time>
      </trkpt>
      <trkpt lat="44.98558" lon="-0.40187">
        <ele>28.5</ele>
        <time>2021-06-03T09:01:16.000Z</time>
      </trkpt>
      <trkpt lat="44.98558" lon="-0.40177">
        <ele>28.2</ele>
        <time>2021-06-03T09:01:17.000Z</time>
      </trkpt>
      <trkpt lat="44.98558" lon="-0.40167">
        <ele>28</ele>
        <time>2021-06-03T09:01:18.000Z</time>
      </trkpt>
      <trkpt lat="44.98558" lon="-0.40157">
        <ele>27.6</ele>
        <time>2021-06-03T09:01:19.000Z</time>
      </trkpt>
      <trkpt lat="44.98559" lon="-0.40148">
        <ele>27.4</ele>
        <time>2021-06-03T09:01:20.000Z</time>
      </trkpt>
      <trkpt lat="44.98559" lon="-0.40138">
        <ele>27.2</ele>
        <time>2021-06-03T09:01:21.000Z</time>
      </trkpt>
      <trkpt lat="44.9856" lon="-0.40129">
        <ele>27</ele>
        <time>2021-06-03T09:01:22.000Z</time>
      </trkpt>
      <trkpt lat="44.9856" lon="-0.4012">
        <ele>26.8</ele>
        <time>2021-06-03T09:01:23.000Z</time>
      </trkpt>
      <trkpt lat="44.98561" lon="-0.40111">
        <ele>26.5</ele>
        <time>2021-06-03T09:01:24.000Z</time>
      </trkpt>
      <trkpt lat="44.98562" lon="-0.40103">
        <ele>26.2</ele>
        <time>2021-06-03T09:01:25.000Z</time>
      </trkpt>
      <trkpt lat="44.98562" lon="-0.40096">
        <ele>26.3</ele>
        <time>2021-06-03T09:01:26.000Z</time>
      </trkpt>
      <trkpt lat="44.98563" lon="-0.40084">
        <ele>26.4</ele>
        <time>2021-06-03T09:01:28.000Z</time>
      </trkpt>
      <trkpt lat="44.98564" lon="-0.40072">
        <ele>26.7</ele>
        <time>2021-06-03T09:01:30.000Z</time>
      </trkpt>
      <trkpt lat="44.98564" lon="-0.40062">
        <ele>26.5</ele>
        <time>2021-06-03T09:01:32.000Z</time>
      </trkpt>
      <trkpt lat="44.98563" lon="-0.4005">
        <ele>25.1</ele>
        <time>2021-06-03T09:01:35.000Z</time>
      </trkpt>
      <trkpt lat="44.98562" lon="-0.40038">
        <ele>25</ele>
        <time>2021-06-03T09:01:39.000Z</time>
      </trkpt>
      <trkpt lat="44.9856" lon="-0.40026">
        <ele>25.1</ele>
        <time>2021-06-03T09:01:47.000Z</time>
      </trkpt>
      <trkpt lat="44.98561" lon="-0.40014">
        <ele>25.1</ele>
        <time>2021-06-03T09:01:56.000Z</time>
      </trkpt>
      <trkpt lat="44.9856" lon="-0.40004">
        <ele>24.7</ele>
        <time>2021-06-03T09:02:06.000Z</time>
      </trkpt>
      <trkpt lat="44.98558" lon="-0.39993">
        <ele>24.6</ele>
        <time>2021-06-03T09:02:09.000Z</time>
      </trkpt>
      <trkpt lat="44.98557" lon="-0.39984">
        <ele>24.3</ele>
        <time>2021-06-03T09:02:11.000Z</time>
      </trkpt>
      <trkpt lat="44.98556" lon="-0.39974">
        <ele>24.6</ele>
        <time>2021-06-03T09:02:13.000Z</time>
      </trkpt>
      <trkpt lat="44.98556" lon="-0.39964">
        <ele>24.1</ele>
        <time>2021-06-03T09:02:15.000Z</time>
      </trkpt>
      <trkpt lat="44.98556" lon="-0.3996">
        <ele>24.1</ele>
        <time>2021-06-03T09:02:16.000Z</time>
      </trkpt>
      <trkpt lat="44.98558" lon="-0.3994">
        <ele>24</ele>
        <time>2021-06-03T09:02:34.000Z</time>
      </trkpt>
      <trkpt lat="44.98557" lon="-0.39927">
        <ele>24</ele>
        <time>2021-06-03T09:03:31.000Z</time>
      </trkpt>
      <trkpt lat="44.98556" lon="-0.39926">
        <ele>24</ele>
        <time>2021-06-03T09:03:32.000Z</time>
      </trkpt>
      <trkpt lat="44.98553" lon="-0.39904">
        <ele>23.5</ele>
        <time>2021-06-03T09:03:39.000Z</time>
      </trkpt>
      <trkpt lat="44.98552" lon="-0.39895">
        <ele>23.4</ele>
        <time>2021-06-03T09:03:41.000Z</time>
      </trkpt>
      <trkpt lat="44.9855" lon="-0.39886">
        <ele>22.9</ele>
        <time>2021-06-03T09:03:43.000Z</time>
      </trkpt>
      <trkpt lat="44.98549" lon="-0.39876">
        <ele>23.3</ele>
        <time>2021-06-03T09:03:45.000Z</time>
      </trkpt>
      <trkpt lat="44.98547" lon="-0.39866">
        <ele>23.6</ele>
        <time>2021-06-03T09:03:47.000Z</time>
      </trkpt>
      <trkpt lat="44.98545" lon="-0.39856">
        <ele>24</ele>
        <time>2021-06-03T09:03:49.000Z</time>
      </trkpt>
      <trkpt lat="44.98542" lon="-0.39846">
        <ele>24.3</ele>
        <time>2021-06-03T09:03:51.000Z</time>
      </trkpt>
      <trkpt lat="44.98541" lon="-0.39836">
        <ele>24.5</ele>
        <time>2021-06-03T09:03:53.000Z</time>
      </trkpt>
      <trkpt lat="44.98538" lon="-0.39825">
        <ele>24.9</ele>
        <time>2021-06-03T09:03:55.000Z</time>
      </trkpt>
      <trkpt lat="44.98537" lon="-0.39814">
        <ele>24.4</ele>
        <time>2021-06-03T09:03:57.000Z</time>
      </trkpt>
      <trkpt lat="44.98535" lon="-0.39803">
        <ele>24</ele>
        <time>2021-06-03T09:03:59.000Z</time>
      </trkpt>
      <trkpt lat="44.98533" lon="-0.39791">
        <ele>24.2</ele>
        <time>2021-06-03T09:04:01.000Z</time>
      </trkpt>
      <trkpt lat="44.98531" lon="-0.3978">
        <ele>24.8</ele>
        <time>2021-06-03T09:04:03.000Z</time>
      </trkpt>
      <trkpt lat="44.9853" lon="-0.39768">
        <ele>24.6</ele>
        <time>2021-06-03T09:04:05.000Z</time>
      </trkpt>
      <trkpt lat="44.98529" lon="-0.39757">
        <ele>24</ele>
        <time>2021-06-03T09:04:07.000Z</time>
      </trkpt>
      <trkpt lat="44.98528" lon="-0.39745">
        <ele>24.2</ele>
        <time>2021-06-03T09:04:09.000Z</time>
      </trkpt>
      <trkpt lat="44.98528" lon="-0.39733">
        <ele>24.7</ele>
        <time>2021-06-03T09:04:11.000Z</time>
      </trkpt>
      <trkpt lat="44.98527" lon="-0.39722">
        <ele>24.7</ele>
        <time>2021-06-03T09:04:13.000Z</time>
      </trkpt>
      <trkpt lat="44.98526" lon="-0.39712">
        <ele>24.7</ele>
        <time>2021-06-03T09:04:15.000Z</time>
      </trkpt>
      <trkpt lat="44.98526" lon="-0.39701">
        <ele>24.9</ele>
        <time>2021-06-03T09:04:17.000Z</time>
      </trkpt>
      <trkpt lat="44.98525" lon="-0.39691">
        <ele>24.9</ele>
        <time>2021-06-03T09:04:19.000Z</time>
      </trkpt>
      <trkpt lat="44.98525" lon="-0.39682">
        <ele>25.3</ele>
        <time>2021-06-03T09:04:21.000Z</time>
      </trkpt>
      <trkpt lat="44.98525" lon="-0.39672">
        <ele>26.2</ele>
        <time>2021-06-03T09:04:23.000Z</time>
      </trkpt>
      <trkpt lat="44.98525" lon="-0.39663">
        <ele>26.7</ele>
        <time>2021-06-03T09:04:25.000Z</time>
      </trkpt>
      <trkpt lat="44.98524" lon="-0.39654">
        <ele>26.8</ele>
        <time>2021-06-03T09:04:27.000Z</time>
      </trkpt>
      <trkpt lat="44.98521" lon="-0.39645">
        <ele>27</ele>
        <time>2021-06-03T09:04:29.000Z</time>
      </trkpt>
      <trkpt lat="44.98518" lon="-0.39636">
        <ele>27.2</ele>
        <time>2021-06-03T09:04:31.000Z</time>
      </trkpt>
      <trkpt lat="44.98513" lon="-0.3963">
        <ele>27.4</ele>
        <time>2021-06-03T09:04:33.000Z</time>
      </trkpt>
      <trkpt lat="44.98511" lon="-0.39627">
        <ele>27.7</ele>
        <time>2021-06-03T09:04:34.000Z</time>
      </trkpt>
      <trkpt lat="44.985" lon="-0.39614">
        <ele>27.8</ele>
        <time>2021-06-03T09:04:39.000Z</time>
      </trkpt>
      <trkpt lat="44.98495" lon="-0.39608">
        <ele>28.3</ele>
        <time>2021-06-03T09:04:41.000Z</time>
      </trkpt>
      <trkpt lat="44.9849" lon="-0.39602">
        <ele>28.4</ele>
        <time>2021-06-03T09:04:43.000Z</time>
      </trkpt>
      <trkpt lat="44.98485" lon="-0.39596">
        <ele>28.3</ele>
        <time>2021-06-03T09:04:45.000Z</time>
      </trkpt>
      <trkpt lat="44.9848" lon="-0.3959">
        <ele>28.4</ele>
        <time>2021-06-03T09:04:47.000Z</time>
      </trkpt>
      <trkpt lat="44.98476" lon="-0.39584">
        <ele>28.5</ele>
        <time>2021-06-03T09:04:49.000Z</time>
      </trkpt>
      <trkpt lat="44.98471" lon="-0.39578">
        <ele>28.5</ele>
        <time>2021-06-03T09:04:51.000Z</time>
      </trkpt>
      <trkpt lat="44.98468" lon="-0.39571">
        <ele>28.8</ele>
        <time>2021-06-03T09:04:53.000Z</time>
      </trkpt>
      <trkpt lat="44.98464" lon="-0.39564">
        <ele>28.9</ele>
        <time>2021-06-03T09:04:55.000Z</time>
      </trkpt>
      <trkpt lat="44.98461" lon="-0.39556">
        <ele>28.7</ele>
        <time>2021-06-03T09:04:57.000Z</time>
      </trkpt>
      <trkpt lat="44.9846" lon="-0.39547">
        <ele>29.7</ele>
        <time>2021-06-03T09:04:59.000Z</time>
      </trkpt>
      <trkpt lat="44.98459" lon="-0.39538">
        <ele>29.4</ele>
        <time>2021-06-03T09:05:01.000Z</time>
      </trkpt>
      <trkpt lat="44.98459" lon="-0.39528">
        <ele>29.7</ele>
        <time>2021-06-03T09:05:03.000Z</time>
      </trkpt>
      <trkpt lat="44.98458" lon="-0.39519">
        <ele>30.1</ele>
        <time>2021-06-03T09:05:05.000Z</time>
      </trkpt>
      <trkpt lat="44.98458" lon="-0.3951">
        <ele>30.3</ele>
        <time>2021-06-03T09:05:07.000Z</time>
      </trkpt>
      <trkpt lat="44.98457" lon="-0.39501">
        <ele>30.2</ele>
        <time>2021-06-03T09:05:09.000Z</time>
      </trkpt>
      <trkpt lat="44.98456" lon="-0.39491">
        <ele>30.2</ele>
        <time>2021-06-03T09:05:11.000Z</time>
      </trkpt>
      <trkpt lat="44.98456" lon="-0.39482">
        <ele>30.6</ele>
        <time>2021-06-03T09:05:13.000Z</time>
      </trkpt>
      <trkpt lat="44.98455" lon="-0.39473">
        <ele>30.5</ele>
        <time>2021-06-03T09:05:15.000Z</time>
      </trkpt>
      <trkpt lat="44.98454" lon="-0.39463">
        <ele>30.7</ele>
        <time>2021-06-03T09:05:17.000Z</time>
      </trkpt>
      <trkpt lat="44.98454" lon="-0.39454">
        <ele>31</ele>
        <time>2021-06-03T09:05:19.000Z</time>
      </trkpt>
      <trkpt lat="44.98453" lon="-0.39445">
        <ele>31.4</ele>
        <time>2021-06-03T09:05:21.000Z</time>
      </trkpt>
      <trkpt lat="44.98452" lon="-0.39436">
        <ele>31.8</ele>
        <time>2021-06-03T09:05:23.000Z</time>
      </trkpt>
      <trkpt lat="44.98452" lon="-0.39427">
        <ele>32.6</ele>
        <time>2021-06-03T09:05:25.000Z</time>
      </trkpt>
      <trkpt lat="44.98451" lon="-0.39418">
        <ele>32.8</ele>
        <time>2021-06-03T09:05:27.000Z</time>
      </trkpt>
      <trkpt lat="44.98451" lon="-0.39409">
        <ele>32.8</ele>
        <time>2021-06-03T09:05:29.000Z</time>
      </trkpt>
      <trkpt lat="44.9845" lon="-0.394">
        <ele>33.1</ele>
        <time>2021-06-03T09:05:31.000Z</time>
      </trkpt>
      <trkpt lat="44.98449" lon="-0.39392">
        <ele>33.2</ele>
        <time>2021-06-03T09:05:33.000Z</time>
      </trkpt>
      <trkpt lat="44.98449" lon="-0.39384">
        <ele>33</ele>
        <time>2021-06-03T09:05:35.000Z</time>
      </trkpt>
      <trkpt lat="44.98448" lon="-0.39379">
        <ele>33.2</ele>
        <time>2021-06-03T09:05:36.000Z</time>
      </trkpt>
      <trkpt lat="44.98446" lon="-0.39367">
        <ele>33.7</ele>
        <time>2021-06-03T09:05:39.000Z</time>
      </trkpt>
      <trkpt lat="44.98446" lon="-0.39358">
        <ele>34.1</ele>
        <time>2021-06-03T09:05:41.000Z</time>
      </trkpt>
      <trkpt lat="44.98445" lon="-0.3935">
        <ele>34.4</ele>
        <time>2021-06-03T09:05:43.000Z</time>
      </trkpt>
      <trkpt lat="44.98443" lon="-0.39341">
        <ele>34.7</ele>
        <time>2021-06-03T09:05:45.000Z</time>
      </trkpt>
      <trkpt lat="44.98442" lon="-0.39333">
        <ele>34.9</ele>
        <time>2021-06-03T09:05:47.000Z</time>
      </trkpt>
      <trkpt lat="44.98441" lon="-0.39324">
        <ele>35</ele>
        <time>2021-06-03T09:05:49.000Z</time>
      </trkpt>
      <trkpt lat="44.98439" lon="-0.39312">
        <ele>35.5</ele>
        <time>2021-06-03T09:05:52.000Z</time>
      </trkpt>
      <trkpt lat="44.98437" lon="-0.39304">
        <ele>35.6</ele>
        <time>2021-06-03T09:05:54.000Z</time>
      </trkpt>
      <trkpt lat="44.98436" lon="-0.39295">
        <ele>35.3</ele>
        <time>2021-06-03T09:05:56.000Z</time>
      </trkpt>
      <trkpt lat="44.98434" lon="-0.39287">
        <ele>35.3</ele>
        <time>2021-06-03T09:05:58.000Z</time>
      </trkpt>
      <trkpt lat="44.98432" lon="-0.39278">
        <ele>35.5</ele>
        <time>2021-06-03T09:06:00.000Z</time>
      </trkpt>
      <trkpt lat="44.9843" lon="-0.3927">
        <ele>35.8</ele>
        <time>2021-06-03T09:06:02.000Z</time>
      </trkpt>
      <trkpt lat="44.98428" lon="-0.39261">
        <ele>36.3</ele>
        <time>2021-06-03T09:06:04.000Z</time>
      </trkpt>
      <trkpt lat="44.98426" lon="-0.39253">
        <ele>36.8</ele>
        <time>2021-06-03T09:06:06.000Z</time>
      </trkpt>
      <trkpt lat="44.98425" lon="-0.39244">
        <ele>36.9</ele>
        <time>2021-06-03T09:06:08.000Z</time>
      </trkpt>
      <trkpt lat="44.98423" lon="-0.39236">
        <ele>37.5</ele>
        <time>2021-06-03T09:06:10.000Z</time>
      </trkpt>
      <trkpt lat="44.98421" lon="-0.39228">
        <ele>37.1</ele>
        <time>2021-06-03T09:06:12.000Z</time>
      </trkpt>
      <trkpt lat="44.98419" lon="-0.3922">
        <ele>37.3</ele>
        <time>2021-06-03T09:06:14.000Z</time>
      </trkpt>
      <trkpt lat="44.98417" lon="-0.39211">
        <ele>37.7</ele>
        <time>2021-06-03T09:06:16.000Z</time>
      </trkpt>
      <trkpt lat="44.98416" lon="-0.39203">
        <ele>38.2</ele>
        <time>2021-06-03T09:06:18.000Z</time>
      </trkpt>
      <trkpt lat="44.98414" lon="-0.39195">
        <ele>38.5</ele>
        <time>2021-06-03T09:06:20.000Z</time>
      </trkpt>
      <trkpt lat="44.98412" lon="-0.39186">
        <ele>38</ele>
        <time>2021-06-03T09:06:22.000Z</time>
      </trkpt>
      <trkpt lat="44.98411" lon="-0.39177">
        <ele>38.3</ele>
        <time>2021-06-03T09:06:24.000Z</time>
      </trkpt>
      <trkpt lat="44.98409" lon="-0.39169">
        <ele>39</ele>
        <time>2021-06-03T09:06:26.000Z</time>
      </trkpt>
      <trkpt lat="44.98407" lon="-0.3916">
        <ele>39.2</ele>
        <time>2021-06-03T09:06:28.000Z</time>
      </trkpt>
      <trkpt lat="44.98406" lon="-0.39151">
        <ele>39.1</ele>
        <time>2021-06-03T09:06:30.000Z</time>
      </trkpt>
      <trkpt lat="44.98404" lon="-0.39142">
        <ele>39.5</ele>
        <time>2021-06-03T09:06:32.000Z</time>
      </trkpt>
      <trkpt lat="44.98403" lon="-0.39134">
        <ele>40.2</ele>
        <time>2021-06-03T09:06:34.000Z</time>
      </trkpt>
      <trkpt lat="44.98402" lon="-0.39126">
        <ele>40.1</ele>
        <time>2021-06-03T09:06:36.000Z</time>
      </trkpt>
      <trkpt lat="44.98401" lon="-0.39121">
        <ele>40.3</ele>
        <time>2021-06-03T09:06:37.000Z</time>
      </trkpt>
      <trkpt lat="44.98399" lon="-0.39106">
        <ele>40.5</ele>
        <time>2021-06-03T09:06:40.000Z</time>
      </trkpt>
      <trkpt lat="44.98397" lon="-0.39095">
        <ele>40.8</ele>
        <time>2021-06-03T09:06:42.000Z</time>
      </trkpt>
      <trkpt lat="44.98395" lon="-0.39084">
        <ele>41</ele>
        <time>2021-06-03T09:06:44.000Z</time>
      </trkpt>
      <trkpt lat="44.98394" lon="-0.39074">
        <ele>41.1</ele>
        <time>2021-06-03T09:06:46.000Z</time>
      </trkpt>
      <trkpt lat="44.98392" lon="-0.39064">
        <ele>41.2</ele>
        <time>2021-06-03T09:06:48.000Z</time>
      </trkpt>
      <trkpt lat="44.98391" lon="-0.39054">
        <ele>41.5</ele>
        <time>2021-06-03T09:06:50.000Z</time>
      </trkpt>
      <trkpt lat="44.9839" lon="-0.39045">
        <ele>41.5</ele>
        <time>2021-06-03T09:06:52.000Z</time>
      </trkpt>
      <trkpt lat="44.98389" lon="-0.39035">
        <ele>41.7</ele>
        <time>2021-06-03T09:06:54.000Z</time>
      </trkpt>
      <trkpt lat="44.98387" lon="-0.39026">
        <ele>41.8</ele>
        <time>2021-06-03T09:06:56.000Z</time>
      </trkpt>
      <trkpt lat="44.98386" lon="-0.39016">
        <ele>41.8</ele>
        <time>2021-06-03T09:06:58.000Z</time>
      </trkpt>
      <trkpt lat="44.98385" lon="-0.39007">
        <ele>41.9</ele>
        <time>2021-06-03T09:07:00.000Z</time>
      </trkpt>
      <trkpt lat="44.98384" lon="-0.38998">
        <ele>42</ele>
        <time>2021-06-03T09:07:02.000Z</time>
      </trkpt>
      <trkpt lat="44.98383" lon="-0.38988">
        <ele>41.8</ele>
        <time>2021-06-03T09:07:04.000Z</time>
      </trkpt>
      <trkpt lat="44.98382" lon="-0.38979">
        <ele>41.6</ele>
        <time>2021-06-03T09:07:06.000Z</time>
      </trkpt>
      <trkpt lat="44.98381" lon="-0.38966">
        <ele>42.1</ele>
        <time>2021-06-03T09:07:09.000Z</time>
      </trkpt>
      <trkpt lat="44.98379" lon="-0.38958">
        <ele>42.4</ele>
        <time>2021-06-03T09:07:11.000Z</time>
      </trkpt>
      <trkpt lat="44.98378" lon="-0.38948">
        <ele>42.7</ele>
        <time>2021-06-03T09:07:13.000Z</time>
      </trkpt>
      <trkpt lat="44.98377" lon="-0.38939">
        <ele>42.8</ele>
        <time>2021-06-03T09:07:15.000Z</time>
      </trkpt>
      <trkpt lat="44.98375" lon="-0.38929">
        <ele>42.8</ele>
        <time>2021-06-03T09:07:17.000Z</time>
      </trkpt>
      <trkpt lat="44.98372" lon="-0.38918">
        <ele>43.3</ele>
        <time>2021-06-03T09:07:19.000Z</time>
      </trkpt>
      <trkpt lat="44.98371" lon="-0.38912">
        <ele>43.6</ele>
        <time>2021-06-03T09:07:20.000Z</time>
      </trkpt>
      <trkpt lat="44.9837" lon="-0.38905">
        <ele>43.8</ele>
        <time>2021-06-03T09:07:21.000Z</time>
      </trkpt>
      <trkpt lat="44.98369" lon="-0.38893">
        <ele>44.1</ele>
        <time>2021-06-03T09:07:23.000Z</time>
      </trkpt>
      <trkpt lat="44.98368" lon="-0.38882">
        <ele>44.2</ele>
        <time>2021-06-03T09:07:25.000Z</time>
      </trkpt>
      <trkpt lat="44.98367" lon="-0.38872">
        <ele>44.2</ele>
        <time>2021-06-03T09:07:27.000Z</time>
      </trkpt>
      <trkpt lat="44.98366" lon="-0.3886">
        <ele>44.5</ele>
        <time>2021-06-03T09:07:30.000Z</time>
      </trkpt>
      <trkpt lat="44.98365" lon="-0.38851">
        <ele>44.9</ele>
        <time>2021-06-03T09:07:32.000Z</time>
      </trkpt>
      <trkpt lat="44.98364" lon="-0.38841">
        <ele>44.6</ele>
        <time>2021-06-03T09:07:34.000Z</time>
      </trkpt>
      <trkpt lat="44.98362" lon="-0.3883">
        <ele>43.9</ele>
        <time>2021-06-03T09:07:36.000Z</time>
      </trkpt>
      <trkpt lat="44.98361" lon="-0.38819">
        <ele>44.3</ele>
        <time>2021-06-03T09:07:38.000Z</time>
      </trkpt>
      <trkpt lat="44.9836" lon="-0.38813">
        <ele>44.3</ele>
        <time>2021-06-03T09:07:39.000Z</time>
      </trkpt>
      <trkpt lat="44.98359" lon="-0.38797">
        <ele>44.7</ele>
        <time>2021-06-03T09:07:42.000Z</time>
      </trkpt>
      <trkpt lat="44.98358" lon="-0.38786">
        <ele>45.2</ele>
        <time>2021-06-03T09:07:44.000Z</time>
      </trkpt>
      <trkpt lat="44.98357" lon="-0.38775">
        <ele>45.3</ele>
        <time>2021-06-03T09:07:46.000Z</time>
      </trkpt>
      <trkpt lat="44.98356" lon="-0.38765">
        <ele>45.2</ele>
        <time>2021-06-03T09:07:48.000Z</time>
      </trkpt>
      <trkpt lat="44.98355" lon="-0.38754">
        <ele>45.3</ele>
        <time>2021-06-03T09:07:50.000Z</time>
      </trkpt>
      <trkpt lat="44.98354" lon="-0.38742">
        <ele>45.5</ele>
        <time>2021-06-03T09:07:52.000Z</time>
      </trkpt>
      <trkpt lat="44.98353" lon="-0.38731">
        <ele>45.6</ele>
        <time>2021-06-03T09:07:54.000Z</time>
      </trkpt>
      <trkpt lat="44.98352" lon="-0.3872">
        <ele>45.9</ele>
        <time>2021-06-03T09:07:56.000Z</time>
      </trkpt>
      <trkpt lat="44.9835" lon="-0.3871">
        <ele>46</ele>
        <time>2021-06-03T09:07:58.000Z</time>
      </trkpt>
      <trkpt lat="44.98349" lon="-0.38699">
        <ele>46.2</ele>
        <time>2021-06-03T09:08:00.000Z</time>
      </trkpt>
      <trkpt lat="44.98348" lon="-0.38688">
        <ele>46.4</ele>
        <time>2021-06-03T09:08:02.000Z</time>
      </trkpt>
      <trkpt lat="44.98346" lon="-0.38678">
        <ele>46.3</ele>
        <time>2021-06-03T09:08:04.000Z</time>
      </trkpt>
      <trkpt lat="44.98344" lon="-0.38668">
        <ele>46.7</ele>
        <time>2021-06-03T09:08:06.000Z</time>
      </trkpt>
      <trkpt lat="44.98342" lon="-0.38658">
        <ele>46.9</ele>
        <time>2021-06-03T09:08:08.000Z</time>
      </trkpt>
      <trkpt lat="44.98339" lon="-0.38648">
        <ele>47</ele>
        <time>2021-06-03T09:08:10.000Z</time>
      </trkpt>
      <trkpt lat="44.98337" lon="-0.38638">
        <ele>46.9</ele>
        <time>2021-06-03T09:08:12.000Z</time>
      </trkpt>
      <trkpt lat="44.98334" lon="-0.38628">
        <ele>46.8</ele>
        <time>2021-06-03T09:08:14.000Z</time>
      </trkpt>
      <trkpt lat="44.98331" lon="-0.38618">
        <ele>46.7</ele>
        <time>2021-06-03T09:08:16.000Z</time>
      </trkpt>
      <trkpt lat="44.98328" lon="-0.38608">
        <ele>47.2</ele>
        <time>2021-06-03T09:08:18.000Z</time>
      </trkpt>
      <trkpt lat="44.98325" lon="-0.38598">
        <ele>47.8</ele>
        <time>2021-06-03T09:08:20.000Z</time>
      </trkpt>
      <trkpt lat="44.98323" lon="-0.38588">
        <ele>47.8</ele>
        <time>2021-06-03T09:08:22.000Z</time>
      </trkpt>
      <trkpt lat="44.9832" lon="-0.38579">
        <ele>47.6</ele>
        <time>2021-06-03T09:08:24.000Z</time>
      </trkpt>
      <trkpt lat="44.98317" lon="-0.38569">
        <ele>47.9</ele>
        <time>2021-06-03T09:08:26.000Z</time>
      </trkpt>
      <trkpt lat="44.98314" lon="-0.38559">
        <ele>48.3</ele>
        <time>2021-06-03T09:08:28.000Z</time>
      </trkpt>
      <trkpt lat="44.98311" lon="-0.38549">
        <ele>48.4</ele>
        <time>2021-06-03T09:08:30.000Z</time>
      </trkpt>
      <trkpt lat="44.98308" lon="-0.38539">
        <ele>48.6</ele>
        <time>2021-06-03T09:08:32.000Z</time>
      </trkpt>
      <trkpt lat="44.98305" lon="-0.38529">
        <ele>48.7</ele>
        <time>2021-06-03T09:08:34.000Z</time>
      </trkpt>
      <trkpt lat="44.98302" lon="-0.38519">
        <ele>48.7</ele>
        <time>2021-06-03T09:08:36.000Z</time>
      </trkpt>
      <trkpt lat="44.983" lon="-0.38509">
        <ele>48.6</ele>
        <time>2021-06-03T09:08:38.000Z</time>
      </trkpt>
      <trkpt lat="44.98297" lon="-0.38499">
        <ele>48.6</ele>
        <time>2021-06-03T09:08:40.000Z</time>
      </trkpt>
      <trkpt lat="44.98296" lon="-0.38493">
        <ele>49</ele>
        <time>2021-06-03T09:08:41.000Z</time>
      </trkpt>
      <trkpt lat="44.98292" lon="-0.38478">
        <ele>49.1</ele>
        <time>2021-06-03T09:08:44.000Z</time>
      </trkpt>
      <trkpt lat="44.9829" lon="-0.38468">
        <ele>49.3</ele>
        <time>2021-06-03T09:08:46.000Z</time>
      </trkpt>
      <trkpt lat="44.98287" lon="-0.38458">
        <ele>49.3</ele>
        <time>2021-06-03T09:08:48.000Z</time>
      </trkpt>
      <trkpt lat="44.98285" lon="-0.38447">
        <ele>49.3</ele>
        <time>2021-06-03T09:08:50.000Z</time>
      </trkpt>
      <trkpt lat="44.98283" lon="-0.38437">
        <ele>49.3</ele>
        <time>2021-06-03T09:08:52.000Z</time>
      </trkpt>
      <trkpt lat="44.98281" lon="-0.38426">
        <ele>50.1</ele>
        <time>2021-06-03T09:08:54.000Z</time>
      </trkpt>
      <trkpt lat="44.98279" lon="-0.38416">
        <ele>49.9</ele>
        <time>2021-06-03T09:08:56.000Z</time>
      </trkpt>
      <trkpt lat="44.98276" lon="-0.38405">
        <ele>50.7</ele>
        <time>2021-06-03T09:08:58.000Z</time>
      </trkpt>
      <trkpt lat="44.98274" lon="-0.38395">
        <ele>50.8</ele>
        <time>2021-06-03T09:09:00.000Z</time>
      </trkpt>
      <trkpt lat="44.98272" lon="-0.38385">
        <ele>50.9</ele>
        <time>2021-06-03T09:09:02.000Z</time>
      </trkpt>
      <trkpt lat="44.9827" lon="-0.38374">
        <ele>51.1</ele>
        <time>2021-06-03T09:09:04.000Z</time>
      </trkpt>
      <trkpt lat="44.98268" lon="-0.38364">
        <ele>51.1</ele>
        <time>2021-06-03T09:09:06.000Z</time>
      </trkpt>
      <trkpt lat="44.98266" lon="-0.38353">
        <ele>51</ele>
        <time>2021-06-03T09:09:08.000Z</time>
      </trkpt>
      <trkpt lat="44.98263" lon="-0.38343">
        <ele>51.5</ele>
        <time>2021-06-03T09:09:10.000Z</time>
      </trkpt>
      <trkpt lat="44.98261" lon="-0.38333">
        <ele>51.7</ele>
        <time>2021-06-03T09:09:12.000Z</time>
      </trkpt>
      <trkpt lat="44.98259" lon="-0.38322">
        <ele>51.7</ele>
        <time>2021-06-03T09:09:14.000Z</time>
      </trkpt>
      <trkpt lat="44.98257" lon="-0.38312">
        <ele>51.9</ele>
        <time>2021-06-03T09:09:16.000Z</time>
      </trkpt>
      <trkpt lat="44.98255" lon="-0.38302">
        <ele>52.1</ele>
        <time>2021-06-03T09:09:18.000Z</time>
      </trkpt>
      <trkpt lat="44.98253" lon="-0.38292">
        <ele>51.9</ele>
        <time>2021-06-03T09:09:20.000Z</time>
      </trkpt>
      <trkpt lat="44.9825" lon="-0.38283">
        <ele>52.4</ele>
        <time>2021-06-03T09:09:22.000Z</time>
      </trkpt>
      <trkpt lat="44.98248" lon="-0.38273">
        <ele>52.7</ele>
        <time>2021-06-03T09:09:24.000Z</time>
      </trkpt>
      <trkpt lat="44.98247" lon="-0.38263">
        <ele>52.7</ele>
        <time>2021-06-03T09:09:26.000Z</time>
      </trkpt>
      <trkpt lat="44.98245" lon="-0.38253">
        <ele>52.7</ele>
        <time>2021-06-03T09:09:28.000Z</time>
      </trkpt>
      <trkpt lat="44.98244" lon="-0.38241">
        <ele>52.7</ele>
        <time>2021-06-03T09:09:30.000Z</time>
      </trkpt>
      <trkpt lat="44.98242" lon="-0.3823">
        <ele>52.5</ele>
        <time>2021-06-03T09:09:32.000Z</time>
      </trkpt>
      <trkpt lat="44.98241" lon="-0.38218">
        <ele>53.4</ele>
        <time>2021-06-03T09:09:34.000Z</time>
      </trkpt>
      <trkpt lat="44.98239" lon="-0.38207">
        <ele>53.3</ele>
        <time>2021-06-03T09:09:36.000Z</time>
      </trkpt>
      <trkpt lat="44.98237" lon="-0.38197">
        <ele>53.3</ele>
        <time>2021-06-03T09:09:38.000Z</time>
      </trkpt>
      <trkpt lat="44.98236" lon="-0.38186">
        <ele>53.4</ele>
        <time>2021-06-03T09:09:40.000Z</time>
      </trkpt>
      <trkpt lat="44.98235" lon="-0.38176">
        <ele>53.2</ele>
        <time>2021-06-03T09:09:42.000Z</time>
      </trkpt>
      <trkpt lat="44.98234" lon="-0.38171">
        <ele>53.1</ele>
        <time>2021-06-03T09:09:43.000Z</time>
      </trkpt>
      <trkpt lat="44.98231" lon="-0.38155">
        <ele>53.2</ele>
        <time>2021-06-03T09:09:46.000Z</time>
      </trkpt>
      <trkpt lat="44.98228" lon="-0.38145">
        <ele>53.3</ele>
        <time>2021-06-03T09:09:48.000Z</time>
      </trkpt>
      <trkpt lat="44.98225" lon="-0.38134">
        <ele>53.2</ele>
        <time>2021-06-03T09:09:50.000Z</time>
      </trkpt>
      <trkpt lat="44.98222" lon="-0.38124">
        <ele>53.3</ele>
        <time>2021-06-03T09:09:52.000Z</time>
      </trkpt>
      <trkpt lat="44.98218" lon="-0.38114">
        <ele>53.6</ele>
        <time>2021-06-03T09:09:54.000Z</time>
      </trkpt>
      <trkpt lat="44.98214" lon="-0.38105">
        <ele>53.9</ele>
        <time>2021-06-03T09:09:56.000Z</time>
      </trkpt>
      <trkpt lat="44.9821" lon="-0.38096">
        <ele>53.7</ele>
        <time>2021-06-03T09:09:58.000Z</time>
      </trkpt>
      <trkpt lat="44.98205" lon="-0.38088">
        <ele>54</ele>
        <time>2021-06-03T09:10:00.000Z</time>
      </trkpt>
      <trkpt lat="44.98199" lon="-0.38079">
        <ele>54.6</ele>
        <time>2021-06-03T09:10:02.000Z</time>
      </trkpt>
      <trkpt lat="44.98194" lon="-0.38069">
        <ele>54.8</ele>
        <time>2021-06-03T09:10:04.000Z</time>
      </trkpt>
      <trkpt lat="44.98189" lon="-0.38059">
        <ele>54.5</ele>
        <time>2021-06-03T09:10:06.000Z</time>
      </trkpt>
      <trkpt lat="44.98184" lon="-0.3805">
        <ele>54.3</ele>
        <time>2021-06-03T09:10:08.000Z</time>
      </trkpt>
      <trkpt lat="44.98179" lon="-0.3804">
        <ele>54.7</ele>
        <time>2021-06-03T09:10:10.000Z</time>
      </trkpt>
      <trkpt lat="44.98174" lon="-0.38031">
        <ele>54.9</ele>
        <time>2021-06-03T09:10:12.000Z</time>
      </trkpt>
      <trkpt lat="44.98169" lon="-0.38022">
        <ele>54.9</ele>
        <time>2021-06-03T09:10:14.000Z</time>
      </trkpt>
      <trkpt lat="44.98164" lon="-0.38014">
        <ele>54.7</ele>
        <time>2021-06-03T09:10:16.000Z</time>
      </trkpt>
      <trkpt lat="44.9816" lon="-0.38007">
        <ele>54.6</ele>
        <time>2021-06-03T09:10:18.000Z</time>
      </trkpt>
      <trkpt lat="44.98155" lon="-0.37999">
        <ele>55</ele>
        <time>2021-06-03T09:10:20.000Z</time>
      </trkpt>
      <trkpt lat="44.98151" lon="-0.37992">
        <ele>55.4</ele>
        <time>2021-06-03T09:10:22.000Z</time>
      </trkpt>
      <trkpt lat="44.98146" lon="-0.37982">
        <ele>55.6</ele>
        <time>2021-06-03T09:10:25.000Z</time>
      </trkpt>
      <trkpt lat="44.98141" lon="-0.37972">
        <ele>55.7</ele>
        <time>2021-06-03T09:10:31.000Z</time>
      </trkpt>
      <trkpt lat="44.98134" lon="-0.37967">
        <ele>55.5</ele>
        <time>2021-06-03T09:10:35.000Z</time>
      </trkpt>
      <trkpt lat="44.98129" lon="-0.37958">
        <ele>56</ele>
        <time>2021-06-03T09:10:38.000Z</time>
      </trkpt>
      <trkpt lat="44.98128" lon="-0.37949">
        <ele>55.6</ele>
        <time>2021-06-03T09:10:40.000Z</time>
      </trkpt>
      <trkpt lat="44.98128" lon="-0.3794">
        <ele>55.7</ele>
        <time>2021-06-03T09:10:42.000Z</time>
      </trkpt>
      <trkpt lat="44.98126" lon="-0.3793">
        <ele>55.6</ele>
        <time>2021-06-03T09:10:44.000Z</time>
      </trkpt>
      <trkpt lat="44.98125" lon="-0.37924">
        <ele>55.4</ele>
        <time>2021-06-03T09:10:45.000Z</time>
      </trkpt>
      <trkpt lat="44.98121" lon="-0.37909">
        <ele>55.8</ele>
        <time>2021-06-03T09:10:48.000Z</time>
      </trkpt>
      <trkpt lat="44.98119" lon="-0.37898">
        <ele>55.6</ele>
        <time>2021-06-03T09:10:50.000Z</time>
      </trkpt>
      <trkpt lat="44.98118" lon="-0.37887">
        <ele>55.6</ele>
        <time>2021-06-03T09:10:52.000Z</time>
      </trkpt>
      <trkpt lat="44.98116" lon="-0.37876">
        <ele>55.7</ele>
        <time>2021-06-03T09:10:54.000Z</time>
      </trkpt>
      <trkpt lat="44.98114" lon="-0.37865">
        <ele>55.3</ele>
        <time>2021-06-03T09:10:56.000Z</time>
      </trkpt>
      <trkpt lat="44.98112" lon="-0.37856">
        <ele>55.2</ele>
        <time>2021-06-03T09:10:58.000Z</time>
      </trkpt>
      <trkpt lat="44.98112" lon="-0.37845">
        <ele>55.5</ele>
        <time>2021-06-03T09:11:00.000Z</time>
      </trkpt>
      <trkpt lat="44.9811" lon="-0.37835">
        <ele>55.9</ele>
        <time>2021-06-03T09:11:02.000Z</time>
      </trkpt>
      <trkpt lat="44.98108" lon="-0.37825">
        <ele>56.2</ele>
        <time>2021-06-03T09:11:04.000Z</time>
      </trkpt>
      <trkpt lat="44.98105" lon="-0.37815">
        <ele>56.3</ele>
        <time>2021-06-03T09:11:06.000Z</time>
      </trkpt>
      <trkpt lat="44.98102" lon="-0.37804">
        <ele>56.1</ele>
        <time>2021-06-03T09:11:08.000Z</time>
      </trkpt>
      <trkpt lat="44.98099" lon="-0.37792">
        <ele>55.9</ele>
        <time>2021-06-03T09:11:10.000Z</time>
      </trkpt>
      <trkpt lat="44.98098" lon="-0.37786">
        <ele>55.8</ele>
        <time>2021-06-03T09:11:11.000Z</time>
      </trkpt>
      <trkpt lat="44.98095" lon="-0.37774">
        <ele>55.7</ele>
        <time>2021-06-03T09:11:13.000Z</time>
      </trkpt>
      <trkpt lat="44.98093" lon="-0.37762">
        <ele>55.7</ele>
        <time>2021-06-03T09:11:15.000Z</time>
      </trkpt>
      <trkpt lat="44.9809" lon="-0.37751">
        <ele>55.5</ele>
        <time>2021-06-03T09:11:17.000Z</time>
      </trkpt>
      <trkpt lat="44.98087" lon="-0.37739">
        <ele>55.4</ele>
        <time>2021-06-03T09:11:19.000Z</time>
      </trkpt>
      <trkpt lat="44.98086" lon="-0.37733">
        <ele>55.5</ele>
        <time>2021-06-03T09:11:20.000Z</time>
      </trkpt>
      <trkpt lat="44.98085" lon="-0.37727">
        <ele>55.5</ele>
        <time>2021-06-03T09:11:21.000Z</time>
      </trkpt>
      <trkpt lat="44.98083" lon="-0.3772">
        <ele>55.6</ele>
        <time>2021-06-03T09:11:22.000Z</time>
      </trkpt>
      <trkpt lat="44.98082" lon="-0.37714">
        <ele>55.6</ele>
        <time>2021-06-03T09:11:23.000Z</time>
      </trkpt>
      <trkpt lat="44.9808" lon="-0.37708">
        <ele>55.6</ele>
        <time>2021-06-03T09:11:24.000Z</time>
      </trkpt>
      <trkpt lat="44.98079" lon="-0.37702">
        <ele>55.6</ele>
        <time>2021-06-03T09:11:25.000Z</time>
      </trkpt>
      <trkpt lat="44.98077" lon="-0.37696">
        <ele>55.6</ele>
        <time>2021-06-03T09:11:26.000Z</time>
      </trkpt>
      <trkpt lat="44.98076" lon="-0.3769">
        <ele>55.5</ele>
        <time>2021-06-03T09:11:27.000Z</time>
      </trkpt>
      <trkpt lat="44.98073" lon="-0.37678">
        <ele>55.3</ele>
        <time>2021-06-03T09:11:29.000Z</time>
      </trkpt>
      <trkpt lat="44.98071" lon="-0.37672">
        <ele>55.3</ele>
        <time>2021-06-03T09:11:30.000Z</time>
      </trkpt>
      <trkpt lat="44.9807" lon="-0.37666">
        <ele>55.3</ele>
        <time>2021-06-03T09:11:31.000Z</time>
      </trkpt>
      <trkpt lat="44.98069" lon="-0.37659">
        <ele>55.4</ele>
        <time>2021-06-03T09:11:32.000Z</time>
      </trkpt>
      <trkpt lat="44.98068" lon="-0.37652">
        <ele>55.4</ele>
        <time>2021-06-03T09:11:33.000Z</time>
      </trkpt>
      <trkpt lat="44.98067" lon="-0.37646">
        <ele>55.6</ele>
        <time>2021-06-03T09:11:34.000Z</time>
      </trkpt>
      <trkpt lat="44.98065" lon="-0.3764">
        <ele>55.7</ele>
        <time>2021-06-03T09:11:35.000Z</time>
      </trkpt>
      <trkpt lat="44.98064" lon="-0.37633">
        <ele>55.6</ele>
        <time>2021-06-03T09:11:36.000Z</time>
      </trkpt>
      <trkpt lat="44.98063" lon="-0.37627">
        <ele>55.5</ele>
        <time>2021-06-03T09:11:37.000Z</time>
      </trkpt>
      <trkpt lat="44.98061" lon="-0.37621">
        <ele>55.4</ele>
        <time>2021-06-03T09:11:38.000Z</time>
      </trkpt>
      <trkpt lat="44.9806" lon="-0.37614">
        <ele>55.4</ele>
        <time>2021-06-03T09:11:39.000Z</time>
      </trkpt>
      <trkpt lat="44.98058" lon="-0.37608">
        <ele>55.3</ele>
        <time>2021-06-03T09:11:40.000Z</time>
      </trkpt>
      <trkpt lat="44.98057" lon="-0.37602">
        <ele>55.4</ele>
        <time>2021-06-03T09:11:41.000Z</time>
      </trkpt>
      <trkpt lat="44.98055" lon="-0.37596">
        <ele>55.4</ele>
        <time>2021-06-03T09:11:42.000Z</time>
      </trkpt>
      <trkpt lat="44.98054" lon="-0.3759">
        <ele>55.6</ele>
        <time>2021-06-03T09:11:43.000Z</time>
      </trkpt>
      <trkpt lat="44.98052" lon="-0.37583">
        <ele>55.7</ele>
        <time>2021-06-03T09:11:44.000Z</time>
      </trkpt>
      <trkpt lat="44.9805" lon="-0.37577">
        <ele>55.8</ele>
        <time>2021-06-03T09:11:45.000Z</time>
      </trkpt>
      <trkpt lat="44.98049" lon="-0.3757">
        <ele>55.9</ele>
        <time>2021-06-03T09:11:46.000Z</time>
      </trkpt>
      <trkpt lat="44.98047" lon="-0.37564">
        <ele>55.9</ele>
        <time>2021-06-03T09:11:47.000Z</time>
      </trkpt>
      <trkpt lat="44.98046" lon="-0.37558">
        <ele>55.6</ele>
        <time>2021-06-03T09:11:48.000Z</time>
      </trkpt>
      <trkpt lat="44.98044" lon="-0.37551">
        <ele>55.5</ele>
        <time>2021-06-03T09:11:49.000Z</time>
      </trkpt>
      <trkpt lat="44.98043" lon="-0.37545">
        <ele>55.4</ele>
        <time>2021-06-03T09:11:50.000Z</time>
      </trkpt>
      <trkpt lat="44.98041" lon="-0.37539">
        <ele>55.3</ele>
        <time>2021-06-03T09:11:51.000Z</time>
      </trkpt>
      <trkpt lat="44.9804" lon="-0.37532">
        <ele>55.3</ele>
        <time>2021-06-03T09:11:52.000Z</time>
      </trkpt>
      <trkpt lat="44.98038" lon="-0.37526">
        <ele>55.3</ele>
        <time>2021-06-03T09:11:53.000Z</time>
      </trkpt>
      <trkpt lat="44.98036" lon="-0.3752">
        <ele>55.3</ele>
        <time>2021-06-03T09:11:54.000Z</time>
      </trkpt>
      <trkpt lat="44.98035" lon="-0.37514">
        <ele>55.2</ele>
        <time>2021-06-03T09:11:55.000Z</time>
      </trkpt>
      <trkpt lat="44.98033" lon="-0.37507">
        <ele>55.1</ele>
        <time>2021-06-03T09:11:56.000Z</time>
      </trkpt>
      <trkpt lat="44.98032" lon="-0.37501">
        <ele>55.1</ele>
        <time>2021-06-03T09:11:57.000Z</time>
      </trkpt>
      <trkpt lat="44.9803" lon="-0.37495">
        <ele>55.1</ele>
        <time>2021-06-03T09:11:58.000Z</time>
      </trkpt>
      <trkpt lat="44.98029" lon="-0.37489">
        <ele>55.1</ele>
        <time>2021-06-03T09:11:59.000Z</time>
      </trkpt>
      <trkpt lat="44.98027" lon="-0.37482">
        <ele>54.9</ele>
        <time>2021-06-03T09:12:00.000Z</time>
      </trkpt>
      <trkpt lat="44.98026" lon="-0.37476">
        <ele>54.7</ele>
        <time>2021-06-03T09:12:01.000Z</time>
      </trkpt>
      <trkpt lat="44.98024" lon="-0.37469">
        <ele>54.8</ele>
        <time>2021-06-03T09:12:02.000Z</time>
      </trkpt>
      <trkpt lat="44.98023" lon="-0.37463">
        <ele>54.9</ele>
        <time>2021-06-03T09:12:03.000Z</time>
      </trkpt>
      <trkpt lat="44.98021" lon="-0.37456">
        <ele>55</ele>
        <time>2021-06-03T09:12:04.000Z</time>
      </trkpt>
      <trkpt lat="44.98019" lon="-0.3745">
        <ele>54.9</ele>
        <time>2021-06-03T09:12:05.000Z</time>
      </trkpt>
      <trkpt lat="44.98018" lon="-0.37443">
        <ele>54.7</ele>
        <time>2021-06-03T09:12:06.000Z</time>
      </trkpt>
      <trkpt lat="44.98016" lon="-0.37437">
        <ele>54.6</ele>
        <time>2021-06-03T09:12:07.000Z</time>
      </trkpt>
      <trkpt lat="44.98015" lon="-0.3743">
        <ele>54.5</ele>
        <time>2021-06-03T09:12:08.000Z</time>
      </trkpt>
      <trkpt lat="44.98014" lon="-0.37423">
        <ele>54.5</ele>
        <time>2021-06-03T09:12:09.000Z</time>
      </trkpt>
      <trkpt lat="44.98013" lon="-0.37416">
        <ele>54.5</ele>
        <time>2021-06-03T09:12:10.000Z</time>
      </trkpt>
      <trkpt lat="44.98011" lon="-0.37409">
        <ele>54.5</ele>
        <time>2021-06-03T09:12:11.000Z</time>
      </trkpt>
      <trkpt lat="44.9801" lon="-0.37403">
        <ele>54.4</ele>
        <time>2021-06-03T09:12:12.000Z</time>
      </trkpt>
      <trkpt lat="44.98008" lon="-0.37396">
        <ele>54.3</ele>
        <time>2021-06-03T09:12:13.000Z</time>
      </trkpt>
      <trkpt lat="44.98007" lon="-0.37389">
        <ele>54.2</ele>
        <time>2021-06-03T09:12:14.000Z</time>
      </trkpt>
      <trkpt lat="44.98005" lon="-0.37382">
        <ele>54.1</ele>
        <time>2021-06-03T09:12:15.000Z</time>
      </trkpt>
      <trkpt lat="44.98004" lon="-0.37376">
        <ele>54</ele>
        <time>2021-06-03T09:12:16.000Z</time>
      </trkpt>
      <trkpt lat="44.98003" lon="-0.37369">
        <ele>54.1</ele>
        <time>2021-06-03T09:12:17.000Z</time>
      </trkpt>
      <trkpt lat="44.98002" lon="-0.37363">
        <ele>54.1</ele>
        <time>2021-06-03T09:12:18.000Z</time>
      </trkpt>
      <trkpt lat="44.98001" lon="-0.37357">
        <ele>54</ele>
        <time>2021-06-03T09:12:19.000Z</time>
      </trkpt>
      <trkpt lat="44.97999" lon="-0.3735">
        <ele>53.9</ele>
        <time>2021-06-03T09:12:20.000Z</time>
      </trkpt>
      <trkpt lat="44.97998" lon="-0.37344">
        <ele>53.7</ele>
        <time>2021-06-03T09:12:21.000Z</time>
      </trkpt>
      <trkpt lat="44.97997" lon="-0.37337">
        <ele>53.5</ele>
        <time>2021-06-03T09:12:22.000Z</time>
      </trkpt>
      <trkpt lat="44.97996" lon="-0.3733">
        <ele>53.4</ele>
        <time>2021-06-03T09:12:23.000Z</time>
      </trkpt>
      <trkpt lat="44.97995" lon="-0.37323">
        <ele>53.1</ele>
        <time>2021-06-03T09:12:24.000Z</time>
      </trkpt>
      <trkpt lat="44.97993" lon="-0.37316">
        <ele>52.9</ele>
        <time>2021-06-03T09:12:25.000Z</time>
      </trkpt>
      <trkpt lat="44.97992" lon="-0.3731">
        <ele>53.1</ele>
        <time>2021-06-03T09:12:26.000Z</time>
      </trkpt>
      <trkpt lat="44.97991" lon="-0.37303">
        <ele>53.2</ele>
        <time>2021-06-03T09:12:27.000Z</time>
      </trkpt>
      <trkpt lat="44.9799" lon="-0.37297">
        <ele>53.6</ele>
        <time>2021-06-03T09:12:28.000Z</time>
      </trkpt>
      <trkpt lat="44.97989" lon="-0.3729">
        <ele>53.9</ele>
        <time>2021-06-03T09:12:29.000Z</time>
      </trkpt>
      <trkpt lat="44.97988" lon="-0.37284">
        <ele>54.1</ele>
        <time>2021-06-03T09:12:30.000Z</time>
      </trkpt>
      <trkpt lat="44.97987" lon="-0.37277">
        <ele>53.7</ele>
        <time>2021-06-03T09:12:31.000Z</time>
      </trkpt>
      <trkpt lat="44.97985" lon="-0.3727">
        <ele>53.4</ele>
        <time>2021-06-03T09:12:32.000Z</time>
      </trkpt>
      <trkpt lat="44.97984" lon="-0.37263">
        <ele>53</ele>
        <time>2021-06-03T09:12:33.000Z</time>
      </trkpt>
      <trkpt lat="44.97983" lon="-0.37256">
        <ele>52.6</ele>
        <time>2021-06-03T09:12:34.000Z</time>
      </trkpt>
      <trkpt lat="44.97982" lon="-0.3725">
        <ele>52.4</ele>
        <time>2021-06-03T09:12:35.000Z</time>
      </trkpt>
      <trkpt lat="44.9798" lon="-0.37243">
        <ele>52.4</ele>
        <time>2021-06-03T09:12:36.000Z</time>
      </trkpt>
      <trkpt lat="44.97979" lon="-0.37236">
        <ele>52.4</ele>
        <time>2021-06-03T09:12:37.000Z</time>
      </trkpt>
      <trkpt lat="44.97978" lon="-0.37229">
        <ele>52.6</ele>
        <time>2021-06-03T09:12:38.000Z</time>
      </trkpt>
      <trkpt lat="44.97977" lon="-0.37222">
        <ele>52.7</ele>
        <time>2021-06-03T09:12:39.000Z</time>
      </trkpt>
      <trkpt lat="44.97975" lon="-0.37215">
        <ele>52.9</ele>
        <time>2021-06-03T09:12:40.000Z</time>
      </trkpt>
      <trkpt lat="44.97974" lon="-0.37208">
        <ele>53</ele>
        <time>2021-06-03T09:12:41.000Z</time>
      </trkpt>
      <trkpt lat="44.97973" lon="-0.37202">
        <ele>53.1</ele>
        <time>2021-06-03T09:12:42.000Z</time>
      </trkpt>
      <trkpt lat="44.97972" lon="-0.37195">
        <ele>53.2</ele>
        <time>2021-06-03T09:12:43.000Z</time>
      </trkpt>
      <trkpt lat="44.9797" lon="-0.37188">
        <ele>53.2</ele>
        <time>2021-06-03T09:12:44.000Z</time>
      </trkpt>
      <trkpt lat="44.97969" lon="-0.37181">
        <ele>52.9</ele>
        <time>2021-06-03T09:12:45.000Z</time>
      </trkpt>
      <trkpt lat="44.97968" lon="-0.37174">
        <ele>52.7</ele>
        <time>2021-06-03T09:12:46.000Z</time>
      </trkpt>
      <trkpt lat="44.97967" lon="-0.37167">
        <ele>52.5</ele>
        <time>2021-06-03T09:12:47.000Z</time>
      </trkpt>
      <trkpt lat="44.97965" lon="-0.3716">
        <ele>52.3</ele>
        <time>2021-06-03T09:12:48.000Z</time>
      </trkpt>
      <trkpt lat="44.97964" lon="-0.37153">
        <ele>52.1</ele>
        <time>2021-06-03T09:12:49.000Z</time>
      </trkpt>
      <trkpt lat="44.97963" lon="-0.37147">
        <ele>51.9</ele>
        <time>2021-06-03T09:12:50.000Z</time>
      </trkpt>
      <trkpt lat="44.97962" lon="-0.3714">
        <ele>51.8</ele>
        <time>2021-06-03T09:12:51.000Z</time>
      </trkpt>
      <trkpt lat="44.9796" lon="-0.37133">
        <ele>51.9</ele>
        <time>2021-06-03T09:12:52.000Z</time>
      </trkpt>
      <trkpt lat="44.97959" lon="-0.37126">
        <ele>51.9</ele>
        <time>2021-06-03T09:12:53.000Z</time>
      </trkpt>
      <trkpt lat="44.97958" lon="-0.3712">
        <ele>52</ele>
        <time>2021-06-03T09:12:54.000Z</time>
      </trkpt>
      <trkpt lat="44.97957" lon="-0.37113">
        <ele>52</ele>
        <time>2021-06-03T09:12:55.000Z</time>
      </trkpt>
      <trkpt lat="44.97955" lon="-0.37107">
        <ele>52.1</ele>
        <time>2021-06-03T09:12:56.000Z</time>
      </trkpt>
      <trkpt lat="44.97954" lon="-0.371">
        <ele>52.3</ele>
        <time>2021-06-03T09:12:57.000Z</time>
      </trkpt>
      <trkpt lat="44.97953" lon="-0.37093">
        <ele>52.4</ele>
        <time>2021-06-03T09:12:58.000Z</time>
      </trkpt>
      <trkpt lat="44.97952" lon="-0.37087">
        <ele>52.4</ele>
        <time>2021-06-03T09:12:59.000Z</time>
      </trkpt>
      <trkpt lat="44.97951" lon="-0.3708">
        <ele>52.4</ele>
        <time>2021-06-03T09:13:00.000Z</time>
      </trkpt>
      <trkpt lat="44.9795" lon="-0.37074">
        <ele>52.4</ele>
        <time>2021-06-03T09:13:01.000Z</time>
      </trkpt>
      <trkpt lat="44.97948" lon="-0.37068">
        <ele>52.6</ele>
        <time>2021-06-03T09:13:02.000Z</time>
      </trkpt>
      <trkpt lat="44.97947" lon="-0.37061">
        <ele>52.7</ele>
        <time>2021-06-03T09:13:03.000Z</time>
      </trkpt>
      <trkpt lat="44.97946" lon="-0.37055">
        <ele>52.6</ele>
        <time>2021-06-03T09:13:04.000Z</time>
      </trkpt>
      <trkpt lat="44.97945" lon="-0.37048">
        <ele>52.6</ele>
        <time>2021-06-03T09:13:05.000Z</time>
      </trkpt>
      <trkpt lat="44.97944" lon="-0.37042">
        <ele>52.5</ele>
        <time>2021-06-03T09:13:06.000Z</time>
      </trkpt>
      <trkpt lat="44.97942" lon="-0.37036">
        <ele>52.5</ele>
        <time>2021-06-03T09:13:07.000Z</time>
      </trkpt>
      <trkpt lat="44.97941" lon="-0.37029">
        <ele>52.5</ele>
        <time>2021-06-03T09:13:08.000Z</time>
      </trkpt>
      <trkpt lat="44.9794" lon="-0.37022">
        <ele>52.6</ele>
        <time>2021-06-03T09:13:09.000Z</time>
      </trkpt>
      <trkpt lat="44.97939" lon="-0.37015">
        <ele>52.7</ele>
        <time>2021-06-03T09:13:10.000Z</time>
      </trkpt>
      <trkpt lat="44.97938" lon="-0.37009">
        <ele>52.5</ele>
        <time>2021-06-03T09:13:11.000Z</time>
      </trkpt>
      <trkpt lat="44.97937" lon="-0.37002">
        <ele>52.3</ele>
        <time>2021-06-03T09:13:12.000Z</time>
      </trkpt>
      <trkpt lat="44.97935" lon="-0.36996">
        <ele>52.1</ele>
        <time>2021-06-03T09:13:13.000Z</time>
      </trkpt>
      <trkpt lat="44.97934" lon="-0.36989">
        <ele>51.6</ele>
        <time>2021-06-03T09:13:14.000Z</time>
      </trkpt>
      <trkpt lat="44.97933" lon="-0.36983">
        <ele>51.3</ele>
        <time>2021-06-03T09:13:15.000Z</time>
      </trkpt>
      <trkpt lat="44.97932" lon="-0.36976">
        <ele>51.2</ele>
        <time>2021-06-03T09:13:16.000Z</time>
      </trkpt>
      <trkpt lat="44.9793" lon="-0.3697">
        <ele>51.2</ele>
        <time>2021-06-03T09:13:17.000Z</time>
      </trkpt>
      <trkpt lat="44.97929" lon="-0.36964">
        <ele>51.6</ele>
        <time>2021-06-03T09:13:18.000Z</time>
      </trkpt>
      <trkpt lat="44.97928" lon="-0.36957">
        <ele>51.9</ele>
        <time>2021-06-03T09:13:19.000Z</time>
      </trkpt>
      <trkpt lat="44.97926" lon="-0.36951">
        <ele>52.2</ele>
        <time>2021-06-03T09:13:20.000Z</time>
      </trkpt>
      <trkpt lat="44.97925" lon="-0.36945">
        <ele>52.2</ele>
        <time>2021-06-03T09:13:21.000Z</time>
      </trkpt>
      <trkpt lat="44.97924" lon="-0.36938">
        <ele>52.2</ele>
        <time>2021-06-03T09:13:22.000Z</time>
      </trkpt>
      <trkpt lat="44.97922" lon="-0.36932">
        <ele>51.9</ele>
        <time>2021-06-03T09:13:23.000Z</time>
      </trkpt>
      <trkpt lat="44.9792" lon="-0.3692">
        <ele>51.7</ele>
        <time>2021-06-03T09:13:25.000Z</time>
      </trkpt>
      <trkpt lat="44.97918" lon="-0.36909">
        <ele>51.6</ele>
        <time>2021-06-03T09:13:27.000Z</time>
      </trkpt>
      <trkpt lat="44.97916" lon="-0.36897">
        <ele>51.8</ele>
        <time>2021-06-03T09:13:29.000Z</time>
      </trkpt>
      <trkpt lat="44.97915" lon="-0.3689">
        <ele>51.6</ele>
        <time>2021-06-03T09:13:30.000Z</time>
      </trkpt>
      <trkpt lat="44.97914" lon="-0.36884">
        <ele>51.4</ele>
        <time>2021-06-03T09:13:31.000Z</time>
      </trkpt>
      <trkpt lat="44.97914" lon="-0.36877">
        <ele>51.2</ele>
        <time>2021-06-03T09:13:32.000Z</time>
      </trkpt>
      <trkpt lat="44.97913" lon="-0.36871">
        <ele>51.2</ele>
        <time>2021-06-03T09:13:33.000Z</time>
      </trkpt>
      <trkpt lat="44.97913" lon="-0.36864">
        <ele>51.2</ele>
        <time>2021-06-03T09:13:34.000Z</time>
      </trkpt>
      <trkpt lat="44.97913" lon="-0.36857">
        <ele>51.2</ele>
        <time>2021-06-03T09:13:35.000Z</time>
      </trkpt>
      <trkpt lat="44.97913" lon="-0.3685">
        <ele>51.2</ele>
        <time>2021-06-03T09:13:36.000Z</time>
      </trkpt>
      <trkpt lat="44.97915" lon="-0.36828">
        <ele>50</ele>
        <time>2021-06-03T09:13:39.000Z</time>
      </trkpt>
      <trkpt lat="44.97916" lon="-0.36803">
        <ele>50</ele>
        <time>2021-06-03T09:13:43.000Z</time>
      </trkpt>
      <trkpt lat="44.97916" lon="-0.36794">
        <ele>50.9</ele>
        <time>2021-06-03T09:13:45.000Z</time>
      </trkpt>
      <trkpt lat="44.97915" lon="-0.36787">
        <ele>50.8</ele>
        <time>2021-06-03T09:13:46.000Z</time>
      </trkpt>
      <trkpt lat="44.97914" lon="-0.36781">
        <ele>50.8</ele>
        <time>2021-06-03T09:13:47.000Z</time>
      </trkpt>
      <trkpt lat="44.97913" lon="-0.36775">
        <ele>50.7</ele>
        <time>2021-06-03T09:13:48.000Z</time>
      </trkpt>
      <trkpt lat="44.97912" lon="-0.36769">
        <ele>50.5</ele>
        <time>2021-06-03T09:13:49.000Z</time>
      </trkpt>
      <trkpt lat="44.97911" lon="-0.36762">
        <ele>50.4</ele>
        <time>2021-06-03T09:13:50.000Z</time>
      </trkpt>
      <trkpt lat="44.9791" lon="-0.36756">
        <ele>50.1</ele>
        <time>2021-06-03T09:13:51.000Z</time>
      </trkpt>
      <trkpt lat="44.97909" lon="-0.3675">
        <ele>50</ele>
        <time>2021-06-03T09:13:52.000Z</time>
      </trkpt>
      <trkpt lat="44.97907" lon="-0.36744">
        <ele>49.8</ele>
        <time>2021-06-03T09:13:53.000Z</time>
      </trkpt>
      <trkpt lat="44.97906" lon="-0.36738">
        <ele>50</ele>
        <time>2021-06-03T09:13:54.000Z</time>
      </trkpt>
      <trkpt lat="44.97904" lon="-0.36732">
        <ele>50</ele>
        <time>2021-06-03T09:13:55.000Z</time>
      </trkpt>
      <trkpt lat="44.97902" lon="-0.36725">
        <ele>50.4</ele>
        <time>2021-06-03T09:13:56.000Z</time>
      </trkpt>
      <trkpt lat="44.979" lon="-0.36719">
        <ele>50.6</ele>
        <time>2021-06-03T09:13:57.000Z</time>
      </trkpt>
      <trkpt lat="44.97898" lon="-0.36713">
        <ele>50.8</ele>
        <time>2021-06-03T09:13:58.000Z</time>
      </trkpt>
      <trkpt lat="44.97895" lon="-0.36707">
        <ele>50.5</ele>
        <time>2021-06-03T09:13:59.000Z</time>
      </trkpt>
      <trkpt lat="44.97893" lon="-0.36701">
        <ele>50.2</ele>
        <time>2021-06-03T09:14:00.000Z</time>
      </trkpt>
      <trkpt lat="44.97891" lon="-0.36695">
        <ele>50</ele>
        <time>2021-06-03T09:14:01.000Z</time>
      </trkpt>
      <trkpt lat="44.97889" lon="-0.36689">
        <ele>49.8</ele>
        <time>2021-06-03T09:14:02.000Z</time>
      </trkpt>
      <trkpt lat="44.97887" lon="-0.36682">
        <ele>50</ele>
        <time>2021-06-03T09:14:03.000Z</time>
      </trkpt>
      <trkpt lat="44.97884" lon="-0.36676">
        <ele>50.2</ele>
        <time>2021-06-03T09:14:04.000Z</time>
      </trkpt>
      <trkpt lat="44.97882" lon="-0.3667">
        <ele>50.3</ele>
        <time>2021-06-03T09:14:05.000Z</time>
      </trkpt>
      <trkpt lat="44.9788" lon="-0.36664">
        <ele>50.3</ele>
        <time>2021-06-03T09:14:06.000Z</time>
      </trkpt>
      <trkpt lat="44.97878" lon="-0.36658">
        <ele>50.4</ele>
        <time>2021-06-03T09:14:07.000Z</time>
      </trkpt>
      <trkpt lat="44.97877" lon="-0.36652">
        <ele>50.2</ele>
        <time>2021-06-03T09:14:08.000Z</time>
      </trkpt>
      <trkpt lat="44.97873" lon="-0.3664">
        <ele>50.2</ele>
        <time>2021-06-03T09:14:10.000Z</time>
      </trkpt>
      <trkpt lat="44.97869" lon="-0.36629">
        <ele>50.5</ele>
        <time>2021-06-03T09:14:12.000Z</time>
      </trkpt>
      <trkpt lat="44.97866" lon="-0.36617">
        <ele>50.4</ele>
        <time>2021-06-03T09:14:14.000Z</time>
      </trkpt>
      <trkpt lat="44.97864" lon="-0.36611">
        <ele>50.4</ele>
        <time>2021-06-03T09:14:15.000Z</time>
      </trkpt>
      <trkpt lat="44.97861" lon="-0.366">
        <ele>50.3</ele>
        <time>2021-06-03T09:14:17.000Z</time>
      </trkpt>
      <trkpt lat="44.97859" lon="-0.36593">
        <ele>50.4</ele>
        <time>2021-06-03T09:14:18.000Z</time>
      </trkpt>
      <trkpt lat="44.97858" lon="-0.36587">
        <ele>50.6</ele>
        <time>2021-06-03T09:14:19.000Z</time>
      </trkpt>
      <trkpt lat="44.97855" lon="-0.36576">
        <ele>50.2</ele>
        <time>2021-06-03T09:14:21.000Z</time>
      </trkpt>
      <trkpt lat="44.97852" lon="-0.36564">
        <ele>49.9</ele>
        <time>2021-06-03T09:14:23.000Z</time>
      </trkpt>
      <trkpt lat="44.97849" lon="-0.36554">
        <ele>50</ele>
        <time>2021-06-03T09:14:25.000Z</time>
      </trkpt>
      <trkpt lat="44.97845" lon="-0.36543">
        <ele>50.2</ele>
        <time>2021-06-03T09:14:27.000Z</time>
      </trkpt>
      <trkpt lat="44.97842" lon="-0.36532">
        <ele>50.5</ele>
        <time>2021-06-03T09:14:29.000Z</time>
      </trkpt>
      <trkpt lat="44.97838" lon="-0.36521">
        <ele>50.8</ele>
        <time>2021-06-03T09:14:31.000Z</time>
      </trkpt>
      <trkpt lat="44.97835" lon="-0.3651">
        <ele>51</ele>
        <time>2021-06-03T09:14:33.000Z</time>
      </trkpt>
      <trkpt lat="44.97833" lon="-0.36504">
        <ele>51</ele>
        <time>2021-06-03T09:14:34.000Z</time>
      </trkpt>
      <trkpt lat="44.97831" lon="-0.36498">
        <ele>50.9</ele>
        <time>2021-06-03T09:14:35.000Z</time>
      </trkpt>
      <trkpt lat="44.9783" lon="-0.36492">
        <ele>50.9</ele>
        <time>2021-06-03T09:14:36.000Z</time>
      </trkpt>
      <trkpt lat="44.97828" lon="-0.36486">
        <ele>51</ele>
        <time>2021-06-03T09:14:37.000Z</time>
      </trkpt>
      <trkpt lat="44.97827" lon="-0.36479">
        <ele>51</ele>
        <time>2021-06-03T09:14:38.000Z</time>
      </trkpt>
      <trkpt lat="44.97825" lon="-0.36473">
        <ele>50.7</ele>
        <time>2021-06-03T09:14:39.000Z</time>
      </trkpt>
      <trkpt lat="44.97824" lon="-0.36466">
        <ele>50.5</ele>
        <time>2021-06-03T09:14:40.000Z</time>
      </trkpt>
      <trkpt lat="44.97823" lon="-0.3646">
        <ele>50.4</ele>
        <time>2021-06-03T09:14:41.000Z</time>
      </trkpt>
      <trkpt lat="44.97821" lon="-0.36453">
        <ele>50.4</ele>
        <time>2021-06-03T09:14:42.000Z</time>
      </trkpt>
      <trkpt lat="44.9782" lon="-0.36447">
        <ele>50.3</ele>
        <time>2021-06-03T09:14:43.000Z</time>
      </trkpt>
      <trkpt lat="44.97819" lon="-0.3644">
        <ele>50.5</ele>
        <time>2021-06-03T09:14:44.000Z</time>
      </trkpt>
      <trkpt lat="44.97818" lon="-0.36433">
        <ele>50.7</ele>
        <time>2021-06-03T09:14:45.000Z</time>
      </trkpt>
      <trkpt lat="44.97817" lon="-0.36426">
        <ele>50.8</ele>
        <time>2021-06-03T09:14:46.000Z</time>
      </trkpt>
      <trkpt lat="44.97816" lon="-0.3642">
        <ele>51</ele>
        <time>2021-06-03T09:14:47.000Z</time>
      </trkpt>
      <trkpt lat="44.97815" lon="-0.36413">
        <ele>51.1</ele>
        <time>2021-06-03T09:14:48.000Z</time>
      </trkpt>
      <trkpt lat="44.97814" lon="-0.36406">
        <ele>51.2</ele>
        <time>2021-06-03T09:14:49.000Z</time>
      </trkpt>
      <trkpt lat="44.97813" lon="-0.364">
        <ele>51.2</ele>
        <time>2021-06-03T09:14:50.000Z</time>
      </trkpt>
      <trkpt lat="44.97813" lon="-0.36393">
        <ele>50.6</ele>
        <time>2021-06-03T09:14:51.000Z</time>
      </trkpt>
      <trkpt lat="44.97812" lon="-0.36386">
        <ele>50.2</ele>
        <time>2021-06-03T09:14:52.000Z</time>
      </trkpt>
      <trkpt lat="44.97812" lon="-0.36379">
        <ele>50.6</ele>
        <time>2021-06-03T09:14:53.000Z</time>
      </trkpt>
      <trkpt lat="44.97811" lon="-0.36373">
        <ele>50.9</ele>
        <time>2021-06-03T09:14:54.000Z</time>
      </trkpt>
      <trkpt lat="44.97811" lon="-0.36366">
        <ele>51.2</ele>
        <time>2021-06-03T09:14:55.000Z</time>
      </trkpt>
      <trkpt lat="44.9781" lon="-0.36359">
        <ele>50.8</ele>
        <time>2021-06-03T09:14:56.000Z</time>
      </trkpt>
      <trkpt lat="44.97809" lon="-0.36352">
        <ele>50.6</ele>
        <time>2021-06-03T09:14:57.000Z</time>
      </trkpt>
      <trkpt lat="44.97809" lon="-0.36346">
        <ele>50.8</ele>
        <time>2021-06-03T09:14:58.000Z</time>
      </trkpt>
      <trkpt lat="44.97809" lon="-0.36339">
        <ele>51</ele>
        <time>2021-06-03T09:14:59.000Z</time>
      </trkpt>
      <trkpt lat="44.97808" lon="-0.36332">
        <ele>50.8</ele>
        <time>2021-06-03T09:15:00.000Z</time>
      </trkpt>
      <trkpt lat="44.97808" lon="-0.36325">
        <ele>50.6</ele>
        <time>2021-06-03T09:15:01.000Z</time>
      </trkpt>
      <trkpt lat="44.97808" lon="-0.36318">
        <ele>50.5</ele>
        <time>2021-06-03T09:15:02.000Z</time>
      </trkpt>
      <trkpt lat="44.97807" lon="-0.36311">
        <ele>50.5</ele>
        <time>2021-06-03T09:15:03.000Z</time>
      </trkpt>
      <trkpt lat="44.97807" lon="-0.36304">
        <ele>50.5</ele>
        <time>2021-06-03T09:15:04.000Z</time>
      </trkpt>
      <trkpt lat="44.97807" lon="-0.36297">
        <ele>50.4</ele>
        <time>2021-06-03T09:15:05.000Z</time>
      </trkpt>
      <trkpt lat="44.97806" lon="-0.36285">
        <ele>50.3</ele>
        <time>2021-06-03T09:15:07.000Z</time>
      </trkpt>
      <trkpt lat="44.97805" lon="-0.36273">
        <ele>50.3</ele>
        <time>2021-06-03T09:15:09.000Z</time>
      </trkpt>
      <trkpt lat="44.97804" lon="-0.36261">
        <ele>50.1</ele>
        <time>2021-06-03T09:15:11.000Z</time>
      </trkpt>
      <trkpt lat="44.97804" lon="-0.36249">
        <ele>50.1</ele>
        <time>2021-06-03T09:15:13.000Z</time>
      </trkpt>
      <trkpt lat="44.97805" lon="-0.36237">
        <ele>50.3</ele>
        <time>2021-06-03T09:15:15.000Z</time>
      </trkpt>
      <trkpt lat="44.97808" lon="-0.36226">
        <ele>50.2</ele>
        <time>2021-06-03T09:15:17.000Z</time>
      </trkpt>
      <trkpt lat="44.97812" lon="-0.36216">
        <ele>50</ele>
        <time>2021-06-03T09:15:19.000Z</time>
      </trkpt>
      <trkpt lat="44.97815" lon="-0.3621">
        <ele>49.9</ele>
        <time>2021-06-03T09:15:20.000Z</time>
      </trkpt>
      <trkpt lat="44.97819" lon="-0.36205">
        <ele>49.9</ele>
        <time>2021-06-03T09:15:21.000Z</time>
      </trkpt>
      <trkpt lat="44.97821" lon="-0.36199">
        <ele>50.3</ele>
        <time>2021-06-03T09:15:22.000Z</time>
      </trkpt>
      <trkpt lat="44.97825" lon="-0.36193">
        <ele>50.6</ele>
        <time>2021-06-03T09:15:23.000Z</time>
      </trkpt>
      <trkpt lat="44.97828" lon="-0.36188">
        <ele>50.6</ele>
        <time>2021-06-03T09:15:24.000Z</time>
      </trkpt>
      <trkpt lat="44.97831" lon="-0.36183">
        <ele>50.6</ele>
        <time>2021-06-03T09:15:25.000Z</time>
      </trkpt>
      <trkpt lat="44.97833" lon="-0.36177">
        <ele>50.5</ele>
        <time>2021-06-03T09:15:26.000Z</time>
      </trkpt>
      <trkpt lat="44.97836" lon="-0.36172">
        <ele>50.5</ele>
        <time>2021-06-03T09:15:27.000Z</time>
      </trkpt>
      <trkpt lat="44.97838" lon="-0.36165">
        <ele>50.4</ele>
        <time>2021-06-03T09:15:28.000Z</time>
      </trkpt>
      <trkpt lat="44.9784" lon="-0.36159">
        <ele>50.2</ele>
        <time>2021-06-03T09:15:29.000Z</time>
      </trkpt>
      <trkpt lat="44.97841" lon="-0.36151">
        <ele>50.1</ele>
        <time>2021-06-03T09:15:30.000Z</time>
      </trkpt>
      <trkpt lat="44.97842" lon="-0.36144">
        <ele>50.1</ele>
        <time>2021-06-03T09:15:31.000Z</time>
      </trkpt>
      <trkpt lat="44.97843" lon="-0.36137">
        <ele>50.1</ele>
        <time>2021-06-03T09:15:32.000Z</time>
      </trkpt>
      <trkpt lat="44.97843" lon="-0.3613">
        <ele>50.1</ele>
        <time>2021-06-03T09:15:33.000Z</time>
      </trkpt>
      <trkpt lat="44.97844" lon="-0.36123">
        <ele>49.9</ele>
        <time>2021-06-03T09:15:34.000Z</time>
      </trkpt>
      <trkpt lat="44.97844" lon="-0.36116">
        <ele>49.8</ele>
        <time>2021-06-03T09:15:35.000Z</time>
      </trkpt>
      <trkpt lat="44.97843" lon="-0.36109">
        <ele>49.7</ele>
        <time>2021-06-03T09:15:36.000Z</time>
      </trkpt>
      <trkpt lat="44.97843" lon="-0.36102">
        <ele>49.6</ele>
        <time>2021-06-03T09:15:37.000Z</time>
      </trkpt>
      <trkpt lat="44.97841" lon="-0.36095">
        <ele>49.4</ele>
        <time>2021-06-03T09:15:38.000Z</time>
      </trkpt>
      <trkpt lat="44.97839" lon="-0.36089">
        <ele>49.3</ele>
        <time>2021-06-03T09:15:39.000Z</time>
      </trkpt>
      <trkpt lat="44.97836" lon="-0.36083">
        <ele>49.1</ele>
        <time>2021-06-03T09:15:40.000Z</time>
      </trkpt>
      <trkpt lat="44.97832" lon="-0.36077">
        <ele>49.2</ele>
        <time>2021-06-03T09:15:41.000Z</time>
      </trkpt>
      <trkpt lat="44.97828" lon="-0.36072">
        <ele>49.2</ele>
        <time>2021-06-03T09:15:42.000Z</time>
      </trkpt>
      <trkpt lat="44.97824" lon="-0.36067">
        <ele>48.9</ele>
        <time>2021-06-03T09:15:43.000Z</time>
      </trkpt>
      <trkpt lat="44.97819" lon="-0.36062">
        <ele>48.7</ele>
        <time>2021-06-03T09:15:44.000Z</time>
      </trkpt>
      <trkpt lat="44.97814" lon="-0.36057">
        <ele>48.3</ele>
        <time>2021-06-03T09:15:45.000Z</time>
      </trkpt>
      <trkpt lat="44.9781" lon="-0.36052">
        <ele>48</ele>
        <time>2021-06-03T09:15:46.000Z</time>
      </trkpt>
      <trkpt lat="44.97805" lon="-0.36047">
        <ele>47.8</ele>
        <time>2021-06-03T09:15:47.000Z</time>
      </trkpt>
      <trkpt lat="44.978" lon="-0.36042">
        <ele>47.8</ele>
        <time>2021-06-03T09:15:48.000Z</time>
      </trkpt>
      <trkpt lat="44.97796" lon="-0.36036">
        <ele>47.8</ele>
        <time>2021-06-03T09:15:49.000Z</time>
      </trkpt>
      <trkpt lat="44.97793" lon="-0.3603">
        <ele>47.2</ele>
        <time>2021-06-03T09:15:50.000Z</time>
      </trkpt>
      <trkpt lat="44.97789" lon="-0.36023">
        <ele>46.9</ele>
        <time>2021-06-03T09:15:51.000Z</time>
      </trkpt>
      <trkpt lat="44.97786" lon="-0.36016">
        <ele>46.6</ele>
        <time>2021-06-03T09:15:52.000Z</time>
      </trkpt>
      <trkpt lat="44.97783" lon="-0.36009">
        <ele>46.3</ele>
        <time>2021-06-03T09:15:53.000Z</time>
      </trkpt>
      <trkpt lat="44.9778" lon="-0.36001">
        <ele>46</ele>
        <time>2021-06-03T09:15:54.000Z</time>
      </trkpt>
      <trkpt lat="44.97777" lon="-0.35994">
        <ele>46</ele>
        <time>2021-06-03T09:15:55.000Z</time>
      </trkpt>
      <trkpt lat="44.97774" lon="-0.35986">
        <ele>46</ele>
        <time>2021-06-03T09:15:56.000Z</time>
      </trkpt>
      <trkpt lat="44.97772" lon="-0.35979">
        <ele>45.8</ele>
        <time>2021-06-03T09:15:57.000Z</time>
      </trkpt>
      <trkpt lat="44.97769" lon="-0.35971">
        <ele>45.7</ele>
        <time>2021-06-03T09:15:58.000Z</time>
      </trkpt>
      <trkpt lat="44.97766" lon="-0.35963">
        <ele>45.6</ele>
        <time>2021-06-03T09:15:59.000Z</time>
      </trkpt>
      <trkpt lat="44.97763" lon="-0.35956">
        <ele>45.4</ele>
        <time>2021-06-03T09:16:00.000Z</time>
      </trkpt>
      <trkpt lat="44.9776" lon="-0.35948">
        <ele>45.3</ele>
        <time>2021-06-03T09:16:01.000Z</time>
      </trkpt>
      <trkpt lat="44.97757" lon="-0.3594">
        <ele>45.1</ele>
        <time>2021-06-03T09:16:02.000Z</time>
      </trkpt>
      <trkpt lat="44.97754" lon="-0.35932">
        <ele>44.9</ele>
        <time>2021-06-03T09:16:03.000Z</time>
      </trkpt>
      <trkpt lat="44.97751" lon="-0.35924">
        <ele>44.7</ele>
        <time>2021-06-03T09:16:04.000Z</time>
      </trkpt>
      <trkpt lat="44.97749" lon="-0.35916">
        <ele>44.6</ele>
        <time>2021-06-03T09:16:05.000Z</time>
      </trkpt>
      <trkpt lat="44.97746" lon="-0.35908">
        <ele>44.5</ele>
        <time>2021-06-03T09:16:06.000Z</time>
      </trkpt>
      <trkpt lat="44.97743" lon="-0.359">
        <ele>44.5</ele>
        <time>2021-06-03T09:16:07.000Z</time>
      </trkpt>
      <trkpt lat="44.97741" lon="-0.35892">
        <ele>44.5</ele>
        <time>2021-06-03T09:16:08.000Z</time>
      </trkpt>
      <trkpt lat="44.97738" lon="-0.35885">
        <ele>44.2</ele>
        <time>2021-06-03T09:16:09.000Z</time>
      </trkpt>
      <trkpt lat="44.97736" lon="-0.35879">
        <ele>43.9</ele>
        <time>2021-06-03T09:16:10.000Z</time>
      </trkpt>
      <trkpt lat="44.97734" lon="-0.35872">
        <ele>43.7</ele>
        <time>2021-06-03T09:16:11.000Z</time>
      </trkpt>
      <trkpt lat="44.97732" lon="-0.35864">
        <ele>43.8</ele>
        <time>2021-06-03T09:16:12.000Z</time>
      </trkpt>
      <trkpt lat="44.9773" lon="-0.35856">
        <ele>43.8</ele>
        <time>2021-06-03T09:16:13.000Z</time>
      </trkpt>
      <trkpt lat="44.97728" lon="-0.35849">
        <ele>43.3</ele>
        <time>2021-06-03T09:16:14.000Z</time>
      </trkpt>
      <trkpt lat="44.97725" lon="-0.35841">
        <ele>43</ele>
        <time>2021-06-03T09:16:15.000Z</time>
      </trkpt>
      <trkpt lat="44.97723" lon="-0.35834">
        <ele>42.8</ele>
        <time>2021-06-03T09:16:16.000Z</time>
      </trkpt>
      <trkpt lat="44.97721" lon="-0.35826">
        <ele>42.7</ele>
        <time>2021-06-03T09:16:17.000Z</time>
      </trkpt>
      <trkpt lat="44.97719" lon="-0.35817">
        <ele>42.6</ele>
        <time>2021-06-03T09:16:18.000Z</time>
      </trkpt>
      <trkpt lat="44.97716" lon="-0.35809">
        <ele>42.3</ele>
        <time>2021-06-03T09:16:19.000Z</time>
      </trkpt>
      <trkpt lat="44.97714" lon="-0.358">
        <ele>42.1</ele>
        <time>2021-06-03T09:16:20.000Z</time>
      </trkpt>
      <trkpt lat="44.97712" lon="-0.35791">
        <ele>42.3</ele>
        <time>2021-06-03T09:16:21.000Z</time>
      </trkpt>
      <trkpt lat="44.9771" lon="-0.35781">
        <ele>42.5</ele>
        <time>2021-06-03T09:16:22.000Z</time>
      </trkpt>
      <trkpt lat="44.97708" lon="-0.35771">
        <ele>41.7</ele>
        <time>2021-06-03T09:16:23.000Z</time>
      </trkpt>
      <trkpt lat="44.97706" lon="-0.35762">
        <ele>41.1</ele>
        <time>2021-06-03T09:16:24.000Z</time>
      </trkpt>
      <trkpt lat="44.97704" lon="-0.35752">
        <ele>40.7</ele>
        <time>2021-06-03T09:16:25.000Z</time>
      </trkpt>
      <trkpt lat="44.97702" lon="-0.35743">
        <ele>40.6</ele>
        <time>2021-06-03T09:16:26.000Z</time>
      </trkpt>
      <trkpt lat="44.977" lon="-0.35734">
        <ele>40.5</ele>
        <time>2021-06-03T09:16:27.000Z</time>
      </trkpt>
      <trkpt lat="44.97698" lon="-0.35725">
        <ele>40.5</ele>
        <time>2021-06-03T09:16:28.000Z</time>
      </trkpt>
      <trkpt lat="44.97696" lon="-0.35717">
        <ele>40.4</ele>
        <time>2021-06-03T09:16:29.000Z</time>
      </trkpt>
      <trkpt lat="44.97694" lon="-0.35708">
        <ele>40.2</ele>
        <time>2021-06-03T09:16:30.000Z</time>
      </trkpt>
      <trkpt lat="44.97692" lon="-0.357">
        <ele>40</ele>
        <time>2021-06-03T09:16:31.000Z</time>
      </trkpt>
      <trkpt lat="44.9769" lon="-0.35692">
        <ele>39.8</ele>
        <time>2021-06-03T09:16:32.000Z</time>
      </trkpt>
      <trkpt lat="44.97688" lon="-0.35684">
        <ele>39.6</ele>
        <time>2021-06-03T09:16:33.000Z</time>
      </trkpt>
      <trkpt lat="44.97687" lon="-0.35677">
        <ele>39.4</ele>
        <time>2021-06-03T09:16:34.000Z</time>
      </trkpt>
      <trkpt lat="44.97685" lon="-0.3567">
        <ele>38.7</ele>
        <time>2021-06-03T09:16:35.000Z</time>
      </trkpt>
      <trkpt lat="44.97683" lon="-0.35663">
        <ele>38.2</ele>
        <time>2021-06-03T09:16:36.000Z</time>
      </trkpt>
      <trkpt lat="44.97681" lon="-0.35656">
        <ele>37.8</ele>
        <time>2021-06-03T09:16:37.000Z</time>
      </trkpt>
      <trkpt lat="44.9768" lon="-0.35649">
        <ele>37.6</ele>
        <time>2021-06-03T09:16:38.000Z</time>
      </trkpt>
      <trkpt lat="44.97678" lon="-0.35642">
        <ele>37.4</ele>
        <time>2021-06-03T09:16:39.000Z</time>
      </trkpt>
      <trkpt lat="44.97676" lon="-0.35636">
        <ele>37.1</ele>
        <time>2021-06-03T09:16:40.000Z</time>
      </trkpt>
      <trkpt lat="44.97674" lon="-0.35624">
        <ele>36.7</ele>
        <time>2021-06-03T09:16:42.000Z</time>
      </trkpt>
      <trkpt lat="44.97672" lon="-0.35614">
        <ele>36.6</ele>
        <time>2021-06-03T09:16:44.000Z</time>
      </trkpt>
      <trkpt lat="44.97669" lon="-0.35604">
        <ele>36.4</ele>
        <time>2021-06-03T09:16:47.000Z</time>
      </trkpt>
      <trkpt lat="44.97667" lon="-0.35594">
        <ele>35.9</ele>
        <time>2021-06-03T09:16:50.000Z</time>
      </trkpt>
      <trkpt lat="44.97667" lon="-0.35591">
        <ele>35.8</ele>
        <time>2021-06-03T09:16:51.000Z</time>
      </trkpt>
      <trkpt lat="44.97666" lon="-0.35572">
        <ele>34.9</ele>
        <time>2021-06-03T09:16:55.000Z</time>
      </trkpt>
      <trkpt lat="44.97666" lon="-0.3556">
        <ele>34.5</ele>
        <time>2021-06-03T09:16:57.000Z</time>
      </trkpt>
      <trkpt lat="44.97665" lon="-0.35554">
        <ele>34.4</ele>
        <time>2021-06-03T09:16:58.000Z</time>
      </trkpt>
      <trkpt lat="44.97665" lon="-0.35547">
        <ele>34.2</ele>
        <time>2021-06-03T09:16:59.000Z</time>
      </trkpt>
      <trkpt lat="44.97665" lon="-0.3554">
        <ele>34</ele>
        <time>2021-06-03T09:17:00.000Z</time>
      </trkpt>
      <trkpt lat="44.97664" lon="-0.35532">
        <ele>33.6</ele>
        <time>2021-06-03T09:17:01.000Z</time>
      </trkpt>
      <trkpt lat="44.97664" lon="-0.35524">
        <ele>33.3</ele>
        <time>2021-06-03T09:17:02.000Z</time>
      </trkpt>
      <trkpt lat="44.97664" lon="-0.35516">
        <ele>33.1</ele>
        <time>2021-06-03T09:17:03.000Z</time>
      </trkpt>
      <trkpt lat="44.97663" lon="-0.35508">
        <ele>32.7</ele>
        <time>2021-06-03T09:17:04.000Z</time>
      </trkpt>
      <trkpt lat="44.97663" lon="-0.355">
        <ele>32.3</ele>
        <time>2021-06-03T09:17:05.000Z</time>
      </trkpt>
      <trkpt lat="44.97664" lon="-0.35491">
        <ele>32.1</ele>
        <time>2021-06-03T09:17:06.000Z</time>
      </trkpt>
      <trkpt lat="44.97664" lon="-0.35482">
        <ele>31.9</ele>
        <time>2021-06-03T09:17:07.000Z</time>
      </trkpt>
      <trkpt lat="44.97663" lon="-0.35473">
        <ele>31.3</ele>
        <time>2021-06-03T09:17:08.000Z</time>
      </trkpt>
      <trkpt lat="44.97663" lon="-0.35464">
        <ele>30.8</ele>
        <time>2021-06-03T09:17:09.000Z</time>
      </trkpt>
      <trkpt lat="44.97663" lon="-0.35454">
        <ele>30.5</ele>
        <time>2021-06-03T09:17:10.000Z</time>
      </trkpt>
      <trkpt lat="44.97663" lon="-0.35444">
        <ele>30.2</ele>
        <time>2021-06-03T09:17:11.000Z</time>
      </trkpt>
      <trkpt lat="44.97662" lon="-0.35435">
        <ele>30</ele>
        <time>2021-06-03T09:17:12.000Z</time>
      </trkpt>
      <trkpt lat="44.97662" lon="-0.35425">
        <ele>29.7</ele>
        <time>2021-06-03T09:17:13.000Z</time>
      </trkpt>
      <trkpt lat="44.97662" lon="-0.35415">
        <ele>29.5</ele>
        <time>2021-06-03T09:17:14.000Z</time>
      </trkpt>
      <trkpt lat="44.97662" lon="-0.35405">
        <ele>29.3</ele>
        <time>2021-06-03T09:17:15.000Z</time>
      </trkpt>
      <trkpt lat="44.97661" lon="-0.35395">
        <ele>29.1</ele>
        <time>2021-06-03T09:17:16.000Z</time>
      </trkpt>
      <trkpt lat="44.97661" lon="-0.35386">
        <ele>28.8</ele>
        <time>2021-06-03T09:17:17.000Z</time>
      </trkpt>
      <trkpt lat="44.97661" lon="-0.35376">
        <ele>28.5</ele>
        <time>2021-06-03T09:17:18.000Z</time>
      </trkpt>
      <trkpt lat="44.97661" lon="-0.35366">
        <ele>28.3</ele>
        <time>2021-06-03T09:17:19.000Z</time>
      </trkpt>
      <trkpt lat="44.97661" lon="-0.35356">
        <ele>28.2</ele>
        <time>2021-06-03T09:17:20.000Z</time>
      </trkpt>
      <trkpt lat="44.97661" lon="-0.35347">
        <ele>28.1</ele>
        <time>2021-06-03T09:17:21.000Z</time>
      </trkpt>
      <trkpt lat="44.9766" lon="-0.35337">
        <ele>28</ele>
        <time>2021-06-03T09:17:22.000Z</time>
      </trkpt>
      <trkpt lat="44.9766" lon="-0.35328">
        <ele>27.9</ele>
        <time>2021-06-03T09:17:23.000Z</time>
      </trkpt>
      <trkpt lat="44.97661" lon="-0.35319">
        <ele>27.9</ele>
        <time>2021-06-03T09:17:24.000Z</time>
      </trkpt>
      <trkpt lat="44.9766" lon="-0.35308">
        <ele>27.8</ele>
        <time>2021-06-03T09:17:26.000Z</time>
      </trkpt>
      <trkpt lat="44.9766" lon="-0.35296">
        <ele>27</ele>
        <time>2021-06-03T09:17:29.000Z</time>
      </trkpt>
      <trkpt lat="44.9766" lon="-0.35285">
        <ele>27.3</ele>
        <time>2021-06-03T09:17:39.000Z</time>
      </trkpt>
      <trkpt lat="44.97661" lon="-0.35273">
        <ele>27.5</ele>
        <time>2021-06-03T09:17:42.000Z</time>
      </trkpt>
      <trkpt lat="44.9766" lon="-0.35263">
        <ele>27.3</ele>
        <time>2021-06-03T09:17:44.000Z</time>
      </trkpt>
      <trkpt lat="44.97661" lon="-0.35253">
        <ele>27.3</ele>
        <time>2021-06-03T09:17:46.000Z</time>
      </trkpt>
      <trkpt lat="44.97661" lon="-0.35241">
        <ele>27.4</ele>
        <time>2021-06-03T09:17:48.000Z</time>
      </trkpt>
      <trkpt lat="44.97661" lon="-0.35229">
        <ele>26.8</ele>
        <time>2021-06-03T09:17:50.000Z</time>
      </trkpt>
      <trkpt lat="44.97661" lon="-0.35223">
        <ele>26.5</ele>
        <time>2021-06-03T09:17:51.000Z</time>
      </trkpt>
      <trkpt lat="44.97661" lon="-0.35216">
        <ele>26.3</ele>
        <time>2021-06-03T09:17:52.000Z</time>
      </trkpt>
      <trkpt lat="44.97661" lon="-0.3521">
        <ele>26.1</ele>
        <time>2021-06-03T09:17:53.000Z</time>
      </trkpt>
      <trkpt lat="44.97661" lon="-0.35197">
        <ele>26.1</ele>
        <time>2021-06-03T09:17:55.000Z</time>
      </trkpt>
      <trkpt lat="44.97661" lon="-0.35185">
        <ele>26.5</ele>
        <time>2021-06-03T09:17:57.000Z</time>
      </trkpt>
      <trkpt lat="44.97662" lon="-0.35173">
        <ele>26.5</ele>
        <time>2021-06-03T09:17:59.000Z</time>
      </trkpt>
      <trkpt lat="44.97662" lon="-0.35161">
        <ele>26.5</ele>
        <time>2021-06-03T09:18:01.000Z</time>
      </trkpt>
      <trkpt lat="44.97663" lon="-0.35149">
        <ele>26.6</ele>
        <time>2021-06-03T09:18:03.000Z</time>
      </trkpt>
      <trkpt lat="44.97663" lon="-0.35138">
        <ele>26.9</ele>
        <time>2021-06-03T09:18:05.000Z</time>
      </trkpt>
      <trkpt lat="44.97664" lon="-0.35127">
        <ele>27</ele>
        <time>2021-06-03T09:18:07.000Z</time>
      </trkpt>
      <trkpt lat="44.97666" lon="-0.35117">
        <ele>27</ele>
        <time>2021-06-03T09:18:09.000Z</time>
      </trkpt>
      <trkpt lat="44.97669" lon="-0.35109">
        <ele>27</ele>
        <time>2021-06-03T09:18:11.000Z</time>
      </trkpt>
      <trkpt lat="44.97674" lon="-0.35101">
        <ele>26.9</ele>
        <time>2021-06-03T09:18:13.000Z</time>
      </trkpt>
      <trkpt lat="44.9768" lon="-0.35094">
        <ele>26.9</ele>
        <time>2021-06-03T09:18:15.000Z</time>
      </trkpt>
      <trkpt lat="44.97687" lon="-0.35087">
        <ele>27.1</ele>
        <time>2021-06-03T09:18:17.000Z</time>
      </trkpt>
      <trkpt lat="44.97693" lon="-0.35081">
        <ele>27.4</ele>
        <time>2021-06-03T09:18:19.000Z</time>
      </trkpt>
      <trkpt lat="44.977" lon="-0.35074">
        <ele>27.7</ele>
        <time>2021-06-03T09:18:21.000Z</time>
      </trkpt>
      <trkpt lat="44.97706" lon="-0.35069">
        <ele>27.8</ele>
        <time>2021-06-03T09:18:23.000Z</time>
      </trkpt>
      <trkpt lat="44.97713" lon="-0.35063">
        <ele>28.2</ele>
        <time>2021-06-03T09:18:25.000Z</time>
      </trkpt>
      <trkpt lat="44.9772" lon="-0.35058">
        <ele>28.4</ele>
        <time>2021-06-03T09:18:27.000Z</time>
      </trkpt>
      <trkpt lat="44.97727" lon="-0.35053">
        <ele>28.6</ele>
        <time>2021-06-03T09:18:29.000Z</time>
      </trkpt>
      <trkpt lat="44.97733" lon="-0.35048">
        <ele>28.6</ele>
        <time>2021-06-03T09:18:31.000Z</time>
      </trkpt>
      <trkpt lat="44.97739" lon="-0.35042">
        <ele>28.6</ele>
        <time>2021-06-03T09:18:33.000Z</time>
      </trkpt>
      <trkpt lat="44.97745" lon="-0.35036">
        <ele>28.5</ele>
        <time>2021-06-03T09:18:35.000Z</time>
      </trkpt>
      <trkpt lat="44.9775" lon="-0.35029">
        <ele>28.5</ele>
        <time>2021-06-03T09:18:37.000Z</time>
      </trkpt>
      <trkpt lat="44.97754" lon="-0.35022">
        <ele>28.9</ele>
        <time>2021-06-03T09:18:39.000Z</time>
      </trkpt>
      <trkpt lat="44.97759" lon="-0.35015">
        <ele>29.2</ele>
        <time>2021-06-03T09:18:41.000Z</time>
      </trkpt>
      <trkpt lat="44.97763" lon="-0.35008">
        <ele>29.3</ele>
        <time>2021-06-03T09:18:43.000Z</time>
      </trkpt>
      <trkpt lat="44.97768" lon="-0.35001">
        <ele>29.3</ele>
        <time>2021-06-03T09:18:45.000Z</time>
      </trkpt>
      <trkpt lat="44.97773" lon="-0.34994">
        <ele>30.1</ele>
        <time>2021-06-03T09:18:47.000Z</time>
      </trkpt>
      <trkpt lat="44.97778" lon="-0.34987">
        <ele>30.9</ele>
        <time>2021-06-03T09:18:49.000Z</time>
      </trkpt>
      <trkpt lat="44.97783" lon="-0.3498">
        <ele>31</ele>
        <time>2021-06-03T09:18:51.000Z</time>
      </trkpt>
      <trkpt lat="44.97788" lon="-0.34973">
        <ele>31.1</ele>
        <time>2021-06-03T09:18:53.000Z</time>
      </trkpt>
      <trkpt lat="44.9779" lon="-0.34969">
        <ele>31.1</ele>
        <time>2021-06-03T09:18:54.000Z</time>
      </trkpt>
      <trkpt lat="44.97798" lon="-0.34959">
        <ele>31.7</ele>
        <time>2021-06-03T09:18:57.000Z</time>
      </trkpt>
      <trkpt lat="44.97803" lon="-0.34952">
        <ele>31.6</ele>
        <time>2021-06-03T09:18:59.000Z</time>
      </trkpt>
      <trkpt lat="44.97807" lon="-0.34945">
        <ele>31.5</ele>
        <time>2021-06-03T09:19:01.000Z</time>
      </trkpt>
      <trkpt lat="44.97812" lon="-0.34938">
        <ele>32</ele>
        <time>2021-06-03T09:19:03.000Z</time>
      </trkpt>
      <trkpt lat="44.97816" lon="-0.34932">
        <ele>32.2</ele>
        <time>2021-06-03T09:19:05.000Z</time>
      </trkpt>
      <trkpt lat="44.97821" lon="-0.34925">
        <ele>32.5</ele>
        <time>2021-06-03T09:19:07.000Z</time>
      </trkpt>
      <trkpt lat="44.97826" lon="-0.34918">
        <ele>32.9</ele>
        <time>2021-06-03T09:19:09.000Z</time>
      </trkpt>
      <trkpt lat="44.97831" lon="-0.34912">
        <ele>33.2</ele>
        <time>2021-06-03T09:19:11.000Z</time>
      </trkpt>
      <trkpt lat="44.97836" lon="-0.34905">
        <ele>33.6</ele>
        <time>2021-06-03T09:19:13.000Z</time>
      </trkpt>
      <trkpt lat="44.9784" lon="-0.34899">
        <ele>33.4</ele>
        <time>2021-06-03T09:19:15.000Z</time>
      </trkpt>
      <trkpt lat="44.97845" lon="-0.34892">
        <ele>33.2</ele>
        <time>2021-06-03T09:19:17.000Z</time>
      </trkpt>
      <trkpt lat="44.97849" lon="-0.34886">
        <ele>33.6</ele>
        <time>2021-06-03T09:19:19.000Z</time>
      </trkpt>
      <trkpt lat="44.97854" lon="-0.3488">
        <ele>34.1</ele>
        <time>2021-06-03T09:19:21.000Z</time>
      </trkpt>
      <trkpt lat="44.9786" lon="-0.34871">
        <ele>34.5</ele>
        <time>2021-06-03T09:19:24.000Z</time>
      </trkpt>
      <trkpt lat="44.97866" lon="-0.34863">
        <ele>35.2</ele>
        <time>2021-06-03T09:19:27.000Z</time>
      </trkpt>
      <trkpt lat="44.97871" lon="-0.34857">
        <ele>35.5</ele>
        <time>2021-06-03T09:19:29.000Z</time>
      </trkpt>
      <trkpt lat="44.97875" lon="-0.34851">
        <ele>35.8</ele>
        <time>2021-06-03T09:19:31.000Z</time>
      </trkpt>
      <trkpt lat="44.9788" lon="-0.34845">
        <ele>35.8</ele>
        <time>2021-06-03T09:19:33.000Z</time>
      </trkpt>
      <trkpt lat="44.97885" lon="-0.34839">
        <ele>35.7</ele>
        <time>2021-06-03T09:19:35.000Z</time>
      </trkpt>
      <trkpt lat="44.97889" lon="-0.34832">
        <ele>35.9</ele>
        <time>2021-06-03T09:19:37.000Z</time>
      </trkpt>
      <trkpt lat="44.97894" lon="-0.34826">
        <ele>35.7</ele>
        <time>2021-06-03T09:19:39.000Z</time>
      </trkpt>
      <trkpt lat="44.97899" lon="-0.3482">
        <ele>35.8</ele>
        <time>2021-06-03T09:19:41.000Z</time>
      </trkpt>
      <trkpt lat="44.97904" lon="-0.34813">
        <ele>35.9</ele>
        <time>2021-06-03T09:19:43.000Z</time>
      </trkpt>
      <trkpt lat="44.9791" lon="-0.34806">
        <ele>36</ele>
        <time>2021-06-03T09:19:45.000Z</time>
      </trkpt>
      <trkpt lat="44.97915" lon="-0.34798">
        <ele>35.6</ele>
        <time>2021-06-03T09:19:47.000Z</time>
      </trkpt>
      <trkpt lat="44.97922" lon="-0.3479">
        <ele>35.1</ele>
        <time>2021-06-03T09:19:49.000Z</time>
      </trkpt>
      <trkpt lat="44.97927" lon="-0.34781">
        <ele>35.3</ele>
        <time>2021-06-03T09:19:51.000Z</time>
      </trkpt>
      <trkpt lat="44.97933" lon="-0.34772">
        <ele>34.6</ele>
        <time>2021-06-03T09:19:53.000Z</time>
      </trkpt>
      <trkpt lat="44.97936" lon="-0.34767">
        <ele>34.4</ele>
        <time>2021-06-03T09:19:54.000Z</time>
      </trkpt>
      <trkpt lat="44.97939" lon="-0.34762">
        <ele>33.8</ele>
        <time>2021-06-03T09:19:55.000Z</time>
      </trkpt>
      <trkpt lat="44.97941" lon="-0.34756">
        <ele>33.3</ele>
        <time>2021-06-03T09:19:56.000Z</time>
      </trkpt>
      <trkpt lat="44.97944" lon="-0.34749">
        <ele>33.2</ele>
        <time>2021-06-03T09:19:57.000Z</time>
      </trkpt>
      <trkpt lat="44.97947" lon="-0.34742">
        <ele>33</ele>
        <time>2021-06-03T09:19:58.000Z</time>
      </trkpt>
      <trkpt lat="44.97949" lon="-0.34735">
        <ele>32.8</ele>
        <time>2021-06-03T09:19:59.000Z</time>
      </trkpt>
      <trkpt lat="44.97952" lon="-0.34728">
        <ele>32.7</ele>
        <time>2021-06-03T09:20:00.000Z</time>
      </trkpt>
      <trkpt lat="44.97954" lon="-0.3472">
        <ele>32.5</ele>
        <time>2021-06-03T09:20:01.000Z</time>
      </trkpt>
      <trkpt lat="44.97956" lon="-0.34713">
        <ele>32.7</ele>
        <time>2021-06-03T09:20:02.000Z</time>
      </trkpt>
      <trkpt lat="44.97958" lon="-0.34705">
        <ele>32.7</ele>
        <time>2021-06-03T09:20:03.000Z</time>
      </trkpt>
      <trkpt lat="44.97959" lon="-0.34697">
        <ele>32.5</ele>
        <time>2021-06-03T09:20:04.000Z</time>
      </trkpt>
      <trkpt lat="44.97961" lon="-0.34689">
        <ele>32.4</ele>
        <time>2021-06-03T09:20:05.000Z</time>
      </trkpt>
      <trkpt lat="44.97962" lon="-0.34682">
        <ele>32.3</ele>
        <time>2021-06-03T09:20:06.000Z</time>
      </trkpt>
      <trkpt lat="44.97964" lon="-0.34674">
        <ele>32.3</ele>
        <time>2021-06-03T09:20:07.000Z</time>
      </trkpt>
      <trkpt lat="44.97965" lon="-0.34666">
        <ele>32.2</ele>
        <time>2021-06-03T09:20:08.000Z</time>
      </trkpt>
      <trkpt lat="44.97966" lon="-0.34659">
        <ele>32</ele>
        <time>2021-06-03T09:20:09.000Z</time>
      </trkpt>
      <trkpt lat="44.97968" lon="-0.34651">
        <ele>31.9</ele>
        <time>2021-06-03T09:20:10.000Z</time>
      </trkpt>
      <trkpt lat="44.97969" lon="-0.34644">
        <ele>31.6</ele>
        <time>2021-06-03T09:20:11.000Z</time>
      </trkpt>
      <trkpt lat="44.97971" lon="-0.34636">
        <ele>31.5</ele>
        <time>2021-06-03T09:20:12.000Z</time>
      </trkpt>
      <trkpt lat="44.97972" lon="-0.34629">
        <ele>31.3</ele>
        <time>2021-06-03T09:20:13.000Z</time>
      </trkpt>
      <trkpt lat="44.97973" lon="-0.34622">
        <ele>31.1</ele>
        <time>2021-06-03T09:20:14.000Z</time>
      </trkpt>
      <trkpt lat="44.97975" lon="-0.34615">
        <ele>30.9</ele>
        <time>2021-06-03T09:20:15.000Z</time>
      </trkpt>
      <trkpt lat="44.97976" lon="-0.34609">
        <ele>30.8</ele>
        <time>2021-06-03T09:20:16.000Z</time>
      </trkpt>
      <trkpt lat="44.97977" lon="-0.34602">
        <ele>30.8</ele>
        <time>2021-06-03T09:20:17.000Z</time>
      </trkpt>
      <trkpt lat="44.97979" lon="-0.34595">
        <ele>30.8</ele>
        <time>2021-06-03T09:20:18.000Z</time>
      </trkpt>
      <trkpt lat="44.9798" lon="-0.34588">
        <ele>30.9</ele>
        <time>2021-06-03T09:20:19.000Z</time>
      </trkpt>
      <trkpt lat="44.97981" lon="-0.3458">
        <ele>30.9</ele>
        <time>2021-06-03T09:20:20.000Z</time>
      </trkpt>
      <trkpt lat="44.97982" lon="-0.34573">
        <ele>31.1</ele>
        <time>2021-06-03T09:20:21.000Z</time>
      </trkpt>
      <trkpt lat="44.97984" lon="-0.34566">
        <ele>31.2</ele>
        <time>2021-06-03T09:20:22.000Z</time>
      </trkpt>
      <trkpt lat="44.97985" lon="-0.3456">
        <ele>31.2</ele>
        <time>2021-06-03T09:20:23.000Z</time>
      </trkpt>
      <trkpt lat="44.97986" lon="-0.34553">
        <ele>31.2</ele>
        <time>2021-06-03T09:20:24.000Z</time>
      </trkpt>
      <trkpt lat="44.97987" lon="-0.34547">
        <ele>31.1</ele>
        <time>2021-06-03T09:20:25.000Z</time>
      </trkpt>
      <trkpt lat="44.97989" lon="-0.3454">
        <ele>31</ele>
        <time>2021-06-03T09:20:26.000Z</time>
      </trkpt>
      <trkpt lat="44.9799" lon="-0.34534">
        <ele>30.9</ele>
        <time>2021-06-03T09:20:27.000Z</time>
      </trkpt>
      <trkpt lat="44.97992" lon="-0.34528">
        <ele>30.7</ele>
        <time>2021-06-03T09:20:28.000Z</time>
      </trkpt>
      <trkpt lat="44.97996" lon="-0.34517">
        <ele>30.6</ele>
        <time>2021-06-03T09:20:30.000Z</time>
      </trkpt>
      <trkpt lat="44.97998" lon="-0.34511">
        <ele>30.5</ele>
        <time>2021-06-03T09:20:31.000Z</time>
      </trkpt>
      <trkpt lat="44.98002" lon="-0.345">
        <ele>30.6</ele>
        <time>2021-06-03T09:20:33.000Z</time>
      </trkpt>
      <trkpt lat="44.98007" lon="-0.3449">
        <ele>31.2</ele>
        <time>2021-06-03T09:20:35.000Z</time>
      </trkpt>
      <trkpt lat="44.98013" lon="-0.34481">
        <ele>31.7</ele>
        <time>2021-06-03T09:20:37.000Z</time>
      </trkpt>
      <trkpt lat="44.98016" lon="-0.34476">
        <ele>31.7</ele>
        <time>2021-06-03T09:20:38.000Z</time>
      </trkpt>
      <trkpt lat="44.98019" lon="-0.34471">
        <ele>31.7</ele>
        <time>2021-06-03T09:20:39.000Z</time>
      </trkpt>
      <trkpt lat="44.98026" lon="-0.34463">
        <ele>31.3</ele>
        <time>2021-06-03T09:20:41.000Z</time>
      </trkpt>
      <trkpt lat="44.98032" lon="-0.34454">
        <ele>31.2</ele>
        <time>2021-06-03T09:20:43.000Z</time>
      </trkpt>
      <trkpt lat="44.98039" lon="-0.34446">
        <ele>31.4</ele>
        <time>2021-06-03T09:20:45.000Z</time>
      </trkpt>
      <trkpt lat="44.98045" lon="-0.34437">
        <ele>31.7</ele>
        <time>2021-06-03T09:20:47.000Z</time>
      </trkpt>
      <trkpt lat="44.98051" lon="-0.34428">
        <ele>31.6</ele>
        <time>2021-06-03T09:20:49.000Z</time>
      </trkpt>
      <trkpt lat="44.98054" lon="-0.34417">
        <ele>31.2</ele>
        <time>2021-06-03T09:20:51.000Z</time>
      </trkpt>
      <trkpt lat="44.98052" lon="-0.34405">
        <ele>31.1</ele>
        <time>2021-06-03T09:20:53.000Z</time>
      </trkpt>
      <trkpt lat="44.98049" lon="-0.34395">
        <ele>31.3</ele>
        <time>2021-06-03T09:20:55.000Z</time>
      </trkpt>
      <trkpt lat="44.98047" lon="-0.34391">
        <ele>31.2</ele>
        <time>2021-06-03T09:20:56.000Z</time>
      </trkpt>
      <trkpt lat="44.98038" lon="-0.34379">
        <ele>31.4</ele>
        <time>2021-06-03T09:20:59.000Z</time>
      </trkpt>
      <trkpt lat="44.98033" lon="-0.34371">
        <ele>31.3</ele>
        <time>2021-06-03T09:21:01.000Z</time>
      </trkpt>
      <trkpt lat="44.98027" lon="-0.34363">
        <ele>31.6</ele>
        <time>2021-06-03T09:21:03.000Z</time>
      </trkpt>
      <trkpt lat="44.98021" lon="-0.34355">
        <ele>32.1</ele>
        <time>2021-06-03T09:21:05.000Z</time>
      </trkpt>
      <trkpt lat="44.98015" lon="-0.34348">
        <ele>31.5</ele>
        <time>2021-06-03T09:21:07.000Z</time>
      </trkpt>
      <trkpt lat="44.98009" lon="-0.34341">
        <ele>31.3</ele>
        <time>2021-06-03T09:21:09.000Z</time>
      </trkpt>
      <trkpt lat="44.98004" lon="-0.34332">
        <ele>31.2</ele>
        <time>2021-06-03T09:21:11.000Z</time>
      </trkpt>
      <trkpt lat="44.98" lon="-0.34323">
        <ele>31.1</ele>
        <time>2021-06-03T09:21:13.000Z</time>
      </trkpt>
      <trkpt lat="44.97998" lon="-0.34311">
        <ele>31.3</ele>
        <time>2021-06-03T09:21:15.000Z</time>
      </trkpt>
      <trkpt lat="44.97999" lon="-0.34305">
        <ele>31.4</ele>
        <time>2021-06-03T09:21:16.000Z</time>
      </trkpt>
      <trkpt lat="44.98" lon="-0.34298">
        <ele>31.5</ele>
        <time>2021-06-03T09:21:17.000Z</time>
      </trkpt>
      <trkpt lat="44.98002" lon="-0.34292">
        <ele>31.3</ele>
        <time>2021-06-03T09:21:18.000Z</time>
      </trkpt>
      <trkpt lat="44.98005" lon="-0.34287">
        <ele>31.2</ele>
        <time>2021-06-03T09:21:19.000Z</time>
      </trkpt>
      <trkpt lat="44.98007" lon="-0.34281">
        <ele>31.3</ele>
        <time>2021-06-03T09:21:20.000Z</time>
      </trkpt>
      <trkpt lat="44.98009" lon="-0.34275">
        <ele>31.3</ele>
        <time>2021-06-03T09:21:21.000Z</time>
      </trkpt>
      <trkpt lat="44.98011" lon="-0.34268">
        <ele>31.5</ele>
        <time>2021-06-03T09:21:22.000Z</time>
      </trkpt>
      <trkpt lat="44.98012" lon="-0.34261">
        <ele>31.5</ele>
        <time>2021-06-03T09:21:23.000Z</time>
      </trkpt>
      <trkpt lat="44.98012" lon="-0.34255">
        <ele>31.6</ele>
        <time>2021-06-03T09:21:24.000Z</time>
      </trkpt>
      <trkpt lat="44.98011" lon="-0.34249">
        <ele>31.5</ele>
        <time>2021-06-03T09:21:25.000Z</time>
      </trkpt>
      <trkpt lat="44.98007" lon="-0.34238">
        <ele>31.5</ele>
        <time>2021-06-03T09:21:27.000Z</time>
      </trkpt>
      <trkpt lat="44.98002" lon="-0.34228">
        <ele>31.7</ele>
        <time>2021-06-03T09:21:29.000Z</time>
      </trkpt>
      <trkpt lat="44.97998" lon="-0.34218">
        <ele>31.9</ele>
        <time>2021-06-03T09:21:31.000Z</time>
      </trkpt>
      <trkpt lat="44.97993" lon="-0.34208">
        <ele>32</ele>
        <time>2021-06-03T09:21:33.000Z</time>
      </trkpt>
      <trkpt lat="44.97989" lon="-0.34197">
        <ele>32.2</ele>
        <time>2021-06-03T09:21:35.000Z</time>
      </trkpt>
      <trkpt lat="44.97987" lon="-0.34185">
        <ele>32.1</ele>
        <time>2021-06-03T09:21:37.000Z</time>
      </trkpt>
      <trkpt lat="44.97987" lon="-0.34173">
        <ele>32.4</ele>
        <time>2021-06-03T09:21:39.000Z</time>
      </trkpt>
      <trkpt lat="44.97989" lon="-0.34161">
        <ele>32.5</ele>
        <time>2021-06-03T09:21:41.000Z</time>
      </trkpt>
      <trkpt lat="44.97992" lon="-0.34151">
        <ele>32.2</ele>
        <time>2021-06-03T09:21:43.000Z</time>
      </trkpt>
      <trkpt lat="44.97995" lon="-0.34139">
        <ele>32</ele>
        <time>2021-06-03T09:21:45.000Z</time>
      </trkpt>
      <trkpt lat="44.97998" lon="-0.34128">
        <ele>32.7</ele>
        <time>2021-06-03T09:21:47.000Z</time>
      </trkpt>
      <trkpt lat="44.97999" lon="-0.34117">
        <ele>33.2</ele>
        <time>2021-06-03T09:21:49.000Z</time>
      </trkpt>
      <trkpt lat="44.98" lon="-0.34106">
        <ele>33.5</ele>
        <time>2021-06-03T09:21:51.000Z</time>
      </trkpt>
      <trkpt lat="44.97999" lon="-0.34094">
        <ele>33.8</ele>
        <time>2021-06-03T09:21:53.000Z</time>
      </trkpt>
      <trkpt lat="44.97999" lon="-0.34082">
        <ele>34.1</ele>
        <time>2021-06-03T09:21:55.000Z</time>
      </trkpt>
      <trkpt lat="44.97998" lon="-0.34071">
        <ele>33.8</ele>
        <time>2021-06-03T09:21:57.000Z</time>
      </trkpt>
      <trkpt lat="44.97998" lon="-0.34065">
        <ele>33.8</ele>
        <time>2021-06-03T09:21:58.000Z</time>
      </trkpt>
      <trkpt lat="44.97997" lon="-0.34048">
        <ele>34</ele>
        <time>2021-06-03T09:22:01.000Z</time>
      </trkpt>
      <trkpt lat="44.97996" lon="-0.34037">
        <ele>34.4</ele>
        <time>2021-06-03T09:22:03.000Z</time>
      </trkpt>
      <trkpt lat="44.97995" lon="-0.34026">
        <ele>34.5</ele>
        <time>2021-06-03T09:22:05.000Z</time>
      </trkpt>
      <trkpt lat="44.97995" lon="-0.34016">
        <ele>34.7</ele>
        <time>2021-06-03T09:22:07.000Z</time>
      </trkpt>
      <trkpt lat="44.97994" lon="-0.34005">
        <ele>35.1</ele>
        <time>2021-06-03T09:22:09.000Z</time>
      </trkpt>
      <trkpt lat="44.97994" lon="-0.33994">
        <ele>35.4</ele>
        <time>2021-06-03T09:22:11.000Z</time>
      </trkpt>
      <trkpt lat="44.97993" lon="-0.33983">
        <ele>35.2</ele>
        <time>2021-06-03T09:22:13.000Z</time>
      </trkpt>
      <trkpt lat="44.97992" lon="-0.33972">
        <ele>34.9</ele>
        <time>2021-06-03T09:22:15.000Z</time>
      </trkpt>
      <trkpt lat="44.97992" lon="-0.33961">
        <ele>34.8</ele>
        <time>2021-06-03T09:22:17.000Z</time>
      </trkpt>
      <trkpt lat="44.97991" lon="-0.3395">
        <ele>34.9</ele>
        <time>2021-06-03T09:22:19.000Z</time>
      </trkpt>
      <trkpt lat="44.97991" lon="-0.3394">
        <ele>34.9</ele>
        <time>2021-06-03T09:22:21.000Z</time>
      </trkpt>
      <trkpt lat="44.9799" lon="-0.3393">
        <ele>34.9</ele>
        <time>2021-06-03T09:22:23.000Z</time>
      </trkpt>
      <trkpt lat="44.9799" lon="-0.33921">
        <ele>35.1</ele>
        <time>2021-06-03T09:22:25.000Z</time>
      </trkpt>
      <trkpt lat="44.97989" lon="-0.33912">
        <ele>34.9</ele>
        <time>2021-06-03T09:22:27.000Z</time>
      </trkpt>
      <trkpt lat="44.97989" lon="-0.33903">
        <ele>35.1</ele>
        <time>2021-06-03T09:22:29.000Z</time>
      </trkpt>
      <trkpt lat="44.97989" lon="-0.33891">
        <ele>35.6</ele>
        <time>2021-06-03T09:22:32.000Z</time>
      </trkpt>
      <trkpt lat="44.97996" lon="-0.33884">
        <ele>35.3</ele>
        <time>2021-06-03T09:22:35.000Z</time>
      </trkpt>
      <trkpt lat="44.98003" lon="-0.33886">
        <ele>35.3</ele>
        <time>2021-06-03T09:22:37.000Z</time>
      </trkpt>
      <trkpt lat="44.9801" lon="-0.33888">
        <ele>35.1</ele>
        <time>2021-06-03T09:22:39.000Z</time>
      </trkpt>
      <trkpt lat="44.98019" lon="-0.33891">
        <ele>35.2</ele>
        <time>2021-06-03T09:22:41.000Z</time>
      </trkpt>
      <trkpt lat="44.98027" lon="-0.33894">
        <ele>35.6</ele>
        <time>2021-06-03T09:22:43.000Z</time>
      </trkpt>
      <trkpt lat="44.98035" lon="-0.33897">
        <ele>35.6</ele>
        <time>2021-06-03T09:22:45.000Z</time>
      </trkpt>
      <trkpt lat="44.98044" lon="-0.33899">
        <ele>35.5</ele>
        <time>2021-06-03T09:22:47.000Z</time>
      </trkpt>
      <trkpt lat="44.98052" lon="-0.33902">
        <ele>34.9</ele>
        <time>2021-06-03T09:22:49.000Z</time>
      </trkpt>
      <trkpt lat="44.9806" lon="-0.33904">
        <ele>34.6</ele>
        <time>2021-06-03T09:22:51.000Z</time>
      </trkpt>
      <trkpt lat="44.98069" lon="-0.33907">
        <ele>34.5</ele>
        <time>2021-06-03T09:22:53.000Z</time>
      </trkpt>
      <trkpt lat="44.98076" lon="-0.3391">
        <ele>34.6</ele>
        <time>2021-06-03T09:22:55.000Z</time>
      </trkpt>
      <trkpt lat="44.98084" lon="-0.33913">
        <ele>34.6</ele>
        <time>2021-06-03T09:22:57.000Z</time>
      </trkpt>
      <trkpt lat="44.98091" lon="-0.33912">
        <ele>34.5</ele>
        <time>2021-06-03T09:22:59.000Z</time>
      </trkpt>
      <trkpt lat="44.98094" lon="-0.33909">
        <ele>34.4</ele>
        <time>2021-06-03T09:23:00.000Z</time>
      </trkpt>
      <trkpt lat="44.98093" lon="-0.33895">
        <ele>34.3</ele>
        <time>2021-06-03T09:23:03.000Z</time>
      </trkpt>
      <trkpt lat="44.9809" lon="-0.33887">
        <ele>34.8</ele>
        <time>2021-06-03T09:23:05.000Z</time>
      </trkpt>
      <trkpt lat="44.98087" lon="-0.33878">
        <ele>34.9</ele>
        <time>2021-06-03T09:23:07.000Z</time>
      </trkpt>
      <trkpt lat="44.98084" lon="-0.33869">
        <ele>34.9</ele>
        <time>2021-06-03T09:23:09.000Z</time>
      </trkpt>
      <trkpt lat="44.9808" lon="-0.3386">
        <ele>35.1</ele>
        <time>2021-06-03T09:23:11.000Z</time>
      </trkpt>
      <trkpt lat="44.98076" lon="-0.33852">
        <ele>35.5</ele>
        <time>2021-06-03T09:23:13.000Z</time>
      </trkpt>
      <trkpt lat="44.98073" lon="-0.33842">
        <ele>35.3</ele>
        <time>2021-06-03T09:23:15.000Z</time>
      </trkpt>
      <trkpt lat="44.98069" lon="-0.33834">
        <ele>35.3</ele>
        <time>2021-06-03T09:23:17.000Z</time>
      </trkpt>
      <trkpt lat="44.98066" lon="-0.33825">
        <ele>35.5</ele>
        <time>2021-06-03T09:23:19.000Z</time>
      </trkpt>
      <trkpt lat="44.98063" lon="-0.33817">
        <ele>35.8</ele>
        <time>2021-06-03T09:23:21.000Z</time>
      </trkpt>
      <trkpt lat="44.98059" lon="-0.33809">
        <ele>36</ele>
        <time>2021-06-03T09:23:23.000Z</time>
      </trkpt>
      <trkpt lat="44.98055" lon="-0.33802">
        <ele>36.4</ele>
        <time>2021-06-03T09:23:25.000Z</time>
      </trkpt>
      <trkpt lat="44.98051" lon="-0.33796">
        <ele>36.3</ele>
        <time>2021-06-03T09:23:27.000Z</time>
      </trkpt>
      <trkpt lat="44.98047" lon="-0.33789">
        <ele>37</ele>
        <time>2021-06-03T09:23:29.000Z</time>
      </trkpt>
      <trkpt lat="44.98042" lon="-0.33784">
        <ele>37.3</ele>
        <time>2021-06-03T09:23:31.000Z</time>
      </trkpt>
      <trkpt lat="44.98038" lon="-0.33778">
        <ele>37.8</ele>
        <time>2021-06-03T09:23:33.000Z</time>
      </trkpt>
      <trkpt lat="44.98033" lon="-0.33772">
        <ele>37.8</ele>
        <time>2021-06-03T09:23:35.000Z</time>
      </trkpt>
      <trkpt lat="44.98028" lon="-0.33765">
        <ele>37.6</ele>
        <time>2021-06-03T09:23:37.000Z</time>
      </trkpt>
      <trkpt lat="44.98024" lon="-0.33759">
        <ele>38.1</ele>
        <time>2021-06-03T09:23:39.000Z</time>
      </trkpt>
      <trkpt lat="44.98019" lon="-0.33753">
        <ele>38.1</ele>
        <time>2021-06-03T09:23:41.000Z</time>
      </trkpt>
      <trkpt lat="44.98015" lon="-0.33747">
        <ele>38.8</ele>
        <time>2021-06-03T09:23:43.000Z</time>
      </trkpt>
      <trkpt lat="44.98011" lon="-0.3374">
        <ele>38.9</ele>
        <time>2021-06-03T09:23:45.000Z</time>
      </trkpt>
      <trkpt lat="44.98005" lon="-0.33731">
        <ele>38.8</ele>
        <time>2021-06-03T09:23:48.000Z</time>
      </trkpt>
      <trkpt lat="44.98001" lon="-0.33725">
        <ele>39.1</ele>
        <time>2021-06-03T09:23:50.000Z</time>
      </trkpt>
      <trkpt lat="44.97997" lon="-0.33718">
        <ele>39.5</ele>
        <time>2021-06-03T09:23:52.000Z</time>
      </trkpt>
      <trkpt lat="44.97991" lon="-0.33708">
        <ele>40.2</ele>
        <time>2021-06-03T09:23:55.000Z</time>
      </trkpt>
      <trkpt lat="44.97986" lon="-0.33699">
        <ele>40.4</ele>
        <time>2021-06-03T09:23:58.000Z</time>
      </trkpt>
      <trkpt lat="44.9798" lon="-0.3369">
        <ele>40.6</ele>
        <time>2021-06-03T09:24:01.000Z</time>
      </trkpt>
      <trkpt lat="44.97978" lon="-0.33687">
        <ele>40.6</ele>
        <time>2021-06-03T09:24:02.000Z</time>
      </trkpt>
      <trkpt lat="44.97973" lon="-0.33677">
        <ele>41.1</ele>
        <time>2021-06-03T09:24:05.000Z</time>
      </trkpt>
      <trkpt lat="44.97968" lon="-0.33666">
        <ele>41.5</ele>
        <time>2021-06-03T09:24:08.000Z</time>
      </trkpt>
      <trkpt lat="44.97963" lon="-0.33655">
        <ele>41.5</ele>
        <time>2021-06-03T09:24:11.000Z</time>
      </trkpt>
      <trkpt lat="44.9796" lon="-0.33645">
        <ele>41.6</ele>
        <time>2021-06-03T09:24:14.000Z</time>
      </trkpt>
      <trkpt lat="44.97955" lon="-0.33635">
        <ele>42.2</ele>
        <time>2021-06-03T09:24:17.000Z</time>
      </trkpt>
      <trkpt lat="44.97953" lon="-0.33625">
        <ele>42.6</ele>
        <time>2021-06-03T09:24:20.000Z</time>
      </trkpt>
      <trkpt lat="44.97948" lon="-0.33615">
        <ele>43.2</ele>
        <time>2021-06-03T09:24:23.000Z</time>
      </trkpt>
      <trkpt lat="44.97944" lon="-0.33607">
        <ele>42.7</ele>
        <time>2021-06-03T09:24:26.000Z</time>
      </trkpt>
      <trkpt lat="44.9794" lon="-0.336">
        <ele>42.8</ele>
        <time>2021-06-03T09:24:28.000Z</time>
      </trkpt>
      <trkpt lat="44.97936" lon="-0.33593">
        <ele>42.7</ele>
        <time>2021-06-03T09:24:30.000Z</time>
      </trkpt>
      <trkpt lat="44.97932" lon="-0.33586">
        <ele>42.7</ele>
        <time>2021-06-03T09:24:32.000Z</time>
      </trkpt>
      <trkpt lat="44.97928" lon="-0.33579">
        <ele>42.7</ele>
        <time>2021-06-03T09:24:34.000Z</time>
      </trkpt>
      <trkpt lat="44.97924" lon="-0.33572">
        <ele>42.6</ele>
        <time>2021-06-03T09:24:36.000Z</time>
      </trkpt>
      <trkpt lat="44.9792" lon="-0.33564">
        <ele>42.5</ele>
        <time>2021-06-03T09:24:38.000Z</time>
      </trkpt>
      <trkpt lat="44.97916" lon="-0.33556">
        <ele>43.1</ele>
        <time>2021-06-03T09:24:40.000Z</time>
      </trkpt>
      <trkpt lat="44.97911" lon="-0.33548">
        <ele>43.1</ele>
        <time>2021-06-03T09:24:42.000Z</time>
      </trkpt>
      <trkpt lat="44.97907" lon="-0.33541">
        <ele>43.2</ele>
        <time>2021-06-03T09:24:44.000Z</time>
      </trkpt>
      <trkpt lat="44.97902" lon="-0.33534">
        <ele>43.2</ele>
        <time>2021-06-03T09:24:46.000Z</time>
      </trkpt>
      <trkpt lat="44.97897" lon="-0.33525">
        <ele>43.1</ele>
        <time>2021-06-03T09:24:48.000Z</time>
      </trkpt>
      <trkpt lat="44.97892" lon="-0.33516">
        <ele>42.6</ele>
        <time>2021-06-03T09:24:50.000Z</time>
      </trkpt>
      <trkpt lat="44.97887" lon="-0.33506">
        <ele>42.7</ele>
        <time>2021-06-03T09:24:52.000Z</time>
      </trkpt>
      <trkpt lat="44.97882" lon="-0.33497">
        <ele>42.5</ele>
        <time>2021-06-03T09:24:54.000Z</time>
      </trkpt>
      <trkpt lat="44.97878" lon="-0.33488">
        <ele>42.2</ele>
        <time>2021-06-03T09:24:56.000Z</time>
      </trkpt>
      <trkpt lat="44.9787" lon="-0.33473">
        <ele>41</ele>
        <time>2021-06-03T09:24:59.000Z</time>
      </trkpt>
      <trkpt lat="44.97865" lon="-0.33464">
        <ele>41.9</ele>
        <time>2021-06-03T09:25:02.000Z</time>
      </trkpt>
      <trkpt lat="44.97863" lon="-0.3346">
        <ele>42</ele>
        <time>2021-06-03T09:25:03.000Z</time>
      </trkpt>
      <trkpt lat="44.97856" lon="-0.33448">
        <ele>42</ele>
        <time>2021-06-03T09:25:06.000Z</time>
      </trkpt>
      <trkpt lat="44.97851" lon="-0.33441">
        <ele>42</ele>
        <time>2021-06-03T09:25:08.000Z</time>
      </trkpt>
      <trkpt lat="44.97846" lon="-0.33434">
        <ele>41.9</ele>
        <time>2021-06-03T09:25:10.000Z</time>
      </trkpt>
      <trkpt lat="44.97841" lon="-0.33427">
        <ele>41.9</ele>
        <time>2021-06-03T09:25:12.000Z</time>
      </trkpt>
      <trkpt lat="44.97836" lon="-0.33419">
        <ele>42</ele>
        <time>2021-06-03T09:25:14.000Z</time>
      </trkpt>
      <trkpt lat="44.97831" lon="-0.33412">
        <ele>42.1</ele>
        <time>2021-06-03T09:25:16.000Z</time>
      </trkpt>
      <trkpt lat="44.97826" lon="-0.33405">
        <ele>41.8</ele>
        <time>2021-06-03T09:25:18.000Z</time>
      </trkpt>
      <trkpt lat="44.97821" lon="-0.33398">
        <ele>42</ele>
        <time>2021-06-03T09:25:20.000Z</time>
      </trkpt>
      <trkpt lat="44.97817" lon="-0.3339">
        <ele>42.3</ele>
        <time>2021-06-03T09:25:22.000Z</time>
      </trkpt>
      <trkpt lat="44.97813" lon="-0.3338">
        <ele>42.4</ele>
        <time>2021-06-03T09:25:24.000Z</time>
      </trkpt>
      <trkpt lat="44.9781" lon="-0.33369">
        <ele>42.5</ele>
        <time>2021-06-03T09:25:26.000Z</time>
      </trkpt>
      <trkpt lat="44.97806" lon="-0.3336">
        <ele>42.7</ele>
        <time>2021-06-03T09:25:28.000Z</time>
      </trkpt>
      <trkpt lat="44.97802" lon="-0.33351">
        <ele>42.5</ele>
        <time>2021-06-03T09:25:30.000Z</time>
      </trkpt>
      <trkpt lat="44.97799" lon="-0.33342">
        <ele>42.6</ele>
        <time>2021-06-03T09:25:32.000Z</time>
      </trkpt>
      <trkpt lat="44.97796" lon="-0.33333">
        <ele>43.1</ele>
        <time>2021-06-03T09:25:34.000Z</time>
      </trkpt>
      <trkpt lat="44.97793" lon="-0.33325">
        <ele>43.7</ele>
        <time>2021-06-03T09:25:36.000Z</time>
      </trkpt>
      <trkpt lat="44.97789" lon="-0.33317">
        <ele>44</ele>
        <time>2021-06-03T09:25:38.000Z</time>
      </trkpt>
      <trkpt lat="44.97787" lon="-0.33308">
        <ele>43.3</ele>
        <time>2021-06-03T09:25:40.000Z</time>
      </trkpt>
      <trkpt lat="44.97784" lon="-0.33299">
        <ele>43.4</ele>
        <time>2021-06-03T09:25:42.000Z</time>
      </trkpt>
      <trkpt lat="44.97781" lon="-0.33289">
        <ele>43.7</ele>
        <time>2021-06-03T09:25:44.000Z</time>
      </trkpt>
      <trkpt lat="44.97778" lon="-0.3328">
        <ele>43.9</ele>
        <time>2021-06-03T09:25:46.000Z</time>
      </trkpt>
      <trkpt lat="44.97775" lon="-0.33271">
        <ele>43.8</ele>
        <time>2021-06-03T09:25:48.000Z</time>
      </trkpt>
      <trkpt lat="44.97773" lon="-0.33261">
        <ele>43.6</ele>
        <time>2021-06-03T09:25:50.000Z</time>
      </trkpt>
      <trkpt lat="44.9777" lon="-0.33251">
        <ele>43.6</ele>
        <time>2021-06-03T09:25:52.000Z</time>
      </trkpt>
      <trkpt lat="44.97768" lon="-0.3324">
        <ele>43.6</ele>
        <time>2021-06-03T09:25:54.000Z</time>
      </trkpt>
      <trkpt lat="44.97765" lon="-0.33229">
        <ele>43.9</ele>
        <time>2021-06-03T09:25:56.000Z</time>
      </trkpt>
      <trkpt lat="44.97763" lon="-0.33217">
        <ele>43.8</ele>
        <time>2021-06-03T09:25:58.000Z</time>
      </trkpt>
      <trkpt lat="44.97761" lon="-0.33206">
        <ele>43.8</ele>
        <time>2021-06-03T09:26:00.000Z</time>
      </trkpt>
      <trkpt lat="44.97759" lon="-0.33194">
        <ele>43.6</ele>
        <time>2021-06-03T09:26:02.000Z</time>
      </trkpt>
      <trkpt lat="44.97758" lon="-0.33182">
        <ele>43.2</ele>
        <time>2021-06-03T09:26:04.000Z</time>
      </trkpt>
      <trkpt lat="44.97757" lon="-0.33177">
        <ele>43.1</ele>
        <time>2021-06-03T09:26:05.000Z</time>
      </trkpt>
      <trkpt lat="44.97754" lon="-0.3316">
        <ele>43.4</ele>
        <time>2021-06-03T09:26:08.000Z</time>
      </trkpt>
      <trkpt lat="44.97752" lon="-0.33149">
        <ele>43.6</ele>
        <time>2021-06-03T09:26:10.000Z</time>
      </trkpt>
      <trkpt lat="44.97751" lon="-0.3314">
        <ele>43.8</ele>
        <time>2021-06-03T09:26:12.000Z</time>
      </trkpt>
      <trkpt lat="44.97749" lon="-0.3313">
        <ele>43.6</ele>
        <time>2021-06-03T09:26:14.000Z</time>
      </trkpt>
      <trkpt lat="44.97747" lon="-0.33119">
        <ele>43.4</ele>
        <time>2021-06-03T09:26:16.000Z</time>
      </trkpt>
      <trkpt lat="44.97745" lon="-0.33109">
        <ele>43.6</ele>
        <time>2021-06-03T09:26:18.000Z</time>
      </trkpt>
      <trkpt lat="44.97743" lon="-0.33099">
        <ele>43.7</ele>
        <time>2021-06-03T09:26:20.000Z</time>
      </trkpt>
      <trkpt lat="44.97741" lon="-0.33088">
        <ele>43.9</ele>
        <time>2021-06-03T09:26:22.000Z</time>
      </trkpt>
      <trkpt lat="44.97739" lon="-0.33077">
        <ele>44</ele>
        <time>2021-06-03T09:26:24.000Z</time>
      </trkpt>
      <trkpt lat="44.97736" lon="-0.33066">
        <ele>43.9</ele>
        <time>2021-06-03T09:26:26.000Z</time>
      </trkpt>
      <trkpt lat="44.97734" lon="-0.33055">
        <ele>43.3</ele>
        <time>2021-06-03T09:26:28.000Z</time>
      </trkpt>
      <trkpt lat="44.97732" lon="-0.33044">
        <ele>42.7</ele>
        <time>2021-06-03T09:26:30.000Z</time>
      </trkpt>
      <trkpt lat="44.97731" lon="-0.33032">
        <ele>43.1</ele>
        <time>2021-06-03T09:26:32.000Z</time>
      </trkpt>
      <trkpt lat="44.97729" lon="-0.3302">
        <ele>43.9</ele>
        <time>2021-06-03T09:26:34.000Z</time>
      </trkpt>
      <trkpt lat="44.97728" lon="-0.33008">
        <ele>44.3</ele>
        <time>2021-06-03T09:26:36.000Z</time>
      </trkpt>
      <trkpt lat="44.97726" lon="-0.32996">
        <ele>44.3</ele>
        <time>2021-06-03T09:26:38.000Z</time>
      </trkpt>
      <trkpt lat="44.97725" lon="-0.32985">
        <ele>44.6</ele>
        <time>2021-06-03T09:26:40.000Z</time>
      </trkpt>
      <trkpt lat="44.97724" lon="-0.32974">
        <ele>44.9</ele>
        <time>2021-06-03T09:26:42.000Z</time>
      </trkpt>
      <trkpt lat="44.97722" lon="-0.32963">
        <ele>45</ele>
        <time>2021-06-03T09:26:44.000Z</time>
      </trkpt>
      <trkpt lat="44.97721" lon="-0.32952">
        <ele>45.3</ele>
        <time>2021-06-03T09:26:46.000Z</time>
      </trkpt>
      <trkpt lat="44.97719" lon="-0.32941">
        <ele>45.6</ele>
        <time>2021-06-03T09:26:48.000Z</time>
      </trkpt>
      <trkpt lat="44.97717" lon="-0.3293">
        <ele>45.8</ele>
        <time>2021-06-03T09:26:50.000Z</time>
      </trkpt>
      <trkpt lat="44.97715" lon="-0.32919">
        <ele>46.4</ele>
        <time>2021-06-03T09:26:52.000Z</time>
      </trkpt>
      <trkpt lat="44.97713" lon="-0.32909">
        <ele>46.8</ele>
        <time>2021-06-03T09:26:54.000Z</time>
      </trkpt>
      <trkpt lat="44.97712" lon="-0.32896">
        <ele>46.7</ele>
        <time>2021-06-03T09:26:57.000Z</time>
      </trkpt>
      <trkpt lat="44.97709" lon="-0.32885">
        <ele>46.3</ele>
        <time>2021-06-03T09:27:02.000Z</time>
      </trkpt>
      <trkpt lat="44.97707" lon="-0.32874">
        <ele>46.4</ele>
        <time>2021-06-03T09:27:07.000Z</time>
      </trkpt>
      <trkpt lat="44.97706" lon="-0.32872">
        <ele>46.4</ele>
        <time>2021-06-03T09:27:08.000Z</time>
      </trkpt>
      <trkpt lat="44.977" lon="-0.32852">
        <ele>45.5</ele>
        <time>2021-06-03T09:28:05.000Z</time>
      </trkpt>
      <trkpt lat="44.97698" lon="-0.32844">
        <ele>45.3</ele>
        <time>2021-06-03T09:28:07.000Z</time>
      </trkpt>
      <trkpt lat="44.97696" lon="-0.32836">
        <ele>45.7</ele>
        <time>2021-06-03T09:28:09.000Z</time>
      </trkpt>
      <trkpt lat="44.97695" lon="-0.32832">
        <ele>45.7</ele>
        <time>2021-06-03T09:28:10.000Z</time>
      </trkpt>
      <trkpt lat="44.97691" lon="-0.32816">
        <ele>45.8</ele>
        <time>2021-06-03T09:28:14.000Z</time>
      </trkpt>
      <trkpt lat="44.9769" lon="-0.32807">
        <ele>45.9</ele>
        <time>2021-06-03T09:28:16.000Z</time>
      </trkpt>
      <trkpt lat="44.97688" lon="-0.32798">
        <ele>46</ele>
        <time>2021-06-03T09:28:18.000Z</time>
      </trkpt>
      <trkpt lat="44.97686" lon="-0.3279">
        <ele>45.8</ele>
        <time>2021-06-03T09:28:20.000Z</time>
      </trkpt>
      <trkpt lat="44.97685" lon="-0.32782">
        <ele>46</ele>
        <time>2021-06-03T09:28:22.000Z</time>
      </trkpt>
      <trkpt lat="44.97683" lon="-0.32773">
        <ele>46.3</ele>
        <time>2021-06-03T09:28:24.000Z</time>
      </trkpt>
      <trkpt lat="44.9768" lon="-0.32763">
        <ele>46</ele>
        <time>2021-06-03T09:28:26.000Z</time>
      </trkpt>
      <trkpt lat="44.97678" lon="-0.32753">
        <ele>45.6</ele>
        <time>2021-06-03T09:28:28.000Z</time>
      </trkpt>
      <trkpt lat="44.97676" lon="-0.32743">
        <ele>45.1</ele>
        <time>2021-06-03T09:28:30.000Z</time>
      </trkpt>
      <trkpt lat="44.97673" lon="-0.32731">
        <ele>45.6</ele>
        <time>2021-06-03T09:28:32.000Z</time>
      </trkpt>
      <trkpt lat="44.9767" lon="-0.32721">
        <ele>46.1</ele>
        <time>2021-06-03T09:28:34.000Z</time>
      </trkpt>
      <trkpt lat="44.97667" lon="-0.32711">
        <ele>46.2</ele>
        <time>2021-06-03T09:28:36.000Z</time>
      </trkpt>
      <trkpt lat="44.97664" lon="-0.327">
        <ele>45.6</ele>
        <time>2021-06-03T09:28:38.000Z</time>
      </trkpt>
      <trkpt lat="44.97662" lon="-0.3269">
        <ele>45.4</ele>
        <time>2021-06-03T09:28:40.000Z</time>
      </trkpt>
      <trkpt lat="44.9766" lon="-0.3268">
        <ele>45.7</ele>
        <time>2021-06-03T09:28:42.000Z</time>
      </trkpt>
      <trkpt lat="44.97658" lon="-0.32671">
        <ele>45.7</ele>
        <time>2021-06-03T09:28:44.000Z</time>
      </trkpt>
      <trkpt lat="44.97656" lon="-0.32659">
        <ele>45.8</ele>
        <time>2021-06-03T09:28:47.000Z</time>
      </trkpt>
      <trkpt lat="44.97653" lon="-0.32649">
        <ele>45.8</ele>
        <time>2021-06-03T09:28:50.000Z</time>
      </trkpt>
      <trkpt lat="44.97649" lon="-0.32639">
        <ele>45.9</ele>
        <time>2021-06-03T09:28:53.000Z</time>
      </trkpt>
      <trkpt lat="44.97643" lon="-0.32636">
        <ele>46.2</ele>
        <time>2021-06-03T09:28:55.000Z</time>
      </trkpt>
      <trkpt lat="44.97637" lon="-0.32633">
        <ele>46.1</ele>
        <time>2021-06-03T09:28:57.000Z</time>
      </trkpt>
      <trkpt lat="44.97629" lon="-0.3263">
        <ele>46.4</ele>
        <time>2021-06-03T09:29:00.000Z</time>
      </trkpt>
      <trkpt lat="44.97623" lon="-0.32629">
        <ele>46.3</ele>
        <time>2021-06-03T09:29:02.000Z</time>
      </trkpt>
      <trkpt lat="44.97616" lon="-0.32627">
        <ele>47</ele>
        <time>2021-06-03T09:29:04.000Z</time>
      </trkpt>
      <trkpt lat="44.97609" lon="-0.32624">
        <ele>47.7</ele>
        <time>2021-06-03T09:29:06.000Z</time>
      </trkpt>
      <trkpt lat="44.97602" lon="-0.32622">
        <ele>48</ele>
        <time>2021-06-03T09:29:08.000Z</time>
      </trkpt>
      <trkpt lat="44.97596" lon="-0.3262">
        <ele>48.2</ele>
        <time>2021-06-03T09:29:10.000Z</time>
      </trkpt>
      <trkpt lat="44.97593" lon="-0.32618">
        <ele>48.3</ele>
        <time>2021-06-03T09:29:11.000Z</time>
      </trkpt>
      <trkpt lat="44.97583" lon="-0.32615">
        <ele>48.2</ele>
        <time>2021-06-03T09:29:14.000Z</time>
      </trkpt>
      <trkpt lat="44.97576" lon="-0.32612">
        <ele>48.4</ele>
        <time>2021-06-03T09:29:16.000Z</time>
      </trkpt>
      <trkpt lat="44.97569" lon="-0.32608">
        <ele>49.2</ele>
        <time>2021-06-03T09:29:18.000Z</time>
      </trkpt>
      <trkpt lat="44.97561" lon="-0.32605">
        <ele>49.4</ele>
        <time>2021-06-03T09:29:20.000Z</time>
      </trkpt>
      <trkpt lat="44.97554" lon="-0.32601">
        <ele>49.2</ele>
        <time>2021-06-03T09:29:22.000Z</time>
      </trkpt>
      <trkpt lat="44.97547" lon="-0.32596">
        <ele>49.2</ele>
        <time>2021-06-03T09:29:24.000Z</time>
      </trkpt>
      <trkpt lat="44.97539" lon="-0.32592">
        <ele>49.8</ele>
        <time>2021-06-03T09:29:26.000Z</time>
      </trkpt>
      <trkpt lat="44.97532" lon="-0.32588">
        <ele>50.3</ele>
        <time>2021-06-03T09:29:28.000Z</time>
      </trkpt>
      <trkpt lat="44.97525" lon="-0.32584">
        <ele>50</ele>
        <time>2021-06-03T09:29:30.000Z</time>
      </trkpt>
      <trkpt lat="44.97517" lon="-0.32579">
        <ele>51</ele>
        <time>2021-06-03T09:29:32.000Z</time>
      </trkpt>
      <trkpt lat="44.9751" lon="-0.32575">
        <ele>51.6</ele>
        <time>2021-06-03T09:29:34.000Z</time>
      </trkpt>
      <trkpt lat="44.97504" lon="-0.32571">
        <ele>51.8</ele>
        <time>2021-06-03T09:29:36.000Z</time>
      </trkpt>
      <trkpt lat="44.97499" lon="-0.32568">
        <ele>51.7</ele>
        <time>2021-06-03T09:29:38.000Z</time>
      </trkpt>
      <trkpt lat="44.97493" lon="-0.32565">
        <ele>51.7</ele>
        <time>2021-06-03T09:29:40.000Z</time>
      </trkpt>
      <trkpt lat="44.97487" lon="-0.32561">
        <ele>51.7</ele>
        <time>2021-06-03T09:29:42.000Z</time>
      </trkpt>
      <trkpt lat="44.9748" lon="-0.32557">
        <ele>52.2</ele>
        <time>2021-06-03T09:29:44.000Z</time>
      </trkpt>
      <trkpt lat="44.97474" lon="-0.32554">
        <ele>52.2</ele>
        <time>2021-06-03T09:29:46.000Z</time>
      </trkpt>
      <trkpt lat="44.97468" lon="-0.32551">
        <ele>52.1</ele>
        <time>2021-06-03T09:29:48.000Z</time>
      </trkpt>
      <trkpt lat="44.97462" lon="-0.32547">
        <ele>52.1</ele>
        <time>2021-06-03T09:29:50.000Z</time>
      </trkpt>
      <trkpt lat="44.97456" lon="-0.32544">
        <ele>52.2</ele>
        <time>2021-06-03T09:29:52.000Z</time>
      </trkpt>
      <trkpt lat="44.97451" lon="-0.3254">
        <ele>52.8</ele>
        <time>2021-06-03T09:29:54.000Z</time>
      </trkpt>
      <trkpt lat="44.97445" lon="-0.32537">
        <ele>53</ele>
        <time>2021-06-03T09:29:56.000Z</time>
      </trkpt>
      <trkpt lat="44.97439" lon="-0.32533">
        <ele>53.5</ele>
        <time>2021-06-03T09:29:58.000Z</time>
      </trkpt>
      <trkpt lat="44.97433" lon="-0.3253">
        <ele>54</ele>
        <time>2021-06-03T09:30:00.000Z</time>
      </trkpt>
      <trkpt lat="44.9742" lon="-0.32522">
        <ele>53</ele>
        <time>2021-06-03T09:30:04.000Z</time>
      </trkpt>
      <trkpt lat="44.97413" lon="-0.32518">
        <ele>54</ele>
        <time>2021-06-03T09:30:07.000Z</time>
      </trkpt>
      <trkpt lat="44.97405" lon="-0.32514">
        <ele>54.2</ele>
        <time>2021-06-03T09:30:10.000Z</time>
      </trkpt>
      <trkpt lat="44.97397" lon="-0.32509">
        <ele>54.9</ele>
        <time>2021-06-03T09:30:13.000Z</time>
      </trkpt>
      <trkpt lat="44.97394" lon="-0.32508">
        <ele>55.2</ele>
        <time>2021-06-03T09:30:14.000Z</time>
      </trkpt>
      <trkpt lat="44.97381" lon="-0.32501">
        <ele>55.1</ele>
        <time>2021-06-03T09:30:19.000Z</time>
      </trkpt>
      <trkpt lat="44.97373" lon="-0.32497">
        <ele>55.4</ele>
        <time>2021-06-03T09:30:22.000Z</time>
      </trkpt>
      <trkpt lat="44.97363" lon="-0.32491">
        <ele>55</ele>
        <time>2021-06-03T09:30:25.000Z</time>
      </trkpt>
      <trkpt lat="44.97352" lon="-0.32485">
        <ele>55</ele>
        <time>2021-06-03T09:30:29.000Z</time>
      </trkpt>
      <trkpt lat="44.9734" lon="-0.32477">
        <ele>56</ele>
        <time>2021-06-03T09:30:33.000Z</time>
      </trkpt>
      <trkpt lat="44.97327" lon="-0.32465">
        <ele>56</ele>
        <time>2021-06-03T09:30:38.000Z</time>
      </trkpt>
      <trkpt lat="44.97306" lon="-0.32442">
        <ele>56</ele>
        <time>2021-06-03T09:30:45.000Z</time>
      </trkpt>
      <trkpt lat="44.97281" lon="-0.32416">
        <ele>55</ele>
        <time>2021-06-03T09:30:53.000Z</time>
      </trkpt>
      <trkpt lat="44.97258" lon="-0.32387">
        <ele>55</ele>
        <time>2021-06-03T09:31:01.000Z</time>
      </trkpt>
      <trkpt lat="44.97235" lon="-0.32359">
        <ele>56</ele>
        <time>2021-06-03T09:31:09.000Z</time>
      </trkpt>
      <trkpt lat="44.97227" lon="-0.3235">
        <ele>55.7</ele>
        <time>2021-06-03T09:31:13.000Z</time>
      </trkpt>
      <trkpt lat="44.97224" lon="-0.32339">
        <ele>55.6</ele>
        <time>2021-06-03T09:31:18.000Z</time>
      </trkpt>
      <trkpt lat="44.97226" lon="-0.32337">
        <ele>55.6</ele>
        <time>2021-06-03T09:31:19.000Z</time>
      </trkpt>
      <trkpt lat="44.97238" lon="-0.32332">
        <ele>55.3</ele>
        <time>2021-06-03T09:31:22.000Z</time>
      </trkpt>
      <trkpt lat="44.97243" lon="-0.32331">
        <ele>55.2</ele>
        <time>2021-06-03T09:31:23.000Z</time>
      </trkpt>
      <trkpt lat="44.97248" lon="-0.3233">
        <ele>55.2</ele>
        <time>2021-06-03T09:31:24.000Z</time>
      </trkpt>
      <trkpt lat="44.97253" lon="-0.32329">
        <ele>55.1</ele>
        <time>2021-06-03T09:31:25.000Z</time>
      </trkpt>
      <trkpt lat="44.97258" lon="-0.32327">
        <ele>55.1</ele>
        <time>2021-06-03T09:31:26.000Z</time>
      </trkpt>
      <trkpt lat="44.97262" lon="-0.32326">
        <ele>54.9</ele>
        <time>2021-06-03T09:31:27.000Z</time>
      </trkpt>
      <trkpt lat="44.97267" lon="-0.32324">
        <ele>54.7</ele>
        <time>2021-06-03T09:31:28.000Z</time>
      </trkpt>
      <trkpt lat="44.97272" lon="-0.32323">
        <ele>54.6</ele>
        <time>2021-06-03T09:31:29.000Z</time>
      </trkpt>
      <trkpt lat="44.97276" lon="-0.32321">
        <ele>54.7</ele>
        <time>2021-06-03T09:31:30.000Z</time>
      </trkpt>
      <trkpt lat="44.97281" lon="-0.32319">
        <ele>54.8</ele>
        <time>2021-06-03T09:31:31.000Z</time>
      </trkpt>
      <trkpt lat="44.97286" lon="-0.32318">
        <ele>54.7</ele>
        <time>2021-06-03T09:31:32.000Z</time>
      </trkpt>
      <trkpt lat="44.97291" lon="-0.32316">
        <ele>54.6</ele>
        <time>2021-06-03T09:31:33.000Z</time>
      </trkpt>
      <trkpt lat="44.97295" lon="-0.32314">
        <ele>54.7</ele>
        <time>2021-06-03T09:31:34.000Z</time>
      </trkpt>
      <trkpt lat="44.973" lon="-0.32313">
        <ele>54.7</ele>
        <time>2021-06-03T09:31:35.000Z</time>
      </trkpt>
      <trkpt lat="44.97305" lon="-0.32311">
        <ele>54.7</ele>
        <time>2021-06-03T09:31:36.000Z</time>
      </trkpt>
      <trkpt lat="44.97309" lon="-0.3231">
        <ele>54.7</ele>
        <time>2021-06-03T09:31:37.000Z</time>
      </trkpt>
      <trkpt lat="44.97318" lon="-0.32306">
        <ele>54.9</ele>
        <time>2021-06-03T09:31:39.000Z</time>
      </trkpt>
      <trkpt lat="44.97326" lon="-0.32303">
        <ele>55.1</ele>
        <time>2021-06-03T09:31:41.000Z</time>
      </trkpt>
      <trkpt lat="44.97333" lon="-0.323">
        <ele>55.2</ele>
        <time>2021-06-03T09:31:43.000Z</time>
      </trkpt>
      <trkpt lat="44.97341" lon="-0.32298">
        <ele>54.9</ele>
        <time>2021-06-03T09:31:45.000Z</time>
      </trkpt>
      <trkpt lat="44.97348" lon="-0.32295">
        <ele>54.4</ele>
        <time>2021-06-03T09:31:47.000Z</time>
      </trkpt>
      <trkpt lat="44.97356" lon="-0.32291">
        <ele>54.2</ele>
        <time>2021-06-03T09:31:49.000Z</time>
      </trkpt>
      <trkpt lat="44.97363" lon="-0.32287">
        <ele>54.4</ele>
        <time>2021-06-03T09:31:51.000Z</time>
      </trkpt>
      <trkpt lat="44.9737" lon="-0.32283">
        <ele>54.7</ele>
        <time>2021-06-03T09:31:53.000Z</time>
      </trkpt>
      <trkpt lat="44.97376" lon="-0.32279">
        <ele>54.2</ele>
        <time>2021-06-03T09:31:55.000Z</time>
      </trkpt>
      <trkpt lat="44.97383" lon="-0.32275">
        <ele>54.4</ele>
        <time>2021-06-03T09:31:57.000Z</time>
      </trkpt>
      <trkpt lat="44.97389" lon="-0.3227">
        <ele>54.8</ele>
        <time>2021-06-03T09:31:59.000Z</time>
      </trkpt>
      <trkpt lat="44.97395" lon="-0.32265">
        <ele>54.9</ele>
        <time>2021-06-03T09:32:01.000Z</time>
      </trkpt>
      <trkpt lat="44.97402" lon="-0.32261">
        <ele>55</ele>
        <time>2021-06-03T09:32:03.000Z</time>
      </trkpt>
      <trkpt lat="44.97409" lon="-0.32257">
        <ele>55.3</ele>
        <time>2021-06-03T09:32:05.000Z</time>
      </trkpt>
      <trkpt lat="44.97415" lon="-0.32254">
        <ele>55.6</ele>
        <time>2021-06-03T09:32:07.000Z</time>
      </trkpt>
      <trkpt lat="44.97422" lon="-0.32251">
        <ele>55.2</ele>
        <time>2021-06-03T09:32:09.000Z</time>
      </trkpt>
      <trkpt lat="44.97428" lon="-0.32247">
        <ele>55.7</ele>
        <time>2021-06-03T09:32:11.000Z</time>
      </trkpt>
      <trkpt lat="44.97434" lon="-0.32244">
        <ele>56</ele>
        <time>2021-06-03T09:32:13.000Z</time>
      </trkpt>
      <trkpt lat="44.9744" lon="-0.3224">
        <ele>56.5</ele>
        <time>2021-06-03T09:32:15.000Z</time>
      </trkpt>
      <trkpt lat="44.97447" lon="-0.32236">
        <ele>56.7</ele>
        <time>2021-06-03T09:32:17.000Z</time>
      </trkpt>
      <trkpt lat="44.97454" lon="-0.32231">
        <ele>56.6</ele>
        <time>2021-06-03T09:32:19.000Z</time>
      </trkpt>
      <trkpt lat="44.97457" lon="-0.32229">
        <ele>56.4</ele>
        <time>2021-06-03T09:32:20.000Z</time>
      </trkpt>
      <trkpt lat="44.97465" lon="-0.32222">
        <ele>57</ele>
        <time>2021-06-03T09:32:23.000Z</time>
      </trkpt>
      <trkpt lat="44.97472" lon="-0.32216">
        <ele>57.6</ele>
        <time>2021-06-03T09:32:26.000Z</time>
      </trkpt>
      <trkpt lat="44.97479" lon="-0.32211">
        <ele>58.7</ele>
        <time>2021-06-03T09:32:29.000Z</time>
      </trkpt>
      <trkpt lat="44.97487" lon="-0.32206">
        <ele>59.6</ele>
        <time>2021-06-03T09:32:32.000Z</time>
      </trkpt>
      <trkpt lat="44.97494" lon="-0.32201">
        <ele>59.5</ele>
        <time>2021-06-03T09:32:35.000Z</time>
      </trkpt>
      <trkpt lat="44.97501" lon="-0.32196">
        <ele>60.7</ele>
        <time>2021-06-03T09:32:38.000Z</time>
      </trkpt>
      <trkpt lat="44.97508" lon="-0.32192">
        <ele>61.4</ele>
        <time>2021-06-03T09:32:41.000Z</time>
      </trkpt>
      <trkpt lat="44.97515" lon="-0.32187">
        <ele>62</ele>
        <time>2021-06-03T09:32:44.000Z</time>
      </trkpt>
      <trkpt lat="44.97522" lon="-0.32182">
        <ele>62.8</ele>
        <time>2021-06-03T09:32:47.000Z</time>
      </trkpt>
      <trkpt lat="44.97529" lon="-0.32176">
        <ele>63.1</ele>
        <time>2021-06-03T09:32:50.000Z</time>
      </trkpt>
      <trkpt lat="44.97536" lon="-0.32171">
        <ele>63.7</ele>
        <time>2021-06-03T09:32:53.000Z</time>
      </trkpt>
      <trkpt lat="44.97544" lon="-0.32166">
        <ele>64.4</ele>
        <time>2021-06-03T09:32:57.000Z</time>
      </trkpt>
      <trkpt lat="44.97549" lon="-0.32162">
        <ele>65.2</ele>
        <time>2021-06-03T09:33:00.000Z</time>
      </trkpt>
      <trkpt lat="44.97557" lon="-0.32157">
        <ele>65.8</ele>
        <time>2021-06-03T09:33:03.000Z</time>
      </trkpt>
      <trkpt lat="44.97564" lon="-0.32152">
        <ele>66.7</ele>
        <time>2021-06-03T09:33:06.000Z</time>
      </trkpt>
      <trkpt lat="44.97572" lon="-0.32146">
        <ele>66.6</ele>
        <time>2021-06-03T09:33:09.000Z</time>
      </trkpt>
      <trkpt lat="44.97578" lon="-0.32142">
        <ele>66.4</ele>
        <time>2021-06-03T09:33:12.000Z</time>
      </trkpt>
      <trkpt lat="44.97586" lon="-0.32137">
        <ele>67.6</ele>
        <time>2021-06-03T09:33:15.000Z</time>
      </trkpt>
      <trkpt lat="44.97592" lon="-0.32133">
        <ele>67.6</ele>
        <time>2021-06-03T09:33:17.000Z</time>
      </trkpt>
      <trkpt lat="44.97599" lon="-0.32129">
        <ele>67.1</ele>
        <time>2021-06-03T09:33:19.000Z</time>
      </trkpt>
      <trkpt lat="44.97607" lon="-0.32124">
        <ele>66.6</ele>
        <time>2021-06-03T09:33:21.000Z</time>
      </trkpt>
      <trkpt lat="44.9761" lon="-0.32122">
        <ele>66.4</ele>
        <time>2021-06-03T09:33:22.000Z</time>
      </trkpt>
      <trkpt lat="44.97618" lon="-0.32116">
        <ele>66.1</ele>
        <time>2021-06-03T09:33:24.000Z</time>
      </trkpt>
      <trkpt lat="44.97623" lon="-0.32114">
        <ele>65.9</ele>
        <time>2021-06-03T09:33:25.000Z</time>
      </trkpt>
      <trkpt lat="44.97627" lon="-0.32111">
        <ele>65.8</ele>
        <time>2021-06-03T09:33:26.000Z</time>
      </trkpt>
      <trkpt lat="44.97631" lon="-0.32108">
        <ele>65.8</ele>
        <time>2021-06-03T09:33:27.000Z</time>
      </trkpt>
      <trkpt lat="44.97635" lon="-0.32105">
        <ele>65.7</ele>
        <time>2021-06-03T09:33:28.000Z</time>
      </trkpt>
      <trkpt lat="44.9764" lon="-0.32102">
        <ele>65.6</ele>
        <time>2021-06-03T09:33:29.000Z</time>
      </trkpt>
      <trkpt lat="44.97644" lon="-0.32099">
        <ele>65.5</ele>
        <time>2021-06-03T09:33:30.000Z</time>
      </trkpt>
      <trkpt lat="44.97648" lon="-0.32097">
        <ele>65.3</ele>
        <time>2021-06-03T09:33:31.000Z</time>
      </trkpt>
      <trkpt lat="44.97652" lon="-0.32093">
        <ele>65.1</ele>
        <time>2021-06-03T09:33:32.000Z</time>
      </trkpt>
      <trkpt lat="44.97656" lon="-0.3209">
        <ele>65</ele>
        <time>2021-06-03T09:33:33.000Z</time>
      </trkpt>
      <trkpt lat="44.9766" lon="-0.32085">
        <ele>65</ele>
        <time>2021-06-03T09:33:34.000Z</time>
      </trkpt>
      <trkpt lat="44.97663" lon="-0.3208">
        <ele>64.9</ele>
        <time>2021-06-03T09:33:35.000Z</time>
      </trkpt>
      <trkpt lat="44.97666" lon="-0.32074">
        <ele>65.1</ele>
        <time>2021-06-03T09:33:36.000Z</time>
      </trkpt>
      <trkpt lat="44.97668" lon="-0.32068">
        <ele>65.2</ele>
        <time>2021-06-03T09:33:37.000Z</time>
      </trkpt>
      <trkpt lat="44.97668" lon="-0.32061">
        <ele>65.2</ele>
        <time>2021-06-03T09:33:38.000Z</time>
      </trkpt>
      <trkpt lat="44.97668" lon="-0.32054">
        <ele>65.3</ele>
        <time>2021-06-03T09:33:39.000Z</time>
      </trkpt>
      <trkpt lat="44.97667" lon="-0.32047">
        <ele>64.9</ele>
        <time>2021-06-03T09:33:40.000Z</time>
      </trkpt>
      <trkpt lat="44.97668" lon="-0.32034">
        <ele>64.4</ele>
        <time>2021-06-03T09:33:42.000Z</time>
      </trkpt>
      <trkpt lat="44.97671" lon="-0.32024">
        <ele>64</ele>
        <time>2021-06-03T09:33:44.000Z</time>
      </trkpt>
      <trkpt lat="44.97676" lon="-0.32015">
        <ele>63.4</ele>
        <time>2021-06-03T09:33:46.000Z</time>
      </trkpt>
      <trkpt lat="44.97683" lon="-0.32008">
        <ele>63.5</ele>
        <time>2021-06-03T09:33:48.000Z</time>
      </trkpt>
      <trkpt lat="44.9769" lon="-0.32002">
        <ele>63.4</ele>
        <time>2021-06-03T09:33:50.000Z</time>
      </trkpt>
      <trkpt lat="44.97697" lon="-0.31995">
        <ele>63.5</ele>
        <time>2021-06-03T09:33:52.000Z</time>
      </trkpt>
      <trkpt lat="44.97703" lon="-0.31989">
        <ele>63.8</ele>
        <time>2021-06-03T09:33:54.000Z</time>
      </trkpt>
      <trkpt lat="44.97707" lon="-0.31983">
        <ele>64</ele>
        <time>2021-06-03T09:33:56.000Z</time>
      </trkpt>
      <trkpt lat="44.9771" lon="-0.31975">
        <ele>64.3</ele>
        <time>2021-06-03T09:33:58.000Z</time>
      </trkpt>
      <trkpt lat="44.97712" lon="-0.31965">
        <ele>64.2</ele>
        <time>2021-06-03T09:34:00.000Z</time>
      </trkpt>
      <trkpt lat="44.97712" lon="-0.31954">
        <ele>64.4</ele>
        <time>2021-06-03T09:34:02.000Z</time>
      </trkpt>
      <trkpt lat="44.97712" lon="-0.31941">
        <ele>64.5</ele>
        <time>2021-06-03T09:34:04.000Z</time>
      </trkpt>
      <trkpt lat="44.97711" lon="-0.31935">
        <ele>64.5</ele>
        <time>2021-06-03T09:34:05.000Z</time>
      </trkpt>
      <trkpt lat="44.97711" lon="-0.31928">
        <ele>64.4</ele>
        <time>2021-06-03T09:34:06.000Z</time>
      </trkpt>
      <trkpt lat="44.97711" lon="-0.31921">
        <ele>64.3</ele>
        <time>2021-06-03T09:34:07.000Z</time>
      </trkpt>
      <trkpt lat="44.97711" lon="-0.31914">
        <ele>64.2</ele>
        <time>2021-06-03T09:34:08.000Z</time>
      </trkpt>
      <trkpt lat="44.97712" lon="-0.31908">
        <ele>64.1</ele>
        <time>2021-06-03T09:34:09.000Z</time>
      </trkpt>
      <trkpt lat="44.97713" lon="-0.31901">
        <ele>63.9</ele>
        <time>2021-06-03T09:34:10.000Z</time>
      </trkpt>
      <trkpt lat="44.97715" lon="-0.31895">
        <ele>63.7</ele>
        <time>2021-06-03T09:34:11.000Z</time>
      </trkpt>
      <trkpt lat="44.97717" lon="-0.31889">
        <ele>63.5</ele>
        <time>2021-06-03T09:34:12.000Z</time>
      </trkpt>
      <trkpt lat="44.9772" lon="-0.31884">
        <ele>63.4</ele>
        <time>2021-06-03T09:34:13.000Z</time>
      </trkpt>
      <trkpt lat="44.97723" lon="-0.31879">
        <ele>63.3</ele>
        <time>2021-06-03T09:34:14.000Z</time>
      </trkpt>
      <trkpt lat="44.97727" lon="-0.31874">
        <ele>63.3</ele>
        <time>2021-06-03T09:34:15.000Z</time>
      </trkpt>
      <trkpt lat="44.97733" lon="-0.31865">
        <ele>63.4</ele>
        <time>2021-06-03T09:34:17.000Z</time>
      </trkpt>
      <trkpt lat="44.9774" lon="-0.31857">
        <ele>63.8</ele>
        <time>2021-06-03T09:34:19.000Z</time>
      </trkpt>
      <trkpt lat="44.97743" lon="-0.31853">
        <ele>63.9</ele>
        <time>2021-06-03T09:34:20.000Z</time>
      </trkpt>
      <trkpt lat="44.97747" lon="-0.3185">
        <ele>63.3</ele>
        <time>2021-06-03T09:34:21.000Z</time>
      </trkpt>
      <trkpt lat="44.97754" lon="-0.31843">
        <ele>63</ele>
        <time>2021-06-03T09:34:23.000Z</time>
      </trkpt>
      <trkpt lat="44.97758" lon="-0.3184">
        <ele>63</ele>
        <time>2021-06-03T09:34:24.000Z</time>
      </trkpt>
      <trkpt lat="44.97769" lon="-0.31831">
        <ele>62.6</ele>
        <time>2021-06-03T09:34:27.000Z</time>
      </trkpt>
      <trkpt lat="44.97775" lon="-0.31826">
        <ele>63</ele>
        <time>2021-06-03T09:34:29.000Z</time>
      </trkpt>
      <trkpt lat="44.97782" lon="-0.31821">
        <ele>63.2</ele>
        <time>2021-06-03T09:34:31.000Z</time>
      </trkpt>
      <trkpt lat="44.97789" lon="-0.31815">
        <ele>63.7</ele>
        <time>2021-06-03T09:34:33.000Z</time>
      </trkpt>
      <trkpt lat="44.97795" lon="-0.3181">
        <ele>64</ele>
        <time>2021-06-03T09:34:35.000Z</time>
      </trkpt>
      <trkpt lat="44.97801" lon="-0.31803">
        <ele>64.4</ele>
        <time>2021-06-03T09:34:37.000Z</time>
      </trkpt>
      <trkpt lat="44.97806" lon="-0.31796">
        <ele>64.6</ele>
        <time>2021-06-03T09:34:39.000Z</time>
      </trkpt>
      <trkpt lat="44.97811" lon="-0.31787">
        <ele>64.2</ele>
        <time>2021-06-03T09:34:41.000Z</time>
      </trkpt>
      <trkpt lat="44.97815" lon="-0.31778">
        <ele>64.9</ele>
        <time>2021-06-03T09:34:43.000Z</time>
      </trkpt>
      <trkpt lat="44.97818" lon="-0.3177">
        <ele>64.8</ele>
        <time>2021-06-03T09:34:45.000Z</time>
      </trkpt>
      <trkpt lat="44.97822" lon="-0.31762">
        <ele>65.1</ele>
        <time>2021-06-03T09:34:47.000Z</time>
      </trkpt>
      <trkpt lat="44.97827" lon="-0.31754">
        <ele>65.1</ele>
        <time>2021-06-03T09:34:49.000Z</time>
      </trkpt>
      <trkpt lat="44.97833" lon="-0.31746">
        <ele>64.9</ele>
        <time>2021-06-03T09:34:51.000Z</time>
      </trkpt>
      <trkpt lat="44.9784" lon="-0.3174">
        <ele>65.1</ele>
        <time>2021-06-03T09:34:53.000Z</time>
      </trkpt>
      <trkpt lat="44.97846" lon="-0.31734">
        <ele>65</ele>
        <time>2021-06-03T09:34:55.000Z</time>
      </trkpt>
      <trkpt lat="44.97854" lon="-0.3173">
        <ele>64.9</ele>
        <time>2021-06-03T09:34:57.000Z</time>
      </trkpt>
      <trkpt lat="44.97861" lon="-0.31726">
        <ele>64.9</ele>
        <time>2021-06-03T09:34:59.000Z</time>
      </trkpt>
      <trkpt lat="44.97869" lon="-0.31723">
        <ele>64.8</ele>
        <time>2021-06-03T09:35:01.000Z</time>
      </trkpt>
      <trkpt lat="44.97877" lon="-0.3172">
        <ele>64.9</ele>
        <time>2021-06-03T09:35:03.000Z</time>
      </trkpt>
      <trkpt lat="44.97884" lon="-0.31718">
        <ele>65</ele>
        <time>2021-06-03T09:35:05.000Z</time>
      </trkpt>
      <trkpt lat="44.97893" lon="-0.31717">
        <ele>64.6</ele>
        <time>2021-06-03T09:35:07.000Z</time>
      </trkpt>
      <trkpt lat="44.97901" lon="-0.31716">
        <ele>64.1</ele>
        <time>2021-06-03T09:35:09.000Z</time>
      </trkpt>
      <trkpt lat="44.9791" lon="-0.31715">
        <ele>64.1</ele>
        <time>2021-06-03T09:35:11.000Z</time>
      </trkpt>
      <trkpt lat="44.97918" lon="-0.31714">
        <ele>64.2</ele>
        <time>2021-06-03T09:35:13.000Z</time>
      </trkpt>
      <trkpt lat="44.97927" lon="-0.31712">
        <ele>64.2</ele>
        <time>2021-06-03T09:35:15.000Z</time>
      </trkpt>
      <trkpt lat="44.97935" lon="-0.3171">
        <ele>64.1</ele>
        <time>2021-06-03T09:35:17.000Z</time>
      </trkpt>
      <trkpt lat="44.9794" lon="-0.31709">
        <ele>64.4</ele>
        <time>2021-06-03T09:35:18.000Z</time>
      </trkpt>
      <trkpt lat="44.97944" lon="-0.31708">
        <ele>64.5</ele>
        <time>2021-06-03T09:35:19.000Z</time>
      </trkpt>
      <trkpt lat="44.97953" lon="-0.31705">
        <ele>64.3</ele>
        <time>2021-06-03T09:35:21.000Z</time>
      </trkpt>
      <trkpt lat="44.97957" lon="-0.31703">
        <ele>64.2</ele>
        <time>2021-06-03T09:35:22.000Z</time>
      </trkpt>
      <trkpt lat="44.97962" lon="-0.31701">
        <ele>64.2</ele>
        <time>2021-06-03T09:35:23.000Z</time>
      </trkpt>
      <trkpt lat="44.97966" lon="-0.31698">
        <ele>64.1</ele>
        <time>2021-06-03T09:35:24.000Z</time>
      </trkpt>
      <trkpt lat="44.9797" lon="-0.31696">
        <ele>64</ele>
        <time>2021-06-03T09:35:25.000Z</time>
      </trkpt>
      <trkpt lat="44.97975" lon="-0.31693">
        <ele>63.9</ele>
        <time>2021-06-03T09:35:26.000Z</time>
      </trkpt>
      <trkpt lat="44.97979" lon="-0.3169">
        <ele>63.8</ele>
        <time>2021-06-03T09:35:27.000Z</time>
      </trkpt>
      <trkpt lat="44.97983" lon="-0.31687">
        <ele>63.8</ele>
        <time>2021-06-03T09:35:28.000Z</time>
      </trkpt>
      <trkpt lat="44.97987" lon="-0.31684">
        <ele>63.8</ele>
        <time>2021-06-03T09:35:29.000Z</time>
      </trkpt>
      <trkpt lat="44.97991" lon="-0.31682">
        <ele>63.7</ele>
        <time>2021-06-03T09:35:30.000Z</time>
      </trkpt>
      <trkpt lat="44.97995" lon="-0.31679">
        <ele>63.7</ele>
        <time>2021-06-03T09:35:31.000Z</time>
      </trkpt>
      <trkpt lat="44.98" lon="-0.31676">
        <ele>63.7</ele>
        <time>2021-06-03T09:35:32.000Z</time>
      </trkpt>
      <trkpt lat="44.98004" lon="-0.31674">
        <ele>63.7</ele>
        <time>2021-06-03T09:35:33.000Z</time>
      </trkpt>
      <trkpt lat="44.98008" lon="-0.31671">
        <ele>63.6</ele>
        <time>2021-06-03T09:35:34.000Z</time>
      </trkpt>
      <trkpt lat="44.98016" lon="-0.31665">
        <ele>63.4</ele>
        <time>2021-06-03T09:35:36.000Z</time>
      </trkpt>
      <trkpt lat="44.98024" lon="-0.3166">
        <ele>63.1</ele>
        <time>2021-06-03T09:35:38.000Z</time>
      </trkpt>
      <trkpt lat="44.98028" lon="-0.31657">
        <ele>63.3</ele>
        <time>2021-06-03T09:35:39.000Z</time>
      </trkpt>
      <trkpt lat="44.98032" lon="-0.31654">
        <ele>63.4</ele>
        <time>2021-06-03T09:35:40.000Z</time>
      </trkpt>
      <trkpt lat="44.98036" lon="-0.31651">
        <ele>63.4</ele>
        <time>2021-06-03T09:35:41.000Z</time>
      </trkpt>
      <trkpt lat="44.9804" lon="-0.31648">
        <ele>63.5</ele>
        <time>2021-06-03T09:35:42.000Z</time>
      </trkpt>
      <trkpt lat="44.98044" lon="-0.31646">
        <ele>63.5</ele>
        <time>2021-06-03T09:35:43.000Z</time>
      </trkpt>
      <trkpt lat="44.98048" lon="-0.31642">
        <ele>63.1</ele>
        <time>2021-06-03T09:35:44.000Z</time>
      </trkpt>
      <trkpt lat="44.98053" lon="-0.31639">
        <ele>62.8</ele>
        <time>2021-06-03T09:35:45.000Z</time>
      </trkpt>
      <trkpt lat="44.98057" lon="-0.31636">
        <ele>62.8</ele>
        <time>2021-06-03T09:35:46.000Z</time>
      </trkpt>
      <trkpt lat="44.98062" lon="-0.31633">
        <ele>62.8</ele>
        <time>2021-06-03T09:35:47.000Z</time>
      </trkpt>
      <trkpt lat="44.98066" lon="-0.3163">
        <ele>62.3</ele>
        <time>2021-06-03T09:35:48.000Z</time>
      </trkpt>
      <trkpt lat="44.98071" lon="-0.31626">
        <ele>61.9</ele>
        <time>2021-06-03T09:35:49.000Z</time>
      </trkpt>
      <trkpt lat="44.98075" lon="-0.31623">
        <ele>61.6</ele>
        <time>2021-06-03T09:35:50.000Z</time>
      </trkpt>
      <trkpt lat="44.9808" lon="-0.31619">
        <ele>61.6</ele>
        <time>2021-06-03T09:35:51.000Z</time>
      </trkpt>
      <trkpt lat="44.98084" lon="-0.31616">
        <ele>61.6</ele>
        <time>2021-06-03T09:35:52.000Z</time>
      </trkpt>
      <trkpt lat="44.98089" lon="-0.31613">
        <ele>61.6</ele>
        <time>2021-06-03T09:35:53.000Z</time>
      </trkpt>
      <trkpt lat="44.98094" lon="-0.31609">
        <ele>61.6</ele>
        <time>2021-06-03T09:35:54.000Z</time>
      </trkpt>
      <trkpt lat="44.98098" lon="-0.31606">
        <ele>61.6</ele>
        <time>2021-06-03T09:35:55.000Z</time>
      </trkpt>
      <trkpt lat="44.98103" lon="-0.31602">
        <ele>61.5</ele>
        <time>2021-06-03T09:35:56.000Z</time>
      </trkpt>
      <trkpt lat="44.98107" lon="-0.31599">
        <ele>61.4</ele>
        <time>2021-06-03T09:35:57.000Z</time>
      </trkpt>
      <trkpt lat="44.98112" lon="-0.31595">
        <ele>61.2</ele>
        <time>2021-06-03T09:35:58.000Z</time>
      </trkpt>
      <trkpt lat="44.98116" lon="-0.31592">
        <ele>61.1</ele>
        <time>2021-06-03T09:35:59.000Z</time>
      </trkpt>
      <trkpt lat="44.98121" lon="-0.31588">
        <ele>60.9</ele>
        <time>2021-06-03T09:36:00.000Z</time>
      </trkpt>
      <trkpt lat="44.98125" lon="-0.31585">
        <ele>60.8</ele>
        <time>2021-06-03T09:36:01.000Z</time>
      </trkpt>
      <trkpt lat="44.9813" lon="-0.31582">
        <ele>60.7</ele>
        <time>2021-06-03T09:36:02.000Z</time>
      </trkpt>
      <trkpt lat="44.98134" lon="-0.31578">
        <ele>60.6</ele>
        <time>2021-06-03T09:36:03.000Z</time>
      </trkpt>
      <trkpt lat="44.98138" lon="-0.31575">
        <ele>60.5</ele>
        <time>2021-06-03T09:36:04.000Z</time>
      </trkpt>
      <trkpt lat="44.98146" lon="-0.3157">
        <ele>60.6</ele>
        <time>2021-06-03T09:36:06.000Z</time>
      </trkpt>
      <trkpt lat="44.98154" lon="-0.31565">
        <ele>60.6</ele>
        <time>2021-06-03T09:36:08.000Z</time>
      </trkpt>
      <trkpt lat="44.98162" lon="-0.31561">
        <ele>60.1</ele>
        <time>2021-06-03T09:36:10.000Z</time>
      </trkpt>
      <trkpt lat="44.9817" lon="-0.31558">
        <ele>60.1</ele>
        <time>2021-06-03T09:36:12.000Z</time>
      </trkpt>
      <trkpt lat="44.98179" lon="-0.31555">
        <ele>60.5</ele>
        <time>2021-06-03T09:36:14.000Z</time>
      </trkpt>
      <trkpt lat="44.98187" lon="-0.31553">
        <ele>60.2</ele>
        <time>2021-06-03T09:36:16.000Z</time>
      </trkpt>
      <trkpt lat="44.98195" lon="-0.31551">
        <ele>60.1</ele>
        <time>2021-06-03T09:36:18.000Z</time>
      </trkpt>
      <trkpt lat="44.98202" lon="-0.3155">
        <ele>60</ele>
        <time>2021-06-03T09:36:20.000Z</time>
      </trkpt>
      <trkpt lat="44.98209" lon="-0.31549">
        <ele>59.9</ele>
        <time>2021-06-03T09:36:22.000Z</time>
      </trkpt>
      <trkpt lat="44.98216" lon="-0.31547">
        <ele>59.9</ele>
        <time>2021-06-03T09:36:24.000Z</time>
      </trkpt>
      <trkpt lat="44.98224" lon="-0.31546">
        <ele>59.9</ele>
        <time>2021-06-03T09:36:26.000Z</time>
      </trkpt>
      <trkpt lat="44.98227" lon="-0.31545">
        <ele>59.7</ele>
        <time>2021-06-03T09:36:27.000Z</time>
      </trkpt>
      <trkpt lat="44.98238" lon="-0.31544">
        <ele>60</ele>
        <time>2021-06-03T09:36:30.000Z</time>
      </trkpt>
      <trkpt lat="44.98245" lon="-0.31543">
        <ele>59.6</ele>
        <time>2021-06-03T09:36:32.000Z</time>
      </trkpt>
      <trkpt lat="44.98252" lon="-0.31543">
        <ele>59.8</ele>
        <time>2021-06-03T09:36:34.000Z</time>
      </trkpt>
      <trkpt lat="44.98259" lon="-0.31541">
        <ele>59.8</ele>
        <time>2021-06-03T09:36:36.000Z</time>
      </trkpt>
      <trkpt lat="44.98266" lon="-0.31538">
        <ele>60.2</ele>
        <time>2021-06-03T09:36:38.000Z</time>
      </trkpt>
      <trkpt lat="44.98274" lon="-0.31536">
        <ele>60.7</ele>
        <time>2021-06-03T09:36:40.000Z</time>
      </trkpt>
      <trkpt lat="44.98282" lon="-0.31534">
        <ele>60</ele>
        <time>2021-06-03T09:36:42.000Z</time>
      </trkpt>
      <trkpt lat="44.9829" lon="-0.31532">
        <ele>59.9</ele>
        <time>2021-06-03T09:36:44.000Z</time>
      </trkpt>
      <trkpt lat="44.98298" lon="-0.31526">
        <ele>59.7</ele>
        <time>2021-06-03T09:36:46.000Z</time>
      </trkpt>
      <trkpt lat="44.98303" lon="-0.31516">
        <ele>59.8</ele>
        <time>2021-06-03T09:36:48.000Z</time>
      </trkpt>
      <trkpt lat="44.98305" lon="-0.31504">
        <ele>59.7</ele>
        <time>2021-06-03T09:36:50.000Z</time>
      </trkpt>
      <trkpt lat="44.98305" lon="-0.31491">
        <ele>59.4</ele>
        <time>2021-06-03T09:36:52.000Z</time>
      </trkpt>
      <trkpt lat="44.98304" lon="-0.31485">
        <ele>59.4</ele>
        <time>2021-06-03T09:36:53.000Z</time>
      </trkpt>
      <trkpt lat="44.98303" lon="-0.31479">
        <ele>59.3</ele>
        <time>2021-06-03T09:36:54.000Z</time>
      </trkpt>
      <trkpt lat="44.98303" lon="-0.31472">
        <ele>59.3</ele>
        <time>2021-06-03T09:36:55.000Z</time>
      </trkpt>
      <trkpt lat="44.98302" lon="-0.3146">
        <ele>59.1</ele>
        <time>2021-06-03T09:36:57.000Z</time>
      </trkpt>
      <trkpt lat="44.98301" lon="-0.31447">
        <ele>58.8</ele>
        <time>2021-06-03T09:36:59.000Z</time>
      </trkpt>
      <trkpt lat="44.98301" lon="-0.31435">
        <ele>59</ele>
        <time>2021-06-03T09:37:01.000Z</time>
      </trkpt>
      <trkpt lat="44.98301" lon="-0.31422">
        <ele>59.2</ele>
        <time>2021-06-03T09:37:03.000Z</time>
      </trkpt>
      <trkpt lat="44.98302" lon="-0.3141">
        <ele>59.4</ele>
        <time>2021-06-03T09:37:05.000Z</time>
      </trkpt>
      <trkpt lat="44.98303" lon="-0.31403">
        <ele>59.5</ele>
        <time>2021-06-03T09:37:06.000Z</time>
      </trkpt>
      <trkpt lat="44.98305" lon="-0.31397">
        <ele>59.4</ele>
        <time>2021-06-03T09:37:07.000Z</time>
      </trkpt>
      <trkpt lat="44.98306" lon="-0.31391">
        <ele>59.4</ele>
        <time>2021-06-03T09:37:08.000Z</time>
      </trkpt>
      <trkpt lat="44.98308" lon="-0.31384">
        <ele>59.4</ele>
        <time>2021-06-03T09:37:09.000Z</time>
      </trkpt>
      <trkpt lat="44.9831" lon="-0.31378">
        <ele>59.4</ele>
        <time>2021-06-03T09:37:10.000Z</time>
      </trkpt>
      <trkpt lat="44.98312" lon="-0.31371">
        <ele>59.4</ele>
        <time>2021-06-03T09:37:11.000Z</time>
      </trkpt>
      <trkpt lat="44.98314" lon="-0.31364">
        <ele>59.2</ele>
        <time>2021-06-03T09:37:12.000Z</time>
      </trkpt>
      <trkpt lat="44.98316" lon="-0.31357">
        <ele>59.1</ele>
        <time>2021-06-03T09:37:13.000Z</time>
      </trkpt>
      <trkpt lat="44.98318" lon="-0.3135">
        <ele>58.7</ele>
        <time>2021-06-03T09:37:14.000Z</time>
      </trkpt>
      <trkpt lat="44.98321" lon="-0.31343">
        <ele>58.5</ele>
        <time>2021-06-03T09:37:15.000Z</time>
      </trkpt>
      <trkpt lat="44.98323" lon="-0.31335">
        <ele>58.1</ele>
        <time>2021-06-03T09:37:16.000Z</time>
      </trkpt>
      <trkpt lat="44.98326" lon="-0.31328">
        <ele>57.8</ele>
        <time>2021-06-03T09:37:17.000Z</time>
      </trkpt>
      <trkpt lat="44.98329" lon="-0.3132">
        <ele>57.6</ele>
        <time>2021-06-03T09:37:18.000Z</time>
      </trkpt>
      <trkpt lat="44.98331" lon="-0.31312">
        <ele>57.4</ele>
        <time>2021-06-03T09:37:19.000Z</time>
      </trkpt>
      <trkpt lat="44.98334" lon="-0.31303">
        <ele>57.2</ele>
        <time>2021-06-03T09:37:20.000Z</time>
      </trkpt>
      <trkpt lat="44.98336" lon="-0.31295">
        <ele>57</ele>
        <time>2021-06-03T09:37:21.000Z</time>
      </trkpt>
      <trkpt lat="44.98338" lon="-0.31286">
        <ele>56.9</ele>
        <time>2021-06-03T09:37:22.000Z</time>
      </trkpt>
      <trkpt lat="44.9834" lon="-0.31277">
        <ele>56.5</ele>
        <time>2021-06-03T09:37:23.000Z</time>
      </trkpt>
      <trkpt lat="44.98342" lon="-0.31268">
        <ele>56.3</ele>
        <time>2021-06-03T09:37:24.000Z</time>
      </trkpt>
      <trkpt lat="44.98343" lon="-0.31259">
        <ele>56.1</ele>
        <time>2021-06-03T09:37:25.000Z</time>
      </trkpt>
      <trkpt lat="44.98345" lon="-0.3125">
        <ele>56.1</ele>
        <time>2021-06-03T09:37:26.000Z</time>
      </trkpt>
      <trkpt lat="44.98346" lon="-0.31241">
        <ele>56</ele>
        <time>2021-06-03T09:37:27.000Z</time>
      </trkpt>
      <trkpt lat="44.98347" lon="-0.31232">
        <ele>56.1</ele>
        <time>2021-06-03T09:37:28.000Z</time>
      </trkpt>
      <trkpt lat="44.98348" lon="-0.31224">
        <ele>56.1</ele>
        <time>2021-06-03T09:37:29.000Z</time>
      </trkpt>
      <trkpt lat="44.98348" lon="-0.31215">
        <ele>56.1</ele>
        <time>2021-06-03T09:37:30.000Z</time>
      </trkpt>
      <trkpt lat="44.98349" lon="-0.31206">
        <ele>56.1</ele>
        <time>2021-06-03T09:37:31.000Z</time>
      </trkpt>
      <trkpt lat="44.9835" lon="-0.31198">
        <ele>56.1</ele>
        <time>2021-06-03T09:37:32.000Z</time>
      </trkpt>
      <trkpt lat="44.98351" lon="-0.3119">
        <ele>55.6</ele>
        <time>2021-06-03T09:37:33.000Z</time>
      </trkpt>
      <trkpt lat="44.98351" lon="-0.31181">
        <ele>55.1</ele>
        <time>2021-06-03T09:37:34.000Z</time>
      </trkpt>
      <trkpt lat="44.98352" lon="-0.31174">
        <ele>55.1</ele>
        <time>2021-06-03T09:37:35.000Z</time>
      </trkpt>
      <trkpt lat="44.98353" lon="-0.31166">
        <ele>55.1</ele>
        <time>2021-06-03T09:37:36.000Z</time>
      </trkpt>
      <trkpt lat="44.98354" lon="-0.31158">
        <ele>55.1</ele>
        <time>2021-06-03T09:37:37.000Z</time>
      </trkpt>
      <trkpt lat="44.98354" lon="-0.3115">
        <ele>55</ele>
        <time>2021-06-03T09:37:38.000Z</time>
      </trkpt>
      <trkpt lat="44.98355" lon="-0.31143">
        <ele>55</ele>
        <time>2021-06-03T09:37:39.000Z</time>
      </trkpt>
      <trkpt lat="44.98356" lon="-0.31136">
        <ele>55.1</ele>
        <time>2021-06-03T09:37:40.000Z</time>
      </trkpt>
      <trkpt lat="44.98357" lon="-0.31128">
        <ele>55.2</ele>
        <time>2021-06-03T09:37:41.000Z</time>
      </trkpt>
      <trkpt lat="44.98357" lon="-0.31121">
        <ele>54.7</ele>
        <time>2021-06-03T09:37:42.000Z</time>
      </trkpt>
      <trkpt lat="44.98358" lon="-0.31114">
        <ele>54.3</ele>
        <time>2021-06-03T09:37:43.000Z</time>
      </trkpt>
      <trkpt lat="44.98359" lon="-0.31107">
        <ele>54</ele>
        <time>2021-06-03T09:37:44.000Z</time>
      </trkpt>
      <trkpt lat="44.98359" lon="-0.31099">
        <ele>54.1</ele>
        <time>2021-06-03T09:37:45.000Z</time>
      </trkpt>
      <trkpt lat="44.9836" lon="-0.31092">
        <ele>54.2</ele>
        <time>2021-06-03T09:37:46.000Z</time>
      </trkpt>
      <trkpt lat="44.98361" lon="-0.31085">
        <ele>54.1</ele>
        <time>2021-06-03T09:37:47.000Z</time>
      </trkpt>
      <trkpt lat="44.98361" lon="-0.31078">
        <ele>54.1</ele>
        <time>2021-06-03T09:37:48.000Z</time>
      </trkpt>
      <trkpt lat="44.98362" lon="-0.3107">
        <ele>54.1</ele>
        <time>2021-06-03T09:37:49.000Z</time>
      </trkpt>
      <trkpt lat="44.98362" lon="-0.31063">
        <ele>54</ele>
        <time>2021-06-03T09:37:50.000Z</time>
      </trkpt>
      <trkpt lat="44.98363" lon="-0.31055">
        <ele>53.9</ele>
        <time>2021-06-03T09:37:51.000Z</time>
      </trkpt>
      <trkpt lat="44.98364" lon="-0.31047">
        <ele>54</ele>
        <time>2021-06-03T09:37:52.000Z</time>
      </trkpt>
      <trkpt lat="44.98364" lon="-0.3104">
        <ele>54</ele>
        <time>2021-06-03T09:37:53.000Z</time>
      </trkpt>
      <trkpt lat="44.98364" lon="-0.31032">
        <ele>53.7</ele>
        <time>2021-06-03T09:37:54.000Z</time>
      </trkpt>
      <trkpt lat="44.98364" lon="-0.31025">
        <ele>53.5</ele>
        <time>2021-06-03T09:37:55.000Z</time>
      </trkpt>
      <trkpt lat="44.98364" lon="-0.31018">
        <ele>53.3</ele>
        <time>2021-06-03T09:37:56.000Z</time>
      </trkpt>
      <trkpt lat="44.98364" lon="-0.31011">
        <ele>53.2</ele>
        <time>2021-06-03T09:37:57.000Z</time>
      </trkpt>
      <trkpt lat="44.98363" lon="-0.31004">
        <ele>53.2</ele>
        <time>2021-06-03T09:37:58.000Z</time>
      </trkpt>
      <trkpt lat="44.98363" lon="-0.30997">
        <ele>53.1</ele>
        <time>2021-06-03T09:37:59.000Z</time>
      </trkpt>
      <trkpt lat="44.98363" lon="-0.3099">
        <ele>53.1</ele>
        <time>2021-06-03T09:38:00.000Z</time>
      </trkpt>
      <trkpt lat="44.98362" lon="-0.30983">
        <ele>53.3</ele>
        <time>2021-06-03T09:38:01.000Z</time>
      </trkpt>
      <trkpt lat="44.98362" lon="-0.30976">
        <ele>53.5</ele>
        <time>2021-06-03T09:38:02.000Z</time>
      </trkpt>
      <trkpt lat="44.98362" lon="-0.30969">
        <ele>53.6</ele>
        <time>2021-06-03T09:38:03.000Z</time>
      </trkpt>
      <trkpt lat="44.98361" lon="-0.30962">
        <ele>53.6</ele>
        <time>2021-06-03T09:38:04.000Z</time>
      </trkpt>
      <trkpt lat="44.98361" lon="-0.30955">
        <ele>53.5</ele>
        <time>2021-06-03T09:38:05.000Z</time>
      </trkpt>
      <trkpt lat="44.98361" lon="-0.30948">
        <ele>53.2</ele>
        <time>2021-06-03T09:38:06.000Z</time>
      </trkpt>
      <trkpt lat="44.98361" lon="-0.30941">
        <ele>53</ele>
        <time>2021-06-03T09:38:07.000Z</time>
      </trkpt>
      <trkpt lat="44.98361" lon="-0.30934">
        <ele>52.9</ele>
        <time>2021-06-03T09:38:08.000Z</time>
      </trkpt>
      <trkpt lat="44.98361" lon="-0.30927">
        <ele>52.9</ele>
        <time>2021-06-03T09:38:09.000Z</time>
      </trkpt>
      <trkpt lat="44.9836" lon="-0.3092">
        <ele>52.9</ele>
        <time>2021-06-03T09:38:10.000Z</time>
      </trkpt>
      <trkpt lat="44.9836" lon="-0.30912">
        <ele>52.7</ele>
        <time>2021-06-03T09:38:11.000Z</time>
      </trkpt>
      <trkpt lat="44.9836" lon="-0.30905">
        <ele>52.5</ele>
        <time>2021-06-03T09:38:12.000Z</time>
      </trkpt>
      <trkpt lat="44.9836" lon="-0.30897">
        <ele>52.5</ele>
        <time>2021-06-03T09:38:13.000Z</time>
      </trkpt>
      <trkpt lat="44.98361" lon="-0.30889">
        <ele>52.4</ele>
        <time>2021-06-03T09:38:14.000Z</time>
      </trkpt>
      <trkpt lat="44.9836" lon="-0.30882">
        <ele>52.4</ele>
        <time>2021-06-03T09:38:15.000Z</time>
      </trkpt>
      <trkpt lat="44.9836" lon="-0.30874">
        <ele>52.2</ele>
        <time>2021-06-03T09:38:16.000Z</time>
      </trkpt>
      <trkpt lat="44.9836" lon="-0.30867">
        <ele>52.1</ele>
        <time>2021-06-03T09:38:17.000Z</time>
      </trkpt>
      <trkpt lat="44.98359" lon="-0.30859">
        <ele>52.1</ele>
        <time>2021-06-03T09:38:18.000Z</time>
      </trkpt>
      <trkpt lat="44.98359" lon="-0.30852">
        <ele>52</ele>
        <time>2021-06-03T09:38:19.000Z</time>
      </trkpt>
      <trkpt lat="44.98359" lon="-0.30845">
        <ele>52</ele>
        <time>2021-06-03T09:38:20.000Z</time>
      </trkpt>
      <trkpt lat="44.98358" lon="-0.30838">
        <ele>52</ele>
        <time>2021-06-03T09:38:21.000Z</time>
      </trkpt>
      <trkpt lat="44.98357" lon="-0.30831">
        <ele>52</ele>
        <time>2021-06-03T09:38:22.000Z</time>
      </trkpt>
      <trkpt lat="44.98357" lon="-0.30824">
        <ele>51.9</ele>
        <time>2021-06-03T09:38:23.000Z</time>
      </trkpt>
      <trkpt lat="44.98356" lon="-0.30817">
        <ele>51.9</ele>
        <time>2021-06-03T09:38:24.000Z</time>
      </trkpt>
      <trkpt lat="44.98355" lon="-0.30811">
        <ele>51.7</ele>
        <time>2021-06-03T09:38:25.000Z</time>
      </trkpt>
      <trkpt lat="44.98354" lon="-0.30804">
        <ele>51.6</ele>
        <time>2021-06-03T09:38:26.000Z</time>
      </trkpt>
      <trkpt lat="44.98353" lon="-0.30798">
        <ele>51.4</ele>
        <time>2021-06-03T09:38:27.000Z</time>
      </trkpt>
      <trkpt lat="44.98353" lon="-0.30791">
        <ele>51.3</ele>
        <time>2021-06-03T09:38:28.000Z</time>
      </trkpt>
      <trkpt lat="44.98352" lon="-0.30785">
        <ele>51.2</ele>
        <time>2021-06-03T09:38:29.000Z</time>
      </trkpt>
      <trkpt lat="44.98352" lon="-0.30779">
        <ele>51.3</ele>
        <time>2021-06-03T09:38:30.000Z</time>
      </trkpt>
      <trkpt lat="44.98351" lon="-0.30772">
        <ele>51.4</ele>
        <time>2021-06-03T09:38:31.000Z</time>
      </trkpt>
      <trkpt lat="44.9835" lon="-0.30765">
        <ele>51.6</ele>
        <time>2021-06-03T09:38:32.000Z</time>
      </trkpt>
      <trkpt lat="44.9835" lon="-0.30758">
        <ele>51.7</ele>
        <time>2021-06-03T09:38:33.000Z</time>
      </trkpt>
      <trkpt lat="44.98349" lon="-0.30752">
        <ele>51.8</ele>
        <time>2021-06-03T09:38:34.000Z</time>
      </trkpt>
      <trkpt lat="44.98348" lon="-0.30745">
        <ele>51.9</ele>
        <time>2021-06-03T09:38:35.000Z</time>
      </trkpt>
      <trkpt lat="44.98348" lon="-0.30739">
        <ele>51.9</ele>
        <time>2021-06-03T09:38:36.000Z</time>
      </trkpt>
      <trkpt lat="44.98347" lon="-0.30732">
        <ele>51.8</ele>
        <time>2021-06-03T09:38:37.000Z</time>
      </trkpt>
      <trkpt lat="44.98347" lon="-0.30725">
        <ele>51.7</ele>
        <time>2021-06-03T09:38:38.000Z</time>
      </trkpt>
      <trkpt lat="44.98346" lon="-0.30717">
        <ele>51.4</ele>
        <time>2021-06-03T09:38:39.000Z</time>
      </trkpt>
      <trkpt lat="44.98345" lon="-0.3071">
        <ele>51.1</ele>
        <time>2021-06-03T09:38:40.000Z</time>
      </trkpt>
      <trkpt lat="44.98345" lon="-0.30701">
        <ele>51</ele>
        <time>2021-06-03T09:38:41.000Z</time>
      </trkpt>
      <trkpt lat="44.98344" lon="-0.30693">
        <ele>50.8</ele>
        <time>2021-06-03T09:38:42.000Z</time>
      </trkpt>
      <trkpt lat="44.98343" lon="-0.30685">
        <ele>50.6</ele>
        <time>2021-06-03T09:38:43.000Z</time>
      </trkpt>
      <trkpt lat="44.98343" lon="-0.30677">
        <ele>50.4</ele>
        <time>2021-06-03T09:38:44.000Z</time>
      </trkpt>
      <trkpt lat="44.98342" lon="-0.30668">
        <ele>50.1</ele>
        <time>2021-06-03T09:38:45.000Z</time>
      </trkpt>
      <trkpt lat="44.98342" lon="-0.3066">
        <ele>49.9</ele>
        <time>2021-06-03T09:38:46.000Z</time>
      </trkpt>
      <trkpt lat="44.98341" lon="-0.30651">
        <ele>49.8</ele>
        <time>2021-06-03T09:38:47.000Z</time>
      </trkpt>
      <trkpt lat="44.9834" lon="-0.30642">
        <ele>49.7</ele>
        <time>2021-06-03T09:38:48.000Z</time>
      </trkpt>
      <trkpt lat="44.9834" lon="-0.30633">
        <ele>49.8</ele>
        <time>2021-06-03T09:38:49.000Z</time>
      </trkpt>
      <trkpt lat="44.98339" lon="-0.30624">
        <ele>49.8</ele>
        <time>2021-06-03T09:38:50.000Z</time>
      </trkpt>
      <trkpt lat="44.98339" lon="-0.30615">
        <ele>49.6</ele>
        <time>2021-06-03T09:38:51.000Z</time>
      </trkpt>
      <trkpt lat="44.98339" lon="-0.30606">
        <ele>49.4</ele>
        <time>2021-06-03T09:38:52.000Z</time>
      </trkpt>
      <trkpt lat="44.98339" lon="-0.30597">
        <ele>49.3</ele>
        <time>2021-06-03T09:38:53.000Z</time>
      </trkpt>
      <trkpt lat="44.98339" lon="-0.30589">
        <ele>49.2</ele>
        <time>2021-06-03T09:38:54.000Z</time>
      </trkpt>
      <trkpt lat="44.98339" lon="-0.30581">
        <ele>49.2</ele>
        <time>2021-06-03T09:38:55.000Z</time>
      </trkpt>
      <trkpt lat="44.98339" lon="-0.30572">
        <ele>49.2</ele>
        <time>2021-06-03T09:38:56.000Z</time>
      </trkpt>
      <trkpt lat="44.9834" lon="-0.30563">
        <ele>49.2</ele>
        <time>2021-06-03T09:38:57.000Z</time>
      </trkpt>
      <trkpt lat="44.9834" lon="-0.30554">
        <ele>49.4</ele>
        <time>2021-06-03T09:38:58.000Z</time>
      </trkpt>
      <trkpt lat="44.9834" lon="-0.30546">
        <ele>49.5</ele>
        <time>2021-06-03T09:38:59.000Z</time>
      </trkpt>
      <trkpt lat="44.98341" lon="-0.30537">
        <ele>49.6</ele>
        <time>2021-06-03T09:39:00.000Z</time>
      </trkpt>
      <trkpt lat="44.98341" lon="-0.30529">
        <ele>49.5</ele>
        <time>2021-06-03T09:39:01.000Z</time>
      </trkpt>
      <trkpt lat="44.98341" lon="-0.3052">
        <ele>49.5</ele>
        <time>2021-06-03T09:39:02.000Z</time>
      </trkpt>
      <trkpt lat="44.98341" lon="-0.30512">
        <ele>49.2</ele>
        <time>2021-06-03T09:39:03.000Z</time>
      </trkpt>
      <trkpt lat="44.98342" lon="-0.30504">
        <ele>49.1</ele>
        <time>2021-06-03T09:39:04.000Z</time>
      </trkpt>
      <trkpt lat="44.98342" lon="-0.30496">
        <ele>49</ele>
        <time>2021-06-03T09:39:05.000Z</time>
      </trkpt>
      <trkpt lat="44.98342" lon="-0.30487">
        <ele>48.9</ele>
        <time>2021-06-03T09:39:06.000Z</time>
      </trkpt>
      <trkpt lat="44.98342" lon="-0.30479">
        <ele>48.8</ele>
        <time>2021-06-03T09:39:07.000Z</time>
      </trkpt>
      <trkpt lat="44.98342" lon="-0.30471">
        <ele>49</ele>
        <time>2021-06-03T09:39:08.000Z</time>
      </trkpt>
      <trkpt lat="44.98342" lon="-0.30463">
        <ele>49.2</ele>
        <time>2021-06-03T09:39:09.000Z</time>
      </trkpt>
      <trkpt lat="44.98342" lon="-0.30455">
        <ele>49.1</ele>
        <time>2021-06-03T09:39:10.000Z</time>
      </trkpt>
      <trkpt lat="44.98342" lon="-0.30447">
        <ele>49</ele>
        <time>2021-06-03T09:39:11.000Z</time>
      </trkpt>
      <trkpt lat="44.98342" lon="-0.30439">
        <ele>49</ele>
        <time>2021-06-03T09:39:12.000Z</time>
      </trkpt>
      <trkpt lat="44.98341" lon="-0.30432">
        <ele>48.9</ele>
        <time>2021-06-03T09:39:13.000Z</time>
      </trkpt>
      <trkpt lat="44.98341" lon="-0.30424">
        <ele>48.9</ele>
        <time>2021-06-03T09:39:14.000Z</time>
      </trkpt>
      <trkpt lat="44.98341" lon="-0.30418">
        <ele>49</ele>
        <time>2021-06-03T09:39:15.000Z</time>
      </trkpt>
      <trkpt lat="44.9834" lon="-0.30411">
        <ele>49.1</ele>
        <time>2021-06-03T09:39:16.000Z</time>
      </trkpt>
      <trkpt lat="44.9834" lon="-0.30405">
        <ele>49.3</ele>
        <time>2021-06-03T09:39:17.000Z</time>
      </trkpt>
      <trkpt lat="44.98339" lon="-0.30398">
        <ele>49.4</ele>
        <time>2021-06-03T09:39:18.000Z</time>
      </trkpt>
      <trkpt lat="44.98338" lon="-0.30391">
        <ele>49.5</ele>
        <time>2021-06-03T09:39:19.000Z</time>
      </trkpt>
      <trkpt lat="44.98338" lon="-0.30384">
        <ele>49.2</ele>
        <time>2021-06-03T09:39:20.000Z</time>
      </trkpt>
      <trkpt lat="44.98337" lon="-0.30377">
        <ele>49</ele>
        <time>2021-06-03T09:39:21.000Z</time>
      </trkpt>
      <trkpt lat="44.98336" lon="-0.3037">
        <ele>48.9</ele>
        <time>2021-06-03T09:39:22.000Z</time>
      </trkpt>
      <trkpt lat="44.98336" lon="-0.30363">
        <ele>48.7</ele>
        <time>2021-06-03T09:39:23.000Z</time>
      </trkpt>
      <trkpt lat="44.98335" lon="-0.30355">
        <ele>49.1</ele>
        <time>2021-06-03T09:39:24.000Z</time>
      </trkpt>
      <trkpt lat="44.98335" lon="-0.30348">
        <ele>49.3</ele>
        <time>2021-06-03T09:39:25.000Z</time>
      </trkpt>
      <trkpt lat="44.98334" lon="-0.30341">
        <ele>49.5</ele>
        <time>2021-06-03T09:39:26.000Z</time>
      </trkpt>
      <trkpt lat="44.98334" lon="-0.30333">
        <ele>49.2</ele>
        <time>2021-06-03T09:39:27.000Z</time>
      </trkpt>
      <trkpt lat="44.98333" lon="-0.30326">
        <ele>49</ele>
        <time>2021-06-03T09:39:28.000Z</time>
      </trkpt>
      <trkpt lat="44.98333" lon="-0.30318">
        <ele>48.8</ele>
        <time>2021-06-03T09:39:29.000Z</time>
      </trkpt>
      <trkpt lat="44.98332" lon="-0.30311">
        <ele>48.5</ele>
        <time>2021-06-03T09:39:30.000Z</time>
      </trkpt>
      <trkpt lat="44.98332" lon="-0.30303">
        <ele>48.4</ele>
        <time>2021-06-03T09:39:31.000Z</time>
      </trkpt>
      <trkpt lat="44.98332" lon="-0.30295">
        <ele>48.5</ele>
        <time>2021-06-03T09:39:32.000Z</time>
      </trkpt>
      <trkpt lat="44.98331" lon="-0.30288">
        <ele>48.6</ele>
        <time>2021-06-03T09:39:33.000Z</time>
      </trkpt>
      <trkpt lat="44.98331" lon="-0.3028">
        <ele>48.3</ele>
        <time>2021-06-03T09:39:34.000Z</time>
      </trkpt>
      <trkpt lat="44.98331" lon="-0.30273">
        <ele>48.2</ele>
        <time>2021-06-03T09:39:35.000Z</time>
      </trkpt>
      <trkpt lat="44.98331" lon="-0.30265">
        <ele>48.3</ele>
        <time>2021-06-03T09:39:36.000Z</time>
      </trkpt>
      <trkpt lat="44.98332" lon="-0.30257">
        <ele>48.5</ele>
        <time>2021-06-03T09:39:37.000Z</time>
      </trkpt>
      <trkpt lat="44.98332" lon="-0.3025">
        <ele>48.6</ele>
        <time>2021-06-03T09:39:38.000Z</time>
      </trkpt>
      <trkpt lat="44.98332" lon="-0.30242">
        <ele>48.5</ele>
        <time>2021-06-03T09:39:39.000Z</time>
      </trkpt>
      <trkpt lat="44.98333" lon="-0.30234">
        <ele>48.4</ele>
        <time>2021-06-03T09:39:40.000Z</time>
      </trkpt>
      <trkpt lat="44.98334" lon="-0.30227">
        <ele>48.4</ele>
        <time>2021-06-03T09:39:41.000Z</time>
      </trkpt>
      <trkpt lat="44.98334" lon="-0.30219">
        <ele>48.4</ele>
        <time>2021-06-03T09:39:42.000Z</time>
      </trkpt>
      <trkpt lat="44.98335" lon="-0.30212">
        <ele>47.9</ele>
        <time>2021-06-03T09:39:43.000Z</time>
      </trkpt>
      <trkpt lat="44.98335" lon="-0.30205">
        <ele>47.5</ele>
        <time>2021-06-03T09:39:44.000Z</time>
      </trkpt>
      <trkpt lat="44.98336" lon="-0.30197">
        <ele>47.2</ele>
        <time>2021-06-03T09:39:45.000Z</time>
      </trkpt>
      <trkpt lat="44.98336" lon="-0.3019">
        <ele>47.2</ele>
        <time>2021-06-03T09:39:46.000Z</time>
      </trkpt>
      <trkpt lat="44.98337" lon="-0.30183">
        <ele>47.2</ele>
        <time>2021-06-03T09:39:47.000Z</time>
      </trkpt>
      <trkpt lat="44.98337" lon="-0.30175">
        <ele>47.1</ele>
        <time>2021-06-03T09:39:48.000Z</time>
      </trkpt>
      <trkpt lat="44.98338" lon="-0.30168">
        <ele>47.1</ele>
        <time>2021-06-03T09:39:49.000Z</time>
      </trkpt>
      <trkpt lat="44.98338" lon="-0.30161">
        <ele>47</ele>
        <time>2021-06-03T09:39:50.000Z</time>
      </trkpt>
      <trkpt lat="44.98338" lon="-0.30153">
        <ele>47.1</ele>
        <time>2021-06-03T09:39:51.000Z</time>
      </trkpt>
      <trkpt lat="44.98339" lon="-0.30146">
        <ele>47.1</ele>
        <time>2021-06-03T09:39:52.000Z</time>
      </trkpt>
      <trkpt lat="44.98339" lon="-0.30139">
        <ele>47.2</ele>
        <time>2021-06-03T09:39:53.000Z</time>
      </trkpt>
      <trkpt lat="44.98339" lon="-0.30132">
        <ele>47.3</ele>
        <time>2021-06-03T09:39:54.000Z</time>
      </trkpt>
      <trkpt lat="44.98339" lon="-0.30124">
        <ele>47.1</ele>
        <time>2021-06-03T09:39:55.000Z</time>
      </trkpt>
      <trkpt lat="44.98339" lon="-0.30117">
        <ele>46.9</ele>
        <time>2021-06-03T09:39:56.000Z</time>
      </trkpt>
      <trkpt lat="44.98339" lon="-0.3011">
        <ele>46.8</ele>
        <time>2021-06-03T09:39:57.000Z</time>
      </trkpt>
      <trkpt lat="44.98339" lon="-0.30103">
        <ele>47</ele>
        <time>2021-06-03T09:39:58.000Z</time>
      </trkpt>
      <trkpt lat="44.98339" lon="-0.30096">
        <ele>47.2</ele>
        <time>2021-06-03T09:39:59.000Z</time>
      </trkpt>
      <trkpt lat="44.98339" lon="-0.30089">
        <ele>47.3</ele>
        <time>2021-06-03T09:40:00.000Z</time>
      </trkpt>
      <trkpt lat="44.98339" lon="-0.30081">
        <ele>47.3</ele>
        <time>2021-06-03T09:40:01.000Z</time>
      </trkpt>
      <trkpt lat="44.98338" lon="-0.30074">
        <ele>47</ele>
        <time>2021-06-03T09:40:02.000Z</time>
      </trkpt>
      <trkpt lat="44.98338" lon="-0.30066">
        <ele>46.8</ele>
        <time>2021-06-03T09:40:03.000Z</time>
      </trkpt>
      <trkpt lat="44.98338" lon="-0.30058">
        <ele>46.7</ele>
        <time>2021-06-03T09:40:04.000Z</time>
      </trkpt>
      <trkpt lat="44.98338" lon="-0.30051">
        <ele>46.8</ele>
        <time>2021-06-03T09:40:05.000Z</time>
      </trkpt>
      <trkpt lat="44.98337" lon="-0.30043">
        <ele>46.9</ele>
        <time>2021-06-03T09:40:06.000Z</time>
      </trkpt>
      <trkpt lat="44.98337" lon="-0.30034">
        <ele>46.5</ele>
        <time>2021-06-03T09:40:07.000Z</time>
      </trkpt>
      <trkpt lat="44.98337" lon="-0.30026">
        <ele>46.2</ele>
        <time>2021-06-03T09:40:08.000Z</time>
      </trkpt>
      <trkpt lat="44.98338" lon="-0.30017">
        <ele>45.8</ele>
        <time>2021-06-03T09:40:09.000Z</time>
      </trkpt>
      <trkpt lat="44.98338" lon="-0.30008">
        <ele>45.5</ele>
        <time>2021-06-03T09:40:10.000Z</time>
      </trkpt>
      <trkpt lat="44.98339" lon="-0.29999">
        <ele>45.2</ele>
        <time>2021-06-03T09:40:11.000Z</time>
      </trkpt>
      <trkpt lat="44.98339" lon="-0.2999">
        <ele>45.3</ele>
        <time>2021-06-03T09:40:12.000Z</time>
      </trkpt>
      <trkpt lat="44.9834" lon="-0.29982">
        <ele>45.4</ele>
        <time>2021-06-03T09:40:13.000Z</time>
      </trkpt>
      <trkpt lat="44.9834" lon="-0.29973">
        <ele>45.1</ele>
        <time>2021-06-03T09:40:14.000Z</time>
      </trkpt>
      <trkpt lat="44.9834" lon="-0.29965">
        <ele>44.8</ele>
        <time>2021-06-03T09:40:15.000Z</time>
      </trkpt>
      <trkpt lat="44.98341" lon="-0.29957">
        <ele>44.6</ele>
        <time>2021-06-03T09:40:16.000Z</time>
      </trkpt>
      <trkpt lat="44.98343" lon="-0.29949">
        <ele>44.4</ele>
        <time>2021-06-03T09:40:17.000Z</time>
      </trkpt>
      <trkpt lat="44.98344" lon="-0.29942">
        <ele>44.2</ele>
        <time>2021-06-03T09:40:18.000Z</time>
      </trkpt>
      <trkpt lat="44.98345" lon="-0.29934">
        <ele>44.4</ele>
        <time>2021-06-03T09:40:19.000Z</time>
      </trkpt>
      <trkpt lat="44.98347" lon="-0.29926">
        <ele>44.5</ele>
        <time>2021-06-03T09:40:20.000Z</time>
      </trkpt>
      <trkpt lat="44.98348" lon="-0.29919">
        <ele>44.4</ele>
        <time>2021-06-03T09:40:21.000Z</time>
      </trkpt>
      <trkpt lat="44.9835" lon="-0.29912">
        <ele>44.4</ele>
        <time>2021-06-03T09:40:22.000Z</time>
      </trkpt>
      <trkpt lat="44.98352" lon="-0.29905">
        <ele>44.3</ele>
        <time>2021-06-03T09:40:23.000Z</time>
      </trkpt>
      <trkpt lat="44.98354" lon="-0.29899">
        <ele>44.7</ele>
        <time>2021-06-03T09:40:24.000Z</time>
      </trkpt>
      <trkpt lat="44.98357" lon="-0.29893">
        <ele>44.9</ele>
        <time>2021-06-03T09:40:25.000Z</time>
      </trkpt>
      <trkpt lat="44.9836" lon="-0.29888">
        <ele>45</ele>
        <time>2021-06-03T09:40:26.000Z</time>
      </trkpt>
      <trkpt lat="44.98363" lon="-0.29883">
        <ele>45.1</ele>
        <time>2021-06-03T09:40:27.000Z</time>
      </trkpt>
      <trkpt lat="44.98367" lon="-0.29878">
        <ele>45.2</ele>
        <time>2021-06-03T09:40:28.000Z</time>
      </trkpt>
      <trkpt lat="44.98371" lon="-0.29874">
        <ele>45.4</ele>
        <time>2021-06-03T09:40:29.000Z</time>
      </trkpt>
      <trkpt lat="44.98374" lon="-0.2987">
        <ele>45.5</ele>
        <time>2021-06-03T09:40:30.000Z</time>
      </trkpt>
      <trkpt lat="44.98378" lon="-0.29866">
        <ele>45.7</ele>
        <time>2021-06-03T09:40:31.000Z</time>
      </trkpt>
      <trkpt lat="44.98382" lon="-0.29861">
        <ele>45.9</ele>
        <time>2021-06-03T09:40:32.000Z</time>
      </trkpt>
      <trkpt lat="44.98386" lon="-0.29857">
        <ele>46.1</ele>
        <time>2021-06-03T09:40:33.000Z</time>
      </trkpt>
      <trkpt lat="44.9839" lon="-0.29853">
        <ele>46.3</ele>
        <time>2021-06-03T09:40:34.000Z</time>
      </trkpt>
      <trkpt lat="44.98394" lon="-0.29849">
        <ele>46.4</ele>
        <time>2021-06-03T09:40:35.000Z</time>
      </trkpt>
      <trkpt lat="44.984" lon="-0.2984">
        <ele>45.7</ele>
        <time>2021-06-03T09:40:37.000Z</time>
      </trkpt>
      <trkpt lat="44.98403" lon="-0.29835">
        <ele>45.8</ele>
        <time>2021-06-03T09:40:38.000Z</time>
      </trkpt>
      <trkpt lat="44.98406" lon="-0.2983">
        <ele>45.8</ele>
        <time>2021-06-03T09:40:39.000Z</time>
      </trkpt>
      <trkpt lat="44.98409" lon="-0.29825">
        <ele>45.9</ele>
        <time>2021-06-03T09:40:40.000Z</time>
      </trkpt>
      <trkpt lat="44.98412" lon="-0.2982">
        <ele>46</ele>
        <time>2021-06-03T09:40:41.000Z</time>
      </trkpt>
      <trkpt lat="44.98414" lon="-0.29815">
        <ele>46.1</ele>
        <time>2021-06-03T09:40:42.000Z</time>
      </trkpt>
      <trkpt lat="44.98417" lon="-0.2981">
        <ele>46.5</ele>
        <time>2021-06-03T09:40:43.000Z</time>
      </trkpt>
      <trkpt lat="44.98423" lon="-0.298">
        <ele>46.8</ele>
        <time>2021-06-03T09:40:45.000Z</time>
      </trkpt>
      <trkpt lat="44.98425" lon="-0.29794">
        <ele>46.8</ele>
        <time>2021-06-03T09:40:46.000Z</time>
      </trkpt>
      <trkpt lat="44.98428" lon="-0.29789">
        <ele>47.2</ele>
        <time>2021-06-03T09:40:47.000Z</time>
      </trkpt>
      <trkpt lat="44.98431" lon="-0.29783">
        <ele>47.4</ele>
        <time>2021-06-03T09:40:48.000Z</time>
      </trkpt>
      <trkpt lat="44.98434" lon="-0.29778">
        <ele>47.6</ele>
        <time>2021-06-03T09:40:49.000Z</time>
      </trkpt>
      <trkpt lat="44.98437" lon="-0.29772">
        <ele>47.3</ele>
        <time>2021-06-03T09:40:50.000Z</time>
      </trkpt>
      <trkpt lat="44.9844" lon="-0.29767">
        <ele>47.1</ele>
        <time>2021-06-03T09:40:51.000Z</time>
      </trkpt>
      <trkpt lat="44.98443" lon="-0.29761">
        <ele>47.2</ele>
        <time>2021-06-03T09:40:52.000Z</time>
      </trkpt>
      <trkpt lat="44.98446" lon="-0.29756">
        <ele>47.2</ele>
        <time>2021-06-03T09:40:53.000Z</time>
      </trkpt>
      <trkpt lat="44.98449" lon="-0.29751">
        <ele>47.2</ele>
        <time>2021-06-03T09:40:54.000Z</time>
      </trkpt>
      <trkpt lat="44.98455" lon="-0.29741">
        <ele>47.2</ele>
        <time>2021-06-03T09:40:56.000Z</time>
      </trkpt>
      <trkpt lat="44.9846" lon="-0.29731">
        <ele>47.5</ele>
        <time>2021-06-03T09:40:58.000Z</time>
      </trkpt>
      <trkpt lat="44.98465" lon="-0.29722">
        <ele>47.4</ele>
        <time>2021-06-03T09:41:00.000Z</time>
      </trkpt>
      <trkpt lat="44.9847" lon="-0.29712">
        <ele>47.4</ele>
        <time>2021-06-03T09:41:02.000Z</time>
      </trkpt>
      <trkpt lat="44.98475" lon="-0.29703">
        <ele>47.5</ele>
        <time>2021-06-03T09:41:04.000Z</time>
      </trkpt>
      <trkpt lat="44.9848" lon="-0.29694">
        <ele>47.8</ele>
        <time>2021-06-03T09:41:06.000Z</time>
      </trkpt>
      <trkpt lat="44.98485" lon="-0.29685">
        <ele>48.1</ele>
        <time>2021-06-03T09:41:08.000Z</time>
      </trkpt>
      <trkpt lat="44.9849" lon="-0.29676">
        <ele>48.8</ele>
        <time>2021-06-03T09:41:10.000Z</time>
      </trkpt>
      <trkpt lat="44.98495" lon="-0.29667">
        <ele>48.5</ele>
        <time>2021-06-03T09:41:12.000Z</time>
      </trkpt>
      <trkpt lat="44.985" lon="-0.29658">
        <ele>48.5</ele>
        <time>2021-06-03T09:41:14.000Z</time>
      </trkpt>
      <trkpt lat="44.98505" lon="-0.29649">
        <ele>48.7</ele>
        <time>2021-06-03T09:41:16.000Z</time>
      </trkpt>
      <trkpt lat="44.9851" lon="-0.2964">
        <ele>48.8</ele>
        <time>2021-06-03T09:41:18.000Z</time>
      </trkpt>
      <trkpt lat="44.98515" lon="-0.2963">
        <ele>48.8</ele>
        <time>2021-06-03T09:41:20.000Z</time>
      </trkpt>
      <trkpt lat="44.9852" lon="-0.29622">
        <ele>48.5</ele>
        <time>2021-06-03T09:41:22.000Z</time>
      </trkpt>
      <trkpt lat="44.98525" lon="-0.29614">
        <ele>48.5</ele>
        <time>2021-06-03T09:41:24.000Z</time>
      </trkpt>
      <trkpt lat="44.98531" lon="-0.29609">
        <ele>49.2</ele>
        <time>2021-06-03T09:41:26.000Z</time>
      </trkpt>
      <trkpt lat="44.98538" lon="-0.29605">
        <ele>49.3</ele>
        <time>2021-06-03T09:41:28.000Z</time>
      </trkpt>
      <trkpt lat="44.98545" lon="-0.29605">
        <ele>49.5</ele>
        <time>2021-06-03T09:41:30.000Z</time>
      </trkpt>
      <trkpt lat="44.98553" lon="-0.29606">
        <ele>49.7</ele>
        <time>2021-06-03T09:41:32.000Z</time>
      </trkpt>
      <trkpt lat="44.98558" lon="-0.29607">
        <ele>49.4</ele>
        <time>2021-06-03T09:41:33.000Z</time>
      </trkpt>
      <trkpt lat="44.98562" lon="-0.29608">
        <ele>49.1</ele>
        <time>2021-06-03T09:41:34.000Z</time>
      </trkpt>
      <trkpt lat="44.98571" lon="-0.29607">
        <ele>49.1</ele>
        <time>2021-06-03T09:41:36.000Z</time>
      </trkpt>
      <trkpt lat="44.98575" lon="-0.29605">
        <ele>49.6</ele>
        <time>2021-06-03T09:41:37.000Z</time>
      </trkpt>
      <trkpt lat="44.98579" lon="-0.29601">
        <ele>50</ele>
        <time>2021-06-03T09:41:38.000Z</time>
      </trkpt>
      <trkpt lat="44.98583" lon="-0.29597">
        <ele>50.3</ele>
        <time>2021-06-03T09:41:39.000Z</time>
      </trkpt>
      <trkpt lat="44.98585" lon="-0.29592">
        <ele>50.1</ele>
        <time>2021-06-03T09:41:40.000Z</time>
      </trkpt>
      <trkpt lat="44.9859" lon="-0.29581">
        <ele>49.8</ele>
        <time>2021-06-03T09:41:42.000Z</time>
      </trkpt>
      <trkpt lat="44.98593" lon="-0.2957">
        <ele>49.7</ele>
        <time>2021-06-03T09:41:44.000Z</time>
      </trkpt>
      <trkpt lat="44.98597" lon="-0.2956">
        <ele>49.8</ele>
        <time>2021-06-03T09:41:46.000Z</time>
      </trkpt>
      <trkpt lat="44.98601" lon="-0.2955">
        <ele>49.6</ele>
        <time>2021-06-03T09:41:48.000Z</time>
      </trkpt>
      <trkpt lat="44.98605" lon="-0.2954">
        <ele>49.9</ele>
        <time>2021-06-03T09:41:50.000Z</time>
      </trkpt>
      <trkpt lat="44.98609" lon="-0.29529">
        <ele>50.4</ele>
        <time>2021-06-03T09:41:52.000Z</time>
      </trkpt>
      <trkpt lat="44.98613" lon="-0.29518">
        <ele>50.7</ele>
        <time>2021-06-03T09:41:54.000Z</time>
      </trkpt>
      <trkpt lat="44.98617" lon="-0.29507">
        <ele>50.6</ele>
        <time>2021-06-03T09:41:56.000Z</time>
      </trkpt>
      <trkpt lat="44.98621" lon="-0.29496">
        <ele>50.4</ele>
        <time>2021-06-03T09:41:58.000Z</time>
      </trkpt>
      <trkpt lat="44.98625" lon="-0.29485">
        <ele>50.5</ele>
        <time>2021-06-03T09:42:00.000Z</time>
      </trkpt>
      <trkpt lat="44.98629" lon="-0.29474">
        <ele>50.1</ele>
        <time>2021-06-03T09:42:02.000Z</time>
      </trkpt>
      <trkpt lat="44.98634" lon="-0.29463">
        <ele>49.8</ele>
        <time>2021-06-03T09:42:04.000Z</time>
      </trkpt>
      <trkpt lat="44.98638" lon="-0.29453">
        <ele>49.7</ele>
        <time>2021-06-03T09:42:06.000Z</time>
      </trkpt>
      <trkpt lat="44.98641" lon="-0.29442">
        <ele>49.3</ele>
        <time>2021-06-03T09:42:08.000Z</time>
      </trkpt>
      <trkpt lat="44.98645" lon="-0.29431">
        <ele>48.9</ele>
        <time>2021-06-03T09:42:10.000Z</time>
      </trkpt>
      <trkpt lat="44.98648" lon="-0.2942">
        <ele>48.5</ele>
        <time>2021-06-03T09:42:12.000Z</time>
      </trkpt>
      <trkpt lat="44.98651" lon="-0.29408">
        <ele>48.5</ele>
        <time>2021-06-03T09:42:14.000Z</time>
      </trkpt>
      <trkpt lat="44.98653" lon="-0.29397">
        <ele>49.1</ele>
        <time>2021-06-03T09:42:16.000Z</time>
      </trkpt>
      <trkpt lat="44.98655" lon="-0.29385">
        <ele>49.2</ele>
        <time>2021-06-03T09:42:18.000Z</time>
      </trkpt>
      <trkpt lat="44.98658" lon="-0.29373">
        <ele>48.9</ele>
        <time>2021-06-03T09:42:20.000Z</time>
      </trkpt>
      <trkpt lat="44.98659" lon="-0.29367">
        <ele>48.6</ele>
        <time>2021-06-03T09:42:21.000Z</time>
      </trkpt>
      <trkpt lat="44.9866" lon="-0.2936">
        <ele>48.3</ele>
        <time>2021-06-03T09:42:22.000Z</time>
      </trkpt>
      <trkpt lat="44.98661" lon="-0.29354">
        <ele>48.1</ele>
        <time>2021-06-03T09:42:23.000Z</time>
      </trkpt>
      <trkpt lat="44.98663" lon="-0.29347">
        <ele>47.9</ele>
        <time>2021-06-03T09:42:24.000Z</time>
      </trkpt>
      <trkpt lat="44.98664" lon="-0.29341">
        <ele>48</ele>
        <time>2021-06-03T09:42:25.000Z</time>
      </trkpt>
      <trkpt lat="44.98665" lon="-0.29334">
        <ele>48.1</ele>
        <time>2021-06-03T09:42:26.000Z</time>
      </trkpt>
      <trkpt lat="44.98666" lon="-0.29327">
        <ele>48.1</ele>
        <time>2021-06-03T09:42:27.000Z</time>
      </trkpt>
      <trkpt lat="44.98668" lon="-0.2932">
        <ele>48.2</ele>
        <time>2021-06-03T09:42:28.000Z</time>
      </trkpt>
      <trkpt lat="44.98669" lon="-0.29313">
        <ele>48.2</ele>
        <time>2021-06-03T09:42:29.000Z</time>
      </trkpt>
      <trkpt lat="44.9867" lon="-0.29307">
        <ele>48</ele>
        <time>2021-06-03T09:42:30.000Z</time>
      </trkpt>
      <trkpt lat="44.98671" lon="-0.293">
        <ele>47.9</ele>
        <time>2021-06-03T09:42:31.000Z</time>
      </trkpt>
      <trkpt lat="44.98672" lon="-0.29293">
        <ele>48.1</ele>
        <time>2021-06-03T09:42:32.000Z</time>
      </trkpt>
      <trkpt lat="44.98673" lon="-0.29286">
        <ele>48.2</ele>
        <time>2021-06-03T09:42:33.000Z</time>
      </trkpt>
      <trkpt lat="44.98674" lon="-0.2928">
        <ele>47.7</ele>
        <time>2021-06-03T09:42:34.000Z</time>
      </trkpt>
      <trkpt lat="44.98675" lon="-0.29273">
        <ele>47.3</ele>
        <time>2021-06-03T09:42:35.000Z</time>
      </trkpt>
      <trkpt lat="44.98675" lon="-0.29266">
        <ele>47</ele>
        <time>2021-06-03T09:42:36.000Z</time>
      </trkpt>
      <trkpt lat="44.98676" lon="-0.2926">
        <ele>46.8</ele>
        <time>2021-06-03T09:42:37.000Z</time>
      </trkpt>
      <trkpt lat="44.98676" lon="-0.29253">
        <ele>46.6</ele>
        <time>2021-06-03T09:42:38.000Z</time>
      </trkpt>
      <trkpt lat="44.98675" lon="-0.29246">
        <ele>46.6</ele>
        <time>2021-06-03T09:42:39.000Z</time>
      </trkpt>
      <trkpt lat="44.98674" lon="-0.29239">
        <ele>46.6</ele>
        <time>2021-06-03T09:42:40.000Z</time>
      </trkpt>
      <trkpt lat="44.98673" lon="-0.29233">
        <ele>46.7</ele>
        <time>2021-06-03T09:42:41.000Z</time>
      </trkpt>
      <trkpt lat="44.98672" lon="-0.29226">
        <ele>46.7</ele>
        <time>2021-06-03T09:42:42.000Z</time>
      </trkpt>
      <trkpt lat="44.9867" lon="-0.29214">
        <ele>46.6</ele>
        <time>2021-06-03T09:42:44.000Z</time>
      </trkpt>
      <trkpt lat="44.98668" lon="-0.29202">
        <ele>46.5</ele>
        <time>2021-06-03T09:42:46.000Z</time>
      </trkpt>
      <trkpt lat="44.98665" lon="-0.29191">
        <ele>46.5</ele>
        <time>2021-06-03T09:42:48.000Z</time>
      </trkpt>
      <trkpt lat="44.98662" lon="-0.29181">
        <ele>46.4</ele>
        <time>2021-06-03T09:42:50.000Z</time>
      </trkpt>
      <trkpt lat="44.98659" lon="-0.29171">
        <ele>46.1</ele>
        <time>2021-06-03T09:42:52.000Z</time>
      </trkpt>
      <trkpt lat="44.98656" lon="-0.2916">
        <ele>46.2</ele>
        <time>2021-06-03T09:42:54.000Z</time>
      </trkpt>
      <trkpt lat="44.98653" lon="-0.2915">
        <ele>46</ele>
        <time>2021-06-03T09:42:56.000Z</time>
      </trkpt>
      <trkpt lat="44.9865" lon="-0.2914">
        <ele>45.9</ele>
        <time>2021-06-03T09:42:58.000Z</time>
      </trkpt>
      <trkpt lat="44.98648" lon="-0.2913">
        <ele>45.9</ele>
        <time>2021-06-03T09:43:00.000Z</time>
      </trkpt>
      <trkpt lat="44.98645" lon="-0.29119">
        <ele>45.8</ele>
        <time>2021-06-03T09:43:02.000Z</time>
      </trkpt>
      <trkpt lat="44.98643" lon="-0.29108">
        <ele>45.7</ele>
        <time>2021-06-03T09:43:04.000Z</time>
      </trkpt>
      <trkpt lat="44.98643" lon="-0.29096">
        <ele>45.6</ele>
        <time>2021-06-03T09:43:06.000Z</time>
      </trkpt>
      <trkpt lat="44.98643" lon="-0.2909">
        <ele>45.6</ele>
        <time>2021-06-03T09:43:07.000Z</time>
      </trkpt>
      <trkpt lat="44.98643" lon="-0.29083">
        <ele>45.6</ele>
        <time>2021-06-03T09:43:08.000Z</time>
      </trkpt>
      <trkpt lat="44.98644" lon="-0.29077">
        <ele>45.6</ele>
        <time>2021-06-03T09:43:09.000Z</time>
      </trkpt>
      <trkpt lat="44.98645" lon="-0.2907">
        <ele>45.4</ele>
        <time>2021-06-03T09:43:10.000Z</time>
      </trkpt>
      <trkpt lat="44.98647" lon="-0.29063">
        <ele>45.3</ele>
        <time>2021-06-03T09:43:11.000Z</time>
      </trkpt>
      <trkpt lat="44.98649" lon="-0.29057">
        <ele>44.9</ele>
        <time>2021-06-03T09:43:12.000Z</time>
      </trkpt>
      <trkpt lat="44.98652" lon="-0.2905">
        <ele>44.6</ele>
        <time>2021-06-03T09:43:13.000Z</time>
      </trkpt>
      <trkpt lat="44.98655" lon="-0.29043">
        <ele>44.3</ele>
        <time>2021-06-03T09:43:14.000Z</time>
      </trkpt>
      <trkpt lat="44.98658" lon="-0.29037">
        <ele>44</ele>
        <time>2021-06-03T09:43:15.000Z</time>
      </trkpt>
      <trkpt lat="44.98661" lon="-0.2903">
        <ele>43.7</ele>
        <time>2021-06-03T09:43:16.000Z</time>
      </trkpt>
      <trkpt lat="44.98665" lon="-0.29023">
        <ele>43.4</ele>
        <time>2021-06-03T09:43:17.000Z</time>
      </trkpt>
      <trkpt lat="44.98669" lon="-0.29016">
        <ele>43.1</ele>
        <time>2021-06-03T09:43:18.000Z</time>
      </trkpt>
      <trkpt lat="44.98672" lon="-0.29009">
        <ele>43.1</ele>
        <time>2021-06-03T09:43:19.000Z</time>
      </trkpt>
      <trkpt lat="44.98676" lon="-0.29002">
        <ele>43.1</ele>
        <time>2021-06-03T09:43:20.000Z</time>
      </trkpt>
      <trkpt lat="44.9868" lon="-0.28995">
        <ele>43.1</ele>
        <time>2021-06-03T09:43:21.000Z</time>
      </trkpt>
      <trkpt lat="44.98683" lon="-0.28987">
        <ele>43</ele>
        <time>2021-06-03T09:43:22.000Z</time>
      </trkpt>
      <trkpt lat="44.98687" lon="-0.2898">
        <ele>43</ele>
        <time>2021-06-03T09:43:23.000Z</time>
      </trkpt>
      <trkpt lat="44.98691" lon="-0.28972">
        <ele>42.4</ele>
        <time>2021-06-03T09:43:24.000Z</time>
      </trkpt>
      <trkpt lat="44.98695" lon="-0.28965">
        <ele>42</ele>
        <time>2021-06-03T09:43:25.000Z</time>
      </trkpt>
      <trkpt lat="44.98698" lon="-0.28957">
        <ele>42</ele>
        <time>2021-06-03T09:43:26.000Z</time>
      </trkpt>
      <trkpt lat="44.98702" lon="-0.28949">
        <ele>42</ele>
        <time>2021-06-03T09:43:27.000Z</time>
      </trkpt>
      <trkpt lat="44.98706" lon="-0.28941">
        <ele>42</ele>
        <time>2021-06-03T09:43:28.000Z</time>
      </trkpt>
      <trkpt lat="44.9871" lon="-0.28933">
        <ele>41.6</ele>
        <time>2021-06-03T09:43:29.000Z</time>
      </trkpt>
      <trkpt lat="44.98713" lon="-0.28926">
        <ele>41.4</ele>
        <time>2021-06-03T09:43:30.000Z</time>
      </trkpt>
      <trkpt lat="44.98717" lon="-0.28918">
        <ele>41.3</ele>
        <time>2021-06-03T09:43:31.000Z</time>
      </trkpt>
      <trkpt lat="44.9872" lon="-0.2891">
        <ele>41.2</ele>
        <time>2021-06-03T09:43:32.000Z</time>
      </trkpt>
      <trkpt lat="44.98723" lon="-0.28902">
        <ele>41.1</ele>
        <time>2021-06-03T09:43:33.000Z</time>
      </trkpt>
      <trkpt lat="44.98726" lon="-0.28893">
        <ele>40.7</ele>
        <time>2021-06-03T09:43:34.000Z</time>
      </trkpt>
      <trkpt lat="44.98728" lon="-0.28885">
        <ele>40.4</ele>
        <time>2021-06-03T09:43:35.000Z</time>
      </trkpt>
      <trkpt lat="44.9873" lon="-0.28877">
        <ele>40.4</ele>
        <time>2021-06-03T09:43:36.000Z</time>
      </trkpt>
      <trkpt lat="44.98732" lon="-0.28868">
        <ele>40.3</ele>
        <time>2021-06-03T09:43:37.000Z</time>
      </trkpt>
      <trkpt lat="44.98733" lon="-0.2886">
        <ele>40.1</ele>
        <time>2021-06-03T09:43:38.000Z</time>
      </trkpt>
      <trkpt lat="44.98735" lon="-0.28852">
        <ele>39.9</ele>
        <time>2021-06-03T09:43:39.000Z</time>
      </trkpt>
      <trkpt lat="44.98737" lon="-0.28843">
        <ele>39.8</ele>
        <time>2021-06-03T09:43:40.000Z</time>
      </trkpt>
      <trkpt lat="44.98739" lon="-0.28834">
        <ele>39.8</ele>
        <time>2021-06-03T09:43:41.000Z</time>
      </trkpt>
      <trkpt lat="44.98741" lon="-0.28826">
        <ele>39.7</ele>
        <time>2021-06-03T09:43:42.000Z</time>
      </trkpt>
      <trkpt lat="44.98743" lon="-0.28818">
        <ele>39.5</ele>
        <time>2021-06-03T09:43:43.000Z</time>
      </trkpt>
      <trkpt lat="44.98745" lon="-0.28809">
        <ele>39.3</ele>
        <time>2021-06-03T09:43:44.000Z</time>
      </trkpt>
      <trkpt lat="44.98747" lon="-0.28801">
        <ele>39.1</ele>
        <time>2021-06-03T09:43:45.000Z</time>
      </trkpt>
      <trkpt lat="44.98749" lon="-0.28794">
        <ele>39.4</ele>
        <time>2021-06-03T09:43:46.000Z</time>
      </trkpt>
      <trkpt lat="44.98751" lon="-0.28787">
        <ele>39.6</ele>
        <time>2021-06-03T09:43:47.000Z</time>
      </trkpt>
      <trkpt lat="44.98753" lon="-0.2878">
        <ele>39.4</ele>
        <time>2021-06-03T09:43:48.000Z</time>
      </trkpt>
      <trkpt lat="44.98755" lon="-0.28773">
        <ele>39.3</ele>
        <time>2021-06-03T09:43:49.000Z</time>
      </trkpt>
      <trkpt lat="44.98757" lon="-0.28767">
        <ele>39.1</ele>
        <time>2021-06-03T09:43:50.000Z</time>
      </trkpt>
      <trkpt lat="44.9876" lon="-0.28761">
        <ele>38.9</ele>
        <time>2021-06-03T09:43:51.000Z</time>
      </trkpt>
      <trkpt lat="44.98762" lon="-0.28754">
        <ele>38.8</ele>
        <time>2021-06-03T09:43:52.000Z</time>
      </trkpt>
      <trkpt lat="44.98765" lon="-0.28748">
        <ele>38.9</ele>
        <time>2021-06-03T09:43:53.000Z</time>
      </trkpt>
      <trkpt lat="44.98768" lon="-0.28741">
        <ele>39.1</ele>
        <time>2021-06-03T09:43:54.000Z</time>
      </trkpt>
      <trkpt lat="44.98771" lon="-0.28734">
        <ele>39</ele>
        <time>2021-06-03T09:43:55.000Z</time>
      </trkpt>
      <trkpt lat="44.98773" lon="-0.28727">
        <ele>39</ele>
        <time>2021-06-03T09:43:56.000Z</time>
      </trkpt>
      <trkpt lat="44.98776" lon="-0.2872">
        <ele>38.9</ele>
        <time>2021-06-03T09:43:57.000Z</time>
      </trkpt>
      <trkpt lat="44.98779" lon="-0.28713">
        <ele>38.8</ele>
        <time>2021-06-03T09:43:58.000Z</time>
      </trkpt>
      <trkpt lat="44.98782" lon="-0.28706">
        <ele>38.8</ele>
        <time>2021-06-03T09:43:59.000Z</time>
      </trkpt>
      <trkpt lat="44.98785" lon="-0.28699">
        <ele>38.4</ele>
        <time>2021-06-03T09:44:00.000Z</time>
      </trkpt>
      <trkpt lat="44.98787" lon="-0.28692">
        <ele>38.1</ele>
        <time>2021-06-03T09:44:01.000Z</time>
      </trkpt>
      <trkpt lat="44.9879" lon="-0.28685">
        <ele>38.3</ele>
        <time>2021-06-03T09:44:02.000Z</time>
      </trkpt>
      <trkpt lat="44.98792" lon="-0.28678">
        <ele>38.4</ele>
        <time>2021-06-03T09:44:03.000Z</time>
      </trkpt>
      <trkpt lat="44.98795" lon="-0.28671">
        <ele>38.2</ele>
        <time>2021-06-03T09:44:04.000Z</time>
      </trkpt>
      <trkpt lat="44.98798" lon="-0.28664">
        <ele>38.1</ele>
        <time>2021-06-03T09:44:05.000Z</time>
      </trkpt>
      <trkpt lat="44.98801" lon="-0.28657">
        <ele>38</ele>
        <time>2021-06-03T09:44:06.000Z</time>
      </trkpt>
      <trkpt lat="44.98804" lon="-0.2865">
        <ele>37.9</ele>
        <time>2021-06-03T09:44:07.000Z</time>
      </trkpt>
      <trkpt lat="44.98807" lon="-0.28644">
        <ele>37.8</ele>
        <time>2021-06-03T09:44:08.000Z</time>
      </trkpt>
      <trkpt lat="44.98809" lon="-0.28637">
        <ele>37.6</ele>
        <time>2021-06-03T09:44:09.000Z</time>
      </trkpt>
      <trkpt lat="44.98812" lon="-0.2863">
        <ele>37.4</ele>
        <time>2021-06-03T09:44:10.000Z</time>
      </trkpt>
      <trkpt lat="44.98815" lon="-0.28624">
        <ele>37.2</ele>
        <time>2021-06-03T09:44:11.000Z</time>
      </trkpt>
      <trkpt lat="44.98819" lon="-0.28617">
        <ele>37.3</ele>
        <time>2021-06-03T09:44:12.000Z</time>
      </trkpt>
      <trkpt lat="44.98822" lon="-0.28611">
        <ele>37.4</ele>
        <time>2021-06-03T09:44:13.000Z</time>
      </trkpt>
      <trkpt lat="44.98825" lon="-0.28605">
        <ele>37.3</ele>
        <time>2021-06-03T09:44:14.000Z</time>
      </trkpt>
      <trkpt lat="44.98829" lon="-0.28599">
        <ele>37.2</ele>
        <time>2021-06-03T09:44:15.000Z</time>
      </trkpt>
      <trkpt lat="44.98832" lon="-0.28593">
        <ele>37.2</ele>
        <time>2021-06-03T09:44:16.000Z</time>
      </trkpt>
      <trkpt lat="44.98835" lon="-0.28588">
        <ele>37.2</ele>
        <time>2021-06-03T09:44:17.000Z</time>
      </trkpt>
      <trkpt lat="44.98839" lon="-0.28582">
        <ele>37.2</ele>
        <time>2021-06-03T09:44:18.000Z</time>
      </trkpt>
      <trkpt lat="44.98842" lon="-0.28576">
        <ele>37.2</ele>
        <time>2021-06-03T09:44:19.000Z</time>
      </trkpt>
      <trkpt lat="44.98845" lon="-0.28569">
        <ele>37.2</ele>
        <time>2021-06-03T09:44:20.000Z</time>
      </trkpt>
      <trkpt lat="44.98849" lon="-0.28563">
        <ele>37.1</ele>
        <time>2021-06-03T09:44:21.000Z</time>
      </trkpt>
      <trkpt lat="44.98852" lon="-0.28557">
        <ele>37</ele>
        <time>2021-06-03T09:44:22.000Z</time>
      </trkpt>
      <trkpt lat="44.98855" lon="-0.28551">
        <ele>37.1</ele>
        <time>2021-06-03T09:44:23.000Z</time>
      </trkpt>
      <trkpt lat="44.98858" lon="-0.28544">
        <ele>37.1</ele>
        <time>2021-06-03T09:44:24.000Z</time>
      </trkpt>
      <trkpt lat="44.98862" lon="-0.28538">
        <ele>37.1</ele>
        <time>2021-06-03T09:44:25.000Z</time>
      </trkpt>
      <trkpt lat="44.98865" lon="-0.28531">
        <ele>36.8</ele>
        <time>2021-06-03T09:44:26.000Z</time>
      </trkpt>
      <trkpt lat="44.98867" lon="-0.28524">
        <ele>36.5</ele>
        <time>2021-06-03T09:44:27.000Z</time>
      </trkpt>
      <trkpt lat="44.9887" lon="-0.28517">
        <ele>36.2</ele>
        <time>2021-06-03T09:44:28.000Z</time>
      </trkpt>
      <trkpt lat="44.98873" lon="-0.2851">
        <ele>36</ele>
        <time>2021-06-03T09:44:29.000Z</time>
      </trkpt>
      <trkpt lat="44.98876" lon="-0.28503">
        <ele>35.8</ele>
        <time>2021-06-03T09:44:30.000Z</time>
      </trkpt>
      <trkpt lat="44.98878" lon="-0.28496">
        <ele>35.7</ele>
        <time>2021-06-03T09:44:31.000Z</time>
      </trkpt>
      <trkpt lat="44.98881" lon="-0.28489">
        <ele>35.6</ele>
        <time>2021-06-03T09:44:32.000Z</time>
      </trkpt>
      <trkpt lat="44.98883" lon="-0.28482">
        <ele>35.5</ele>
        <time>2021-06-03T09:44:33.000Z</time>
      </trkpt>
      <trkpt lat="44.98886" lon="-0.28476">
        <ele>35.3</ele>
        <time>2021-06-03T09:44:34.000Z</time>
      </trkpt>
      <trkpt lat="44.98888" lon="-0.28469">
        <ele>35.8</ele>
        <time>2021-06-03T09:44:35.000Z</time>
      </trkpt>
      <trkpt lat="44.9889" lon="-0.28462">
        <ele>36.2</ele>
        <time>2021-06-03T09:44:36.000Z</time>
      </trkpt>
      <trkpt lat="44.98893" lon="-0.28455">
        <ele>36.4</ele>
        <time>2021-06-03T09:44:37.000Z</time>
      </trkpt>
      <trkpt lat="44.98895" lon="-0.28449">
        <ele>36</ele>
        <time>2021-06-03T09:44:38.000Z</time>
      </trkpt>
      <trkpt lat="44.98897" lon="-0.28442">
        <ele>35.7</ele>
        <time>2021-06-03T09:44:39.000Z</time>
      </trkpt>
      <trkpt lat="44.98899" lon="-0.28435">
        <ele>35.7</ele>
        <time>2021-06-03T09:44:40.000Z</time>
      </trkpt>
      <trkpt lat="44.98901" lon="-0.28428">
        <ele>35.6</ele>
        <time>2021-06-03T09:44:41.000Z</time>
      </trkpt>
      <trkpt lat="44.98903" lon="-0.28421">
        <ele>35.4</ele>
        <time>2021-06-03T09:44:42.000Z</time>
      </trkpt>
      <trkpt lat="44.98905" lon="-0.28414">
        <ele>35.3</ele>
        <time>2021-06-03T09:44:43.000Z</time>
      </trkpt>
      <trkpt lat="44.98907" lon="-0.28407">
        <ele>35.3</ele>
        <time>2021-06-03T09:44:44.000Z</time>
      </trkpt>
      <trkpt lat="44.98909" lon="-0.28401">
        <ele>35.2</ele>
        <time>2021-06-03T09:44:45.000Z</time>
      </trkpt>
      <trkpt lat="44.9891" lon="-0.28394">
        <ele>35.2</ele>
        <time>2021-06-03T09:44:46.000Z</time>
      </trkpt>
      <trkpt lat="44.98912" lon="-0.28387">
        <ele>34.9</ele>
        <time>2021-06-03T09:44:47.000Z</time>
      </trkpt>
      <trkpt lat="44.98913" lon="-0.2838">
        <ele>34.7</ele>
        <time>2021-06-03T09:44:48.000Z</time>
      </trkpt>
      <trkpt lat="44.98915" lon="-0.28374">
        <ele>34.6</ele>
        <time>2021-06-03T09:44:49.000Z</time>
      </trkpt>
      <trkpt lat="44.98917" lon="-0.28367">
        <ele>34.7</ele>
        <time>2021-06-03T09:44:50.000Z</time>
      </trkpt>
      <trkpt lat="44.98918" lon="-0.28361">
        <ele>34.8</ele>
        <time>2021-06-03T09:44:51.000Z</time>
      </trkpt>
      <trkpt lat="44.98919" lon="-0.28354">
        <ele>34.7</ele>
        <time>2021-06-03T09:44:52.000Z</time>
      </trkpt>
      <trkpt lat="44.9892" lon="-0.28348">
        <ele>34.6</ele>
        <time>2021-06-03T09:44:53.000Z</time>
      </trkpt>
      <trkpt lat="44.98921" lon="-0.28341">
        <ele>34.7</ele>
        <time>2021-06-03T09:44:54.000Z</time>
      </trkpt>
      <trkpt lat="44.98923" lon="-0.28335">
        <ele>34.8</ele>
        <time>2021-06-03T09:44:55.000Z</time>
      </trkpt>
      <trkpt lat="44.98924" lon="-0.28328">
        <ele>34.8</ele>
        <time>2021-06-03T09:44:56.000Z</time>
      </trkpt>
      <trkpt lat="44.98925" lon="-0.28322">
        <ele>34.6</ele>
        <time>2021-06-03T09:44:57.000Z</time>
      </trkpt>
      <trkpt lat="44.98926" lon="-0.28316">
        <ele>34.5</ele>
        <time>2021-06-03T09:44:58.000Z</time>
      </trkpt>
      <trkpt lat="44.98927" lon="-0.28309">
        <ele>34.5</ele>
        <time>2021-06-03T09:44:59.000Z</time>
      </trkpt>
      <trkpt lat="44.98929" lon="-0.28302">
        <ele>34.5</ele>
        <time>2021-06-03T09:45:00.000Z</time>
      </trkpt>
      <trkpt lat="44.9893" lon="-0.28295">
        <ele>34.4</ele>
        <time>2021-06-03T09:45:01.000Z</time>
      </trkpt>
      <trkpt lat="44.98931" lon="-0.28288">
        <ele>34.3</ele>
        <time>2021-06-03T09:45:02.000Z</time>
      </trkpt>
      <trkpt lat="44.98932" lon="-0.2828">
        <ele>34.3</ele>
        <time>2021-06-03T09:45:03.000Z</time>
      </trkpt>
      <trkpt lat="44.98932" lon="-0.28273">
        <ele>34.5</ele>
        <time>2021-06-03T09:45:04.000Z</time>
      </trkpt>
      <trkpt lat="44.98933" lon="-0.28265">
        <ele>34.7</ele>
        <time>2021-06-03T09:45:05.000Z</time>
      </trkpt>
      <trkpt lat="44.98934" lon="-0.28257">
        <ele>34.2</ele>
        <time>2021-06-03T09:45:06.000Z</time>
      </trkpt>
      <trkpt lat="44.98935" lon="-0.2825">
        <ele>33.9</ele>
        <time>2021-06-03T09:45:07.000Z</time>
      </trkpt>
      <trkpt lat="44.98936" lon="-0.28242">
        <ele>33.7</ele>
        <time>2021-06-03T09:45:08.000Z</time>
      </trkpt>
      <trkpt lat="44.98938" lon="-0.28235">
        <ele>33.6</ele>
        <time>2021-06-03T09:45:09.000Z</time>
      </trkpt>
      <trkpt lat="44.9894" lon="-0.28228">
        <ele>33.5</ele>
        <time>2021-06-03T09:45:10.000Z</time>
      </trkpt>
      <trkpt lat="44.98941" lon="-0.28221">
        <ele>33.6</ele>
        <time>2021-06-03T09:45:11.000Z</time>
      </trkpt>
      <trkpt lat="44.98943" lon="-0.28213">
        <ele>33.6</ele>
        <time>2021-06-03T09:45:12.000Z</time>
      </trkpt>
      <trkpt lat="44.98945" lon="-0.28206">
        <ele>34</ele>
        <time>2021-06-03T09:45:13.000Z</time>
      </trkpt>
      <trkpt lat="44.98948" lon="-0.28199">
        <ele>34.3</ele>
        <time>2021-06-03T09:45:14.000Z</time>
      </trkpt>
      <trkpt lat="44.9895" lon="-0.28191">
        <ele>34.6</ele>
        <time>2021-06-03T09:45:15.000Z</time>
      </trkpt>
      <trkpt lat="44.98952" lon="-0.28184">
        <ele>34.5</ele>
        <time>2021-06-03T09:45:16.000Z</time>
      </trkpt>
      <trkpt lat="44.98954" lon="-0.28177">
        <ele>34.4</ele>
        <time>2021-06-03T09:45:17.000Z</time>
      </trkpt>
      <trkpt lat="44.98957" lon="-0.2817">
        <ele>34.4</ele>
        <time>2021-06-03T09:45:18.000Z</time>
      </trkpt>
      <trkpt lat="44.98959" lon="-0.28164">
        <ele>34.3</ele>
        <time>2021-06-03T09:45:19.000Z</time>
      </trkpt>
      <trkpt lat="44.98961" lon="-0.28157">
        <ele>34.1</ele>
        <time>2021-06-03T09:45:20.000Z</time>
      </trkpt>
      <trkpt lat="44.98963" lon="-0.28151">
        <ele>33.8</ele>
        <time>2021-06-03T09:45:21.000Z</time>
      </trkpt>
      <trkpt lat="44.98966" lon="-0.28145">
        <ele>33.7</ele>
        <time>2021-06-03T09:45:22.000Z</time>
      </trkpt>
      <trkpt lat="44.98968" lon="-0.28139">
        <ele>33.5</ele>
        <time>2021-06-03T09:45:23.000Z</time>
      </trkpt>
      <trkpt lat="44.9897" lon="-0.28133">
        <ele>33.4</ele>
        <time>2021-06-03T09:45:24.000Z</time>
      </trkpt>
      <trkpt lat="44.98973" lon="-0.28128">
        <ele>33.4</ele>
        <time>2021-06-03T09:45:25.000Z</time>
      </trkpt>
      <trkpt lat="44.98975" lon="-0.28122">
        <ele>33.4</ele>
        <time>2021-06-03T09:45:26.000Z</time>
      </trkpt>
      <trkpt lat="44.98977" lon="-0.28116">
        <ele>33.4</ele>
        <time>2021-06-03T09:45:27.000Z</time>
      </trkpt>
      <trkpt lat="44.9898" lon="-0.2811">
        <ele>33.1</ele>
        <time>2021-06-03T09:45:28.000Z</time>
      </trkpt>
      <trkpt lat="44.98982" lon="-0.28104">
        <ele>32.9</ele>
        <time>2021-06-03T09:45:29.000Z</time>
      </trkpt>
      <trkpt lat="44.98984" lon="-0.28098">
        <ele>32.9</ele>
        <time>2021-06-03T09:45:30.000Z</time>
      </trkpt>
      <trkpt lat="44.98986" lon="-0.28092">
        <ele>32.9</ele>
        <time>2021-06-03T09:45:31.000Z</time>
      </trkpt>
      <trkpt lat="44.98989" lon="-0.28086">
        <ele>32.7</ele>
        <time>2021-06-03T09:45:32.000Z</time>
      </trkpt>
      <trkpt lat="44.98991" lon="-0.2808">
        <ele>32.6</ele>
        <time>2021-06-03T09:45:33.000Z</time>
      </trkpt>
      <trkpt lat="44.98993" lon="-0.28074">
        <ele>32.5</ele>
        <time>2021-06-03T09:45:34.000Z</time>
      </trkpt>
      <trkpt lat="44.98996" lon="-0.28069">
        <ele>32.6</ele>
        <time>2021-06-03T09:45:35.000Z</time>
      </trkpt>
      <trkpt lat="44.98998" lon="-0.28063">
        <ele>32.6</ele>
        <time>2021-06-03T09:45:36.000Z</time>
      </trkpt>
      <trkpt lat="44.99001" lon="-0.28057">
        <ele>32.7</ele>
        <time>2021-06-03T09:45:37.000Z</time>
      </trkpt>
      <trkpt lat="44.99003" lon="-0.28051">
        <ele>32.8</ele>
        <time>2021-06-03T09:45:38.000Z</time>
      </trkpt>
      <trkpt lat="44.99005" lon="-0.28045">
        <ele>32.8</ele>
        <time>2021-06-03T09:45:39.000Z</time>
      </trkpt>
      <trkpt lat="44.99007" lon="-0.28039">
        <ele>32.7</ele>
        <time>2021-06-03T09:45:40.000Z</time>
      </trkpt>
      <trkpt lat="44.99009" lon="-0.28033">
        <ele>32.7</ele>
        <time>2021-06-03T09:45:41.000Z</time>
      </trkpt>
      <trkpt lat="44.99012" lon="-0.28027">
        <ele>32.7</ele>
        <time>2021-06-03T09:45:42.000Z</time>
      </trkpt>
      <trkpt lat="44.99014" lon="-0.28022">
        <ele>32.7</ele>
        <time>2021-06-03T09:45:43.000Z</time>
      </trkpt>
      <trkpt lat="44.99017" lon="-0.28016">
        <ele>32.4</ele>
        <time>2021-06-03T09:45:44.000Z</time>
      </trkpt>
      <trkpt lat="44.99019" lon="-0.2801">
        <ele>32.2</ele>
        <time>2021-06-03T09:45:45.000Z</time>
      </trkpt>
      <trkpt lat="44.99022" lon="-0.28004">
        <ele>32</ele>
        <time>2021-06-03T09:45:46.000Z</time>
      </trkpt>
      <trkpt lat="44.99025" lon="-0.27997">
        <ele>31.8</ele>
        <time>2021-06-03T09:45:47.000Z</time>
      </trkpt>
      <trkpt lat="44.99028" lon="-0.27991">
        <ele>31.6</ele>
        <time>2021-06-03T09:45:48.000Z</time>
      </trkpt>
      <trkpt lat="44.99031" lon="-0.27985">
        <ele>31.2</ele>
        <time>2021-06-03T09:45:49.000Z</time>
      </trkpt>
      <trkpt lat="44.99034" lon="-0.27978">
        <ele>30.9</ele>
        <time>2021-06-03T09:45:50.000Z</time>
      </trkpt>
      <trkpt lat="44.99038" lon="-0.27972">
        <ele>30.7</ele>
        <time>2021-06-03T09:45:51.000Z</time>
      </trkpt>
      <trkpt lat="44.99041" lon="-0.27965">
        <ele>30.6</ele>
        <time>2021-06-03T09:45:52.000Z</time>
      </trkpt>
      <trkpt lat="44.99044" lon="-0.27958">
        <ele>30.5</ele>
        <time>2021-06-03T09:45:53.000Z</time>
      </trkpt>
      <trkpt lat="44.99047" lon="-0.27952">
        <ele>30.3</ele>
        <time>2021-06-03T09:45:54.000Z</time>
      </trkpt>
      <trkpt lat="44.9905" lon="-0.27945">
        <ele>30.1</ele>
        <time>2021-06-03T09:45:55.000Z</time>
      </trkpt>
      <trkpt lat="44.99054" lon="-0.27939">
        <ele>30.1</ele>
        <time>2021-06-03T09:45:56.000Z</time>
      </trkpt>
      <trkpt lat="44.99057" lon="-0.27932">
        <ele>30</ele>
        <time>2021-06-03T09:45:57.000Z</time>
      </trkpt>
      <trkpt lat="44.99061" lon="-0.27926">
        <ele>30</ele>
        <time>2021-06-03T09:45:58.000Z</time>
      </trkpt>
      <trkpt lat="44.99064" lon="-0.27919">
        <ele>30</ele>
        <time>2021-06-03T09:45:59.000Z</time>
      </trkpt>
      <trkpt lat="44.99068" lon="-0.27913">
        <ele>30</ele>
        <time>2021-06-03T09:46:00.000Z</time>
      </trkpt>
      <trkpt lat="44.99071" lon="-0.27906">
        <ele>29.9</ele>
        <time>2021-06-03T09:46:01.000Z</time>
      </trkpt>
      <trkpt lat="44.99075" lon="-0.27899">
        <ele>29.9</ele>
        <time>2021-06-03T09:46:02.000Z</time>
      </trkpt>
      <trkpt lat="44.99079" lon="-0.27893">
        <ele>29.4</ele>
        <time>2021-06-03T09:46:03.000Z</time>
      </trkpt>
      <trkpt lat="44.99083" lon="-0.27887">
        <ele>29.1</ele>
        <time>2021-06-03T09:46:04.000Z</time>
      </trkpt>
      <trkpt lat="44.99088" lon="-0.27881">
        <ele>28.7</ele>
        <time>2021-06-03T09:46:05.000Z</time>
      </trkpt>
      <trkpt lat="44.99093" lon="-0.27875">
        <ele>28.4</ele>
        <time>2021-06-03T09:46:06.000Z</time>
      </trkpt>
      <trkpt lat="44.99098" lon="-0.27869">
        <ele>28.2</ele>
        <time>2021-06-03T09:46:07.000Z</time>
      </trkpt>
      <trkpt lat="44.99103" lon="-0.27862">
        <ele>28</ele>
        <time>2021-06-03T09:46:08.000Z</time>
      </trkpt>
      <trkpt lat="44.99107" lon="-0.27855">
        <ele>27.9</ele>
        <time>2021-06-03T09:46:09.000Z</time>
      </trkpt>
      <trkpt lat="44.99112" lon="-0.27848">
        <ele>27.8</ele>
        <time>2021-06-03T09:46:10.000Z</time>
      </trkpt>
      <trkpt lat="44.99116" lon="-0.2784">
        <ele>27.8</ele>
        <time>2021-06-03T09:46:11.000Z</time>
      </trkpt>
      <trkpt lat="44.99121" lon="-0.27832">
        <ele>27.8</ele>
        <time>2021-06-03T09:46:12.000Z</time>
      </trkpt>
      <trkpt lat="44.99124" lon="-0.27824">
        <ele>27.5</ele>
        <time>2021-06-03T09:46:13.000Z</time>
      </trkpt>
      <trkpt lat="44.99128" lon="-0.27816">
        <ele>27.2</ele>
        <time>2021-06-03T09:46:14.000Z</time>
      </trkpt>
      <trkpt lat="44.99131" lon="-0.27807">
        <ele>26.7</ele>
        <time>2021-06-03T09:46:15.000Z</time>
      </trkpt>
      <trkpt lat="44.99135" lon="-0.27798">
        <ele>26.4</ele>
        <time>2021-06-03T09:46:16.000Z</time>
      </trkpt>
      <trkpt lat="44.99138" lon="-0.2779">
        <ele>25.8</ele>
        <time>2021-06-03T09:46:17.000Z</time>
      </trkpt>
      <trkpt lat="44.99141" lon="-0.27781">
        <ele>25.4</ele>
        <time>2021-06-03T09:46:18.000Z</time>
      </trkpt>
      <trkpt lat="44.99144" lon="-0.27773">
        <ele>25.1</ele>
        <time>2021-06-03T09:46:19.000Z</time>
      </trkpt>
      <trkpt lat="44.99147" lon="-0.27764">
        <ele>24.8</ele>
        <time>2021-06-03T09:46:20.000Z</time>
      </trkpt>
      <trkpt lat="44.9915" lon="-0.27756">
        <ele>24.6</ele>
        <time>2021-06-03T09:46:21.000Z</time>
      </trkpt>
      <trkpt lat="44.99153" lon="-0.27747">
        <ele>24.6</ele>
        <time>2021-06-03T09:46:22.000Z</time>
      </trkpt>
      <trkpt lat="44.99155" lon="-0.27739">
        <ele>24.5</ele>
        <time>2021-06-03T09:46:23.000Z</time>
      </trkpt>
      <trkpt lat="44.99158" lon="-0.27731">
        <ele>24.3</ele>
        <time>2021-06-03T09:46:24.000Z</time>
      </trkpt>
      <trkpt lat="44.9916" lon="-0.27722">
        <ele>24.1</ele>
        <time>2021-06-03T09:46:25.000Z</time>
      </trkpt>
      <trkpt lat="44.99162" lon="-0.27714">
        <ele>24</ele>
        <time>2021-06-03T09:46:26.000Z</time>
      </trkpt>
      <trkpt lat="44.99164" lon="-0.27706">
        <ele>24.2</ele>
        <time>2021-06-03T09:46:27.000Z</time>
      </trkpt>
      <trkpt lat="44.99166" lon="-0.27698">
        <ele>24.3</ele>
        <time>2021-06-03T09:46:28.000Z</time>
      </trkpt>
      <trkpt lat="44.99168" lon="-0.27689">
        <ele>24.1</ele>
        <time>2021-06-03T09:46:29.000Z</time>
      </trkpt>
      <trkpt lat="44.99169" lon="-0.27681">
        <ele>23.9</ele>
        <time>2021-06-03T09:46:30.000Z</time>
      </trkpt>
      <trkpt lat="44.9917" lon="-0.27673">
        <ele>23.8</ele>
        <time>2021-06-03T09:46:31.000Z</time>
      </trkpt>
      <trkpt lat="44.99171" lon="-0.27665">
        <ele>24.1</ele>
        <time>2021-06-03T09:46:32.000Z</time>
      </trkpt>
      <trkpt lat="44.99172" lon="-0.27658">
        <ele>24.3</ele>
        <time>2021-06-03T09:46:33.000Z</time>
      </trkpt>
      <trkpt lat="44.99172" lon="-0.2765">
        <ele>24.3</ele>
        <time>2021-06-03T09:46:34.000Z</time>
      </trkpt>
      <trkpt lat="44.99173" lon="-0.27642">
        <ele>24.3</ele>
        <time>2021-06-03T09:46:35.000Z</time>
      </trkpt>
      <trkpt lat="44.99174" lon="-0.27635">
        <ele>24.3</ele>
        <time>2021-06-03T09:46:36.000Z</time>
      </trkpt>
      <trkpt lat="44.99175" lon="-0.27628">
        <ele>24.3</ele>
        <time>2021-06-03T09:46:37.000Z</time>
      </trkpt>
      <trkpt lat="44.99177" lon="-0.27621">
        <ele>24.2</ele>
        <time>2021-06-03T09:46:38.000Z</time>
      </trkpt>
      <trkpt lat="44.99178" lon="-0.27613">
        <ele>24.2</ele>
        <time>2021-06-03T09:46:39.000Z</time>
      </trkpt>
      <trkpt lat="44.99178" lon="-0.27606">
        <ele>24.2</ele>
        <time>2021-06-03T09:46:40.000Z</time>
      </trkpt>
      <trkpt lat="44.99178" lon="-0.27598">
        <ele>24</ele>
        <time>2021-06-03T09:46:41.000Z</time>
      </trkpt>
      <trkpt lat="44.99178" lon="-0.27591">
        <ele>23.9</ele>
        <time>2021-06-03T09:46:42.000Z</time>
      </trkpt>
      <trkpt lat="44.99178" lon="-0.27583">
        <ele>23.9</ele>
        <time>2021-06-03T09:46:43.000Z</time>
      </trkpt>
      <trkpt lat="44.99178" lon="-0.27577">
        <ele>24</ele>
        <time>2021-06-03T09:46:44.000Z</time>
      </trkpt>
      <trkpt lat="44.99178" lon="-0.2757">
        <ele>24.1</ele>
        <time>2021-06-03T09:46:45.000Z</time>
      </trkpt>
      <trkpt lat="44.99179" lon="-0.27563">
        <ele>23.8</ele>
        <time>2021-06-03T09:46:46.000Z</time>
      </trkpt>
      <trkpt lat="44.99179" lon="-0.27556">
        <ele>23.6</ele>
        <time>2021-06-03T09:46:47.000Z</time>
      </trkpt>
      <trkpt lat="44.99179" lon="-0.27549">
        <ele>23.5</ele>
        <time>2021-06-03T09:46:48.000Z</time>
      </trkpt>
      <trkpt lat="44.99178" lon="-0.27537">
        <ele>23.4</ele>
        <time>2021-06-03T09:46:50.000Z</time>
      </trkpt>
      <trkpt lat="44.99179" lon="-0.27525">
        <ele>24</ele>
        <time>2021-06-03T09:46:53.000Z</time>
      </trkpt>
      <trkpt lat="44.9918" lon="-0.27515">
        <ele>24.2</ele>
        <time>2021-06-03T09:46:55.000Z</time>
      </trkpt>
      <trkpt lat="44.9918" lon="-0.27505">
        <ele>24.6</ele>
        <time>2021-06-03T09:46:57.000Z</time>
      </trkpt>
      <trkpt lat="44.99181" lon="-0.27494">
        <ele>24.8</ele>
        <time>2021-06-03T09:46:59.000Z</time>
      </trkpt>
      <trkpt lat="44.99184" lon="-0.27484">
        <ele>25.1</ele>
        <time>2021-06-03T09:47:01.000Z</time>
      </trkpt>
      <trkpt lat="44.99187" lon="-0.27474">
        <ele>25</ele>
        <time>2021-06-03T09:47:03.000Z</time>
      </trkpt>
      <trkpt lat="44.9919" lon="-0.27465">
        <ele>24.8</ele>
        <time>2021-06-03T09:47:05.000Z</time>
      </trkpt>
      <trkpt lat="44.99193" lon="-0.27457">
        <ele>24.8</ele>
        <time>2021-06-03T09:47:07.000Z</time>
      </trkpt>
      <trkpt lat="44.99195" lon="-0.27449">
        <ele>25</ele>
        <time>2021-06-03T09:47:09.000Z</time>
      </trkpt>
      <trkpt lat="44.99198" lon="-0.2744">
        <ele>25.1</ele>
        <time>2021-06-03T09:47:11.000Z</time>
      </trkpt>
      <trkpt lat="44.992" lon="-0.27431">
        <ele>24.9</ele>
        <time>2021-06-03T09:47:13.000Z</time>
      </trkpt>
      <trkpt lat="44.99202" lon="-0.27422">
        <ele>25.1</ele>
        <time>2021-06-03T09:47:15.000Z</time>
      </trkpt>
      <trkpt lat="44.99205" lon="-0.27412">
        <ele>25</ele>
        <time>2021-06-03T09:47:17.000Z</time>
      </trkpt>
      <trkpt lat="44.99208" lon="-0.27402">
        <ele>24.8</ele>
        <time>2021-06-03T09:47:19.000Z</time>
      </trkpt>
      <trkpt lat="44.99211" lon="-0.27392">
        <ele>24.5</ele>
        <time>2021-06-03T09:47:21.000Z</time>
      </trkpt>
      <trkpt lat="44.99215" lon="-0.27381">
        <ele>24.2</ele>
        <time>2021-06-03T09:47:23.000Z</time>
      </trkpt>
      <trkpt lat="44.99218" lon="-0.2737">
        <ele>23.9</ele>
        <time>2021-06-03T09:47:25.000Z</time>
      </trkpt>
      <trkpt lat="44.99221" lon="-0.2736">
        <ele>24.2</ele>
        <time>2021-06-03T09:47:27.000Z</time>
      </trkpt>
      <trkpt lat="44.99223" lon="-0.2735">
        <ele>23.8</ele>
        <time>2021-06-03T09:47:29.000Z</time>
      </trkpt>
      <trkpt lat="44.99227" lon="-0.2734">
        <ele>23.3</ele>
        <time>2021-06-03T09:47:31.000Z</time>
      </trkpt>
      <trkpt lat="44.9923" lon="-0.2733">
        <ele>23.2</ele>
        <time>2021-06-03T09:47:33.000Z</time>
      </trkpt>
      <trkpt lat="44.99233" lon="-0.2732">
        <ele>23.4</ele>
        <time>2021-06-03T09:47:35.000Z</time>
      </trkpt>
      <trkpt lat="44.99235" lon="-0.27311">
        <ele>23.6</ele>
        <time>2021-06-03T09:47:37.000Z</time>
      </trkpt>
      <trkpt lat="44.99238" lon="-0.27301">
        <ele>23.4</ele>
        <time>2021-06-03T09:47:39.000Z</time>
      </trkpt>
      <trkpt lat="44.99239" lon="-0.27296">
        <ele>23.1</ele>
        <time>2021-06-03T09:47:40.000Z</time>
      </trkpt>
      <trkpt lat="44.99243" lon="-0.27282">
        <ele>22.9</ele>
        <time>2021-06-03T09:47:43.000Z</time>
      </trkpt>
      <trkpt lat="44.99245" lon="-0.27273">
        <ele>22.8</ele>
        <time>2021-06-03T09:47:45.000Z</time>
      </trkpt>
      <trkpt lat="44.99248" lon="-0.27262">
        <ele>22.4</ele>
        <time>2021-06-03T09:47:48.000Z</time>
      </trkpt>
      <trkpt lat="44.99248" lon="-0.2725">
        <ele>21.3</ele>
        <time>2021-06-03T09:48:03.000Z</time>
      </trkpt>
      <trkpt lat="44.99242" lon="-0.27247">
        <ele>21.3</ele>
        <time>2021-06-03T09:48:06.000Z</time>
      </trkpt>
      <trkpt lat="44.99233" lon="-0.27244">
        <ele>21.6</ele>
        <time>2021-06-03T09:48:09.000Z</time>
      </trkpt>
      <trkpt lat="44.99227" lon="-0.27242">
        <ele>21.6</ele>
        <time>2021-06-03T09:48:11.000Z</time>
      </trkpt>
      <trkpt lat="44.9922" lon="-0.2724">
        <ele>21.5</ele>
        <time>2021-06-03T09:48:13.000Z</time>
      </trkpt>
      <trkpt lat="44.99213" lon="-0.2724">
        <ele>21.5</ele>
        <time>2021-06-03T09:48:15.000Z</time>
      </trkpt>
      <trkpt lat="44.99205" lon="-0.2724">
        <ele>21.4</ele>
        <time>2021-06-03T09:48:17.000Z</time>
      </trkpt>
      <trkpt lat="44.99197" lon="-0.2724">
        <ele>21.7</ele>
        <time>2021-06-03T09:48:19.000Z</time>
      </trkpt>
      <trkpt lat="44.99188" lon="-0.2724">
        <ele>22</ele>
        <time>2021-06-03T09:48:21.000Z</time>
      </trkpt>
      <trkpt lat="44.99184" lon="-0.2724">
        <ele>22.2</ele>
        <time>2021-06-03T09:48:22.000Z</time>
      </trkpt>
      <trkpt lat="44.99179" lon="-0.2724">
        <ele>22</ele>
        <time>2021-06-03T09:48:23.000Z</time>
      </trkpt>
      <trkpt lat="44.99175" lon="-0.27241">
        <ele>21.8</ele>
        <time>2021-06-03T09:48:24.000Z</time>
      </trkpt>
      <trkpt lat="44.99166" lon="-0.27243">
        <ele>21.9</ele>
        <time>2021-06-03T09:48:26.000Z</time>
      </trkpt>
      <trkpt lat="44.99158" lon="-0.27245">
        <ele>21.7</ele>
        <time>2021-06-03T09:48:28.000Z</time>
      </trkpt>
      <trkpt lat="44.9915" lon="-0.27248">
        <ele>22</ele>
        <time>2021-06-03T09:48:30.000Z</time>
      </trkpt>
      <trkpt lat="44.99141" lon="-0.27249">
        <ele>22.6</ele>
        <time>2021-06-03T09:48:32.000Z</time>
      </trkpt>
      <trkpt lat="44.99132" lon="-0.27249">
        <ele>22.4</ele>
        <time>2021-06-03T09:48:34.000Z</time>
      </trkpt>
      <trkpt lat="44.99124" lon="-0.27249">
        <ele>22.2</ele>
        <time>2021-06-03T09:48:36.000Z</time>
      </trkpt>
      <trkpt lat="44.99119" lon="-0.27249">
        <ele>22.1</ele>
        <time>2021-06-03T09:48:37.000Z</time>
      </trkpt>
      <trkpt lat="44.99114" lon="-0.27248">
        <ele>22.1</ele>
        <time>2021-06-03T09:48:38.000Z</time>
      </trkpt>
      <trkpt lat="44.99109" lon="-0.27247">
        <ele>22</ele>
        <time>2021-06-03T09:48:39.000Z</time>
      </trkpt>
      <trkpt lat="44.99105" lon="-0.27246">
        <ele>21.8</ele>
        <time>2021-06-03T09:48:40.000Z</time>
      </trkpt>
      <trkpt lat="44.991" lon="-0.27245">
        <ele>21.7</ele>
        <time>2021-06-03T09:48:41.000Z</time>
      </trkpt>
      <trkpt lat="44.99095" lon="-0.27245">
        <ele>21.5</ele>
        <time>2021-06-03T09:48:42.000Z</time>
      </trkpt>
      <trkpt lat="44.99091" lon="-0.27244">
        <ele>21.3</ele>
        <time>2021-06-03T09:48:43.000Z</time>
      </trkpt>
      <trkpt lat="44.99086" lon="-0.27242">
        <ele>21.5</ele>
        <time>2021-06-03T09:48:44.000Z</time>
      </trkpt>
      <trkpt lat="44.99082" lon="-0.2724">
        <ele>21.6</ele>
        <time>2021-06-03T09:48:45.000Z</time>
      </trkpt>
      <trkpt lat="44.99078" lon="-0.27236">
        <ele>21.7</ele>
        <time>2021-06-03T09:48:46.000Z</time>
      </trkpt>
      <trkpt lat="44.99075" lon="-0.2723">
        <ele>21.6</ele>
        <time>2021-06-03T09:48:47.000Z</time>
      </trkpt>
      <trkpt lat="44.99073" lon="-0.27224">
        <ele>21.5</ele>
        <time>2021-06-03T09:48:48.000Z</time>
      </trkpt>
      <trkpt lat="44.99071" lon="-0.27218">
        <ele>21.5</ele>
        <time>2021-06-03T09:48:49.000Z</time>
      </trkpt>
      <trkpt lat="44.9907" lon="-0.27211">
        <ele>21.5</ele>
        <time>2021-06-03T09:48:50.000Z</time>
      </trkpt>
      <trkpt lat="44.99069" lon="-0.27199">
        <ele>21.7</ele>
        <time>2021-06-03T09:48:52.000Z</time>
      </trkpt>
      <trkpt lat="44.99066" lon="-0.27187">
        <ele>21.7</ele>
        <time>2021-06-03T09:48:54.000Z</time>
      </trkpt>
      <trkpt lat="44.99064" lon="-0.27176">
        <ele>21.1</ele>
        <time>2021-06-03T09:48:56.000Z</time>
      </trkpt>
      <trkpt lat="44.99061" lon="-0.27166">
        <ele>20</ele>
        <time>2021-06-03T09:48:59.000Z</time>
      </trkpt>
      <trkpt lat="44.99061" lon="-0.27156">
        <ele>19.8</ele>
        <time>2021-06-03T09:49:02.000Z</time>
      </trkpt>
      <trkpt lat="44.99065" lon="-0.27146">
        <ele>19.6</ele>
        <time>2021-06-03T09:49:04.000Z</time>
      </trkpt>
      <trkpt lat="44.99069" lon="-0.27136">
        <ele>19.5</ele>
        <time>2021-06-03T09:49:06.000Z</time>
      </trkpt>
      <trkpt lat="44.99072" lon="-0.2713">
        <ele>19.4</ele>
        <time>2021-06-03T09:49:07.000Z</time>
      </trkpt>
      <trkpt lat="44.99074" lon="-0.27125">
        <ele>19</ele>
        <time>2021-06-03T09:49:08.000Z</time>
      </trkpt>
      <trkpt lat="44.99077" lon="-0.27118">
        <ele>18.7</ele>
        <time>2021-06-03T09:49:09.000Z</time>
      </trkpt>
      <trkpt lat="44.9908" lon="-0.27112">
        <ele>18.5</ele>
        <time>2021-06-03T09:49:10.000Z</time>
      </trkpt>
      <trkpt lat="44.99084" lon="-0.27105">
        <ele>18.3</ele>
        <time>2021-06-03T09:49:11.000Z</time>
      </trkpt>
      <trkpt lat="44.99087" lon="-0.27097">
        <ele>18.1</ele>
        <time>2021-06-03T09:49:12.000Z</time>
      </trkpt>
      <trkpt lat="44.99091" lon="-0.2709">
        <ele>17.8</ele>
        <time>2021-06-03T09:49:13.000Z</time>
      </trkpt>
      <trkpt lat="44.99095" lon="-0.27082">
        <ele>17.5</ele>
        <time>2021-06-03T09:49:14.000Z</time>
      </trkpt>
      <trkpt lat="44.99099" lon="-0.27074">
        <ele>17.4</ele>
        <time>2021-06-03T09:49:15.000Z</time>
      </trkpt>
      <trkpt lat="44.99103" lon="-0.27067">
        <ele>17.2</ele>
        <time>2021-06-03T09:49:16.000Z</time>
      </trkpt>
      <trkpt lat="44.99107" lon="-0.27059">
        <ele>17.1</ele>
        <time>2021-06-03T09:49:17.000Z</time>
      </trkpt>
      <trkpt lat="44.99111" lon="-0.27051">
        <ele>16.8</ele>
        <time>2021-06-03T09:49:18.000Z</time>
      </trkpt>
      <trkpt lat="44.99115" lon="-0.27043">
        <ele>16.6</ele>
        <time>2021-06-03T09:49:19.000Z</time>
      </trkpt>
      <trkpt lat="44.99118" lon="-0.27036">
        <ele>16.3</ele>
        <time>2021-06-03T09:49:20.000Z</time>
      </trkpt>
      <trkpt lat="44.9912" lon="-0.2703">
        <ele>16.1</ele>
        <time>2021-06-03T09:49:21.000Z</time>
      </trkpt>
      <trkpt lat="44.99123" lon="-0.27024">
        <ele>15.9</ele>
        <time>2021-06-03T09:49:22.000Z</time>
      </trkpt>
      <trkpt lat="44.99126" lon="-0.27018">
        <ele>15.8</ele>
        <time>2021-06-03T09:49:23.000Z</time>
      </trkpt>
      <trkpt lat="44.9913" lon="-0.27012">
        <ele>15.7</ele>
        <time>2021-06-03T09:49:24.000Z</time>
      </trkpt>
      <trkpt lat="44.99133" lon="-0.27005">
        <ele>15.5</ele>
        <time>2021-06-03T09:49:25.000Z</time>
      </trkpt>
      <trkpt lat="44.99136" lon="-0.26999">
        <ele>15.4</ele>
        <time>2021-06-03T09:49:26.000Z</time>
      </trkpt>
      <trkpt lat="44.9914" lon="-0.26992">
        <ele>15</ele>
        <time>2021-06-03T09:49:27.000Z</time>
      </trkpt>
      <trkpt lat="44.99143" lon="-0.26985">
        <ele>14.7</ele>
        <time>2021-06-03T09:49:28.000Z</time>
      </trkpt>
      <trkpt lat="44.99145" lon="-0.26977">
        <ele>14.5</ele>
        <time>2021-06-03T09:49:29.000Z</time>
      </trkpt>
      <trkpt lat="44.99147" lon="-0.26968">
        <ele>14.3</ele>
        <time>2021-06-03T09:49:30.000Z</time>
      </trkpt>
      <trkpt lat="44.99148" lon="-0.2696">
        <ele>14.1</ele>
        <time>2021-06-03T09:49:31.000Z</time>
      </trkpt>
      <trkpt lat="44.99149" lon="-0.26951">
        <ele>13.8</ele>
        <time>2021-06-03T09:49:32.000Z</time>
      </trkpt>
      <trkpt lat="44.9915" lon="-0.26942">
        <ele>13.6</ele>
        <time>2021-06-03T09:49:33.000Z</time>
      </trkpt>
      <trkpt lat="44.99151" lon="-0.26933">
        <ele>13.3</ele>
        <time>2021-06-03T09:49:34.000Z</time>
      </trkpt>
      <trkpt lat="44.99152" lon="-0.26924">
        <ele>13</ele>
        <time>2021-06-03T09:49:35.000Z</time>
      </trkpt>
      <trkpt lat="44.99152" lon="-0.26916">
        <ele>12.8</ele>
        <time>2021-06-03T09:49:36.000Z</time>
      </trkpt>
      <trkpt lat="44.99153" lon="-0.26907">
        <ele>12.5</ele>
        <time>2021-06-03T09:49:37.000Z</time>
      </trkpt>
      <trkpt lat="44.99153" lon="-0.26899">
        <ele>12.2</ele>
        <time>2021-06-03T09:49:38.000Z</time>
      </trkpt>
      <trkpt lat="44.99154" lon="-0.2689">
        <ele>12.2</ele>
        <time>2021-06-03T09:49:39.000Z</time>
      </trkpt>
      <trkpt lat="44.99155" lon="-0.26882">
        <ele>12.1</ele>
        <time>2021-06-03T09:49:40.000Z</time>
      </trkpt>
      <trkpt lat="44.99156" lon="-0.26873">
        <ele>11.7</ele>
        <time>2021-06-03T09:49:41.000Z</time>
      </trkpt>
      <trkpt lat="44.99157" lon="-0.26864">
        <ele>11.5</ele>
        <time>2021-06-03T09:49:42.000Z</time>
      </trkpt>
      <trkpt lat="44.99158" lon="-0.26855">
        <ele>11.2</ele>
        <time>2021-06-03T09:49:43.000Z</time>
      </trkpt>
      <trkpt lat="44.99159" lon="-0.26846">
        <ele>11.2</ele>
        <time>2021-06-03T09:49:44.000Z</time>
      </trkpt>
      <trkpt lat="44.99161" lon="-0.26838">
        <ele>11.1</ele>
        <time>2021-06-03T09:49:45.000Z</time>
      </trkpt>
      <trkpt lat="44.99162" lon="-0.26829">
        <ele>10.9</ele>
        <time>2021-06-03T09:49:46.000Z</time>
      </trkpt>
      <trkpt lat="44.99163" lon="-0.26821">
        <ele>10.7</ele>
        <time>2021-06-03T09:49:47.000Z</time>
      </trkpt>
      <trkpt lat="44.99164" lon="-0.26813">
        <ele>10.6</ele>
        <time>2021-06-03T09:49:48.000Z</time>
      </trkpt>
      <trkpt lat="44.99164" lon="-0.26806">
        <ele>10.5</ele>
        <time>2021-06-03T09:49:49.000Z</time>
      </trkpt>
      <trkpt lat="44.99166" lon="-0.26798">
        <ele>10.5</ele>
        <time>2021-06-03T09:49:50.000Z</time>
      </trkpt>
      <trkpt lat="44.99169" lon="-0.26791">
        <ele>10.4</ele>
        <time>2021-06-03T09:49:51.000Z</time>
      </trkpt>
      <trkpt lat="44.99172" lon="-0.26785">
        <ele>10.3</ele>
        <time>2021-06-03T09:49:52.000Z</time>
      </trkpt>
      <trkpt lat="44.99176" lon="-0.2678">
        <ele>10.2</ele>
        <time>2021-06-03T09:49:53.000Z</time>
      </trkpt>
      <trkpt lat="44.9918" lon="-0.26773">
        <ele>10.2</ele>
        <time>2021-06-03T09:49:54.000Z</time>
      </trkpt>
      <trkpt lat="44.99183" lon="-0.26766">
        <ele>10.2</ele>
        <time>2021-06-03T09:49:55.000Z</time>
      </trkpt>
      <trkpt lat="44.99187" lon="-0.26758">
        <ele>10</ele>
        <time>2021-06-03T09:49:56.000Z</time>
      </trkpt>
      <trkpt lat="44.9919" lon="-0.2675">
        <ele>9.8</ele>
        <time>2021-06-03T09:49:57.000Z</time>
      </trkpt>
      <trkpt lat="44.99194" lon="-0.26742">
        <ele>9.4</ele>
        <time>2021-06-03T09:49:58.000Z</time>
      </trkpt>
      <trkpt lat="44.99197" lon="-0.26733">
        <ele>9.1</ele>
        <time>2021-06-03T09:49:59.000Z</time>
      </trkpt>
      <trkpt lat="44.992" lon="-0.26725">
        <ele>9.1</ele>
        <time>2021-06-03T09:50:00.000Z</time>
      </trkpt>
      <trkpt lat="44.99204" lon="-0.26716">
        <ele>9</ele>
        <time>2021-06-03T09:50:01.000Z</time>
      </trkpt>
      <trkpt lat="44.99207" lon="-0.26708">
        <ele>9</ele>
        <time>2021-06-03T09:50:02.000Z</time>
      </trkpt>
      <trkpt lat="44.99211" lon="-0.267">
        <ele>8.6</ele>
        <time>2021-06-03T09:50:03.000Z</time>
      </trkpt>
      <trkpt lat="44.99215" lon="-0.26691">
        <ele>8.3</ele>
        <time>2021-06-03T09:50:04.000Z</time>
      </trkpt>
      <trkpt lat="44.99218" lon="-0.26683">
        <ele>8.3</ele>
        <time>2021-06-03T09:50:05.000Z</time>
      </trkpt>
      <trkpt lat="44.99222" lon="-0.26674">
        <ele>8.3</ele>
        <time>2021-06-03T09:50:06.000Z</time>
      </trkpt>
      <trkpt lat="44.99226" lon="-0.26666">
        <ele>8.3</ele>
        <time>2021-06-03T09:50:07.000Z</time>
      </trkpt>
      <trkpt lat="44.9923" lon="-0.26658">
        <ele>8</ele>
        <time>2021-06-03T09:50:08.000Z</time>
      </trkpt>
      <trkpt lat="44.99234" lon="-0.2665">
        <ele>7.7</ele>
        <time>2021-06-03T09:50:09.000Z</time>
      </trkpt>
      <trkpt lat="44.99238" lon="-0.26642">
        <ele>7.6</ele>
        <time>2021-06-03T09:50:10.000Z</time>
      </trkpt>
      <trkpt lat="44.99243" lon="-0.26634">
        <ele>7.4</ele>
        <time>2021-06-03T09:50:11.000Z</time>
      </trkpt>
      <trkpt lat="44.99247" lon="-0.26626">
        <ele>7.1</ele>
        <time>2021-06-03T09:50:12.000Z</time>
      </trkpt>
      <trkpt lat="44.99251" lon="-0.26619">
        <ele>6.8</ele>
        <time>2021-06-03T09:50:13.000Z</time>
      </trkpt>
      <trkpt lat="44.99255" lon="-0.26611">
        <ele>6.6</ele>
        <time>2021-06-03T09:50:14.000Z</time>
      </trkpt>
      <trkpt lat="44.9926" lon="-0.26603">
        <ele>6.3</ele>
        <time>2021-06-03T09:50:15.000Z</time>
      </trkpt>
      <trkpt lat="44.99264" lon="-0.26596">
        <ele>6.1</ele>
        <time>2021-06-03T09:50:16.000Z</time>
      </trkpt>
      <trkpt lat="44.99268" lon="-0.26588">
        <ele>6.1</ele>
        <time>2021-06-03T09:50:17.000Z</time>
      </trkpt>
      <trkpt lat="44.99271" lon="-0.26581">
        <ele>6</ele>
        <time>2021-06-03T09:50:18.000Z</time>
      </trkpt>
      <trkpt lat="44.99275" lon="-0.26574">
        <ele>6</ele>
        <time>2021-06-03T09:50:19.000Z</time>
      </trkpt>
      <trkpt lat="44.99279" lon="-0.26567">
        <ele>5.9</ele>
        <time>2021-06-03T09:50:20.000Z</time>
      </trkpt>
      <trkpt lat="44.99283" lon="-0.26559">
        <ele>5.9</ele>
        <time>2021-06-03T09:50:21.000Z</time>
      </trkpt>
      <trkpt lat="44.99287" lon="-0.26552">
        <ele>5.8</ele>
        <time>2021-06-03T09:50:22.000Z</time>
      </trkpt>
      <trkpt lat="44.9929" lon="-0.26546">
        <ele>5.7</ele>
        <time>2021-06-03T09:50:23.000Z</time>
      </trkpt>
      <trkpt lat="44.99294" lon="-0.26539">
        <ele>5.1</ele>
        <time>2021-06-03T09:50:24.000Z</time>
      </trkpt>
      <trkpt lat="44.99297" lon="-0.26532">
        <ele>4.8</ele>
        <time>2021-06-03T09:50:25.000Z</time>
      </trkpt>
      <trkpt lat="44.99301" lon="-0.26525">
        <ele>4.5</ele>
        <time>2021-06-03T09:50:26.000Z</time>
      </trkpt>
      <trkpt lat="44.99305" lon="-0.26519">
        <ele>4.4</ele>
        <time>2021-06-03T09:50:27.000Z</time>
      </trkpt>
      <trkpt lat="44.99309" lon="-0.26513">
        <ele>4.4</ele>
        <time>2021-06-03T09:50:28.000Z</time>
      </trkpt>
      <trkpt lat="44.99313" lon="-0.26506">
        <ele>4.5</ele>
        <time>2021-06-03T09:50:29.000Z</time>
      </trkpt>
      <trkpt lat="44.99317" lon="-0.26499">
        <ele>4.5</ele>
        <time>2021-06-03T09:50:30.000Z</time>
      </trkpt>
      <trkpt lat="44.99321" lon="-0.26493">
        <ele>4.7</ele>
        <time>2021-06-03T09:50:31.000Z</time>
      </trkpt>
      <trkpt lat="44.99325" lon="-0.26486">
        <ele>4.8</ele>
        <time>2021-06-03T09:50:32.000Z</time>
      </trkpt>
      <trkpt lat="44.99329" lon="-0.2648">
        <ele>4.8</ele>
        <time>2021-06-03T09:50:33.000Z</time>
      </trkpt>
      <trkpt lat="44.99334" lon="-0.26473">
        <ele>4.8</ele>
        <time>2021-06-03T09:50:34.000Z</time>
      </trkpt>
      <trkpt lat="44.99338" lon="-0.26467">
        <ele>4.7</ele>
        <time>2021-06-03T09:50:35.000Z</time>
      </trkpt>
      <trkpt lat="44.99342" lon="-0.26461">
        <ele>4.6</ele>
        <time>2021-06-03T09:50:36.000Z</time>
      </trkpt>
      <trkpt lat="44.99346" lon="-0.26456">
        <ele>4.5</ele>
        <time>2021-06-03T09:50:37.000Z</time>
      </trkpt>
      <trkpt lat="44.9935" lon="-0.2645">
        <ele>4.9</ele>
        <time>2021-06-03T09:50:38.000Z</time>
      </trkpt>
      <trkpt lat="44.99354" lon="-0.26445">
        <ele>5.3</ele>
        <time>2021-06-03T09:50:39.000Z</time>
      </trkpt>
      <trkpt lat="44.99358" lon="-0.2644">
        <ele>5.5</ele>
        <time>2021-06-03T09:50:40.000Z</time>
      </trkpt>
      <trkpt lat="44.99362" lon="-0.26434">
        <ele>5</ele>
        <time>2021-06-03T09:50:41.000Z</time>
      </trkpt>
      <trkpt lat="44.99366" lon="-0.26429">
        <ele>4.7</ele>
        <time>2021-06-03T09:50:42.000Z</time>
      </trkpt>
      <trkpt lat="44.9937" lon="-0.26424">
        <ele>4.2</ele>
        <time>2021-06-03T09:50:43.000Z</time>
      </trkpt>
      <trkpt lat="44.99374" lon="-0.26419">
        <ele>3.8</ele>
        <time>2021-06-03T09:50:44.000Z</time>
      </trkpt>
      <trkpt lat="44.99378" lon="-0.26414">
        <ele>4</ele>
        <time>2021-06-03T09:50:45.000Z</time>
      </trkpt>
      <trkpt lat="44.99382" lon="-0.26408">
        <ele>4.1</ele>
        <time>2021-06-03T09:50:46.000Z</time>
      </trkpt>
      <trkpt lat="44.99386" lon="-0.26403">
        <ele>4.2</ele>
        <time>2021-06-03T09:50:47.000Z</time>
      </trkpt>
      <trkpt lat="44.9939" lon="-0.26398">
        <ele>4.3</ele>
        <time>2021-06-03T09:50:48.000Z</time>
      </trkpt>
      <trkpt lat="44.99393" lon="-0.26393">
        <ele>4.3</ele>
        <time>2021-06-03T09:50:49.000Z</time>
      </trkpt>
      <trkpt lat="44.994" lon="-0.26385">
        <ele>4.6</ele>
        <time>2021-06-03T09:50:51.000Z</time>
      </trkpt>
      <trkpt lat="44.99403" lon="-0.26381">
        <ele>4.7</ele>
        <time>2021-06-03T09:50:52.000Z</time>
      </trkpt>
      <trkpt lat="44.99407" lon="-0.26376">
        <ele>4.3</ele>
        <time>2021-06-03T09:50:53.000Z</time>
      </trkpt>
      <trkpt lat="44.9941" lon="-0.26372">
        <ele>3.9</ele>
        <time>2021-06-03T09:50:54.000Z</time>
      </trkpt>
      <trkpt lat="44.99414" lon="-0.26368">
        <ele>4.2</ele>
        <time>2021-06-03T09:50:55.000Z</time>
      </trkpt>
      <trkpt lat="44.99417" lon="-0.26364">
        <ele>4.4</ele>
        <time>2021-06-03T09:50:56.000Z</time>
      </trkpt>
      <trkpt lat="44.99421" lon="-0.2636">
        <ele>4.4</ele>
        <time>2021-06-03T09:50:57.000Z</time>
      </trkpt>
      <trkpt lat="44.99424" lon="-0.26355">
        <ele>4.3</ele>
        <time>2021-06-03T09:50:58.000Z</time>
      </trkpt>
      <trkpt lat="44.99428" lon="-0.26351">
        <ele>4.3</ele>
        <time>2021-06-03T09:50:59.000Z</time>
      </trkpt>
      <trkpt lat="44.99432" lon="-0.26347">
        <ele>4.3</ele>
        <time>2021-06-03T09:51:00.000Z</time>
      </trkpt>
      <trkpt lat="44.99435" lon="-0.26342">
        <ele>4.3</ele>
        <time>2021-06-03T09:51:01.000Z</time>
      </trkpt>
      <trkpt lat="44.99439" lon="-0.26338">
        <ele>4.2</ele>
        <time>2021-06-03T09:51:02.000Z</time>
      </trkpt>
      <trkpt lat="44.99443" lon="-0.26334">
        <ele>4.1</ele>
        <time>2021-06-03T09:51:03.000Z</time>
      </trkpt>
      <trkpt lat="44.99446" lon="-0.2633">
        <ele>4.2</ele>
        <time>2021-06-03T09:51:04.000Z</time>
      </trkpt>
      <trkpt lat="44.9945" lon="-0.26326">
        <ele>4.2</ele>
        <time>2021-06-03T09:51:05.000Z</time>
      </trkpt>
      <trkpt lat="44.99454" lon="-0.26322">
        <ele>4.3</ele>
        <time>2021-06-03T09:51:06.000Z</time>
      </trkpt>
      <trkpt lat="44.99457" lon="-0.26318">
        <ele>4.1</ele>
        <time>2021-06-03T09:51:07.000Z</time>
      </trkpt>
      <trkpt lat="44.99461" lon="-0.26314">
        <ele>4</ele>
        <time>2021-06-03T09:51:08.000Z</time>
      </trkpt>
      <trkpt lat="44.99464" lon="-0.2631">
        <ele>3.6</ele>
        <time>2021-06-03T09:51:09.000Z</time>
      </trkpt>
      <trkpt lat="44.99468" lon="-0.26306">
        <ele>3.3</ele>
        <time>2021-06-03T09:51:10.000Z</time>
      </trkpt>
      <trkpt lat="44.99472" lon="-0.26301">
        <ele>3.1</ele>
        <time>2021-06-03T09:51:11.000Z</time>
      </trkpt>
      <trkpt lat="44.99475" lon="-0.26297">
        <ele>3.4</ele>
        <time>2021-06-03T09:51:12.000Z</time>
      </trkpt>
      <trkpt lat="44.99479" lon="-0.26293">
        <ele>3.5</ele>
        <time>2021-06-03T09:51:13.000Z</time>
      </trkpt>
      <trkpt lat="44.99483" lon="-0.26289">
        <ele>3.7</ele>
        <time>2021-06-03T09:51:14.000Z</time>
      </trkpt>
      <trkpt lat="44.99488" lon="-0.26286">
        <ele>3.9</ele>
        <time>2021-06-03T09:51:15.000Z</time>
      </trkpt>
      <trkpt lat="44.99492" lon="-0.26282">
        <ele>3.8</ele>
        <time>2021-06-03T09:51:16.000Z</time>
      </trkpt>
      <trkpt lat="44.99496" lon="-0.26278">
        <ele>3.8</ele>
        <time>2021-06-03T09:51:17.000Z</time>
      </trkpt>
      <trkpt lat="44.995" lon="-0.26275">
        <ele>3.7</ele>
        <time>2021-06-03T09:51:18.000Z</time>
      </trkpt>
      <trkpt lat="44.99504" lon="-0.26271">
        <ele>3.9</ele>
        <time>2021-06-03T09:51:19.000Z</time>
      </trkpt>
      <trkpt lat="44.99508" lon="-0.26268">
        <ele>4.1</ele>
        <time>2021-06-03T09:51:20.000Z</time>
      </trkpt>
      <trkpt lat="44.99513" lon="-0.26264">
        <ele>4.2</ele>
        <time>2021-06-03T09:51:21.000Z</time>
      </trkpt>
      <trkpt lat="44.99517" lon="-0.26261">
        <ele>4.3</ele>
        <time>2021-06-03T09:51:22.000Z</time>
      </trkpt>
      <trkpt lat="44.99521" lon="-0.26257">
        <ele>4.4</ele>
        <time>2021-06-03T09:51:23.000Z</time>
      </trkpt>
      <trkpt lat="44.99525" lon="-0.26254">
        <ele>4.5</ele>
        <time>2021-06-03T09:51:24.000Z</time>
      </trkpt>
      <trkpt lat="44.99529" lon="-0.2625">
        <ele>4.6</ele>
        <time>2021-06-03T09:51:25.000Z</time>
      </trkpt>
      <trkpt lat="44.99533" lon="-0.26247">
        <ele>4.4</ele>
        <time>2021-06-03T09:51:26.000Z</time>
      </trkpt>
      <trkpt lat="44.99538" lon="-0.26244">
        <ele>4.3</ele>
        <time>2021-06-03T09:51:27.000Z</time>
      </trkpt>
      <trkpt lat="44.99542" lon="-0.26241">
        <ele>4.6</ele>
        <time>2021-06-03T09:51:28.000Z</time>
      </trkpt>
      <trkpt lat="44.99549" lon="-0.26235">
        <ele>5.1</ele>
        <time>2021-06-03T09:51:30.000Z</time>
      </trkpt>
      <trkpt lat="44.99556" lon="-0.26229">
        <ele>4.8</ele>
        <time>2021-06-03T09:51:32.000Z</time>
      </trkpt>
      <trkpt lat="44.99564" lon="-0.26223">
        <ele>5.2</ele>
        <time>2021-06-03T09:51:34.000Z</time>
      </trkpt>
      <trkpt lat="44.9957" lon="-0.26216">
        <ele>5.8</ele>
        <time>2021-06-03T09:51:36.000Z</time>
      </trkpt>
      <trkpt lat="44.99577" lon="-0.26209">
        <ele>5.8</ele>
        <time>2021-06-03T09:51:38.000Z</time>
      </trkpt>
      <trkpt lat="44.99584" lon="-0.26203">
        <ele>5.4</ele>
        <time>2021-06-03T09:51:40.000Z</time>
      </trkpt>
      <trkpt lat="44.99592" lon="-0.26196">
        <ele>5.2</ele>
        <time>2021-06-03T09:51:42.000Z</time>
      </trkpt>
      <trkpt lat="44.99595" lon="-0.26193">
        <ele>5.2</ele>
        <time>2021-06-03T09:51:43.000Z</time>
      </trkpt>
      <trkpt lat="44.99599" lon="-0.26189">
        <ele>5.2</ele>
        <time>2021-06-03T09:51:44.000Z</time>
      </trkpt>
      <trkpt lat="44.99607" lon="-0.26182">
        <ele>4.8</ele>
        <time>2021-06-03T09:51:46.000Z</time>
      </trkpt>
      <trkpt lat="44.99614" lon="-0.26175">
        <ele>5.1</ele>
        <time>2021-06-03T09:51:48.000Z</time>
      </trkpt>
      <trkpt lat="44.99621" lon="-0.26167">
        <ele>5.5</ele>
        <time>2021-06-03T09:51:50.000Z</time>
      </trkpt>
      <trkpt lat="44.99628" lon="-0.26159">
        <ele>5.9</ele>
        <time>2021-06-03T09:51:52.000Z</time>
      </trkpt>
      <trkpt lat="44.99634" lon="-0.26152">
        <ele>6.5</ele>
        <time>2021-06-03T09:51:54.000Z</time>
      </trkpt>
      <trkpt lat="44.99639" lon="-0.26144">
        <ele>7.1</ele>
        <time>2021-06-03T09:51:56.000Z</time>
      </trkpt>
      <trkpt lat="44.99645" lon="-0.26137">
        <ele>7.7</ele>
        <time>2021-06-03T09:51:58.000Z</time>
      </trkpt>
      <trkpt lat="44.99651" lon="-0.2613">
        <ele>7.9</ele>
        <time>2021-06-03T09:52:00.000Z</time>
      </trkpt>
      <trkpt lat="44.99656" lon="-0.26123">
        <ele>8.2</ele>
        <time>2021-06-03T09:52:02.000Z</time>
      </trkpt>
      <trkpt lat="44.99662" lon="-0.26115">
        <ele>8.8</ele>
        <time>2021-06-03T09:52:04.000Z</time>
      </trkpt>
      <trkpt lat="44.99668" lon="-0.26108">
        <ele>9.1</ele>
        <time>2021-06-03T09:52:06.000Z</time>
      </trkpt>
      <trkpt lat="44.99673" lon="-0.26101">
        <ele>9.1</ele>
        <time>2021-06-03T09:52:08.000Z</time>
      </trkpt>
      <trkpt lat="44.99678" lon="-0.26095">
        <ele>9.4</ele>
        <time>2021-06-03T09:52:10.000Z</time>
      </trkpt>
      <trkpt lat="44.99683" lon="-0.26088">
        <ele>10.1</ele>
        <time>2021-06-03T09:52:12.000Z</time>
      </trkpt>
      <trkpt lat="44.99689" lon="-0.26081">
        <ele>10.7</ele>
        <time>2021-06-03T09:52:14.000Z</time>
      </trkpt>
      <trkpt lat="44.99694" lon="-0.26074">
        <ele>11.2</ele>
        <time>2021-06-03T09:52:16.000Z</time>
      </trkpt>
      <trkpt lat="44.997" lon="-0.26067">
        <ele>11.8</ele>
        <time>2021-06-03T09:52:18.000Z</time>
      </trkpt>
      <trkpt lat="44.99705" lon="-0.2606">
        <ele>12</ele>
        <time>2021-06-03T09:52:20.000Z</time>
      </trkpt>
      <trkpt lat="44.9971" lon="-0.26053">
        <ele>12</ele>
        <time>2021-06-03T09:52:22.000Z</time>
      </trkpt>
      <trkpt lat="44.99715" lon="-0.26046">
        <ele>12.8</ele>
        <time>2021-06-03T09:52:24.000Z</time>
      </trkpt>
      <trkpt lat="44.99719" lon="-0.26039">
        <ele>13.5</ele>
        <time>2021-06-03T09:52:26.000Z</time>
      </trkpt>
      <trkpt lat="44.99724" lon="-0.26033">
        <ele>14</ele>
        <time>2021-06-03T09:52:28.000Z</time>
      </trkpt>
      <trkpt lat="44.9973" lon="-0.26024">
        <ele>14.4</ele>
        <time>2021-06-03T09:52:31.000Z</time>
      </trkpt>
      <trkpt lat="44.99734" lon="-0.26016">
        <ele>15</ele>
        <time>2021-06-03T09:52:34.000Z</time>
      </trkpt>
      <trkpt lat="44.99739" lon="-0.26007">
        <ele>15.6</ele>
        <time>2021-06-03T09:52:37.000Z</time>
      </trkpt>
      <trkpt lat="44.99743" lon="-0.25999">
        <ele>16</ele>
        <time>2021-06-03T09:52:41.000Z</time>
      </trkpt>
      <trkpt lat="44.99749" lon="-0.25992">
        <ele>16.4</ele>
        <time>2021-06-03T09:52:44.000Z</time>
      </trkpt>
      <trkpt lat="44.99751" lon="-0.2599">
        <ele>16.5</ele>
        <time>2021-06-03T09:52:45.000Z</time>
      </trkpt>
      <trkpt lat="44.99763" lon="-0.25979">
        <ele>17.4</ele>
        <time>2021-06-03T09:52:50.000Z</time>
      </trkpt>
      <trkpt lat="44.99768" lon="-0.25975">
        <ele>17.6</ele>
        <time>2021-06-03T09:52:52.000Z</time>
      </trkpt>
      <trkpt lat="44.99773" lon="-0.2597">
        <ele>17.6</ele>
        <time>2021-06-03T09:52:54.000Z</time>
      </trkpt>
      <trkpt lat="44.9978" lon="-0.25963">
        <ele>17.9</ele>
        <time>2021-06-03T09:52:57.000Z</time>
      </trkpt>
      <trkpt lat="44.99787" lon="-0.25956">
        <ele>18.4</ele>
        <time>2021-06-03T09:53:00.000Z</time>
      </trkpt>
      <trkpt lat="44.99794" lon="-0.25948">
        <ele>18.2</ele>
        <time>2021-06-03T09:53:03.000Z</time>
      </trkpt>
      <trkpt lat="44.99801" lon="-0.25942">
        <ele>18.7</ele>
        <time>2021-06-03T09:53:06.000Z</time>
      </trkpt>
      <trkpt lat="44.99808" lon="-0.25936">
        <ele>18.3</ele>
        <time>2021-06-03T09:53:09.000Z</time>
      </trkpt>
      <trkpt lat="44.99814" lon="-0.25929">
        <ele>19.1</ele>
        <time>2021-06-03T09:53:12.000Z</time>
      </trkpt>
      <trkpt lat="44.99821" lon="-0.25923">
        <ele>19.1</ele>
        <time>2021-06-03T09:53:15.000Z</time>
      </trkpt>
      <trkpt lat="44.99828" lon="-0.25917">
        <ele>19.8</ele>
        <time>2021-06-03T09:53:18.000Z</time>
      </trkpt>
      <trkpt lat="44.99835" lon="-0.2591">
        <ele>19.8</ele>
        <time>2021-06-03T09:53:21.000Z</time>
      </trkpt>
      <trkpt lat="44.99841" lon="-0.25903">
        <ele>20.4</ele>
        <time>2021-06-03T09:53:24.000Z</time>
      </trkpt>
      <trkpt lat="44.99848" lon="-0.25897">
        <ele>21.1</ele>
        <time>2021-06-03T09:53:27.000Z</time>
      </trkpt>
      <trkpt lat="44.99855" lon="-0.25891">
        <ele>21</ele>
        <time>2021-06-03T09:53:30.000Z</time>
      </trkpt>
      <trkpt lat="44.9986" lon="-0.25884">
        <ele>21.2</ele>
        <time>2021-06-03T09:53:33.000Z</time>
      </trkpt>
      <trkpt lat="44.99865" lon="-0.25878">
        <ele>21.5</ele>
        <time>2021-06-03T09:53:36.000Z</time>
      </trkpt>
      <trkpt lat="44.99871" lon="-0.25871">
        <ele>22.3</ele>
        <time>2021-06-03T09:53:39.000Z</time>
      </trkpt>
      <trkpt lat="44.99877" lon="-0.25863">
        <ele>22</ele>
        <time>2021-06-03T09:53:42.000Z</time>
      </trkpt>
      <trkpt lat="44.99883" lon="-0.25856">
        <ele>22.9</ele>
        <time>2021-06-03T09:53:45.000Z</time>
      </trkpt>
      <trkpt lat="44.99885" lon="-0.25853">
        <ele>22.7</ele>
        <time>2021-06-03T09:53:46.000Z</time>
      </trkpt>
      <trkpt lat="44.99893" lon="-0.25838">
        <ele>23.1</ele>
        <time>2021-06-03T09:53:51.000Z</time>
      </trkpt>
      <trkpt lat="44.99897" lon="-0.25828">
        <ele>23.3</ele>
        <time>2021-06-03T09:53:54.000Z</time>
      </trkpt>
      <trkpt lat="44.999" lon="-0.25818">
        <ele>22.8</ele>
        <time>2021-06-03T09:53:57.000Z</time>
      </trkpt>
      <trkpt lat="44.99903" lon="-0.25807">
        <ele>23.9</ele>
        <time>2021-06-03T09:54:00.000Z</time>
      </trkpt>
      <trkpt lat="44.99905" lon="-0.25796">
        <ele>24.5</ele>
        <time>2021-06-03T09:54:03.000Z</time>
      </trkpt>
      <trkpt lat="44.99908" lon="-0.25786">
        <ele>24.9</ele>
        <time>2021-06-03T09:54:06.000Z</time>
      </trkpt>
      <trkpt lat="44.9991" lon="-0.25775">
        <ele>24.9</ele>
        <time>2021-06-03T09:54:09.000Z</time>
      </trkpt>
      <trkpt lat="44.99912" lon="-0.25765">
        <ele>25.1</ele>
        <time>2021-06-03T09:54:12.000Z</time>
      </trkpt>
      <trkpt lat="44.99915" lon="-0.25754">
        <ele>25.6</ele>
        <time>2021-06-03T09:54:15.000Z</time>
      </trkpt>
      <trkpt lat="44.99918" lon="-0.25743">
        <ele>26.1</ele>
        <time>2021-06-03T09:54:18.000Z</time>
      </trkpt>
      <trkpt lat="44.9992" lon="-0.25733">
        <ele>26.6</ele>
        <time>2021-06-03T09:54:21.000Z</time>
      </trkpt>
      <trkpt lat="44.99922" lon="-0.25723">
        <ele>27</ele>
        <time>2021-06-03T09:54:24.000Z</time>
      </trkpt>
      <trkpt lat="44.99923" lon="-0.25713">
        <ele>27.5</ele>
        <time>2021-06-03T09:54:27.000Z</time>
      </trkpt>
      <trkpt lat="44.99925" lon="-0.25703">
        <ele>28</ele>
        <time>2021-06-03T09:54:30.000Z</time>
      </trkpt>
      <trkpt lat="44.99927" lon="-0.25694">
        <ele>28.3</ele>
        <time>2021-06-03T09:54:33.000Z</time>
      </trkpt>
      <trkpt lat="44.9993" lon="-0.25684">
        <ele>28.8</ele>
        <time>2021-06-03T09:54:36.000Z</time>
      </trkpt>
      <trkpt lat="44.99932" lon="-0.25673">
        <ele>29</ele>
        <time>2021-06-03T09:54:39.000Z</time>
      </trkpt>
      <trkpt lat="44.99933" lon="-0.25664">
        <ele>29.3</ele>
        <time>2021-06-03T09:54:41.000Z</time>
      </trkpt>
      <trkpt lat="44.99934" lon="-0.25654">
        <ele>29.5</ele>
        <time>2021-06-03T09:54:43.000Z</time>
      </trkpt>
      <trkpt lat="44.99935" lon="-0.25644">
        <ele>29.4</ele>
        <time>2021-06-03T09:54:45.000Z</time>
      </trkpt>
      <trkpt lat="44.99936" lon="-0.25634">
        <ele>29.1</ele>
        <time>2021-06-03T09:54:47.000Z</time>
      </trkpt>
      <trkpt lat="44.99936" lon="-0.25629">
        <ele>29.6</ele>
        <time>2021-06-03T09:54:48.000Z</time>
      </trkpt>
      <trkpt lat="44.99937" lon="-0.25614">
        <ele>30.2</ele>
        <time>2021-06-03T09:54:51.000Z</time>
      </trkpt>
      <trkpt lat="44.99937" lon="-0.25604">
        <ele>30.4</ele>
        <time>2021-06-03T09:54:53.000Z</time>
      </trkpt>
      <trkpt lat="44.99938" lon="-0.25594">
        <ele>30.9</ele>
        <time>2021-06-03T09:54:55.000Z</time>
      </trkpt>
      <trkpt lat="44.99938" lon="-0.25583">
        <ele>30.9</ele>
        <time>2021-06-03T09:54:57.000Z</time>
      </trkpt>
      <trkpt lat="44.99939" lon="-0.25572">
        <ele>30.7</ele>
        <time>2021-06-03T09:54:59.000Z</time>
      </trkpt>
      <trkpt lat="44.99941" lon="-0.25561">
        <ele>30.6</ele>
        <time>2021-06-03T09:55:01.000Z</time>
      </trkpt>
      <trkpt lat="44.99942" lon="-0.25549">
        <ele>31</ele>
        <time>2021-06-03T09:55:03.000Z</time>
      </trkpt>
      <trkpt lat="44.99943" lon="-0.25538">
        <ele>30.7</ele>
        <time>2021-06-03T09:55:05.000Z</time>
      </trkpt>
      <trkpt lat="44.99944" lon="-0.25527">
        <ele>30.9</ele>
        <time>2021-06-03T09:55:07.000Z</time>
      </trkpt>
      <trkpt lat="44.99946" lon="-0.25516">
        <ele>31</ele>
        <time>2021-06-03T09:55:09.000Z</time>
      </trkpt>
      <trkpt lat="44.99947" lon="-0.25505">
        <ele>31.2</ele>
        <time>2021-06-03T09:55:11.000Z</time>
      </trkpt>
      <trkpt lat="44.99948" lon="-0.25493">
        <ele>31.6</ele>
        <time>2021-06-03T09:55:13.000Z</time>
      </trkpt>
      <trkpt lat="44.99949" lon="-0.25482">
        <ele>31.9</ele>
        <time>2021-06-03T09:55:15.000Z</time>
      </trkpt>
      <trkpt lat="44.99949" lon="-0.2547">
        <ele>31.8</ele>
        <time>2021-06-03T09:55:17.000Z</time>
      </trkpt>
      <trkpt lat="44.99949" lon="-0.25458">
        <ele>32.1</ele>
        <time>2021-06-03T09:55:19.000Z</time>
      </trkpt>
      <trkpt lat="44.99948" lon="-0.25447">
        <ele>32.2</ele>
        <time>2021-06-03T09:55:21.000Z</time>
      </trkpt>
      <trkpt lat="44.99947" lon="-0.25436">
        <ele>32.5</ele>
        <time>2021-06-03T09:55:23.000Z</time>
      </trkpt>
      <trkpt lat="44.99945" lon="-0.25425">
        <ele>32.9</ele>
        <time>2021-06-03T09:55:25.000Z</time>
      </trkpt>
      <trkpt lat="44.99944" lon="-0.25414">
        <ele>33</ele>
        <time>2021-06-03T09:55:27.000Z</time>
      </trkpt>
      <trkpt lat="44.99942" lon="-0.25402">
        <ele>33.5</ele>
        <time>2021-06-03T09:55:29.000Z</time>
      </trkpt>
      <trkpt lat="44.99941" lon="-0.25391">
        <ele>33.6</ele>
        <time>2021-06-03T09:55:31.000Z</time>
      </trkpt>
      <trkpt lat="44.99939" lon="-0.2538">
        <ele>33.6</ele>
        <time>2021-06-03T09:55:33.000Z</time>
      </trkpt>
      <trkpt lat="44.99938" lon="-0.25369">
        <ele>34</ele>
        <time>2021-06-03T09:55:35.000Z</time>
      </trkpt>
      <trkpt lat="44.99936" lon="-0.25358">
        <ele>34</ele>
        <time>2021-06-03T09:55:37.000Z</time>
      </trkpt>
      <trkpt lat="44.99934" lon="-0.25347">
        <ele>33.9</ele>
        <time>2021-06-03T09:55:39.000Z</time>
      </trkpt>
      <trkpt lat="44.99933" lon="-0.25336">
        <ele>34.2</ele>
        <time>2021-06-03T09:55:41.000Z</time>
      </trkpt>
      <trkpt lat="44.99933" lon="-0.25325">
        <ele>33.8</ele>
        <time>2021-06-03T09:55:43.000Z</time>
      </trkpt>
      <trkpt lat="44.99932" lon="-0.25314">
        <ele>34.2</ele>
        <time>2021-06-03T09:55:45.000Z</time>
      </trkpt>
      <trkpt lat="44.99933" lon="-0.25303">
        <ele>34.5</ele>
        <time>2021-06-03T09:55:47.000Z</time>
      </trkpt>
      <trkpt lat="44.99933" lon="-0.25292">
        <ele>34.8</ele>
        <time>2021-06-03T09:55:49.000Z</time>
      </trkpt>
      <trkpt lat="44.99933" lon="-0.25287">
        <ele>35</ele>
        <time>2021-06-03T09:55:50.000Z</time>
      </trkpt>
      <trkpt lat="44.99935" lon="-0.25271">
        <ele>35.2</ele>
        <time>2021-06-03T09:55:53.000Z</time>
      </trkpt>
      <trkpt lat="44.99935" lon="-0.25261">
        <ele>35.4</ele>
        <time>2021-06-03T09:55:55.000Z</time>
      </trkpt>
      <trkpt lat="44.99936" lon="-0.25251">
        <ele>35.2</ele>
        <time>2021-06-03T09:55:57.000Z</time>
      </trkpt>
      <trkpt lat="44.99937" lon="-0.25241">
        <ele>35.5</ele>
        <time>2021-06-03T09:55:59.000Z</time>
      </trkpt>
      <trkpt lat="44.99938" lon="-0.25231">
        <ele>35.8</ele>
        <time>2021-06-03T09:56:01.000Z</time>
      </trkpt>
      <trkpt lat="44.99939" lon="-0.25222">
        <ele>36</ele>
        <time>2021-06-03T09:56:03.000Z</time>
      </trkpt>
      <trkpt lat="44.99939" lon="-0.25212">
        <ele>36.1</ele>
        <time>2021-06-03T09:56:05.000Z</time>
      </trkpt>
      <trkpt lat="44.9994" lon="-0.25203">
        <ele>36.5</ele>
        <time>2021-06-03T09:56:07.000Z</time>
      </trkpt>
      <trkpt lat="44.99941" lon="-0.25194">
        <ele>36.7</ele>
        <time>2021-06-03T09:56:09.000Z</time>
      </trkpt>
      <trkpt lat="44.99942" lon="-0.25185">
        <ele>37</ele>
        <time>2021-06-03T09:56:11.000Z</time>
      </trkpt>
      <trkpt lat="44.99942" lon="-0.25176">
        <ele>37.6</ele>
        <time>2021-06-03T09:56:13.000Z</time>
      </trkpt>
      <trkpt lat="44.99943" lon="-0.25166">
        <ele>37.7</ele>
        <time>2021-06-03T09:56:15.000Z</time>
      </trkpt>
      <trkpt lat="44.99944" lon="-0.25156">
        <ele>37.5</ele>
        <time>2021-06-03T09:56:17.000Z</time>
      </trkpt>
      <trkpt lat="44.99945" lon="-0.25147">
        <ele>37.7</ele>
        <time>2021-06-03T09:56:19.000Z</time>
      </trkpt>
      <trkpt lat="44.99945" lon="-0.25137">
        <ele>38.9</ele>
        <time>2021-06-03T09:56:21.000Z</time>
      </trkpt>
      <trkpt lat="44.99946" lon="-0.25126">
        <ele>39</ele>
        <time>2021-06-03T09:56:23.000Z</time>
      </trkpt>
      <trkpt lat="44.99947" lon="-0.25116">
        <ele>39.1</ele>
        <time>2021-06-03T09:56:25.000Z</time>
      </trkpt>
      <trkpt lat="44.99947" lon="-0.25106">
        <ele>39</ele>
        <time>2021-06-03T09:56:27.000Z</time>
      </trkpt>
      <trkpt lat="44.99948" lon="-0.25096">
        <ele>38.6</ele>
        <time>2021-06-03T09:56:29.000Z</time>
      </trkpt>
      <trkpt lat="44.99948" lon="-0.25086">
        <ele>39.5</ele>
        <time>2021-06-03T09:56:31.000Z</time>
      </trkpt>
      <trkpt lat="44.99948" lon="-0.25076">
        <ele>39.3</ele>
        <time>2021-06-03T09:56:33.000Z</time>
      </trkpt>
      <trkpt lat="44.99947" lon="-0.25066">
        <ele>39.6</ele>
        <time>2021-06-03T09:56:35.000Z</time>
      </trkpt>
      <trkpt lat="44.99947" lon="-0.25055">
        <ele>39.8</ele>
        <time>2021-06-03T09:56:37.000Z</time>
      </trkpt>
      <trkpt lat="44.99946" lon="-0.25044">
        <ele>40</ele>
        <time>2021-06-03T09:56:39.000Z</time>
      </trkpt>
      <trkpt lat="44.99945" lon="-0.25033">
        <ele>40.2</ele>
        <time>2021-06-03T09:56:41.000Z</time>
      </trkpt>
      <trkpt lat="44.99944" lon="-0.25023">
        <ele>40.3</ele>
        <time>2021-06-03T09:56:43.000Z</time>
      </trkpt>
      <trkpt lat="44.99942" lon="-0.25014">
        <ele>40.6</ele>
        <time>2021-06-03T09:56:45.000Z</time>
      </trkpt>
      <trkpt lat="44.99941" lon="-0.25006">
        <ele>40</ele>
        <time>2021-06-03T09:56:47.000Z</time>
      </trkpt>
      <trkpt lat="44.9994" lon="-0.24997">
        <ele>39.8</ele>
        <time>2021-06-03T09:56:49.000Z</time>
      </trkpt>
      <trkpt lat="44.99938" lon="-0.24989">
        <ele>40.1</ele>
        <time>2021-06-03T09:56:51.000Z</time>
      </trkpt>
      <trkpt lat="44.99938" lon="-0.24985">
        <ele>40.3</ele>
        <time>2021-06-03T09:56:52.000Z</time>
      </trkpt>
      <trkpt lat="44.99935" lon="-0.24971">
        <ele>40.8</ele>
        <time>2021-06-03T09:56:55.000Z</time>
      </trkpt>
      <trkpt lat="44.99933" lon="-0.24962">
        <ele>40.8</ele>
        <time>2021-06-03T09:56:57.000Z</time>
      </trkpt>
      <trkpt lat="44.99932" lon="-0.24954">
        <ele>41.5</ele>
        <time>2021-06-03T09:56:59.000Z</time>
      </trkpt>
      <trkpt lat="44.9993" lon="-0.24945">
        <ele>41.5</ele>
        <time>2021-06-03T09:57:01.000Z</time>
      </trkpt>
      <trkpt lat="44.99928" lon="-0.24936">
        <ele>41.1</ele>
        <time>2021-06-03T09:57:03.000Z</time>
      </trkpt>
      <trkpt lat="44.99927" lon="-0.24927">
        <ele>41.1</ele>
        <time>2021-06-03T09:57:05.000Z</time>
      </trkpt>
      <trkpt lat="44.99925" lon="-0.24918">
        <ele>41.7</ele>
        <time>2021-06-03T09:57:07.000Z</time>
      </trkpt>
      <trkpt lat="44.99923" lon="-0.24908">
        <ele>41.9</ele>
        <time>2021-06-03T09:57:09.000Z</time>
      </trkpt>
      <trkpt lat="44.99921" lon="-0.24899">
        <ele>41.9</ele>
        <time>2021-06-03T09:57:11.000Z</time>
      </trkpt>
      <trkpt lat="44.99919" lon="-0.2489">
        <ele>41.7</ele>
        <time>2021-06-03T09:57:13.000Z</time>
      </trkpt>
      <trkpt lat="44.99918" lon="-0.2488">
        <ele>41.6</ele>
        <time>2021-06-03T09:57:15.000Z</time>
      </trkpt>
      <trkpt lat="44.99916" lon="-0.24871">
        <ele>41.7</ele>
        <time>2021-06-03T09:57:17.000Z</time>
      </trkpt>
      <trkpt lat="44.99914" lon="-0.24862">
        <ele>41.7</ele>
        <time>2021-06-03T09:57:19.000Z</time>
      </trkpt>
      <trkpt lat="44.99912" lon="-0.24853">
        <ele>41.5</ele>
        <time>2021-06-03T09:57:21.000Z</time>
      </trkpt>
      <trkpt lat="44.9991" lon="-0.24844">
        <ele>41.5</ele>
        <time>2021-06-03T09:57:23.000Z</time>
      </trkpt>
      <trkpt lat="44.99909" lon="-0.24834">
        <ele>41.7</ele>
        <time>2021-06-03T09:57:25.000Z</time>
      </trkpt>
      <trkpt lat="44.99907" lon="-0.24824">
        <ele>42.1</ele>
        <time>2021-06-03T09:57:27.000Z</time>
      </trkpt>
      <trkpt lat="44.99905" lon="-0.24814">
        <ele>42.4</ele>
        <time>2021-06-03T09:57:29.000Z</time>
      </trkpt>
      <trkpt lat="44.99903" lon="-0.24804">
        <ele>42.7</ele>
        <time>2021-06-03T09:57:31.000Z</time>
      </trkpt>
      <trkpt lat="44.99902" lon="-0.24794">
        <ele>43.1</ele>
        <time>2021-06-03T09:57:33.000Z</time>
      </trkpt>
      <trkpt lat="44.999" lon="-0.24785">
        <ele>43.1</ele>
        <time>2021-06-03T09:57:35.000Z</time>
      </trkpt>
      <trkpt lat="44.99898" lon="-0.24776">
        <ele>42.9</ele>
        <time>2021-06-03T09:57:37.000Z</time>
      </trkpt>
      <trkpt lat="44.99896" lon="-0.24765">
        <ele>43.1</ele>
        <time>2021-06-03T09:57:40.000Z</time>
      </trkpt>
      <trkpt lat="44.99894" lon="-0.24755">
        <ele>42.7</ele>
        <time>2021-06-03T09:57:43.000Z</time>
      </trkpt>
      <trkpt lat="44.99892" lon="-0.24747">
        <ele>42.5</ele>
        <time>2021-06-03T09:57:45.000Z</time>
      </trkpt>
      <trkpt lat="44.99891" lon="-0.24738">
        <ele>42.8</ele>
        <time>2021-06-03T09:57:47.000Z</time>
      </trkpt>
      <trkpt lat="44.99889" lon="-0.2473">
        <ele>42.9</ele>
        <time>2021-06-03T09:57:49.000Z</time>
      </trkpt>
      <trkpt lat="44.99887" lon="-0.24721">
        <ele>43.8</ele>
        <time>2021-06-03T09:57:51.000Z</time>
      </trkpt>
      <trkpt lat="44.99885" lon="-0.24712">
        <ele>44.1</ele>
        <time>2021-06-03T09:57:53.000Z</time>
      </trkpt>
      <trkpt lat="44.99884" lon="-0.24707">
        <ele>44.1</ele>
        <time>2021-06-03T09:57:54.000Z</time>
      </trkpt>
      <trkpt lat="44.99882" lon="-0.24694">
        <ele>43.8</ele>
        <time>2021-06-03T09:57:57.000Z</time>
      </trkpt>
      <trkpt lat="44.9988" lon="-0.24685">
        <ele>43.7</ele>
        <time>2021-06-03T09:57:59.000Z</time>
      </trkpt>
      <trkpt lat="44.99879" lon="-0.24677">
        <ele>43.6</ele>
        <time>2021-06-03T09:58:01.000Z</time>
      </trkpt>
      <trkpt lat="44.99877" lon="-0.24668">
        <ele>43.8</ele>
        <time>2021-06-03T09:58:03.000Z</time>
      </trkpt>
      <trkpt lat="44.99875" lon="-0.24659">
        <ele>44</ele>
        <time>2021-06-03T09:58:05.000Z</time>
      </trkpt>
      <trkpt lat="44.99873" lon="-0.2465">
        <ele>44.1</ele>
        <time>2021-06-03T09:58:07.000Z</time>
      </trkpt>
      <trkpt lat="44.99871" lon="-0.24641">
        <ele>44.4</ele>
        <time>2021-06-03T09:58:09.000Z</time>
      </trkpt>
      <trkpt lat="44.9987" lon="-0.24632">
        <ele>44.8</ele>
        <time>2021-06-03T09:58:11.000Z</time>
      </trkpt>
      <trkpt lat="44.99868" lon="-0.24623">
        <ele>44.8</ele>
        <time>2021-06-03T09:58:13.000Z</time>
      </trkpt>
      <trkpt lat="44.99867" lon="-0.24614">
        <ele>44.8</ele>
        <time>2021-06-03T09:58:15.000Z</time>
      </trkpt>
      <trkpt lat="44.99865" lon="-0.24605">
        <ele>44.7</ele>
        <time>2021-06-03T09:58:17.000Z</time>
      </trkpt>
      <trkpt lat="44.99863" lon="-0.24596">
        <ele>45</ele>
        <time>2021-06-03T09:58:19.000Z</time>
      </trkpt>
      <trkpt lat="44.99862" lon="-0.24586">
        <ele>45.3</ele>
        <time>2021-06-03T09:58:21.000Z</time>
      </trkpt>
      <trkpt lat="44.9986" lon="-0.24577">
        <ele>45.4</ele>
        <time>2021-06-03T09:58:23.000Z</time>
      </trkpt>
      <trkpt lat="44.99858" lon="-0.24568">
        <ele>45.4</ele>
        <time>2021-06-03T09:58:25.000Z</time>
      </trkpt>
      <trkpt lat="44.99857" lon="-0.24558">
        <ele>45.4</ele>
        <time>2021-06-03T09:58:27.000Z</time>
      </trkpt>
      <trkpt lat="44.99855" lon="-0.24549">
        <ele>45.5</ele>
        <time>2021-06-03T09:58:29.000Z</time>
      </trkpt>
      <trkpt lat="44.99854" lon="-0.24539">
        <ele>45.8</ele>
        <time>2021-06-03T09:58:31.000Z</time>
      </trkpt>
      <trkpt lat="44.99853" lon="-0.2453">
        <ele>46.1</ele>
        <time>2021-06-03T09:58:33.000Z</time>
      </trkpt>
      <trkpt lat="44.99852" lon="-0.2452">
        <ele>46.4</ele>
        <time>2021-06-03T09:58:35.000Z</time>
      </trkpt>
      <trkpt lat="44.99851" lon="-0.24511">
        <ele>46.7</ele>
        <time>2021-06-03T09:58:37.000Z</time>
      </trkpt>
      <trkpt lat="44.9985" lon="-0.24501">
        <ele>47.1</ele>
        <time>2021-06-03T09:58:39.000Z</time>
      </trkpt>
      <trkpt lat="44.99849" lon="-0.24491">
        <ele>46.9</ele>
        <time>2021-06-03T09:58:41.000Z</time>
      </trkpt>
      <trkpt lat="44.99848" lon="-0.24481">
        <ele>47.2</ele>
        <time>2021-06-03T09:58:43.000Z</time>
      </trkpt>
      <trkpt lat="44.99848" lon="-0.24471">
        <ele>47.6</ele>
        <time>2021-06-03T09:58:45.000Z</time>
      </trkpt>
      <trkpt lat="44.99847" lon="-0.24461">
        <ele>47.9</ele>
        <time>2021-06-03T09:58:47.000Z</time>
      </trkpt>
      <trkpt lat="44.99847" lon="-0.24451">
        <ele>48.1</ele>
        <time>2021-06-03T09:58:49.000Z</time>
      </trkpt>
      <trkpt lat="44.99846" lon="-0.24441">
        <ele>48.2</ele>
        <time>2021-06-03T09:58:51.000Z</time>
      </trkpt>
      <trkpt lat="44.99846" lon="-0.24431">
        <ele>47.7</ele>
        <time>2021-06-03T09:58:53.000Z</time>
      </trkpt>
      <trkpt lat="44.99846" lon="-0.2442">
        <ele>48.2</ele>
        <time>2021-06-03T09:58:55.000Z</time>
      </trkpt>
      <trkpt lat="44.99846" lon="-0.24415">
        <ele>48.3</ele>
        <time>2021-06-03T09:58:56.000Z</time>
      </trkpt>
      <trkpt lat="44.99846" lon="-0.24399">
        <ele>47.5</ele>
        <time>2021-06-03T09:58:59.000Z</time>
      </trkpt>
      <trkpt lat="44.99845" lon="-0.24388">
        <ele>47.1</ele>
        <time>2021-06-03T09:59:01.000Z</time>
      </trkpt>
      <trkpt lat="44.99845" lon="-0.24378">
        <ele>47</ele>
        <time>2021-06-03T09:59:03.000Z</time>
      </trkpt>
      <trkpt lat="44.99845" lon="-0.24367">
        <ele>47.4</ele>
        <time>2021-06-03T09:59:05.000Z</time>
      </trkpt>
      <trkpt lat="44.99845" lon="-0.24356">
        <ele>47.6</ele>
        <time>2021-06-03T09:59:07.000Z</time>
      </trkpt>
      <trkpt lat="44.99845" lon="-0.24346">
        <ele>47.8</ele>
        <time>2021-06-03T09:59:09.000Z</time>
      </trkpt>
      <trkpt lat="44.99845" lon="-0.24335">
        <ele>48.1</ele>
        <time>2021-06-03T09:59:11.000Z</time>
      </trkpt>
      <trkpt lat="44.99845" lon="-0.24324">
        <ele>48.4</ele>
        <time>2021-06-03T09:59:13.000Z</time>
      </trkpt>
      <trkpt lat="44.99845" lon="-0.24314">
        <ele>48.6</ele>
        <time>2021-06-03T09:59:15.000Z</time>
      </trkpt>
      <trkpt lat="44.99845" lon="-0.24304">
        <ele>48.5</ele>
        <time>2021-06-03T09:59:17.000Z</time>
      </trkpt>
      <trkpt lat="44.99846" lon="-0.24295">
        <ele>48.6</ele>
        <time>2021-06-03T09:59:19.000Z</time>
      </trkpt>
      <trkpt lat="44.99846" lon="-0.24283">
        <ele>48.9</ele>
        <time>2021-06-03T09:59:22.000Z</time>
      </trkpt>
      <trkpt lat="44.99847" lon="-0.24274">
        <ele>49</ele>
        <time>2021-06-03T09:59:24.000Z</time>
      </trkpt>
      <trkpt lat="44.99848" lon="-0.24265">
        <ele>48.4</ele>
        <time>2021-06-03T09:59:26.000Z</time>
      </trkpt>
      <trkpt lat="44.99849" lon="-0.24255">
        <ele>48.5</ele>
        <time>2021-06-03T09:59:28.000Z</time>
      </trkpt>
      <trkpt lat="44.9985" lon="-0.24246">
        <ele>48.7</ele>
        <time>2021-06-03T09:59:30.000Z</time>
      </trkpt>
      <trkpt lat="44.99851" lon="-0.24236">
        <ele>49</ele>
        <time>2021-06-03T09:59:32.000Z</time>
      </trkpt>
      <trkpt lat="44.99853" lon="-0.24226">
        <ele>49.3</ele>
        <time>2021-06-03T09:59:34.000Z</time>
      </trkpt>
      <trkpt lat="44.99854" lon="-0.24216">
        <ele>49.4</ele>
        <time>2021-06-03T09:59:36.000Z</time>
      </trkpt>
      <trkpt lat="44.99854" lon="-0.24206">
        <ele>49.4</ele>
        <time>2021-06-03T09:59:38.000Z</time>
      </trkpt>
      <trkpt lat="44.99856" lon="-0.24197">
        <ele>49.5</ele>
        <time>2021-06-03T09:59:40.000Z</time>
      </trkpt>
      <trkpt lat="44.99857" lon="-0.24187">
        <ele>49.2</ele>
        <time>2021-06-03T09:59:42.000Z</time>
      </trkpt>
      <trkpt lat="44.99858" lon="-0.24176">
        <ele>49</ele>
        <time>2021-06-03T09:59:44.000Z</time>
      </trkpt>
      <trkpt lat="44.99859" lon="-0.24165">
        <ele>48.8</ele>
        <time>2021-06-03T09:59:46.000Z</time>
      </trkpt>
      <trkpt lat="44.9986" lon="-0.24154">
        <ele>49.2</ele>
        <time>2021-06-03T09:59:48.000Z</time>
      </trkpt>
      <trkpt lat="44.99862" lon="-0.24143">
        <ele>49</ele>
        <time>2021-06-03T09:59:50.000Z</time>
      </trkpt>
      <trkpt lat="44.99864" lon="-0.24131">
        <ele>49.2</ele>
        <time>2021-06-03T09:59:52.000Z</time>
      </trkpt>
      <trkpt lat="44.99865" lon="-0.24119">
        <ele>49.5</ele>
        <time>2021-06-03T09:59:54.000Z</time>
      </trkpt>
      <trkpt lat="44.99867" lon="-0.24108">
        <ele>49.6</ele>
        <time>2021-06-03T09:59:56.000Z</time>
      </trkpt>
      <trkpt lat="44.99867" lon="-0.24103">
        <ele>49.6</ele>
        <time>2021-06-03T09:59:57.000Z</time>
      </trkpt>
      <trkpt lat="44.99869" lon="-0.24086">
        <ele>49.7</ele>
        <time>2021-06-03T10:00:00.000Z</time>
      </trkpt>
      <trkpt lat="44.9987" lon="-0.24075">
        <ele>50</ele>
        <time>2021-06-03T10:00:02.000Z</time>
      </trkpt>
      <trkpt lat="44.99872" lon="-0.24064">
        <ele>49.6</ele>
        <time>2021-06-03T10:00:04.000Z</time>
      </trkpt>
      <trkpt lat="44.99873" lon="-0.24052">
        <ele>49.4</ele>
        <time>2021-06-03T10:00:06.000Z</time>
      </trkpt>
      <trkpt lat="44.99874" lon="-0.24041">
        <ele>49.3</ele>
        <time>2021-06-03T10:00:08.000Z</time>
      </trkpt>
      <trkpt lat="44.99874" lon="-0.24029">
        <ele>49.3</ele>
        <time>2021-06-03T10:00:10.000Z</time>
      </trkpt>
      <trkpt lat="44.99875" lon="-0.24018">
        <ele>49.5</ele>
        <time>2021-06-03T10:00:12.000Z</time>
      </trkpt>
      <trkpt lat="44.99874" lon="-0.24006">
        <ele>49.7</ele>
        <time>2021-06-03T10:00:14.000Z</time>
      </trkpt>
      <trkpt lat="44.99874" lon="-0.23995">
        <ele>49.4</ele>
        <time>2021-06-03T10:00:16.000Z</time>
      </trkpt>
      <trkpt lat="44.99873" lon="-0.23983">
        <ele>49.6</ele>
        <time>2021-06-03T10:00:18.000Z</time>
      </trkpt>
      <trkpt lat="44.99872" lon="-0.23972">
        <ele>49.8</ele>
        <time>2021-06-03T10:00:20.000Z</time>
      </trkpt>
      <trkpt lat="44.99871" lon="-0.23961">
        <ele>50.1</ele>
        <time>2021-06-03T10:00:22.000Z</time>
      </trkpt>
      <trkpt lat="44.9987" lon="-0.2395">
        <ele>50.5</ele>
        <time>2021-06-03T10:00:24.000Z</time>
      </trkpt>
      <trkpt lat="44.99869" lon="-0.23939">
        <ele>50.2</ele>
        <time>2021-06-03T10:00:26.000Z</time>
      </trkpt>
      <trkpt lat="44.99868" lon="-0.23928">
        <ele>50.1</ele>
        <time>2021-06-03T10:00:28.000Z</time>
      </trkpt>
      <trkpt lat="44.9987" lon="-0.23917">
        <ele>50.1</ele>
        <time>2021-06-03T10:00:30.000Z</time>
      </trkpt>
      <trkpt lat="44.99873" lon="-0.23908">
        <ele>50</ele>
        <time>2021-06-03T10:00:32.000Z</time>
      </trkpt>
      <trkpt lat="44.99879" lon="-0.239">
        <ele>49.7</ele>
        <time>2021-06-03T10:00:34.000Z</time>
      </trkpt>
      <trkpt lat="44.99886" lon="-0.23895">
        <ele>49.5</ele>
        <time>2021-06-03T10:00:36.000Z</time>
      </trkpt>
      <trkpt lat="44.99892" lon="-0.23891">
        <ele>49.4</ele>
        <time>2021-06-03T10:00:38.000Z</time>
      </trkpt>
      <trkpt lat="44.99898" lon="-0.23886">
        <ele>49.7</ele>
        <time>2021-06-03T10:00:40.000Z</time>
      </trkpt>
      <trkpt lat="44.99904" lon="-0.23882">
        <ele>49.8</ele>
        <time>2021-06-03T10:00:42.000Z</time>
      </trkpt>
      <trkpt lat="44.9991" lon="-0.23879">
        <ele>49.8</ele>
        <time>2021-06-03T10:00:44.000Z</time>
      </trkpt>
      <trkpt lat="44.99916" lon="-0.23875">
        <ele>49.6</ele>
        <time>2021-06-03T10:00:46.000Z</time>
      </trkpt>
      <trkpt lat="44.99922" lon="-0.23872">
        <ele>49.5</ele>
        <time>2021-06-03T10:00:48.000Z</time>
      </trkpt>
      <trkpt lat="44.99928" lon="-0.23869">
        <ele>49.6</ele>
        <time>2021-06-03T10:00:50.000Z</time>
      </trkpt>
      <trkpt lat="44.99936" lon="-0.23865">
        <ele>49.9</ele>
        <time>2021-06-03T10:00:53.000Z</time>
      </trkpt>
      <trkpt lat="44.99942" lon="-0.23862">
        <ele>50.2</ele>
        <time>2021-06-03T10:00:55.000Z</time>
      </trkpt>
      <trkpt lat="44.99948" lon="-0.23858">
        <ele>50.4</ele>
        <time>2021-06-03T10:00:57.000Z</time>
      </trkpt>
      <trkpt lat="44.99951" lon="-0.23856">
        <ele>50.6</ele>
        <time>2021-06-03T10:00:58.000Z</time>
      </trkpt>
      <trkpt lat="44.99961" lon="-0.2385">
        <ele>50.3</ele>
        <time>2021-06-03T10:01:01.000Z</time>
      </trkpt>
      <trkpt lat="44.99967" lon="-0.23847">
        <ele>50.4</ele>
        <time>2021-06-03T10:01:03.000Z</time>
      </trkpt>
      <trkpt lat="44.99974" lon="-0.23843">
        <ele>50.9</ele>
        <time>2021-06-03T10:01:05.000Z</time>
      </trkpt>
      <trkpt lat="44.9998" lon="-0.2384">
        <ele>51.1</ele>
        <time>2021-06-03T10:01:07.000Z</time>
      </trkpt>
      <trkpt lat="44.99986" lon="-0.23837">
        <ele>51</ele>
        <time>2021-06-03T10:01:09.000Z</time>
      </trkpt>
      <trkpt lat="44.99993" lon="-0.23833">
        <ele>50.8</ele>
        <time>2021-06-03T10:01:11.000Z</time>
      </trkpt>
      <trkpt lat="44.99999" lon="-0.23829">
        <ele>51.3</ele>
        <time>2021-06-03T10:01:13.000Z</time>
      </trkpt>
      <trkpt lat="45.00006" lon="-0.23824">
        <ele>51.1</ele>
        <time>2021-06-03T10:01:15.000Z</time>
      </trkpt>
      <trkpt lat="45.00012" lon="-0.23819">
        <ele>50.7</ele>
        <time>2021-06-03T10:01:17.000Z</time>
      </trkpt>
      <trkpt lat="45.00018" lon="-0.23814">
        <ele>51</ele>
        <time>2021-06-03T10:01:19.000Z</time>
      </trkpt>
      <trkpt lat="45.00023" lon="-0.23809">
        <ele>51.8</ele>
        <time>2021-06-03T10:01:21.000Z</time>
      </trkpt>
      <trkpt lat="45.00029" lon="-0.23803">
        <ele>52.1</ele>
        <time>2021-06-03T10:01:23.000Z</time>
      </trkpt>
      <trkpt lat="45.00035" lon="-0.23798">
        <ele>52.4</ele>
        <time>2021-06-03T10:01:25.000Z</time>
      </trkpt>
      <trkpt lat="45.00041" lon="-0.23791">
        <ele>52.8</ele>
        <time>2021-06-03T10:01:27.000Z</time>
      </trkpt>
      <trkpt lat="45.00047" lon="-0.23785">
        <ele>53.3</ele>
        <time>2021-06-03T10:01:29.000Z</time>
      </trkpt>
      <trkpt lat="45.00052" lon="-0.23778">
        <ele>53.5</ele>
        <time>2021-06-03T10:01:31.000Z</time>
      </trkpt>
      <trkpt lat="45.00058" lon="-0.23771">
        <ele>53.5</ele>
        <time>2021-06-03T10:01:33.000Z</time>
      </trkpt>
      <trkpt lat="45.00063" lon="-0.23764">
        <ele>53.5</ele>
        <time>2021-06-03T10:01:35.000Z</time>
      </trkpt>
      <trkpt lat="45.00069" lon="-0.23757">
        <ele>53.6</ele>
        <time>2021-06-03T10:01:37.000Z</time>
      </trkpt>
      <trkpt lat="45.00075" lon="-0.2375">
        <ele>53.7</ele>
        <time>2021-06-03T10:01:39.000Z</time>
      </trkpt>
      <trkpt lat="45.0008" lon="-0.23743">
        <ele>53.6</ele>
        <time>2021-06-03T10:01:41.000Z</time>
      </trkpt>
      <trkpt lat="45.00086" lon="-0.23736">
        <ele>53.8</ele>
        <time>2021-06-03T10:01:43.000Z</time>
      </trkpt>
      <trkpt lat="45.00091" lon="-0.23728">
        <ele>53.9</ele>
        <time>2021-06-03T10:01:45.000Z</time>
      </trkpt>
      <trkpt lat="45.00096" lon="-0.2372">
        <ele>53.9</ele>
        <time>2021-06-03T10:01:47.000Z</time>
      </trkpt>
      <trkpt lat="45.00101" lon="-0.23712">
        <ele>54.3</ele>
        <time>2021-06-03T10:01:49.000Z</time>
      </trkpt>
      <trkpt lat="45.00106" lon="-0.23704">
        <ele>54</ele>
        <time>2021-06-03T10:01:51.000Z</time>
      </trkpt>
      <trkpt lat="45.00111" lon="-0.23695">
        <ele>53.9</ele>
        <time>2021-06-03T10:01:53.000Z</time>
      </trkpt>
      <trkpt lat="45.00116" lon="-0.23686">
        <ele>54</ele>
        <time>2021-06-03T10:01:55.000Z</time>
      </trkpt>
      <trkpt lat="45.0012" lon="-0.23677">
        <ele>54.4</ele>
        <time>2021-06-03T10:01:57.000Z</time>
      </trkpt>
      <trkpt lat="45.00125" lon="-0.23668">
        <ele>54.7</ele>
        <time>2021-06-03T10:01:59.000Z</time>
      </trkpt>
      <trkpt lat="45.00127" lon="-0.23663">
        <ele>54.7</ele>
        <time>2021-06-03T10:02:00.000Z</time>
      </trkpt>
      <trkpt lat="45.00132" lon="-0.23648">
        <ele>55</ele>
        <time>2021-06-03T10:02:03.000Z</time>
      </trkpt>
      <trkpt lat="45.00136" lon="-0.23638">
        <ele>54.8</ele>
        <time>2021-06-03T10:02:05.000Z</time>
      </trkpt>
      <trkpt lat="45.0014" lon="-0.23628">
        <ele>55</ele>
        <time>2021-06-03T10:02:07.000Z</time>
      </trkpt>
      <trkpt lat="45.00143" lon="-0.23618">
        <ele>55.2</ele>
        <time>2021-06-03T10:02:09.000Z</time>
      </trkpt>
      <trkpt lat="45.00145" lon="-0.23607">
        <ele>55.2</ele>
        <time>2021-06-03T10:02:11.000Z</time>
      </trkpt>
      <trkpt lat="45.00148" lon="-0.23597">
        <ele>55.1</ele>
        <time>2021-06-03T10:02:13.000Z</time>
      </trkpt>
      <trkpt lat="45.0015" lon="-0.23586">
        <ele>55.7</ele>
        <time>2021-06-03T10:02:15.000Z</time>
      </trkpt>
      <trkpt lat="45.00153" lon="-0.23576">
        <ele>55.8</ele>
        <time>2021-06-03T10:02:17.000Z</time>
      </trkpt>
      <trkpt lat="45.00155" lon="-0.23565">
        <ele>56.1</ele>
        <time>2021-06-03T10:02:19.000Z</time>
      </trkpt>
      <trkpt lat="45.00157" lon="-0.23554">
        <ele>56.4</ele>
        <time>2021-06-03T10:02:21.000Z</time>
      </trkpt>
      <trkpt lat="45.00159" lon="-0.23544">
        <ele>56.5</ele>
        <time>2021-06-03T10:02:23.000Z</time>
      </trkpt>
      <trkpt lat="45.00161" lon="-0.23533">
        <ele>56.5</ele>
        <time>2021-06-03T10:02:25.000Z</time>
      </trkpt>
      <trkpt lat="45.00163" lon="-0.23522">
        <ele>56.5</ele>
        <time>2021-06-03T10:02:27.000Z</time>
      </trkpt>
      <trkpt lat="45.00166" lon="-0.23512">
        <ele>56.2</ele>
        <time>2021-06-03T10:02:29.000Z</time>
      </trkpt>
      <trkpt lat="45.00168" lon="-0.23502">
        <ele>56</ele>
        <time>2021-06-03T10:02:31.000Z</time>
      </trkpt>
      <trkpt lat="45.00169" lon="-0.23491">
        <ele>56.2</ele>
        <time>2021-06-03T10:02:33.000Z</time>
      </trkpt>
      <trkpt lat="45.00171" lon="-0.23481">
        <ele>56.8</ele>
        <time>2021-06-03T10:02:35.000Z</time>
      </trkpt>
      <trkpt lat="45.00173" lon="-0.2347">
        <ele>57.2</ele>
        <time>2021-06-03T10:02:37.000Z</time>
      </trkpt>
      <trkpt lat="45.00175" lon="-0.23459">
        <ele>56.9</ele>
        <time>2021-06-03T10:02:39.000Z</time>
      </trkpt>
      <trkpt lat="45.00176" lon="-0.23448">
        <ele>57.1</ele>
        <time>2021-06-03T10:02:41.000Z</time>
      </trkpt>
      <trkpt lat="45.00178" lon="-0.23437">
        <ele>57.8</ele>
        <time>2021-06-03T10:02:43.000Z</time>
      </trkpt>
      <trkpt lat="45.0018" lon="-0.23426">
        <ele>58</ele>
        <time>2021-06-03T10:02:45.000Z</time>
      </trkpt>
      <trkpt lat="45.00182" lon="-0.23415">
        <ele>57.8</ele>
        <time>2021-06-03T10:02:47.000Z</time>
      </trkpt>
      <trkpt lat="45.00184" lon="-0.23405">
        <ele>57.9</ele>
        <time>2021-06-03T10:02:49.000Z</time>
      </trkpt>
      <trkpt lat="45.00185" lon="-0.23394">
        <ele>58.2</ele>
        <time>2021-06-03T10:02:51.000Z</time>
      </trkpt>
      <trkpt lat="45.00187" lon="-0.23383">
        <ele>58.3</ele>
        <time>2021-06-03T10:02:53.000Z</time>
      </trkpt>
      <trkpt lat="45.0019" lon="-0.23372">
        <ele>59</ele>
        <time>2021-06-03T10:02:55.000Z</time>
      </trkpt>
      <trkpt lat="45.00192" lon="-0.23362">
        <ele>59.4</ele>
        <time>2021-06-03T10:02:57.000Z</time>
      </trkpt>
      <trkpt lat="45.00194" lon="-0.23352">
        <ele>59.8</ele>
        <time>2021-06-03T10:02:59.000Z</time>
      </trkpt>
      <trkpt lat="45.00196" lon="-0.23342">
        <ele>59.7</ele>
        <time>2021-06-03T10:03:01.000Z</time>
      </trkpt>
      <trkpt lat="45.00197" lon="-0.23337">
        <ele>59.6</ele>
        <time>2021-06-03T10:03:02.000Z</time>
      </trkpt>
      <trkpt lat="45.00201" lon="-0.23322">
        <ele>59.6</ele>
        <time>2021-06-03T10:03:05.000Z</time>
      </trkpt>
      <trkpt lat="45.00203" lon="-0.23312">
        <ele>60.3</ele>
        <time>2021-06-03T10:03:07.000Z</time>
      </trkpt>
      <trkpt lat="45.00205" lon="-0.23302">
        <ele>60.2</ele>
        <time>2021-06-03T10:03:09.000Z</time>
      </trkpt>
      <trkpt lat="45.00207" lon="-0.23292">
        <ele>60</ele>
        <time>2021-06-03T10:03:11.000Z</time>
      </trkpt>
      <trkpt lat="45.0021" lon="-0.23282">
        <ele>60.1</ele>
        <time>2021-06-03T10:03:13.000Z</time>
      </trkpt>
      <trkpt lat="45.00213" lon="-0.23272">
        <ele>60.5</ele>
        <time>2021-06-03T10:03:15.000Z</time>
      </trkpt>
      <trkpt lat="45.00216" lon="-0.23262">
        <ele>61</ele>
        <time>2021-06-03T10:03:17.000Z</time>
      </trkpt>
      <trkpt lat="45.00218" lon="-0.23252">
        <ele>60.5</ele>
        <time>2021-06-03T10:03:19.000Z</time>
      </trkpt>
      <trkpt lat="45.00221" lon="-0.23241">
        <ele>60.8</ele>
        <time>2021-06-03T10:03:21.000Z</time>
      </trkpt>
      <trkpt lat="45.00224" lon="-0.23231">
        <ele>60.8</ele>
        <time>2021-06-03T10:03:23.000Z</time>
      </trkpt>
      <trkpt lat="45.00227" lon="-0.2322">
        <ele>60.8</ele>
        <time>2021-06-03T10:03:25.000Z</time>
      </trkpt>
      <trkpt lat="45.0023" lon="-0.2321">
        <ele>60.8</ele>
        <time>2021-06-03T10:03:27.000Z</time>
      </trkpt>
      <trkpt lat="45.00233" lon="-0.232">
        <ele>61</ele>
        <time>2021-06-03T10:03:29.000Z</time>
      </trkpt>
      <trkpt lat="45.00236" lon="-0.2319">
        <ele>61.6</ele>
        <time>2021-06-03T10:03:31.000Z</time>
      </trkpt>
      <trkpt lat="45.00239" lon="-0.23181">
        <ele>61.7</ele>
        <time>2021-06-03T10:03:33.000Z</time>
      </trkpt>
      <trkpt lat="45.00241" lon="-0.23172">
        <ele>61.1</ele>
        <time>2021-06-03T10:03:35.000Z</time>
      </trkpt>
      <trkpt lat="45.00244" lon="-0.23162">
        <ele>61.2</ele>
        <time>2021-06-03T10:03:37.000Z</time>
      </trkpt>
      <trkpt lat="45.00246" lon="-0.23152">
        <ele>61.2</ele>
        <time>2021-06-03T10:03:39.000Z</time>
      </trkpt>
      <trkpt lat="45.00249" lon="-0.23143">
        <ele>61</ele>
        <time>2021-06-03T10:03:41.000Z</time>
      </trkpt>
      <trkpt lat="45.00251" lon="-0.23134">
        <ele>60.9</ele>
        <time>2021-06-03T10:03:43.000Z</time>
      </trkpt>
      <trkpt lat="45.00254" lon="-0.23125">
        <ele>60.8</ele>
        <time>2021-06-03T10:03:45.000Z</time>
      </trkpt>
      <trkpt lat="45.00257" lon="-0.23115">
        <ele>61.1</ele>
        <time>2021-06-03T10:03:47.000Z</time>
      </trkpt>
      <trkpt lat="45.00261" lon="-0.23106">
        <ele>61.4</ele>
        <time>2021-06-03T10:03:49.000Z</time>
      </trkpt>
      <trkpt lat="45.00264" lon="-0.23096">
        <ele>61.4</ele>
        <time>2021-06-03T10:03:51.000Z</time>
      </trkpt>
      <trkpt lat="45.00268" lon="-0.23086">
        <ele>61.4</ele>
        <time>2021-06-03T10:03:53.000Z</time>
      </trkpt>
      <trkpt lat="45.00272" lon="-0.23076">
        <ele>61.4</ele>
        <time>2021-06-03T10:03:55.000Z</time>
      </trkpt>
      <trkpt lat="45.00275" lon="-0.23068">
        <ele>61.7</ele>
        <time>2021-06-03T10:03:57.000Z</time>
      </trkpt>
      <trkpt lat="45.00278" lon="-0.2306">
        <ele>61.3</ele>
        <time>2021-06-03T10:03:59.000Z</time>
      </trkpt>
      <trkpt lat="45.0028" lon="-0.23052">
        <ele>61.5</ele>
        <time>2021-06-03T10:04:01.000Z</time>
      </trkpt>
      <trkpt lat="45.00283" lon="-0.23043">
        <ele>61.7</ele>
        <time>2021-06-03T10:04:03.000Z</time>
      </trkpt>
      <trkpt lat="45.00285" lon="-0.23038">
        <ele>61.7</ele>
        <time>2021-06-03T10:04:04.000Z</time>
      </trkpt>
      <trkpt lat="45.00289" lon="-0.23022">
        <ele>62.2</ele>
        <time>2021-06-03T10:04:07.000Z</time>
      </trkpt>
      <trkpt lat="45.00291" lon="-0.23011">
        <ele>62</ele>
        <time>2021-06-03T10:04:09.000Z</time>
      </trkpt>
      <trkpt lat="45.0029" lon="-0.23">
        <ele>62.2</ele>
        <time>2021-06-03T10:04:11.000Z</time>
      </trkpt>
      <trkpt lat="45.00289" lon="-0.22989">
        <ele>62.6</ele>
        <time>2021-06-03T10:04:13.000Z</time>
      </trkpt>
      <trkpt lat="45.00286" lon="-0.22979">
        <ele>62.8</ele>
        <time>2021-06-03T10:04:15.000Z</time>
      </trkpt>
      <trkpt lat="45.00283" lon="-0.22969">
        <ele>62.5</ele>
        <time>2021-06-03T10:04:17.000Z</time>
      </trkpt>
      <trkpt lat="45.00279" lon="-0.22959">
        <ele>62.2</ele>
        <time>2021-06-03T10:04:19.000Z</time>
      </trkpt>
      <trkpt lat="45.00275" lon="-0.22949">
        <ele>62.2</ele>
        <time>2021-06-03T10:04:21.000Z</time>
      </trkpt>
      <trkpt lat="45.00272" lon="-0.22939">
        <ele>61.9</ele>
        <time>2021-06-03T10:04:23.000Z</time>
      </trkpt>
      <trkpt lat="45.00269" lon="-0.2293">
        <ele>62.2</ele>
        <time>2021-06-03T10:04:25.000Z</time>
      </trkpt>
      <trkpt lat="45.00266" lon="-0.2292">
        <ele>62.6</ele>
        <time>2021-06-03T10:04:27.000Z</time>
      </trkpt>
      <trkpt lat="45.00264" lon="-0.22911">
        <ele>62.8</ele>
        <time>2021-06-03T10:04:29.000Z</time>
      </trkpt>
      <trkpt lat="45.00262" lon="-0.22901">
        <ele>63</ele>
        <time>2021-06-03T10:04:31.000Z</time>
      </trkpt>
      <trkpt lat="45.00261" lon="-0.22891">
        <ele>63.2</ele>
        <time>2021-06-03T10:04:33.000Z</time>
      </trkpt>
      <trkpt lat="45.00261" lon="-0.22881">
        <ele>63.7</ele>
        <time>2021-06-03T10:04:35.000Z</time>
      </trkpt>
      <trkpt lat="45.00261" lon="-0.2287">
        <ele>64.3</ele>
        <time>2021-06-03T10:04:37.000Z</time>
      </trkpt>
      <trkpt lat="45.00261" lon="-0.22859">
        <ele>64.1</ele>
        <time>2021-06-03T10:04:39.000Z</time>
      </trkpt>
      <trkpt lat="45.00262" lon="-0.22847">
        <ele>63.6</ele>
        <time>2021-06-03T10:04:41.000Z</time>
      </trkpt>
      <trkpt lat="45.00263" lon="-0.2284">
        <ele>63.6</ele>
        <time>2021-06-03T10:04:42.000Z</time>
      </trkpt>
      <trkpt lat="45.00264" lon="-0.22834">
        <ele>63.2</ele>
        <time>2021-06-03T10:04:43.000Z</time>
      </trkpt>
      <trkpt lat="45.00266" lon="-0.22827">
        <ele>63</ele>
        <time>2021-06-03T10:04:44.000Z</time>
      </trkpt>
      <trkpt lat="45.00268" lon="-0.2282">
        <ele>62.8</ele>
        <time>2021-06-03T10:04:45.000Z</time>
      </trkpt>
      <trkpt lat="45.00269" lon="-0.22813">
        <ele>62.3</ele>
        <time>2021-06-03T10:04:46.000Z</time>
      </trkpt>
      <trkpt lat="45.00272" lon="-0.22806">
        <ele>61.8</ele>
        <time>2021-06-03T10:04:47.000Z</time>
      </trkpt>
      <trkpt lat="45.00274" lon="-0.22799">
        <ele>62.1</ele>
        <time>2021-06-03T10:04:48.000Z</time>
      </trkpt>
      <trkpt lat="45.00276" lon="-0.22792">
        <ele>62.4</ele>
        <time>2021-06-03T10:04:49.000Z</time>
      </trkpt>
      <trkpt lat="45.00279" lon="-0.22785">
        <ele>62.1</ele>
        <time>2021-06-03T10:04:50.000Z</time>
      </trkpt>
      <trkpt lat="45.00281" lon="-0.22778">
        <ele>61.9</ele>
        <time>2021-06-03T10:04:51.000Z</time>
      </trkpt>
      <trkpt lat="45.00283" lon="-0.22771">
        <ele>61.7</ele>
        <time>2021-06-03T10:04:52.000Z</time>
      </trkpt>
      <trkpt lat="45.00286" lon="-0.22765">
        <ele>61.4</ele>
        <time>2021-06-03T10:04:53.000Z</time>
      </trkpt>
      <trkpt lat="45.00288" lon="-0.2276">
        <ele>61.2</ele>
        <time>2021-06-03T10:04:54.000Z</time>
      </trkpt>
      <trkpt lat="45.00292" lon="-0.22749">
        <ele>61.5</ele>
        <time>2021-06-03T10:04:56.000Z</time>
      </trkpt>
      <trkpt lat="45.00297" lon="-0.22739">
        <ele>61.8</ele>
        <time>2021-06-03T10:04:58.000Z</time>
      </trkpt>
      <trkpt lat="45.00301" lon="-0.22729">
        <ele>61.8</ele>
        <time>2021-06-03T10:05:00.000Z</time>
      </trkpt>
      <trkpt lat="45.00306" lon="-0.22719">
        <ele>62.3</ele>
        <time>2021-06-03T10:05:02.000Z</time>
      </trkpt>
      <trkpt lat="45.0031" lon="-0.2271">
        <ele>62.9</ele>
        <time>2021-06-03T10:05:04.000Z</time>
      </trkpt>
      <trkpt lat="45.00312" lon="-0.22705">
        <ele>63</ele>
        <time>2021-06-03T10:05:05.000Z</time>
      </trkpt>
      <trkpt lat="45.00319" lon="-0.22692">
        <ele>63</ele>
        <time>2021-06-03T10:05:08.000Z</time>
      </trkpt>
      <trkpt lat="45.00323" lon="-0.22684">
        <ele>63.4</ele>
        <time>2021-06-03T10:05:10.000Z</time>
      </trkpt>
      <trkpt lat="45.00327" lon="-0.22675">
        <ele>64.1</ele>
        <time>2021-06-03T10:05:12.000Z</time>
      </trkpt>
      <trkpt lat="45.00331" lon="-0.22667">
        <ele>64.3</ele>
        <time>2021-06-03T10:05:14.000Z</time>
      </trkpt>
      <trkpt lat="45.00336" lon="-0.22659">
        <ele>64.4</ele>
        <time>2021-06-03T10:05:16.000Z</time>
      </trkpt>
      <trkpt lat="45.00341" lon="-0.2265">
        <ele>64.6</ele>
        <time>2021-06-03T10:05:18.000Z</time>
      </trkpt>
      <trkpt lat="45.00347" lon="-0.22642">
        <ele>64.2</ele>
        <time>2021-06-03T10:05:20.000Z</time>
      </trkpt>
      <trkpt lat="45.00353" lon="-0.22633">
        <ele>63.7</ele>
        <time>2021-06-03T10:05:22.000Z</time>
      </trkpt>
      <trkpt lat="45.00359" lon="-0.22625">
        <ele>63.6</ele>
        <time>2021-06-03T10:05:24.000Z</time>
      </trkpt>
      <trkpt lat="45.00366" lon="-0.22618">
        <ele>63.4</ele>
        <time>2021-06-03T10:05:26.000Z</time>
      </trkpt>
      <trkpt lat="45.00373" lon="-0.22612">
        <ele>63.4</ele>
        <time>2021-06-03T10:05:28.000Z</time>
      </trkpt>
      <trkpt lat="45.00382" lon="-0.22607">
        <ele>63.6</ele>
        <time>2021-06-03T10:05:30.000Z</time>
      </trkpt>
      <trkpt lat="45.0039" lon="-0.22603">
        <ele>63.8</ele>
        <time>2021-06-03T10:05:32.000Z</time>
      </trkpt>
      <trkpt lat="45.00395" lon="-0.22601">
        <ele>63.5</ele>
        <time>2021-06-03T10:05:33.000Z</time>
      </trkpt>
      <trkpt lat="45.004" lon="-0.226">
        <ele>63.2</ele>
        <time>2021-06-03T10:05:34.000Z</time>
      </trkpt>
      <trkpt lat="45.00405" lon="-0.22598">
        <ele>62.8</ele>
        <time>2021-06-03T10:05:35.000Z</time>
      </trkpt>
      <trkpt lat="45.0041" lon="-0.22596">
        <ele>62.5</ele>
        <time>2021-06-03T10:05:36.000Z</time>
      </trkpt>
      <trkpt lat="45.00415" lon="-0.22595">
        <ele>62.2</ele>
        <time>2021-06-03T10:05:37.000Z</time>
      </trkpt>
      <trkpt lat="45.0042" lon="-0.22593">
        <ele>62.1</ele>
        <time>2021-06-03T10:05:38.000Z</time>
      </trkpt>
      <trkpt lat="45.00425" lon="-0.22592">
        <ele>62.1</ele>
        <time>2021-06-03T10:05:39.000Z</time>
      </trkpt>
      <trkpt lat="45.0043" lon="-0.2259">
        <ele>61.7</ele>
        <time>2021-06-03T10:05:40.000Z</time>
      </trkpt>
      <trkpt lat="45.00435" lon="-0.22589">
        <ele>61.4</ele>
        <time>2021-06-03T10:05:41.000Z</time>
      </trkpt>
      <trkpt lat="45.00441" lon="-0.22587">
        <ele>61.2</ele>
        <time>2021-06-03T10:05:42.000Z</time>
      </trkpt>
      <trkpt lat="45.00446" lon="-0.22586">
        <ele>60.8</ele>
        <time>2021-06-03T10:05:43.000Z</time>
      </trkpt>
      <trkpt lat="45.00452" lon="-0.22585">
        <ele>60.5</ele>
        <time>2021-06-03T10:05:44.000Z</time>
      </trkpt>
      <trkpt lat="45.00457" lon="-0.22584">
        <ele>60.5</ele>
        <time>2021-06-03T10:05:45.000Z</time>
      </trkpt>
      <trkpt lat="45.00462" lon="-0.22582">
        <ele>60.5</ele>
        <time>2021-06-03T10:05:46.000Z</time>
      </trkpt>
      <trkpt lat="45.00468" lon="-0.22581">
        <ele>60.5</ele>
        <time>2021-06-03T10:05:47.000Z</time>
      </trkpt>
      <trkpt lat="45.00473" lon="-0.2258">
        <ele>60.5</ele>
        <time>2021-06-03T10:05:48.000Z</time>
      </trkpt>
      <trkpt lat="45.00477" lon="-0.22578">
        <ele>60.5</ele>
        <time>2021-06-03T10:05:49.000Z</time>
      </trkpt>
      <trkpt lat="45.00482" lon="-0.22576">
        <ele>60.4</ele>
        <time>2021-06-03T10:05:50.000Z</time>
      </trkpt>
      <trkpt lat="45.00487" lon="-0.22575">
        <ele>60.3</ele>
        <time>2021-06-03T10:05:51.000Z</time>
      </trkpt>
      <trkpt lat="45.00492" lon="-0.22573">
        <ele>60.3</ele>
        <time>2021-06-03T10:05:52.000Z</time>
      </trkpt>
      <trkpt lat="45.00496" lon="-0.22571">
        <ele>60.4</ele>
        <time>2021-06-03T10:05:53.000Z</time>
      </trkpt>
      <trkpt lat="45.00501" lon="-0.22569">
        <ele>60.2</ele>
        <time>2021-06-03T10:05:54.000Z</time>
      </trkpt>
      <trkpt lat="45.00506" lon="-0.22567">
        <ele>60</ele>
        <time>2021-06-03T10:05:55.000Z</time>
      </trkpt>
      <trkpt lat="45.0051" lon="-0.22566">
        <ele>59.8</ele>
        <time>2021-06-03T10:05:56.000Z</time>
      </trkpt>
      <trkpt lat="45.00515" lon="-0.22564">
        <ele>60.1</ele>
        <time>2021-06-03T10:05:57.000Z</time>
      </trkpt>
      <trkpt lat="45.00519" lon="-0.22562">
        <ele>60.2</ele>
        <time>2021-06-03T10:05:58.000Z</time>
      </trkpt>
      <trkpt lat="45.00524" lon="-0.2256">
        <ele>60.3</ele>
        <time>2021-06-03T10:05:59.000Z</time>
      </trkpt>
      <trkpt lat="45.00528" lon="-0.22558">
        <ele>60.3</ele>
        <time>2021-06-03T10:06:00.000Z</time>
      </trkpt>
      <trkpt lat="45.00533" lon="-0.22557">
        <ele>60.4</ele>
        <time>2021-06-03T10:06:01.000Z</time>
      </trkpt>
      <trkpt lat="45.00537" lon="-0.22556">
        <ele>60.4</ele>
        <time>2021-06-03T10:06:02.000Z</time>
      </trkpt>
      <trkpt lat="45.00542" lon="-0.22555">
        <ele>60.4</ele>
        <time>2021-06-03T10:06:03.000Z</time>
      </trkpt>
      <trkpt lat="45.0055" lon="-0.22553">
        <ele>61.1</ele>
        <time>2021-06-03T10:06:05.000Z</time>
      </trkpt>
      <trkpt lat="45.00554" lon="-0.22552">
        <ele>61</ele>
        <time>2021-06-03T10:06:06.000Z</time>
      </trkpt>
      <trkpt lat="45.00567" lon="-0.22549">
        <ele>60.8</ele>
        <time>2021-06-03T10:06:09.000Z</time>
      </trkpt>
      <trkpt lat="45.00574" lon="-0.22548">
        <ele>60.7</ele>
        <time>2021-06-03T10:06:11.000Z</time>
      </trkpt>
      <trkpt lat="45.00582" lon="-0.22547">
        <ele>60.9</ele>
        <time>2021-06-03T10:06:13.000Z</time>
      </trkpt>
      <trkpt lat="45.00589" lon="-0.22545">
        <ele>61.1</ele>
        <time>2021-06-03T10:06:15.000Z</time>
      </trkpt>
      <trkpt lat="45.00597" lon="-0.22543">
        <ele>61.2</ele>
        <time>2021-06-03T10:06:17.000Z</time>
      </trkpt>
      <trkpt lat="45.00605" lon="-0.22541">
        <ele>61.8</ele>
        <time>2021-06-03T10:06:19.000Z</time>
      </trkpt>
      <trkpt lat="45.00613" lon="-0.22537">
        <ele>62</ele>
        <time>2021-06-03T10:06:21.000Z</time>
      </trkpt>
      <trkpt lat="45.00621" lon="-0.22534">
        <ele>61.9</ele>
        <time>2021-06-03T10:06:23.000Z</time>
      </trkpt>
      <trkpt lat="45.00628" lon="-0.2253">
        <ele>62.1</ele>
        <time>2021-06-03T10:06:25.000Z</time>
      </trkpt>
      <trkpt lat="45.00636" lon="-0.22528">
        <ele>62.4</ele>
        <time>2021-06-03T10:06:27.000Z</time>
      </trkpt>
      <trkpt lat="45.00644" lon="-0.22527">
        <ele>63.3</ele>
        <time>2021-06-03T10:06:29.000Z</time>
      </trkpt>
      <trkpt lat="45.00651" lon="-0.22527">
        <ele>63.4</ele>
        <time>2021-06-03T10:06:31.000Z</time>
      </trkpt>
      <trkpt lat="45.00659" lon="-0.22527">
        <ele>63.3</ele>
        <time>2021-06-03T10:06:33.000Z</time>
      </trkpt>
      <trkpt lat="45.00666" lon="-0.22527">
        <ele>63.4</ele>
        <time>2021-06-03T10:06:35.000Z</time>
      </trkpt>
      <trkpt lat="45.00673" lon="-0.22526">
        <ele>63.8</ele>
        <time>2021-06-03T10:06:37.000Z</time>
      </trkpt>
      <trkpt lat="45.00679" lon="-0.22523">
        <ele>64</ele>
        <time>2021-06-03T10:06:39.000Z</time>
      </trkpt>
      <trkpt lat="45.00683" lon="-0.22516">
        <ele>64.3</ele>
        <time>2021-06-03T10:06:41.000Z</time>
      </trkpt>
      <trkpt lat="45.00686" lon="-0.22507">
        <ele>64.6</ele>
        <time>2021-06-03T10:06:43.000Z</time>
      </trkpt>
      <trkpt lat="45.0069" lon="-0.225">
        <ele>65.2</ele>
        <time>2021-06-03T10:06:45.000Z</time>
      </trkpt>
      <trkpt lat="45.00695" lon="-0.22494">
        <ele>65.2</ele>
        <time>2021-06-03T10:06:47.000Z</time>
      </trkpt>
      <trkpt lat="45.007" lon="-0.22487">
        <ele>65.3</ele>
        <time>2021-06-03T10:06:49.000Z</time>
      </trkpt>
      <trkpt lat="45.00705" lon="-0.22479">
        <ele>65.7</ele>
        <time>2021-06-03T10:06:51.000Z</time>
      </trkpt>
      <trkpt lat="45.0071" lon="-0.2247">
        <ele>66</ele>
        <time>2021-06-03T10:06:53.000Z</time>
      </trkpt>
      <trkpt lat="45.00713" lon="-0.22461">
        <ele>66.3</ele>
        <time>2021-06-03T10:06:55.000Z</time>
      </trkpt>
      <trkpt lat="45.00715" lon="-0.22453">
        <ele>66.9</ele>
        <time>2021-06-03T10:06:57.000Z</time>
      </trkpt>
      <trkpt lat="45.00716" lon="-0.22444">
        <ele>67.3</ele>
        <time>2021-06-03T10:06:59.000Z</time>
      </trkpt>
      <trkpt lat="45.00717" lon="-0.22435">
        <ele>67.5</ele>
        <time>2021-06-03T10:07:01.000Z</time>
      </trkpt>
      <trkpt lat="45.00717" lon="-0.22426">
        <ele>67.7</ele>
        <time>2021-06-03T10:07:03.000Z</time>
      </trkpt>
      <trkpt lat="45.00717" lon="-0.22415">
        <ele>67.9</ele>
        <time>2021-06-03T10:07:06.000Z</time>
      </trkpt>
      <trkpt lat="45.00717" lon="-0.22411">
        <ele>67.9</ele>
        <time>2021-06-03T10:07:07.000Z</time>
      </trkpt>
      <trkpt lat="45.00714" lon="-0.22392">
        <ele>69</ele>
        <time>2021-06-03T10:07:14.000Z</time>
      </trkpt>
      <trkpt lat="45.00708" lon="-0.22383">
        <ele>68.9</ele>
        <time>2021-06-03T10:07:30.000Z</time>
      </trkpt>
      <trkpt lat="45.00713" lon="-0.22392">
        <ele>69.1</ele>
        <time>2021-06-03T10:24:44.000Z</time>
      </trkpt>
      <trkpt lat="45.00713" lon="-0.22394">
        <ele>69</ele>
        <time>2021-06-03T10:24:45.000Z</time>
      </trkpt>
      <trkpt lat="45.00716" lon="-0.22414">
        <ele>70</ele>
        <time>2021-06-03T10:24:51.000Z</time>
      </trkpt>
      <trkpt lat="45.00716" lon="-0.22423">
        <ele>69.9</ele>
        <time>2021-06-03T10:24:53.000Z</time>
      </trkpt>
      <trkpt lat="45.00716" lon="-0.22433">
        <ele>69</ele>
        <time>2021-06-03T10:24:55.000Z</time>
      </trkpt>
      <trkpt lat="45.00716" lon="-0.22443">
        <ele>68.7</ele>
        <time>2021-06-03T10:24:57.000Z</time>
      </trkpt>
      <trkpt lat="45.00715" lon="-0.22454">
        <ele>68.4</ele>
        <time>2021-06-03T10:24:59.000Z</time>
      </trkpt>
      <trkpt lat="45.00713" lon="-0.22464">
        <ele>68.2</ele>
        <time>2021-06-03T10:25:01.000Z</time>
      </trkpt>
      <trkpt lat="45.0071" lon="-0.22473">
        <ele>67.9</ele>
        <time>2021-06-03T10:25:03.000Z</time>
      </trkpt>
      <trkpt lat="45.00706" lon="-0.22483">
        <ele>67.6</ele>
        <time>2021-06-03T10:25:05.000Z</time>
      </trkpt>
      <trkpt lat="45.00704" lon="-0.22494">
        <ele>67</ele>
        <time>2021-06-03T10:25:07.000Z</time>
      </trkpt>
      <trkpt lat="45.00704" lon="-0.22506">
        <ele>66.7</ele>
        <time>2021-06-03T10:25:09.000Z</time>
      </trkpt>
      <trkpt lat="45.00699" lon="-0.22515">
        <ele>67</ele>
        <time>2021-06-03T10:25:11.000Z</time>
      </trkpt>
      <trkpt lat="45.00692" lon="-0.22517">
        <ele>67.2</ele>
        <time>2021-06-03T10:25:13.000Z</time>
      </trkpt>
      <trkpt lat="45.00686" lon="-0.2251">
        <ele>66.9</ele>
        <time>2021-06-03T10:25:15.000Z</time>
      </trkpt>
      <trkpt lat="45.0068" lon="-0.22501">
        <ele>66.4</ele>
        <time>2021-06-03T10:25:17.000Z</time>
      </trkpt>
      <trkpt lat="45.00677" lon="-0.22497">
        <ele>66.2</ele>
        <time>2021-06-03T10:25:18.000Z</time>
      </trkpt>
      <trkpt lat="45.00673" lon="-0.22493">
        <ele>66</ele>
        <time>2021-06-03T10:25:19.000Z</time>
      </trkpt>
      <trkpt lat="45.0067" lon="-0.22489">
        <ele>66.1</ele>
        <time>2021-06-03T10:25:20.000Z</time>
      </trkpt>
      <trkpt lat="45.00665" lon="-0.22485">
        <ele>66.2</ele>
        <time>2021-06-03T10:25:21.000Z</time>
      </trkpt>
      <trkpt lat="45.00661" lon="-0.2248">
        <ele>66.1</ele>
        <time>2021-06-03T10:25:22.000Z</time>
      </trkpt>
      <trkpt lat="45.00658" lon="-0.22475">
        <ele>66.1</ele>
        <time>2021-06-03T10:25:23.000Z</time>
      </trkpt>
      <trkpt lat="45.00654" lon="-0.2247">
        <ele>66.1</ele>
        <time>2021-06-03T10:25:24.000Z</time>
      </trkpt>
      <trkpt lat="45.0065" lon="-0.22463">
        <ele>65.7</ele>
        <time>2021-06-03T10:25:25.000Z</time>
      </trkpt>
      <trkpt lat="45.00647" lon="-0.22457">
        <ele>65.5</ele>
        <time>2021-06-03T10:25:26.000Z</time>
      </trkpt>
      <trkpt lat="45.00645" lon="-0.22449">
        <ele>65</ele>
        <time>2021-06-03T10:25:27.000Z</time>
      </trkpt>
      <trkpt lat="45.00643" lon="-0.22441">
        <ele>64.6</ele>
        <time>2021-06-03T10:25:28.000Z</time>
      </trkpt>
      <trkpt lat="45.0064" lon="-0.22432">
        <ele>64.5</ele>
        <time>2021-06-03T10:25:29.000Z</time>
      </trkpt>
      <trkpt lat="45.00639" lon="-0.22423">
        <ele>64.4</ele>
        <time>2021-06-03T10:25:30.000Z</time>
      </trkpt>
      <trkpt lat="45.00637" lon="-0.22413">
        <ele>64.3</ele>
        <time>2021-06-03T10:25:31.000Z</time>
      </trkpt>
      <trkpt lat="45.00636" lon="-0.22404">
        <ele>64</ele>
        <time>2021-06-03T10:25:32.000Z</time>
      </trkpt>
      <trkpt lat="45.00634" lon="-0.22394">
        <ele>63.8</ele>
        <time>2021-06-03T10:25:33.000Z</time>
      </trkpt>
      <trkpt lat="45.00633" lon="-0.22383">
        <ele>63.2</ele>
        <time>2021-06-03T10:25:34.000Z</time>
      </trkpt>
      <trkpt lat="45.00632" lon="-0.22373">
        <ele>62.7</ele>
        <time>2021-06-03T10:25:35.000Z</time>
      </trkpt>
      <trkpt lat="45.0063" lon="-0.22362">
        <ele>62.3</ele>
        <time>2021-06-03T10:25:36.000Z</time>
      </trkpt>
      <trkpt lat="45.00628" lon="-0.22351">
        <ele>61.9</ele>
        <time>2021-06-03T10:25:37.000Z</time>
      </trkpt>
      <trkpt lat="45.00627" lon="-0.2234">
        <ele>61.5</ele>
        <time>2021-06-03T10:25:38.000Z</time>
      </trkpt>
      <trkpt lat="45.00626" lon="-0.22328">
        <ele>61</ele>
        <time>2021-06-03T10:25:39.000Z</time>
      </trkpt>
      <trkpt lat="45.00624" lon="-0.22317">
        <ele>60.6</ele>
        <time>2021-06-03T10:25:40.000Z</time>
      </trkpt>
      <trkpt lat="45.00623" lon="-0.22305">
        <ele>60.4</ele>
        <time>2021-06-03T10:25:41.000Z</time>
      </trkpt>
      <trkpt lat="45.00621" lon="-0.22293">
        <ele>60.3</ele>
        <time>2021-06-03T10:25:42.000Z</time>
      </trkpt>
      <trkpt lat="45.0062" lon="-0.22282">
        <ele>60.2</ele>
        <time>2021-06-03T10:25:43.000Z</time>
      </trkpt>
      <trkpt lat="45.00618" lon="-0.2227">
        <ele>59.7</ele>
        <time>2021-06-03T10:25:44.000Z</time>
      </trkpt>
      <trkpt lat="45.00617" lon="-0.22258">
        <ele>59.4</ele>
        <time>2021-06-03T10:25:45.000Z</time>
      </trkpt>
      <trkpt lat="45.00617" lon="-0.22245">
        <ele>58.6</ele>
        <time>2021-06-03T10:25:46.000Z</time>
      </trkpt>
      <trkpt lat="45.00616" lon="-0.22233">
        <ele>57.9</ele>
        <time>2021-06-03T10:25:47.000Z</time>
      </trkpt>
      <trkpt lat="45.00616" lon="-0.22221">
        <ele>57.6</ele>
        <time>2021-06-03T10:25:48.000Z</time>
      </trkpt>
      <trkpt lat="45.00616" lon="-0.22209">
        <ele>57.3</ele>
        <time>2021-06-03T10:25:49.000Z</time>
      </trkpt>
      <trkpt lat="45.00615" lon="-0.22196">
        <ele>57.1</ele>
        <time>2021-06-03T10:25:50.000Z</time>
      </trkpt>
      <trkpt lat="45.00615" lon="-0.22184">
        <ele>56.5</ele>
        <time>2021-06-03T10:25:51.000Z</time>
      </trkpt>
      <trkpt lat="45.00615" lon="-0.22172">
        <ele>56.1</ele>
        <time>2021-06-03T10:25:52.000Z</time>
      </trkpt>
      <trkpt lat="45.00615" lon="-0.22159">
        <ele>55.6</ele>
        <time>2021-06-03T10:25:53.000Z</time>
      </trkpt>
      <trkpt lat="45.00615" lon="-0.22147">
        <ele>55.3</ele>
        <time>2021-06-03T10:25:54.000Z</time>
      </trkpt>
      <trkpt lat="45.00615" lon="-0.22134">
        <ele>55.1</ele>
        <time>2021-06-03T10:25:55.000Z</time>
      </trkpt>
      <trkpt lat="45.00615" lon="-0.22121">
        <ele>54.3</ele>
        <time>2021-06-03T10:25:56.000Z</time>
      </trkpt>
      <trkpt lat="45.00614" lon="-0.22108">
        <ele>53.8</ele>
        <time>2021-06-03T10:25:57.000Z</time>
      </trkpt>
      <trkpt lat="45.00613" lon="-0.22094">
        <ele>53.4</ele>
        <time>2021-06-03T10:25:58.000Z</time>
      </trkpt>
      <trkpt lat="45.00613" lon="-0.22081">
        <ele>53.1</ele>
        <time>2021-06-03T10:25:59.000Z</time>
      </trkpt>
      <trkpt lat="45.00613" lon="-0.22067">
        <ele>52.6</ele>
        <time>2021-06-03T10:26:00.000Z</time>
      </trkpt>
      <trkpt lat="45.00612" lon="-0.22053">
        <ele>52.2</ele>
        <time>2021-06-03T10:26:01.000Z</time>
      </trkpt>
      <trkpt lat="45.00612" lon="-0.22039">
        <ele>51.9</ele>
        <time>2021-06-03T10:26:02.000Z</time>
      </trkpt>
      <trkpt lat="45.00611" lon="-0.22026">
        <ele>51.4</ele>
        <time>2021-06-03T10:26:03.000Z</time>
      </trkpt>
      <trkpt lat="45.00611" lon="-0.22012">
        <ele>51</ele>
        <time>2021-06-03T10:26:04.000Z</time>
      </trkpt>
      <trkpt lat="45.00611" lon="-0.21998">
        <ele>50.1</ele>
        <time>2021-06-03T10:26:05.000Z</time>
      </trkpt>
      <trkpt lat="45.00611" lon="-0.21984">
        <ele>49.5</ele>
        <time>2021-06-03T10:26:06.000Z</time>
      </trkpt>
      <trkpt lat="45.00611" lon="-0.21971">
        <ele>48.7</ele>
        <time>2021-06-03T10:26:07.000Z</time>
      </trkpt>
      <trkpt lat="45.00611" lon="-0.21957">
        <ele>48.1</ele>
        <time>2021-06-03T10:26:08.000Z</time>
      </trkpt>
      <trkpt lat="45.0061" lon="-0.21943">
        <ele>47.7</ele>
        <time>2021-06-03T10:26:09.000Z</time>
      </trkpt>
      <trkpt lat="45.00609" lon="-0.21929">
        <ele>46.9</ele>
        <time>2021-06-03T10:26:10.000Z</time>
      </trkpt>
      <trkpt lat="45.00607" lon="-0.21914">
        <ele>46.3</ele>
        <time>2021-06-03T10:26:11.000Z</time>
      </trkpt>
      <trkpt lat="45.00605" lon="-0.21901">
        <ele>46.1</ele>
        <time>2021-06-03T10:26:12.000Z</time>
      </trkpt>
      <trkpt lat="45.00602" lon="-0.21887">
        <ele>45.9</ele>
        <time>2021-06-03T10:26:13.000Z</time>
      </trkpt>
      <trkpt lat="45.00599" lon="-0.21874">
        <ele>45.1</ele>
        <time>2021-06-03T10:26:14.000Z</time>
      </trkpt>
      <trkpt lat="45.00594" lon="-0.21861">
        <ele>44.6</ele>
        <time>2021-06-03T10:26:15.000Z</time>
      </trkpt>
      <trkpt lat="45.00589" lon="-0.21848">
        <ele>44.2</ele>
        <time>2021-06-03T10:26:16.000Z</time>
      </trkpt>
      <trkpt lat="45.00584" lon="-0.21835">
        <ele>44.1</ele>
        <time>2021-06-03T10:26:17.000Z</time>
      </trkpt>
      <trkpt lat="45.00579" lon="-0.21823">
        <ele>44.1</ele>
        <time>2021-06-03T10:26:18.000Z</time>
      </trkpt>
      <trkpt lat="45.00573" lon="-0.21811">
        <ele>43.6</ele>
        <time>2021-06-03T10:26:19.000Z</time>
      </trkpt>
      <trkpt lat="45.00568" lon="-0.21798">
        <ele>43.2</ele>
        <time>2021-06-03T10:26:20.000Z</time>
      </trkpt>
      <trkpt lat="45.00562" lon="-0.21786">
        <ele>42.9</ele>
        <time>2021-06-03T10:26:21.000Z</time>
      </trkpt>
      <trkpt lat="45.00556" lon="-0.21774">
        <ele>42.2</ele>
        <time>2021-06-03T10:26:22.000Z</time>
      </trkpt>
      <trkpt lat="45.0055" lon="-0.21762">
        <ele>41.7</ele>
        <time>2021-06-03T10:26:23.000Z</time>
      </trkpt>
      <trkpt lat="45.00543" lon="-0.21751">
        <ele>41</ele>
        <time>2021-06-03T10:26:24.000Z</time>
      </trkpt>
      <trkpt lat="45.00533" lon="-0.21744">
        <ele>40.4</ele>
        <time>2021-06-03T10:26:25.000Z</time>
      </trkpt>
      <trkpt lat="45.00523" lon="-0.21739">
        <ele>39.5</ele>
        <time>2021-06-03T10:26:26.000Z</time>
      </trkpt>
      <trkpt lat="45.00513" lon="-0.21738">
        <ele>38.9</ele>
        <time>2021-06-03T10:26:27.000Z</time>
      </trkpt>
      <trkpt lat="45.00502" lon="-0.21741">
        <ele>38.4</ele>
        <time>2021-06-03T10:26:28.000Z</time>
      </trkpt>
      <trkpt lat="45.00493" lon="-0.21748">
        <ele>38</ele>
        <time>2021-06-03T10:26:29.000Z</time>
      </trkpt>
      <trkpt lat="45.00486" lon="-0.21759">
        <ele>37.7</ele>
        <time>2021-06-03T10:26:30.000Z</time>
      </trkpt>
      <trkpt lat="45.00482" lon="-0.21772">
        <ele>37</ele>
        <time>2021-06-03T10:26:31.000Z</time>
      </trkpt>
      <trkpt lat="45.00479" lon="-0.21786">
        <ele>36.4</ele>
        <time>2021-06-03T10:26:32.000Z</time>
      </trkpt>
      <trkpt lat="45.00477" lon="-0.21801">
        <ele>36</ele>
        <time>2021-06-03T10:26:33.000Z</time>
      </trkpt>
      <trkpt lat="45.00475" lon="-0.21816">
        <ele>35.2</ele>
        <time>2021-06-03T10:26:34.000Z</time>
      </trkpt>
      <trkpt lat="45.00473" lon="-0.21831">
        <ele>34.7</ele>
        <time>2021-06-03T10:26:35.000Z</time>
      </trkpt>
      <trkpt lat="45.00471" lon="-0.21847">
        <ele>34</ele>
        <time>2021-06-03T10:26:36.000Z</time>
      </trkpt>
      <trkpt lat="45.0047" lon="-0.21862">
        <ele>33.5</ele>
        <time>2021-06-03T10:26:37.000Z</time>
      </trkpt>
      <trkpt lat="45.00468" lon="-0.21877">
        <ele>32.5</ele>
        <time>2021-06-03T10:26:38.000Z</time>
      </trkpt>
      <trkpt lat="45.00467" lon="-0.21893">
        <ele>31.8</ele>
        <time>2021-06-03T10:26:39.000Z</time>
      </trkpt>
      <trkpt lat="45.00466" lon="-0.21908">
        <ele>31.2</ele>
        <time>2021-06-03T10:26:40.000Z</time>
      </trkpt>
      <trkpt lat="45.00464" lon="-0.21923">
        <ele>30.7</ele>
        <time>2021-06-03T10:26:41.000Z</time>
      </trkpt>
      <trkpt lat="45.00462" lon="-0.21938">
        <ele>30.4</ele>
        <time>2021-06-03T10:26:42.000Z</time>
      </trkpt>
      <trkpt lat="45.00459" lon="-0.21953">
        <ele>29.8</ele>
        <time>2021-06-03T10:26:43.000Z</time>
      </trkpt>
      <trkpt lat="45.00455" lon="-0.21967">
        <ele>29.4</ele>
        <time>2021-06-03T10:26:44.000Z</time>
      </trkpt>
      <trkpt lat="45.00448" lon="-0.2198">
        <ele>28.8</ele>
        <time>2021-06-03T10:26:45.000Z</time>
      </trkpt>
      <trkpt lat="45.0044" lon="-0.2199">
        <ele>28.4</ele>
        <time>2021-06-03T10:26:46.000Z</time>
      </trkpt>
      <trkpt lat="45.00431" lon="-0.21998">
        <ele>28</ele>
        <time>2021-06-03T10:26:47.000Z</time>
      </trkpt>
      <trkpt lat="45.00421" lon="-0.22003">
        <ele>27.5</ele>
        <time>2021-06-03T10:26:48.000Z</time>
      </trkpt>
      <trkpt lat="45.0041" lon="-0.22005">
        <ele>27.2</ele>
        <time>2021-06-03T10:26:49.000Z</time>
      </trkpt>
      <trkpt lat="45.00399" lon="-0.22005">
        <ele>26.3</ele>
        <time>2021-06-03T10:26:50.000Z</time>
      </trkpt>
      <trkpt lat="45.00389" lon="-0.22002">
        <ele>25.6</ele>
        <time>2021-06-03T10:26:51.000Z</time>
      </trkpt>
      <trkpt lat="45.00379" lon="-0.21996">
        <ele>25.2</ele>
        <time>2021-06-03T10:26:52.000Z</time>
      </trkpt>
      <trkpt lat="45.0037" lon="-0.21988">
        <ele>24.2</ele>
        <time>2021-06-03T10:26:53.000Z</time>
      </trkpt>
      <trkpt lat="45.00361" lon="-0.2198">
        <ele>23.6</ele>
        <time>2021-06-03T10:26:54.000Z</time>
      </trkpt>
      <trkpt lat="45.00352" lon="-0.21971">
        <ele>22.7</ele>
        <time>2021-06-03T10:26:55.000Z</time>
      </trkpt>
      <trkpt lat="45.00344" lon="-0.21961">
        <ele>22.1</ele>
        <time>2021-06-03T10:26:56.000Z</time>
      </trkpt>
      <trkpt lat="45.00335" lon="-0.21952">
        <ele>21.3</ele>
        <time>2021-06-03T10:26:57.000Z</time>
      </trkpt>
      <trkpt lat="45.00327" lon="-0.21942">
        <ele>20.7</ele>
        <time>2021-06-03T10:26:58.000Z</time>
      </trkpt>
      <trkpt lat="45.00319" lon="-0.21933">
        <ele>20.3</ele>
        <time>2021-06-03T10:26:59.000Z</time>
      </trkpt>
      <trkpt lat="45.0031" lon="-0.21924">
        <ele>20</ele>
        <time>2021-06-03T10:27:00.000Z</time>
      </trkpt>
      <trkpt lat="45.00301" lon="-0.21915">
        <ele>19.7</ele>
        <time>2021-06-03T10:27:01.000Z</time>
      </trkpt>
      <trkpt lat="45.00293" lon="-0.21906">
        <ele>18.9</ele>
        <time>2021-06-03T10:27:02.000Z</time>
      </trkpt>
      <trkpt lat="45.00284" lon="-0.21897">
        <ele>18.3</ele>
        <time>2021-06-03T10:27:03.000Z</time>
      </trkpt>
      <trkpt lat="45.00276" lon="-0.21889">
        <ele>17.8</ele>
        <time>2021-06-03T10:27:04.000Z</time>
      </trkpt>
      <trkpt lat="45.00268" lon="-0.2188">
        <ele>17.4</ele>
        <time>2021-06-03T10:27:05.000Z</time>
      </trkpt>
      <trkpt lat="45.0026" lon="-0.21872">
        <ele>17.1</ele>
        <time>2021-06-03T10:27:06.000Z</time>
      </trkpt>
      <trkpt lat="45.00253" lon="-0.21863">
        <ele>16.4</ele>
        <time>2021-06-03T10:27:07.000Z</time>
      </trkpt>
      <trkpt lat="45.00245" lon="-0.21855">
        <ele>16</ele>
        <time>2021-06-03T10:27:08.000Z</time>
      </trkpt>
      <trkpt lat="45.00237" lon="-0.21847">
        <ele>15.3</ele>
        <time>2021-06-03T10:27:09.000Z</time>
      </trkpt>
      <trkpt lat="45.00229" lon="-0.21838">
        <ele>14.9</ele>
        <time>2021-06-03T10:27:10.000Z</time>
      </trkpt>
      <trkpt lat="45.00222" lon="-0.2183">
        <ele>14.5</ele>
        <time>2021-06-03T10:27:11.000Z</time>
      </trkpt>
      <trkpt lat="45.00214" lon="-0.21822">
        <ele>13.8</ele>
        <time>2021-06-03T10:27:12.000Z</time>
      </trkpt>
      <trkpt lat="45.00206" lon="-0.21813">
        <ele>13.3</ele>
        <time>2021-06-03T10:27:13.000Z</time>
      </trkpt>
      <trkpt lat="45.00198" lon="-0.21805">
        <ele>12.8</ele>
        <time>2021-06-03T10:27:14.000Z</time>
      </trkpt>
      <trkpt lat="45.00191" lon="-0.21797">
        <ele>12.5</ele>
        <time>2021-06-03T10:27:15.000Z</time>
      </trkpt>
      <trkpt lat="45.00183" lon="-0.21788">
        <ele>12.3</ele>
        <time>2021-06-03T10:27:16.000Z</time>
      </trkpt>
      <trkpt lat="45.00175" lon="-0.21779">
        <ele>12.1</ele>
        <time>2021-06-03T10:27:17.000Z</time>
      </trkpt>
      <trkpt lat="45.00168" lon="-0.21771">
        <ele>12</ele>
        <time>2021-06-03T10:27:18.000Z</time>
      </trkpt>
      <trkpt lat="45.0016" lon="-0.21762">
        <ele>11.6</ele>
        <time>2021-06-03T10:27:19.000Z</time>
      </trkpt>
      <trkpt lat="45.00153" lon="-0.21753">
        <ele>11.4</ele>
        <time>2021-06-03T10:27:20.000Z</time>
      </trkpt>
      <trkpt lat="45.00146" lon="-0.21744">
        <ele>10.8</ele>
        <time>2021-06-03T10:27:21.000Z</time>
      </trkpt>
      <trkpt lat="45.00139" lon="-0.21735">
        <ele>10.3</ele>
        <time>2021-06-03T10:27:22.000Z</time>
      </trkpt>
      <trkpt lat="45.00133" lon="-0.21725">
        <ele>9.7</ele>
        <time>2021-06-03T10:27:23.000Z</time>
      </trkpt>
      <trkpt lat="45.00127" lon="-0.21715">
        <ele>9.3</ele>
        <time>2021-06-03T10:27:24.000Z</time>
      </trkpt>
      <trkpt lat="45.00121" lon="-0.21704">
        <ele>9</ele>
        <time>2021-06-03T10:27:25.000Z</time>
      </trkpt>
      <trkpt lat="45.00116" lon="-0.21694">
        <ele>9</ele>
        <time>2021-06-03T10:27:26.000Z</time>
      </trkpt>
      <trkpt lat="45.00111" lon="-0.21683">
        <ele>9</ele>
        <time>2021-06-03T10:27:27.000Z</time>
      </trkpt>
      <trkpt lat="45.00106" lon="-0.21672">
        <ele>8.5</ele>
        <time>2021-06-03T10:27:28.000Z</time>
      </trkpt>
      <trkpt lat="45.00101" lon="-0.21662">
        <ele>8.1</ele>
        <time>2021-06-03T10:27:29.000Z</time>
      </trkpt>
      <trkpt lat="45.00096" lon="-0.21652">
        <ele>7.9</ele>
        <time>2021-06-03T10:27:30.000Z</time>
      </trkpt>
      <trkpt lat="45.00092" lon="-0.21642">
        <ele>7.8</ele>
        <time>2021-06-03T10:27:31.000Z</time>
      </trkpt>
      <trkpt lat="45.00088" lon="-0.21632">
        <ele>7.7</ele>
        <time>2021-06-03T10:27:32.000Z</time>
      </trkpt>
      <trkpt lat="45.00083" lon="-0.21621">
        <ele>7.6</ele>
        <time>2021-06-03T10:27:33.000Z</time>
      </trkpt>
      <trkpt lat="45.00079" lon="-0.21611">
        <ele>7.5</ele>
        <time>2021-06-03T10:27:34.000Z</time>
      </trkpt>
      <trkpt lat="45.00075" lon="-0.216">
        <ele>7.5</ele>
        <time>2021-06-03T10:27:35.000Z</time>
      </trkpt>
      <trkpt lat="45.00071" lon="-0.2159">
        <ele>7.4</ele>
        <time>2021-06-03T10:27:36.000Z</time>
      </trkpt>
      <trkpt lat="45.00066" lon="-0.2158">
        <ele>7.4</ele>
        <time>2021-06-03T10:27:37.000Z</time>
      </trkpt>
      <trkpt lat="45.00062" lon="-0.2157">
        <ele>7.4</ele>
        <time>2021-06-03T10:27:38.000Z</time>
      </trkpt>
      <trkpt lat="45.00058" lon="-0.21561">
        <ele>7.4</ele>
        <time>2021-06-03T10:27:39.000Z</time>
      </trkpt>
      <trkpt lat="45.00054" lon="-0.21552">
        <ele>7.5</ele>
        <time>2021-06-03T10:27:40.000Z</time>
      </trkpt>
      <trkpt lat="45.00051" lon="-0.21544">
        <ele>7.7</ele>
        <time>2021-06-03T10:27:41.000Z</time>
      </trkpt>
      <trkpt lat="45.00047" lon="-0.21535">
        <ele>7.6</ele>
        <time>2021-06-03T10:27:42.000Z</time>
      </trkpt>
      <trkpt lat="45.00043" lon="-0.21527">
        <ele>7.6</ele>
        <time>2021-06-03T10:27:43.000Z</time>
      </trkpt>
      <trkpt lat="45.00039" lon="-0.21519">
        <ele>7.6</ele>
        <time>2021-06-03T10:27:44.000Z</time>
      </trkpt>
      <trkpt lat="45.00036" lon="-0.21512">
        <ele>7.4</ele>
        <time>2021-06-03T10:27:45.000Z</time>
      </trkpt>
      <trkpt lat="45.00032" lon="-0.21504">
        <ele>7.3</ele>
        <time>2021-06-03T10:27:46.000Z</time>
      </trkpt>
      <trkpt lat="45.00029" lon="-0.21497">
        <ele>7.2</ele>
        <time>2021-06-03T10:27:47.000Z</time>
      </trkpt>
      <trkpt lat="45.00026" lon="-0.2149">
        <ele>7.1</ele>
        <time>2021-06-03T10:27:48.000Z</time>
      </trkpt>
      <trkpt lat="45.00023" lon="-0.21483">
        <ele>7.3</ele>
        <time>2021-06-03T10:27:49.000Z</time>
      </trkpt>
      <trkpt lat="45.0002" lon="-0.21476">
        <ele>7.4</ele>
        <time>2021-06-03T10:27:50.000Z</time>
      </trkpt>
      <trkpt lat="45.00016" lon="-0.21469">
        <ele>7.6</ele>
        <time>2021-06-03T10:27:51.000Z</time>
      </trkpt>
      <trkpt lat="45.00013" lon="-0.21462">
        <ele>7.6</ele>
        <time>2021-06-03T10:27:52.000Z</time>
      </trkpt>
      <trkpt lat="45.0001" lon="-0.21456">
        <ele>7.7</ele>
        <time>2021-06-03T10:27:53.000Z</time>
      </trkpt>
      <trkpt lat="45.00006" lon="-0.21449">
        <ele>7.7</ele>
        <time>2021-06-03T10:27:54.000Z</time>
      </trkpt>
      <trkpt lat="45.00003" lon="-0.21443">
        <ele>7.7</ele>
        <time>2021-06-03T10:27:55.000Z</time>
      </trkpt>
      <trkpt lat="45" lon="-0.21437">
        <ele>7.8</ele>
        <time>2021-06-03T10:27:56.000Z</time>
      </trkpt>
      <trkpt lat="44.99996" lon="-0.21431">
        <ele>7.8</ele>
        <time>2021-06-03T10:27:57.000Z</time>
      </trkpt>
      <trkpt lat="44.99993" lon="-0.21426">
        <ele>7.8</ele>
        <time>2021-06-03T10:27:58.000Z</time>
      </trkpt>
      <trkpt lat="44.99989" lon="-0.2142">
        <ele>7.4</ele>
        <time>2021-06-03T10:27:59.000Z</time>
      </trkpt>
      <trkpt lat="44.99986" lon="-0.21415">
        <ele>7.2</ele>
        <time>2021-06-03T10:28:00.000Z</time>
      </trkpt>
      <trkpt lat="44.99982" lon="-0.2141">
        <ele>7.4</ele>
        <time>2021-06-03T10:28:01.000Z</time>
      </trkpt>
      <trkpt lat="44.99978" lon="-0.21405">
        <ele>7.6</ele>
        <time>2021-06-03T10:28:02.000Z</time>
      </trkpt>
      <trkpt lat="44.99974" lon="-0.214">
        <ele>7.8</ele>
        <time>2021-06-03T10:28:03.000Z</time>
      </trkpt>
      <trkpt lat="44.9997" lon="-0.21394">
        <ele>7.6</ele>
        <time>2021-06-03T10:28:04.000Z</time>
      </trkpt>
      <trkpt lat="44.99966" lon="-0.21389">
        <ele>7.5</ele>
        <time>2021-06-03T10:28:05.000Z</time>
      </trkpt>
      <trkpt lat="44.99961" lon="-0.21384">
        <ele>7.4</ele>
        <time>2021-06-03T10:28:06.000Z</time>
      </trkpt>
      <trkpt lat="44.99957" lon="-0.21379">
        <ele>7.4</ele>
        <time>2021-06-03T10:28:07.000Z</time>
      </trkpt>
      <trkpt lat="44.99952" lon="-0.21374">
        <ele>7.4</ele>
        <time>2021-06-03T10:28:08.000Z</time>
      </trkpt>
      <trkpt lat="44.99947" lon="-0.21369">
        <ele>7.3</ele>
        <time>2021-06-03T10:28:09.000Z</time>
      </trkpt>
      <trkpt lat="44.99942" lon="-0.21364">
        <ele>7.3</ele>
        <time>2021-06-03T10:28:10.000Z</time>
      </trkpt>
      <trkpt lat="44.99937" lon="-0.2136">
        <ele>7.5</ele>
        <time>2021-06-03T10:28:11.000Z</time>
      </trkpt>
      <trkpt lat="44.99932" lon="-0.21356">
        <ele>7.6</ele>
        <time>2021-06-03T10:28:12.000Z</time>
      </trkpt>
      <trkpt lat="44.99926" lon="-0.21352">
        <ele>7.3</ele>
        <time>2021-06-03T10:28:13.000Z</time>
      </trkpt>
      <trkpt lat="44.99921" lon="-0.21348">
        <ele>7.1</ele>
        <time>2021-06-03T10:28:14.000Z</time>
      </trkpt>
      <trkpt lat="44.99916" lon="-0.21344">
        <ele>6.9</ele>
        <time>2021-06-03T10:28:15.000Z</time>
      </trkpt>
      <trkpt lat="44.9991" lon="-0.2134">
        <ele>7</ele>
        <time>2021-06-03T10:28:16.000Z</time>
      </trkpt>
      <trkpt lat="44.99905" lon="-0.21337">
        <ele>7.1</ele>
        <time>2021-06-03T10:28:17.000Z</time>
      </trkpt>
      <trkpt lat="44.99899" lon="-0.21333">
        <ele>7.3</ele>
        <time>2021-06-03T10:28:18.000Z</time>
      </trkpt>
      <trkpt lat="44.99894" lon="-0.2133">
        <ele>7.4</ele>
        <time>2021-06-03T10:28:19.000Z</time>
      </trkpt>
      <trkpt lat="44.99889" lon="-0.21326">
        <ele>7.6</ele>
        <time>2021-06-03T10:28:20.000Z</time>
      </trkpt>
      <trkpt lat="44.99883" lon="-0.21322">
        <ele>7.7</ele>
        <time>2021-06-03T10:28:21.000Z</time>
      </trkpt>
      <trkpt lat="44.99878" lon="-0.21318">
        <ele>7.8</ele>
        <time>2021-06-03T10:28:22.000Z</time>
      </trkpt>
      <trkpt lat="44.99872" lon="-0.21315">
        <ele>7.3</ele>
        <time>2021-06-03T10:28:23.000Z</time>
      </trkpt>
      <trkpt lat="44.99867" lon="-0.21311">
        <ele>6.9</ele>
        <time>2021-06-03T10:28:24.000Z</time>
      </trkpt>
      <trkpt lat="44.99861" lon="-0.21307">
        <ele>6.7</ele>
        <time>2021-06-03T10:28:25.000Z</time>
      </trkpt>
      <trkpt lat="44.99856" lon="-0.21303">
        <ele>6.5</ele>
        <time>2021-06-03T10:28:26.000Z</time>
      </trkpt>
      <trkpt lat="44.9985" lon="-0.213">
        <ele>6.8</ele>
        <time>2021-06-03T10:28:27.000Z</time>
      </trkpt>
      <trkpt lat="44.99845" lon="-0.21296">
        <ele>7</ele>
        <time>2021-06-03T10:28:28.000Z</time>
      </trkpt>
      <trkpt lat="44.9984" lon="-0.21292">
        <ele>7.1</ele>
        <time>2021-06-03T10:28:29.000Z</time>
      </trkpt>
      <trkpt lat="44.99834" lon="-0.21288">
        <ele>7.3</ele>
        <time>2021-06-03T10:28:30.000Z</time>
      </trkpt>
      <trkpt lat="44.99829" lon="-0.21285">
        <ele>7.5</ele>
        <time>2021-06-03T10:28:31.000Z</time>
      </trkpt>
      <trkpt lat="44.99824" lon="-0.21281">
        <ele>7.3</ele>
        <time>2021-06-03T10:28:32.000Z</time>
      </trkpt>
      <trkpt lat="44.99819" lon="-0.21277">
        <ele>7.1</ele>
        <time>2021-06-03T10:28:33.000Z</time>
      </trkpt>
      <trkpt lat="44.99813" lon="-0.21274">
        <ele>7</ele>
        <time>2021-06-03T10:28:34.000Z</time>
      </trkpt>
      <trkpt lat="44.99808" lon="-0.2127">
        <ele>6.9</ele>
        <time>2021-06-03T10:28:35.000Z</time>
      </trkpt>
      <trkpt lat="44.99802" lon="-0.21266">
        <ele>6.8</ele>
        <time>2021-06-03T10:28:36.000Z</time>
      </trkpt>
      <trkpt lat="44.99797" lon="-0.21263">
        <ele>6.8</ele>
        <time>2021-06-03T10:28:37.000Z</time>
      </trkpt>
      <trkpt lat="44.99791" lon="-0.21259">
        <ele>6.8</ele>
        <time>2021-06-03T10:28:38.000Z</time>
      </trkpt>
      <trkpt lat="44.99786" lon="-0.21255">
        <ele>7</ele>
        <time>2021-06-03T10:28:39.000Z</time>
      </trkpt>
      <trkpt lat="44.9978" lon="-0.21251">
        <ele>7.2</ele>
        <time>2021-06-03T10:28:40.000Z</time>
      </trkpt>
      <trkpt lat="44.99775" lon="-0.21248">
        <ele>7.3</ele>
        <time>2021-06-03T10:28:41.000Z</time>
      </trkpt>
      <trkpt lat="44.99769" lon="-0.21244">
        <ele>7.1</ele>
        <time>2021-06-03T10:28:42.000Z</time>
      </trkpt>
      <trkpt lat="44.99764" lon="-0.2124">
        <ele>7</ele>
        <time>2021-06-03T10:28:43.000Z</time>
      </trkpt>
      <trkpt lat="44.99759" lon="-0.21236">
        <ele>6.8</ele>
        <time>2021-06-03T10:28:44.000Z</time>
      </trkpt>
      <trkpt lat="44.99753" lon="-0.21232">
        <ele>6.7</ele>
        <time>2021-06-03T10:28:45.000Z</time>
      </trkpt>
      <trkpt lat="44.99748" lon="-0.21228">
        <ele>6.6</ele>
        <time>2021-06-03T10:28:46.000Z</time>
      </trkpt>
      <trkpt lat="44.99742" lon="-0.21224">
        <ele>6.5</ele>
        <time>2021-06-03T10:28:47.000Z</time>
      </trkpt>
      <trkpt lat="44.99737" lon="-0.2122">
        <ele>6.4</ele>
        <time>2021-06-03T10:28:48.000Z</time>
      </trkpt>
      <trkpt lat="44.99731" lon="-0.21215">
        <ele>6.5</ele>
        <time>2021-06-03T10:28:49.000Z</time>
      </trkpt>
      <trkpt lat="44.99726" lon="-0.21211">
        <ele>6.5</ele>
        <time>2021-06-03T10:28:50.000Z</time>
      </trkpt>
      <trkpt lat="44.99721" lon="-0.21206">
        <ele>6.5</ele>
        <time>2021-06-03T10:28:51.000Z</time>
      </trkpt>
      <trkpt lat="44.99716" lon="-0.21202">
        <ele>6.5</ele>
        <time>2021-06-03T10:28:52.000Z</time>
      </trkpt>
      <trkpt lat="44.99711" lon="-0.21197">
        <ele>6.5</ele>
        <time>2021-06-03T10:28:53.000Z</time>
      </trkpt>
      <trkpt lat="44.99706" lon="-0.21192">
        <ele>6.5</ele>
        <time>2021-06-03T10:28:54.000Z</time>
      </trkpt>
      <trkpt lat="44.99701" lon="-0.21187">
        <ele>6.5</ele>
        <time>2021-06-03T10:28:55.000Z</time>
      </trkpt>
      <trkpt lat="44.99696" lon="-0.21182">
        <ele>6.5</ele>
        <time>2021-06-03T10:28:56.000Z</time>
      </trkpt>
      <trkpt lat="44.99692" lon="-0.21176">
        <ele>6.4</ele>
        <time>2021-06-03T10:28:57.000Z</time>
      </trkpt>
      <trkpt lat="44.99687" lon="-0.21171">
        <ele>6.6</ele>
        <time>2021-06-03T10:28:58.000Z</time>
      </trkpt>
      <trkpt lat="44.99682" lon="-0.21166">
        <ele>6.7</ele>
        <time>2021-06-03T10:28:59.000Z</time>
      </trkpt>
      <trkpt lat="44.99678" lon="-0.2116">
        <ele>6.8</ele>
        <time>2021-06-03T10:29:00.000Z</time>
      </trkpt>
      <trkpt lat="44.99673" lon="-0.21155">
        <ele>6.9</ele>
        <time>2021-06-03T10:29:01.000Z</time>
      </trkpt>
      <trkpt lat="44.99669" lon="-0.21149">
        <ele>7</ele>
        <time>2021-06-03T10:29:02.000Z</time>
      </trkpt>
      <trkpt lat="44.99665" lon="-0.21144">
        <ele>6.9</ele>
        <time>2021-06-03T10:29:03.000Z</time>
      </trkpt>
      <trkpt lat="44.99661" lon="-0.21139">
        <ele>6.9</ele>
        <time>2021-06-03T10:29:04.000Z</time>
      </trkpt>
      <trkpt lat="44.99657" lon="-0.21134">
        <ele>6.7</ele>
        <time>2021-06-03T10:29:05.000Z</time>
      </trkpt>
      <trkpt lat="44.99653" lon="-0.21129">
        <ele>6.6</ele>
        <time>2021-06-03T10:29:06.000Z</time>
      </trkpt>
      <trkpt lat="44.99649" lon="-0.21124">
        <ele>6.5</ele>
        <time>2021-06-03T10:29:07.000Z</time>
      </trkpt>
      <trkpt lat="44.99645" lon="-0.21118">
        <ele>6.4</ele>
        <time>2021-06-03T10:29:08.000Z</time>
      </trkpt>
      <trkpt lat="44.99641" lon="-0.21113">
        <ele>6.3</ele>
        <time>2021-06-03T10:29:09.000Z</time>
      </trkpt>
      <trkpt lat="44.99637" lon="-0.21108">
        <ele>6.7</ele>
        <time>2021-06-03T10:29:10.000Z</time>
      </trkpt>
      <trkpt lat="44.99633" lon="-0.21102">
        <ele>6.9</ele>
        <time>2021-06-03T10:29:11.000Z</time>
      </trkpt>
      <trkpt lat="44.99628" lon="-0.21097">
        <ele>7.2</ele>
        <time>2021-06-03T10:29:12.000Z</time>
      </trkpt>
      <trkpt lat="44.99624" lon="-0.21091">
        <ele>7.4</ele>
        <time>2021-06-03T10:29:13.000Z</time>
      </trkpt>
      <trkpt lat="44.9962" lon="-0.21085">
        <ele>7.5</ele>
        <time>2021-06-03T10:29:14.000Z</time>
      </trkpt>
      <trkpt lat="44.99616" lon="-0.21079">
        <ele>7.6</ele>
        <time>2021-06-03T10:29:15.000Z</time>
      </trkpt>
      <trkpt lat="44.99611" lon="-0.21074">
        <ele>7.6</ele>
        <time>2021-06-03T10:29:16.000Z</time>
      </trkpt>
      <trkpt lat="44.99607" lon="-0.21068">
        <ele>7.5</ele>
        <time>2021-06-03T10:29:17.000Z</time>
      </trkpt>
      <trkpt lat="44.99603" lon="-0.21063">
        <ele>7.4</ele>
        <time>2021-06-03T10:29:18.000Z</time>
      </trkpt>
      <trkpt lat="44.99598" lon="-0.21058">
        <ele>7.3</ele>
        <time>2021-06-03T10:29:19.000Z</time>
      </trkpt>
      <trkpt lat="44.99594" lon="-0.21052">
        <ele>7.5</ele>
        <time>2021-06-03T10:29:20.000Z</time>
      </trkpt>
      <trkpt lat="44.9959" lon="-0.21047">
        <ele>7.5</ele>
        <time>2021-06-03T10:29:21.000Z</time>
      </trkpt>
      <trkpt lat="44.99585" lon="-0.21042">
        <ele>7.3</ele>
        <time>2021-06-03T10:29:22.000Z</time>
      </trkpt>
      <trkpt lat="44.99581" lon="-0.21037">
        <ele>7.1</ele>
        <time>2021-06-03T10:29:23.000Z</time>
      </trkpt>
      <trkpt lat="44.99576" lon="-0.21032">
        <ele>7.1</ele>
        <time>2021-06-03T10:29:24.000Z</time>
      </trkpt>
      <trkpt lat="44.99572" lon="-0.21027">
        <ele>7.1</ele>
        <time>2021-06-03T10:29:25.000Z</time>
      </trkpt>
      <trkpt lat="44.99567" lon="-0.21022">
        <ele>7.1</ele>
        <time>2021-06-03T10:29:26.000Z</time>
      </trkpt>
      <trkpt lat="44.99562" lon="-0.21018">
        <ele>7</ele>
        <time>2021-06-03T10:29:27.000Z</time>
      </trkpt>
      <trkpt lat="44.99558" lon="-0.21013">
        <ele>7</ele>
        <time>2021-06-03T10:29:28.000Z</time>
      </trkpt>
      <trkpt lat="44.99553" lon="-0.21008">
        <ele>7</ele>
        <time>2021-06-03T10:29:29.000Z</time>
      </trkpt>
      <trkpt lat="44.99548" lon="-0.21004">
        <ele>7.1</ele>
        <time>2021-06-03T10:29:30.000Z</time>
      </trkpt>
      <trkpt lat="44.99543" lon="-0.21">
        <ele>7.1</ele>
        <time>2021-06-03T10:29:31.000Z</time>
      </trkpt>
      <trkpt lat="44.99538" lon="-0.20996">
        <ele>7.3</ele>
        <time>2021-06-03T10:29:32.000Z</time>
      </trkpt>
      <trkpt lat="44.99533" lon="-0.20992">
        <ele>7.5</ele>
        <time>2021-06-03T10:29:33.000Z</time>
      </trkpt>
      <trkpt lat="44.99527" lon="-0.20989">
        <ele>7.3</ele>
        <time>2021-06-03T10:29:34.000Z</time>
      </trkpt>
      <trkpt lat="44.99523" lon="-0.20985">
        <ele>7.3</ele>
        <time>2021-06-03T10:29:35.000Z</time>
      </trkpt>
      <trkpt lat="44.99517" lon="-0.20982">
        <ele>7.2</ele>
        <time>2021-06-03T10:29:36.000Z</time>
      </trkpt>
      <trkpt lat="44.99512" lon="-0.20979">
        <ele>7.1</ele>
        <time>2021-06-03T10:29:37.000Z</time>
      </trkpt>
      <trkpt lat="44.99507" lon="-0.20976">
        <ele>7.1</ele>
        <time>2021-06-03T10:29:38.000Z</time>
      </trkpt>
      <trkpt lat="44.99502" lon="-0.20973">
        <ele>7.1</ele>
        <time>2021-06-03T10:29:39.000Z</time>
      </trkpt>
      <trkpt lat="44.99497" lon="-0.2097">
        <ele>7.1</ele>
        <time>2021-06-03T10:29:40.000Z</time>
      </trkpt>
      <trkpt lat="44.99492" lon="-0.20967">
        <ele>7.3</ele>
        <time>2021-06-03T10:29:41.000Z</time>
      </trkpt>
      <trkpt lat="44.99487" lon="-0.20964">
        <ele>7.5</ele>
        <time>2021-06-03T10:29:42.000Z</time>
      </trkpt>
      <trkpt lat="44.99483" lon="-0.20962">
        <ele>7.3</ele>
        <time>2021-06-03T10:29:43.000Z</time>
      </trkpt>
      <trkpt lat="44.99478" lon="-0.20959">
        <ele>7.2</ele>
        <time>2021-06-03T10:29:44.000Z</time>
      </trkpt>
      <trkpt lat="44.99473" lon="-0.20956">
        <ele>7.1</ele>
        <time>2021-06-03T10:29:45.000Z</time>
      </trkpt>
      <trkpt lat="44.99468" lon="-0.20953">
        <ele>7.1</ele>
        <time>2021-06-03T10:29:46.000Z</time>
      </trkpt>
      <trkpt lat="44.99463" lon="-0.2095">
        <ele>7.2</ele>
        <time>2021-06-03T10:29:47.000Z</time>
      </trkpt>
      <trkpt lat="44.99458" lon="-0.20947">
        <ele>7.5</ele>
        <time>2021-06-03T10:29:48.000Z</time>
      </trkpt>
      <trkpt lat="44.99453" lon="-0.20944">
        <ele>7.7</ele>
        <time>2021-06-03T10:29:49.000Z</time>
      </trkpt>
      <trkpt lat="44.99449" lon="-0.20941">
        <ele>7.8</ele>
        <time>2021-06-03T10:29:50.000Z</time>
      </trkpt>
      <trkpt lat="44.99444" lon="-0.20938">
        <ele>7.9</ele>
        <time>2021-06-03T10:29:51.000Z</time>
      </trkpt>
      <trkpt lat="44.99439" lon="-0.20934">
        <ele>7.9</ele>
        <time>2021-06-03T10:29:52.000Z</time>
      </trkpt>
      <trkpt lat="44.99434" lon="-0.20931">
        <ele>7.9</ele>
        <time>2021-06-03T10:29:53.000Z</time>
      </trkpt>
      <trkpt lat="44.99429" lon="-0.20926">
        <ele>7.9</ele>
        <time>2021-06-03T10:29:54.000Z</time>
      </trkpt>
      <trkpt lat="44.99425" lon="-0.20922">
        <ele>7.6</ele>
        <time>2021-06-03T10:29:55.000Z</time>
      </trkpt>
      <trkpt lat="44.9942" lon="-0.20917">
        <ele>7.4</ele>
        <time>2021-06-03T10:29:56.000Z</time>
      </trkpt>
      <trkpt lat="44.99415" lon="-0.20912">
        <ele>7.3</ele>
        <time>2021-06-03T10:29:57.000Z</time>
      </trkpt>
      <trkpt lat="44.99411" lon="-0.20907">
        <ele>7.1</ele>
        <time>2021-06-03T10:29:58.000Z</time>
      </trkpt>
      <trkpt lat="44.99406" lon="-0.20902">
        <ele>7.1</ele>
        <time>2021-06-03T10:29:59.000Z</time>
      </trkpt>
      <trkpt lat="44.99401" lon="-0.20897">
        <ele>7.3</ele>
        <time>2021-06-03T10:30:00.000Z</time>
      </trkpt>
      <trkpt lat="44.99397" lon="-0.20891">
        <ele>7.4</ele>
        <time>2021-06-03T10:30:01.000Z</time>
      </trkpt>
      <trkpt lat="44.99393" lon="-0.20885">
        <ele>7.4</ele>
        <time>2021-06-03T10:30:02.000Z</time>
      </trkpt>
      <trkpt lat="44.99389" lon="-0.20878">
        <ele>7.4</ele>
        <time>2021-06-03T10:30:03.000Z</time>
      </trkpt>
      <trkpt lat="44.99385" lon="-0.20871">
        <ele>7.3</ele>
        <time>2021-06-03T10:30:04.000Z</time>
      </trkpt>
      <trkpt lat="44.99381" lon="-0.20863">
        <ele>6.8</ele>
        <time>2021-06-03T10:30:05.000Z</time>
      </trkpt>
      <trkpt lat="44.99377" lon="-0.20856">
        <ele>6.4</ele>
        <time>2021-06-03T10:30:06.000Z</time>
      </trkpt>
      <trkpt lat="44.99373" lon="-0.20847">
        <ele>6.3</ele>
        <time>2021-06-03T10:30:07.000Z</time>
      </trkpt>
      <trkpt lat="44.9937" lon="-0.20839">
        <ele>6.2</ele>
        <time>2021-06-03T10:30:08.000Z</time>
      </trkpt>
      <trkpt lat="44.99366" lon="-0.2083">
        <ele>6.2</ele>
        <time>2021-06-03T10:30:09.000Z</time>
      </trkpt>
      <trkpt lat="44.99363" lon="-0.20822">
        <ele>6.2</ele>
        <time>2021-06-03T10:30:10.000Z</time>
      </trkpt>
      <trkpt lat="44.9936" lon="-0.20814">
        <ele>6.2</ele>
        <time>2021-06-03T10:30:11.000Z</time>
      </trkpt>
      <trkpt lat="44.99357" lon="-0.20806">
        <ele>6.3</ele>
        <time>2021-06-03T10:30:12.000Z</time>
      </trkpt>
      <trkpt lat="44.99354" lon="-0.20798">
        <ele>6.3</ele>
        <time>2021-06-03T10:30:13.000Z</time>
      </trkpt>
      <trkpt lat="44.99351" lon="-0.20791">
        <ele>6.6</ele>
        <time>2021-06-03T10:30:14.000Z</time>
      </trkpt>
      <trkpt lat="44.99348" lon="-0.20786">
        <ele>6.8</ele>
        <time>2021-06-03T10:30:15.000Z</time>
      </trkpt>
      <trkpt lat="44.99344" lon="-0.2078">
        <ele>7</ele>
        <time>2021-06-03T10:30:16.000Z</time>
      </trkpt>
      <trkpt lat="44.9934" lon="-0.20771">
        <ele>7.7</ele>
        <time>2021-06-03T10:30:18.000Z</time>
      </trkpt>
      <trkpt lat="44.99333" lon="-0.20764">
        <ele>9.3</ele>
        <time>2021-06-03T10:31:09.000Z</time>
      </trkpt>
      <trkpt lat="44.99333" lon="-0.20763">
        <ele>9.4</ele>
        <time>2021-06-03T10:31:10.000Z</time>
      </trkpt>
      <trkpt lat="44.99327" lon="-0.20748">
        <ele>9.7</ele>
        <time>2021-06-03T10:31:16.000Z</time>
      </trkpt>
      <trkpt lat="44.99323" lon="-0.2074">
        <ele>9.7</ele>
        <time>2021-06-03T10:31:18.000Z</time>
      </trkpt>
      <trkpt lat="44.99319" lon="-0.2073">
        <ele>9.5</ele>
        <time>2021-06-03T10:31:20.000Z</time>
      </trkpt>
      <trkpt lat="44.99315" lon="-0.20719">
        <ele>9.8</ele>
        <time>2021-06-03T10:31:22.000Z</time>
      </trkpt>
      <trkpt lat="44.99312" lon="-0.20713">
        <ele>9.8</ele>
        <time>2021-06-03T10:31:23.000Z</time>
      </trkpt>
      <trkpt lat="44.9931" lon="-0.20707">
        <ele>9.8</ele>
        <time>2021-06-03T10:31:24.000Z</time>
      </trkpt>
      <trkpt lat="44.99307" lon="-0.20701">
        <ele>9.9</ele>
        <time>2021-06-03T10:31:25.000Z</time>
      </trkpt>
      <trkpt lat="44.99305" lon="-0.20695">
        <ele>10.1</ele>
        <time>2021-06-03T10:31:26.000Z</time>
      </trkpt>
      <trkpt lat="44.99302" lon="-0.2069">
        <ele>10.2</ele>
        <time>2021-06-03T10:31:27.000Z</time>
      </trkpt>
      <trkpt lat="44.99299" lon="-0.20684">
        <ele>10.2</ele>
        <time>2021-06-03T10:31:28.000Z</time>
      </trkpt>
      <trkpt lat="44.99296" lon="-0.20677">
        <ele>10.2</ele>
        <time>2021-06-03T10:31:29.000Z</time>
      </trkpt>
      <trkpt lat="44.99293" lon="-0.2067">
        <ele>10</ele>
        <time>2021-06-03T10:31:30.000Z</time>
      </trkpt>
      <trkpt lat="44.9929" lon="-0.20663">
        <ele>9.9</ele>
        <time>2021-06-03T10:31:31.000Z</time>
      </trkpt>
      <trkpt lat="44.99287" lon="-0.20655">
        <ele>9.8</ele>
        <time>2021-06-03T10:31:32.000Z</time>
      </trkpt>
      <trkpt lat="44.99284" lon="-0.20647">
        <ele>9.4</ele>
        <time>2021-06-03T10:31:33.000Z</time>
      </trkpt>
      <trkpt lat="44.99281" lon="-0.20639">
        <ele>9.2</ele>
        <time>2021-06-03T10:31:34.000Z</time>
      </trkpt>
      <trkpt lat="44.99277" lon="-0.20631">
        <ele>8.5</ele>
        <time>2021-06-03T10:31:35.000Z</time>
      </trkpt>
      <trkpt lat="44.99273" lon="-0.20623">
        <ele>8</ele>
        <time>2021-06-03T10:31:36.000Z</time>
      </trkpt>
      <trkpt lat="44.9927" lon="-0.20614">
        <ele>7.8</ele>
        <time>2021-06-03T10:31:37.000Z</time>
      </trkpt>
      <trkpt lat="44.99267" lon="-0.20606">
        <ele>7.6</ele>
        <time>2021-06-03T10:31:38.000Z</time>
      </trkpt>
      <trkpt lat="44.99263" lon="-0.20598">
        <ele>7.5</ele>
        <time>2021-06-03T10:31:39.000Z</time>
      </trkpt>
      <trkpt lat="44.99259" lon="-0.2059">
        <ele>7.2</ele>
        <time>2021-06-03T10:31:40.000Z</time>
      </trkpt>
      <trkpt lat="44.99256" lon="-0.20581">
        <ele>7</ele>
        <time>2021-06-03T10:31:41.000Z</time>
      </trkpt>
      <trkpt lat="44.99252" lon="-0.20573">
        <ele>6.7</ele>
        <time>2021-06-03T10:31:42.000Z</time>
      </trkpt>
      <trkpt lat="44.99249" lon="-0.20565">
        <ele>6.5</ele>
        <time>2021-06-03T10:31:43.000Z</time>
      </trkpt>
      <trkpt lat="44.99246" lon="-0.20558">
        <ele>6.3</ele>
        <time>2021-06-03T10:31:44.000Z</time>
      </trkpt>
      <trkpt lat="44.99241" lon="-0.20548">
        <ele>5.9</ele>
        <time>2021-06-03T10:31:46.000Z</time>
      </trkpt>
      <trkpt lat="44.99234" lon="-0.20542">
        <ele>5.9</ele>
        <time>2021-06-03T10:31:49.000Z</time>
      </trkpt>
      <trkpt lat="44.99227" lon="-0.20546">
        <ele>6</ele>
        <time>2021-06-03T10:31:51.000Z</time>
      </trkpt>
      <trkpt lat="44.9922" lon="-0.20551">
        <ele>6.2</ele>
        <time>2021-06-03T10:31:53.000Z</time>
      </trkpt>
      <trkpt lat="44.99213" lon="-0.20556">
        <ele>6.3</ele>
        <time>2021-06-03T10:31:55.000Z</time>
      </trkpt>
      <trkpt lat="44.99207" lon="-0.20562">
        <ele>6.5</ele>
        <time>2021-06-03T10:31:57.000Z</time>
      </trkpt>
      <trkpt lat="44.99199" lon="-0.20568">
        <ele>6.1</ele>
        <time>2021-06-03T10:32:00.000Z</time>
      </trkpt>
      <trkpt lat="44.99204" lon="-0.20559">
        <ele>4.7</ele>
        <time>2021-06-03T10:33:49.000Z</time>
      </trkpt>
      <trkpt lat="44.99206" lon="-0.20556">
        <ele>4.4</ele>
        <time>2021-06-03T10:33:50.000Z</time>
      </trkpt>
      <trkpt lat="44.99216" lon="-0.20544">
        <ele>4.7</ele>
        <time>2021-06-03T10:33:55.000Z</time>
      </trkpt>
      <trkpt lat="44.99223" lon="-0.20538">
        <ele>5</ele>
        <time>2021-06-03T10:33:58.000Z</time>
      </trkpt>
      <trkpt lat="44.99229" lon="-0.20533">
        <ele>5.4</ele>
        <time>2021-06-03T10:34:01.000Z</time>
      </trkpt>
      <trkpt lat="44.99237" lon="-0.20532">
        <ele>5.5</ele>
        <time>2021-06-03T10:34:04.000Z</time>
      </trkpt>
      <trkpt lat="44.99244" lon="-0.20539">
        <ele>5.7</ele>
        <time>2021-06-03T10:34:08.000Z</time>
      </trkpt>
      <trkpt lat="44.99248" lon="-0.20548">
        <ele>6</ele>
        <time>2021-06-03T10:34:12.000Z</time>
      </trkpt>
      <trkpt lat="44.99252" lon="-0.20557">
        <ele>5.8</ele>
        <time>2021-06-03T10:34:15.000Z</time>
      </trkpt>
      <trkpt lat="44.99256" lon="-0.20566">
        <ele>5.7</ele>
        <time>2021-06-03T10:34:18.000Z</time>
      </trkpt>
      <trkpt lat="44.9926" lon="-0.20577">
        <ele>5.5</ele>
        <time>2021-06-03T10:34:21.000Z</time>
      </trkpt>
      <trkpt lat="44.99264" lon="-0.20584">
        <ele>5.6</ele>
        <time>2021-06-03T10:34:23.000Z</time>
      </trkpt>
      <trkpt lat="44.99267" lon="-0.20592">
        <ele>5.6</ele>
        <time>2021-06-03T10:34:25.000Z</time>
      </trkpt>
      <trkpt lat="44.9927" lon="-0.206">
        <ele>6.6</ele>
        <time>2021-06-03T10:34:27.000Z</time>
      </trkpt>
      <trkpt lat="44.99274" lon="-0.20611">
        <ele>6.8</ele>
        <time>2021-06-03T10:34:30.000Z</time>
      </trkpt>
      <trkpt lat="44.99278" lon="-0.2062">
        <ele>6.9</ele>
        <time>2021-06-03T10:34:33.000Z</time>
      </trkpt>
      <trkpt lat="44.99286" lon="-0.20623">
        <ele>7</ele>
        <time>2021-06-03T10:34:45.000Z</time>
      </trkpt>
      <trkpt lat="44.99294" lon="-0.2062">
        <ele>6</ele>
        <time>2021-06-03T10:34:50.000Z</time>
      </trkpt>
      <trkpt lat="44.99296" lon="-0.20629">
        <ele>5.5</ele>
        <time>2021-06-03T10:34:53.000Z</time>
      </trkpt>
      <trkpt lat="44.99295" lon="-0.20633">
        <ele>5.2</ele>
        <time>2021-06-03T10:34:54.000Z</time>
      </trkpt>
      <trkpt lat="44.99296" lon="-0.2065">
        <ele>4.8</ele>
        <time>2021-06-03T10:34:59.000Z</time>
      </trkpt>
      <trkpt lat="44.993" lon="-0.20658">
        <ele>4.3</ele>
        <time>2021-06-03T10:35:02.000Z</time>
      </trkpt>
      <trkpt lat="44.99305" lon="-0.20667">
        <ele>4.3</ele>
        <time>2021-06-03T10:35:06.000Z</time>
      </trkpt>
      <trkpt lat="44.99309" lon="-0.20678">
        <ele>4.3</ele>
        <time>2021-06-03T10:35:11.000Z</time>
      </trkpt>
      <trkpt lat="44.99303" lon="-0.20686">
        <ele>3.9</ele>
        <time>2021-06-03T10:35:14.000Z</time>
      </trkpt>
      <trkpt lat="44.99297" lon="-0.20688">
        <ele>3.6</ele>
        <time>2021-06-03T10:35:16.000Z</time>
      </trkpt>
      <trkpt lat="44.99291" lon="-0.20691">
        <ele>3.4</ele>
        <time>2021-06-03T10:35:18.000Z</time>
      </trkpt>
      <trkpt lat="44.99285" lon="-0.20695">
        <ele>3.4</ele>
        <time>2021-06-03T10:35:20.000Z</time>
      </trkpt>
      <trkpt lat="44.99277" lon="-0.207">
        <ele>3.2</ele>
        <time>2021-06-03T10:35:23.000Z</time>
      </trkpt>
      <trkpt lat="44.9927" lon="-0.20705">
        <ele>2.4</ele>
        <time>2021-06-03T10:35:26.000Z</time>
      </trkpt>
      <trkpt lat="44.99264" lon="-0.2071">
        <ele>2.8</ele>
        <time>2021-06-03T10:35:29.000Z</time>
      </trkpt>
      <trkpt lat="44.99257" lon="-0.20715">
        <ele>3.3</ele>
        <time>2021-06-03T10:35:33.000Z</time>
      </trkpt>
      <trkpt lat="44.99251" lon="-0.2072">
        <ele>3.3</ele>
        <time>2021-06-03T10:35:37.000Z</time>
      </trkpt>
      <trkpt lat="44.99243" lon="-0.20727">
        <ele>2.9</ele>
        <time>2021-06-03T10:35:43.000Z</time>
      </trkpt>
      <trkpt lat="44.99241" lon="-0.20739">
        <ele>2.8</ele>
        <time>2021-06-03T10:38:10.000Z</time>
      </trkpt>
      <trkpt lat="44.99241" lon="-0.20739">
        <ele>2.9</ele>
        <time>2021-06-03T10:38:11.000Z</time>
      </trkpt>
      <trkpt lat="44.99239" lon="-0.20751">
        <ele>4.6</ele>
        <time>2021-06-03T10:58:28.000Z</time>
      </trkpt>
      <trkpt lat="44.99242" lon="-0.20739">
        <ele>4.9</ele>
        <time>2021-06-03T11:15:33.000Z</time>
      </trkpt>
      <trkpt lat="44.99251" lon="-0.20743">
        <ele>4.7</ele>
        <time>2021-06-03T11:17:57.000Z</time>
      </trkpt>
      <trkpt lat="44.99242" lon="-0.20742">
        <ele>5.4</ele>
        <time>2021-06-03T11:22:46.000Z</time>
      </trkpt>
      <trkpt lat="44.99242" lon="-0.20742">
        <ele>5.5</ele>
        <time>2021-06-03T11:22:47.000Z</time>
      </trkpt>
      <trkpt lat="44.99249" lon="-0.20731">
        <ele>5.5</ele>
        <time>2021-06-03T11:32:03.000Z</time>
      </trkpt>
      <trkpt lat="44.99261" lon="-0.20724">
        <ele>4.8</ele>
        <time>2021-06-03T11:32:08.000Z</time>
      </trkpt>
      <trkpt lat="44.99267" lon="-0.20719">
        <ele>5.3</ele>
        <time>2021-06-03T11:32:11.000Z</time>
      </trkpt>
      <trkpt lat="44.99274" lon="-0.20714">
        <ele>5.4</ele>
        <time>2021-06-03T11:32:14.000Z</time>
      </trkpt>
      <trkpt lat="44.99281" lon="-0.20709">
        <ele>5.4</ele>
        <time>2021-06-03T11:32:17.000Z</time>
      </trkpt>
      <trkpt lat="44.99288" lon="-0.20703">
        <ele>5.3</ele>
        <time>2021-06-03T11:32:20.000Z</time>
      </trkpt>
      <trkpt lat="44.99294" lon="-0.20698">
        <ele>5.5</ele>
        <time>2021-06-03T11:32:23.000Z</time>
      </trkpt>
      <trkpt lat="44.99302" lon="-0.20694">
        <ele>5.5</ele>
        <time>2021-06-03T11:32:26.000Z</time>
      </trkpt>
      <trkpt lat="44.99308" lon="-0.20689">
        <ele>5.1</ele>
        <time>2021-06-03T11:32:29.000Z</time>
      </trkpt>
      <trkpt lat="44.99314" lon="-0.20683">
        <ele>5.1</ele>
        <time>2021-06-03T11:32:32.000Z</time>
      </trkpt>
      <trkpt lat="44.9932" lon="-0.20677">
        <ele>5.7</ele>
        <time>2021-06-03T11:32:35.000Z</time>
      </trkpt>
      <trkpt lat="44.99327" lon="-0.2067">
        <ele>5.3</ele>
        <time>2021-06-03T11:32:39.000Z</time>
      </trkpt>
      <trkpt lat="44.99333" lon="-0.20664">
        <ele>5.7</ele>
        <time>2021-06-03T11:32:43.000Z</time>
      </trkpt>
      <trkpt lat="44.9934" lon="-0.2066">
        <ele>5.3</ele>
        <time>2021-06-03T11:32:47.000Z</time>
      </trkpt>
      <trkpt lat="44.99347" lon="-0.20655">
        <ele>5</ele>
        <time>2021-06-03T11:32:51.000Z</time>
      </trkpt>
      <trkpt lat="44.99354" lon="-0.20648">
        <ele>4.7</ele>
        <time>2021-06-03T11:32:55.000Z</time>
      </trkpt>
      <trkpt lat="44.9936" lon="-0.20644">
        <ele>4.2</ele>
        <time>2021-06-03T11:32:58.000Z</time>
      </trkpt>
      <trkpt lat="44.99368" lon="-0.20637">
        <ele>4.2</ele>
        <time>2021-06-03T11:33:02.000Z</time>
      </trkpt>
      <trkpt lat="44.99376" lon="-0.20632">
        <ele>5.3</ele>
        <time>2021-06-03T11:33:06.000Z</time>
      </trkpt>
      <trkpt lat="44.99377" lon="-0.2063">
        <ele>5.7</ele>
        <time>2021-06-03T11:33:07.000Z</time>
      </trkpt>
      <trkpt lat="44.99389" lon="-0.2062">
        <ele>5.4</ele>
        <time>2021-06-03T11:33:15.000Z</time>
      </trkpt>
      <trkpt lat="44.99396" lon="-0.20613">
        <ele>5.1</ele>
        <time>2021-06-03T11:33:21.000Z</time>
      </trkpt>
      <trkpt lat="44.99399" lon="-0.20603">
        <ele>5.5</ele>
        <time>2021-06-03T11:33:26.000Z</time>
      </trkpt>
      <trkpt lat="44.99406" lon="-0.20596">
        <ele>5.5</ele>
        <time>2021-06-03T11:33:32.000Z</time>
      </trkpt>
      <trkpt lat="44.99414" lon="-0.20596">
        <ele>4.8</ele>
        <time>2021-06-03T11:33:39.000Z</time>
      </trkpt>
      <trkpt lat="44.99423" lon="-0.20597">
        <ele>5.9</ele>
        <time>2021-06-03T11:36:33.000Z</time>
      </trkpt>
      <trkpt lat="44.99423" lon="-0.20597">
        <ele>6.3</ele>
        <time>2021-06-03T11:36:34.000Z</time>
      </trkpt>
      <trkpt lat="44.99415" lon="-0.20589">
        <ele>6.4</ele>
        <time>2021-06-03T11:40:49.000Z</time>
      </trkpt>
      <trkpt lat="44.994" lon="-0.20592">
        <ele>6</ele>
        <time>2021-06-03T11:40:57.000Z</time>
      </trkpt>
      <trkpt lat="44.99394" lon="-0.20588">
        <ele>6.1</ele>
        <time>2021-06-03T11:41:00.000Z</time>
      </trkpt>
      <trkpt lat="44.99391" lon="-0.2058">
        <ele>5.9</ele>
        <time>2021-06-03T11:41:02.000Z</time>
      </trkpt>
      <trkpt lat="44.99388" lon="-0.20572">
        <ele>5.6</ele>
        <time>2021-06-03T11:41:04.000Z</time>
      </trkpt>
      <trkpt lat="44.99384" lon="-0.20563">
        <ele>5.5</ele>
        <time>2021-06-03T11:41:06.000Z</time>
      </trkpt>
      <trkpt lat="44.9938" lon="-0.20553">
        <ele>5</ele>
        <time>2021-06-03T11:41:08.000Z</time>
      </trkpt>
      <trkpt lat="44.99378" lon="-0.20542">
        <ele>5.1</ele>
        <time>2021-06-03T11:41:10.000Z</time>
      </trkpt>
      <trkpt lat="44.99375" lon="-0.20532">
        <ele>5.4</ele>
        <time>2021-06-03T11:41:12.000Z</time>
      </trkpt>
      <trkpt lat="44.99372" lon="-0.20523">
        <ele>5.9</ele>
        <time>2021-06-03T11:41:14.000Z</time>
      </trkpt>
      <trkpt lat="44.9937" lon="-0.20513">
        <ele>6.1</ele>
        <time>2021-06-03T11:41:16.000Z</time>
      </trkpt>
      <trkpt lat="44.99367" lon="-0.20503">
        <ele>6</ele>
        <time>2021-06-03T11:41:18.000Z</time>
      </trkpt>
      <trkpt lat="44.99364" lon="-0.20493">
        <ele>6.2</ele>
        <time>2021-06-03T11:41:20.000Z</time>
      </trkpt>
      <trkpt lat="44.99361" lon="-0.20484">
        <ele>5.7</ele>
        <time>2021-06-03T11:41:22.000Z</time>
      </trkpt>
      <trkpt lat="44.99359" lon="-0.20476">
        <ele>6.1</ele>
        <time>2021-06-03T11:41:24.000Z</time>
      </trkpt>
      <trkpt lat="44.99356" lon="-0.20467">
        <ele>6.2</ele>
        <time>2021-06-03T11:41:26.000Z</time>
      </trkpt>
      <trkpt lat="44.99353" lon="-0.20457">
        <ele>5.6</ele>
        <time>2021-06-03T11:41:29.000Z</time>
      </trkpt>
      <trkpt lat="44.99346" lon="-0.20451">
        <ele>5.9</ele>
        <time>2021-06-03T11:41:33.000Z</time>
      </trkpt>
      <trkpt lat="44.99339" lon="-0.20455">
        <ele>6</ele>
        <time>2021-06-03T11:41:36.000Z</time>
      </trkpt>
      <trkpt lat="44.99332" lon="-0.20461">
        <ele>6.6</ele>
        <time>2021-06-03T11:41:39.000Z</time>
      </trkpt>
      <trkpt lat="44.99324" lon="-0.20467">
        <ele>6.2</ele>
        <time>2021-06-03T11:41:42.000Z</time>
      </trkpt>
      <trkpt lat="44.99317" lon="-0.20473">
        <ele>5.4</ele>
        <time>2021-06-03T11:41:45.000Z</time>
      </trkpt>
      <trkpt lat="44.99311" lon="-0.20476">
        <ele>5.8</ele>
        <time>2021-06-03T11:41:47.000Z</time>
      </trkpt>
      <trkpt lat="44.99305" lon="-0.20481">
        <ele>5.8</ele>
        <time>2021-06-03T11:41:49.000Z</time>
      </trkpt>
      <trkpt lat="44.99302" lon="-0.20484">
        <ele>5.6</ele>
        <time>2021-06-03T11:41:50.000Z</time>
      </trkpt>
      <trkpt lat="44.99293" lon="-0.2049">
        <ele>5.5</ele>
        <time>2021-06-03T11:41:53.000Z</time>
      </trkpt>
      <trkpt lat="44.99287" lon="-0.20495">
        <ele>5.6</ele>
        <time>2021-06-03T11:41:55.000Z</time>
      </trkpt>
      <trkpt lat="44.9928" lon="-0.205">
        <ele>5.7</ele>
        <time>2021-06-03T11:41:57.000Z</time>
      </trkpt>
      <trkpt lat="44.99274" lon="-0.20506">
        <ele>5.7</ele>
        <time>2021-06-03T11:41:59.000Z</time>
      </trkpt>
      <trkpt lat="44.99268" lon="-0.2051">
        <ele>5.7</ele>
        <time>2021-06-03T11:42:01.000Z</time>
      </trkpt>
      <trkpt lat="44.99262" lon="-0.20514">
        <ele>5.7</ele>
        <time>2021-06-03T11:42:03.000Z</time>
      </trkpt>
      <trkpt lat="44.99256" lon="-0.2052">
        <ele>6.2</ele>
        <time>2021-06-03T11:42:05.000Z</time>
      </trkpt>
      <trkpt lat="44.99251" lon="-0.20523">
        <ele>6</ele>
        <time>2021-06-03T11:42:07.000Z</time>
      </trkpt>
      <trkpt lat="44.99245" lon="-0.20528">
        <ele>6.6</ele>
        <time>2021-06-03T11:42:09.000Z</time>
      </trkpt>
      <trkpt lat="44.99239" lon="-0.20532">
        <ele>6.6</ele>
        <time>2021-06-03T11:42:11.000Z</time>
      </trkpt>
      <trkpt lat="44.99232" lon="-0.20537">
        <ele>6.6</ele>
        <time>2021-06-03T11:42:13.000Z</time>
      </trkpt>
      <trkpt lat="44.99227" lon="-0.20541">
        <ele>6.6</ele>
        <time>2021-06-03T11:42:15.000Z</time>
      </trkpt>
      <trkpt lat="44.99221" lon="-0.20546">
        <ele>6.5</ele>
        <time>2021-06-03T11:42:17.000Z</time>
      </trkpt>
      <trkpt lat="44.99216" lon="-0.20551">
        <ele>6.3</ele>
        <time>2021-06-03T11:42:19.000Z</time>
      </trkpt>
      <trkpt lat="44.99211" lon="-0.20557">
        <ele>5.8</ele>
        <time>2021-06-03T11:42:21.000Z</time>
      </trkpt>
      <trkpt lat="44.99205" lon="-0.20563">
        <ele>5.8</ele>
        <time>2021-06-03T11:42:23.000Z</time>
      </trkpt>
      <trkpt lat="44.992" lon="-0.20568">
        <ele>5.6</ele>
        <time>2021-06-03T11:42:25.000Z</time>
      </trkpt>
      <trkpt lat="44.99192" lon="-0.20575">
        <ele>5.7</ele>
        <time>2021-06-03T11:42:28.000Z</time>
      </trkpt>
      <trkpt lat="44.99185" lon="-0.20581">
        <ele>5.3</ele>
        <time>2021-06-03T11:42:32.000Z</time>
      </trkpt>
      <trkpt lat="44.99178" lon="-0.20588">
        <ele>5.4</ele>
        <time>2021-06-03T11:42:38.000Z</time>
      </trkpt>
      <trkpt lat="44.99186" lon="-0.20594">
        <ele>5.1</ele>
        <time>2021-06-03T11:44:00.000Z</time>
      </trkpt>
      <trkpt lat="44.99186" lon="-0.20594">
        <ele>5</ele>
        <time>2021-06-03T11:44:01.000Z</time>
      </trkpt>
      <trkpt lat="44.99177" lon="-0.20597">
        <ele>6.2</ele>
        <time>2021-06-03T11:48:08.000Z</time>
      </trkpt>
      <trkpt lat="44.99185" lon="-0.2059">
        <ele>6.2</ele>
        <time>2021-06-03T11:52:49.000Z</time>
      </trkpt>
      <trkpt lat="44.99183" lon="-0.20576">
        <ele>5.8</ele>
        <time>2021-06-03T11:57:37.000Z</time>
      </trkpt>
      <trkpt lat="44.99197" lon="-0.20567">
        <ele>6</ele>
        <time>2021-06-03T11:57:42.000Z</time>
      </trkpt>
      <trkpt lat="44.99203" lon="-0.2056">
        <ele>6.2</ele>
        <time>2021-06-03T11:57:45.000Z</time>
      </trkpt>
      <trkpt lat="44.99209" lon="-0.20553">
        <ele>6.2</ele>
        <time>2021-06-03T11:57:48.000Z</time>
      </trkpt>
      <trkpt lat="44.99215" lon="-0.20546">
        <ele>6.5</ele>
        <time>2021-06-03T11:57:51.000Z</time>
      </trkpt>
      <trkpt lat="44.99221" lon="-0.20541">
        <ele>6.2</ele>
        <time>2021-06-03T11:57:53.000Z</time>
      </trkpt>
      <trkpt lat="44.99228" lon="-0.20537">
        <ele>6</ele>
        <time>2021-06-03T11:57:55.000Z</time>
      </trkpt>
      <trkpt lat="44.99234" lon="-0.20534">
        <ele>5.9</ele>
        <time>2021-06-03T11:57:57.000Z</time>
      </trkpt>
      <trkpt lat="44.99242" lon="-0.2054">
        <ele>6.1</ele>
        <time>2021-06-03T11:58:00.000Z</time>
      </trkpt>
      <trkpt lat="44.99247" lon="-0.2055">
        <ele>6.4</ele>
        <time>2021-06-03T11:58:03.000Z</time>
      </trkpt>
      <trkpt lat="44.99251" lon="-0.20561">
        <ele>6.7</ele>
        <time>2021-06-03T11:58:06.000Z</time>
      </trkpt>
      <trkpt lat="44.99255" lon="-0.20568">
        <ele>6.2</ele>
        <time>2021-06-03T11:58:08.000Z</time>
      </trkpt>
      <trkpt lat="44.99259" lon="-0.20576">
        <ele>6.1</ele>
        <time>2021-06-03T11:58:10.000Z</time>
      </trkpt>
      <trkpt lat="44.99263" lon="-0.20584">
        <ele>6.4</ele>
        <time>2021-06-03T11:58:12.000Z</time>
      </trkpt>
      <trkpt lat="44.99267" lon="-0.20592">
        <ele>6.5</ele>
        <time>2021-06-03T11:58:14.000Z</time>
      </trkpt>
      <trkpt lat="44.9927" lon="-0.206">
        <ele>6.4</ele>
        <time>2021-06-03T11:58:16.000Z</time>
      </trkpt>
      <trkpt lat="44.99274" lon="-0.20608">
        <ele>7.2</ele>
        <time>2021-06-03T11:58:18.000Z</time>
      </trkpt>
      <trkpt lat="44.99277" lon="-0.20616">
        <ele>7.7</ele>
        <time>2021-06-03T11:58:20.000Z</time>
      </trkpt>
      <trkpt lat="44.9928" lon="-0.20625">
        <ele>8.1</ele>
        <time>2021-06-03T11:58:22.000Z</time>
      </trkpt>
      <trkpt lat="44.99283" lon="-0.20634">
        <ele>8.2</ele>
        <time>2021-06-03T11:58:24.000Z</time>
      </trkpt>
      <trkpt lat="44.99286" lon="-0.20642">
        <ele>8.4</ele>
        <time>2021-06-03T11:58:26.000Z</time>
      </trkpt>
      <trkpt lat="44.99289" lon="-0.2065">
        <ele>8.6</ele>
        <time>2021-06-03T11:58:28.000Z</time>
      </trkpt>
      <trkpt lat="44.99294" lon="-0.20657">
        <ele>9</ele>
        <time>2021-06-03T11:58:30.000Z</time>
      </trkpt>
      <trkpt lat="44.99298" lon="-0.20666">
        <ele>9.6</ele>
        <time>2021-06-03T11:58:32.000Z</time>
      </trkpt>
      <trkpt lat="44.99302" lon="-0.20674">
        <ele>9.7</ele>
        <time>2021-06-03T11:58:34.000Z</time>
      </trkpt>
      <trkpt lat="44.99305" lon="-0.20682">
        <ele>10.1</ele>
        <time>2021-06-03T11:58:36.000Z</time>
      </trkpt>
      <trkpt lat="44.99308" lon="-0.2069">
        <ele>10.1</ele>
        <time>2021-06-03T11:58:38.000Z</time>
      </trkpt>
      <trkpt lat="44.9931" lon="-0.20694">
        <ele>9.8</ele>
        <time>2021-06-03T11:58:39.000Z</time>
      </trkpt>
      <trkpt lat="44.99316" lon="-0.20706">
        <ele>10.3</ele>
        <time>2021-06-03T11:58:42.000Z</time>
      </trkpt>
      <trkpt lat="44.9932" lon="-0.20716">
        <ele>10.3</ele>
        <time>2021-06-03T11:58:44.000Z</time>
      </trkpt>
      <trkpt lat="44.99324" lon="-0.20725">
        <ele>10.8</ele>
        <time>2021-06-03T11:58:46.000Z</time>
      </trkpt>
      <trkpt lat="44.99328" lon="-0.20735">
        <ele>10.6</ele>
        <time>2021-06-03T11:58:48.000Z</time>
      </trkpt>
      <trkpt lat="44.99332" lon="-0.20745">
        <ele>10.2</ele>
        <time>2021-06-03T11:58:50.000Z</time>
      </trkpt>
      <trkpt lat="44.99336" lon="-0.20754">
        <ele>10</ele>
        <time>2021-06-03T11:58:52.000Z</time>
      </trkpt>
      <trkpt lat="44.99339" lon="-0.2076">
        <ele>9.9</ele>
        <time>2021-06-03T11:58:53.000Z</time>
      </trkpt>
      <trkpt lat="44.99341" lon="-0.20765">
        <ele>9.9</ele>
        <time>2021-06-03T11:58:54.000Z</time>
      </trkpt>
      <trkpt lat="44.99344" lon="-0.20771">
        <ele>9.8</ele>
        <time>2021-06-03T11:58:55.000Z</time>
      </trkpt>
      <trkpt lat="44.99347" lon="-0.20778">
        <ele>9.7</ele>
        <time>2021-06-03T11:58:56.000Z</time>
      </trkpt>
      <trkpt lat="44.9935" lon="-0.20785">
        <ele>9.3</ele>
        <time>2021-06-03T11:58:57.000Z</time>
      </trkpt>
      <trkpt lat="44.99354" lon="-0.20792">
        <ele>9.1</ele>
        <time>2021-06-03T11:58:58.000Z</time>
      </trkpt>
      <trkpt lat="44.99357" lon="-0.208">
        <ele>8.6</ele>
        <time>2021-06-03T11:58:59.000Z</time>
      </trkpt>
      <trkpt lat="44.99361" lon="-0.20808">
        <ele>8.2</ele>
        <time>2021-06-03T11:59:00.000Z</time>
      </trkpt>
      <trkpt lat="44.99364" lon="-0.20816">
        <ele>7.9</ele>
        <time>2021-06-03T11:59:01.000Z</time>
      </trkpt>
      <trkpt lat="44.99367" lon="-0.20824">
        <ele>7.8</ele>
        <time>2021-06-03T11:59:02.000Z</time>
      </trkpt>
      <trkpt lat="44.9937" lon="-0.20831">
        <ele>7.8</ele>
        <time>2021-06-03T11:59:03.000Z</time>
      </trkpt>
      <trkpt lat="44.99373" lon="-0.20838">
        <ele>7.4</ele>
        <time>2021-06-03T11:59:04.000Z</time>
      </trkpt>
      <trkpt lat="44.99376" lon="-0.20845">
        <ele>7.1</ele>
        <time>2021-06-03T11:59:05.000Z</time>
      </trkpt>
      <trkpt lat="44.99379" lon="-0.20851">
        <ele>7.2</ele>
        <time>2021-06-03T11:59:06.000Z</time>
      </trkpt>
      <trkpt lat="44.99382" lon="-0.20857">
        <ele>7.3</ele>
        <time>2021-06-03T11:59:07.000Z</time>
      </trkpt>
      <trkpt lat="44.99384" lon="-0.20863">
        <ele>7.3</ele>
        <time>2021-06-03T11:59:08.000Z</time>
      </trkpt>
      <trkpt lat="44.99387" lon="-0.20869">
        <ele>7.1</ele>
        <time>2021-06-03T11:59:09.000Z</time>
      </trkpt>
      <trkpt lat="44.99393" lon="-0.20879">
        <ele>7</ele>
        <time>2021-06-03T11:59:11.000Z</time>
      </trkpt>
      <trkpt lat="44.99396" lon="-0.20888">
        <ele>7</ele>
        <time>2021-06-03T11:59:13.000Z</time>
      </trkpt>
      <trkpt lat="44.99391" lon="-0.20898">
        <ele>6.8</ele>
        <time>2021-06-03T11:59:16.000Z</time>
      </trkpt>
      <trkpt lat="44.99386" lon="-0.20903">
        <ele>6.7</ele>
        <time>2021-06-03T11:59:18.000Z</time>
      </trkpt>
      <trkpt lat="44.99379" lon="-0.20908">
        <ele>6.6</ele>
        <time>2021-06-03T11:59:20.000Z</time>
      </trkpt>
      <trkpt lat="44.99371" lon="-0.20914">
        <ele>6.4</ele>
        <time>2021-06-03T11:59:22.000Z</time>
      </trkpt>
      <trkpt lat="44.99366" lon="-0.20917">
        <ele>6.3</ele>
        <time>2021-06-03T11:59:23.000Z</time>
      </trkpt>
      <trkpt lat="44.99362" lon="-0.2092">
        <ele>6.1</ele>
        <time>2021-06-03T11:59:24.000Z</time>
      </trkpt>
      <trkpt lat="44.99357" lon="-0.20923">
        <ele>6</ele>
        <time>2021-06-03T11:59:25.000Z</time>
      </trkpt>
      <trkpt lat="44.99353" lon="-0.20926">
        <ele>5.8</ele>
        <time>2021-06-03T11:59:26.000Z</time>
      </trkpt>
      <trkpt lat="44.99348" lon="-0.20929">
        <ele>5.6</ele>
        <time>2021-06-03T11:59:27.000Z</time>
      </trkpt>
      <trkpt lat="44.99344" lon="-0.20933">
        <ele>5.1</ele>
        <time>2021-06-03T11:59:28.000Z</time>
      </trkpt>
      <trkpt lat="44.99336" lon="-0.20938">
        <ele>4.6</ele>
        <time>2021-06-03T11:59:30.000Z</time>
      </trkpt>
      <trkpt lat="44.99328" lon="-0.20944">
        <ele>4.4</ele>
        <time>2021-06-03T11:59:32.000Z</time>
      </trkpt>
      <trkpt lat="44.99321" lon="-0.20949">
        <ele>4.3</ele>
        <time>2021-06-03T11:59:34.000Z</time>
      </trkpt>
      <trkpt lat="44.99313" lon="-0.20954">
        <ele>4.3</ele>
        <time>2021-06-03T11:59:36.000Z</time>
      </trkpt>
      <trkpt lat="44.99309" lon="-0.20957">
        <ele>4.5</ele>
        <time>2021-06-03T11:59:37.000Z</time>
      </trkpt>
      <trkpt lat="44.99301" lon="-0.20963">
        <ele>4.7</ele>
        <time>2021-06-03T11:59:39.000Z</time>
      </trkpt>
      <trkpt lat="44.99298" lon="-0.20966">
        <ele>4.6</ele>
        <time>2021-06-03T11:59:40.000Z</time>
      </trkpt>
      <trkpt lat="44.99293" lon="-0.20971">
        <ele>4.5</ele>
        <time>2021-06-03T11:59:41.000Z</time>
      </trkpt>
      <trkpt lat="44.99286" lon="-0.20979">
        <ele>4.8</ele>
        <time>2021-06-03T11:59:43.000Z</time>
      </trkpt>
      <trkpt lat="44.99281" lon="-0.20989">
        <ele>4.9</ele>
        <time>2021-06-03T11:59:45.000Z</time>
      </trkpt>
      <trkpt lat="44.99278" lon="-0.21">
        <ele>4.9</ele>
        <time>2021-06-03T11:59:47.000Z</time>
      </trkpt>
      <trkpt lat="44.99278" lon="-0.21011">
        <ele>4.7</ele>
        <time>2021-06-03T11:59:49.000Z</time>
      </trkpt>
      <trkpt lat="44.99277" lon="-0.21023">
        <ele>4.4</ele>
        <time>2021-06-03T11:59:51.000Z</time>
      </trkpt>
      <trkpt lat="44.99276" lon="-0.21035">
        <ele>4.4</ele>
        <time>2021-06-03T11:59:53.000Z</time>
      </trkpt>
      <trkpt lat="44.99276" lon="-0.21046">
        <ele>4.1</ele>
        <time>2021-06-03T11:59:55.000Z</time>
      </trkpt>
      <trkpt lat="44.99276" lon="-0.21058">
        <ele>3.3</ele>
        <time>2021-06-03T11:59:57.000Z</time>
      </trkpt>
      <trkpt lat="44.99277" lon="-0.21069">
        <ele>3.1</ele>
        <time>2021-06-03T11:59:59.000Z</time>
      </trkpt>
      <trkpt lat="44.9928" lon="-0.2108">
        <ele>3.3</ele>
        <time>2021-06-03T12:00:01.000Z</time>
      </trkpt>
      <trkpt lat="44.99283" lon="-0.21092">
        <ele>3.7</ele>
        <time>2021-06-03T12:00:03.000Z</time>
      </trkpt>
      <trkpt lat="44.99287" lon="-0.21102">
        <ele>4.1</ele>
        <time>2021-06-03T12:00:05.000Z</time>
      </trkpt>
      <trkpt lat="44.99291" lon="-0.21113">
        <ele>4.7</ele>
        <time>2021-06-03T12:00:07.000Z</time>
      </trkpt>
      <trkpt lat="44.99293" lon="-0.21119">
        <ele>4.7</ele>
        <time>2021-06-03T12:00:08.000Z</time>
      </trkpt>
      <trkpt lat="44.99295" lon="-0.21124">
        <ele>4.7</ele>
        <time>2021-06-03T12:00:09.000Z</time>
      </trkpt>
      <trkpt lat="44.99297" lon="-0.2113">
        <ele>4.7</ele>
        <time>2021-06-03T12:00:10.000Z</time>
      </trkpt>
      <trkpt lat="44.99302" lon="-0.21141">
        <ele>4.2</ele>
        <time>2021-06-03T12:00:12.000Z</time>
      </trkpt>
      <trkpt lat="44.99305" lon="-0.21152">
        <ele>4.5</ele>
        <time>2021-06-03T12:00:14.000Z</time>
      </trkpt>
      <trkpt lat="44.99308" lon="-0.21163">
        <ele>4.3</ele>
        <time>2021-06-03T12:00:16.000Z</time>
      </trkpt>
      <trkpt lat="44.99311" lon="-0.21174">
        <ele>4.4</ele>
        <time>2021-06-03T12:00:18.000Z</time>
      </trkpt>
      <trkpt lat="44.99314" lon="-0.21184">
        <ele>4.5</ele>
        <time>2021-06-03T12:00:20.000Z</time>
      </trkpt>
      <trkpt lat="44.99318" lon="-0.21195">
        <ele>4.6</ele>
        <time>2021-06-03T12:00:22.000Z</time>
      </trkpt>
      <trkpt lat="44.99321" lon="-0.21207">
        <ele>3.9</ele>
        <time>2021-06-03T12:00:24.000Z</time>
      </trkpt>
      <trkpt lat="44.99324" lon="-0.21218">
        <ele>4.3</ele>
        <time>2021-06-03T12:00:26.000Z</time>
      </trkpt>
      <trkpt lat="44.99327" lon="-0.21228">
        <ele>3.7</ele>
        <time>2021-06-03T12:00:28.000Z</time>
      </trkpt>
      <trkpt lat="44.9933" lon="-0.21239">
        <ele>3.1</ele>
        <time>2021-06-03T12:00:30.000Z</time>
      </trkpt>
      <trkpt lat="44.99332" lon="-0.21249">
        <ele>2.8</ele>
        <time>2021-06-03T12:00:32.000Z</time>
      </trkpt>
      <trkpt lat="44.99334" lon="-0.2126">
        <ele>2.7</ele>
        <time>2021-06-03T12:00:34.000Z</time>
      </trkpt>
      <trkpt lat="44.99337" lon="-0.2127">
        <ele>2.5</ele>
        <time>2021-06-03T12:00:36.000Z</time>
      </trkpt>
      <trkpt lat="44.99341" lon="-0.21281">
        <ele>2.9</ele>
        <time>2021-06-03T12:00:38.000Z</time>
      </trkpt>
      <trkpt lat="44.99344" lon="-0.21291">
        <ele>2.7</ele>
        <time>2021-06-03T12:00:40.000Z</time>
      </trkpt>
      <trkpt lat="44.99346" lon="-0.21296">
        <ele>3</ele>
        <time>2021-06-03T12:00:41.000Z</time>
      </trkpt>
      <trkpt lat="44.9935" lon="-0.21313">
        <ele>3.5</ele>
        <time>2021-06-03T12:00:44.000Z</time>
      </trkpt>
      <trkpt lat="44.99353" lon="-0.21324">
        <ele>3.6</ele>
        <time>2021-06-03T12:00:46.000Z</time>
      </trkpt>
      <trkpt lat="44.99355" lon="-0.21335">
        <ele>3.6</ele>
        <time>2021-06-03T12:00:48.000Z</time>
      </trkpt>
      <trkpt lat="44.99359" lon="-0.21347">
        <ele>3.8</ele>
        <time>2021-06-03T12:00:50.000Z</time>
      </trkpt>
      <trkpt lat="44.99363" lon="-0.21357">
        <ele>3.9</ele>
        <time>2021-06-03T12:00:52.000Z</time>
      </trkpt>
      <trkpt lat="44.99365" lon="-0.21369">
        <ele>3.5</ele>
        <time>2021-06-03T12:00:54.000Z</time>
      </trkpt>
      <trkpt lat="44.99367" lon="-0.21375">
        <ele>3.4</ele>
        <time>2021-06-03T12:00:55.000Z</time>
      </trkpt>
      <trkpt lat="44.99368" lon="-0.21381">
        <ele>3.8</ele>
        <time>2021-06-03T12:00:56.000Z</time>
      </trkpt>
      <trkpt lat="44.9937" lon="-0.21387">
        <ele>4.1</ele>
        <time>2021-06-03T12:00:57.000Z</time>
      </trkpt>
      <trkpt lat="44.99371" lon="-0.21393">
        <ele>3.9</ele>
        <time>2021-06-03T12:00:58.000Z</time>
      </trkpt>
      <trkpt lat="44.99374" lon="-0.21405">
        <ele>3.5</ele>
        <time>2021-06-03T12:01:00.000Z</time>
      </trkpt>
      <trkpt lat="44.99378" lon="-0.21416">
        <ele>3.3</ele>
        <time>2021-06-03T12:01:02.000Z</time>
      </trkpt>
      <trkpt lat="44.99381" lon="-0.21428">
        <ele>3.4</ele>
        <time>2021-06-03T12:01:04.000Z</time>
      </trkpt>
      <trkpt lat="44.99385" lon="-0.21439">
        <ele>3.5</ele>
        <time>2021-06-03T12:01:06.000Z</time>
      </trkpt>
      <trkpt lat="44.99387" lon="-0.21445">
        <ele>3.5</ele>
        <time>2021-06-03T12:01:07.000Z</time>
      </trkpt>
      <trkpt lat="44.99388" lon="-0.21451">
        <ele>3.7</ele>
        <time>2021-06-03T12:01:08.000Z</time>
      </trkpt>
      <trkpt lat="44.99392" lon="-0.21462">
        <ele>3.8</ele>
        <time>2021-06-03T12:01:10.000Z</time>
      </trkpt>
      <trkpt lat="44.99396" lon="-0.21474">
        <ele>4</ele>
        <time>2021-06-03T12:01:12.000Z</time>
      </trkpt>
      <trkpt lat="44.994" lon="-0.21485">
        <ele>4.3</ele>
        <time>2021-06-03T12:01:14.000Z</time>
      </trkpt>
      <trkpt lat="44.99404" lon="-0.21494">
        <ele>3.7</ele>
        <time>2021-06-03T12:01:16.000Z</time>
      </trkpt>
      <trkpt lat="44.99407" lon="-0.21505">
        <ele>3.2</ele>
        <time>2021-06-03T12:01:18.000Z</time>
      </trkpt>
      <trkpt lat="44.99411" lon="-0.21516">
        <ele>3.7</ele>
        <time>2021-06-03T12:01:20.000Z</time>
      </trkpt>
      <trkpt lat="44.99414" lon="-0.21528">
        <ele>3.5</ele>
        <time>2021-06-03T12:01:22.000Z</time>
      </trkpt>
      <trkpt lat="44.99418" lon="-0.21539">
        <ele>3.2</ele>
        <time>2021-06-03T12:01:24.000Z</time>
      </trkpt>
      <trkpt lat="44.9942" lon="-0.21545">
        <ele>3.2</ele>
        <time>2021-06-03T12:01:25.000Z</time>
      </trkpt>
      <trkpt lat="44.99422" lon="-0.21551">
        <ele>3.4</ele>
        <time>2021-06-03T12:01:26.000Z</time>
      </trkpt>
      <trkpt lat="44.99424" lon="-0.21558">
        <ele>3.5</ele>
        <time>2021-06-03T12:01:27.000Z</time>
      </trkpt>
      <trkpt lat="44.99427" lon="-0.21564">
        <ele>3.6</ele>
        <time>2021-06-03T12:01:28.000Z</time>
      </trkpt>
      <trkpt lat="44.99429" lon="-0.21569">
        <ele>3.7</ele>
        <time>2021-06-03T12:01:29.000Z</time>
      </trkpt>
      <trkpt lat="44.99432" lon="-0.21575">
        <ele>3.8</ele>
        <time>2021-06-03T12:01:30.000Z</time>
      </trkpt>
      <trkpt lat="44.99436" lon="-0.2158">
        <ele>3.7</ele>
        <time>2021-06-03T12:01:31.000Z</time>
      </trkpt>
      <trkpt lat="44.99439" lon="-0.21584">
        <ele>3.6</ele>
        <time>2021-06-03T12:01:32.000Z</time>
      </trkpt>
      <trkpt lat="44.99443" lon="-0.21589">
        <ele>3.5</ele>
        <time>2021-06-03T12:01:33.000Z</time>
      </trkpt>
      <trkpt lat="44.99447" lon="-0.21593">
        <ele>3.6</ele>
        <time>2021-06-03T12:01:34.000Z</time>
      </trkpt>
      <trkpt lat="44.9945" lon="-0.21596">
        <ele>3.6</ele>
        <time>2021-06-03T12:01:35.000Z</time>
      </trkpt>
      <trkpt lat="44.99458" lon="-0.21602">
        <ele>3.1</ele>
        <time>2021-06-03T12:01:37.000Z</time>
      </trkpt>
      <trkpt lat="44.99466" lon="-0.21608">
        <ele>3.8</ele>
        <time>2021-06-03T12:01:39.000Z</time>
      </trkpt>
      <trkpt lat="44.99474" lon="-0.21613">
        <ele>4.2</ele>
        <time>2021-06-03T12:01:41.000Z</time>
      </trkpt>
      <trkpt lat="44.99478" lon="-0.21615">
        <ele>4.3</ele>
        <time>2021-06-03T12:01:42.000Z</time>
      </trkpt>
      <trkpt lat="44.99489" lon="-0.21622">
        <ele>4.1</ele>
        <time>2021-06-03T12:01:45.000Z</time>
      </trkpt>
      <trkpt lat="44.99496" lon="-0.21628">
        <ele>3.8</ele>
        <time>2021-06-03T12:01:47.000Z</time>
      </trkpt>
      <trkpt lat="44.99504" lon="-0.21634">
        <ele>3.6</ele>
        <time>2021-06-03T12:01:49.000Z</time>
      </trkpt>
      <trkpt lat="44.99511" lon="-0.2164">
        <ele>3.5</ele>
        <time>2021-06-03T12:01:51.000Z</time>
      </trkpt>
      <trkpt lat="44.99518" lon="-0.21647">
        <ele>3.2</ele>
        <time>2021-06-03T12:01:53.000Z</time>
      </trkpt>
      <trkpt lat="44.99521" lon="-0.21651">
        <ele>3</ele>
        <time>2021-06-03T12:01:54.000Z</time>
      </trkpt>
      <trkpt lat="44.99525" lon="-0.21654">
        <ele>3.3</ele>
        <time>2021-06-03T12:01:55.000Z</time>
      </trkpt>
      <trkpt lat="44.99529" lon="-0.21658">
        <ele>3.5</ele>
        <time>2021-06-03T12:01:56.000Z</time>
      </trkpt>
      <trkpt lat="44.99533" lon="-0.21662">
        <ele>3.3</ele>
        <time>2021-06-03T12:01:57.000Z</time>
      </trkpt>
      <trkpt lat="44.99536" lon="-0.21666">
        <ele>3.2</ele>
        <time>2021-06-03T12:01:58.000Z</time>
      </trkpt>
      <trkpt lat="44.9954" lon="-0.21671">
        <ele>3.1</ele>
        <time>2021-06-03T12:01:59.000Z</time>
      </trkpt>
      <trkpt lat="44.99543" lon="-0.21675">
        <ele>3.2</ele>
        <time>2021-06-03T12:02:00.000Z</time>
      </trkpt>
      <trkpt lat="44.9955" lon="-0.21684">
        <ele>3.3</ele>
        <time>2021-06-03T12:02:02.000Z</time>
      </trkpt>
      <trkpt lat="44.99555" lon="-0.21692">
        <ele>3.2</ele>
        <time>2021-06-03T12:02:04.000Z</time>
      </trkpt>
      <trkpt lat="44.9956" lon="-0.21702">
        <ele>2.9</ele>
        <time>2021-06-03T12:02:06.000Z</time>
      </trkpt>
      <trkpt lat="44.99563" lon="-0.21707">
        <ele>3.4</ele>
        <time>2021-06-03T12:02:07.000Z</time>
      </trkpt>
      <trkpt lat="44.99566" lon="-0.21712">
        <ele>3.8</ele>
        <time>2021-06-03T12:02:08.000Z</time>
      </trkpt>
      <trkpt lat="44.99571" lon="-0.21723">
        <ele>3.2</ele>
        <time>2021-06-03T12:02:10.000Z</time>
      </trkpt>
      <trkpt lat="44.99574" lon="-0.21734">
        <ele>3.7</ele>
        <time>2021-06-03T12:02:12.000Z</time>
      </trkpt>
      <trkpt lat="44.99576" lon="-0.21746">
        <ele>4.3</ele>
        <time>2021-06-03T12:02:14.000Z</time>
      </trkpt>
      <trkpt lat="44.99579" lon="-0.21756">
        <ele>4.4</ele>
        <time>2021-06-03T12:02:16.000Z</time>
      </trkpt>
      <trkpt lat="44.99582" lon="-0.21767">
        <ele>4.4</ele>
        <time>2021-06-03T12:02:18.000Z</time>
      </trkpt>
      <trkpt lat="44.99586" lon="-0.21777">
        <ele>4.2</ele>
        <time>2021-06-03T12:02:20.000Z</time>
      </trkpt>
      <trkpt lat="44.9959" lon="-0.21787">
        <ele>4</ele>
        <time>2021-06-03T12:02:22.000Z</time>
      </trkpt>
      <trkpt lat="44.99595" lon="-0.21796">
        <ele>4.5</ele>
        <time>2021-06-03T12:02:24.000Z</time>
      </trkpt>
      <trkpt lat="44.99601" lon="-0.21804">
        <ele>4.6</ele>
        <time>2021-06-03T12:02:26.000Z</time>
      </trkpt>
      <trkpt lat="44.99606" lon="-0.21812">
        <ele>4.1</ele>
        <time>2021-06-03T12:02:28.000Z</time>
      </trkpt>
      <trkpt lat="44.99611" lon="-0.21817">
        <ele>3.8</ele>
        <time>2021-06-03T12:02:30.000Z</time>
      </trkpt>
      <trkpt lat="44.99616" lon="-0.21823">
        <ele>3.9</ele>
        <time>2021-06-03T12:02:32.000Z</time>
      </trkpt>
      <trkpt lat="44.99622" lon="-0.21829">
        <ele>4.3</ele>
        <time>2021-06-03T12:02:34.000Z</time>
      </trkpt>
      <trkpt lat="44.99628" lon="-0.21837">
        <ele>5.1</ele>
        <time>2021-06-03T12:02:37.000Z</time>
      </trkpt>
      <trkpt lat="44.99635" lon="-0.21844">
        <ele>4.4</ele>
        <time>2021-06-03T12:02:40.000Z</time>
      </trkpt>
      <trkpt lat="44.9964" lon="-0.21849">
        <ele>3.9</ele>
        <time>2021-06-03T12:02:42.000Z</time>
      </trkpt>
      <trkpt lat="44.99642" lon="-0.21852">
        <ele>4.3</ele>
        <time>2021-06-03T12:02:43.000Z</time>
      </trkpt>
      <trkpt lat="44.99651" lon="-0.21863">
        <ele>4.4</ele>
        <time>2021-06-03T12:02:47.000Z</time>
      </trkpt>
      <trkpt lat="44.99656" lon="-0.21871">
        <ele>4.8</ele>
        <time>2021-06-03T12:02:50.000Z</time>
      </trkpt>
      <trkpt lat="44.99663" lon="-0.21877">
        <ele>5.2</ele>
        <time>2021-06-03T12:02:57.000Z</time>
      </trkpt>
      <trkpt lat="44.99664" lon="-0.21888">
        <ele>6.1</ele>
        <time>2021-06-03T12:04:23.000Z</time>
      </trkpt>
      <trkpt lat="44.99666" lon="-0.2189">
        <ele>6.3</ele>
        <time>2021-06-03T12:04:24.000Z</time>
      </trkpt>
      <trkpt lat="44.99677" lon="-0.21898">
        <ele>7.7</ele>
        <time>2021-06-03T12:04:30.000Z</time>
      </trkpt>
      <trkpt lat="44.99685" lon="-0.21903">
        <ele>8.5</ele>
        <time>2021-06-03T12:04:34.000Z</time>
      </trkpt>
      <trkpt lat="44.99692" lon="-0.21909">
        <ele>9.9</ele>
        <time>2021-06-03T12:04:44.000Z</time>
      </trkpt>
      <trkpt lat="44.99685" lon="-0.21902">
        <ele>10.2</ele>
        <time>2021-06-03T12:06:14.000Z</time>
      </trkpt>
      <trkpt lat="44.99683" lon="-0.219">
        <ele>10.1</ele>
        <time>2021-06-03T12:06:15.000Z</time>
      </trkpt>
      <trkpt lat="44.99673" lon="-0.21893">
        <ele>8.6</ele>
        <time>2021-06-03T12:06:20.000Z</time>
      </trkpt>
      <trkpt lat="44.99666" lon="-0.21898">
        <ele>7.5</ele>
        <time>2021-06-03T12:06:23.000Z</time>
      </trkpt>
      <trkpt lat="44.99664" lon="-0.21906">
        <ele>6.9</ele>
        <time>2021-06-03T12:06:25.000Z</time>
      </trkpt>
      <trkpt lat="44.99662" lon="-0.21914">
        <ele>6.7</ele>
        <time>2021-06-03T12:06:27.000Z</time>
      </trkpt>
      <trkpt lat="44.99661" lon="-0.21922">
        <ele>6.7</ele>
        <time>2021-06-03T12:06:29.000Z</time>
      </trkpt>
      <trkpt lat="44.99659" lon="-0.21931">
        <ele>7.3</ele>
        <time>2021-06-03T12:06:31.000Z</time>
      </trkpt>
      <trkpt lat="44.99656" lon="-0.21939">
        <ele>7.8</ele>
        <time>2021-06-03T12:06:33.000Z</time>
      </trkpt>
      <trkpt lat="44.99654" lon="-0.21947">
        <ele>8</ele>
        <time>2021-06-03T12:06:35.000Z</time>
      </trkpt>
      <trkpt lat="44.99652" lon="-0.21956">
        <ele>7.8</ele>
        <time>2021-06-03T12:06:37.000Z</time>
      </trkpt>
      <trkpt lat="44.9965" lon="-0.21965">
        <ele>7.4</ele>
        <time>2021-06-03T12:06:39.000Z</time>
      </trkpt>
      <trkpt lat="44.99648" lon="-0.21974">
        <ele>8.3</ele>
        <time>2021-06-03T12:06:41.000Z</time>
      </trkpt>
      <trkpt lat="44.99647" lon="-0.21984">
        <ele>8.3</ele>
        <time>2021-06-03T12:06:43.000Z</time>
      </trkpt>
      <trkpt lat="44.99646" lon="-0.21994">
        <ele>8.1</ele>
        <time>2021-06-03T12:06:45.000Z</time>
      </trkpt>
      <trkpt lat="44.99644" lon="-0.22003">
        <ele>8.3</ele>
        <time>2021-06-03T12:06:47.000Z</time>
      </trkpt>
      <trkpt lat="44.99641" lon="-0.22011">
        <ele>8.6</ele>
        <time>2021-06-03T12:06:49.000Z</time>
      </trkpt>
      <trkpt lat="44.99639" lon="-0.2202">
        <ele>8.6</ele>
        <time>2021-06-03T12:06:51.000Z</time>
      </trkpt>
      <trkpt lat="44.99635" lon="-0.22027">
        <ele>8.9</ele>
        <time>2021-06-03T12:06:53.000Z</time>
      </trkpt>
      <trkpt lat="44.99632" lon="-0.22035">
        <ele>9.3</ele>
        <time>2021-06-03T12:06:55.000Z</time>
      </trkpt>
      <trkpt lat="44.99628" lon="-0.22044">
        <ele>9.4</ele>
        <time>2021-06-03T12:06:57.000Z</time>
      </trkpt>
      <trkpt lat="44.99625" lon="-0.22052">
        <ele>9.2</ele>
        <time>2021-06-03T12:06:59.000Z</time>
      </trkpt>
      <trkpt lat="44.99622" lon="-0.2206">
        <ele>9</ele>
        <time>2021-06-03T12:07:01.000Z</time>
      </trkpt>
      <trkpt lat="44.9962" lon="-0.22069">
        <ele>9.2</ele>
        <time>2021-06-03T12:07:03.000Z</time>
      </trkpt>
      <trkpt lat="44.9962" lon="-0.22078">
        <ele>10.1</ele>
        <time>2021-06-03T12:07:05.000Z</time>
      </trkpt>
      <trkpt lat="44.99625" lon="-0.22088">
        <ele>10</ele>
        <time>2021-06-03T12:07:08.000Z</time>
      </trkpt>
      <trkpt lat="44.9963" lon="-0.22097">
        <ele>10.3</ele>
        <time>2021-06-03T12:07:11.000Z</time>
      </trkpt>
      <trkpt lat="44.99636" lon="-0.22104">
        <ele>11</ele>
        <time>2021-06-03T12:07:14.000Z</time>
      </trkpt>
      <trkpt lat="44.99643" lon="-0.22111">
        <ele>11.9</ele>
        <time>2021-06-03T12:07:17.000Z</time>
      </trkpt>
      <trkpt lat="44.99645" lon="-0.22114">
        <ele>12.3</ele>
        <time>2021-06-03T12:07:18.000Z</time>
      </trkpt>
      <trkpt lat="44.99655" lon="-0.22125">
        <ele>14.4</ele>
        <time>2021-06-03T12:07:23.000Z</time>
      </trkpt>
      <trkpt lat="44.9966" lon="-0.22133">
        <ele>14.8</ele>
        <time>2021-06-03T12:07:26.000Z</time>
      </trkpt>
      <trkpt lat="44.99666" lon="-0.22141">
        <ele>15.5</ele>
        <time>2021-06-03T12:07:29.000Z</time>
      </trkpt>
      <trkpt lat="44.99671" lon="-0.22148">
        <ele>15.5</ele>
        <time>2021-06-03T12:07:32.000Z</time>
      </trkpt>
      <trkpt lat="44.99675" lon="-0.22157">
        <ele>16.2</ele>
        <time>2021-06-03T12:07:35.000Z</time>
      </trkpt>
      <trkpt lat="44.99678" lon="-0.22166">
        <ele>16.4</ele>
        <time>2021-06-03T12:07:38.000Z</time>
      </trkpt>
      <trkpt lat="44.99678" lon="-0.22176">
        <ele>17.5</ele>
        <time>2021-06-03T12:07:41.000Z</time>
      </trkpt>
      <trkpt lat="44.99674" lon="-0.22185">
        <ele>17.5</ele>
        <time>2021-06-03T12:07:44.000Z</time>
      </trkpt>
      <trkpt lat="44.99669" lon="-0.22194">
        <ele>18.1</ele>
        <time>2021-06-03T12:07:47.000Z</time>
      </trkpt>
      <trkpt lat="44.99664" lon="-0.22203">
        <ele>19.1</ele>
        <time>2021-06-03T12:07:50.000Z</time>
      </trkpt>
      <trkpt lat="44.99659" lon="-0.22213">
        <ele>19.2</ele>
        <time>2021-06-03T12:07:53.000Z</time>
      </trkpt>
      <trkpt lat="44.99654" lon="-0.22222">
        <ele>19.6</ele>
        <time>2021-06-03T12:07:56.000Z</time>
      </trkpt>
      <trkpt lat="44.99649" lon="-0.22233">
        <ele>20.9</ele>
        <time>2021-06-03T12:07:59.000Z</time>
      </trkpt>
      <trkpt lat="44.99646" lon="-0.22243">
        <ele>21</ele>
        <time>2021-06-03T12:08:02.000Z</time>
      </trkpt>
      <trkpt lat="44.99643" lon="-0.22253">
        <ele>21.4</ele>
        <time>2021-06-03T12:08:05.000Z</time>
      </trkpt>
      <trkpt lat="44.9964" lon="-0.22263">
        <ele>22.1</ele>
        <time>2021-06-03T12:08:08.000Z</time>
      </trkpt>
      <trkpt lat="44.99637" lon="-0.22273">
        <ele>22.4</ele>
        <time>2021-06-03T12:08:11.000Z</time>
      </trkpt>
      <trkpt lat="44.99634" lon="-0.22282">
        <ele>22</ele>
        <time>2021-06-03T12:08:14.000Z</time>
      </trkpt>
      <trkpt lat="44.9963" lon="-0.22293">
        <ele>22.6</ele>
        <time>2021-06-03T12:08:17.000Z</time>
      </trkpt>
      <trkpt lat="44.99625" lon="-0.22303">
        <ele>22.4</ele>
        <time>2021-06-03T12:08:20.000Z</time>
      </trkpt>
      <trkpt lat="44.99624" lon="-0.22307">
        <ele>22.5</ele>
        <time>2021-06-03T12:08:21.000Z</time>
      </trkpt>
      <trkpt lat="44.99617" lon="-0.22321">
        <ele>24.1</ele>
        <time>2021-06-03T12:08:25.000Z</time>
      </trkpt>
      <trkpt lat="44.99613" lon="-0.22331">
        <ele>24</ele>
        <time>2021-06-03T12:08:28.000Z</time>
      </trkpt>
      <trkpt lat="44.99608" lon="-0.22342">
        <ele>24.3</ele>
        <time>2021-06-03T12:08:31.000Z</time>
      </trkpt>
      <trkpt lat="44.99605" lon="-0.22351">
        <ele>24.2</ele>
        <time>2021-06-03T12:08:34.000Z</time>
      </trkpt>
      <trkpt lat="44.99601" lon="-0.2236">
        <ele>23.9</ele>
        <time>2021-06-03T12:08:37.000Z</time>
      </trkpt>
      <trkpt lat="44.99598" lon="-0.22372">
        <ele>24.4</ele>
        <time>2021-06-03T12:08:41.000Z</time>
      </trkpt>
      <trkpt lat="44.99598" lon="-0.22382">
        <ele>24.7</ele>
        <time>2021-06-03T12:08:44.000Z</time>
      </trkpt>
      <trkpt lat="44.99602" lon="-0.22391">
        <ele>24.4</ele>
        <time>2021-06-03T12:08:47.000Z</time>
      </trkpt>
      <trkpt lat="44.99609" lon="-0.22399">
        <ele>25.9</ele>
        <time>2021-06-03T12:08:51.000Z</time>
      </trkpt>
      <trkpt lat="44.99616" lon="-0.22402">
        <ele>26.9</ele>
        <time>2021-06-03T12:08:55.000Z</time>
      </trkpt>
      <trkpt lat="44.99622" lon="-0.22406">
        <ele>27.8</ele>
        <time>2021-06-03T12:08:58.000Z</time>
      </trkpt>
      <trkpt lat="44.99629" lon="-0.22409">
        <ele>27.6</ele>
        <time>2021-06-03T12:09:01.000Z</time>
      </trkpt>
      <trkpt lat="44.99637" lon="-0.22413">
        <ele>27.9</ele>
        <time>2021-06-03T12:09:05.000Z</time>
      </trkpt>
      <trkpt lat="44.99645" lon="-0.22417">
        <ele>28.7</ele>
        <time>2021-06-03T12:09:09.000Z</time>
      </trkpt>
      <trkpt lat="44.99654" lon="-0.22421">
        <ele>30.6</ele>
        <time>2021-06-03T12:09:13.000Z</time>
      </trkpt>
      <trkpt lat="44.99662" lon="-0.22426">
        <ele>31.9</ele>
        <time>2021-06-03T12:09:17.000Z</time>
      </trkpt>
      <trkpt lat="44.99669" lon="-0.22432">
        <ele>32.5</ele>
        <time>2021-06-03T12:09:21.000Z</time>
      </trkpt>
      <trkpt lat="44.99671" lon="-0.22434">
        <ele>32.7</ele>
        <time>2021-06-03T12:09:22.000Z</time>
      </trkpt>
      <trkpt lat="44.99682" lon="-0.22444">
        <ele>33.5</ele>
        <time>2021-06-03T12:09:28.000Z</time>
      </trkpt>
      <trkpt lat="44.99687" lon="-0.22453">
        <ele>34.5</ele>
        <time>2021-06-03T12:09:33.000Z</time>
      </trkpt>
      <trkpt lat="44.99692" lon="-0.22462">
        <ele>35</ele>
        <time>2021-06-03T12:09:37.000Z</time>
      </trkpt>
      <trkpt lat="44.99697" lon="-0.22472">
        <ele>35.4</ele>
        <time>2021-06-03T12:09:41.000Z</time>
      </trkpt>
      <trkpt lat="44.997" lon="-0.22482">
        <ele>35.4</ele>
        <time>2021-06-03T12:09:45.000Z</time>
      </trkpt>
      <trkpt lat="44.99705" lon="-0.22492">
        <ele>38</ele>
        <time>2021-06-03T12:09:49.000Z</time>
      </trkpt>
      <trkpt lat="44.99709" lon="-0.225">
        <ele>37.5</ele>
        <time>2021-06-03T12:09:52.000Z</time>
      </trkpt>
      <trkpt lat="44.99713" lon="-0.22509">
        <ele>38.2</ele>
        <time>2021-06-03T12:09:55.000Z</time>
      </trkpt>
      <trkpt lat="44.99717" lon="-0.22517">
        <ele>37.3</ele>
        <time>2021-06-03T12:09:58.000Z</time>
      </trkpt>
      <trkpt lat="44.99723" lon="-0.22526">
        <ele>39.1</ele>
        <time>2021-06-03T12:10:06.000Z</time>
      </trkpt>
      <trkpt lat="44.99729" lon="-0.22533">
        <ele>38.5</ele>
        <time>2021-06-03T12:10:25.000Z</time>
      </trkpt>
      <trkpt lat="44.9973" lon="-0.22533">
        <ele>38.3</ele>
        <time>2021-06-03T12:10:26.000Z</time>
      </trkpt>
      <trkpt lat="44.99732" lon="-0.22545">
        <ele>39.6</ele>
        <time>2021-06-03T12:19:36.000Z</time>
      </trkpt>
      <trkpt lat="44.99743" lon="-0.22561">
        <ele>40.4</ele>
        <time>2021-06-03T12:20:08.000Z</time>
      </trkpt>
      <trkpt lat="44.9975" lon="-0.22566">
        <ele>41.1</ele>
        <time>2021-06-03T12:20:13.000Z</time>
      </trkpt>
      <trkpt lat="44.99758" lon="-0.22571">
        <ele>41.4</ele>
        <time>2021-06-03T12:20:18.000Z</time>
      </trkpt>
      <trkpt lat="44.99765" lon="-0.22575">
        <ele>42.4</ele>
        <time>2021-06-03T12:20:23.000Z</time>
      </trkpt>
      <trkpt lat="44.99773" lon="-0.22577">
        <ele>42.5</ele>
        <time>2021-06-03T12:20:28.000Z</time>
      </trkpt>
      <trkpt lat="44.99781" lon="-0.22581">
        <ele>43.1</ele>
        <time>2021-06-03T12:20:34.000Z</time>
      </trkpt>
      <trkpt lat="44.99789" lon="-0.22583">
        <ele>43.4</ele>
        <time>2021-06-03T12:20:38.000Z</time>
      </trkpt>
      <trkpt lat="44.9979" lon="-0.22584">
        <ele>43.8</ele>
        <time>2021-06-03T12:20:39.000Z</time>
      </trkpt>
      <trkpt lat="44.99804" lon="-0.22587">
        <ele>45.9</ele>
        <time>2021-06-03T12:20:47.000Z</time>
      </trkpt>
      <trkpt lat="44.99812" lon="-0.22588">
        <ele>46</ele>
        <time>2021-06-03T12:20:51.000Z</time>
      </trkpt>
      <trkpt lat="44.99821" lon="-0.22588">
        <ele>47.6</ele>
        <time>2021-06-03T12:21:07.000Z</time>
      </trkpt>
      <trkpt lat="44.99829" lon="-0.22587">
        <ele>48.1</ele>
        <time>2021-06-03T12:21:34.000Z</time>
      </trkpt>
      <trkpt lat="44.99836" lon="-0.22592">
        <ele>47.1</ele>
        <time>2021-06-03T12:21:38.000Z</time>
      </trkpt>
      <trkpt lat="44.99843" lon="-0.22597">
        <ele>47.9</ele>
        <time>2021-06-03T12:21:41.000Z</time>
      </trkpt>
      <trkpt lat="44.99846" lon="-0.22599">
        <ele>47.8</ele>
        <time>2021-06-03T12:21:42.000Z</time>
      </trkpt>
      <trkpt lat="44.99857" lon="-0.22609">
        <ele>49.1</ele>
        <time>2021-06-03T12:21:47.000Z</time>
      </trkpt>
      <trkpt lat="44.99864" lon="-0.22616">
        <ele>49.4</ele>
        <time>2021-06-03T12:21:50.000Z</time>
      </trkpt>
      <trkpt lat="44.9987" lon="-0.22621">
        <ele>49.8</ele>
        <time>2021-06-03T12:21:53.000Z</time>
      </trkpt>
      <trkpt lat="44.99877" lon="-0.22628">
        <ele>50.5</ele>
        <time>2021-06-03T12:21:56.000Z</time>
      </trkpt>
      <trkpt lat="44.99884" lon="-0.22635">
        <ele>50.5</ele>
        <time>2021-06-03T12:21:59.000Z</time>
      </trkpt>
      <trkpt lat="44.99888" lon="-0.22642">
        <ele>50</ele>
        <time>2021-06-03T12:22:01.000Z</time>
      </trkpt>
      <trkpt lat="44.99894" lon="-0.22651">
        <ele>50</ele>
        <time>2021-06-03T12:22:04.000Z</time>
      </trkpt>
      <trkpt lat="44.999" lon="-0.22655">
        <ele>50.7</ele>
        <time>2021-06-03T12:22:06.000Z</time>
      </trkpt>
      <trkpt lat="44.99906" lon="-0.22655">
        <ele>51.1</ele>
        <time>2021-06-03T12:22:08.000Z</time>
      </trkpt>
      <trkpt lat="44.99913" lon="-0.22652">
        <ele>51.5</ele>
        <time>2021-06-03T12:22:10.000Z</time>
      </trkpt>
      <trkpt lat="44.99919" lon="-0.22649">
        <ele>51.8</ele>
        <time>2021-06-03T12:22:12.000Z</time>
      </trkpt>
      <trkpt lat="44.99924" lon="-0.22646">
        <ele>52.5</ele>
        <time>2021-06-03T12:22:14.000Z</time>
      </trkpt>
      <trkpt lat="44.99932" lon="-0.22641">
        <ele>52.9</ele>
        <time>2021-06-03T12:22:17.000Z</time>
      </trkpt>
      <trkpt lat="44.99939" lon="-0.22635">
        <ele>53.5</ele>
        <time>2021-06-03T12:22:20.000Z</time>
      </trkpt>
      <trkpt lat="44.99946" lon="-0.2263">
        <ele>53.7</ele>
        <time>2021-06-03T12:22:23.000Z</time>
      </trkpt>
      <trkpt lat="44.99953" lon="-0.22625">
        <ele>54.7</ele>
        <time>2021-06-03T12:22:26.000Z</time>
      </trkpt>
      <trkpt lat="44.9996" lon="-0.22618">
        <ele>55.7</ele>
        <time>2021-06-03T12:22:30.000Z</time>
      </trkpt>
      <trkpt lat="44.99966" lon="-0.22612">
        <ele>56.6</ele>
        <time>2021-06-03T12:22:34.000Z</time>
      </trkpt>
      <trkpt lat="44.99974" lon="-0.22607">
        <ele>57.7</ele>
        <time>2021-06-03T12:22:39.000Z</time>
      </trkpt>
      <trkpt lat="44.99982" lon="-0.22603">
        <ele>58.7</ele>
        <time>2021-06-03T12:22:44.000Z</time>
      </trkpt>
      <trkpt lat="44.99983" lon="-0.22602">
        <ele>58.9</ele>
        <time>2021-06-03T12:22:45.000Z</time>
      </trkpt>
      <trkpt lat="44.99996" lon="-0.22589">
        <ele>60.3</ele>
        <time>2021-06-03T12:22:54.000Z</time>
      </trkpt>
      <trkpt lat="45.00002" lon="-0.22582">
        <ele>61.8</ele>
        <time>2021-06-03T12:22:59.000Z</time>
      </trkpt>
      <trkpt lat="45.00009" lon="-0.22575">
        <ele>62.1</ele>
        <time>2021-06-03T12:23:04.000Z</time>
      </trkpt>
      <trkpt lat="45.00016" lon="-0.22569">
        <ele>62.5</ele>
        <time>2021-06-03T12:23:48.000Z</time>
      </trkpt>
      <trkpt lat="45.00017" lon="-0.22569">
        <ele>62.4</ele>
        <time>2021-06-03T12:23:49.000Z</time>
      </trkpt>
      <trkpt lat="45.00028" lon="-0.22576">
        <ele>62</ele>
        <time>2021-06-03T12:23:54.000Z</time>
      </trkpt>
      <trkpt lat="45.00031" lon="-0.22583">
        <ele>61.8</ele>
        <time>2021-06-03T12:23:56.000Z</time>
      </trkpt>
      <trkpt lat="45.00037" lon="-0.22591">
        <ele>62.3</ele>
        <time>2021-06-03T12:23:59.000Z</time>
      </trkpt>
      <trkpt lat="45.00043" lon="-0.22598">
        <ele>63.2</ele>
        <time>2021-06-03T12:24:03.000Z</time>
      </trkpt>
      <trkpt lat="45.00051" lon="-0.22605">
        <ele>63.9</ele>
        <time>2021-06-03T12:24:12.000Z</time>
      </trkpt>
      <trkpt lat="45.00057" lon="-0.22611">
        <ele>63.6</ele>
        <time>2021-06-03T12:25:16.000Z</time>
      </trkpt>
      <trkpt lat="45.00059" lon="-0.22613">
        <ele>63.9</ele>
        <time>2021-06-03T12:25:17.000Z</time>
      </trkpt>
      <trkpt lat="45.00067" lon="-0.22623">
        <ele>63.7</ele>
        <time>2021-06-03T12:25:20.000Z</time>
      </trkpt>
      <trkpt lat="45.00073" lon="-0.22629">
        <ele>63.9</ele>
        <time>2021-06-03T12:25:22.000Z</time>
      </trkpt>
      <trkpt lat="45.0008" lon="-0.22635">
        <ele>64.2</ele>
        <time>2021-06-03T12:25:24.000Z</time>
      </trkpt>
      <trkpt lat="45.00084" lon="-0.22638">
        <ele>63.9</ele>
        <time>2021-06-03T12:25:25.000Z</time>
      </trkpt>
      <trkpt lat="45.00088" lon="-0.22641">
        <ele>63.6</ele>
        <time>2021-06-03T12:25:26.000Z</time>
      </trkpt>
      <trkpt lat="45.00093" lon="-0.22643">
        <ele>63.7</ele>
        <time>2021-06-03T12:25:27.000Z</time>
      </trkpt>
      <trkpt lat="45.00097" lon="-0.22646">
        <ele>63.7</ele>
        <time>2021-06-03T12:25:28.000Z</time>
      </trkpt>
      <trkpt lat="45.00101" lon="-0.22649">
        <ele>63.9</ele>
        <time>2021-06-03T12:25:29.000Z</time>
      </trkpt>
      <trkpt lat="45.00106" lon="-0.22652">
        <ele>64.1</ele>
        <time>2021-06-03T12:25:30.000Z</time>
      </trkpt>
      <trkpt lat="45.00111" lon="-0.22654">
        <ele>64.2</ele>
        <time>2021-06-03T12:25:31.000Z</time>
      </trkpt>
      <trkpt lat="45.00115" lon="-0.22657">
        <ele>64.2</ele>
        <time>2021-06-03T12:25:32.000Z</time>
      </trkpt>
      <trkpt lat="45.0012" lon="-0.22659">
        <ele>64.3</ele>
        <time>2021-06-03T12:25:33.000Z</time>
      </trkpt>
      <trkpt lat="45.00124" lon="-0.22662">
        <ele>64.6</ele>
        <time>2021-06-03T12:25:34.000Z</time>
      </trkpt>
      <trkpt lat="45.00129" lon="-0.22665">
        <ele>64.8</ele>
        <time>2021-06-03T12:25:35.000Z</time>
      </trkpt>
      <trkpt lat="45.00133" lon="-0.22668">
        <ele>65</ele>
        <time>2021-06-03T12:25:36.000Z</time>
      </trkpt>
      <trkpt lat="45.00137" lon="-0.2267">
        <ele>65.1</ele>
        <time>2021-06-03T12:25:37.000Z</time>
      </trkpt>
      <trkpt lat="45.00146" lon="-0.22674">
        <ele>65.4</ele>
        <time>2021-06-03T12:25:39.000Z</time>
      </trkpt>
      <trkpt lat="45.00153" lon="-0.22679">
        <ele>65.9</ele>
        <time>2021-06-03T12:25:41.000Z</time>
      </trkpt>
      <trkpt lat="45.0016" lon="-0.22683">
        <ele>66.2</ele>
        <time>2021-06-03T12:25:43.000Z</time>
      </trkpt>
      <trkpt lat="45.00168" lon="-0.22686">
        <ele>66.2</ele>
        <time>2021-06-03T12:25:45.000Z</time>
      </trkpt>
      <trkpt lat="45.00175" lon="-0.2269">
        <ele>65.9</ele>
        <time>2021-06-03T12:25:47.000Z</time>
      </trkpt>
      <trkpt lat="45.00182" lon="-0.22694">
        <ele>66</ele>
        <time>2021-06-03T12:25:49.000Z</time>
      </trkpt>
      <trkpt lat="45.0019" lon="-0.22698">
        <ele>66.1</ele>
        <time>2021-06-03T12:25:51.000Z</time>
      </trkpt>
      <trkpt lat="45.00197" lon="-0.22702">
        <ele>66</ele>
        <time>2021-06-03T12:25:53.000Z</time>
      </trkpt>
      <trkpt lat="45.00203" lon="-0.22705">
        <ele>66</ele>
        <time>2021-06-03T12:25:55.000Z</time>
      </trkpt>
      <trkpt lat="45.00209" lon="-0.22708">
        <ele>65.9</ele>
        <time>2021-06-03T12:25:57.000Z</time>
      </trkpt>
      <trkpt lat="45.00214" lon="-0.22711">
        <ele>66.3</ele>
        <time>2021-06-03T12:25:59.000Z</time>
      </trkpt>
      <trkpt lat="45.0022" lon="-0.22715">
        <ele>66.7</ele>
        <time>2021-06-03T12:26:01.000Z</time>
      </trkpt>
      <trkpt lat="45.00228" lon="-0.2272">
        <ele>67.1</ele>
        <time>2021-06-03T12:26:04.000Z</time>
      </trkpt>
      <trkpt lat="45.00235" lon="-0.22725">
        <ele>67</ele>
        <time>2021-06-03T12:26:07.000Z</time>
      </trkpt>
      <trkpt lat="45.00243" lon="-0.22726">
        <ele>67.1</ele>
        <time>2021-06-03T12:26:10.000Z</time>
      </trkpt>
      <trkpt lat="45.0025" lon="-0.22719">
        <ele>66.5</ele>
        <time>2021-06-03T12:26:13.000Z</time>
      </trkpt>
      <trkpt lat="45.00255" lon="-0.22712">
        <ele>66.3</ele>
        <time>2021-06-03T12:26:16.000Z</time>
      </trkpt>
      <trkpt lat="45.0026" lon="-0.22704">
        <ele>66.5</ele>
        <time>2021-06-03T12:26:19.000Z</time>
      </trkpt>
      <trkpt lat="45.00262" lon="-0.22702">
        <ele>66.5</ele>
        <time>2021-06-03T12:26:20.000Z</time>
      </trkpt>
      <trkpt lat="45.0027" lon="-0.22688">
        <ele>66.7</ele>
        <time>2021-06-03T12:26:26.000Z</time>
      </trkpt>
      <trkpt lat="45.00275" lon="-0.22678">
        <ele>67.5</ele>
        <time>2021-06-03T12:26:33.000Z</time>
      </trkpt>
      <trkpt lat="45.0028" lon="-0.2267">
        <ele>67.6</ele>
        <time>2021-06-03T12:26:40.000Z</time>
      </trkpt>
      <trkpt lat="45.00286" lon="-0.22662">
        <ele>67.6</ele>
        <time>2021-06-03T12:26:47.000Z</time>
      </trkpt>
      <trkpt lat="45.00291" lon="-0.22653">
        <ele>67.7</ele>
        <time>2021-06-03T12:26:53.000Z</time>
      </trkpt>
      <trkpt lat="45.00296" lon="-0.22644">
        <ele>67.8</ele>
        <time>2021-06-03T12:26:59.000Z</time>
      </trkpt>
      <trkpt lat="45.00302" lon="-0.22633">
        <ele>67</ele>
        <time>2021-06-03T12:27:06.000Z</time>
      </trkpt>
      <trkpt lat="45.00304" lon="-0.22621">
        <ele>66.3</ele>
        <time>2021-06-03T12:27:13.000Z</time>
      </trkpt>
      <trkpt lat="45.00299" lon="-0.2263">
        <ele>66.8</ele>
        <time>2021-06-03T12:29:56.000Z</time>
      </trkpt>
      <trkpt lat="45.00298" lon="-0.22631">
        <ele>66.8</ele>
        <time>2021-06-03T12:29:57.000Z</time>
      </trkpt>
      <trkpt lat="45.00289" lon="-0.2265">
        <ele>67.1</ele>
        <time>2021-06-03T12:30:16.000Z</time>
      </trkpt>
      <trkpt lat="45.00284" lon="-0.2266">
        <ele>67.2</ele>
        <time>2021-06-03T12:30:28.000Z</time>
      </trkpt>
      <trkpt lat="45.00278" lon="-0.22669">
        <ele>68.2</ele>
        <time>2021-06-03T12:30:37.000Z</time>
      </trkpt>
      <trkpt lat="45.00273" lon="-0.22678">
        <ele>67.3</ele>
        <time>2021-06-03T12:30:51.000Z</time>
      </trkpt>
      <trkpt lat="45.00267" lon="-0.22688">
        <ele>67</ele>
        <time>2021-06-03T12:31:06.000Z</time>
      </trkpt>
      <trkpt lat="45.00266" lon="-0.22689">
        <ele>66.9</ele>
        <time>2021-06-03T12:31:07.000Z</time>
      </trkpt>
      <trkpt lat="45.00256" lon="-0.22706">
        <ele>66.9</ele>
        <time>2021-06-03T12:31:16.000Z</time>
      </trkpt>
      <trkpt lat="45.00251" lon="-0.22714">
        <ele>67.5</ele>
        <time>2021-06-03T12:31:20.000Z</time>
      </trkpt>
      <trkpt lat="45.00245" lon="-0.22723">
        <ele>68.2</ele>
        <time>2021-06-03T12:31:24.000Z</time>
      </trkpt>
      <trkpt lat="45.00243" lon="-0.22735">
        <ele>66.9</ele>
        <time>2021-06-03T12:31:29.000Z</time>
      </trkpt>
      <trkpt lat="45.00249" lon="-0.22744">
        <ele>66.6</ele>
        <time>2021-06-03T12:31:33.000Z</time>
      </trkpt>
      <trkpt lat="45.00255" lon="-0.22752">
        <ele>66.2</ele>
        <time>2021-06-03T12:31:36.000Z</time>
      </trkpt>
      <trkpt lat="45.00261" lon="-0.2276">
        <ele>66.2</ele>
        <time>2021-06-03T12:31:39.000Z</time>
      </trkpt>
      <trkpt lat="45.00267" lon="-0.22767">
        <ele>65.6</ele>
        <time>2021-06-03T12:31:42.000Z</time>
      </trkpt>
      <trkpt lat="45.00275" lon="-0.22772">
        <ele>64.9</ele>
        <time>2021-06-03T12:31:46.000Z</time>
      </trkpt>
      <trkpt lat="45.00281" lon="-0.2278">
        <ele>64.9</ele>
        <time>2021-06-03T12:31:51.000Z</time>
      </trkpt>
      <trkpt lat="45.00279" lon="-0.22791">
        <ele>64.6</ele>
        <time>2021-06-03T12:31:54.000Z</time>
      </trkpt>
      <trkpt lat="45.00276" lon="-0.22799">
        <ele>64.6</ele>
        <time>2021-06-03T12:31:56.000Z</time>
      </trkpt>
      <trkpt lat="45.00273" lon="-0.22807">
        <ele>64.7</ele>
        <time>2021-06-03T12:31:58.000Z</time>
      </trkpt>
      <trkpt lat="45.00271" lon="-0.22816">
        <ele>64.4</ele>
        <time>2021-06-03T12:32:00.000Z</time>
      </trkpt>
      <trkpt lat="45.00269" lon="-0.22825">
        <ele>64.7</ele>
        <time>2021-06-03T12:32:02.000Z</time>
      </trkpt>
      <trkpt lat="45.00267" lon="-0.22833">
        <ele>65.1</ele>
        <time>2021-06-03T12:32:04.000Z</time>
      </trkpt>
      <trkpt lat="45.00265" lon="-0.22843">
        <ele>64.9</ele>
        <time>2021-06-03T12:32:06.000Z</time>
      </trkpt>
      <trkpt lat="45.00264" lon="-0.22852">
        <ele>64.8</ele>
        <time>2021-06-03T12:32:08.000Z</time>
      </trkpt>
      <trkpt lat="45.00264" lon="-0.22856">
        <ele>64.8</ele>
        <time>2021-06-03T12:32:09.000Z</time>
      </trkpt>
      <trkpt lat="45.00263" lon="-0.2287">
        <ele>65.3</ele>
        <time>2021-06-03T12:32:12.000Z</time>
      </trkpt>
      <trkpt lat="45.00262" lon="-0.2288">
        <ele>66.2</ele>
        <time>2021-06-03T12:32:14.000Z</time>
      </trkpt>
      <trkpt lat="45.00263" lon="-0.2289">
        <ele>65.5</ele>
        <time>2021-06-03T12:32:16.000Z</time>
      </trkpt>
      <trkpt lat="45.00264" lon="-0.22901">
        <ele>65.5</ele>
        <time>2021-06-03T12:32:18.000Z</time>
      </trkpt>
      <trkpt lat="45.00266" lon="-0.22911">
        <ele>65.9</ele>
        <time>2021-06-03T12:32:20.000Z</time>
      </trkpt>
      <trkpt lat="45.00269" lon="-0.22922">
        <ele>65.6</ele>
        <time>2021-06-03T12:32:22.000Z</time>
      </trkpt>
      <trkpt lat="45.00273" lon="-0.22933">
        <ele>64.8</ele>
        <time>2021-06-03T12:32:24.000Z</time>
      </trkpt>
      <trkpt lat="45.00275" lon="-0.22939">
        <ele>65.2</ele>
        <time>2021-06-03T12:32:25.000Z</time>
      </trkpt>
      <trkpt lat="45.00277" lon="-0.22944">
        <ele>65.5</ele>
        <time>2021-06-03T12:32:26.000Z</time>
      </trkpt>
      <trkpt lat="45.0028" lon="-0.2295">
        <ele>65.6</ele>
        <time>2021-06-03T12:32:27.000Z</time>
      </trkpt>
      <trkpt lat="45.00282" lon="-0.22956">
        <ele>65.7</ele>
        <time>2021-06-03T12:32:28.000Z</time>
      </trkpt>
      <trkpt lat="45.00284" lon="-0.22963">
        <ele>65.8</ele>
        <time>2021-06-03T12:32:29.000Z</time>
      </trkpt>
      <trkpt lat="45.00286" lon="-0.22969">
        <ele>65.6</ele>
        <time>2021-06-03T12:32:30.000Z</time>
      </trkpt>
      <trkpt lat="45.00288" lon="-0.22975">
        <ele>65.4</ele>
        <time>2021-06-03T12:32:31.000Z</time>
      </trkpt>
      <trkpt lat="45.0029" lon="-0.22982">
        <ele>65.2</ele>
        <time>2021-06-03T12:32:32.000Z</time>
      </trkpt>
      <trkpt lat="45.00291" lon="-0.22989">
        <ele>65.1</ele>
        <time>2021-06-03T12:32:33.000Z</time>
      </trkpt>
      <trkpt lat="45.00292" lon="-0.22996">
        <ele>65.6</ele>
        <time>2021-06-03T12:32:34.000Z</time>
      </trkpt>
      <trkpt lat="45.00292" lon="-0.23003">
        <ele>65.9</ele>
        <time>2021-06-03T12:32:35.000Z</time>
      </trkpt>
      <trkpt lat="45.00291" lon="-0.2301">
        <ele>66.2</ele>
        <time>2021-06-03T12:32:36.000Z</time>
      </trkpt>
      <trkpt lat="45.0029" lon="-0.23017">
        <ele>65.7</ele>
        <time>2021-06-03T12:32:37.000Z</time>
      </trkpt>
      <trkpt lat="45.00288" lon="-0.23024">
        <ele>65.4</ele>
        <time>2021-06-03T12:32:38.000Z</time>
      </trkpt>
      <trkpt lat="45.00286" lon="-0.2303">
        <ele>65.5</ele>
        <time>2021-06-03T12:32:39.000Z</time>
      </trkpt>
      <trkpt lat="45.00284" lon="-0.23037">
        <ele>65.7</ele>
        <time>2021-06-03T12:32:40.000Z</time>
      </trkpt>
      <trkpt lat="45.00283" lon="-0.23043">
        <ele>65.6</ele>
        <time>2021-06-03T12:32:41.000Z</time>
      </trkpt>
      <trkpt lat="45.00281" lon="-0.23049">
        <ele>65.6</ele>
        <time>2021-06-03T12:32:42.000Z</time>
      </trkpt>
      <trkpt lat="45.00278" lon="-0.23055">
        <ele>65.5</ele>
        <time>2021-06-03T12:32:43.000Z</time>
      </trkpt>
      <trkpt lat="45.00276" lon="-0.23061">
        <ele>65.4</ele>
        <time>2021-06-03T12:32:44.000Z</time>
      </trkpt>
      <trkpt lat="45.00274" lon="-0.23067">
        <ele>65.4</ele>
        <time>2021-06-03T12:32:45.000Z</time>
      </trkpt>
      <trkpt lat="45.00271" lon="-0.23072">
        <ele>65.1</ele>
        <time>2021-06-03T12:32:46.000Z</time>
      </trkpt>
      <trkpt lat="45.00269" lon="-0.23078">
        <ele>65</ele>
        <time>2021-06-03T12:32:47.000Z</time>
      </trkpt>
      <trkpt lat="45.00264" lon="-0.23089">
        <ele>64.6</ele>
        <time>2021-06-03T12:32:49.000Z</time>
      </trkpt>
      <trkpt lat="45.0026" lon="-0.231">
        <ele>64.6</ele>
        <time>2021-06-03T12:32:51.000Z</time>
      </trkpt>
      <trkpt lat="45.00259" lon="-0.23106">
        <ele>64.7</ele>
        <time>2021-06-03T12:32:52.000Z</time>
      </trkpt>
      <trkpt lat="45.00257" lon="-0.23112">
        <ele>64.7</ele>
        <time>2021-06-03T12:32:53.000Z</time>
      </trkpt>
      <trkpt lat="45.00255" lon="-0.23118">
        <ele>64.6</ele>
        <time>2021-06-03T12:32:54.000Z</time>
      </trkpt>
      <trkpt lat="45.00253" lon="-0.23124">
        <ele>64.6</ele>
        <time>2021-06-03T12:32:55.000Z</time>
      </trkpt>
      <trkpt lat="45.00251" lon="-0.23131">
        <ele>64.6</ele>
        <time>2021-06-03T12:32:56.000Z</time>
      </trkpt>
      <trkpt lat="45.00249" lon="-0.23137">
        <ele>64.6</ele>
        <time>2021-06-03T12:32:57.000Z</time>
      </trkpt>
      <trkpt lat="45.00247" lon="-0.23144">
        <ele>64.9</ele>
        <time>2021-06-03T12:32:58.000Z</time>
      </trkpt>
      <trkpt lat="45.00246" lon="-0.2315">
        <ele>65.1</ele>
        <time>2021-06-03T12:32:59.000Z</time>
      </trkpt>
      <trkpt lat="45.00244" lon="-0.23157">
        <ele>65</ele>
        <time>2021-06-03T12:33:00.000Z</time>
      </trkpt>
      <trkpt lat="45.00242" lon="-0.23164">
        <ele>65</ele>
        <time>2021-06-03T12:33:01.000Z</time>
      </trkpt>
      <trkpt lat="45.0024" lon="-0.23171">
        <ele>64.9</ele>
        <time>2021-06-03T12:33:02.000Z</time>
      </trkpt>
      <trkpt lat="45.00238" lon="-0.23178">
        <ele>65</ele>
        <time>2021-06-03T12:33:03.000Z</time>
      </trkpt>
      <trkpt lat="45.00236" lon="-0.23185">
        <ele>65.1</ele>
        <time>2021-06-03T12:33:04.000Z</time>
      </trkpt>
      <trkpt lat="45.00234" lon="-0.23192">
        <ele>65.2</ele>
        <time>2021-06-03T12:33:05.000Z</time>
      </trkpt>
      <trkpt lat="45.00232" lon="-0.23198">
        <ele>65.3</ele>
        <time>2021-06-03T12:33:06.000Z</time>
      </trkpt>
      <trkpt lat="45.00231" lon="-0.23205">
        <ele>65.4</ele>
        <time>2021-06-03T12:33:07.000Z</time>
      </trkpt>
      <trkpt lat="45.00229" lon="-0.23211">
        <ele>65.1</ele>
        <time>2021-06-03T12:33:08.000Z</time>
      </trkpt>
      <trkpt lat="45.00227" lon="-0.23217">
        <ele>64.9</ele>
        <time>2021-06-03T12:33:09.000Z</time>
      </trkpt>
      <trkpt lat="45.00226" lon="-0.23223">
        <ele>64.8</ele>
        <time>2021-06-03T12:33:10.000Z</time>
      </trkpt>
      <trkpt lat="45.00221" lon="-0.2324">
        <ele>65.1</ele>
        <time>2021-06-03T12:33:13.000Z</time>
      </trkpt>
      <trkpt lat="45.00218" lon="-0.23251">
        <ele>65</ele>
        <time>2021-06-03T12:33:15.000Z</time>
      </trkpt>
      <trkpt lat="45.00215" lon="-0.23262">
        <ele>65</ele>
        <time>2021-06-03T12:33:17.000Z</time>
      </trkpt>
      <trkpt lat="45.00212" lon="-0.23272">
        <ele>64.8</ele>
        <time>2021-06-03T12:33:19.000Z</time>
      </trkpt>
      <trkpt lat="45.00209" lon="-0.23284">
        <ele>64.3</ele>
        <time>2021-06-03T12:33:21.000Z</time>
      </trkpt>
      <trkpt lat="45.00207" lon="-0.2329">
        <ele>64.5</ele>
        <time>2021-06-03T12:33:22.000Z</time>
      </trkpt>
      <trkpt lat="45.00206" lon="-0.23296">
        <ele>64.6</ele>
        <time>2021-06-03T12:33:23.000Z</time>
      </trkpt>
      <trkpt lat="45.00204" lon="-0.23302">
        <ele>64.1</ele>
        <time>2021-06-03T12:33:24.000Z</time>
      </trkpt>
      <trkpt lat="45.00203" lon="-0.23308">
        <ele>63.7</ele>
        <time>2021-06-03T12:33:25.000Z</time>
      </trkpt>
      <trkpt lat="45.00201" lon="-0.23315">
        <ele>63.4</ele>
        <time>2021-06-03T12:33:26.000Z</time>
      </trkpt>
      <trkpt lat="45.002" lon="-0.23321">
        <ele>63.1</ele>
        <time>2021-06-03T12:33:27.000Z</time>
      </trkpt>
      <trkpt lat="45.00198" lon="-0.23328">
        <ele>63</ele>
        <time>2021-06-03T12:33:28.000Z</time>
      </trkpt>
      <trkpt lat="45.00196" lon="-0.23334">
        <ele>63.4</ele>
        <time>2021-06-03T12:33:29.000Z</time>
      </trkpt>
      <trkpt lat="45.00195" lon="-0.23341">
        <ele>63.7</ele>
        <time>2021-06-03T12:33:30.000Z</time>
      </trkpt>
      <trkpt lat="45.00193" lon="-0.23347">
        <ele>63.5</ele>
        <time>2021-06-03T12:33:31.000Z</time>
      </trkpt>
      <trkpt lat="45.00192" lon="-0.23354">
        <ele>63.4</ele>
        <time>2021-06-03T12:33:32.000Z</time>
      </trkpt>
      <trkpt lat="45.0019" lon="-0.23361">
        <ele>63.4</ele>
        <time>2021-06-03T12:33:33.000Z</time>
      </trkpt>
      <trkpt lat="45.00189" lon="-0.23368">
        <ele>63.3</ele>
        <time>2021-06-03T12:33:34.000Z</time>
      </trkpt>
      <trkpt lat="45.00187" lon="-0.23375">
        <ele>63.3</ele>
        <time>2021-06-03T12:33:35.000Z</time>
      </trkpt>
      <trkpt lat="45.00186" lon="-0.23383">
        <ele>63.1</ele>
        <time>2021-06-03T12:33:36.000Z</time>
      </trkpt>
      <trkpt lat="45.00184" lon="-0.2339">
        <ele>62.9</ele>
        <time>2021-06-03T12:33:37.000Z</time>
      </trkpt>
      <trkpt lat="45.00183" lon="-0.23397">
        <ele>62.3</ele>
        <time>2021-06-03T12:33:38.000Z</time>
      </trkpt>
      <trkpt lat="45.00182" lon="-0.23405">
        <ele>61.8</ele>
        <time>2021-06-03T12:33:39.000Z</time>
      </trkpt>
      <trkpt lat="45.00181" lon="-0.23411">
        <ele>61.5</ele>
        <time>2021-06-03T12:33:40.000Z</time>
      </trkpt>
      <trkpt lat="45.0018" lon="-0.23418">
        <ele>61.5</ele>
        <time>2021-06-03T12:33:41.000Z</time>
      </trkpt>
      <trkpt lat="45.00179" lon="-0.23424">
        <ele>61.5</ele>
        <time>2021-06-03T12:33:42.000Z</time>
      </trkpt>
      <trkpt lat="45.00178" lon="-0.23431">
        <ele>61.4</ele>
        <time>2021-06-03T12:33:43.000Z</time>
      </trkpt>
      <trkpt lat="45.00177" lon="-0.23437">
        <ele>61.4</ele>
        <time>2021-06-03T12:33:44.000Z</time>
      </trkpt>
      <trkpt lat="45.00176" lon="-0.23444">
        <ele>60.9</ele>
        <time>2021-06-03T12:33:45.000Z</time>
      </trkpt>
      <trkpt lat="45.00175" lon="-0.2345">
        <ele>60.5</ele>
        <time>2021-06-03T12:33:46.000Z</time>
      </trkpt>
      <trkpt lat="45.00174" lon="-0.23457">
        <ele>60.2</ele>
        <time>2021-06-03T12:33:47.000Z</time>
      </trkpt>
      <trkpt lat="45.00173" lon="-0.23463">
        <ele>60.8</ele>
        <time>2021-06-03T12:33:48.000Z</time>
      </trkpt>
      <trkpt lat="45.00172" lon="-0.2347">
        <ele>61.2</ele>
        <time>2021-06-03T12:33:49.000Z</time>
      </trkpt>
      <trkpt lat="45.00171" lon="-0.23477">
        <ele>61.3</ele>
        <time>2021-06-03T12:33:50.000Z</time>
      </trkpt>
      <trkpt lat="45.0017" lon="-0.23484">
        <ele>61.4</ele>
        <time>2021-06-03T12:33:51.000Z</time>
      </trkpt>
      <trkpt lat="45.00168" lon="-0.23491">
        <ele>61.4</ele>
        <time>2021-06-03T12:33:52.000Z</time>
      </trkpt>
      <trkpt lat="45.00167" lon="-0.23498">
        <ele>61.1</ele>
        <time>2021-06-03T12:33:53.000Z</time>
      </trkpt>
      <trkpt lat="45.00166" lon="-0.23505">
        <ele>60.9</ele>
        <time>2021-06-03T12:33:54.000Z</time>
      </trkpt>
      <trkpt lat="45.00164" lon="-0.23512">
        <ele>60.7</ele>
        <time>2021-06-03T12:33:55.000Z</time>
      </trkpt>
      <trkpt lat="45.00163" lon="-0.23519">
        <ele>60.6</ele>
        <time>2021-06-03T12:33:56.000Z</time>
      </trkpt>
      <trkpt lat="45.00161" lon="-0.23526">
        <ele>60.7</ele>
        <time>2021-06-03T12:33:57.000Z</time>
      </trkpt>
      <trkpt lat="45.0016" lon="-0.23533">
        <ele>60.7</ele>
        <time>2021-06-03T12:33:58.000Z</time>
      </trkpt>
      <trkpt lat="45.00158" lon="-0.23541">
        <ele>60.7</ele>
        <time>2021-06-03T12:33:59.000Z</time>
      </trkpt>
      <trkpt lat="45.00157" lon="-0.23548">
        <ele>60.3</ele>
        <time>2021-06-03T12:34:00.000Z</time>
      </trkpt>
      <trkpt lat="45.00155" lon="-0.23555">
        <ele>60.1</ele>
        <time>2021-06-03T12:34:01.000Z</time>
      </trkpt>
      <trkpt lat="45.00154" lon="-0.23562">
        <ele>59.9</ele>
        <time>2021-06-03T12:34:02.000Z</time>
      </trkpt>
      <trkpt lat="45.00152" lon="-0.2357">
        <ele>59.8</ele>
        <time>2021-06-03T12:34:03.000Z</time>
      </trkpt>
      <trkpt lat="45.00151" lon="-0.23577">
        <ele>59.8</ele>
        <time>2021-06-03T12:34:04.000Z</time>
      </trkpt>
      <trkpt lat="45.00149" lon="-0.23585">
        <ele>59.7</ele>
        <time>2021-06-03T12:34:05.000Z</time>
      </trkpt>
      <trkpt lat="45.00148" lon="-0.23593">
        <ele>59.7</ele>
        <time>2021-06-03T12:34:06.000Z</time>
      </trkpt>
      <trkpt lat="45.00146" lon="-0.236">
        <ele>59.8</ele>
        <time>2021-06-03T12:34:07.000Z</time>
      </trkpt>
      <trkpt lat="45.00144" lon="-0.23608">
        <ele>59.8</ele>
        <time>2021-06-03T12:34:08.000Z</time>
      </trkpt>
      <trkpt lat="45.00142" lon="-0.23616">
        <ele>59.5</ele>
        <time>2021-06-03T12:34:09.000Z</time>
      </trkpt>
      <trkpt lat="45.00139" lon="-0.23623">
        <ele>59.3</ele>
        <time>2021-06-03T12:34:10.000Z</time>
      </trkpt>
      <trkpt lat="45.00137" lon="-0.23631">
        <ele>59.1</ele>
        <time>2021-06-03T12:34:11.000Z</time>
      </trkpt>
      <trkpt lat="45.00136" lon="-0.23637">
        <ele>59</ele>
        <time>2021-06-03T12:34:12.000Z</time>
      </trkpt>
      <trkpt lat="45.00134" lon="-0.23644">
        <ele>58.9</ele>
        <time>2021-06-03T12:34:13.000Z</time>
      </trkpt>
      <trkpt lat="45.00132" lon="-0.2365">
        <ele>59</ele>
        <time>2021-06-03T12:34:14.000Z</time>
      </trkpt>
      <trkpt lat="45.0013" lon="-0.23656">
        <ele>59</ele>
        <time>2021-06-03T12:34:15.000Z</time>
      </trkpt>
      <trkpt lat="45.00128" lon="-0.23662">
        <ele>58.4</ele>
        <time>2021-06-03T12:34:16.000Z</time>
      </trkpt>
      <trkpt lat="45.00125" lon="-0.23669">
        <ele>58</ele>
        <time>2021-06-03T12:34:17.000Z</time>
      </trkpt>
      <trkpt lat="45.00121" lon="-0.23675">
        <ele>57.6</ele>
        <time>2021-06-03T12:34:18.000Z</time>
      </trkpt>
      <trkpt lat="45.00118" lon="-0.23682">
        <ele>57.5</ele>
        <time>2021-06-03T12:34:19.000Z</time>
      </trkpt>
      <trkpt lat="45.00114" lon="-0.23688">
        <ele>57.4</ele>
        <time>2021-06-03T12:34:20.000Z</time>
      </trkpt>
      <trkpt lat="45.00111" lon="-0.23695">
        <ele>57.4</ele>
        <time>2021-06-03T12:34:21.000Z</time>
      </trkpt>
      <trkpt lat="45.00107" lon="-0.23702">
        <ele>57.4</ele>
        <time>2021-06-03T12:34:22.000Z</time>
      </trkpt>
      <trkpt lat="45.00104" lon="-0.23708">
        <ele>57.4</ele>
        <time>2021-06-03T12:34:23.000Z</time>
      </trkpt>
      <trkpt lat="45.001" lon="-0.23714">
        <ele>57.4</ele>
        <time>2021-06-03T12:34:24.000Z</time>
      </trkpt>
      <trkpt lat="45.00097" lon="-0.23719">
        <ele>57.5</ele>
        <time>2021-06-03T12:34:25.000Z</time>
      </trkpt>
      <trkpt lat="45.00093" lon="-0.23725">
        <ele>57.9</ele>
        <time>2021-06-03T12:34:26.000Z</time>
      </trkpt>
      <trkpt lat="45.00089" lon="-0.2373">
        <ele>58.2</ele>
        <time>2021-06-03T12:34:27.000Z</time>
      </trkpt>
      <trkpt lat="45.00086" lon="-0.23736">
        <ele>57.9</ele>
        <time>2021-06-03T12:34:28.000Z</time>
      </trkpt>
      <trkpt lat="45.00082" lon="-0.23741">
        <ele>57.6</ele>
        <time>2021-06-03T12:34:29.000Z</time>
      </trkpt>
      <trkpt lat="45.00078" lon="-0.23747">
        <ele>57.4</ele>
        <time>2021-06-03T12:34:30.000Z</time>
      </trkpt>
      <trkpt lat="45.00074" lon="-0.23752">
        <ele>57</ele>
        <time>2021-06-03T12:34:31.000Z</time>
      </trkpt>
      <trkpt lat="45.0007" lon="-0.23757">
        <ele>56.7</ele>
        <time>2021-06-03T12:34:32.000Z</time>
      </trkpt>
      <trkpt lat="45.00066" lon="-0.23762">
        <ele>57.1</ele>
        <time>2021-06-03T12:34:33.000Z</time>
      </trkpt>
      <trkpt lat="45.00062" lon="-0.23766">
        <ele>57.4</ele>
        <time>2021-06-03T12:34:34.000Z</time>
      </trkpt>
      <trkpt lat="45.00058" lon="-0.23772">
        <ele>57.1</ele>
        <time>2021-06-03T12:34:35.000Z</time>
      </trkpt>
      <trkpt lat="45.00054" lon="-0.23777">
        <ele>56.8</ele>
        <time>2021-06-03T12:34:36.000Z</time>
      </trkpt>
      <trkpt lat="45.0005" lon="-0.23781">
        <ele>56.7</ele>
        <time>2021-06-03T12:34:37.000Z</time>
      </trkpt>
      <trkpt lat="45.00046" lon="-0.23786">
        <ele>56.7</ele>
        <time>2021-06-03T12:34:38.000Z</time>
      </trkpt>
      <trkpt lat="45.00042" lon="-0.23791">
        <ele>56.7</ele>
        <time>2021-06-03T12:34:39.000Z</time>
      </trkpt>
      <trkpt lat="45.00038" lon="-0.23795">
        <ele>56.7</ele>
        <time>2021-06-03T12:34:40.000Z</time>
      </trkpt>
      <trkpt lat="45.00035" lon="-0.238">
        <ele>56.6</ele>
        <time>2021-06-03T12:34:41.000Z</time>
      </trkpt>
      <trkpt lat="45.00031" lon="-0.23804">
        <ele>56.5</ele>
        <time>2021-06-03T12:34:42.000Z</time>
      </trkpt>
      <trkpt lat="45.00027" lon="-0.23808">
        <ele>56.5</ele>
        <time>2021-06-03T12:34:43.000Z</time>
      </trkpt>
      <trkpt lat="45.00023" lon="-0.23812">
        <ele>56.4</ele>
        <time>2021-06-03T12:34:44.000Z</time>
      </trkpt>
      <trkpt lat="45.00018" lon="-0.23816">
        <ele>56.4</ele>
        <time>2021-06-03T12:34:45.000Z</time>
      </trkpt>
      <trkpt lat="45.00014" lon="-0.2382">
        <ele>56.3</ele>
        <time>2021-06-03T12:34:46.000Z</time>
      </trkpt>
      <trkpt lat="45.00009" lon="-0.23824">
        <ele>56.1</ele>
        <time>2021-06-03T12:34:47.000Z</time>
      </trkpt>
      <trkpt lat="45.00005" lon="-0.23827">
        <ele>56</ele>
        <time>2021-06-03T12:34:48.000Z</time>
      </trkpt>
      <trkpt lat="45" lon="-0.23831">
        <ele>55.8</ele>
        <time>2021-06-03T12:34:49.000Z</time>
      </trkpt>
      <trkpt lat="44.99995" lon="-0.23834">
        <ele>55.8</ele>
        <time>2021-06-03T12:34:50.000Z</time>
      </trkpt>
      <trkpt lat="44.9999" lon="-0.23837">
        <ele>55.8</ele>
        <time>2021-06-03T12:34:51.000Z</time>
      </trkpt>
      <trkpt lat="44.99985" lon="-0.23839">
        <ele>55.9</ele>
        <time>2021-06-03T12:34:52.000Z</time>
      </trkpt>
      <trkpt lat="44.9998" lon="-0.23842">
        <ele>56</ele>
        <time>2021-06-03T12:34:53.000Z</time>
      </trkpt>
      <trkpt lat="44.99975" lon="-0.23845">
        <ele>55.8</ele>
        <time>2021-06-03T12:34:54.000Z</time>
      </trkpt>
      <trkpt lat="44.9997" lon="-0.23848">
        <ele>55.6</ele>
        <time>2021-06-03T12:34:55.000Z</time>
      </trkpt>
      <trkpt lat="44.99965" lon="-0.23851">
        <ele>55.5</ele>
        <time>2021-06-03T12:34:56.000Z</time>
      </trkpt>
      <trkpt lat="44.9996" lon="-0.23854">
        <ele>54.9</ele>
        <time>2021-06-03T12:34:57.000Z</time>
      </trkpt>
      <trkpt lat="44.99954" lon="-0.23857">
        <ele>54.5</ele>
        <time>2021-06-03T12:34:58.000Z</time>
      </trkpt>
      <trkpt lat="44.99949" lon="-0.23859">
        <ele>54.1</ele>
        <time>2021-06-03T12:34:59.000Z</time>
      </trkpt>
      <trkpt lat="44.99944" lon="-0.23862">
        <ele>53.9</ele>
        <time>2021-06-03T12:35:00.000Z</time>
      </trkpt>
      <trkpt lat="44.99939" lon="-0.23865">
        <ele>53.6</ele>
        <time>2021-06-03T12:35:01.000Z</time>
      </trkpt>
      <trkpt lat="44.99934" lon="-0.23867">
        <ele>53.4</ele>
        <time>2021-06-03T12:35:02.000Z</time>
      </trkpt>
      <trkpt lat="44.99929" lon="-0.2387">
        <ele>53.3</ele>
        <time>2021-06-03T12:35:03.000Z</time>
      </trkpt>
      <trkpt lat="44.99924" lon="-0.23872">
        <ele>53.2</ele>
        <time>2021-06-03T12:35:04.000Z</time>
      </trkpt>
      <trkpt lat="44.99919" lon="-0.23875">
        <ele>53.1</ele>
        <time>2021-06-03T12:35:05.000Z</time>
      </trkpt>
      <trkpt lat="44.99914" lon="-0.23877">
        <ele>53.2</ele>
        <time>2021-06-03T12:35:06.000Z</time>
      </trkpt>
      <trkpt lat="44.99909" lon="-0.2388">
        <ele>53.3</ele>
        <time>2021-06-03T12:35:07.000Z</time>
      </trkpt>
      <trkpt lat="44.99905" lon="-0.23882">
        <ele>53.5</ele>
        <time>2021-06-03T12:35:08.000Z</time>
      </trkpt>
      <trkpt lat="44.999" lon="-0.23885">
        <ele>53.6</ele>
        <time>2021-06-03T12:35:09.000Z</time>
      </trkpt>
      <trkpt lat="44.99896" lon="-0.23887">
        <ele>53.7</ele>
        <time>2021-06-03T12:35:10.000Z</time>
      </trkpt>
      <trkpt lat="44.99891" lon="-0.2389">
        <ele>53.6</ele>
        <time>2021-06-03T12:35:11.000Z</time>
      </trkpt>
      <trkpt lat="44.99887" lon="-0.23893">
        <ele>53.5</ele>
        <time>2021-06-03T12:35:12.000Z</time>
      </trkpt>
      <trkpt lat="44.99883" lon="-0.23896">
        <ele>53.6</ele>
        <time>2021-06-03T12:35:13.000Z</time>
      </trkpt>
      <trkpt lat="44.99874" lon="-0.23908">
        <ele>53.4</ele>
        <time>2021-06-03T12:35:16.000Z</time>
      </trkpt>
      <trkpt lat="44.99871" lon="-0.2392">
        <ele>53.1</ele>
        <time>2021-06-03T12:35:18.000Z</time>
      </trkpt>
      <trkpt lat="44.99871" lon="-0.23926">
        <ele>53</ele>
        <time>2021-06-03T12:35:19.000Z</time>
      </trkpt>
      <trkpt lat="44.99871" lon="-0.23933">
        <ele>53.2</ele>
        <time>2021-06-03T12:35:20.000Z</time>
      </trkpt>
      <trkpt lat="44.9987" lon="-0.2394">
        <ele>53.3</ele>
        <time>2021-06-03T12:35:21.000Z</time>
      </trkpt>
      <trkpt lat="44.9987" lon="-0.23946">
        <ele>53.4</ele>
        <time>2021-06-03T12:35:22.000Z</time>
      </trkpt>
      <trkpt lat="44.99871" lon="-0.23953">
        <ele>53.4</ele>
        <time>2021-06-03T12:35:23.000Z</time>
      </trkpt>
      <trkpt lat="44.99871" lon="-0.2396">
        <ele>53.4</ele>
        <time>2021-06-03T12:35:24.000Z</time>
      </trkpt>
      <trkpt lat="44.99872" lon="-0.23967">
        <ele>53.4</ele>
        <time>2021-06-03T12:35:25.000Z</time>
      </trkpt>
      <trkpt lat="44.99873" lon="-0.23974">
        <ele>53.5</ele>
        <time>2021-06-03T12:35:26.000Z</time>
      </trkpt>
      <trkpt lat="44.99873" lon="-0.23981">
        <ele>53.5</ele>
        <time>2021-06-03T12:35:27.000Z</time>
      </trkpt>
      <trkpt lat="44.99874" lon="-0.23987">
        <ele>53.7</ele>
        <time>2021-06-03T12:35:28.000Z</time>
      </trkpt>
      <trkpt lat="44.99874" lon="-0.23994">
        <ele>54</ele>
        <time>2021-06-03T12:35:29.000Z</time>
      </trkpt>
      <trkpt lat="44.99874" lon="-0.24001">
        <ele>53.8</ele>
        <time>2021-06-03T12:35:30.000Z</time>
      </trkpt>
      <trkpt lat="44.99875" lon="-0.24008">
        <ele>53.6</ele>
        <time>2021-06-03T12:35:31.000Z</time>
      </trkpt>
      <trkpt lat="44.99875" lon="-0.24015">
        <ele>53.6</ele>
        <time>2021-06-03T12:35:32.000Z</time>
      </trkpt>
      <trkpt lat="44.99874" lon="-0.24022">
        <ele>53.6</ele>
        <time>2021-06-03T12:35:33.000Z</time>
      </trkpt>
      <trkpt lat="44.99874" lon="-0.24028">
        <ele>53.6</ele>
        <time>2021-06-03T12:35:34.000Z</time>
      </trkpt>
      <trkpt lat="44.99874" lon="-0.24035">
        <ele>53.5</ele>
        <time>2021-06-03T12:35:35.000Z</time>
      </trkpt>
      <trkpt lat="44.99874" lon="-0.24042">
        <ele>53.4</ele>
        <time>2021-06-03T12:35:36.000Z</time>
      </trkpt>
      <trkpt lat="44.99873" lon="-0.24049">
        <ele>53.3</ele>
        <time>2021-06-03T12:35:37.000Z</time>
      </trkpt>
      <trkpt lat="44.99872" lon="-0.24061">
        <ele>53.5</ele>
        <time>2021-06-03T12:35:39.000Z</time>
      </trkpt>
      <trkpt lat="44.99872" lon="-0.24073">
        <ele>53.8</ele>
        <time>2021-06-03T12:35:41.000Z</time>
      </trkpt>
      <trkpt lat="44.99871" lon="-0.24079">
        <ele>53.8</ele>
        <time>2021-06-03T12:35:42.000Z</time>
      </trkpt>
      <trkpt lat="44.9987" lon="-0.24086">
        <ele>53.7</ele>
        <time>2021-06-03T12:35:43.000Z</time>
      </trkpt>
      <trkpt lat="44.99869" lon="-0.24092">
        <ele>53.5</ele>
        <time>2021-06-03T12:35:44.000Z</time>
      </trkpt>
      <trkpt lat="44.99869" lon="-0.24099">
        <ele>53.4</ele>
        <time>2021-06-03T12:35:45.000Z</time>
      </trkpt>
      <trkpt lat="44.99868" lon="-0.24106">
        <ele>53.2</ele>
        <time>2021-06-03T12:35:46.000Z</time>
      </trkpt>
      <trkpt lat="44.99867" lon="-0.24113">
        <ele>53.5</ele>
        <time>2021-06-03T12:35:47.000Z</time>
      </trkpt>
      <trkpt lat="44.99866" lon="-0.2412">
        <ele>53.7</ele>
        <time>2021-06-03T12:35:48.000Z</time>
      </trkpt>
      <trkpt lat="44.99865" lon="-0.24127">
        <ele>53.6</ele>
        <time>2021-06-03T12:35:49.000Z</time>
      </trkpt>
      <trkpt lat="44.99864" lon="-0.24134">
        <ele>53.6</ele>
        <time>2021-06-03T12:35:50.000Z</time>
      </trkpt>
      <trkpt lat="44.99863" lon="-0.24141">
        <ele>53.4</ele>
        <time>2021-06-03T12:35:51.000Z</time>
      </trkpt>
      <trkpt lat="44.99862" lon="-0.24149">
        <ele>53.2</ele>
        <time>2021-06-03T12:35:52.000Z</time>
      </trkpt>
      <trkpt lat="44.99861" lon="-0.24156">
        <ele>53.1</ele>
        <time>2021-06-03T12:35:53.000Z</time>
      </trkpt>
      <trkpt lat="44.9986" lon="-0.24163">
        <ele>53</ele>
        <time>2021-06-03T12:35:54.000Z</time>
      </trkpt>
      <trkpt lat="44.99859" lon="-0.2417">
        <ele>52.9</ele>
        <time>2021-06-03T12:35:55.000Z</time>
      </trkpt>
      <trkpt lat="44.99859" lon="-0.24177">
        <ele>52.9</ele>
        <time>2021-06-03T12:35:56.000Z</time>
      </trkpt>
      <trkpt lat="44.99858" lon="-0.24184">
        <ele>52.9</ele>
        <time>2021-06-03T12:35:57.000Z</time>
      </trkpt>
      <trkpt lat="44.99857" lon="-0.24191">
        <ele>53.1</ele>
        <time>2021-06-03T12:35:58.000Z</time>
      </trkpt>
      <trkpt lat="44.99856" lon="-0.24198">
        <ele>53.2</ele>
        <time>2021-06-03T12:35:59.000Z</time>
      </trkpt>
      <trkpt lat="44.99855" lon="-0.24205">
        <ele>53.3</ele>
        <time>2021-06-03T12:36:00.000Z</time>
      </trkpt>
      <trkpt lat="44.99854" lon="-0.24213">
        <ele>53.6</ele>
        <time>2021-06-03T12:36:01.000Z</time>
      </trkpt>
      <trkpt lat="44.99853" lon="-0.2422">
        <ele>53.7</ele>
        <time>2021-06-03T12:36:02.000Z</time>
      </trkpt>
      <trkpt lat="44.99853" lon="-0.24226">
        <ele>53.7</ele>
        <time>2021-06-03T12:36:03.000Z</time>
      </trkpt>
      <trkpt lat="44.99852" lon="-0.24233">
        <ele>53.7</ele>
        <time>2021-06-03T12:36:04.000Z</time>
      </trkpt>
      <trkpt lat="44.99851" lon="-0.2424">
        <ele>53.4</ele>
        <time>2021-06-03T12:36:05.000Z</time>
      </trkpt>
      <trkpt lat="44.9985" lon="-0.24247">
        <ele>53.3</ele>
        <time>2021-06-03T12:36:06.000Z</time>
      </trkpt>
      <trkpt lat="44.9985" lon="-0.24254">
        <ele>53.1</ele>
        <time>2021-06-03T12:36:07.000Z</time>
      </trkpt>
      <trkpt lat="44.99849" lon="-0.24261">
        <ele>53.1</ele>
        <time>2021-06-03T12:36:08.000Z</time>
      </trkpt>
      <trkpt lat="44.99848" lon="-0.24268">
        <ele>53.2</ele>
        <time>2021-06-03T12:36:09.000Z</time>
      </trkpt>
      <trkpt lat="44.99848" lon="-0.24275">
        <ele>53</ele>
        <time>2021-06-03T12:36:10.000Z</time>
      </trkpt>
      <trkpt lat="44.99847" lon="-0.24282">
        <ele>52.8</ele>
        <time>2021-06-03T12:36:11.000Z</time>
      </trkpt>
      <trkpt lat="44.99847" lon="-0.24294">
        <ele>52.7</ele>
        <time>2021-06-03T12:36:13.000Z</time>
      </trkpt>
      <trkpt lat="44.99847" lon="-0.243">
        <ele>52.6</ele>
        <time>2021-06-03T12:36:14.000Z</time>
      </trkpt>
      <trkpt lat="44.99847" lon="-0.24314">
        <ele>52.6</ele>
        <time>2021-06-03T12:36:16.000Z</time>
      </trkpt>
      <trkpt lat="44.99846" lon="-0.24321">
        <ele>52.7</ele>
        <time>2021-06-03T12:36:17.000Z</time>
      </trkpt>
      <trkpt lat="44.99846" lon="-0.24328">
        <ele>52.8</ele>
        <time>2021-06-03T12:36:18.000Z</time>
      </trkpt>
      <trkpt lat="44.99846" lon="-0.24335">
        <ele>52.9</ele>
        <time>2021-06-03T12:36:19.000Z</time>
      </trkpt>
      <trkpt lat="44.99846" lon="-0.24343">
        <ele>52.6</ele>
        <time>2021-06-03T12:36:20.000Z</time>
      </trkpt>
      <trkpt lat="44.99846" lon="-0.2435">
        <ele>52.4</ele>
        <time>2021-06-03T12:36:21.000Z</time>
      </trkpt>
      <trkpt lat="44.99846" lon="-0.24357">
        <ele>52</ele>
        <time>2021-06-03T12:36:22.000Z</time>
      </trkpt>
      <trkpt lat="44.99846" lon="-0.24363">
        <ele>51.7</ele>
        <time>2021-06-03T12:36:23.000Z</time>
      </trkpt>
      <trkpt lat="44.99846" lon="-0.2437">
        <ele>51.6</ele>
        <time>2021-06-03T12:36:24.000Z</time>
      </trkpt>
      <trkpt lat="44.99846" lon="-0.24377">
        <ele>51.5</ele>
        <time>2021-06-03T12:36:25.000Z</time>
      </trkpt>
      <trkpt lat="44.99846" lon="-0.24384">
        <ele>51.5</ele>
        <time>2021-06-03T12:36:26.000Z</time>
      </trkpt>
      <trkpt lat="44.99846" lon="-0.2439">
        <ele>51.6</ele>
        <time>2021-06-03T12:36:27.000Z</time>
      </trkpt>
      <trkpt lat="44.99846" lon="-0.24397">
        <ele>51.7</ele>
        <time>2021-06-03T12:36:28.000Z</time>
      </trkpt>
      <trkpt lat="44.99846" lon="-0.24404">
        <ele>51.8</ele>
        <time>2021-06-03T12:36:29.000Z</time>
      </trkpt>
      <trkpt lat="44.99846" lon="-0.24411">
        <ele>51.8</ele>
        <time>2021-06-03T12:36:30.000Z</time>
      </trkpt>
      <trkpt lat="44.99846" lon="-0.24418">
        <ele>51.8</ele>
        <time>2021-06-03T12:36:31.000Z</time>
      </trkpt>
      <trkpt lat="44.99846" lon="-0.24424">
        <ele>51.6</ele>
        <time>2021-06-03T12:36:32.000Z</time>
      </trkpt>
      <trkpt lat="44.99846" lon="-0.24431">
        <ele>51.4</ele>
        <time>2021-06-03T12:36:33.000Z</time>
      </trkpt>
      <trkpt lat="44.99847" lon="-0.24438">
        <ele>51.7</ele>
        <time>2021-06-03T12:36:34.000Z</time>
      </trkpt>
      <trkpt lat="44.99847" lon="-0.24445">
        <ele>51.9</ele>
        <time>2021-06-03T12:36:35.000Z</time>
      </trkpt>
      <trkpt lat="44.99847" lon="-0.24452">
        <ele>51.7</ele>
        <time>2021-06-03T12:36:36.000Z</time>
      </trkpt>
      <trkpt lat="44.99847" lon="-0.24458">
        <ele>51.5</ele>
        <time>2021-06-03T12:36:37.000Z</time>
      </trkpt>
      <trkpt lat="44.99847" lon="-0.24465">
        <ele>51.4</ele>
        <time>2021-06-03T12:36:38.000Z</time>
      </trkpt>
      <trkpt lat="44.99847" lon="-0.24471">
        <ele>51.4</ele>
        <time>2021-06-03T12:36:39.000Z</time>
      </trkpt>
      <trkpt lat="44.99848" lon="-0.24484">
        <ele>51.6</ele>
        <time>2021-06-03T12:36:41.000Z</time>
      </trkpt>
      <trkpt lat="44.99849" lon="-0.24496">
        <ele>51.4</ele>
        <time>2021-06-03T12:36:43.000Z</time>
      </trkpt>
      <trkpt lat="44.9985" lon="-0.24508">
        <ele>50.9</ele>
        <time>2021-06-03T12:36:45.000Z</time>
      </trkpt>
      <trkpt lat="44.99851" lon="-0.24517">
        <ele>50.6</ele>
        <time>2021-06-03T12:36:47.000Z</time>
      </trkpt>
      <trkpt lat="44.99852" lon="-0.24528">
        <ele>51.2</ele>
        <time>2021-06-03T12:36:50.000Z</time>
      </trkpt>
      <trkpt lat="44.99849" lon="-0.2454">
        <ele>50.3</ele>
        <time>2021-06-03T12:36:54.000Z</time>
      </trkpt>
      <trkpt lat="44.99843" lon="-0.24543">
        <ele>50.5</ele>
        <time>2021-06-03T12:36:56.000Z</time>
      </trkpt>
      <trkpt lat="44.99835" lon="-0.24544">
        <ele>50.8</ele>
        <time>2021-06-03T12:36:58.000Z</time>
      </trkpt>
      <trkpt lat="44.99828" lon="-0.24545">
        <ele>51.3</ele>
        <time>2021-06-03T12:37:00.000Z</time>
      </trkpt>
      <trkpt lat="44.9982" lon="-0.24546">
        <ele>51.3</ele>
        <time>2021-06-03T12:37:02.000Z</time>
      </trkpt>
      <trkpt lat="44.99812" lon="-0.24546">
        <ele>51</ele>
        <time>2021-06-03T12:37:04.000Z</time>
      </trkpt>
      <trkpt lat="44.99804" lon="-0.24546">
        <ele>51.5</ele>
        <time>2021-06-03T12:37:06.000Z</time>
      </trkpt>
      <trkpt lat="44.99797" lon="-0.24547">
        <ele>52.1</ele>
        <time>2021-06-03T12:37:08.000Z</time>
      </trkpt>
      <trkpt lat="44.9979" lon="-0.24548">
        <ele>52.2</ele>
        <time>2021-06-03T12:37:10.000Z</time>
      </trkpt>
      <trkpt lat="44.99783" lon="-0.24548">
        <ele>51.8</ele>
        <time>2021-06-03T12:37:12.000Z</time>
      </trkpt>
      <trkpt lat="44.99776" lon="-0.24549">
        <ele>51.5</ele>
        <time>2021-06-03T12:37:14.000Z</time>
      </trkpt>
      <trkpt lat="44.99772" lon="-0.24549">
        <ele>51.4</ele>
        <time>2021-06-03T12:37:15.000Z</time>
      </trkpt>
      <trkpt lat="44.99762" lon="-0.2455">
        <ele>51.2</ele>
        <time>2021-06-03T12:37:18.000Z</time>
      </trkpt>
      <trkpt lat="44.99756" lon="-0.2455">
        <ele>51.5</ele>
        <time>2021-06-03T12:37:20.000Z</time>
      </trkpt>
      <trkpt lat="44.9975" lon="-0.2455">
        <ele>51.5</ele>
        <time>2021-06-03T12:37:22.000Z</time>
      </trkpt>
      <trkpt lat="44.99743" lon="-0.24551">
        <ele>51.4</ele>
        <time>2021-06-03T12:37:24.000Z</time>
      </trkpt>
      <trkpt lat="44.99736" lon="-0.24551">
        <ele>51</ele>
        <time>2021-06-03T12:37:26.000Z</time>
      </trkpt>
      <trkpt lat="44.99729" lon="-0.24551">
        <ele>50.5</ele>
        <time>2021-06-03T12:37:28.000Z</time>
      </trkpt>
      <trkpt lat="44.99721" lon="-0.24552">
        <ele>50.3</ele>
        <time>2021-06-03T12:37:30.000Z</time>
      </trkpt>
      <trkpt lat="44.99713" lon="-0.24552">
        <ele>50.1</ele>
        <time>2021-06-03T12:37:32.000Z</time>
      </trkpt>
      <trkpt lat="44.99704" lon="-0.24553">
        <ele>49.9</ele>
        <time>2021-06-03T12:37:34.000Z</time>
      </trkpt>
      <trkpt lat="44.99695" lon="-0.24553">
        <ele>49.8</ele>
        <time>2021-06-03T12:37:36.000Z</time>
      </trkpt>
      <trkpt lat="44.99686" lon="-0.24553">
        <ele>48.9</ele>
        <time>2021-06-03T12:37:38.000Z</time>
      </trkpt>
      <trkpt lat="44.99682" lon="-0.24554">
        <ele>48.3</ele>
        <time>2021-06-03T12:37:39.000Z</time>
      </trkpt>
      <trkpt lat="44.99677" lon="-0.24554">
        <ele>48.6</ele>
        <time>2021-06-03T12:37:40.000Z</time>
      </trkpt>
      <trkpt lat="44.99672" lon="-0.24555">
        <ele>48.8</ele>
        <time>2021-06-03T12:37:41.000Z</time>
      </trkpt>
      <trkpt lat="44.99667" lon="-0.24556">
        <ele>48.9</ele>
        <time>2021-06-03T12:37:42.000Z</time>
      </trkpt>
      <trkpt lat="44.99662" lon="-0.24557">
        <ele>48.2</ele>
        <time>2021-06-03T12:37:43.000Z</time>
      </trkpt>
      <trkpt lat="44.99657" lon="-0.24557">
        <ele>47.7</ele>
        <time>2021-06-03T12:37:44.000Z</time>
      </trkpt>
      <trkpt lat="44.99653" lon="-0.24557">
        <ele>47.4</ele>
        <time>2021-06-03T12:37:45.000Z</time>
      </trkpt>
      <trkpt lat="44.99648" lon="-0.24558">
        <ele>47.2</ele>
        <time>2021-06-03T12:37:46.000Z</time>
      </trkpt>
      <trkpt lat="44.99642" lon="-0.24559">
        <ele>47</ele>
        <time>2021-06-03T12:37:47.000Z</time>
      </trkpt>
      <trkpt lat="44.99637" lon="-0.24559">
        <ele>46.6</ele>
        <time>2021-06-03T12:37:48.000Z</time>
      </trkpt>
      <trkpt lat="44.99631" lon="-0.2456">
        <ele>46.4</ele>
        <time>2021-06-03T12:37:49.000Z</time>
      </trkpt>
      <trkpt lat="44.99625" lon="-0.2456">
        <ele>45.7</ele>
        <time>2021-06-03T12:37:50.000Z</time>
      </trkpt>
      <trkpt lat="44.99619" lon="-0.24561">
        <ele>45.3</ele>
        <time>2021-06-03T12:37:51.000Z</time>
      </trkpt>
      <trkpt lat="44.99612" lon="-0.24561">
        <ele>44.5</ele>
        <time>2021-06-03T12:37:52.000Z</time>
      </trkpt>
      <trkpt lat="44.99606" lon="-0.24561">
        <ele>44</ele>
        <time>2021-06-03T12:37:53.000Z</time>
      </trkpt>
      <trkpt lat="44.99599" lon="-0.24561">
        <ele>43.5</ele>
        <time>2021-06-03T12:37:54.000Z</time>
      </trkpt>
      <trkpt lat="44.99593" lon="-0.24561">
        <ele>43.5</ele>
        <time>2021-06-03T12:37:55.000Z</time>
      </trkpt>
      <trkpt lat="44.99587" lon="-0.2456">
        <ele>43.5</ele>
        <time>2021-06-03T12:37:56.000Z</time>
      </trkpt>
      <trkpt lat="44.99581" lon="-0.2456">
        <ele>42.4</ele>
        <time>2021-06-03T12:37:57.000Z</time>
      </trkpt>
      <trkpt lat="44.99575" lon="-0.2456">
        <ele>41.5</ele>
        <time>2021-06-03T12:37:58.000Z</time>
      </trkpt>
      <trkpt lat="44.99569" lon="-0.24559">
        <ele>40.6</ele>
        <time>2021-06-03T12:37:59.000Z</time>
      </trkpt>
      <trkpt lat="44.99562" lon="-0.24559">
        <ele>40</ele>
        <time>2021-06-03T12:38:00.000Z</time>
      </trkpt>
      <trkpt lat="44.99556" lon="-0.24559">
        <ele>39.5</ele>
        <time>2021-06-03T12:38:01.000Z</time>
      </trkpt>
      <trkpt lat="44.99549" lon="-0.24559">
        <ele>39.3</ele>
        <time>2021-06-03T12:38:02.000Z</time>
      </trkpt>
      <trkpt lat="44.99542" lon="-0.24559">
        <ele>39.1</ele>
        <time>2021-06-03T12:38:03.000Z</time>
      </trkpt>
      <trkpt lat="44.99534" lon="-0.24559">
        <ele>38.7</ele>
        <time>2021-06-03T12:38:04.000Z</time>
      </trkpt>
      <trkpt lat="44.99526" lon="-0.24559">
        <ele>38.5</ele>
        <time>2021-06-03T12:38:05.000Z</time>
      </trkpt>
      <trkpt lat="44.99519" lon="-0.24559">
        <ele>38</ele>
        <time>2021-06-03T12:38:06.000Z</time>
      </trkpt>
      <trkpt lat="44.99513" lon="-0.24558">
        <ele>37.6</ele>
        <time>2021-06-03T12:38:07.000Z</time>
      </trkpt>
      <trkpt lat="44.99506" lon="-0.24557">
        <ele>37.3</ele>
        <time>2021-06-03T12:38:08.000Z</time>
      </trkpt>
      <trkpt lat="44.99499" lon="-0.24556">
        <ele>36.8</ele>
        <time>2021-06-03T12:38:09.000Z</time>
      </trkpt>
      <trkpt lat="44.99492" lon="-0.24554">
        <ele>36.4</ele>
        <time>2021-06-03T12:38:10.000Z</time>
      </trkpt>
      <trkpt lat="44.99486" lon="-0.24553">
        <ele>35.6</ele>
        <time>2021-06-03T12:38:11.000Z</time>
      </trkpt>
      <trkpt lat="44.99479" lon="-0.24552">
        <ele>35</ele>
        <time>2021-06-03T12:38:12.000Z</time>
      </trkpt>
      <trkpt lat="44.99473" lon="-0.24551">
        <ele>34.6</ele>
        <time>2021-06-03T12:38:13.000Z</time>
      </trkpt>
      <trkpt lat="44.99466" lon="-0.2455">
        <ele>34.2</ele>
        <time>2021-06-03T12:38:14.000Z</time>
      </trkpt>
      <trkpt lat="44.99459" lon="-0.24549">
        <ele>33.9</ele>
        <time>2021-06-03T12:38:15.000Z</time>
      </trkpt>
      <trkpt lat="44.99452" lon="-0.24549">
        <ele>33.2</ele>
        <time>2021-06-03T12:38:16.000Z</time>
      </trkpt>
      <trkpt lat="44.99446" lon="-0.24549">
        <ele>32.8</ele>
        <time>2021-06-03T12:38:17.000Z</time>
      </trkpt>
      <trkpt lat="44.99441" lon="-0.24549">
        <ele>32.2</ele>
        <time>2021-06-03T12:38:18.000Z</time>
      </trkpt>
      <trkpt lat="44.99434" lon="-0.2455">
        <ele>31.8</ele>
        <time>2021-06-03T12:38:19.000Z</time>
      </trkpt>
      <trkpt lat="44.99428" lon="-0.24551">
        <ele>31.5</ele>
        <time>2021-06-03T12:38:20.000Z</time>
      </trkpt>
      <trkpt lat="44.99422" lon="-0.24552">
        <ele>31.1</ele>
        <time>2021-06-03T12:38:21.000Z</time>
      </trkpt>
      <trkpt lat="44.99415" lon="-0.24554">
        <ele>30.8</ele>
        <time>2021-06-03T12:38:22.000Z</time>
      </trkpt>
      <trkpt lat="44.99408" lon="-0.24555">
        <ele>30.6</ele>
        <time>2021-06-03T12:38:23.000Z</time>
      </trkpt>
      <trkpt lat="44.99401" lon="-0.24557">
        <ele>30.5</ele>
        <time>2021-06-03T12:38:24.000Z</time>
      </trkpt>
      <trkpt lat="44.99394" lon="-0.24559">
        <ele>29.9</ele>
        <time>2021-06-03T12:38:25.000Z</time>
      </trkpt>
      <trkpt lat="44.99388" lon="-0.24561">
        <ele>29.5</ele>
        <time>2021-06-03T12:38:26.000Z</time>
      </trkpt>
      <trkpt lat="44.99382" lon="-0.24563">
        <ele>29.2</ele>
        <time>2021-06-03T12:38:27.000Z</time>
      </trkpt>
      <trkpt lat="44.99375" lon="-0.24565">
        <ele>29.2</ele>
        <time>2021-06-03T12:38:28.000Z</time>
      </trkpt>
      <trkpt lat="44.99368" lon="-0.24567">
        <ele>29.2</ele>
        <time>2021-06-03T12:38:29.000Z</time>
      </trkpt>
      <trkpt lat="44.99362" lon="-0.24569">
        <ele>28.6</ele>
        <time>2021-06-03T12:38:30.000Z</time>
      </trkpt>
      <trkpt lat="44.99356" lon="-0.24571">
        <ele>28.1</ele>
        <time>2021-06-03T12:38:31.000Z</time>
      </trkpt>
      <trkpt lat="44.9935" lon="-0.24572">
        <ele>27.8</ele>
        <time>2021-06-03T12:38:32.000Z</time>
      </trkpt>
      <trkpt lat="44.99345" lon="-0.24572">
        <ele>27.4</ele>
        <time>2021-06-03T12:38:33.000Z</time>
      </trkpt>
      <trkpt lat="44.99339" lon="-0.24573">
        <ele>27.2</ele>
        <time>2021-06-03T12:38:34.000Z</time>
      </trkpt>
      <trkpt lat="44.99333" lon="-0.24575">
        <ele>26.9</ele>
        <time>2021-06-03T12:38:35.000Z</time>
      </trkpt>
      <trkpt lat="44.99328" lon="-0.24576">
        <ele>26.7</ele>
        <time>2021-06-03T12:38:36.000Z</time>
      </trkpt>
      <trkpt lat="44.99322" lon="-0.24577">
        <ele>26.2</ele>
        <time>2021-06-03T12:38:37.000Z</time>
      </trkpt>
      <trkpt lat="44.99317" lon="-0.24577">
        <ele>25.8</ele>
        <time>2021-06-03T12:38:38.000Z</time>
      </trkpt>
      <trkpt lat="44.99312" lon="-0.24578">
        <ele>25.5</ele>
        <time>2021-06-03T12:38:39.000Z</time>
      </trkpt>
      <trkpt lat="44.99307" lon="-0.24579">
        <ele>25.4</ele>
        <time>2021-06-03T12:38:40.000Z</time>
      </trkpt>
      <trkpt lat="44.99302" lon="-0.2458">
        <ele>25.3</ele>
        <time>2021-06-03T12:38:41.000Z</time>
      </trkpt>
      <trkpt lat="44.99296" lon="-0.24581">
        <ele>25.5</ele>
        <time>2021-06-03T12:38:42.000Z</time>
      </trkpt>
      <trkpt lat="44.99291" lon="-0.24582">
        <ele>25.7</ele>
        <time>2021-06-03T12:38:43.000Z</time>
      </trkpt>
      <trkpt lat="44.99286" lon="-0.24584">
        <ele>25.3</ele>
        <time>2021-06-03T12:38:44.000Z</time>
      </trkpt>
      <trkpt lat="44.99281" lon="-0.24585">
        <ele>25</ele>
        <time>2021-06-03T12:38:45.000Z</time>
      </trkpt>
      <trkpt lat="44.99275" lon="-0.24586">
        <ele>24.8</ele>
        <time>2021-06-03T12:38:46.000Z</time>
      </trkpt>
      <trkpt lat="44.9927" lon="-0.24588">
        <ele>24.4</ele>
        <time>2021-06-03T12:38:47.000Z</time>
      </trkpt>
      <trkpt lat="44.99265" lon="-0.24589">
        <ele>24.1</ele>
        <time>2021-06-03T12:38:48.000Z</time>
      </trkpt>
      <trkpt lat="44.99259" lon="-0.2459">
        <ele>24.2</ele>
        <time>2021-06-03T12:38:49.000Z</time>
      </trkpt>
      <trkpt lat="44.99254" lon="-0.24591">
        <ele>24.3</ele>
        <time>2021-06-03T12:38:50.000Z</time>
      </trkpt>
      <trkpt lat="44.99249" lon="-0.24593">
        <ele>24.3</ele>
        <time>2021-06-03T12:38:51.000Z</time>
      </trkpt>
      <trkpt lat="44.99244" lon="-0.24594">
        <ele>24.3</ele>
        <time>2021-06-03T12:38:52.000Z</time>
      </trkpt>
      <trkpt lat="44.9924" lon="-0.24595">
        <ele>24.2</ele>
        <time>2021-06-03T12:38:53.000Z</time>
      </trkpt>
      <trkpt lat="44.99235" lon="-0.24596">
        <ele>23.9</ele>
        <time>2021-06-03T12:38:54.000Z</time>
      </trkpt>
      <trkpt lat="44.99226" lon="-0.24597">
        <ele>23.8</ele>
        <time>2021-06-03T12:38:56.000Z</time>
      </trkpt>
      <trkpt lat="44.99218" lon="-0.24599">
        <ele>23.9</ele>
        <time>2021-06-03T12:38:58.000Z</time>
      </trkpt>
      <trkpt lat="44.99211" lon="-0.246">
        <ele>23.5</ele>
        <time>2021-06-03T12:39:00.000Z</time>
      </trkpt>
      <trkpt lat="44.99203" lon="-0.24602">
        <ele>23.5</ele>
        <time>2021-06-03T12:39:03.000Z</time>
      </trkpt>
      <trkpt lat="44.99197" lon="-0.24608">
        <ele>23.1</ele>
        <time>2021-06-03T12:39:06.000Z</time>
      </trkpt>
      <trkpt lat="44.99198" lon="-0.2462">
        <ele>23.8</ele>
        <time>2021-06-03T12:39:09.000Z</time>
      </trkpt>
      <trkpt lat="44.99198" lon="-0.24629">
        <ele>24</ele>
        <time>2021-06-03T12:39:11.000Z</time>
      </trkpt>
      <trkpt lat="44.992" lon="-0.24638">
        <ele>23.9</ele>
        <time>2021-06-03T12:39:13.000Z</time>
      </trkpt>
      <trkpt lat="44.992" lon="-0.24648">
        <ele>24.2</ele>
        <time>2021-06-03T12:39:15.000Z</time>
      </trkpt>
      <trkpt lat="44.992" lon="-0.24658">
        <ele>24.6</ele>
        <time>2021-06-03T12:39:17.000Z</time>
      </trkpt>
      <trkpt lat="44.992" lon="-0.24663">
        <ele>24.3</ele>
        <time>2021-06-03T12:39:18.000Z</time>
      </trkpt>
      <trkpt lat="44.99199" lon="-0.24679">
        <ele>23.8</ele>
        <time>2021-06-03T12:39:21.000Z</time>
      </trkpt>
      <trkpt lat="44.99198" lon="-0.2469">
        <ele>23.6</ele>
        <time>2021-06-03T12:39:23.000Z</time>
      </trkpt>
      <trkpt lat="44.99196" lon="-0.24701">
        <ele>23.6</ele>
        <time>2021-06-03T12:39:25.000Z</time>
      </trkpt>
      <trkpt lat="44.99194" lon="-0.24711">
        <ele>23.2</ele>
        <time>2021-06-03T12:39:27.000Z</time>
      </trkpt>
      <trkpt lat="44.99193" lon="-0.24721">
        <ele>22.8</ele>
        <time>2021-06-03T12:39:29.000Z</time>
      </trkpt>
      <trkpt lat="44.99191" lon="-0.2473">
        <ele>23.6</ele>
        <time>2021-06-03T12:39:31.000Z</time>
      </trkpt>
      <trkpt lat="44.99188" lon="-0.24738">
        <ele>24.3</ele>
        <time>2021-06-03T12:39:33.000Z</time>
      </trkpt>
      <trkpt lat="44.99183" lon="-0.24745">
        <ele>23.6</ele>
        <time>2021-06-03T12:39:35.000Z</time>
      </trkpt>
      <trkpt lat="44.99178" lon="-0.24753">
        <ele>23.6</ele>
        <time>2021-06-03T12:39:37.000Z</time>
      </trkpt>
      <trkpt lat="44.99171" lon="-0.24762">
        <ele>23.6</ele>
        <time>2021-06-03T12:39:39.000Z</time>
      </trkpt>
      <trkpt lat="44.99168" lon="-0.24767">
        <ele>23.4</ele>
        <time>2021-06-03T12:39:40.000Z</time>
      </trkpt>
      <trkpt lat="44.99165" lon="-0.24772">
        <ele>22.7</ele>
        <time>2021-06-03T12:39:41.000Z</time>
      </trkpt>
      <trkpt lat="44.99161" lon="-0.24777">
        <ele>22.2</ele>
        <time>2021-06-03T12:39:42.000Z</time>
      </trkpt>
      <trkpt lat="44.99158" lon="-0.24782">
        <ele>21.8</ele>
        <time>2021-06-03T12:39:43.000Z</time>
      </trkpt>
      <trkpt lat="44.99154" lon="-0.24787">
        <ele>22.2</ele>
        <time>2021-06-03T12:39:44.000Z</time>
      </trkpt>
      <trkpt lat="44.9915" lon="-0.24793">
        <ele>22.5</ele>
        <time>2021-06-03T12:39:45.000Z</time>
      </trkpt>
      <trkpt lat="44.99146" lon="-0.24798">
        <ele>22</ele>
        <time>2021-06-03T12:39:46.000Z</time>
      </trkpt>
      <trkpt lat="44.99143" lon="-0.24804">
        <ele>21.6</ele>
        <time>2021-06-03T12:39:47.000Z</time>
      </trkpt>
      <trkpt lat="44.99139" lon="-0.2481">
        <ele>21.3</ele>
        <time>2021-06-03T12:39:48.000Z</time>
      </trkpt>
      <trkpt lat="44.99134" lon="-0.24816">
        <ele>21.1</ele>
        <time>2021-06-03T12:39:49.000Z</time>
      </trkpt>
      <trkpt lat="44.9913" lon="-0.24822">
        <ele>21</ele>
        <time>2021-06-03T12:39:50.000Z</time>
      </trkpt>
      <trkpt lat="44.99126" lon="-0.24828">
        <ele>20.5</ele>
        <time>2021-06-03T12:39:51.000Z</time>
      </trkpt>
      <trkpt lat="44.99122" lon="-0.24835">
        <ele>20.1</ele>
        <time>2021-06-03T12:39:52.000Z</time>
      </trkpt>
      <trkpt lat="44.99117" lon="-0.24841">
        <ele>19.4</ele>
        <time>2021-06-03T12:39:53.000Z</time>
      </trkpt>
      <trkpt lat="44.99112" lon="-0.24848">
        <ele>18.9</ele>
        <time>2021-06-03T12:39:54.000Z</time>
      </trkpt>
      <trkpt lat="44.99108" lon="-0.24855">
        <ele>18.6</ele>
        <time>2021-06-03T12:39:55.000Z</time>
      </trkpt>
      <trkpt lat="44.99103" lon="-0.24863">
        <ele>18.3</ele>
        <time>2021-06-03T12:39:56.000Z</time>
      </trkpt>
      <trkpt lat="44.99098" lon="-0.2487">
        <ele>18</ele>
        <time>2021-06-03T12:39:57.000Z</time>
      </trkpt>
      <trkpt lat="44.99093" lon="-0.24877">
        <ele>17.8</ele>
        <time>2021-06-03T12:39:58.000Z</time>
      </trkpt>
      <trkpt lat="44.99088" lon="-0.24885">
        <ele>17.6</ele>
        <time>2021-06-03T12:39:59.000Z</time>
      </trkpt>
      <trkpt lat="44.99082" lon="-0.24892">
        <ele>17.4</ele>
        <time>2021-06-03T12:40:00.000Z</time>
      </trkpt>
      <trkpt lat="44.99077" lon="-0.249">
        <ele>17.2</ele>
        <time>2021-06-03T12:40:01.000Z</time>
      </trkpt>
      <trkpt lat="44.99072" lon="-0.24908">
        <ele>17.1</ele>
        <time>2021-06-03T12:40:02.000Z</time>
      </trkpt>
      <trkpt lat="44.99066" lon="-0.24915">
        <ele>16.3</ele>
        <time>2021-06-03T12:40:03.000Z</time>
      </trkpt>
      <trkpt lat="44.99061" lon="-0.24923">
        <ele>15.7</ele>
        <time>2021-06-03T12:40:04.000Z</time>
      </trkpt>
      <trkpt lat="44.99056" lon="-0.24931">
        <ele>15.6</ele>
        <time>2021-06-03T12:40:05.000Z</time>
      </trkpt>
      <trkpt lat="44.9905" lon="-0.24938">
        <ele>15.5</ele>
        <time>2021-06-03T12:40:06.000Z</time>
      </trkpt>
      <trkpt lat="44.99045" lon="-0.24946">
        <ele>15.4</ele>
        <time>2021-06-03T12:40:07.000Z</time>
      </trkpt>
      <trkpt lat="44.9904" lon="-0.24953">
        <ele>15.5</ele>
        <time>2021-06-03T12:40:08.000Z</time>
      </trkpt>
      <trkpt lat="44.99034" lon="-0.24961">
        <ele>15.5</ele>
        <time>2021-06-03T12:40:09.000Z</time>
      </trkpt>
      <trkpt lat="44.99029" lon="-0.24968">
        <ele>15.2</ele>
        <time>2021-06-03T12:40:10.000Z</time>
      </trkpt>
      <trkpt lat="44.99024" lon="-0.24975">
        <ele>15</ele>
        <time>2021-06-03T12:40:11.000Z</time>
      </trkpt>
      <trkpt lat="44.99019" lon="-0.24982">
        <ele>14.7</ele>
        <time>2021-06-03T12:40:12.000Z</time>
      </trkpt>
      <trkpt lat="44.99014" lon="-0.24989">
        <ele>14.4</ele>
        <time>2021-06-03T12:40:13.000Z</time>
      </trkpt>
      <trkpt lat="44.99009" lon="-0.24996">
        <ele>14.2</ele>
        <time>2021-06-03T12:40:14.000Z</time>
      </trkpt>
      <trkpt lat="44.99003" lon="-0.25003">
        <ele>14.6</ele>
        <time>2021-06-03T12:40:15.000Z</time>
      </trkpt>
      <trkpt lat="44.98999" lon="-0.2501">
        <ele>14.9</ele>
        <time>2021-06-03T12:40:16.000Z</time>
      </trkpt>
      <trkpt lat="44.98994" lon="-0.25016">
        <ele>14.7</ele>
        <time>2021-06-03T12:40:17.000Z</time>
      </trkpt>
      <trkpt lat="44.98989" lon="-0.25022">
        <ele>14.5</ele>
        <time>2021-06-03T12:40:18.000Z</time>
      </trkpt>
      <trkpt lat="44.98984" lon="-0.25028">
        <ele>14.4</ele>
        <time>2021-06-03T12:40:19.000Z</time>
      </trkpt>
      <trkpt lat="44.98979" lon="-0.25034">
        <ele>14.2</ele>
        <time>2021-06-03T12:40:20.000Z</time>
      </trkpt>
      <trkpt lat="44.98974" lon="-0.25041">
        <ele>14.1</ele>
        <time>2021-06-03T12:40:21.000Z</time>
      </trkpt>
      <trkpt lat="44.9897" lon="-0.25047">
        <ele>14.2</ele>
        <time>2021-06-03T12:40:22.000Z</time>
      </trkpt>
      <trkpt lat="44.98966" lon="-0.25052">
        <ele>14.2</ele>
        <time>2021-06-03T12:40:23.000Z</time>
      </trkpt>
      <trkpt lat="44.98962" lon="-0.25058">
        <ele>13.8</ele>
        <time>2021-06-03T12:40:24.000Z</time>
      </trkpt>
      <trkpt lat="44.98958" lon="-0.25064">
        <ele>13.4</ele>
        <time>2021-06-03T12:40:25.000Z</time>
      </trkpt>
      <trkpt lat="44.98954" lon="-0.25069">
        <ele>13.3</ele>
        <time>2021-06-03T12:40:26.000Z</time>
      </trkpt>
      <trkpt lat="44.98949" lon="-0.25075">
        <ele>13.2</ele>
        <time>2021-06-03T12:40:27.000Z</time>
      </trkpt>
      <trkpt lat="44.98944" lon="-0.25081">
        <ele>13.1</ele>
        <time>2021-06-03T12:40:28.000Z</time>
      </trkpt>
      <trkpt lat="44.9894" lon="-0.25087">
        <ele>13</ele>
        <time>2021-06-03T12:40:29.000Z</time>
      </trkpt>
      <trkpt lat="44.98935" lon="-0.25094">
        <ele>12.9</ele>
        <time>2021-06-03T12:40:30.000Z</time>
      </trkpt>
      <trkpt lat="44.98931" lon="-0.251">
        <ele>12.5</ele>
        <time>2021-06-03T12:40:31.000Z</time>
      </trkpt>
      <trkpt lat="44.98926" lon="-0.25107">
        <ele>12.2</ele>
        <time>2021-06-03T12:40:32.000Z</time>
      </trkpt>
      <trkpt lat="44.98922" lon="-0.25115">
        <ele>12</ele>
        <time>2021-06-03T12:40:33.000Z</time>
      </trkpt>
      <trkpt lat="44.98918" lon="-0.25122">
        <ele>11.8</ele>
        <time>2021-06-03T12:40:34.000Z</time>
      </trkpt>
      <trkpt lat="44.98914" lon="-0.2513">
        <ele>11.6</ele>
        <time>2021-06-03T12:40:35.000Z</time>
      </trkpt>
      <trkpt lat="44.98911" lon="-0.25137">
        <ele>11.2</ele>
        <time>2021-06-03T12:40:36.000Z</time>
      </trkpt>
      <trkpt lat="44.98907" lon="-0.25145">
        <ele>10.9</ele>
        <time>2021-06-03T12:40:37.000Z</time>
      </trkpt>
      <trkpt lat="44.98904" lon="-0.25153">
        <ele>10.8</ele>
        <time>2021-06-03T12:40:38.000Z</time>
      </trkpt>
      <trkpt lat="44.98901" lon="-0.2516">
        <ele>10.7</ele>
        <time>2021-06-03T12:40:39.000Z</time>
      </trkpt>
      <trkpt lat="44.98898" lon="-0.25167">
        <ele>10.6</ele>
        <time>2021-06-03T12:40:40.000Z</time>
      </trkpt>
      <trkpt lat="44.98895" lon="-0.25175">
        <ele>10.6</ele>
        <time>2021-06-03T12:40:41.000Z</time>
      </trkpt>
      <trkpt lat="44.98892" lon="-0.25182">
        <ele>10.5</ele>
        <time>2021-06-03T12:40:42.000Z</time>
      </trkpt>
      <trkpt lat="44.98888" lon="-0.2519">
        <ele>10.2</ele>
        <time>2021-06-03T12:40:43.000Z</time>
      </trkpt>
      <trkpt lat="44.98885" lon="-0.25198">
        <ele>10</ele>
        <time>2021-06-03T12:40:44.000Z</time>
      </trkpt>
      <trkpt lat="44.98882" lon="-0.25206">
        <ele>10</ele>
        <time>2021-06-03T12:40:45.000Z</time>
      </trkpt>
      <trkpt lat="44.98879" lon="-0.25214">
        <ele>10</ele>
        <time>2021-06-03T12:40:46.000Z</time>
      </trkpt>
      <trkpt lat="44.98875" lon="-0.25222">
        <ele>10</ele>
        <time>2021-06-03T12:40:47.000Z</time>
      </trkpt>
      <trkpt lat="44.98872" lon="-0.2523">
        <ele>9.5</ele>
        <time>2021-06-03T12:40:48.000Z</time>
      </trkpt>
      <trkpt lat="44.98869" lon="-0.25238">
        <ele>9.1</ele>
        <time>2021-06-03T12:40:49.000Z</time>
      </trkpt>
      <trkpt lat="44.98865" lon="-0.25245">
        <ele>8.9</ele>
        <time>2021-06-03T12:40:50.000Z</time>
      </trkpt>
      <trkpt lat="44.98861" lon="-0.25253">
        <ele>8.8</ele>
        <time>2021-06-03T12:40:51.000Z</time>
      </trkpt>
      <trkpt lat="44.98858" lon="-0.2526">
        <ele>8.7</ele>
        <time>2021-06-03T12:40:52.000Z</time>
      </trkpt>
      <trkpt lat="44.98854" lon="-0.25267">
        <ele>8.7</ele>
        <time>2021-06-03T12:40:53.000Z</time>
      </trkpt>
      <trkpt lat="44.98851" lon="-0.25273">
        <ele>8.6</ele>
        <time>2021-06-03T12:40:54.000Z</time>
      </trkpt>
      <trkpt lat="44.98847" lon="-0.25279">
        <ele>8.2</ele>
        <time>2021-06-03T12:40:55.000Z</time>
      </trkpt>
      <trkpt lat="44.98842" lon="-0.25284">
        <ele>7.9</ele>
        <time>2021-06-03T12:40:56.000Z</time>
      </trkpt>
      <trkpt lat="44.98838" lon="-0.25289">
        <ele>7.6</ele>
        <time>2021-06-03T12:40:57.000Z</time>
      </trkpt>
      <trkpt lat="44.98833" lon="-0.25293">
        <ele>7.3</ele>
        <time>2021-06-03T12:40:58.000Z</time>
      </trkpt>
      <trkpt lat="44.98828" lon="-0.25297">
        <ele>7.1</ele>
        <time>2021-06-03T12:40:59.000Z</time>
      </trkpt>
      <trkpt lat="44.98824" lon="-0.25301">
        <ele>7.3</ele>
        <time>2021-06-03T12:41:00.000Z</time>
      </trkpt>
      <trkpt lat="44.98819" lon="-0.25305">
        <ele>7.4</ele>
        <time>2021-06-03T12:41:01.000Z</time>
      </trkpt>
      <trkpt lat="44.98814" lon="-0.25308">
        <ele>8</ele>
        <time>2021-06-03T12:41:02.000Z</time>
      </trkpt>
      <trkpt lat="44.9881" lon="-0.25312">
        <ele>8.4</ele>
        <time>2021-06-03T12:41:03.000Z</time>
      </trkpt>
      <trkpt lat="44.98805" lon="-0.25316">
        <ele>8.2</ele>
        <time>2021-06-03T12:41:04.000Z</time>
      </trkpt>
      <trkpt lat="44.988" lon="-0.2532">
        <ele>8</ele>
        <time>2021-06-03T12:41:05.000Z</time>
      </trkpt>
      <trkpt lat="44.98796" lon="-0.25325">
        <ele>7.9</ele>
        <time>2021-06-03T12:41:06.000Z</time>
      </trkpt>
      <trkpt lat="44.98792" lon="-0.2533">
        <ele>8.1</ele>
        <time>2021-06-03T12:41:07.000Z</time>
      </trkpt>
      <trkpt lat="44.98788" lon="-0.25336">
        <ele>8.3</ele>
        <time>2021-06-03T12:41:08.000Z</time>
      </trkpt>
      <trkpt lat="44.98785" lon="-0.25341">
        <ele>7.6</ele>
        <time>2021-06-03T12:41:09.000Z</time>
      </trkpt>
      <trkpt lat="44.98781" lon="-0.25347">
        <ele>7.1</ele>
        <time>2021-06-03T12:41:10.000Z</time>
      </trkpt>
      <trkpt lat="44.98778" lon="-0.25352">
        <ele>6.7</ele>
        <time>2021-06-03T12:41:11.000Z</time>
      </trkpt>
      <trkpt lat="44.98774" lon="-0.25358">
        <ele>6.6</ele>
        <time>2021-06-03T12:41:12.000Z</time>
      </trkpt>
      <trkpt lat="44.98771" lon="-0.25364">
        <ele>6.6</ele>
        <time>2021-06-03T12:41:13.000Z</time>
      </trkpt>
      <trkpt lat="44.98768" lon="-0.25369">
        <ele>6.8</ele>
        <time>2021-06-03T12:41:14.000Z</time>
      </trkpt>
      <trkpt lat="44.98765" lon="-0.25375">
        <ele>7</ele>
        <time>2021-06-03T12:41:15.000Z</time>
      </trkpt>
      <trkpt lat="44.98761" lon="-0.25381">
        <ele>7.3</ele>
        <time>2021-06-03T12:41:16.000Z</time>
      </trkpt>
      <trkpt lat="44.98758" lon="-0.25387">
        <ele>7.5</ele>
        <time>2021-06-03T12:41:17.000Z</time>
      </trkpt>
      <trkpt lat="44.98754" lon="-0.25393">
        <ele>7.7</ele>
        <time>2021-06-03T12:41:18.000Z</time>
      </trkpt>
      <trkpt lat="44.98751" lon="-0.25399">
        <ele>7.4</ele>
        <time>2021-06-03T12:41:19.000Z</time>
      </trkpt>
      <trkpt lat="44.98747" lon="-0.25406">
        <ele>7.2</ele>
        <time>2021-06-03T12:41:20.000Z</time>
      </trkpt>
      <trkpt lat="44.98743" lon="-0.25411">
        <ele>7.5</ele>
        <time>2021-06-03T12:41:21.000Z</time>
      </trkpt>
      <trkpt lat="44.9874" lon="-0.25417">
        <ele>7.7</ele>
        <time>2021-06-03T12:41:22.000Z</time>
      </trkpt>
      <trkpt lat="44.98736" lon="-0.25424">
        <ele>7.7</ele>
        <time>2021-06-03T12:41:23.000Z</time>
      </trkpt>
      <trkpt lat="44.98733" lon="-0.2543">
        <ele>7.8</ele>
        <time>2021-06-03T12:41:24.000Z</time>
      </trkpt>
      <trkpt lat="44.98729" lon="-0.25435">
        <ele>7.8</ele>
        <time>2021-06-03T12:41:25.000Z</time>
      </trkpt>
      <trkpt lat="44.98726" lon="-0.25441">
        <ele>7.7</ele>
        <time>2021-06-03T12:41:26.000Z</time>
      </trkpt>
      <trkpt lat="44.98722" lon="-0.25446">
        <ele>7.5</ele>
        <time>2021-06-03T12:41:27.000Z</time>
      </trkpt>
      <trkpt lat="44.98719" lon="-0.25452">
        <ele>7.3</ele>
        <time>2021-06-03T12:41:28.000Z</time>
      </trkpt>
      <trkpt lat="44.98715" lon="-0.25457">
        <ele>7.1</ele>
        <time>2021-06-03T12:41:29.000Z</time>
      </trkpt>
      <trkpt lat="44.98712" lon="-0.25463">
        <ele>6.8</ele>
        <time>2021-06-03T12:41:30.000Z</time>
      </trkpt>
      <trkpt lat="44.98708" lon="-0.25468">
        <ele>6.8</ele>
        <time>2021-06-03T12:41:31.000Z</time>
      </trkpt>
      <trkpt lat="44.98705" lon="-0.25473">
        <ele>6.7</ele>
        <time>2021-06-03T12:41:32.000Z</time>
      </trkpt>
      <trkpt lat="44.98701" lon="-0.25478">
        <ele>6.7</ele>
        <time>2021-06-03T12:41:33.000Z</time>
      </trkpt>
      <trkpt lat="44.98698" lon="-0.25483">
        <ele>6.7</ele>
        <time>2021-06-03T12:41:34.000Z</time>
      </trkpt>
      <trkpt lat="44.98694" lon="-0.25488">
        <ele>6.7</ele>
        <time>2021-06-03T12:41:35.000Z</time>
      </trkpt>
      <trkpt lat="44.9869" lon="-0.25493">
        <ele>6.8</ele>
        <time>2021-06-03T12:41:36.000Z</time>
      </trkpt>
      <trkpt lat="44.98685" lon="-0.25498">
        <ele>6.8</ele>
        <time>2021-06-03T12:41:37.000Z</time>
      </trkpt>
      <trkpt lat="44.98682" lon="-0.25503">
        <ele>6.8</ele>
        <time>2021-06-03T12:41:38.000Z</time>
      </trkpt>
      <trkpt lat="44.98678" lon="-0.25507">
        <ele>6.7</ele>
        <time>2021-06-03T12:41:39.000Z</time>
      </trkpt>
      <trkpt lat="44.98674" lon="-0.25512">
        <ele>7</ele>
        <time>2021-06-03T12:41:40.000Z</time>
      </trkpt>
      <trkpt lat="44.9867" lon="-0.25516">
        <ele>7.3</ele>
        <time>2021-06-03T12:41:41.000Z</time>
      </trkpt>
      <trkpt lat="44.98666" lon="-0.25521">
        <ele>7</ele>
        <time>2021-06-03T12:41:42.000Z</time>
      </trkpt>
      <trkpt lat="44.9866" lon="-0.25528">
        <ele>6.7</ele>
        <time>2021-06-03T12:41:44.000Z</time>
      </trkpt>
      <trkpt lat="44.98654" lon="-0.25536">
        <ele>7.4</ele>
        <time>2021-06-03T12:41:47.000Z</time>
      </trkpt>
      <trkpt lat="44.98649" lon="-0.25542">
        <ele>8</ele>
        <time>2021-06-03T12:41:50.000Z</time>
      </trkpt>
      <trkpt lat="44.98644" lon="-0.25552">
        <ele>9.3</ele>
        <time>2021-06-03T12:41:58.000Z</time>
      </trkpt>
      <trkpt lat="44.98638" lon="-0.25561">
        <ele>8.6</ele>
        <time>2021-06-03T12:42:18.000Z</time>
      </trkpt>
      <trkpt lat="44.98633" lon="-0.25572">
        <ele>9.2</ele>
        <time>2021-06-03T12:42:38.000Z</time>
      </trkpt>
      <trkpt lat="44.98633" lon="-0.25572">
        <ele>9.4</ele>
        <time>2021-06-03T12:42:39.000Z</time>
      </trkpt>
      <trkpt lat="44.98624" lon="-0.25576">
        <ele>8.6</ele>
        <time>2021-06-03T12:46:57.000Z</time>
      </trkpt>
      <trkpt lat="44.98617" lon="-0.25585">
        <ele>9.3</ele>
        <time>2021-06-03T12:46:59.000Z</time>
      </trkpt>
      <trkpt lat="44.98613" lon="-0.25589">
        <ele>9.6</ele>
        <time>2021-06-03T12:47:00.000Z</time>
      </trkpt>
      <trkpt lat="44.9861" lon="-0.25593">
        <ele>9.8</ele>
        <time>2021-06-03T12:47:01.000Z</time>
      </trkpt>
      <trkpt lat="44.98606" lon="-0.25597">
        <ele>9.9</ele>
        <time>2021-06-03T12:47:02.000Z</time>
      </trkpt>
      <trkpt lat="44.98602" lon="-0.25602">
        <ele>10</ele>
        <time>2021-06-03T12:47:03.000Z</time>
      </trkpt>
      <trkpt lat="44.98599" lon="-0.25607">
        <ele>10</ele>
        <time>2021-06-03T12:47:04.000Z</time>
      </trkpt>
      <trkpt lat="44.98593" lon="-0.25615">
        <ele>10.5</ele>
        <time>2021-06-03T12:47:06.000Z</time>
      </trkpt>
      <trkpt lat="44.98588" lon="-0.25621">
        <ele>10.5</ele>
        <time>2021-06-03T12:47:08.000Z</time>
      </trkpt>
      <trkpt lat="44.98582" lon="-0.25628">
        <ele>11</ele>
        <time>2021-06-03T12:47:11.000Z</time>
      </trkpt>
      <trkpt lat="44.98577" lon="-0.25637">
        <ele>11.9</ele>
        <time>2021-06-03T12:47:15.000Z</time>
      </trkpt>
      <trkpt lat="44.98572" lon="-0.25645">
        <ele>12.5</ele>
        <time>2021-06-03T12:47:18.000Z</time>
      </trkpt>
      <trkpt lat="44.98566" lon="-0.25653">
        <ele>12.2</ele>
        <time>2021-06-03T12:47:21.000Z</time>
      </trkpt>
      <trkpt lat="44.9856" lon="-0.25661">
        <ele>12.6</ele>
        <time>2021-06-03T12:47:25.000Z</time>
      </trkpt>
      <trkpt lat="44.98555" lon="-0.25668">
        <ele>13.9</ele>
        <time>2021-06-03T12:47:28.000Z</time>
      </trkpt>
      <trkpt lat="44.9855" lon="-0.25675">
        <ele>14.4</ele>
        <time>2021-06-03T12:47:31.000Z</time>
      </trkpt>
      <trkpt lat="44.98543" lon="-0.25683">
        <ele>15.1</ele>
        <time>2021-06-03T12:47:35.000Z</time>
      </trkpt>
      <trkpt lat="44.98536" lon="-0.25691">
        <ele>15.1</ele>
        <time>2021-06-03T12:47:39.000Z</time>
      </trkpt>
      <trkpt lat="44.98529" lon="-0.25698">
        <ele>16</ele>
        <time>2021-06-03T12:47:43.000Z</time>
      </trkpt>
      <trkpt lat="44.98523" lon="-0.25706">
        <ele>16.2</ele>
        <time>2021-06-03T12:47:48.000Z</time>
      </trkpt>
      <trkpt lat="44.98522" lon="-0.25718">
        <ele>16.9</ele>
        <time>2021-06-03T12:47:53.000Z</time>
      </trkpt>
      <trkpt lat="44.98525" lon="-0.25728">
        <ele>17.2</ele>
        <time>2021-06-03T12:47:56.000Z</time>
      </trkpt>
      <trkpt lat="44.98528" lon="-0.2574">
        <ele>17.2</ele>
        <time>2021-06-03T12:47:59.000Z</time>
      </trkpt>
      <trkpt lat="44.98529" lon="-0.25744">
        <ele>17.6</ele>
        <time>2021-06-03T12:48:00.000Z</time>
      </trkpt>
      <trkpt lat="44.98533" lon="-0.25757">
        <ele>17.8</ele>
        <time>2021-06-03T12:48:03.000Z</time>
      </trkpt>
      <trkpt lat="44.98536" lon="-0.25766">
        <ele>18.2</ele>
        <time>2021-06-03T12:48:05.000Z</time>
      </trkpt>
      <trkpt lat="44.98539" lon="-0.25775">
        <ele>17.9</ele>
        <time>2021-06-03T12:48:07.000Z</time>
      </trkpt>
      <trkpt lat="44.98542" lon="-0.25784">
        <ele>17.7</ele>
        <time>2021-06-03T12:48:09.000Z</time>
      </trkpt>
      <trkpt lat="44.98546" lon="-0.25794">
        <ele>17.9</ele>
        <time>2021-06-03T12:48:11.000Z</time>
      </trkpt>
      <trkpt lat="44.98549" lon="-0.25802">
        <ele>17.5</ele>
        <time>2021-06-03T12:48:13.000Z</time>
      </trkpt>
      <trkpt lat="44.98553" lon="-0.25811">
        <ele>17.5</ele>
        <time>2021-06-03T12:48:15.000Z</time>
      </trkpt>
      <trkpt lat="44.98558" lon="-0.25819">
        <ele>16.8</ele>
        <time>2021-06-03T12:48:17.000Z</time>
      </trkpt>
      <trkpt lat="44.98563" lon="-0.25828">
        <ele>16.7</ele>
        <time>2021-06-03T12:48:19.000Z</time>
      </trkpt>
      <trkpt lat="44.98567" lon="-0.25838">
        <ele>16.8</ele>
        <time>2021-06-03T12:48:21.000Z</time>
      </trkpt>
      <trkpt lat="44.98572" lon="-0.25847">
        <ele>17.2</ele>
        <time>2021-06-03T12:48:23.000Z</time>
      </trkpt>
      <trkpt lat="44.98577" lon="-0.25856">
        <ele>17.8</ele>
        <time>2021-06-03T12:48:25.000Z</time>
      </trkpt>
      <trkpt lat="44.98582" lon="-0.25866">
        <ele>17.5</ele>
        <time>2021-06-03T12:48:27.000Z</time>
      </trkpt>
      <trkpt lat="44.98586" lon="-0.25876">
        <ele>17</ele>
        <time>2021-06-03T12:48:29.000Z</time>
      </trkpt>
      <trkpt lat="44.98591" lon="-0.25886">
        <ele>16.8</ele>
        <time>2021-06-03T12:48:31.000Z</time>
      </trkpt>
      <trkpt lat="44.98596" lon="-0.25896">
        <ele>16.8</ele>
        <time>2021-06-03T12:48:33.000Z</time>
      </trkpt>
      <trkpt lat="44.98601" lon="-0.25905">
        <ele>17.1</ele>
        <time>2021-06-03T12:48:35.000Z</time>
      </trkpt>
      <trkpt lat="44.98606" lon="-0.25914">
        <ele>17.4</ele>
        <time>2021-06-03T12:48:37.000Z</time>
      </trkpt>
      <trkpt lat="44.98611" lon="-0.25924">
        <ele>17</ele>
        <time>2021-06-03T12:48:39.000Z</time>
      </trkpt>
      <trkpt lat="44.98615" lon="-0.25933">
        <ele>17.1</ele>
        <time>2021-06-03T12:48:41.000Z</time>
      </trkpt>
      <trkpt lat="44.9862" lon="-0.25943">
        <ele>17.2</ele>
        <time>2021-06-03T12:48:43.000Z</time>
      </trkpt>
      <trkpt lat="44.98625" lon="-0.25952">
        <ele>17</ele>
        <time>2021-06-03T12:48:45.000Z</time>
      </trkpt>
      <trkpt lat="44.98629" lon="-0.25962">
        <ele>16.7</ele>
        <time>2021-06-03T12:48:47.000Z</time>
      </trkpt>
      <trkpt lat="44.98634" lon="-0.25972">
        <ele>16.5</ele>
        <time>2021-06-03T12:48:49.000Z</time>
      </trkpt>
      <trkpt lat="44.98638" lon="-0.25981">
        <ele>16.9</ele>
        <time>2021-06-03T12:48:51.000Z</time>
      </trkpt>
      <trkpt lat="44.98642" lon="-0.25989">
        <ele>17.8</ele>
        <time>2021-06-03T12:48:53.000Z</time>
      </trkpt>
      <trkpt lat="44.98647" lon="-0.25999">
        <ele>17.7</ele>
        <time>2021-06-03T12:48:55.000Z</time>
      </trkpt>
      <trkpt lat="44.98651" lon="-0.26008">
        <ele>17.4</ele>
        <time>2021-06-03T12:48:57.000Z</time>
      </trkpt>
      <trkpt lat="44.98655" lon="-0.26017">
        <ele>17.1</ele>
        <time>2021-06-03T12:48:59.000Z</time>
      </trkpt>
      <trkpt lat="44.9866" lon="-0.26026">
        <ele>17.2</ele>
        <time>2021-06-03T12:49:01.000Z</time>
      </trkpt>
      <trkpt lat="44.98662" lon="-0.26031">
        <ele>17.4</ele>
        <time>2021-06-03T12:49:02.000Z</time>
      </trkpt>
      <trkpt lat="44.9867" lon="-0.26045">
        <ele>17.2</ele>
        <time>2021-06-03T12:49:05.000Z</time>
      </trkpt>
      <trkpt lat="44.98674" lon="-0.26056">
        <ele>17.5</ele>
        <time>2021-06-03T12:49:07.000Z</time>
      </trkpt>
      <trkpt lat="44.98675" lon="-0.26062">
        <ele>17.5</ele>
        <time>2021-06-03T12:49:08.000Z</time>
      </trkpt>
      <trkpt lat="44.98677" lon="-0.26069">
        <ele>17.3</ele>
        <time>2021-06-03T12:49:09.000Z</time>
      </trkpt>
      <trkpt lat="44.98679" lon="-0.26075">
        <ele>17.1</ele>
        <time>2021-06-03T12:49:10.000Z</time>
      </trkpt>
      <trkpt lat="44.9868" lon="-0.26087">
        <ele>17.4</ele>
        <time>2021-06-03T12:49:12.000Z</time>
      </trkpt>
      <trkpt lat="44.98681" lon="-0.26098">
        <ele>17</ele>
        <time>2021-06-03T12:49:14.000Z</time>
      </trkpt>
      <trkpt lat="44.98681" lon="-0.26107">
        <ele>17</ele>
        <time>2021-06-03T12:49:16.000Z</time>
      </trkpt>
      <trkpt lat="44.9868" lon="-0.26117">
        <ele>17.2</ele>
        <time>2021-06-03T12:49:18.000Z</time>
      </trkpt>
      <trkpt lat="44.98679" lon="-0.26126">
        <ele>17.4</ele>
        <time>2021-06-03T12:49:20.000Z</time>
      </trkpt>
      <trkpt lat="44.98677" lon="-0.26138">
        <ele>17.6</ele>
        <time>2021-06-03T12:49:23.000Z</time>
      </trkpt>
      <trkpt lat="44.98676" lon="-0.26149">
        <ele>18.2</ele>
        <time>2021-06-03T12:49:26.000Z</time>
      </trkpt>
      <trkpt lat="44.98676" lon="-0.26157">
        <ele>18.3</ele>
        <time>2021-06-03T12:49:28.000Z</time>
      </trkpt>
      <trkpt lat="44.98674" lon="-0.26166">
        <ele>18</ele>
        <time>2021-06-03T12:49:30.000Z</time>
      </trkpt>
      <trkpt lat="44.98669" lon="-0.26174">
        <ele>17.8</ele>
        <time>2021-06-03T12:49:32.000Z</time>
      </trkpt>
      <trkpt lat="44.98665" lon="-0.26181">
        <ele>17.7</ele>
        <time>2021-06-03T12:49:34.000Z</time>
      </trkpt>
      <trkpt lat="44.98662" lon="-0.26189">
        <ele>17.8</ele>
        <time>2021-06-03T12:49:36.000Z</time>
      </trkpt>
      <trkpt lat="44.98661" lon="-0.26201">
        <ele>17.9</ele>
        <time>2021-06-03T12:49:39.000Z</time>
      </trkpt>
      <trkpt lat="44.98661" lon="-0.2621">
        <ele>17.9</ele>
        <time>2021-06-03T12:49:41.000Z</time>
      </trkpt>
      <trkpt lat="44.98661" lon="-0.26221">
        <ele>17.8</ele>
        <time>2021-06-03T12:49:43.000Z</time>
      </trkpt>
      <trkpt lat="44.98661" lon="-0.26232">
        <ele>18.2</ele>
        <time>2021-06-03T12:49:45.000Z</time>
      </trkpt>
      <trkpt lat="44.98662" lon="-0.26242">
        <ele>18.8</ele>
        <time>2021-06-03T12:49:47.000Z</time>
      </trkpt>
      <trkpt lat="44.98663" lon="-0.26252">
        <ele>18.9</ele>
        <time>2021-06-03T12:49:49.000Z</time>
      </trkpt>
      <trkpt lat="44.98665" lon="-0.26262">
        <ele>18.7</ele>
        <time>2021-06-03T12:49:51.000Z</time>
      </trkpt>
      <trkpt lat="44.98666" lon="-0.26274">
        <ele>18.9</ele>
        <time>2021-06-03T12:49:54.000Z</time>
      </trkpt>
      <trkpt lat="44.98668" lon="-0.26285">
        <ele>18.8</ele>
        <time>2021-06-03T12:49:57.000Z</time>
      </trkpt>
      <trkpt lat="44.9867" lon="-0.26297">
        <ele>18.8</ele>
        <time>2021-06-03T12:50:00.000Z</time>
      </trkpt>
      <trkpt lat="44.98672" lon="-0.26306">
        <ele>19.5</ele>
        <time>2021-06-03T12:50:03.000Z</time>
      </trkpt>
      <trkpt lat="44.98673" lon="-0.26309">
        <ele>19.7</ele>
        <time>2021-06-03T12:50:04.000Z</time>
      </trkpt>
      <trkpt lat="44.98678" lon="-0.26326">
        <ele>20.1</ele>
        <time>2021-06-03T12:50:09.000Z</time>
      </trkpt>
      <trkpt lat="44.9868" lon="-0.26335">
        <ele>20</ele>
        <time>2021-06-03T12:50:11.000Z</time>
      </trkpt>
      <trkpt lat="44.98682" lon="-0.26344">
        <ele>20</ele>
        <time>2021-06-03T12:50:13.000Z</time>
      </trkpt>
      <trkpt lat="44.98685" lon="-0.26353">
        <ele>20.1</ele>
        <time>2021-06-03T12:50:15.000Z</time>
      </trkpt>
      <trkpt lat="44.98687" lon="-0.26363">
        <ele>20.5</ele>
        <time>2021-06-03T12:50:17.000Z</time>
      </trkpt>
      <trkpt lat="44.9869" lon="-0.26373">
        <ele>20.8</ele>
        <time>2021-06-03T12:50:19.000Z</time>
      </trkpt>
      <trkpt lat="44.98693" lon="-0.26382">
        <ele>20.8</ele>
        <time>2021-06-03T12:50:21.000Z</time>
      </trkpt>
      <trkpt lat="44.98696" lon="-0.2639">
        <ele>21.3</ele>
        <time>2021-06-03T12:50:23.000Z</time>
      </trkpt>
      <trkpt lat="44.98699" lon="-0.26399">
        <ele>21.3</ele>
        <time>2021-06-03T12:50:25.000Z</time>
      </trkpt>
      <trkpt lat="44.98702" lon="-0.26407">
        <ele>21.3</ele>
        <time>2021-06-03T12:50:27.000Z</time>
      </trkpt>
      <trkpt lat="44.98706" lon="-0.26415">
        <ele>21.3</ele>
        <time>2021-06-03T12:50:29.000Z</time>
      </trkpt>
      <trkpt lat="44.98709" lon="-0.26423">
        <ele>21.3</ele>
        <time>2021-06-03T12:50:31.000Z</time>
      </trkpt>
      <trkpt lat="44.98713" lon="-0.26432">
        <ele>21.7</ele>
        <time>2021-06-03T12:50:33.000Z</time>
      </trkpt>
      <trkpt lat="44.98717" lon="-0.26442">
        <ele>21.5</ele>
        <time>2021-06-03T12:50:35.000Z</time>
      </trkpt>
      <trkpt lat="44.98721" lon="-0.26452">
        <ele>21.8</ele>
        <time>2021-06-03T12:50:37.000Z</time>
      </trkpt>
      <trkpt lat="44.98725" lon="-0.26463">
        <ele>21.9</ele>
        <time>2021-06-03T12:50:39.000Z</time>
      </trkpt>
      <trkpt lat="44.98729" lon="-0.26474">
        <ele>22</ele>
        <time>2021-06-03T12:50:41.000Z</time>
      </trkpt>
      <trkpt lat="44.98733" lon="-0.26485">
        <ele>22</ele>
        <time>2021-06-03T12:50:43.000Z</time>
      </trkpt>
      <trkpt lat="44.98737" lon="-0.26496">
        <ele>22.2</ele>
        <time>2021-06-03T12:50:45.000Z</time>
      </trkpt>
      <trkpt lat="44.98741" lon="-0.26506">
        <ele>22.4</ele>
        <time>2021-06-03T12:50:47.000Z</time>
      </trkpt>
      <trkpt lat="44.98745" lon="-0.26517">
        <ele>22.6</ele>
        <time>2021-06-03T12:50:49.000Z</time>
      </trkpt>
      <trkpt lat="44.98748" lon="-0.26528">
        <ele>22.8</ele>
        <time>2021-06-03T12:50:51.000Z</time>
      </trkpt>
      <trkpt lat="44.98751" lon="-0.26539">
        <ele>23</ele>
        <time>2021-06-03T12:50:53.000Z</time>
      </trkpt>
      <trkpt lat="44.98754" lon="-0.26549">
        <ele>23</ele>
        <time>2021-06-03T12:50:55.000Z</time>
      </trkpt>
      <trkpt lat="44.98756" lon="-0.2656">
        <ele>23.1</ele>
        <time>2021-06-03T12:50:57.000Z</time>
      </trkpt>
      <trkpt lat="44.98759" lon="-0.26571">
        <ele>23.9</ele>
        <time>2021-06-03T12:50:59.000Z</time>
      </trkpt>
      <trkpt lat="44.98761" lon="-0.26582">
        <ele>23</ele>
        <time>2021-06-03T12:51:01.000Z</time>
      </trkpt>
      <trkpt lat="44.98764" lon="-0.26593">
        <ele>22.8</ele>
        <time>2021-06-03T12:51:03.000Z</time>
      </trkpt>
      <trkpt lat="44.98766" lon="-0.26604">
        <ele>23.2</ele>
        <time>2021-06-03T12:51:05.000Z</time>
      </trkpt>
      <trkpt lat="44.98767" lon="-0.2661">
        <ele>23.5</ele>
        <time>2021-06-03T12:51:06.000Z</time>
      </trkpt>
      <trkpt lat="44.98771" lon="-0.26627">
        <ele>24.5</ele>
        <time>2021-06-03T12:51:09.000Z</time>
      </trkpt>
      <trkpt lat="44.98774" lon="-0.26637">
        <ele>24.5</ele>
        <time>2021-06-03T12:51:11.000Z</time>
      </trkpt>
      <trkpt lat="44.98777" lon="-0.26649">
        <ele>24.9</ele>
        <time>2021-06-03T12:51:13.000Z</time>
      </trkpt>
      <trkpt lat="44.98779" lon="-0.26661">
        <ele>24.4</ele>
        <time>2021-06-03T12:51:15.000Z</time>
      </trkpt>
      <trkpt lat="44.98782" lon="-0.26672">
        <ele>24.5</ele>
        <time>2021-06-03T12:51:17.000Z</time>
      </trkpt>
      <trkpt lat="44.98785" lon="-0.26683">
        <ele>24.6</ele>
        <time>2021-06-03T12:51:19.000Z</time>
      </trkpt>
      <trkpt lat="44.98789" lon="-0.26694">
        <ele>24.2</ele>
        <time>2021-06-03T12:51:21.000Z</time>
      </trkpt>
      <trkpt lat="44.98792" lon="-0.26705">
        <ele>23.9</ele>
        <time>2021-06-03T12:51:23.000Z</time>
      </trkpt>
      <trkpt lat="44.98795" lon="-0.26716">
        <ele>24.5</ele>
        <time>2021-06-03T12:51:25.000Z</time>
      </trkpt>
      <trkpt lat="44.98798" lon="-0.26726">
        <ele>24.6</ele>
        <time>2021-06-03T12:51:27.000Z</time>
      </trkpt>
      <trkpt lat="44.98801" lon="-0.26737">
        <ele>25.2</ele>
        <time>2021-06-03T12:51:29.000Z</time>
      </trkpt>
      <trkpt lat="44.98805" lon="-0.26748">
        <ele>25.5</ele>
        <time>2021-06-03T12:51:31.000Z</time>
      </trkpt>
      <trkpt lat="44.98808" lon="-0.26759">
        <ele>25.7</ele>
        <time>2021-06-03T12:51:33.000Z</time>
      </trkpt>
      <trkpt lat="44.98812" lon="-0.2677">
        <ele>26.1</ele>
        <time>2021-06-03T12:51:35.000Z</time>
      </trkpt>
      <trkpt lat="44.98815" lon="-0.2678">
        <ele>26.9</ele>
        <time>2021-06-03T12:51:37.000Z</time>
      </trkpt>
      <trkpt lat="44.98819" lon="-0.26789">
        <ele>26.6</ele>
        <time>2021-06-03T12:51:39.000Z</time>
      </trkpt>
      <trkpt lat="44.98822" lon="-0.26799">
        <ele>26.8</ele>
        <time>2021-06-03T12:51:41.000Z</time>
      </trkpt>
      <trkpt lat="44.98825" lon="-0.26809">
        <ele>26.7</ele>
        <time>2021-06-03T12:51:43.000Z</time>
      </trkpt>
      <trkpt lat="44.98828" lon="-0.26819">
        <ele>26.5</ele>
        <time>2021-06-03T12:51:45.000Z</time>
      </trkpt>
      <trkpt lat="44.98832" lon="-0.2683">
        <ele>26.4</ele>
        <time>2021-06-03T12:51:47.000Z</time>
      </trkpt>
      <trkpt lat="44.98835" lon="-0.26841">
        <ele>26.1</ele>
        <time>2021-06-03T12:51:49.000Z</time>
      </trkpt>
      <trkpt lat="44.98838" lon="-0.26851">
        <ele>26.8</ele>
        <time>2021-06-03T12:51:51.000Z</time>
      </trkpt>
      <trkpt lat="44.98842" lon="-0.26862">
        <ele>27.5</ele>
        <time>2021-06-03T12:51:53.000Z</time>
      </trkpt>
      <trkpt lat="44.98845" lon="-0.26872">
        <ele>27.5</ele>
        <time>2021-06-03T12:51:55.000Z</time>
      </trkpt>
      <trkpt lat="44.98848" lon="-0.26882">
        <ele>26.9</ele>
        <time>2021-06-03T12:51:57.000Z</time>
      </trkpt>
      <trkpt lat="44.98851" lon="-0.26893">
        <ele>26.8</ele>
        <time>2021-06-03T12:51:59.000Z</time>
      </trkpt>
      <trkpt lat="44.98855" lon="-0.26903">
        <ele>27.2</ele>
        <time>2021-06-03T12:52:01.000Z</time>
      </trkpt>
      <trkpt lat="44.98859" lon="-0.26912">
        <ele>27.7</ele>
        <time>2021-06-03T12:52:03.000Z</time>
      </trkpt>
      <trkpt lat="44.98863" lon="-0.26922">
        <ele>28.1</ele>
        <time>2021-06-03T12:52:05.000Z</time>
      </trkpt>
      <trkpt lat="44.98867" lon="-0.26933">
        <ele>27.7</ele>
        <time>2021-06-03T12:52:07.000Z</time>
      </trkpt>
      <trkpt lat="44.98869" lon="-0.26938">
        <ele>27.5</ele>
        <time>2021-06-03T12:52:08.000Z</time>
      </trkpt>
      <trkpt lat="44.98875" lon="-0.26953">
        <ele>27.5</ele>
        <time>2021-06-03T12:52:11.000Z</time>
      </trkpt>
      <trkpt lat="44.98879" lon="-0.26964">
        <ele>27.5</ele>
        <time>2021-06-03T12:52:13.000Z</time>
      </trkpt>
      <trkpt lat="44.98883" lon="-0.26975">
        <ele>27.8</ele>
        <time>2021-06-03T12:52:15.000Z</time>
      </trkpt>
      <trkpt lat="44.98885" lon="-0.26981">
        <ele>27.3</ele>
        <time>2021-06-03T12:52:16.000Z</time>
      </trkpt>
      <trkpt lat="44.98887" lon="-0.26988">
        <ele>27</ele>
        <time>2021-06-03T12:52:17.000Z</time>
      </trkpt>
      <trkpt lat="44.98889" lon="-0.26994">
        <ele>26.6</ele>
        <time>2021-06-03T12:52:18.000Z</time>
      </trkpt>
      <trkpt lat="44.98891" lon="-0.27001">
        <ele>26.4</ele>
        <time>2021-06-03T12:52:19.000Z</time>
      </trkpt>
      <trkpt lat="44.98894" lon="-0.27007">
        <ele>26.2</ele>
        <time>2021-06-03T12:52:20.000Z</time>
      </trkpt>
      <trkpt lat="44.98896" lon="-0.27014">
        <ele>26.3</ele>
        <time>2021-06-03T12:52:21.000Z</time>
      </trkpt>
      <trkpt lat="44.98899" lon="-0.2702">
        <ele>26.3</ele>
        <time>2021-06-03T12:52:22.000Z</time>
      </trkpt>
      <trkpt lat="44.98901" lon="-0.27027">
        <ele>25.9</ele>
        <time>2021-06-03T12:52:23.000Z</time>
      </trkpt>
      <trkpt lat="44.98904" lon="-0.27033">
        <ele>25.7</ele>
        <time>2021-06-03T12:52:24.000Z</time>
      </trkpt>
      <trkpt lat="44.98907" lon="-0.2704">
        <ele>25.5</ele>
        <time>2021-06-03T12:52:25.000Z</time>
      </trkpt>
      <trkpt lat="44.98909" lon="-0.27046">
        <ele>25.3</ele>
        <time>2021-06-03T12:52:26.000Z</time>
      </trkpt>
      <trkpt lat="44.98912" lon="-0.27053">
        <ele>25.2</ele>
        <time>2021-06-03T12:52:27.000Z</time>
      </trkpt>
      <trkpt lat="44.98915" lon="-0.27059">
        <ele>25.1</ele>
        <time>2021-06-03T12:52:28.000Z</time>
      </trkpt>
      <trkpt lat="44.98918" lon="-0.27066">
        <ele>25</ele>
        <time>2021-06-03T12:52:29.000Z</time>
      </trkpt>
      <trkpt lat="44.98921" lon="-0.27073">
        <ele>25.2</ele>
        <time>2021-06-03T12:52:30.000Z</time>
      </trkpt>
      <trkpt lat="44.98925" lon="-0.27079">
        <ele>25.3</ele>
        <time>2021-06-03T12:52:31.000Z</time>
      </trkpt>
      <trkpt lat="44.98929" lon="-0.27085">
        <ele>25.4</ele>
        <time>2021-06-03T12:52:32.000Z</time>
      </trkpt>
      <trkpt lat="44.98934" lon="-0.2709">
        <ele>25.3</ele>
        <time>2021-06-03T12:52:33.000Z</time>
      </trkpt>
      <trkpt lat="44.98939" lon="-0.27095">
        <ele>25.2</ele>
        <time>2021-06-03T12:52:34.000Z</time>
      </trkpt>
      <trkpt lat="44.98944" lon="-0.27099">
        <ele>25.1</ele>
        <time>2021-06-03T12:52:35.000Z</time>
      </trkpt>
      <trkpt lat="44.9895" lon="-0.27102">
        <ele>25.1</ele>
        <time>2021-06-03T12:52:36.000Z</time>
      </trkpt>
      <trkpt lat="44.98955" lon="-0.27105">
        <ele>24.9</ele>
        <time>2021-06-03T12:52:37.000Z</time>
      </trkpt>
      <trkpt lat="44.9896" lon="-0.27108">
        <ele>24.8</ele>
        <time>2021-06-03T12:52:38.000Z</time>
      </trkpt>
      <trkpt lat="44.98965" lon="-0.2711">
        <ele>24.7</ele>
        <time>2021-06-03T12:52:39.000Z</time>
      </trkpt>
      <trkpt lat="44.9897" lon="-0.27113">
        <ele>24.5</ele>
        <time>2021-06-03T12:52:40.000Z</time>
      </trkpt>
      <trkpt lat="44.98974" lon="-0.27116">
        <ele>24.4</ele>
        <time>2021-06-03T12:52:41.000Z</time>
      </trkpt>
      <trkpt lat="44.98978" lon="-0.27118">
        <ele>24.7</ele>
        <time>2021-06-03T12:52:42.000Z</time>
      </trkpt>
      <trkpt lat="44.98987" lon="-0.27122">
        <ele>24.8</ele>
        <time>2021-06-03T12:52:44.000Z</time>
      </trkpt>
      <trkpt lat="44.98995" lon="-0.27126">
        <ele>24.7</ele>
        <time>2021-06-03T12:52:46.000Z</time>
      </trkpt>
      <trkpt lat="44.99002" lon="-0.2713">
        <ele>24.9</ele>
        <time>2021-06-03T12:52:48.000Z</time>
      </trkpt>
      <trkpt lat="44.99008" lon="-0.27135">
        <ele>25.4</ele>
        <time>2021-06-03T12:52:50.000Z</time>
      </trkpt>
      <trkpt lat="44.99014" lon="-0.27139">
        <ele>25.4</ele>
        <time>2021-06-03T12:52:52.000Z</time>
      </trkpt>
      <trkpt lat="44.99021" lon="-0.27142">
        <ele>25</ele>
        <time>2021-06-03T12:52:54.000Z</time>
      </trkpt>
      <trkpt lat="44.99029" lon="-0.27144">
        <ele>24.9</ele>
        <time>2021-06-03T12:52:56.000Z</time>
      </trkpt>
      <trkpt lat="44.99037" lon="-0.27146">
        <ele>25.2</ele>
        <time>2021-06-03T12:52:58.000Z</time>
      </trkpt>
      <trkpt lat="44.99044" lon="-0.27149">
        <ele>25.5</ele>
        <time>2021-06-03T12:53:00.000Z</time>
      </trkpt>
      <trkpt lat="44.9905" lon="-0.27152">
        <ele>25</ele>
        <time>2021-06-03T12:53:02.000Z</time>
      </trkpt>
      <trkpt lat="44.99057" lon="-0.27157">
        <ele>24.3</ele>
        <time>2021-06-03T12:53:04.000Z</time>
      </trkpt>
      <trkpt lat="44.99062" lon="-0.27167">
        <ele>24.4</ele>
        <time>2021-06-03T12:53:06.000Z</time>
      </trkpt>
      <trkpt lat="44.99065" lon="-0.27178">
        <ele>24.3</ele>
        <time>2021-06-03T12:53:08.000Z</time>
      </trkpt>
      <trkpt lat="44.99066" lon="-0.27183">
        <ele>24.1</ele>
        <time>2021-06-03T12:53:09.000Z</time>
      </trkpt>
      <trkpt lat="44.99068" lon="-0.27199">
        <ele>24.5</ele>
        <time>2021-06-03T12:53:12.000Z</time>
      </trkpt>
      <trkpt lat="44.9907" lon="-0.27209">
        <ele>25.2</ele>
        <time>2021-06-03T12:53:14.000Z</time>
      </trkpt>
      <trkpt lat="44.99071" lon="-0.27218">
        <ele>24.6</ele>
        <time>2021-06-03T12:53:16.000Z</time>
      </trkpt>
      <trkpt lat="44.99071" lon="-0.27226">
        <ele>24.4</ele>
        <time>2021-06-03T12:53:18.000Z</time>
      </trkpt>
      <trkpt lat="44.99066" lon="-0.27237">
        <ele>24.6</ele>
        <time>2021-06-03T12:53:21.000Z</time>
      </trkpt>
      <trkpt lat="44.9906" lon="-0.27243">
        <ele>25</ele>
        <time>2021-06-03T12:53:23.000Z</time>
      </trkpt>
      <trkpt lat="44.99055" lon="-0.2725">
        <ele>25.2</ele>
        <time>2021-06-03T12:53:25.000Z</time>
      </trkpt>
      <trkpt lat="44.99051" lon="-0.27259">
        <ele>25.4</ele>
        <time>2021-06-03T12:53:27.000Z</time>
      </trkpt>
      <trkpt lat="44.99047" lon="-0.27268">
        <ele>25.5</ele>
        <time>2021-06-03T12:53:29.000Z</time>
      </trkpt>
      <trkpt lat="44.99043" lon="-0.27278">
        <ele>26.5</ele>
        <time>2021-06-03T12:53:31.000Z</time>
      </trkpt>
      <trkpt lat="44.99039" lon="-0.27288">
        <ele>26.4</ele>
        <time>2021-06-03T12:53:33.000Z</time>
      </trkpt>
      <trkpt lat="44.99035" lon="-0.27298">
        <ele>26.9</ele>
        <time>2021-06-03T12:53:35.000Z</time>
      </trkpt>
      <trkpt lat="44.99032" lon="-0.27307">
        <ele>27.1</ele>
        <time>2021-06-03T12:53:37.000Z</time>
      </trkpt>
      <trkpt lat="44.99028" lon="-0.27316">
        <ele>27.3</ele>
        <time>2021-06-03T12:53:39.000Z</time>
      </trkpt>
      <trkpt lat="44.99025" lon="-0.27325">
        <ele>27.8</ele>
        <time>2021-06-03T12:53:41.000Z</time>
      </trkpt>
      <trkpt lat="44.99023" lon="-0.27333">
        <ele>28.2</ele>
        <time>2021-06-03T12:53:43.000Z</time>
      </trkpt>
      <trkpt lat="44.9902" lon="-0.27341">
        <ele>28.1</ele>
        <time>2021-06-03T12:53:45.000Z</time>
      </trkpt>
      <trkpt lat="44.99017" lon="-0.27349">
        <ele>28.4</ele>
        <time>2021-06-03T12:53:47.000Z</time>
      </trkpt>
      <trkpt lat="44.99014" lon="-0.27358">
        <ele>28.7</ele>
        <time>2021-06-03T12:53:49.000Z</time>
      </trkpt>
      <trkpt lat="44.99011" lon="-0.27366">
        <ele>28.9</ele>
        <time>2021-06-03T12:53:51.000Z</time>
      </trkpt>
      <trkpt lat="44.99008" lon="-0.27374">
        <ele>28.9</ele>
        <time>2021-06-03T12:53:53.000Z</time>
      </trkpt>
      <trkpt lat="44.99004" lon="-0.27382">
        <ele>28.9</ele>
        <time>2021-06-03T12:53:55.000Z</time>
      </trkpt>
      <trkpt lat="44.99" lon="-0.27389">
        <ele>29</ele>
        <time>2021-06-03T12:53:57.000Z</time>
      </trkpt>
      <trkpt lat="44.98996" lon="-0.27397">
        <ele>28.7</ele>
        <time>2021-06-03T12:53:59.000Z</time>
      </trkpt>
      <trkpt lat="44.98991" lon="-0.27405">
        <ele>29.1</ele>
        <time>2021-06-03T12:54:01.000Z</time>
      </trkpt>
      <trkpt lat="44.98986" lon="-0.27412">
        <ele>29.4</ele>
        <time>2021-06-03T12:54:03.000Z</time>
      </trkpt>
      <trkpt lat="44.98981" lon="-0.2742">
        <ele>29.6</ele>
        <time>2021-06-03T12:54:05.000Z</time>
      </trkpt>
      <trkpt lat="44.98975" lon="-0.27428">
        <ele>29.9</ele>
        <time>2021-06-03T12:54:07.000Z</time>
      </trkpt>
      <trkpt lat="44.98969" lon="-0.27435">
        <ele>29.9</ele>
        <time>2021-06-03T12:54:09.000Z</time>
      </trkpt>
      <trkpt lat="44.98966" lon="-0.27439">
        <ele>29.8</ele>
        <time>2021-06-03T12:54:10.000Z</time>
      </trkpt>
      <trkpt lat="44.98958" lon="-0.2745">
        <ele>30</ele>
        <time>2021-06-03T12:54:13.000Z</time>
      </trkpt>
      <trkpt lat="44.98952" lon="-0.27458">
        <ele>30.3</ele>
        <time>2021-06-03T12:54:15.000Z</time>
      </trkpt>
      <trkpt lat="44.98947" lon="-0.27465">
        <ele>30.2</ele>
        <time>2021-06-03T12:54:17.000Z</time>
      </trkpt>
      <trkpt lat="44.98941" lon="-0.27473">
        <ele>29.4</ele>
        <time>2021-06-03T12:54:19.000Z</time>
      </trkpt>
      <trkpt lat="44.98935" lon="-0.27481">
        <ele>28.6</ele>
        <time>2021-06-03T12:54:21.000Z</time>
      </trkpt>
      <trkpt lat="44.98929" lon="-0.27489">
        <ele>29.6</ele>
        <time>2021-06-03T12:54:23.000Z</time>
      </trkpt>
      <trkpt lat="44.98923" lon="-0.27497">
        <ele>29.9</ele>
        <time>2021-06-03T12:54:25.000Z</time>
      </trkpt>
      <trkpt lat="44.98917" lon="-0.27504">
        <ele>29.7</ele>
        <time>2021-06-03T12:54:27.000Z</time>
      </trkpt>
      <trkpt lat="44.9891" lon="-0.27513">
        <ele>30.1</ele>
        <time>2021-06-03T12:54:29.000Z</time>
      </trkpt>
      <trkpt lat="44.98904" lon="-0.27522">
        <ele>30.7</ele>
        <time>2021-06-03T12:54:31.000Z</time>
      </trkpt>
      <trkpt lat="44.98897" lon="-0.2753">
        <ele>31.1</ele>
        <time>2021-06-03T12:54:33.000Z</time>
      </trkpt>
      <trkpt lat="44.98891" lon="-0.27538">
        <ele>30.7</ele>
        <time>2021-06-03T12:54:35.000Z</time>
      </trkpt>
      <trkpt lat="44.98884" lon="-0.27547">
        <ele>31</ele>
        <time>2021-06-03T12:54:37.000Z</time>
      </trkpt>
      <trkpt lat="44.98878" lon="-0.27556">
        <ele>29.9</ele>
        <time>2021-06-03T12:54:39.000Z</time>
      </trkpt>
      <trkpt lat="44.98871" lon="-0.27564">
        <ele>29.7</ele>
        <time>2021-06-03T12:54:41.000Z</time>
      </trkpt>
      <trkpt lat="44.98865" lon="-0.27572">
        <ele>30.1</ele>
        <time>2021-06-03T12:54:43.000Z</time>
      </trkpt>
      <trkpt lat="44.98859" lon="-0.2758">
        <ele>30.4</ele>
        <time>2021-06-03T12:54:45.000Z</time>
      </trkpt>
      <trkpt lat="44.98852" lon="-0.27589">
        <ele>31</ele>
        <time>2021-06-03T12:54:47.000Z</time>
      </trkpt>
      <trkpt lat="44.98846" lon="-0.27596">
        <ele>30.7</ele>
        <time>2021-06-03T12:54:49.000Z</time>
      </trkpt>
      <trkpt lat="44.9884" lon="-0.27605">
        <ele>30.1</ele>
        <time>2021-06-03T12:54:51.000Z</time>
      </trkpt>
      <trkpt lat="44.98836" lon="-0.27609">
        <ele>29.9</ele>
        <time>2021-06-03T12:54:52.000Z</time>
      </trkpt>
      <trkpt lat="44.9883" lon="-0.27618">
        <ele>30.3</ele>
        <time>2021-06-03T12:54:54.000Z</time>
      </trkpt>
      <trkpt lat="44.98824" lon="-0.27627">
        <ele>31.4</ele>
        <time>2021-06-03T12:54:56.000Z</time>
      </trkpt>
      <trkpt lat="44.98818" lon="-0.27635">
        <ele>31.6</ele>
        <time>2021-06-03T12:54:58.000Z</time>
      </trkpt>
      <trkpt lat="44.98812" lon="-0.27642">
        <ele>31.8</ele>
        <time>2021-06-03T12:55:00.000Z</time>
      </trkpt>
      <trkpt lat="44.98806" lon="-0.2765">
        <ele>31.9</ele>
        <time>2021-06-03T12:55:02.000Z</time>
      </trkpt>
      <trkpt lat="44.988" lon="-0.27658">
        <ele>32.1</ele>
        <time>2021-06-03T12:55:04.000Z</time>
      </trkpt>
      <trkpt lat="44.98794" lon="-0.27666">
        <ele>32.4</ele>
        <time>2021-06-03T12:55:06.000Z</time>
      </trkpt>
      <trkpt lat="44.98787" lon="-0.27674">
        <ele>32.7</ele>
        <time>2021-06-03T12:55:08.000Z</time>
      </trkpt>
      <trkpt lat="44.98781" lon="-0.27683">
        <ele>33.2</ele>
        <time>2021-06-03T12:55:10.000Z</time>
      </trkpt>
      <trkpt lat="44.98778" lon="-0.27687">
        <ele>33.3</ele>
        <time>2021-06-03T12:55:11.000Z</time>
      </trkpt>
      <trkpt lat="44.98768" lon="-0.27699">
        <ele>32.7</ele>
        <time>2021-06-03T12:55:14.000Z</time>
      </trkpt>
      <trkpt lat="44.98762" lon="-0.27707">
        <ele>32.6</ele>
        <time>2021-06-03T12:55:16.000Z</time>
      </trkpt>
      <trkpt lat="44.98756" lon="-0.27715">
        <ele>32.5</ele>
        <time>2021-06-03T12:55:18.000Z</time>
      </trkpt>
      <trkpt lat="44.98749" lon="-0.27724">
        <ele>33.3</ele>
        <time>2021-06-03T12:55:20.000Z</time>
      </trkpt>
      <trkpt lat="44.98744" lon="-0.27731">
        <ele>33.2</ele>
        <time>2021-06-03T12:55:22.000Z</time>
      </trkpt>
      <trkpt lat="44.98738" lon="-0.2774">
        <ele>33.3</ele>
        <time>2021-06-03T12:55:24.000Z</time>
      </trkpt>
      <trkpt lat="44.98731" lon="-0.27748">
        <ele>33.6</ele>
        <time>2021-06-03T12:55:26.000Z</time>
      </trkpt>
      <trkpt lat="44.98725" lon="-0.27757">
        <ele>33.6</ele>
        <time>2021-06-03T12:55:28.000Z</time>
      </trkpt>
      <trkpt lat="44.98719" lon="-0.27766">
        <ele>33.5</ele>
        <time>2021-06-03T12:55:30.000Z</time>
      </trkpt>
      <trkpt lat="44.98714" lon="-0.27775">
        <ele>34.4</ele>
        <time>2021-06-03T12:55:32.000Z</time>
      </trkpt>
      <trkpt lat="44.98709" lon="-0.27784">
        <ele>34.3</ele>
        <time>2021-06-03T12:55:34.000Z</time>
      </trkpt>
      <trkpt lat="44.98703" lon="-0.27793">
        <ele>34.3</ele>
        <time>2021-06-03T12:55:36.000Z</time>
      </trkpt>
      <trkpt lat="44.98698" lon="-0.27802">
        <ele>34.4</ele>
        <time>2021-06-03T12:55:38.000Z</time>
      </trkpt>
      <trkpt lat="44.98693" lon="-0.27812">
        <ele>34.5</ele>
        <time>2021-06-03T12:55:40.000Z</time>
      </trkpt>
      <trkpt lat="44.98687" lon="-0.2782">
        <ele>34.5</ele>
        <time>2021-06-03T12:55:42.000Z</time>
      </trkpt>
      <trkpt lat="44.98682" lon="-0.27829">
        <ele>34.4</ele>
        <time>2021-06-03T12:55:44.000Z</time>
      </trkpt>
      <trkpt lat="44.98677" lon="-0.27839">
        <ele>34.8</ele>
        <time>2021-06-03T12:55:46.000Z</time>
      </trkpt>
      <trkpt lat="44.98672" lon="-0.27848">
        <ele>35.1</ele>
        <time>2021-06-03T12:55:48.000Z</time>
      </trkpt>
      <trkpt lat="44.98666" lon="-0.27857">
        <ele>35.3</ele>
        <time>2021-06-03T12:55:50.000Z</time>
      </trkpt>
      <trkpt lat="44.98662" lon="-0.27865">
        <ele>35.5</ele>
        <time>2021-06-03T12:55:52.000Z</time>
      </trkpt>
      <trkpt lat="44.98657" lon="-0.27874">
        <ele>35.7</ele>
        <time>2021-06-03T12:55:54.000Z</time>
      </trkpt>
      <trkpt lat="44.98651" lon="-0.27883">
        <ele>36</ele>
        <time>2021-06-03T12:55:56.000Z</time>
      </trkpt>
      <trkpt lat="44.98646" lon="-0.27892">
        <ele>36.4</ele>
        <time>2021-06-03T12:55:58.000Z</time>
      </trkpt>
      <trkpt lat="44.98641" lon="-0.27901">
        <ele>35.8</ele>
        <time>2021-06-03T12:56:00.000Z</time>
      </trkpt>
      <trkpt lat="44.98636" lon="-0.27911">
        <ele>35.6</ele>
        <time>2021-06-03T12:56:02.000Z</time>
      </trkpt>
      <trkpt lat="44.98631" lon="-0.2792">
        <ele>35.8</ele>
        <time>2021-06-03T12:56:04.000Z</time>
      </trkpt>
      <trkpt lat="44.98626" lon="-0.27929">
        <ele>36.3</ele>
        <time>2021-06-03T12:56:06.000Z</time>
      </trkpt>
      <trkpt lat="44.9862" lon="-0.27938">
        <ele>36.6</ele>
        <time>2021-06-03T12:56:08.000Z</time>
      </trkpt>
      <trkpt lat="44.98615" lon="-0.27948">
        <ele>35.9</ele>
        <time>2021-06-03T12:56:10.000Z</time>
      </trkpt>
      <trkpt lat="44.98609" lon="-0.27957">
        <ele>36.2</ele>
        <time>2021-06-03T12:56:12.000Z</time>
      </trkpt>
      <trkpt lat="44.98607" lon="-0.27962">
        <ele>36.2</ele>
        <time>2021-06-03T12:56:13.000Z</time>
      </trkpt>
      <trkpt lat="44.98599" lon="-0.27976">
        <ele>35.8</ele>
        <time>2021-06-03T12:56:16.000Z</time>
      </trkpt>
      <trkpt lat="44.98593" lon="-0.27986">
        <ele>35.7</ele>
        <time>2021-06-03T12:56:18.000Z</time>
      </trkpt>
      <trkpt lat="44.98588" lon="-0.27996">
        <ele>35.7</ele>
        <time>2021-06-03T12:56:20.000Z</time>
      </trkpt>
      <trkpt lat="44.98585" lon="-0.28002">
        <ele>35.7</ele>
        <time>2021-06-03T12:56:21.000Z</time>
      </trkpt>
      <trkpt lat="44.98582" lon="-0.28007">
        <ele>35.7</ele>
        <time>2021-06-03T12:56:22.000Z</time>
      </trkpt>
      <trkpt lat="44.98579" lon="-0.28012">
        <ele>35.7</ele>
        <time>2021-06-03T12:56:23.000Z</time>
      </trkpt>
      <trkpt lat="44.98576" lon="-0.28017">
        <ele>35.8</ele>
        <time>2021-06-03T12:56:24.000Z</time>
      </trkpt>
      <trkpt lat="44.98573" lon="-0.28023">
        <ele>35.7</ele>
        <time>2021-06-03T12:56:25.000Z</time>
      </trkpt>
      <trkpt lat="44.9857" lon="-0.28028">
        <ele>35.6</ele>
        <time>2021-06-03T12:56:26.000Z</time>
      </trkpt>
      <trkpt lat="44.98567" lon="-0.28033">
        <ele>35.6</ele>
        <time>2021-06-03T12:56:27.000Z</time>
      </trkpt>
      <trkpt lat="44.98564" lon="-0.28039">
        <ele>35.5</ele>
        <time>2021-06-03T12:56:28.000Z</time>
      </trkpt>
      <trkpt lat="44.98561" lon="-0.28044">
        <ele>35.4</ele>
        <time>2021-06-03T12:56:29.000Z</time>
      </trkpt>
      <trkpt lat="44.98558" lon="-0.2805">
        <ele>35.5</ele>
        <time>2021-06-03T12:56:30.000Z</time>
      </trkpt>
      <trkpt lat="44.98555" lon="-0.28056">
        <ele>35.5</ele>
        <time>2021-06-03T12:56:31.000Z</time>
      </trkpt>
      <trkpt lat="44.98552" lon="-0.28061">
        <ele>35.6</ele>
        <time>2021-06-03T12:56:32.000Z</time>
      </trkpt>
      <trkpt lat="44.98549" lon="-0.28067">
        <ele>35.7</ele>
        <time>2021-06-03T12:56:33.000Z</time>
      </trkpt>
      <trkpt lat="44.98546" lon="-0.28072">
        <ele>35.7</ele>
        <time>2021-06-03T12:56:34.000Z</time>
      </trkpt>
      <trkpt lat="44.98543" lon="-0.28078">
        <ele>35.7</ele>
        <time>2021-06-03T12:56:35.000Z</time>
      </trkpt>
      <trkpt lat="44.9854" lon="-0.28083">
        <ele>35.8</ele>
        <time>2021-06-03T12:56:36.000Z</time>
      </trkpt>
      <trkpt lat="44.98537" lon="-0.28089">
        <ele>35.9</ele>
        <time>2021-06-03T12:56:37.000Z</time>
      </trkpt>
      <trkpt lat="44.98534" lon="-0.28095">
        <ele>36.1</ele>
        <time>2021-06-03T12:56:38.000Z</time>
      </trkpt>
      <trkpt lat="44.98531" lon="-0.281">
        <ele>36.3</ele>
        <time>2021-06-03T12:56:39.000Z</time>
      </trkpt>
      <trkpt lat="44.98526" lon="-0.2811">
        <ele>36.6</ele>
        <time>2021-06-03T12:56:41.000Z</time>
      </trkpt>
      <trkpt lat="44.98523" lon="-0.28115">
        <ele>36.8</ele>
        <time>2021-06-03T12:56:42.000Z</time>
      </trkpt>
      <trkpt lat="44.98521" lon="-0.2812">
        <ele>37</ele>
        <time>2021-06-03T12:56:43.000Z</time>
      </trkpt>
      <trkpt lat="44.98518" lon="-0.28126">
        <ele>37</ele>
        <time>2021-06-03T12:56:44.000Z</time>
      </trkpt>
      <trkpt lat="44.98515" lon="-0.28131">
        <ele>37</ele>
        <time>2021-06-03T12:56:45.000Z</time>
      </trkpt>
      <trkpt lat="44.98512" lon="-0.28136">
        <ele>36.8</ele>
        <time>2021-06-03T12:56:46.000Z</time>
      </trkpt>
      <trkpt lat="44.9851" lon="-0.28142">
        <ele>36.7</ele>
        <time>2021-06-03T12:56:47.000Z</time>
      </trkpt>
      <trkpt lat="44.98507" lon="-0.28147">
        <ele>36.6</ele>
        <time>2021-06-03T12:56:48.000Z</time>
      </trkpt>
      <trkpt lat="44.98504" lon="-0.28153">
        <ele>36.7</ele>
        <time>2021-06-03T12:56:49.000Z</time>
      </trkpt>
      <trkpt lat="44.98501" lon="-0.28158">
        <ele>36.8</ele>
        <time>2021-06-03T12:56:50.000Z</time>
      </trkpt>
      <trkpt lat="44.98498" lon="-0.28164">
        <ele>37</ele>
        <time>2021-06-03T12:56:51.000Z</time>
      </trkpt>
      <trkpt lat="44.98496" lon="-0.28169">
        <ele>37</ele>
        <time>2021-06-03T12:56:52.000Z</time>
      </trkpt>
      <trkpt lat="44.98493" lon="-0.28175">
        <ele>37.1</ele>
        <time>2021-06-03T12:56:53.000Z</time>
      </trkpt>
      <trkpt lat="44.9849" lon="-0.2818">
        <ele>37</ele>
        <time>2021-06-03T12:56:54.000Z</time>
      </trkpt>
      <trkpt lat="44.98485" lon="-0.2819">
        <ele>36.8</ele>
        <time>2021-06-03T12:56:56.000Z</time>
      </trkpt>
      <trkpt lat="44.9848" lon="-0.282">
        <ele>36.6</ele>
        <time>2021-06-03T12:56:58.000Z</time>
      </trkpt>
      <trkpt lat="44.98475" lon="-0.2821">
        <ele>36.5</ele>
        <time>2021-06-03T12:57:00.000Z</time>
      </trkpt>
      <trkpt lat="44.9847" lon="-0.2822">
        <ele>37.4</ele>
        <time>2021-06-03T12:57:02.000Z</time>
      </trkpt>
      <trkpt lat="44.98465" lon="-0.2823">
        <ele>37</ele>
        <time>2021-06-03T12:57:04.000Z</time>
      </trkpt>
      <trkpt lat="44.9846" lon="-0.28241">
        <ele>37</ele>
        <time>2021-06-03T12:57:06.000Z</time>
      </trkpt>
      <trkpt lat="44.98456" lon="-0.28251">
        <ele>36.9</ele>
        <time>2021-06-03T12:57:08.000Z</time>
      </trkpt>
      <trkpt lat="44.98451" lon="-0.28261">
        <ele>37.5</ele>
        <time>2021-06-03T12:57:10.000Z</time>
      </trkpt>
      <trkpt lat="44.98446" lon="-0.28271">
        <ele>38.3</ele>
        <time>2021-06-03T12:57:12.000Z</time>
      </trkpt>
      <trkpt lat="44.98441" lon="-0.28281">
        <ele>37.9</ele>
        <time>2021-06-03T12:57:14.000Z</time>
      </trkpt>
      <trkpt lat="44.98438" lon="-0.28286">
        <ele>37.9</ele>
        <time>2021-06-03T12:57:15.000Z</time>
      </trkpt>
      <trkpt lat="44.98431" lon="-0.28301">
        <ele>38.4</ele>
        <time>2021-06-03T12:57:18.000Z</time>
      </trkpt>
      <trkpt lat="44.98426" lon="-0.2831">
        <ele>38.2</ele>
        <time>2021-06-03T12:57:20.000Z</time>
      </trkpt>
      <trkpt lat="44.98421" lon="-0.2832">
        <ele>38.4</ele>
        <time>2021-06-03T12:57:22.000Z</time>
      </trkpt>
      <trkpt lat="44.98417" lon="-0.2833">
        <ele>38.9</ele>
        <time>2021-06-03T12:57:24.000Z</time>
      </trkpt>
      <trkpt lat="44.98411" lon="-0.2834">
        <ele>38.7</ele>
        <time>2021-06-03T12:57:26.000Z</time>
      </trkpt>
      <trkpt lat="44.98406" lon="-0.2835">
        <ele>39.1</ele>
        <time>2021-06-03T12:57:28.000Z</time>
      </trkpt>
      <trkpt lat="44.98401" lon="-0.28361">
        <ele>38.9</ele>
        <time>2021-06-03T12:57:30.000Z</time>
      </trkpt>
      <trkpt lat="44.98398" lon="-0.28366">
        <ele>38.9</ele>
        <time>2021-06-03T12:57:31.000Z</time>
      </trkpt>
      <trkpt lat="44.98396" lon="-0.28372">
        <ele>39.1</ele>
        <time>2021-06-03T12:57:32.000Z</time>
      </trkpt>
      <trkpt lat="44.98393" lon="-0.28377">
        <ele>39.3</ele>
        <time>2021-06-03T12:57:33.000Z</time>
      </trkpt>
      <trkpt lat="44.98391" lon="-0.28383">
        <ele>39.4</ele>
        <time>2021-06-03T12:57:34.000Z</time>
      </trkpt>
      <trkpt lat="44.98388" lon="-0.28388">
        <ele>39.5</ele>
        <time>2021-06-03T12:57:35.000Z</time>
      </trkpt>
      <trkpt lat="44.98385" lon="-0.28393">
        <ele>39.3</ele>
        <time>2021-06-03T12:57:36.000Z</time>
      </trkpt>
      <trkpt lat="44.98383" lon="-0.28399">
        <ele>39.1</ele>
        <time>2021-06-03T12:57:37.000Z</time>
      </trkpt>
      <trkpt lat="44.9838" lon="-0.28404">
        <ele>39</ele>
        <time>2021-06-03T12:57:38.000Z</time>
      </trkpt>
      <trkpt lat="44.98377" lon="-0.28409">
        <ele>38.9</ele>
        <time>2021-06-03T12:57:39.000Z</time>
      </trkpt>
      <trkpt lat="44.98372" lon="-0.2842">
        <ele>38.7</ele>
        <time>2021-06-03T12:57:41.000Z</time>
      </trkpt>
      <trkpt lat="44.98367" lon="-0.28429">
        <ele>39.1</ele>
        <time>2021-06-03T12:57:43.000Z</time>
      </trkpt>
      <trkpt lat="44.98363" lon="-0.2844">
        <ele>39.6</ele>
        <time>2021-06-03T12:57:45.000Z</time>
      </trkpt>
      <trkpt lat="44.98357" lon="-0.2845">
        <ele>40</ele>
        <time>2021-06-03T12:57:47.000Z</time>
      </trkpt>
      <trkpt lat="44.98355" lon="-0.28455">
        <ele>40</ele>
        <time>2021-06-03T12:57:48.000Z</time>
      </trkpt>
      <trkpt lat="44.98352" lon="-0.28461">
        <ele>40</ele>
        <time>2021-06-03T12:57:49.000Z</time>
      </trkpt>
      <trkpt lat="44.98349" lon="-0.28466">
        <ele>40</ele>
        <time>2021-06-03T12:57:50.000Z</time>
      </trkpt>
      <trkpt lat="44.98346" lon="-0.28471">
        <ele>40.1</ele>
        <time>2021-06-03T12:57:51.000Z</time>
      </trkpt>
      <trkpt lat="44.98344" lon="-0.28477">
        <ele>40.1</ele>
        <time>2021-06-03T12:57:52.000Z</time>
      </trkpt>
      <trkpt lat="44.98341" lon="-0.28482">
        <ele>40.1</ele>
        <time>2021-06-03T12:57:53.000Z</time>
      </trkpt>
      <trkpt lat="44.98338" lon="-0.28487">
        <ele>40.1</ele>
        <time>2021-06-03T12:57:54.000Z</time>
      </trkpt>
      <trkpt lat="44.98336" lon="-0.28493">
        <ele>40</ele>
        <time>2021-06-03T12:57:55.000Z</time>
      </trkpt>
      <trkpt lat="44.98333" lon="-0.28498">
        <ele>39.9</ele>
        <time>2021-06-03T12:57:56.000Z</time>
      </trkpt>
      <trkpt lat="44.9833" lon="-0.28503">
        <ele>39.8</ele>
        <time>2021-06-03T12:57:57.000Z</time>
      </trkpt>
      <trkpt lat="44.98328" lon="-0.28508">
        <ele>40</ele>
        <time>2021-06-03T12:57:58.000Z</time>
      </trkpt>
      <trkpt lat="44.98325" lon="-0.28514">
        <ele>40.2</ele>
        <time>2021-06-03T12:57:59.000Z</time>
      </trkpt>
      <trkpt lat="44.9832" lon="-0.28523">
        <ele>39.7</ele>
        <time>2021-06-03T12:58:01.000Z</time>
      </trkpt>
      <trkpt lat="44.98315" lon="-0.28532">
        <ele>39.9</ele>
        <time>2021-06-03T12:58:03.000Z</time>
      </trkpt>
      <trkpt lat="44.9831" lon="-0.2854">
        <ele>39.7</ele>
        <time>2021-06-03T12:58:05.000Z</time>
      </trkpt>
      <trkpt lat="44.98305" lon="-0.28549">
        <ele>39.5</ele>
        <time>2021-06-03T12:58:07.000Z</time>
      </trkpt>
      <trkpt lat="44.98299" lon="-0.28558">
        <ele>39.4</ele>
        <time>2021-06-03T12:58:09.000Z</time>
      </trkpt>
      <trkpt lat="44.98296" lon="-0.28563">
        <ele>39.3</ele>
        <time>2021-06-03T12:58:10.000Z</time>
      </trkpt>
      <trkpt lat="44.98293" lon="-0.28568">
        <ele>39.3</ele>
        <time>2021-06-03T12:58:11.000Z</time>
      </trkpt>
      <trkpt lat="44.9829" lon="-0.28573">
        <ele>39.2</ele>
        <time>2021-06-03T12:58:12.000Z</time>
      </trkpt>
      <trkpt lat="44.98286" lon="-0.28577">
        <ele>39.1</ele>
        <time>2021-06-03T12:58:13.000Z</time>
      </trkpt>
      <trkpt lat="44.98283" lon="-0.28582">
        <ele>38.9</ele>
        <time>2021-06-03T12:58:14.000Z</time>
      </trkpt>
      <trkpt lat="44.98279" lon="-0.28587">
        <ele>38.8</ele>
        <time>2021-06-03T12:58:15.000Z</time>
      </trkpt>
      <trkpt lat="44.98276" lon="-0.28592">
        <ele>38.6</ele>
        <time>2021-06-03T12:58:16.000Z</time>
      </trkpt>
      <trkpt lat="44.98272" lon="-0.28597">
        <ele>38.4</ele>
        <time>2021-06-03T12:58:17.000Z</time>
      </trkpt>
      <trkpt lat="44.98268" lon="-0.28602">
        <ele>38.2</ele>
        <time>2021-06-03T12:58:18.000Z</time>
      </trkpt>
      <trkpt lat="44.98264" lon="-0.28608">
        <ele>38.4</ele>
        <time>2021-06-03T12:58:19.000Z</time>
      </trkpt>
      <trkpt lat="44.9826" lon="-0.28613">
        <ele>38.5</ele>
        <time>2021-06-03T12:58:20.000Z</time>
      </trkpt>
      <trkpt lat="44.98256" lon="-0.28619">
        <ele>38.1</ele>
        <time>2021-06-03T12:58:21.000Z</time>
      </trkpt>
      <trkpt lat="44.98252" lon="-0.28624">
        <ele>37.8</ele>
        <time>2021-06-03T12:58:22.000Z</time>
      </trkpt>
      <trkpt lat="44.98248" lon="-0.2863">
        <ele>37.6</ele>
        <time>2021-06-03T12:58:23.000Z</time>
      </trkpt>
      <trkpt lat="44.98244" lon="-0.28635">
        <ele>37.1</ele>
        <time>2021-06-03T12:58:24.000Z</time>
      </trkpt>
      <trkpt lat="44.98241" lon="-0.2864">
        <ele>36.7</ele>
        <time>2021-06-03T12:58:25.000Z</time>
      </trkpt>
      <trkpt lat="44.98237" lon="-0.28644">
        <ele>36.6</ele>
        <time>2021-06-03T12:58:26.000Z</time>
      </trkpt>
      <trkpt lat="44.98234" lon="-0.28649">
        <ele>36.5</ele>
        <time>2021-06-03T12:58:27.000Z</time>
      </trkpt>
      <trkpt lat="44.9823" lon="-0.28654">
        <ele>36.4</ele>
        <time>2021-06-03T12:58:28.000Z</time>
      </trkpt>
      <trkpt lat="44.98227" lon="-0.28659">
        <ele>36.3</ele>
        <time>2021-06-03T12:58:29.000Z</time>
      </trkpt>
      <trkpt lat="44.98221" lon="-0.28668">
        <ele>35.8</ele>
        <time>2021-06-03T12:58:31.000Z</time>
      </trkpt>
      <trkpt lat="44.98215" lon="-0.28677">
        <ele>35.6</ele>
        <time>2021-06-03T12:58:33.000Z</time>
      </trkpt>
      <trkpt lat="44.98209" lon="-0.28684">
        <ele>35.8</ele>
        <time>2021-06-03T12:58:35.000Z</time>
      </trkpt>
      <trkpt lat="44.98204" lon="-0.2869">
        <ele>35.1</ele>
        <time>2021-06-03T12:58:37.000Z</time>
      </trkpt>
      <trkpt lat="44.982" lon="-0.28698">
        <ele>35.1</ele>
        <time>2021-06-03T12:58:39.000Z</time>
      </trkpt>
      <trkpt lat="44.98201" lon="-0.28708">
        <ele>34.7</ele>
        <time>2021-06-03T12:58:41.000Z</time>
      </trkpt>
      <trkpt lat="44.98205" lon="-0.28718">
        <ele>34.6</ele>
        <time>2021-06-03T12:58:43.000Z</time>
      </trkpt>
      <trkpt lat="44.98209" lon="-0.28726">
        <ele>34.8</ele>
        <time>2021-06-03T12:58:45.000Z</time>
      </trkpt>
      <trkpt lat="44.98213" lon="-0.28734">
        <ele>35</ele>
        <time>2021-06-03T12:58:47.000Z</time>
      </trkpt>
      <trkpt lat="44.98216" lon="-0.28743">
        <ele>35.5</ele>
        <time>2021-06-03T12:58:49.000Z</time>
      </trkpt>
      <trkpt lat="44.9822" lon="-0.28753">
        <ele>35.7</ele>
        <time>2021-06-03T12:58:51.000Z</time>
      </trkpt>
      <trkpt lat="44.98223" lon="-0.28762">
        <ele>35.6</ele>
        <time>2021-06-03T12:58:53.000Z</time>
      </trkpt>
      <trkpt lat="44.98227" lon="-0.28772">
        <ele>35.5</ele>
        <time>2021-06-03T12:58:55.000Z</time>
      </trkpt>
      <trkpt lat="44.98231" lon="-0.28781">
        <ele>36.1</ele>
        <time>2021-06-03T12:58:57.000Z</time>
      </trkpt>
      <trkpt lat="44.98234" lon="-0.2879">
        <ele>36.5</ele>
        <time>2021-06-03T12:58:59.000Z</time>
      </trkpt>
      <trkpt lat="44.98238" lon="-0.28799">
        <ele>36.6</ele>
        <time>2021-06-03T12:59:01.000Z</time>
      </trkpt>
      <trkpt lat="44.98242" lon="-0.28809">
        <ele>36.4</ele>
        <time>2021-06-03T12:59:03.000Z</time>
      </trkpt>
      <trkpt lat="44.98245" lon="-0.28819">
        <ele>37</ele>
        <time>2021-06-03T12:59:05.000Z</time>
      </trkpt>
      <trkpt lat="44.98249" lon="-0.28829">
        <ele>37</ele>
        <time>2021-06-03T12:59:07.000Z</time>
      </trkpt>
      <trkpt lat="44.98253" lon="-0.28838">
        <ele>37.1</ele>
        <time>2021-06-03T12:59:09.000Z</time>
      </trkpt>
      <trkpt lat="44.98257" lon="-0.28848">
        <ele>37.3</ele>
        <time>2021-06-03T12:59:11.000Z</time>
      </trkpt>
      <trkpt lat="44.98261" lon="-0.28857">
        <ele>37.4</ele>
        <time>2021-06-03T12:59:13.000Z</time>
      </trkpt>
      <trkpt lat="44.98265" lon="-0.28867">
        <ele>37.4</ele>
        <time>2021-06-03T12:59:15.000Z</time>
      </trkpt>
      <trkpt lat="44.98268" lon="-0.28876">
        <ele>37.6</ele>
        <time>2021-06-03T12:59:17.000Z</time>
      </trkpt>
      <trkpt lat="44.9827" lon="-0.28881">
        <ele>38.1</ele>
        <time>2021-06-03T12:59:18.000Z</time>
      </trkpt>
      <trkpt lat="44.98274" lon="-0.28894">
        <ele>38.6</ele>
        <time>2021-06-03T12:59:21.000Z</time>
      </trkpt>
      <trkpt lat="44.98276" lon="-0.28904">
        <ele>38.6</ele>
        <time>2021-06-03T12:59:23.000Z</time>
      </trkpt>
      <trkpt lat="44.98279" lon="-0.28913">
        <ele>39</ele>
        <time>2021-06-03T12:59:25.000Z</time>
      </trkpt>
      <trkpt lat="44.98283" lon="-0.28922">
        <ele>39.4</ele>
        <time>2021-06-03T12:59:27.000Z</time>
      </trkpt>
      <trkpt lat="44.98285" lon="-0.28932">
        <ele>39.6</ele>
        <time>2021-06-03T12:59:29.000Z</time>
      </trkpt>
      <trkpt lat="44.98288" lon="-0.28942">
        <ele>40.3</ele>
        <time>2021-06-03T12:59:31.000Z</time>
      </trkpt>
      <trkpt lat="44.98291" lon="-0.28952">
        <ele>40.1</ele>
        <time>2021-06-03T12:59:33.000Z</time>
      </trkpt>
      <trkpt lat="44.98295" lon="-0.28961">
        <ele>40.3</ele>
        <time>2021-06-03T12:59:35.000Z</time>
      </trkpt>
      <trkpt lat="44.98298" lon="-0.2897">
        <ele>41.1</ele>
        <time>2021-06-03T12:59:37.000Z</time>
      </trkpt>
      <trkpt lat="44.98301" lon="-0.28979">
        <ele>41.8</ele>
        <time>2021-06-03T12:59:39.000Z</time>
      </trkpt>
      <trkpt lat="44.98304" lon="-0.28988">
        <ele>41.5</ele>
        <time>2021-06-03T12:59:41.000Z</time>
      </trkpt>
      <trkpt lat="44.98306" lon="-0.28997">
        <ele>42</ele>
        <time>2021-06-03T12:59:43.000Z</time>
      </trkpt>
      <trkpt lat="44.98309" lon="-0.29006">
        <ele>42.1</ele>
        <time>2021-06-03T12:59:45.000Z</time>
      </trkpt>
      <trkpt lat="44.98313" lon="-0.29014">
        <ele>42.5</ele>
        <time>2021-06-03T12:59:47.000Z</time>
      </trkpt>
      <trkpt lat="44.98315" lon="-0.29023">
        <ele>42.6</ele>
        <time>2021-06-03T12:59:49.000Z</time>
      </trkpt>
      <trkpt lat="44.98318" lon="-0.29032">
        <ele>42.4</ele>
        <time>2021-06-03T12:59:51.000Z</time>
      </trkpt>
      <trkpt lat="44.98321" lon="-0.2904">
        <ele>42.5</ele>
        <time>2021-06-03T12:59:53.000Z</time>
      </trkpt>
      <trkpt lat="44.98324" lon="-0.29048">
        <ele>42.3</ele>
        <time>2021-06-03T12:59:55.000Z</time>
      </trkpt>
      <trkpt lat="44.98326" lon="-0.29057">
        <ele>43</ele>
        <time>2021-06-03T12:59:57.000Z</time>
      </trkpt>
      <trkpt lat="44.98329" lon="-0.29066">
        <ele>43.2</ele>
        <time>2021-06-03T12:59:59.000Z</time>
      </trkpt>
      <trkpt lat="44.98332" lon="-0.29075">
        <ele>43.1</ele>
        <time>2021-06-03T13:00:01.000Z</time>
      </trkpt>
      <trkpt lat="44.98335" lon="-0.29084">
        <ele>43</ele>
        <time>2021-06-03T13:00:03.000Z</time>
      </trkpt>
      <trkpt lat="44.98338" lon="-0.29093">
        <ele>43.6</ele>
        <time>2021-06-03T13:00:05.000Z</time>
      </trkpt>
      <trkpt lat="44.98341" lon="-0.29102">
        <ele>43.7</ele>
        <time>2021-06-03T13:00:07.000Z</time>
      </trkpt>
      <trkpt lat="44.98344" lon="-0.29111">
        <ele>44.1</ele>
        <time>2021-06-03T13:00:09.000Z</time>
      </trkpt>
      <trkpt lat="44.98346" lon="-0.2912">
        <ele>44.5</ele>
        <time>2021-06-03T13:00:11.000Z</time>
      </trkpt>
      <trkpt lat="44.98349" lon="-0.29128">
        <ele>45</ele>
        <time>2021-06-03T13:00:13.000Z</time>
      </trkpt>
      <trkpt lat="44.98352" lon="-0.29137">
        <ele>45.3</ele>
        <time>2021-06-03T13:00:15.000Z</time>
      </trkpt>
      <trkpt lat="44.98355" lon="-0.29145">
        <ele>45.6</ele>
        <time>2021-06-03T13:00:17.000Z</time>
      </trkpt>
      <trkpt lat="44.98358" lon="-0.29153">
        <ele>45.3</ele>
        <time>2021-06-03T13:00:19.000Z</time>
      </trkpt>
      <trkpt lat="44.9836" lon="-0.29157">
        <ele>45.4</ele>
        <time>2021-06-03T13:00:20.000Z</time>
      </trkpt>
      <trkpt lat="44.98364" lon="-0.2917">
        <ele>45.5</ele>
        <time>2021-06-03T13:00:23.000Z</time>
      </trkpt>
      <trkpt lat="44.98367" lon="-0.29178">
        <ele>45.7</ele>
        <time>2021-06-03T13:00:25.000Z</time>
      </trkpt>
      <trkpt lat="44.9837" lon="-0.29187">
        <ele>46.1</ele>
        <time>2021-06-03T13:00:27.000Z</time>
      </trkpt>
      <trkpt lat="44.98373" lon="-0.29194">
        <ele>46.4</ele>
        <time>2021-06-03T13:00:29.000Z</time>
      </trkpt>
      <trkpt lat="44.98376" lon="-0.29202">
        <ele>46.7</ele>
        <time>2021-06-03T13:00:31.000Z</time>
      </trkpt>
      <trkpt lat="44.98379" lon="-0.2921">
        <ele>46.9</ele>
        <time>2021-06-03T13:00:33.000Z</time>
      </trkpt>
      <trkpt lat="44.98381" lon="-0.29218">
        <ele>46.8</ele>
        <time>2021-06-03T13:00:35.000Z</time>
      </trkpt>
      <trkpt lat="44.98385" lon="-0.29227">
        <ele>46.7</ele>
        <time>2021-06-03T13:00:37.000Z</time>
      </trkpt>
      <trkpt lat="44.9839" lon="-0.29232">
        <ele>46.7</ele>
        <time>2021-06-03T13:00:39.000Z</time>
      </trkpt>
      <trkpt lat="44.98398" lon="-0.29232">
        <ele>46.8</ele>
        <time>2021-06-03T13:00:42.000Z</time>
      </trkpt>
      <trkpt lat="44.98405" lon="-0.2923">
        <ele>48.5</ele>
        <time>2021-06-03T13:01:25.000Z</time>
      </trkpt>
      <trkpt lat="44.98407" lon="-0.29229">
        <ele>48.6</ele>
        <time>2021-06-03T13:01:26.000Z</time>
      </trkpt>
      <trkpt lat="44.98417" lon="-0.29222">
        <ele>48.3</ele>
        <time>2021-06-03T13:01:30.000Z</time>
      </trkpt>
      <trkpt lat="44.98423" lon="-0.29218">
        <ele>48.6</ele>
        <time>2021-06-03T13:01:32.000Z</time>
      </trkpt>
      <trkpt lat="44.98429" lon="-0.29214">
        <ele>48.6</ele>
        <time>2021-06-03T13:01:34.000Z</time>
      </trkpt>
      <trkpt lat="44.98435" lon="-0.29209">
        <ele>48.9</ele>
        <time>2021-06-03T13:01:36.000Z</time>
      </trkpt>
      <trkpt lat="44.98441" lon="-0.29205">
        <ele>48.7</ele>
        <time>2021-06-03T13:01:38.000Z</time>
      </trkpt>
      <trkpt lat="44.98447" lon="-0.29201">
        <ele>48.2</ele>
        <time>2021-06-03T13:01:40.000Z</time>
      </trkpt>
      <trkpt lat="44.98453" lon="-0.29197">
        <ele>48.8</ele>
        <time>2021-06-03T13:01:42.000Z</time>
      </trkpt>
      <trkpt lat="44.98458" lon="-0.29193">
        <ele>50.2</ele>
        <time>2021-06-03T13:01:44.000Z</time>
      </trkpt>
      <trkpt lat="44.98464" lon="-0.29189">
        <ele>50.5</ele>
        <time>2021-06-03T13:01:46.000Z</time>
      </trkpt>
      <trkpt lat="44.9847" lon="-0.29186">
        <ele>50.1</ele>
        <time>2021-06-03T13:01:48.000Z</time>
      </trkpt>
      <trkpt lat="44.98475" lon="-0.29181">
        <ele>50.1</ele>
        <time>2021-06-03T13:01:50.000Z</time>
      </trkpt>
      <trkpt lat="44.98481" lon="-0.29177">
        <ele>50.3</ele>
        <time>2021-06-03T13:01:52.000Z</time>
      </trkpt>
      <trkpt lat="44.98489" lon="-0.29172">
        <ele>50.7</ele>
        <time>2021-06-03T13:01:55.000Z</time>
      </trkpt>
      <trkpt lat="44.98497" lon="-0.29172">
        <ele>51.1</ele>
        <time>2021-06-03T13:02:00.000Z</time>
      </trkpt>
      <trkpt lat="44.985" lon="-0.29161">
        <ele>51.7</ele>
        <time>2021-06-03T13:10:05.000Z</time>
      </trkpt>
      <trkpt lat="44.985" lon="-0.2916">
        <ele>51.3</ele>
        <time>2021-06-03T13:10:06.000Z</time>
      </trkpt>
      <trkpt lat="44.98485" lon="-0.29168">
        <ele>51.9</ele>
        <time>2021-06-03T13:10:25.000Z</time>
      </trkpt>
      <trkpt lat="44.98479" lon="-0.29173">
        <ele>51.2</ele>
        <time>2021-06-03T13:10:30.000Z</time>
      </trkpt>
      <trkpt lat="44.98471" lon="-0.29178">
        <ele>51.2</ele>
        <time>2021-06-03T13:10:34.000Z</time>
      </trkpt>
      <trkpt lat="44.98464" lon="-0.29183">
        <ele>51.5</ele>
        <time>2021-06-03T13:10:37.000Z</time>
      </trkpt>
      <trkpt lat="44.98456" lon="-0.29189">
        <ele>50.8</ele>
        <time>2021-06-03T13:10:40.000Z</time>
      </trkpt>
      <trkpt lat="44.98451" lon="-0.29193">
        <ele>50.7</ele>
        <time>2021-06-03T13:10:42.000Z</time>
      </trkpt>
      <trkpt lat="44.98445" lon="-0.29197">
        <ele>51.1</ele>
        <time>2021-06-03T13:10:44.000Z</time>
      </trkpt>
      <trkpt lat="44.9844" lon="-0.29201">
        <ele>51.5</ele>
        <time>2021-06-03T13:10:46.000Z</time>
      </trkpt>
      <trkpt lat="44.98434" lon="-0.29205">
        <ele>50.4</ele>
        <time>2021-06-03T13:10:48.000Z</time>
      </trkpt>
      <trkpt lat="44.98428" lon="-0.2921">
        <ele>50.5</ele>
        <time>2021-06-03T13:10:50.000Z</time>
      </trkpt>
      <trkpt lat="44.98422" lon="-0.29214">
        <ele>50.4</ele>
        <time>2021-06-03T13:10:52.000Z</time>
      </trkpt>
      <trkpt lat="44.98416" lon="-0.29219">
        <ele>49.8</ele>
        <time>2021-06-03T13:10:54.000Z</time>
      </trkpt>
      <trkpt lat="44.9841" lon="-0.29223">
        <ele>49.4</ele>
        <time>2021-06-03T13:10:56.000Z</time>
      </trkpt>
      <trkpt lat="44.98404" lon="-0.29228">
        <ele>49.5</ele>
        <time>2021-06-03T13:10:58.000Z</time>
      </trkpt>
      <trkpt lat="44.98398" lon="-0.29232">
        <ele>48.7</ele>
        <time>2021-06-03T13:11:00.000Z</time>
      </trkpt>
      <trkpt lat="44.9839" lon="-0.29231">
        <ele>48.8</ele>
        <time>2021-06-03T13:11:02.000Z</time>
      </trkpt>
      <trkpt lat="44.98385" lon="-0.29223">
        <ele>48.7</ele>
        <time>2021-06-03T13:11:04.000Z</time>
      </trkpt>
      <trkpt lat="44.98381" lon="-0.29211">
        <ele>48.7</ele>
        <time>2021-06-03T13:11:06.000Z</time>
      </trkpt>
      <trkpt lat="44.98379" lon="-0.29206">
        <ele>48.8</ele>
        <time>2021-06-03T13:11:07.000Z</time>
      </trkpt>
      <trkpt lat="44.98373" lon="-0.2919">
        <ele>48.2</ele>
        <time>2021-06-03T13:11:10.000Z</time>
      </trkpt>
      <trkpt lat="44.98371" lon="-0.29184">
        <ele>48.1</ele>
        <time>2021-06-03T13:11:11.000Z</time>
      </trkpt>
      <trkpt lat="44.98369" lon="-0.29178">
        <ele>48</ele>
        <time>2021-06-03T13:11:12.000Z</time>
      </trkpt>
      <trkpt lat="44.98367" lon="-0.29172">
        <ele>47.8</ele>
        <time>2021-06-03T13:11:13.000Z</time>
      </trkpt>
      <trkpt lat="44.98364" lon="-0.29166">
        <ele>47.6</ele>
        <time>2021-06-03T13:11:14.000Z</time>
      </trkpt>
      <trkpt lat="44.98362" lon="-0.29159">
        <ele>47.5</ele>
        <time>2021-06-03T13:11:15.000Z</time>
      </trkpt>
      <trkpt lat="44.9836" lon="-0.29153">
        <ele>47.3</ele>
        <time>2021-06-03T13:11:16.000Z</time>
      </trkpt>
      <trkpt lat="44.98358" lon="-0.29147">
        <ele>46.8</ele>
        <time>2021-06-03T13:11:17.000Z</time>
      </trkpt>
      <trkpt lat="44.98355" lon="-0.2914">
        <ele>46.4</ele>
        <time>2021-06-03T13:11:18.000Z</time>
      </trkpt>
      <trkpt lat="44.98353" lon="-0.29133">
        <ele>46.2</ele>
        <time>2021-06-03T13:11:19.000Z</time>
      </trkpt>
      <trkpt lat="44.9835" lon="-0.29125">
        <ele>46</ele>
        <time>2021-06-03T13:11:20.000Z</time>
      </trkpt>
      <trkpt lat="44.98348" lon="-0.29118">
        <ele>45.9</ele>
        <time>2021-06-03T13:11:21.000Z</time>
      </trkpt>
      <trkpt lat="44.98345" lon="-0.29111">
        <ele>46</ele>
        <time>2021-06-03T13:11:22.000Z</time>
      </trkpt>
      <trkpt lat="44.98343" lon="-0.29104">
        <ele>46.2</ele>
        <time>2021-06-03T13:11:23.000Z</time>
      </trkpt>
      <trkpt lat="44.9834" lon="-0.29097">
        <ele>46.2</ele>
        <time>2021-06-03T13:11:24.000Z</time>
      </trkpt>
      <trkpt lat="44.98338" lon="-0.2909">
        <ele>46</ele>
        <time>2021-06-03T13:11:25.000Z</time>
      </trkpt>
      <trkpt lat="44.98336" lon="-0.29083">
        <ele>45.9</ele>
        <time>2021-06-03T13:11:26.000Z</time>
      </trkpt>
      <trkpt lat="44.98333" lon="-0.29076">
        <ele>45.8</ele>
        <time>2021-06-03T13:11:27.000Z</time>
      </trkpt>
      <trkpt lat="44.98331" lon="-0.2907">
        <ele>45.7</ele>
        <time>2021-06-03T13:11:28.000Z</time>
      </trkpt>
      <trkpt lat="44.98329" lon="-0.29064">
        <ele>45.4</ele>
        <time>2021-06-03T13:11:29.000Z</time>
      </trkpt>
      <trkpt lat="44.98327" lon="-0.29057">
        <ele>45.1</ele>
        <time>2021-06-03T13:11:30.000Z</time>
      </trkpt>
      <trkpt lat="44.98325" lon="-0.29051">
        <ele>44.9</ele>
        <time>2021-06-03T13:11:31.000Z</time>
      </trkpt>
      <trkpt lat="44.98323" lon="-0.29045">
        <ele>44.8</ele>
        <time>2021-06-03T13:11:32.000Z</time>
      </trkpt>
      <trkpt lat="44.9832" lon="-0.29038">
        <ele>44.7</ele>
        <time>2021-06-03T13:11:33.000Z</time>
      </trkpt>
      <trkpt lat="44.98318" lon="-0.29032">
        <ele>44.5</ele>
        <time>2021-06-03T13:11:34.000Z</time>
      </trkpt>
      <trkpt lat="44.98316" lon="-0.29026">
        <ele>44.3</ele>
        <time>2021-06-03T13:11:35.000Z</time>
      </trkpt>
      <trkpt lat="44.98314" lon="-0.29019">
        <ele>44.2</ele>
        <time>2021-06-03T13:11:36.000Z</time>
      </trkpt>
      <trkpt lat="44.98312" lon="-0.29013">
        <ele>44.2</ele>
        <time>2021-06-03T13:11:37.000Z</time>
      </trkpt>
      <trkpt lat="44.9831" lon="-0.29006">
        <ele>44.1</ele>
        <time>2021-06-03T13:11:38.000Z</time>
      </trkpt>
      <trkpt lat="44.98307" lon="-0.29">
        <ele>43.8</ele>
        <time>2021-06-03T13:11:39.000Z</time>
      </trkpt>
      <trkpt lat="44.98305" lon="-0.28993">
        <ele>43.6</ele>
        <time>2021-06-03T13:11:40.000Z</time>
      </trkpt>
      <trkpt lat="44.98303" lon="-0.28986">
        <ele>43.3</ele>
        <time>2021-06-03T13:11:41.000Z</time>
      </trkpt>
      <trkpt lat="44.983" lon="-0.28979">
        <ele>43</ele>
        <time>2021-06-03T13:11:42.000Z</time>
      </trkpt>
      <trkpt lat="44.98298" lon="-0.28972">
        <ele>42.9</ele>
        <time>2021-06-03T13:11:43.000Z</time>
      </trkpt>
      <trkpt lat="44.98296" lon="-0.28965">
        <ele>42.6</ele>
        <time>2021-06-03T13:11:44.000Z</time>
      </trkpt>
      <trkpt lat="44.98293" lon="-0.28958">
        <ele>42.3</ele>
        <time>2021-06-03T13:11:45.000Z</time>
      </trkpt>
      <trkpt lat="44.98291" lon="-0.28951">
        <ele>42.4</ele>
        <time>2021-06-03T13:11:46.000Z</time>
      </trkpt>
      <trkpt lat="44.98289" lon="-0.28944">
        <ele>42.4</ele>
        <time>2021-06-03T13:11:47.000Z</time>
      </trkpt>
      <trkpt lat="44.98286" lon="-0.28936">
        <ele>41.8</ele>
        <time>2021-06-03T13:11:48.000Z</time>
      </trkpt>
      <trkpt lat="44.98283" lon="-0.28929">
        <ele>41.4</ele>
        <time>2021-06-03T13:11:49.000Z</time>
      </trkpt>
      <trkpt lat="44.98281" lon="-0.28922">
        <ele>41.1</ele>
        <time>2021-06-03T13:11:50.000Z</time>
      </trkpt>
      <trkpt lat="44.98279" lon="-0.28915">
        <ele>41.3</ele>
        <time>2021-06-03T13:11:51.000Z</time>
      </trkpt>
      <trkpt lat="44.98277" lon="-0.28908">
        <ele>41.5</ele>
        <time>2021-06-03T13:11:52.000Z</time>
      </trkpt>
      <trkpt lat="44.98274" lon="-0.28901">
        <ele>40.9</ele>
        <time>2021-06-03T13:11:53.000Z</time>
      </trkpt>
      <trkpt lat="44.98272" lon="-0.28894">
        <ele>40.4</ele>
        <time>2021-06-03T13:11:54.000Z</time>
      </trkpt>
      <trkpt lat="44.98269" lon="-0.28887">
        <ele>40.1</ele>
        <time>2021-06-03T13:11:55.000Z</time>
      </trkpt>
      <trkpt lat="44.98267" lon="-0.2888">
        <ele>40</ele>
        <time>2021-06-03T13:11:56.000Z</time>
      </trkpt>
      <trkpt lat="44.98265" lon="-0.28872">
        <ele>39.9</ele>
        <time>2021-06-03T13:11:57.000Z</time>
      </trkpt>
      <trkpt lat="44.98262" lon="-0.28865">
        <ele>39.7</ele>
        <time>2021-06-03T13:11:58.000Z</time>
      </trkpt>
      <trkpt lat="44.9826" lon="-0.28858">
        <ele>39.5</ele>
        <time>2021-06-03T13:11:59.000Z</time>
      </trkpt>
      <trkpt lat="44.98257" lon="-0.28851">
        <ele>39.3</ele>
        <time>2021-06-03T13:12:00.000Z</time>
      </trkpt>
      <trkpt lat="44.98255" lon="-0.28844">
        <ele>39.1</ele>
        <time>2021-06-03T13:12:01.000Z</time>
      </trkpt>
      <trkpt lat="44.98252" lon="-0.28837">
        <ele>38.9</ele>
        <time>2021-06-03T13:12:02.000Z</time>
      </trkpt>
      <trkpt lat="44.9825" lon="-0.2883">
        <ele>38.7</ele>
        <time>2021-06-03T13:12:03.000Z</time>
      </trkpt>
      <trkpt lat="44.98248" lon="-0.28823">
        <ele>38.5</ele>
        <time>2021-06-03T13:12:04.000Z</time>
      </trkpt>
      <trkpt lat="44.98245" lon="-0.28816">
        <ele>38.3</ele>
        <time>2021-06-03T13:12:05.000Z</time>
      </trkpt>
      <trkpt lat="44.98243" lon="-0.28809">
        <ele>38.2</ele>
        <time>2021-06-03T13:12:06.000Z</time>
      </trkpt>
      <trkpt lat="44.98241" lon="-0.28803">
        <ele>38.3</ele>
        <time>2021-06-03T13:12:07.000Z</time>
      </trkpt>
      <trkpt lat="44.98238" lon="-0.28796">
        <ele>38.3</ele>
        <time>2021-06-03T13:12:08.000Z</time>
      </trkpt>
      <trkpt lat="44.98236" lon="-0.2879">
        <ele>38.4</ele>
        <time>2021-06-03T13:12:09.000Z</time>
      </trkpt>
      <trkpt lat="44.98234" lon="-0.28784">
        <ele>37.8</ele>
        <time>2021-06-03T13:12:10.000Z</time>
      </trkpt>
      <trkpt lat="44.98232" lon="-0.28777">
        <ele>37.3</ele>
        <time>2021-06-03T13:12:11.000Z</time>
      </trkpt>
      <trkpt lat="44.9823" lon="-0.28771">
        <ele>37.1</ele>
        <time>2021-06-03T13:12:12.000Z</time>
      </trkpt>
      <trkpt lat="44.98228" lon="-0.28765">
        <ele>37</ele>
        <time>2021-06-03T13:12:13.000Z</time>
      </trkpt>
      <trkpt lat="44.98224" lon="-0.28754">
        <ele>36.5</ele>
        <time>2021-06-03T13:12:15.000Z</time>
      </trkpt>
      <trkpt lat="44.98221" lon="-0.28744">
        <ele>36.2</ele>
        <time>2021-06-03T13:12:17.000Z</time>
      </trkpt>
      <trkpt lat="44.98217" lon="-0.28734">
        <ele>36.5</ele>
        <time>2021-06-03T13:12:19.000Z</time>
      </trkpt>
      <trkpt lat="44.98214" lon="-0.28724">
        <ele>36.8</ele>
        <time>2021-06-03T13:12:21.000Z</time>
      </trkpt>
      <trkpt lat="44.98211" lon="-0.28716">
        <ele>36</ele>
        <time>2021-06-03T13:12:23.000Z</time>
      </trkpt>
      <trkpt lat="44.98207" lon="-0.28705">
        <ele>35.7</ele>
        <time>2021-06-03T13:12:26.000Z</time>
      </trkpt>
      <trkpt lat="44.982" lon="-0.28701">
        <ele>35.8</ele>
        <time>2021-06-03T13:12:30.000Z</time>
      </trkpt>
      <trkpt lat="44.98195" lon="-0.28707">
        <ele>34.9</ele>
        <time>2021-06-03T13:12:32.000Z</time>
      </trkpt>
      <trkpt lat="44.98188" lon="-0.28715">
        <ele>33.8</ele>
        <time>2021-06-03T13:12:34.000Z</time>
      </trkpt>
      <trkpt lat="44.98184" lon="-0.28719">
        <ele>33.4</ele>
        <time>2021-06-03T13:12:35.000Z</time>
      </trkpt>
      <trkpt lat="44.98181" lon="-0.28723">
        <ele>33.4</ele>
        <time>2021-06-03T13:12:36.000Z</time>
      </trkpt>
      <trkpt lat="44.98177" lon="-0.28727">
        <ele>33.4</ele>
        <time>2021-06-03T13:12:37.000Z</time>
      </trkpt>
      <trkpt lat="44.98173" lon="-0.28731">
        <ele>33.4</ele>
        <time>2021-06-03T13:12:38.000Z</time>
      </trkpt>
      <trkpt lat="44.98169" lon="-0.28735">
        <ele>33.3</ele>
        <time>2021-06-03T13:12:39.000Z</time>
      </trkpt>
      <trkpt lat="44.98164" lon="-0.2874">
        <ele>33.3</ele>
        <time>2021-06-03T13:12:40.000Z</time>
      </trkpt>
      <trkpt lat="44.9816" lon="-0.28745">
        <ele>33</ele>
        <time>2021-06-03T13:12:41.000Z</time>
      </trkpt>
      <trkpt lat="44.98155" lon="-0.28749">
        <ele>32.8</ele>
        <time>2021-06-03T13:12:42.000Z</time>
      </trkpt>
      <trkpt lat="44.98151" lon="-0.28754">
        <ele>32.5</ele>
        <time>2021-06-03T13:12:43.000Z</time>
      </trkpt>
      <trkpt lat="44.98146" lon="-0.28759">
        <ele>32.2</ele>
        <time>2021-06-03T13:12:44.000Z</time>
      </trkpt>
      <trkpt lat="44.9814" lon="-0.28765">
        <ele>31.8</ele>
        <time>2021-06-03T13:12:45.000Z</time>
      </trkpt>
      <trkpt lat="44.98135" lon="-0.2877">
        <ele>31.5</ele>
        <time>2021-06-03T13:12:46.000Z</time>
      </trkpt>
      <trkpt lat="44.98129" lon="-0.28775">
        <ele>31.2</ele>
        <time>2021-06-03T13:12:47.000Z</time>
      </trkpt>
      <trkpt lat="44.98124" lon="-0.28781">
        <ele>31.1</ele>
        <time>2021-06-03T13:12:48.000Z</time>
      </trkpt>
      <trkpt lat="44.98118" lon="-0.28787">
        <ele>30.9</ele>
        <time>2021-06-03T13:12:49.000Z</time>
      </trkpt>
      <trkpt lat="44.98111" lon="-0.28793">
        <ele>30.1</ele>
        <time>2021-06-03T13:12:50.000Z</time>
      </trkpt>
      <trkpt lat="44.98105" lon="-0.28799">
        <ele>29.5</ele>
        <time>2021-06-03T13:12:51.000Z</time>
      </trkpt>
      <trkpt lat="44.98099" lon="-0.28805">
        <ele>29</ele>
        <time>2021-06-03T13:12:52.000Z</time>
      </trkpt>
      <trkpt lat="44.98092" lon="-0.28812">
        <ele>28.6</ele>
        <time>2021-06-03T13:12:53.000Z</time>
      </trkpt>
      <trkpt lat="44.98085" lon="-0.28818">
        <ele>28.3</ele>
        <time>2021-06-03T13:12:54.000Z</time>
      </trkpt>
      <trkpt lat="44.98078" lon="-0.28825">
        <ele>28.2</ele>
        <time>2021-06-03T13:12:55.000Z</time>
      </trkpt>
      <trkpt lat="44.98071" lon="-0.28832">
        <ele>28.1</ele>
        <time>2021-06-03T13:12:56.000Z</time>
      </trkpt>
      <trkpt lat="44.98064" lon="-0.28839">
        <ele>27.5</ele>
        <time>2021-06-03T13:12:57.000Z</time>
      </trkpt>
      <trkpt lat="44.98057" lon="-0.28846">
        <ele>27</ele>
        <time>2021-06-03T13:12:58.000Z</time>
      </trkpt>
      <trkpt lat="44.9805" lon="-0.28853">
        <ele>26.6</ele>
        <time>2021-06-03T13:12:59.000Z</time>
      </trkpt>
      <trkpt lat="44.98042" lon="-0.2886">
        <ele>26.3</ele>
        <time>2021-06-03T13:13:00.000Z</time>
      </trkpt>
      <trkpt lat="44.98035" lon="-0.28867">
        <ele>26</ele>
        <time>2021-06-03T13:13:01.000Z</time>
      </trkpt>
      <trkpt lat="44.98027" lon="-0.28874">
        <ele>25.9</ele>
        <time>2021-06-03T13:13:02.000Z</time>
      </trkpt>
      <trkpt lat="44.9802" lon="-0.28882">
        <ele>25.8</ele>
        <time>2021-06-03T13:13:03.000Z</time>
      </trkpt>
      <trkpt lat="44.98012" lon="-0.28889">
        <ele>25.3</ele>
        <time>2021-06-03T13:13:04.000Z</time>
      </trkpt>
      <trkpt lat="44.98005" lon="-0.28896">
        <ele>24.9</ele>
        <time>2021-06-03T13:13:05.000Z</time>
      </trkpt>
      <trkpt lat="44.97998" lon="-0.28902">
        <ele>24.6</ele>
        <time>2021-06-03T13:13:06.000Z</time>
      </trkpt>
      <trkpt lat="44.97992" lon="-0.28909">
        <ele>24.6</ele>
        <time>2021-06-03T13:13:07.000Z</time>
      </trkpt>
      <trkpt lat="44.97985" lon="-0.28915">
        <ele>24.6</ele>
        <time>2021-06-03T13:13:08.000Z</time>
      </trkpt>
      <trkpt lat="44.97979" lon="-0.28922">
        <ele>24.4</ele>
        <time>2021-06-03T13:13:09.000Z</time>
      </trkpt>
      <trkpt lat="44.97972" lon="-0.28929">
        <ele>24.3</ele>
        <time>2021-06-03T13:13:10.000Z</time>
      </trkpt>
      <trkpt lat="44.97967" lon="-0.28935">
        <ele>24</ele>
        <time>2021-06-03T13:13:11.000Z</time>
      </trkpt>
      <trkpt lat="44.97961" lon="-0.28942">
        <ele>23.7</ele>
        <time>2021-06-03T13:13:12.000Z</time>
      </trkpt>
      <trkpt lat="44.97956" lon="-0.28948">
        <ele>23.5</ele>
        <time>2021-06-03T13:13:13.000Z</time>
      </trkpt>
      <trkpt lat="44.9795" lon="-0.28955">
        <ele>23.4</ele>
        <time>2021-06-03T13:13:14.000Z</time>
      </trkpt>
      <trkpt lat="44.97945" lon="-0.28961">
        <ele>23.3</ele>
        <time>2021-06-03T13:13:15.000Z</time>
      </trkpt>
      <trkpt lat="44.97941" lon="-0.28967">
        <ele>23.3</ele>
        <time>2021-06-03T13:13:16.000Z</time>
      </trkpt>
      <trkpt lat="44.97936" lon="-0.28973">
        <ele>23.3</ele>
        <time>2021-06-03T13:13:17.000Z</time>
      </trkpt>
      <trkpt lat="44.97932" lon="-0.28979">
        <ele>23.3</ele>
        <time>2021-06-03T13:13:18.000Z</time>
      </trkpt>
      <trkpt lat="44.97928" lon="-0.28985">
        <ele>23.3</ele>
        <time>2021-06-03T13:13:19.000Z</time>
      </trkpt>
      <trkpt lat="44.97924" lon="-0.28991">
        <ele>23.3</ele>
        <time>2021-06-03T13:13:20.000Z</time>
      </trkpt>
      <trkpt lat="44.9792" lon="-0.28996">
        <ele>23.7</ele>
        <time>2021-06-03T13:13:21.000Z</time>
      </trkpt>
      <trkpt lat="44.97916" lon="-0.29002">
        <ele>24</ele>
        <time>2021-06-03T13:13:22.000Z</time>
      </trkpt>
      <trkpt lat="44.97912" lon="-0.29007">
        <ele>24.1</ele>
        <time>2021-06-03T13:13:23.000Z</time>
      </trkpt>
      <trkpt lat="44.97908" lon="-0.29012">
        <ele>24.3</ele>
        <time>2021-06-03T13:13:24.000Z</time>
      </trkpt>
      <trkpt lat="44.97904" lon="-0.29017">
        <ele>24.4</ele>
        <time>2021-06-03T13:13:25.000Z</time>
      </trkpt>
      <trkpt lat="44.97901" lon="-0.29023">
        <ele>24.4</ele>
        <time>2021-06-03T13:13:26.000Z</time>
      </trkpt>
      <trkpt lat="44.97897" lon="-0.29028">
        <ele>24.4</ele>
        <time>2021-06-03T13:13:27.000Z</time>
      </trkpt>
      <trkpt lat="44.97894" lon="-0.29033">
        <ele>24.6</ele>
        <time>2021-06-03T13:13:28.000Z</time>
      </trkpt>
      <trkpt lat="44.9789" lon="-0.29039">
        <ele>24.8</ele>
        <time>2021-06-03T13:13:29.000Z</time>
      </trkpt>
      <trkpt lat="44.97887" lon="-0.29044">
        <ele>25.2</ele>
        <time>2021-06-03T13:13:30.000Z</time>
      </trkpt>
      <trkpt lat="44.97884" lon="-0.29048">
        <ele>25.5</ele>
        <time>2021-06-03T13:13:31.000Z</time>
      </trkpt>
      <trkpt lat="44.97878" lon="-0.29058">
        <ele>26</ele>
        <time>2021-06-03T13:13:33.000Z</time>
      </trkpt>
      <trkpt lat="44.97873" lon="-0.29066">
        <ele>26.5</ele>
        <time>2021-06-03T13:13:35.000Z</time>
      </trkpt>
      <trkpt lat="44.97868" lon="-0.29073">
        <ele>26.9</ele>
        <time>2021-06-03T13:13:37.000Z</time>
      </trkpt>
      <trkpt lat="44.97863" lon="-0.2908">
        <ele>27.9</ele>
        <time>2021-06-03T13:13:39.000Z</time>
      </trkpt>
      <trkpt lat="44.97859" lon="-0.29086">
        <ele>28</ele>
        <time>2021-06-03T13:13:41.000Z</time>
      </trkpt>
      <trkpt lat="44.97855" lon="-0.29093">
        <ele>28.4</ele>
        <time>2021-06-03T13:13:43.000Z</time>
      </trkpt>
      <trkpt lat="44.97848" lon="-0.29102">
        <ele>28.8</ele>
        <time>2021-06-03T13:13:46.000Z</time>
      </trkpt>
      <trkpt lat="44.97842" lon="-0.29111">
        <ele>29.7</ele>
        <time>2021-06-03T13:13:49.000Z</time>
      </trkpt>
      <trkpt lat="44.97838" lon="-0.29117">
        <ele>30</ele>
        <time>2021-06-03T13:13:51.000Z</time>
      </trkpt>
      <trkpt lat="44.97834" lon="-0.29124">
        <ele>30.4</ele>
        <time>2021-06-03T13:13:53.000Z</time>
      </trkpt>
      <trkpt lat="44.9783" lon="-0.2913">
        <ele>31.4</ele>
        <time>2021-06-03T13:13:55.000Z</time>
      </trkpt>
      <trkpt lat="44.97826" lon="-0.29136">
        <ele>31.2</ele>
        <time>2021-06-03T13:13:57.000Z</time>
      </trkpt>
      <trkpt lat="44.97822" lon="-0.29143">
        <ele>31.4</ele>
        <time>2021-06-03T13:13:59.000Z</time>
      </trkpt>
      <trkpt lat="44.97817" lon="-0.29149">
        <ele>31.7</ele>
        <time>2021-06-03T13:14:01.000Z</time>
      </trkpt>
      <trkpt lat="44.97813" lon="-0.29156">
        <ele>31.8</ele>
        <time>2021-06-03T13:14:03.000Z</time>
      </trkpt>
      <trkpt lat="44.97809" lon="-0.29162">
        <ele>32.5</ele>
        <time>2021-06-03T13:14:05.000Z</time>
      </trkpt>
      <trkpt lat="44.97805" lon="-0.29169">
        <ele>33.1</ele>
        <time>2021-06-03T13:14:07.000Z</time>
      </trkpt>
      <trkpt lat="44.97801" lon="-0.29175">
        <ele>33.6</ele>
        <time>2021-06-03T13:14:09.000Z</time>
      </trkpt>
      <trkpt lat="44.97797" lon="-0.29182">
        <ele>33.6</ele>
        <time>2021-06-03T13:14:11.000Z</time>
      </trkpt>
      <trkpt lat="44.97795" lon="-0.29185">
        <ele>33.5</ele>
        <time>2021-06-03T13:14:12.000Z</time>
      </trkpt>
      <trkpt lat="44.97789" lon="-0.29195">
        <ele>33.5</ele>
        <time>2021-06-03T13:14:15.000Z</time>
      </trkpt>
      <trkpt lat="44.97783" lon="-0.29205">
        <ele>34.8</ele>
        <time>2021-06-03T13:14:18.000Z</time>
      </trkpt>
      <trkpt lat="44.97778" lon="-0.29216">
        <ele>35.2</ele>
        <time>2021-06-03T13:14:21.000Z</time>
      </trkpt>
      <trkpt lat="44.97773" lon="-0.29225">
        <ele>36</ele>
        <time>2021-06-03T13:14:24.000Z</time>
      </trkpt>
      <trkpt lat="44.97769" lon="-0.29234">
        <ele>35.8</ele>
        <time>2021-06-03T13:14:27.000Z</time>
      </trkpt>
      <trkpt lat="44.97765" lon="-0.29243">
        <ele>35.9</ele>
        <time>2021-06-03T13:14:30.000Z</time>
      </trkpt>
      <trkpt lat="44.97761" lon="-0.29251">
        <ele>36.3</ele>
        <time>2021-06-03T13:14:33.000Z</time>
      </trkpt>
      <trkpt lat="44.97757" lon="-0.2926">
        <ele>37.3</ele>
        <time>2021-06-03T13:14:36.000Z</time>
      </trkpt>
      <trkpt lat="44.97754" lon="-0.29267">
        <ele>37</ele>
        <time>2021-06-03T13:14:38.000Z</time>
      </trkpt>
      <trkpt lat="44.9775" lon="-0.29275">
        <ele>37.9</ele>
        <time>2021-06-03T13:14:40.000Z</time>
      </trkpt>
      <trkpt lat="44.97747" lon="-0.29283">
        <ele>38.4</ele>
        <time>2021-06-03T13:14:42.000Z</time>
      </trkpt>
      <trkpt lat="44.97743" lon="-0.29292">
        <ele>38.4</ele>
        <time>2021-06-03T13:14:44.000Z</time>
      </trkpt>
      <trkpt lat="44.97739" lon="-0.29301">
        <ele>38.2</ele>
        <time>2021-06-03T13:14:46.000Z</time>
      </trkpt>
      <trkpt lat="44.97735" lon="-0.2931">
        <ele>38</ele>
        <time>2021-06-03T13:14:48.000Z</time>
      </trkpt>
      <trkpt lat="44.97731" lon="-0.2932">
        <ele>37.9</ele>
        <time>2021-06-03T13:14:50.000Z</time>
      </trkpt>
      <trkpt lat="44.97727" lon="-0.2933">
        <ele>38</ele>
        <time>2021-06-03T13:14:52.000Z</time>
      </trkpt>
      <trkpt lat="44.97722" lon="-0.29339">
        <ele>38.4</ele>
        <time>2021-06-03T13:14:54.000Z</time>
      </trkpt>
      <trkpt lat="44.97718" lon="-0.29349">
        <ele>38.9</ele>
        <time>2021-06-03T13:14:56.000Z</time>
      </trkpt>
      <trkpt lat="44.97714" lon="-0.29358">
        <ele>39.1</ele>
        <time>2021-06-03T13:14:58.000Z</time>
      </trkpt>
      <trkpt lat="44.9771" lon="-0.29368">
        <ele>39.3</ele>
        <time>2021-06-03T13:15:00.000Z</time>
      </trkpt>
      <trkpt lat="44.97706" lon="-0.29377">
        <ele>39.4</ele>
        <time>2021-06-03T13:15:02.000Z</time>
      </trkpt>
      <trkpt lat="44.97701" lon="-0.29387">
        <ele>39.8</ele>
        <time>2021-06-03T13:15:04.000Z</time>
      </trkpt>
      <trkpt lat="44.97697" lon="-0.29397">
        <ele>39.7</ele>
        <time>2021-06-03T13:15:06.000Z</time>
      </trkpt>
      <trkpt lat="44.97693" lon="-0.29406">
        <ele>39.7</ele>
        <time>2021-06-03T13:15:08.000Z</time>
      </trkpt>
      <trkpt lat="44.97689" lon="-0.29416">
        <ele>39.6</ele>
        <time>2021-06-03T13:15:10.000Z</time>
      </trkpt>
      <trkpt lat="44.97684" lon="-0.29426">
        <ele>39.6</ele>
        <time>2021-06-03T13:15:12.000Z</time>
      </trkpt>
      <trkpt lat="44.97682" lon="-0.29431">
        <ele>39.7</ele>
        <time>2021-06-03T13:15:13.000Z</time>
      </trkpt>
      <trkpt lat="44.97675" lon="-0.29447">
        <ele>39.8</ele>
        <time>2021-06-03T13:15:16.000Z</time>
      </trkpt>
      <trkpt lat="44.9767" lon="-0.29456">
        <ele>40</ele>
        <time>2021-06-03T13:15:18.000Z</time>
      </trkpt>
      <trkpt lat="44.97665" lon="-0.29465">
        <ele>39.9</ele>
        <time>2021-06-03T13:15:20.000Z</time>
      </trkpt>
      <trkpt lat="44.9766" lon="-0.29474">
        <ele>39.8</ele>
        <time>2021-06-03T13:15:22.000Z</time>
      </trkpt>
      <trkpt lat="44.97655" lon="-0.29482">
        <ele>40.1</ele>
        <time>2021-06-03T13:15:24.000Z</time>
      </trkpt>
      <trkpt lat="44.97649" lon="-0.2949">
        <ele>40.3</ele>
        <time>2021-06-03T13:15:26.000Z</time>
      </trkpt>
      <trkpt lat="44.97644" lon="-0.29498">
        <ele>40.9</ele>
        <time>2021-06-03T13:15:28.000Z</time>
      </trkpt>
      <trkpt lat="44.97638" lon="-0.29504">
        <ele>41.2</ele>
        <time>2021-06-03T13:15:30.000Z</time>
      </trkpt>
      <trkpt lat="44.97632" lon="-0.2951">
        <ele>41.6</ele>
        <time>2021-06-03T13:15:32.000Z</time>
      </trkpt>
      <trkpt lat="44.97626" lon="-0.29516">
        <ele>41.9</ele>
        <time>2021-06-03T13:15:34.000Z</time>
      </trkpt>
      <trkpt lat="44.9762" lon="-0.29523">
        <ele>42.4</ele>
        <time>2021-06-03T13:15:36.000Z</time>
      </trkpt>
      <trkpt lat="44.97613" lon="-0.29531">
        <ele>42.9</ele>
        <time>2021-06-03T13:15:38.000Z</time>
      </trkpt>
      <trkpt lat="44.97607" lon="-0.29539">
        <ele>42.2</ele>
        <time>2021-06-03T13:15:40.000Z</time>
      </trkpt>
      <trkpt lat="44.976" lon="-0.29546">
        <ele>42.9</ele>
        <time>2021-06-03T13:15:42.000Z</time>
      </trkpt>
      <trkpt lat="44.97594" lon="-0.29554">
        <ele>43.5</ele>
        <time>2021-06-03T13:15:44.000Z</time>
      </trkpt>
      <trkpt lat="44.97587" lon="-0.29562">
        <ele>43.7</ele>
        <time>2021-06-03T13:15:46.000Z</time>
      </trkpt>
      <trkpt lat="44.97581" lon="-0.29571">
        <ele>43.4</ele>
        <time>2021-06-03T13:15:48.000Z</time>
      </trkpt>
      <trkpt lat="44.97575" lon="-0.29579">
        <ele>43.3</ele>
        <time>2021-06-03T13:15:50.000Z</time>
      </trkpt>
      <trkpt lat="44.97572" lon="-0.29584">
        <ele>43.4</ele>
        <time>2021-06-03T13:15:51.000Z</time>
      </trkpt>
      <trkpt lat="44.97568" lon="-0.29588">
        <ele>43.5</ele>
        <time>2021-06-03T13:15:52.000Z</time>
      </trkpt>
      <trkpt lat="44.97565" lon="-0.29593">
        <ele>43.3</ele>
        <time>2021-06-03T13:15:53.000Z</time>
      </trkpt>
      <trkpt lat="44.97562" lon="-0.29597">
        <ele>43.1</ele>
        <time>2021-06-03T13:15:54.000Z</time>
      </trkpt>
      <trkpt lat="44.97559" lon="-0.29602">
        <ele>43.1</ele>
        <time>2021-06-03T13:15:55.000Z</time>
      </trkpt>
      <trkpt lat="44.97555" lon="-0.29607">
        <ele>43.1</ele>
        <time>2021-06-03T13:15:56.000Z</time>
      </trkpt>
      <trkpt lat="44.97552" lon="-0.29612">
        <ele>43.1</ele>
        <time>2021-06-03T13:15:57.000Z</time>
      </trkpt>
      <trkpt lat="44.97548" lon="-0.29616">
        <ele>43</ele>
        <time>2021-06-03T13:15:58.000Z</time>
      </trkpt>
      <trkpt lat="44.97545" lon="-0.29621">
        <ele>43</ele>
        <time>2021-06-03T13:15:59.000Z</time>
      </trkpt>
      <trkpt lat="44.97541" lon="-0.29625">
        <ele>42.8</ele>
        <time>2021-06-03T13:16:00.000Z</time>
      </trkpt>
      <trkpt lat="44.97538" lon="-0.2963">
        <ele>42.6</ele>
        <time>2021-06-03T13:16:01.000Z</time>
      </trkpt>
      <trkpt lat="44.97534" lon="-0.29634">
        <ele>43</ele>
        <time>2021-06-03T13:16:02.000Z</time>
      </trkpt>
      <trkpt lat="44.97531" lon="-0.29638">
        <ele>43.2</ele>
        <time>2021-06-03T13:16:03.000Z</time>
      </trkpt>
      <trkpt lat="44.97527" lon="-0.29642">
        <ele>43.5</ele>
        <time>2021-06-03T13:16:04.000Z</time>
      </trkpt>
      <trkpt lat="44.97524" lon="-0.29647">
        <ele>43.3</ele>
        <time>2021-06-03T13:16:05.000Z</time>
      </trkpt>
      <trkpt lat="44.9752" lon="-0.29651">
        <ele>43.2</ele>
        <time>2021-06-03T13:16:06.000Z</time>
      </trkpt>
      <trkpt lat="44.97516" lon="-0.29655">
        <ele>43.1</ele>
        <time>2021-06-03T13:16:07.000Z</time>
      </trkpt>
      <trkpt lat="44.97512" lon="-0.29659">
        <ele>43</ele>
        <time>2021-06-03T13:16:08.000Z</time>
      </trkpt>
      <trkpt lat="44.97508" lon="-0.29663">
        <ele>43</ele>
        <time>2021-06-03T13:16:09.000Z</time>
      </trkpt>
      <trkpt lat="44.97504" lon="-0.29667">
        <ele>43</ele>
        <time>2021-06-03T13:16:10.000Z</time>
      </trkpt>
      <trkpt lat="44.975" lon="-0.2967">
        <ele>42.9</ele>
        <time>2021-06-03T13:16:11.000Z</time>
      </trkpt>
      <trkpt lat="44.97496" lon="-0.29674">
        <ele>43</ele>
        <time>2021-06-03T13:16:12.000Z</time>
      </trkpt>
      <trkpt lat="44.97492" lon="-0.29678">
        <ele>43</ele>
        <time>2021-06-03T13:16:13.000Z</time>
      </trkpt>
      <trkpt lat="44.97488" lon="-0.29681">
        <ele>43</ele>
        <time>2021-06-03T13:16:14.000Z</time>
      </trkpt>
      <trkpt lat="44.97484" lon="-0.29684">
        <ele>43</ele>
        <time>2021-06-03T13:16:15.000Z</time>
      </trkpt>
      <trkpt lat="44.9748" lon="-0.29688">
        <ele>43</ele>
        <time>2021-06-03T13:16:16.000Z</time>
      </trkpt>
      <trkpt lat="44.97476" lon="-0.29691">
        <ele>42.9</ele>
        <time>2021-06-03T13:16:17.000Z</time>
      </trkpt>
      <trkpt lat="44.97472" lon="-0.29695">
        <ele>42.9</ele>
        <time>2021-06-03T13:16:18.000Z</time>
      </trkpt>
      <trkpt lat="44.97468" lon="-0.29698">
        <ele>43.1</ele>
        <time>2021-06-03T13:16:19.000Z</time>
      </trkpt>
      <trkpt lat="44.9746" lon="-0.29705">
        <ele>43.2</ele>
        <time>2021-06-03T13:16:21.000Z</time>
      </trkpt>
      <trkpt lat="44.97453" lon="-0.29711">
        <ele>43.1</ele>
        <time>2021-06-03T13:16:23.000Z</time>
      </trkpt>
      <trkpt lat="44.97445" lon="-0.29718">
        <ele>43.1</ele>
        <time>2021-06-03T13:16:25.000Z</time>
      </trkpt>
      <trkpt lat="44.97438" lon="-0.29724">
        <ele>43.4</ele>
        <time>2021-06-03T13:16:27.000Z</time>
      </trkpt>
      <trkpt lat="44.9743" lon="-0.2973">
        <ele>43.7</ele>
        <time>2021-06-03T13:16:29.000Z</time>
      </trkpt>
      <trkpt lat="44.97426" lon="-0.29734">
        <ele>43.8</ele>
        <time>2021-06-03T13:16:30.000Z</time>
      </trkpt>
      <trkpt lat="44.97418" lon="-0.2974">
        <ele>44.5</ele>
        <time>2021-06-03T13:16:32.000Z</time>
      </trkpt>
      <trkpt lat="44.97411" lon="-0.29746">
        <ele>44.5</ele>
        <time>2021-06-03T13:16:34.000Z</time>
      </trkpt>
      <trkpt lat="44.97403" lon="-0.29752">
        <ele>44.7</ele>
        <time>2021-06-03T13:16:36.000Z</time>
      </trkpt>
      <trkpt lat="44.97395" lon="-0.29757">
        <ele>45.1</ele>
        <time>2021-06-03T13:16:38.000Z</time>
      </trkpt>
      <trkpt lat="44.97391" lon="-0.29759">
        <ele>45.4</ele>
        <time>2021-06-03T13:16:39.000Z</time>
      </trkpt>
      <trkpt lat="44.97382" lon="-0.29763">
        <ele>44.8</ele>
        <time>2021-06-03T13:16:41.000Z</time>
      </trkpt>
      <trkpt lat="44.97374" lon="-0.29765">
        <ele>44.7</ele>
        <time>2021-06-03T13:16:43.000Z</time>
      </trkpt>
      <trkpt lat="44.97365" lon="-0.29767">
        <ele>44.5</ele>
        <time>2021-06-03T13:16:45.000Z</time>
      </trkpt>
      <trkpt lat="44.9736" lon="-0.29768">
        <ele>44.3</ele>
        <time>2021-06-03T13:16:46.000Z</time>
      </trkpt>
      <trkpt lat="44.97356" lon="-0.29769">
        <ele>44.5</ele>
        <time>2021-06-03T13:16:47.000Z</time>
      </trkpt>
      <trkpt lat="44.97347" lon="-0.29772">
        <ele>44.7</ele>
        <time>2021-06-03T13:16:49.000Z</time>
      </trkpt>
      <trkpt lat="44.97339" lon="-0.29778">
        <ele>45.1</ele>
        <time>2021-06-03T13:16:51.000Z</time>
      </trkpt>
      <trkpt lat="44.97336" lon="-0.29782">
        <ele>45</ele>
        <time>2021-06-03T13:16:52.000Z</time>
      </trkpt>
      <trkpt lat="44.97332" lon="-0.29786">
        <ele>44.8</ele>
        <time>2021-06-03T13:16:53.000Z</time>
      </trkpt>
      <trkpt lat="44.97329" lon="-0.29791">
        <ele>44.8</ele>
        <time>2021-06-03T13:16:54.000Z</time>
      </trkpt>
      <trkpt lat="44.97326" lon="-0.29796">
        <ele>45</ele>
        <time>2021-06-03T13:16:55.000Z</time>
      </trkpt>
      <trkpt lat="44.97323" lon="-0.29801">
        <ele>45.3</ele>
        <time>2021-06-03T13:16:56.000Z</time>
      </trkpt>
      <trkpt lat="44.9732" lon="-0.29806">
        <ele>45.3</ele>
        <time>2021-06-03T13:16:57.000Z</time>
      </trkpt>
      <trkpt lat="44.97317" lon="-0.29812">
        <ele>45.4</ele>
        <time>2021-06-03T13:16:58.000Z</time>
      </trkpt>
      <trkpt lat="44.97315" lon="-0.29817">
        <ele>45.2</ele>
        <time>2021-06-03T13:16:59.000Z</time>
      </trkpt>
      <trkpt lat="44.97312" lon="-0.29823">
        <ele>45</ele>
        <time>2021-06-03T13:17:00.000Z</time>
      </trkpt>
      <trkpt lat="44.97309" lon="-0.29828">
        <ele>44.9</ele>
        <time>2021-06-03T13:17:01.000Z</time>
      </trkpt>
      <trkpt lat="44.97307" lon="-0.29833">
        <ele>44.8</ele>
        <time>2021-06-03T13:17:02.000Z</time>
      </trkpt>
      <trkpt lat="44.97304" lon="-0.29839">
        <ele>44.8</ele>
        <time>2021-06-03T13:17:03.000Z</time>
      </trkpt>
      <trkpt lat="44.97301" lon="-0.29844">
        <ele>44.9</ele>
        <time>2021-06-03T13:17:04.000Z</time>
      </trkpt>
      <trkpt lat="44.97298" lon="-0.29849">
        <ele>45</ele>
        <time>2021-06-03T13:17:05.000Z</time>
      </trkpt>
      <trkpt lat="44.97296" lon="-0.29855">
        <ele>45.2</ele>
        <time>2021-06-03T13:17:06.000Z</time>
      </trkpt>
      <trkpt lat="44.97293" lon="-0.2986">
        <ele>45.3</ele>
        <time>2021-06-03T13:17:07.000Z</time>
      </trkpt>
      <trkpt lat="44.9729" lon="-0.29866">
        <ele>45.5</ele>
        <time>2021-06-03T13:17:08.000Z</time>
      </trkpt>
      <trkpt lat="44.97287" lon="-0.29871">
        <ele>45.4</ele>
        <time>2021-06-03T13:17:09.000Z</time>
      </trkpt>
      <trkpt lat="44.97284" lon="-0.29876">
        <ele>45.4</ele>
        <time>2021-06-03T13:17:10.000Z</time>
      </trkpt>
      <trkpt lat="44.97281" lon="-0.29882">
        <ele>45.3</ele>
        <time>2021-06-03T13:17:11.000Z</time>
      </trkpt>
      <trkpt lat="44.97279" lon="-0.29887">
        <ele>45.2</ele>
        <time>2021-06-03T13:17:12.000Z</time>
      </trkpt>
      <trkpt lat="44.97276" lon="-0.29893">
        <ele>45.4</ele>
        <time>2021-06-03T13:17:13.000Z</time>
      </trkpt>
      <trkpt lat="44.97273" lon="-0.29898">
        <ele>45.6</ele>
        <time>2021-06-03T13:17:14.000Z</time>
      </trkpt>
      <trkpt lat="44.9727" lon="-0.29904">
        <ele>45.7</ele>
        <time>2021-06-03T13:17:15.000Z</time>
      </trkpt>
      <trkpt lat="44.97268" lon="-0.29909">
        <ele>46</ele>
        <time>2021-06-03T13:17:16.000Z</time>
      </trkpt>
      <trkpt lat="44.97265" lon="-0.29915">
        <ele>46.3</ele>
        <time>2021-06-03T13:17:17.000Z</time>
      </trkpt>
      <trkpt lat="44.97262" lon="-0.2992">
        <ele>46.1</ele>
        <time>2021-06-03T13:17:18.000Z</time>
      </trkpt>
      <trkpt lat="44.97259" lon="-0.29925">
        <ele>45.9</ele>
        <time>2021-06-03T13:17:19.000Z</time>
      </trkpt>
      <trkpt lat="44.97256" lon="-0.29931">
        <ele>45.8</ele>
        <time>2021-06-03T13:17:20.000Z</time>
      </trkpt>
      <trkpt lat="44.97253" lon="-0.29936">
        <ele>45.8</ele>
        <time>2021-06-03T13:17:21.000Z</time>
      </trkpt>
      <trkpt lat="44.9725" lon="-0.29941">
        <ele>45.8</ele>
        <time>2021-06-03T13:17:22.000Z</time>
      </trkpt>
      <trkpt lat="44.97247" lon="-0.29946">
        <ele>45.5</ele>
        <time>2021-06-03T13:17:23.000Z</time>
      </trkpt>
      <trkpt lat="44.97244" lon="-0.29951">
        <ele>45.2</ele>
        <time>2021-06-03T13:17:24.000Z</time>
      </trkpt>
      <trkpt lat="44.97241" lon="-0.29957">
        <ele>45.2</ele>
        <time>2021-06-03T13:17:25.000Z</time>
      </trkpt>
      <trkpt lat="44.97238" lon="-0.29962">
        <ele>45.2</ele>
        <time>2021-06-03T13:17:26.000Z</time>
      </trkpt>
      <trkpt lat="44.97235" lon="-0.29966">
        <ele>45.1</ele>
        <time>2021-06-03T13:17:27.000Z</time>
      </trkpt>
      <trkpt lat="44.97231" lon="-0.29971">
        <ele>45.1</ele>
        <time>2021-06-03T13:17:28.000Z</time>
      </trkpt>
      <trkpt lat="44.97228" lon="-0.29976">
        <ele>45.1</ele>
        <time>2021-06-03T13:17:29.000Z</time>
      </trkpt>
      <trkpt lat="44.97225" lon="-0.29981">
        <ele>44.8</ele>
        <time>2021-06-03T13:17:30.000Z</time>
      </trkpt>
      <trkpt lat="44.97219" lon="-0.2999">
        <ele>44.8</ele>
        <time>2021-06-03T13:17:32.000Z</time>
      </trkpt>
      <trkpt lat="44.97213" lon="-0.29999">
        <ele>45.1</ele>
        <time>2021-06-03T13:17:34.000Z</time>
      </trkpt>
      <trkpt lat="44.97207" lon="-0.30007">
        <ele>45.4</ele>
        <time>2021-06-03T13:17:36.000Z</time>
      </trkpt>
      <trkpt lat="44.97201" lon="-0.30017">
        <ele>45.9</ele>
        <time>2021-06-03T13:17:38.000Z</time>
      </trkpt>
      <trkpt lat="44.97195" lon="-0.30026">
        <ele>45.6</ele>
        <time>2021-06-03T13:17:40.000Z</time>
      </trkpt>
      <trkpt lat="44.9719" lon="-0.30035">
        <ele>45.4</ele>
        <time>2021-06-03T13:17:42.000Z</time>
      </trkpt>
      <trkpt lat="44.97184" lon="-0.30045">
        <ele>45.9</ele>
        <time>2021-06-03T13:17:44.000Z</time>
      </trkpt>
      <trkpt lat="44.97178" lon="-0.30054">
        <ele>46.3</ele>
        <time>2021-06-03T13:17:46.000Z</time>
      </trkpt>
      <trkpt lat="44.97173" lon="-0.30064">
        <ele>46.1</ele>
        <time>2021-06-03T13:17:48.000Z</time>
      </trkpt>
      <trkpt lat="44.97168" lon="-0.30073">
        <ele>45.8</ele>
        <time>2021-06-03T13:17:50.000Z</time>
      </trkpt>
      <trkpt lat="44.97163" lon="-0.30082">
        <ele>46.1</ele>
        <time>2021-06-03T13:17:52.000Z</time>
      </trkpt>
      <trkpt lat="44.97158" lon="-0.30092">
        <ele>46.4</ele>
        <time>2021-06-03T13:17:54.000Z</time>
      </trkpt>
      <trkpt lat="44.97153" lon="-0.30101">
        <ele>46.5</ele>
        <time>2021-06-03T13:17:56.000Z</time>
      </trkpt>
      <trkpt lat="44.97148" lon="-0.30111">
        <ele>46.6</ele>
        <time>2021-06-03T13:17:58.000Z</time>
      </trkpt>
      <trkpt lat="44.97144" lon="-0.3012">
        <ele>47.3</ele>
        <time>2021-06-03T13:18:00.000Z</time>
      </trkpt>
      <trkpt lat="44.97139" lon="-0.30128">
        <ele>48.3</ele>
        <time>2021-06-03T13:18:02.000Z</time>
      </trkpt>
      <trkpt lat="44.97133" lon="-0.30136">
        <ele>48.3</ele>
        <time>2021-06-03T13:18:04.000Z</time>
      </trkpt>
      <trkpt lat="44.97127" lon="-0.30143">
        <ele>48.5</ele>
        <time>2021-06-03T13:18:06.000Z</time>
      </trkpt>
      <trkpt lat="44.97121" lon="-0.30149">
        <ele>48.7</ele>
        <time>2021-06-03T13:18:08.000Z</time>
      </trkpt>
      <trkpt lat="44.97114" lon="-0.30154">
        <ele>48.8</ele>
        <time>2021-06-03T13:18:10.000Z</time>
      </trkpt>
      <trkpt lat="44.97107" lon="-0.30158">
        <ele>48.8</ele>
        <time>2021-06-03T13:18:12.000Z</time>
      </trkpt>
      <trkpt lat="44.97099" lon="-0.30162">
        <ele>49.3</ele>
        <time>2021-06-03T13:18:14.000Z</time>
      </trkpt>
      <trkpt lat="44.97091" lon="-0.30166">
        <ele>49.7</ele>
        <time>2021-06-03T13:18:16.000Z</time>
      </trkpt>
      <trkpt lat="44.97088" lon="-0.30169">
        <ele>49.8</ele>
        <time>2021-06-03T13:18:17.000Z</time>
      </trkpt>
      <trkpt lat="44.97077" lon="-0.30177">
        <ele>49.3</ele>
        <time>2021-06-03T13:18:20.000Z</time>
      </trkpt>
      <trkpt lat="44.97069" lon="-0.30183">
        <ele>49.3</ele>
        <time>2021-06-03T13:18:22.000Z</time>
      </trkpt>
      <trkpt lat="44.97062" lon="-0.30189">
        <ele>49.4</ele>
        <time>2021-06-03T13:18:24.000Z</time>
      </trkpt>
      <trkpt lat="44.97055" lon="-0.30195">
        <ele>50</ele>
        <time>2021-06-03T13:18:26.000Z</time>
      </trkpt>
      <trkpt lat="44.97048" lon="-0.30201">
        <ele>50.4</ele>
        <time>2021-06-03T13:18:28.000Z</time>
      </trkpt>
      <trkpt lat="44.97041" lon="-0.30208">
        <ele>50</ele>
        <time>2021-06-03T13:18:30.000Z</time>
      </trkpt>
      <trkpt lat="44.97034" lon="-0.30215">
        <ele>50.1</ele>
        <time>2021-06-03T13:18:32.000Z</time>
      </trkpt>
      <trkpt lat="44.97027" lon="-0.30222">
        <ele>50.5</ele>
        <time>2021-06-03T13:18:34.000Z</time>
      </trkpt>
      <trkpt lat="44.9702" lon="-0.30229">
        <ele>50.8</ele>
        <time>2021-06-03T13:18:36.000Z</time>
      </trkpt>
      <trkpt lat="44.97013" lon="-0.30236">
        <ele>50.7</ele>
        <time>2021-06-03T13:18:38.000Z</time>
      </trkpt>
      <trkpt lat="44.97007" lon="-0.30243">
        <ele>50.9</ele>
        <time>2021-06-03T13:18:40.000Z</time>
      </trkpt>
      <trkpt lat="44.97" lon="-0.30251">
        <ele>51.3</ele>
        <time>2021-06-03T13:18:42.000Z</time>
      </trkpt>
      <trkpt lat="44.96994" lon="-0.30258">
        <ele>51.8</ele>
        <time>2021-06-03T13:18:44.000Z</time>
      </trkpt>
      <trkpt lat="44.96987" lon="-0.30265">
        <ele>52.1</ele>
        <time>2021-06-03T13:18:46.000Z</time>
      </trkpt>
      <trkpt lat="44.96981" lon="-0.30272">
        <ele>52.2</ele>
        <time>2021-06-03T13:18:48.000Z</time>
      </trkpt>
      <trkpt lat="44.96974" lon="-0.3028">
        <ele>52.6</ele>
        <time>2021-06-03T13:18:50.000Z</time>
      </trkpt>
      <trkpt lat="44.96968" lon="-0.30288">
        <ele>52.6</ele>
        <time>2021-06-03T13:18:52.000Z</time>
      </trkpt>
      <trkpt lat="44.96961" lon="-0.30297">
        <ele>53.5</ele>
        <time>2021-06-03T13:18:54.000Z</time>
      </trkpt>
      <trkpt lat="44.96956" lon="-0.30306">
        <ele>54</ele>
        <time>2021-06-03T13:18:56.000Z</time>
      </trkpt>
      <trkpt lat="44.9695" lon="-0.30316">
        <ele>54.2</ele>
        <time>2021-06-03T13:18:58.000Z</time>
      </trkpt>
      <trkpt lat="44.96945" lon="-0.30327">
        <ele>53.8</ele>
        <time>2021-06-03T13:19:00.000Z</time>
      </trkpt>
      <trkpt lat="44.96943" lon="-0.30332">
        <ele>53.5</ele>
        <time>2021-06-03T13:19:01.000Z</time>
      </trkpt>
      <trkpt lat="44.9694" lon="-0.30338">
        <ele>53.3</ele>
        <time>2021-06-03T13:19:02.000Z</time>
      </trkpt>
      <trkpt lat="44.96938" lon="-0.30343">
        <ele>53</ele>
        <time>2021-06-03T13:19:03.000Z</time>
      </trkpt>
      <trkpt lat="44.96935" lon="-0.30349">
        <ele>52.8</ele>
        <time>2021-06-03T13:19:04.000Z</time>
      </trkpt>
      <trkpt lat="44.96933" lon="-0.30355">
        <ele>52.9</ele>
        <time>2021-06-03T13:19:05.000Z</time>
      </trkpt>
      <trkpt lat="44.9693" lon="-0.3036">
        <ele>52.9</ele>
        <time>2021-06-03T13:19:06.000Z</time>
      </trkpt>
      <trkpt lat="44.96928" lon="-0.30365">
        <ele>53</ele>
        <time>2021-06-03T13:19:07.000Z</time>
      </trkpt>
      <trkpt lat="44.96925" lon="-0.30371">
        <ele>53</ele>
        <time>2021-06-03T13:19:08.000Z</time>
      </trkpt>
      <trkpt lat="44.96922" lon="-0.30376">
        <ele>53.1</ele>
        <time>2021-06-03T13:19:09.000Z</time>
      </trkpt>
      <trkpt lat="44.9692" lon="-0.30382">
        <ele>53</ele>
        <time>2021-06-03T13:19:10.000Z</time>
      </trkpt>
      <trkpt lat="44.96917" lon="-0.30387">
        <ele>52.9</ele>
        <time>2021-06-03T13:19:11.000Z</time>
      </trkpt>
      <trkpt lat="44.96915" lon="-0.30393">
        <ele>53.2</ele>
        <time>2021-06-03T13:19:12.000Z</time>
      </trkpt>
      <trkpt lat="44.96912" lon="-0.30398">
        <ele>53.4</ele>
        <time>2021-06-03T13:19:13.000Z</time>
      </trkpt>
      <trkpt lat="44.96909" lon="-0.30403">
        <ele>53.6</ele>
        <time>2021-06-03T13:19:14.000Z</time>
      </trkpt>
      <trkpt lat="44.96907" lon="-0.30409">
        <ele>53.5</ele>
        <time>2021-06-03T13:19:15.000Z</time>
      </trkpt>
      <trkpt lat="44.96905" lon="-0.30414">
        <ele>53.4</ele>
        <time>2021-06-03T13:19:16.000Z</time>
      </trkpt>
      <trkpt lat="44.96902" lon="-0.3042">
        <ele>53.8</ele>
        <time>2021-06-03T13:19:17.000Z</time>
      </trkpt>
      <trkpt lat="44.96899" lon="-0.30425">
        <ele>54.1</ele>
        <time>2021-06-03T13:19:18.000Z</time>
      </trkpt>
      <trkpt lat="44.96897" lon="-0.3043">
        <ele>54.3</ele>
        <time>2021-06-03T13:19:19.000Z</time>
      </trkpt>
      <trkpt lat="44.96894" lon="-0.30435">
        <ele>54.4</ele>
        <time>2021-06-03T13:19:20.000Z</time>
      </trkpt>
      <trkpt lat="44.96892" lon="-0.30441">
        <ele>54.5</ele>
        <time>2021-06-03T13:19:21.000Z</time>
      </trkpt>
      <trkpt lat="44.96889" lon="-0.30446">
        <ele>54.3</ele>
        <time>2021-06-03T13:19:22.000Z</time>
      </trkpt>
      <trkpt lat="44.96886" lon="-0.30451">
        <ele>54.1</ele>
        <time>2021-06-03T13:19:23.000Z</time>
      </trkpt>
      <trkpt lat="44.96883" lon="-0.30457">
        <ele>54.4</ele>
        <time>2021-06-03T13:19:24.000Z</time>
      </trkpt>
      <trkpt lat="44.96881" lon="-0.30462">
        <ele>54.5</ele>
        <time>2021-06-03T13:19:25.000Z</time>
      </trkpt>
      <trkpt lat="44.96878" lon="-0.30467">
        <ele>54.2</ele>
        <time>2021-06-03T13:19:26.000Z</time>
      </trkpt>
      <trkpt lat="44.96876" lon="-0.30473">
        <ele>53.9</ele>
        <time>2021-06-03T13:19:27.000Z</time>
      </trkpt>
      <trkpt lat="44.96873" lon="-0.30478">
        <ele>53.7</ele>
        <time>2021-06-03T13:19:28.000Z</time>
      </trkpt>
      <trkpt lat="44.9687" lon="-0.30483">
        <ele>53.9</ele>
        <time>2021-06-03T13:19:29.000Z</time>
      </trkpt>
      <trkpt lat="44.96867" lon="-0.30488">
        <ele>54</ele>
        <time>2021-06-03T13:19:30.000Z</time>
      </trkpt>
      <trkpt lat="44.96865" lon="-0.30494">
        <ele>54.3</ele>
        <time>2021-06-03T13:19:31.000Z</time>
      </trkpt>
      <trkpt lat="44.96862" lon="-0.30499">
        <ele>54.5</ele>
        <time>2021-06-03T13:19:32.000Z</time>
      </trkpt>
      <trkpt lat="44.9686" lon="-0.30504">
        <ele>54.6</ele>
        <time>2021-06-03T13:19:33.000Z</time>
      </trkpt>
      <trkpt lat="44.96857" lon="-0.3051">
        <ele>54.6</ele>
        <time>2021-06-03T13:19:34.000Z</time>
      </trkpt>
      <trkpt lat="44.96855" lon="-0.30515">
        <ele>54.5</ele>
        <time>2021-06-03T13:19:35.000Z</time>
      </trkpt>
      <trkpt lat="44.96852" lon="-0.30521">
        <ele>54.6</ele>
        <time>2021-06-03T13:19:36.000Z</time>
      </trkpt>
      <trkpt lat="44.9685" lon="-0.30527">
        <ele>54.7</ele>
        <time>2021-06-03T13:19:37.000Z</time>
      </trkpt>
      <trkpt lat="44.96845" lon="-0.30538">
        <ele>55.2</ele>
        <time>2021-06-03T13:19:39.000Z</time>
      </trkpt>
      <trkpt lat="44.96841" lon="-0.30549">
        <ele>55.6</ele>
        <time>2021-06-03T13:19:41.000Z</time>
      </trkpt>
      <trkpt lat="44.96836" lon="-0.30558">
        <ele>55.8</ele>
        <time>2021-06-03T13:19:43.000Z</time>
      </trkpt>
      <trkpt lat="44.96831" lon="-0.30569">
        <ele>55.6</ele>
        <time>2021-06-03T13:19:45.000Z</time>
      </trkpt>
      <trkpt lat="44.96826" lon="-0.30578">
        <ele>55.4</ele>
        <time>2021-06-03T13:19:47.000Z</time>
      </trkpt>
      <trkpt lat="44.96823" lon="-0.30583">
        <ele>55.6</ele>
        <time>2021-06-03T13:19:48.000Z</time>
      </trkpt>
      <trkpt lat="44.96816" lon="-0.30591">
        <ele>55.5</ele>
        <time>2021-06-03T13:19:50.000Z</time>
      </trkpt>
      <trkpt lat="44.96812" lon="-0.30595">
        <ele>55.4</ele>
        <time>2021-06-03T13:19:51.000Z</time>
      </trkpt>
      <trkpt lat="44.96808" lon="-0.30598">
        <ele>55.5</ele>
        <time>2021-06-03T13:19:52.000Z</time>
      </trkpt>
      <trkpt lat="44.96801" lon="-0.30605">
        <ele>55.6</ele>
        <time>2021-06-03T13:19:54.000Z</time>
      </trkpt>
      <trkpt lat="44.96794" lon="-0.30612">
        <ele>55.3</ele>
        <time>2021-06-03T13:19:56.000Z</time>
      </trkpt>
      <trkpt lat="44.96786" lon="-0.30618">
        <ele>55.6</ele>
        <time>2021-06-03T13:19:58.000Z</time>
      </trkpt>
      <trkpt lat="44.96779" lon="-0.30624">
        <ele>55.9</ele>
        <time>2021-06-03T13:20:00.000Z</time>
      </trkpt>
      <trkpt lat="44.96771" lon="-0.3063">
        <ele>56.1</ele>
        <time>2021-06-03T13:20:02.000Z</time>
      </trkpt>
      <trkpt lat="44.96765" lon="-0.30637">
        <ele>56.1</ele>
        <time>2021-06-03T13:20:04.000Z</time>
      </trkpt>
      <trkpt lat="44.96758" lon="-0.30645">
        <ele>55.9</ele>
        <time>2021-06-03T13:20:06.000Z</time>
      </trkpt>
      <trkpt lat="44.96753" lon="-0.30653">
        <ele>56.3</ele>
        <time>2021-06-03T13:20:08.000Z</time>
      </trkpt>
      <trkpt lat="44.96748" lon="-0.30661">
        <ele>56.1</ele>
        <time>2021-06-03T13:20:10.000Z</time>
      </trkpt>
      <trkpt lat="44.96742" lon="-0.30668">
        <ele>57</ele>
        <time>2021-06-03T13:20:12.000Z</time>
      </trkpt>
      <trkpt lat="44.96737" lon="-0.30675">
        <ele>57.5</ele>
        <time>2021-06-03T13:20:14.000Z</time>
      </trkpt>
      <trkpt lat="44.96732" lon="-0.3068">
        <ele>57.9</ele>
        <time>2021-06-03T13:20:16.000Z</time>
      </trkpt>
      <trkpt lat="44.96727" lon="-0.30684">
        <ele>58.3</ele>
        <time>2021-06-03T13:20:18.000Z</time>
      </trkpt>
      <trkpt lat="44.96724" lon="-0.30687">
        <ele>57.8</ele>
        <time>2021-06-03T13:20:19.000Z</time>
      </trkpt>
      <trkpt lat="44.96718" lon="-0.30699">
        <ele>56.8</ele>
        <time>2021-06-03T13:20:22.000Z</time>
      </trkpt>
      <trkpt lat="44.96716" lon="-0.30708">
        <ele>57</ele>
        <time>2021-06-03T13:20:24.000Z</time>
      </trkpt>
      <trkpt lat="44.96714" lon="-0.30719">
        <ele>56.8</ele>
        <time>2021-06-03T13:20:26.000Z</time>
      </trkpt>
      <trkpt lat="44.96712" lon="-0.3073">
        <ele>56.4</ele>
        <time>2021-06-03T13:20:28.000Z</time>
      </trkpt>
      <trkpt lat="44.9671" lon="-0.3074">
        <ele>56.1</ele>
        <time>2021-06-03T13:20:30.000Z</time>
      </trkpt>
      <trkpt lat="44.96707" lon="-0.30751">
        <ele>56.2</ele>
        <time>2021-06-03T13:20:32.000Z</time>
      </trkpt>
      <trkpt lat="44.96704" lon="-0.30761">
        <ele>56.2</ele>
        <time>2021-06-03T13:20:34.000Z</time>
      </trkpt>
      <trkpt lat="44.96701" lon="-0.3077">
        <ele>55.8</ele>
        <time>2021-06-03T13:20:36.000Z</time>
      </trkpt>
      <trkpt lat="44.96703" lon="-0.3078">
        <ele>55.4</ele>
        <time>2021-06-03T13:20:38.000Z</time>
      </trkpt>
      <trkpt lat="44.96709" lon="-0.30788">
        <ele>55.5</ele>
        <time>2021-06-03T13:20:40.000Z</time>
      </trkpt>
      <trkpt lat="44.96712" lon="-0.30791">
        <ele>55.7</ele>
        <time>2021-06-03T13:20:41.000Z</time>
      </trkpt>
      <trkpt lat="44.96716" lon="-0.30795">
        <ele>55.5</ele>
        <time>2021-06-03T13:20:42.000Z</time>
      </trkpt>
      <trkpt lat="44.9672" lon="-0.30799">
        <ele>55.4</ele>
        <time>2021-06-03T13:20:43.000Z</time>
      </trkpt>
      <trkpt lat="44.96728" lon="-0.30806">
        <ele>55.4</ele>
        <time>2021-06-03T13:20:45.000Z</time>
      </trkpt>
      <trkpt lat="44.96735" lon="-0.30813">
        <ele>55.9</ele>
        <time>2021-06-03T13:20:47.000Z</time>
      </trkpt>
      <trkpt lat="44.96741" lon="-0.3082">
        <ele>56.1</ele>
        <time>2021-06-03T13:20:49.000Z</time>
      </trkpt>
      <trkpt lat="44.96748" lon="-0.30826">
        <ele>55.9</ele>
        <time>2021-06-03T13:20:51.000Z</time>
      </trkpt>
      <trkpt lat="44.96755" lon="-0.30834">
        <ele>56</ele>
        <time>2021-06-03T13:20:53.000Z</time>
      </trkpt>
      <trkpt lat="44.96759" lon="-0.30838">
        <ele>55.8</ele>
        <time>2021-06-03T13:20:54.000Z</time>
      </trkpt>
      <trkpt lat="44.96762" lon="-0.30843">
        <ele>55.7</ele>
        <time>2021-06-03T13:20:55.000Z</time>
      </trkpt>
      <trkpt lat="44.96764" lon="-0.30849">
        <ele>55.6</ele>
        <time>2021-06-03T13:20:56.000Z</time>
      </trkpt>
      <trkpt lat="44.96766" lon="-0.30856">
        <ele>56</ele>
        <time>2021-06-03T13:20:57.000Z</time>
      </trkpt>
      <trkpt lat="44.96768" lon="-0.30862">
        <ele>56.3</ele>
        <time>2021-06-03T13:20:58.000Z</time>
      </trkpt>
      <trkpt lat="44.96769" lon="-0.30868">
        <ele>56.3</ele>
        <time>2021-06-03T13:20:59.000Z</time>
      </trkpt>
      <trkpt lat="44.96771" lon="-0.30875">
        <ele>56.3</ele>
        <time>2021-06-03T13:21:00.000Z</time>
      </trkpt>
      <trkpt lat="44.96773" lon="-0.30881">
        <ele>56.1</ele>
        <time>2021-06-03T13:21:01.000Z</time>
      </trkpt>
      <trkpt lat="44.96775" lon="-0.30887">
        <ele>56</ele>
        <time>2021-06-03T13:21:02.000Z</time>
      </trkpt>
      <trkpt lat="44.96776" lon="-0.30894">
        <ele>55.9</ele>
        <time>2021-06-03T13:21:03.000Z</time>
      </trkpt>
      <trkpt lat="44.96778" lon="-0.309">
        <ele>55.9</ele>
        <time>2021-06-03T13:21:04.000Z</time>
      </trkpt>
      <trkpt lat="44.96779" lon="-0.30907">
        <ele>56</ele>
        <time>2021-06-03T13:21:05.000Z</time>
      </trkpt>
      <trkpt lat="44.96781" lon="-0.30913">
        <ele>55.7</ele>
        <time>2021-06-03T13:21:06.000Z</time>
      </trkpt>
      <trkpt lat="44.96783" lon="-0.3092">
        <ele>55.5</ele>
        <time>2021-06-03T13:21:07.000Z</time>
      </trkpt>
      <trkpt lat="44.96785" lon="-0.30926">
        <ele>55.3</ele>
        <time>2021-06-03T13:21:08.000Z</time>
      </trkpt>
      <trkpt lat="44.96787" lon="-0.30932">
        <ele>55.4</ele>
        <time>2021-06-03T13:21:09.000Z</time>
      </trkpt>
      <trkpt lat="44.96789" lon="-0.30938">
        <ele>55.5</ele>
        <time>2021-06-03T13:21:10.000Z</time>
      </trkpt>
      <trkpt lat="44.96791" lon="-0.30944">
        <ele>55.4</ele>
        <time>2021-06-03T13:21:11.000Z</time>
      </trkpt>
      <trkpt lat="44.96794" lon="-0.3095">
        <ele>55.3</ele>
        <time>2021-06-03T13:21:12.000Z</time>
      </trkpt>
      <trkpt lat="44.96796" lon="-0.30956">
        <ele>55.1</ele>
        <time>2021-06-03T13:21:13.000Z</time>
      </trkpt>
      <trkpt lat="44.96798" lon="-0.30962">
        <ele>55</ele>
        <time>2021-06-03T13:21:14.000Z</time>
      </trkpt>
      <trkpt lat="44.968" lon="-0.30967">
        <ele>54.8</ele>
        <time>2021-06-03T13:21:15.000Z</time>
      </trkpt>
      <trkpt lat="44.96803" lon="-0.30973">
        <ele>55</ele>
        <time>2021-06-03T13:21:16.000Z</time>
      </trkpt>
      <trkpt lat="44.96807" lon="-0.30984">
        <ele>55.5</ele>
        <time>2021-06-03T13:21:18.000Z</time>
      </trkpt>
      <trkpt lat="44.96811" lon="-0.30995">
        <ele>55.7</ele>
        <time>2021-06-03T13:21:20.000Z</time>
      </trkpt>
      <trkpt lat="44.96813" lon="-0.31">
        <ele>55.6</ele>
        <time>2021-06-03T13:21:21.000Z</time>
      </trkpt>
      <trkpt lat="44.9682" lon="-0.31016">
        <ele>55.6</ele>
        <time>2021-06-03T13:21:24.000Z</time>
      </trkpt>
      <trkpt lat="44.96824" lon="-0.31026">
        <ele>56.1</ele>
        <time>2021-06-03T13:21:26.000Z</time>
      </trkpt>
      <trkpt lat="44.96828" lon="-0.31037">
        <ele>55.9</ele>
        <time>2021-06-03T13:21:28.000Z</time>
      </trkpt>
      <trkpt lat="44.96832" lon="-0.31049">
        <ele>56.1</ele>
        <time>2021-06-03T13:21:30.000Z</time>
      </trkpt>
      <trkpt lat="44.96836" lon="-0.31059">
        <ele>56.3</ele>
        <time>2021-06-03T13:21:32.000Z</time>
      </trkpt>
      <trkpt lat="44.9684" lon="-0.3107">
        <ele>56.3</ele>
        <time>2021-06-03T13:21:34.000Z</time>
      </trkpt>
      <trkpt lat="44.96843" lon="-0.31076">
        <ele>56.4</ele>
        <time>2021-06-03T13:21:35.000Z</time>
      </trkpt>
      <trkpt lat="44.96845" lon="-0.31082">
        <ele>56.4</ele>
        <time>2021-06-03T13:21:36.000Z</time>
      </trkpt>
      <trkpt lat="44.96848" lon="-0.31088">
        <ele>56.3</ele>
        <time>2021-06-03T13:21:37.000Z</time>
      </trkpt>
      <trkpt lat="44.9685" lon="-0.31095">
        <ele>56.3</ele>
        <time>2021-06-03T13:21:38.000Z</time>
      </trkpt>
      <trkpt lat="44.96853" lon="-0.31101">
        <ele>56.4</ele>
        <time>2021-06-03T13:21:39.000Z</time>
      </trkpt>
      <trkpt lat="44.96855" lon="-0.31108">
        <ele>56.5</ele>
        <time>2021-06-03T13:21:40.000Z</time>
      </trkpt>
      <trkpt lat="44.96857" lon="-0.31114">
        <ele>56.5</ele>
        <time>2021-06-03T13:21:41.000Z</time>
      </trkpt>
      <trkpt lat="44.96859" lon="-0.31121">
        <ele>56.7</ele>
        <time>2021-06-03T13:21:42.000Z</time>
      </trkpt>
      <trkpt lat="44.9686" lon="-0.31128">
        <ele>56.8</ele>
        <time>2021-06-03T13:21:43.000Z</time>
      </trkpt>
      <trkpt lat="44.96861" lon="-0.31134">
        <ele>56.7</ele>
        <time>2021-06-03T13:21:44.000Z</time>
      </trkpt>
      <trkpt lat="44.96863" lon="-0.31141">
        <ele>56.6</ele>
        <time>2021-06-03T13:21:45.000Z</time>
      </trkpt>
      <trkpt lat="44.96864" lon="-0.31148">
        <ele>56.7</ele>
        <time>2021-06-03T13:21:46.000Z</time>
      </trkpt>
      <trkpt lat="44.96865" lon="-0.31154">
        <ele>56.8</ele>
        <time>2021-06-03T13:21:47.000Z</time>
      </trkpt>
      <trkpt lat="44.96865" lon="-0.31161">
        <ele>56.9</ele>
        <time>2021-06-03T13:21:48.000Z</time>
      </trkpt>
      <trkpt lat="44.96866" lon="-0.31168">
        <ele>56.8</ele>
        <time>2021-06-03T13:21:49.000Z</time>
      </trkpt>
      <trkpt lat="44.96866" lon="-0.31175">
        <ele>56.8</ele>
        <time>2021-06-03T13:21:50.000Z</time>
      </trkpt>
      <trkpt lat="44.96867" lon="-0.31181">
        <ele>56.7</ele>
        <time>2021-06-03T13:21:51.000Z</time>
      </trkpt>
      <trkpt lat="44.96867" lon="-0.31188">
        <ele>56.6</ele>
        <time>2021-06-03T13:21:52.000Z</time>
      </trkpt>
      <trkpt lat="44.96867" lon="-0.31195">
        <ele>56.6</ele>
        <time>2021-06-03T13:21:53.000Z</time>
      </trkpt>
      <trkpt lat="44.96868" lon="-0.31202">
        <ele>56.8</ele>
        <time>2021-06-03T13:21:54.000Z</time>
      </trkpt>
      <trkpt lat="44.96868" lon="-0.31208">
        <ele>57</ele>
        <time>2021-06-03T13:21:55.000Z</time>
      </trkpt>
      <trkpt lat="44.96868" lon="-0.31215">
        <ele>57.1</ele>
        <time>2021-06-03T13:21:56.000Z</time>
      </trkpt>
      <trkpt lat="44.96869" lon="-0.31223">
        <ele>57.3</ele>
        <time>2021-06-03T13:21:57.000Z</time>
      </trkpt>
      <trkpt lat="44.96869" lon="-0.3123">
        <ele>57.3</ele>
        <time>2021-06-03T13:21:58.000Z</time>
      </trkpt>
      <trkpt lat="44.96869" lon="-0.31237">
        <ele>57.3</ele>
        <time>2021-06-03T13:21:59.000Z</time>
      </trkpt>
      <trkpt lat="44.96869" lon="-0.31244">
        <ele>57.3</ele>
        <time>2021-06-03T13:22:00.000Z</time>
      </trkpt>
      <trkpt lat="44.9687" lon="-0.3125">
        <ele>57.4</ele>
        <time>2021-06-03T13:22:01.000Z</time>
      </trkpt>
      <trkpt lat="44.9687" lon="-0.31257">
        <ele>57.5</ele>
        <time>2021-06-03T13:22:02.000Z</time>
      </trkpt>
      <trkpt lat="44.9687" lon="-0.31263">
        <ele>57.3</ele>
        <time>2021-06-03T13:22:03.000Z</time>
      </trkpt>
      <trkpt lat="44.96871" lon="-0.3127">
        <ele>57.1</ele>
        <time>2021-06-03T13:22:04.000Z</time>
      </trkpt>
      <trkpt lat="44.96872" lon="-0.31277">
        <ele>57.2</ele>
        <time>2021-06-03T13:22:05.000Z</time>
      </trkpt>
      <trkpt lat="44.96873" lon="-0.31285">
        <ele>57.2</ele>
        <time>2021-06-03T13:22:06.000Z</time>
      </trkpt>
      <trkpt lat="44.96873" lon="-0.31292">
        <ele>57.3</ele>
        <time>2021-06-03T13:22:07.000Z</time>
      </trkpt>
      <trkpt lat="44.96874" lon="-0.31299">
        <ele>57.2</ele>
        <time>2021-06-03T13:22:08.000Z</time>
      </trkpt>
      <trkpt lat="44.96875" lon="-0.31307">
        <ele>57.2</ele>
        <time>2021-06-03T13:22:09.000Z</time>
      </trkpt>
      <trkpt lat="44.96876" lon="-0.31315">
        <ele>57.3</ele>
        <time>2021-06-03T13:22:10.000Z</time>
      </trkpt>
      <trkpt lat="44.96877" lon="-0.31322">
        <ele>57.4</ele>
        <time>2021-06-03T13:22:11.000Z</time>
      </trkpt>
      <trkpt lat="44.96877" lon="-0.3133">
        <ele>57.5</ele>
        <time>2021-06-03T13:22:12.000Z</time>
      </trkpt>
      <trkpt lat="44.96878" lon="-0.31338">
        <ele>57.2</ele>
        <time>2021-06-03T13:22:13.000Z</time>
      </trkpt>
      <trkpt lat="44.96879" lon="-0.31346">
        <ele>57</ele>
        <time>2021-06-03T13:22:14.000Z</time>
      </trkpt>
      <trkpt lat="44.9688" lon="-0.31353">
        <ele>56.9</ele>
        <time>2021-06-03T13:22:15.000Z</time>
      </trkpt>
      <trkpt lat="44.96881" lon="-0.31361">
        <ele>56.7</ele>
        <time>2021-06-03T13:22:16.000Z</time>
      </trkpt>
      <trkpt lat="44.96882" lon="-0.31368">
        <ele>56.7</ele>
        <time>2021-06-03T13:22:17.000Z</time>
      </trkpt>
      <trkpt lat="44.96883" lon="-0.31376">
        <ele>56.6</ele>
        <time>2021-06-03T13:22:18.000Z</time>
      </trkpt>
      <trkpt lat="44.96884" lon="-0.31383">
        <ele>56.6</ele>
        <time>2021-06-03T13:22:19.000Z</time>
      </trkpt>
      <trkpt lat="44.96885" lon="-0.3139">
        <ele>56.6</ele>
        <time>2021-06-03T13:22:20.000Z</time>
      </trkpt>
      <trkpt lat="44.96886" lon="-0.31397">
        <ele>56.7</ele>
        <time>2021-06-03T13:22:21.000Z</time>
      </trkpt>
      <trkpt lat="44.96888" lon="-0.31405">
        <ele>56.4</ele>
        <time>2021-06-03T13:22:22.000Z</time>
      </trkpt>
      <trkpt lat="44.96889" lon="-0.31412">
        <ele>56.2</ele>
        <time>2021-06-03T13:22:23.000Z</time>
      </trkpt>
      <trkpt lat="44.9689" lon="-0.31419">
        <ele>56</ele>
        <time>2021-06-03T13:22:24.000Z</time>
      </trkpt>
      <trkpt lat="44.96891" lon="-0.31426">
        <ele>55.8</ele>
        <time>2021-06-03T13:22:25.000Z</time>
      </trkpt>
      <trkpt lat="44.96893" lon="-0.31433">
        <ele>55.6</ele>
        <time>2021-06-03T13:22:26.000Z</time>
      </trkpt>
      <trkpt lat="44.96894" lon="-0.3144">
        <ele>55.6</ele>
        <time>2021-06-03T13:22:27.000Z</time>
      </trkpt>
      <trkpt lat="44.96895" lon="-0.31448">
        <ele>55.7</ele>
        <time>2021-06-03T13:22:28.000Z</time>
      </trkpt>
      <trkpt lat="44.96896" lon="-0.31455">
        <ele>55.5</ele>
        <time>2021-06-03T13:22:29.000Z</time>
      </trkpt>
      <trkpt lat="44.96898" lon="-0.31462">
        <ele>55.4</ele>
        <time>2021-06-03T13:22:30.000Z</time>
      </trkpt>
      <trkpt lat="44.96899" lon="-0.31469">
        <ele>55.5</ele>
        <time>2021-06-03T13:22:31.000Z</time>
      </trkpt>
      <trkpt lat="44.969" lon="-0.31477">
        <ele>55.5</ele>
        <time>2021-06-03T13:22:32.000Z</time>
      </trkpt>
      <trkpt lat="44.96901" lon="-0.31484">
        <ele>55.5</ele>
        <time>2021-06-03T13:22:33.000Z</time>
      </trkpt>
      <trkpt lat="44.96902" lon="-0.31491">
        <ele>55.9</ele>
        <time>2021-06-03T13:22:34.000Z</time>
      </trkpt>
      <trkpt lat="44.96902" lon="-0.31498">
        <ele>56.2</ele>
        <time>2021-06-03T13:22:35.000Z</time>
      </trkpt>
      <trkpt lat="44.96903" lon="-0.31505">
        <ele>55.9</ele>
        <time>2021-06-03T13:22:36.000Z</time>
      </trkpt>
      <trkpt lat="44.96904" lon="-0.31512">
        <ele>55.7</ele>
        <time>2021-06-03T13:22:37.000Z</time>
      </trkpt>
      <trkpt lat="44.96904" lon="-0.3152">
        <ele>55.5</ele>
        <time>2021-06-03T13:22:38.000Z</time>
      </trkpt>
      <trkpt lat="44.96904" lon="-0.31527">
        <ele>55.8</ele>
        <time>2021-06-03T13:22:39.000Z</time>
      </trkpt>
      <trkpt lat="44.96905" lon="-0.31534">
        <ele>56</ele>
        <time>2021-06-03T13:22:40.000Z</time>
      </trkpt>
      <trkpt lat="44.96905" lon="-0.31541">
        <ele>56.1</ele>
        <time>2021-06-03T13:22:41.000Z</time>
      </trkpt>
      <trkpt lat="44.96905" lon="-0.31548">
        <ele>56.1</ele>
        <time>2021-06-03T13:22:42.000Z</time>
      </trkpt>
      <trkpt lat="44.96906" lon="-0.31555">
        <ele>56.2</ele>
        <time>2021-06-03T13:22:43.000Z</time>
      </trkpt>
      <trkpt lat="44.96906" lon="-0.31562">
        <ele>56.2</ele>
        <time>2021-06-03T13:22:44.000Z</time>
      </trkpt>
      <trkpt lat="44.96907" lon="-0.31569">
        <ele>56.3</ele>
        <time>2021-06-03T13:22:45.000Z</time>
      </trkpt>
      <trkpt lat="44.96907" lon="-0.31576">
        <ele>56.5</ele>
        <time>2021-06-03T13:22:46.000Z</time>
      </trkpt>
      <trkpt lat="44.96907" lon="-0.31582">
        <ele>56.6</ele>
        <time>2021-06-03T13:22:47.000Z</time>
      </trkpt>
      <trkpt lat="44.96907" lon="-0.31589">
        <ele>56.8</ele>
        <time>2021-06-03T13:22:48.000Z</time>
      </trkpt>
      <trkpt lat="44.96907" lon="-0.31595">
        <ele>56.9</ele>
        <time>2021-06-03T13:22:49.000Z</time>
      </trkpt>
      <trkpt lat="44.96908" lon="-0.31602">
        <ele>57</ele>
        <time>2021-06-03T13:22:50.000Z</time>
      </trkpt>
      <trkpt lat="44.96908" lon="-0.31609">
        <ele>56.9</ele>
        <time>2021-06-03T13:22:51.000Z</time>
      </trkpt>
      <trkpt lat="44.96908" lon="-0.31615">
        <ele>56.8</ele>
        <time>2021-06-03T13:22:52.000Z</time>
      </trkpt>
      <trkpt lat="44.96908" lon="-0.31622">
        <ele>56.8</ele>
        <time>2021-06-03T13:22:53.000Z</time>
      </trkpt>
      <trkpt lat="44.96909" lon="-0.31628">
        <ele>56.8</ele>
        <time>2021-06-03T13:22:54.000Z</time>
      </trkpt>
      <trkpt lat="44.9691" lon="-0.31641">
        <ele>57.3</ele>
        <time>2021-06-03T13:22:56.000Z</time>
      </trkpt>
      <trkpt lat="44.9691" lon="-0.31647">
        <ele>57.4</ele>
        <time>2021-06-03T13:22:57.000Z</time>
      </trkpt>
      <trkpt lat="44.96912" lon="-0.31659">
        <ele>57.2</ele>
        <time>2021-06-03T13:22:59.000Z</time>
      </trkpt>
      <trkpt lat="44.96913" lon="-0.31666">
        <ele>57.5</ele>
        <time>2021-06-03T13:23:00.000Z</time>
      </trkpt>
      <trkpt lat="44.96914" lon="-0.31672">
        <ele>57.8</ele>
        <time>2021-06-03T13:23:01.000Z</time>
      </trkpt>
      <trkpt lat="44.96915" lon="-0.31678">
        <ele>58.1</ele>
        <time>2021-06-03T13:23:02.000Z</time>
      </trkpt>
      <trkpt lat="44.96919" lon="-0.3169">
        <ele>58.5</ele>
        <time>2021-06-03T13:23:04.000Z</time>
      </trkpt>
      <trkpt lat="44.96924" lon="-0.31701">
        <ele>57.9</ele>
        <time>2021-06-03T13:23:06.000Z</time>
      </trkpt>
      <trkpt lat="44.96929" lon="-0.3171">
        <ele>58.3</ele>
        <time>2021-06-03T13:23:08.000Z</time>
      </trkpt>
      <trkpt lat="44.96935" lon="-0.31719">
        <ele>58.6</ele>
        <time>2021-06-03T13:23:10.000Z</time>
      </trkpt>
      <trkpt lat="44.96942" lon="-0.31727">
        <ele>59</ele>
        <time>2021-06-03T13:23:12.000Z</time>
      </trkpt>
      <trkpt lat="44.96945" lon="-0.31732">
        <ele>59.1</ele>
        <time>2021-06-03T13:23:13.000Z</time>
      </trkpt>
      <trkpt lat="44.96948" lon="-0.31736">
        <ele>59.2</ele>
        <time>2021-06-03T13:23:14.000Z</time>
      </trkpt>
      <trkpt lat="44.96952" lon="-0.31741">
        <ele>59.2</ele>
        <time>2021-06-03T13:23:15.000Z</time>
      </trkpt>
      <trkpt lat="44.96955" lon="-0.31745">
        <ele>59.2</ele>
        <time>2021-06-03T13:23:16.000Z</time>
      </trkpt>
      <trkpt lat="44.96959" lon="-0.3175">
        <ele>59.5</ele>
        <time>2021-06-03T13:23:17.000Z</time>
      </trkpt>
      <trkpt lat="44.96962" lon="-0.31754">
        <ele>59.7</ele>
        <time>2021-06-03T13:23:18.000Z</time>
      </trkpt>
      <trkpt lat="44.96965" lon="-0.31759">
        <ele>59.9</ele>
        <time>2021-06-03T13:23:19.000Z</time>
      </trkpt>
      <trkpt lat="44.96969" lon="-0.31764">
        <ele>60</ele>
        <time>2021-06-03T13:23:20.000Z</time>
      </trkpt>
      <trkpt lat="44.96972" lon="-0.31768">
        <ele>60</ele>
        <time>2021-06-03T13:23:21.000Z</time>
      </trkpt>
      <trkpt lat="44.96976" lon="-0.31773">
        <ele>60</ele>
        <time>2021-06-03T13:23:22.000Z</time>
      </trkpt>
      <trkpt lat="44.9698" lon="-0.31778">
        <ele>60</ele>
        <time>2021-06-03T13:23:23.000Z</time>
      </trkpt>
      <trkpt lat="44.96983" lon="-0.31783">
        <ele>60.1</ele>
        <time>2021-06-03T13:23:24.000Z</time>
      </trkpt>
      <trkpt lat="44.96987" lon="-0.31788">
        <ele>60.2</ele>
        <time>2021-06-03T13:23:25.000Z</time>
      </trkpt>
      <trkpt lat="44.96991" lon="-0.31792">
        <ele>60.1</ele>
        <time>2021-06-03T13:23:26.000Z</time>
      </trkpt>
      <trkpt lat="44.96995" lon="-0.31797">
        <ele>60.1</ele>
        <time>2021-06-03T13:23:27.000Z</time>
      </trkpt>
      <trkpt lat="44.96998" lon="-0.31802">
        <ele>60.4</ele>
        <time>2021-06-03T13:23:28.000Z</time>
      </trkpt>
      <trkpt lat="44.97002" lon="-0.31807">
        <ele>60.6</ele>
        <time>2021-06-03T13:23:29.000Z</time>
      </trkpt>
      <trkpt lat="44.97005" lon="-0.31811">
        <ele>60.7</ele>
        <time>2021-06-03T13:23:30.000Z</time>
      </trkpt>
      <trkpt lat="44.97008" lon="-0.31816">
        <ele>60.5</ele>
        <time>2021-06-03T13:23:31.000Z</time>
      </trkpt>
      <trkpt lat="44.97012" lon="-0.3182">
        <ele>60.3</ele>
        <time>2021-06-03T13:23:32.000Z</time>
      </trkpt>
      <trkpt lat="44.97016" lon="-0.31825">
        <ele>60.2</ele>
        <time>2021-06-03T13:23:33.000Z</time>
      </trkpt>
      <trkpt lat="44.97019" lon="-0.31829">
        <ele>60.1</ele>
        <time>2021-06-03T13:23:34.000Z</time>
      </trkpt>
      <trkpt lat="44.97023" lon="-0.31834">
        <ele>60</ele>
        <time>2021-06-03T13:23:35.000Z</time>
      </trkpt>
      <trkpt lat="44.97026" lon="-0.31838">
        <ele>60.2</ele>
        <time>2021-06-03T13:23:36.000Z</time>
      </trkpt>
      <trkpt lat="44.97029" lon="-0.31843">
        <ele>60.3</ele>
        <time>2021-06-03T13:23:37.000Z</time>
      </trkpt>
      <trkpt lat="44.97033" lon="-0.31847">
        <ele>60.8</ele>
        <time>2021-06-03T13:23:38.000Z</time>
      </trkpt>
      <trkpt lat="44.97036" lon="-0.31852">
        <ele>61.1</ele>
        <time>2021-06-03T13:23:39.000Z</time>
      </trkpt>
      <trkpt lat="44.9704" lon="-0.31856">
        <ele>60.9</ele>
        <time>2021-06-03T13:23:40.000Z</time>
      </trkpt>
      <trkpt lat="44.97044" lon="-0.31861">
        <ele>60.8</ele>
        <time>2021-06-03T13:23:41.000Z</time>
      </trkpt>
      <trkpt lat="44.97047" lon="-0.31865">
        <ele>60.8</ele>
        <time>2021-06-03T13:23:42.000Z</time>
      </trkpt>
      <trkpt lat="44.97051" lon="-0.3187">
        <ele>60.7</ele>
        <time>2021-06-03T13:23:43.000Z</time>
      </trkpt>
      <trkpt lat="44.97055" lon="-0.31874">
        <ele>60.7</ele>
        <time>2021-06-03T13:23:44.000Z</time>
      </trkpt>
      <trkpt lat="44.97058" lon="-0.31878">
        <ele>60.8</ele>
        <time>2021-06-03T13:23:45.000Z</time>
      </trkpt>
      <trkpt lat="44.97061" lon="-0.31882">
        <ele>60.9</ele>
        <time>2021-06-03T13:23:46.000Z</time>
      </trkpt>
      <trkpt lat="44.97065" lon="-0.31887">
        <ele>60.9</ele>
        <time>2021-06-03T13:23:47.000Z</time>
      </trkpt>
      <trkpt lat="44.97068" lon="-0.31892">
        <ele>60.9</ele>
        <time>2021-06-03T13:23:48.000Z</time>
      </trkpt>
      <trkpt lat="44.97071" lon="-0.31897">
        <ele>60.9</ele>
        <time>2021-06-03T13:23:49.000Z</time>
      </trkpt>
      <trkpt lat="44.97074" lon="-0.31902">
        <ele>60.9</ele>
        <time>2021-06-03T13:23:50.000Z</time>
      </trkpt>
      <trkpt lat="44.97077" lon="-0.31909">
        <ele>60.9</ele>
        <time>2021-06-03T13:23:51.000Z</time>
      </trkpt>
      <trkpt lat="44.9708" lon="-0.31915">
        <ele>60.8</ele>
        <time>2021-06-03T13:23:52.000Z</time>
      </trkpt>
      <trkpt lat="44.97082" lon="-0.31923">
        <ele>60.7</ele>
        <time>2021-06-03T13:23:53.000Z</time>
      </trkpt>
      <trkpt lat="44.97085" lon="-0.31931">
        <ele>60.7</ele>
        <time>2021-06-03T13:23:54.000Z</time>
      </trkpt>
      <trkpt lat="44.97087" lon="-0.31939">
        <ele>60</ele>
        <time>2021-06-03T13:23:55.000Z</time>
      </trkpt>
      <trkpt lat="44.97089" lon="-0.31948">
        <ele>59.5</ele>
        <time>2021-06-03T13:23:56.000Z</time>
      </trkpt>
      <trkpt lat="44.97091" lon="-0.31957">
        <ele>59.1</ele>
        <time>2021-06-03T13:23:57.000Z</time>
      </trkpt>
      <trkpt lat="44.97094" lon="-0.31967">
        <ele>58.7</ele>
        <time>2021-06-03T13:23:58.000Z</time>
      </trkpt>
      <trkpt lat="44.97096" lon="-0.31976">
        <ele>58.4</ele>
        <time>2021-06-03T13:23:59.000Z</time>
      </trkpt>
      <trkpt lat="44.97098" lon="-0.31984">
        <ele>58.1</ele>
        <time>2021-06-03T13:24:00.000Z</time>
      </trkpt>
      <trkpt lat="44.971" lon="-0.31993">
        <ele>57.9</ele>
        <time>2021-06-03T13:24:01.000Z</time>
      </trkpt>
      <trkpt lat="44.97102" lon="-0.32003">
        <ele>57.2</ele>
        <time>2021-06-03T13:24:02.000Z</time>
      </trkpt>
      <trkpt lat="44.97104" lon="-0.32012">
        <ele>56.7</ele>
        <time>2021-06-03T13:24:03.000Z</time>
      </trkpt>
      <trkpt lat="44.97106" lon="-0.32021">
        <ele>56.6</ele>
        <time>2021-06-03T13:24:04.000Z</time>
      </trkpt>
      <trkpt lat="44.97107" lon="-0.3203">
        <ele>56.5</ele>
        <time>2021-06-03T13:24:05.000Z</time>
      </trkpt>
      <trkpt lat="44.97109" lon="-0.32038">
        <ele>56.3</ele>
        <time>2021-06-03T13:24:06.000Z</time>
      </trkpt>
      <trkpt lat="44.9711" lon="-0.32047">
        <ele>56.2</ele>
        <time>2021-06-03T13:24:07.000Z</time>
      </trkpt>
      <trkpt lat="44.97112" lon="-0.32055">
        <ele>56.1</ele>
        <time>2021-06-03T13:24:08.000Z</time>
      </trkpt>
      <trkpt lat="44.97114" lon="-0.32064">
        <ele>56.1</ele>
        <time>2021-06-03T13:24:09.000Z</time>
      </trkpt>
      <trkpt lat="44.97116" lon="-0.32073">
        <ele>56.2</ele>
        <time>2021-06-03T13:24:10.000Z</time>
      </trkpt>
      <trkpt lat="44.97118" lon="-0.32082">
        <ele>55.7</ele>
        <time>2021-06-03T13:24:11.000Z</time>
      </trkpt>
      <trkpt lat="44.9712" lon="-0.32092">
        <ele>55.4</ele>
        <time>2021-06-03T13:24:12.000Z</time>
      </trkpt>
      <trkpt lat="44.97123" lon="-0.32101">
        <ele>55.1</ele>
        <time>2021-06-03T13:24:13.000Z</time>
      </trkpt>
      <trkpt lat="44.97125" lon="-0.32111">
        <ele>54.8</ele>
        <time>2021-06-03T13:24:14.000Z</time>
      </trkpt>
      <trkpt lat="44.97127" lon="-0.32121">
        <ele>54.6</ele>
        <time>2021-06-03T13:24:15.000Z</time>
      </trkpt>
      <trkpt lat="44.97129" lon="-0.32131">
        <ele>54.1</ele>
        <time>2021-06-03T13:24:16.000Z</time>
      </trkpt>
      <trkpt lat="44.97131" lon="-0.32141">
        <ele>53.8</ele>
        <time>2021-06-03T13:24:17.000Z</time>
      </trkpt>
      <trkpt lat="44.97134" lon="-0.32151">
        <ele>53.5</ele>
        <time>2021-06-03T13:24:18.000Z</time>
      </trkpt>
      <trkpt lat="44.97136" lon="-0.32162">
        <ele>53.2</ele>
        <time>2021-06-03T13:24:19.000Z</time>
      </trkpt>
      <trkpt lat="44.97138" lon="-0.32172">
        <ele>53.1</ele>
        <time>2021-06-03T13:24:20.000Z</time>
      </trkpt>
      <trkpt lat="44.9714" lon="-0.32182">
        <ele>52.8</ele>
        <time>2021-06-03T13:24:21.000Z</time>
      </trkpt>
      <trkpt lat="44.97142" lon="-0.32191">
        <ele>52.6</ele>
        <time>2021-06-03T13:24:22.000Z</time>
      </trkpt>
      <trkpt lat="44.97144" lon="-0.32199">
        <ele>52.2</ele>
        <time>2021-06-03T13:24:23.000Z</time>
      </trkpt>
      <trkpt lat="44.97146" lon="-0.32207">
        <ele>51.9</ele>
        <time>2021-06-03T13:24:24.000Z</time>
      </trkpt>
      <trkpt lat="44.97148" lon="-0.32216">
        <ele>51.7</ele>
        <time>2021-06-03T13:24:25.000Z</time>
      </trkpt>
      <trkpt lat="44.9715" lon="-0.32224">
        <ele>51.6</ele>
        <time>2021-06-03T13:24:26.000Z</time>
      </trkpt>
      <trkpt lat="44.97152" lon="-0.32232">
        <ele>51.5</ele>
        <time>2021-06-03T13:24:27.000Z</time>
      </trkpt>
      <trkpt lat="44.97154" lon="-0.32239">
        <ele>51.3</ele>
        <time>2021-06-03T13:24:28.000Z</time>
      </trkpt>
      <trkpt lat="44.97155" lon="-0.32246">
        <ele>51.2</ele>
        <time>2021-06-03T13:24:29.000Z</time>
      </trkpt>
      <trkpt lat="44.97151" lon="-0.32257">
        <ele>50.7</ele>
        <time>2021-06-03T13:24:31.000Z</time>
      </trkpt>
      <trkpt lat="44.97147" lon="-0.32262">
        <ele>50.5</ele>
        <time>2021-06-03T13:24:32.000Z</time>
      </trkpt>
      <trkpt lat="44.97143" lon="-0.32266">
        <ele>50.6</ele>
        <time>2021-06-03T13:24:33.000Z</time>
      </trkpt>
      <trkpt lat="44.97138" lon="-0.32269">
        <ele>50.7</ele>
        <time>2021-06-03T13:24:34.000Z</time>
      </trkpt>
      <trkpt lat="44.97134" lon="-0.32272">
        <ele>51</ele>
        <time>2021-06-03T13:24:35.000Z</time>
      </trkpt>
      <trkpt lat="44.97129" lon="-0.32276">
        <ele>51.2</ele>
        <time>2021-06-03T13:24:36.000Z</time>
      </trkpt>
      <trkpt lat="44.97124" lon="-0.32278">
        <ele>51.3</ele>
        <time>2021-06-03T13:24:37.000Z</time>
      </trkpt>
      <trkpt lat="44.97119" lon="-0.3228">
        <ele>51.4</ele>
        <time>2021-06-03T13:24:38.000Z</time>
      </trkpt>
      <trkpt lat="44.97114" lon="-0.32282">
        <ele>51.5</ele>
        <time>2021-06-03T13:24:39.000Z</time>
      </trkpt>
      <trkpt lat="44.97109" lon="-0.32284">
        <ele>51.3</ele>
        <time>2021-06-03T13:24:40.000Z</time>
      </trkpt>
      <trkpt lat="44.97105" lon="-0.32286">
        <ele>51.2</ele>
        <time>2021-06-03T13:24:41.000Z</time>
      </trkpt>
      <trkpt lat="44.971" lon="-0.32288">
        <ele>51.2</ele>
        <time>2021-06-03T13:24:42.000Z</time>
      </trkpt>
      <trkpt lat="44.97096" lon="-0.3229">
        <ele>51.3</ele>
        <time>2021-06-03T13:24:43.000Z</time>
      </trkpt>
      <trkpt lat="44.97091" lon="-0.32293">
        <ele>51.3</ele>
        <time>2021-06-03T13:24:44.000Z</time>
      </trkpt>
      <trkpt lat="44.97087" lon="-0.32297">
        <ele>51.4</ele>
        <time>2021-06-03T13:24:45.000Z</time>
      </trkpt>
      <trkpt lat="44.97084" lon="-0.32302">
        <ele>51.4</ele>
        <time>2021-06-03T13:24:46.000Z</time>
      </trkpt>
      <trkpt lat="44.97082" lon="-0.32308">
        <ele>51.5</ele>
        <time>2021-06-03T13:24:47.000Z</time>
      </trkpt>
      <trkpt lat="44.97081" lon="-0.32314">
        <ele>51.5</ele>
        <time>2021-06-03T13:24:48.000Z</time>
      </trkpt>
      <trkpt lat="44.9708" lon="-0.32321">
        <ele>52</ele>
        <time>2021-06-03T13:24:49.000Z</time>
      </trkpt>
      <trkpt lat="44.9708" lon="-0.32333">
        <ele>52.4</ele>
        <time>2021-06-03T13:24:51.000Z</time>
      </trkpt>
      <trkpt lat="44.9708" lon="-0.32345">
        <ele>52.6</ele>
        <time>2021-06-03T13:24:53.000Z</time>
      </trkpt>
      <trkpt lat="44.9708" lon="-0.32358">
        <ele>53.1</ele>
        <time>2021-06-03T13:24:55.000Z</time>
      </trkpt>
      <trkpt lat="44.97081" lon="-0.3237">
        <ele>53.3</ele>
        <time>2021-06-03T13:24:57.000Z</time>
      </trkpt>
      <trkpt lat="44.97081" lon="-0.32377">
        <ele>53.3</ele>
        <time>2021-06-03T13:24:58.000Z</time>
      </trkpt>
      <trkpt lat="44.97081" lon="-0.32383">
        <ele>53.3</ele>
        <time>2021-06-03T13:24:59.000Z</time>
      </trkpt>
      <trkpt lat="44.97081" lon="-0.3239">
        <ele>53.4</ele>
        <time>2021-06-03T13:25:00.000Z</time>
      </trkpt>
      <trkpt lat="44.97081" lon="-0.32397">
        <ele>53.5</ele>
        <time>2021-06-03T13:25:01.000Z</time>
      </trkpt>
      <trkpt lat="44.97081" lon="-0.32403">
        <ele>53.6</ele>
        <time>2021-06-03T13:25:02.000Z</time>
      </trkpt>
      <trkpt lat="44.97081" lon="-0.32409">
        <ele>53.1</ele>
        <time>2021-06-03T13:25:03.000Z</time>
      </trkpt>
      <trkpt lat="44.97081" lon="-0.32416">
        <ele>52.7</ele>
        <time>2021-06-03T13:25:04.000Z</time>
      </trkpt>
      <trkpt lat="44.97082" lon="-0.32422">
        <ele>52.4</ele>
        <time>2021-06-03T13:25:05.000Z</time>
      </trkpt>
      <trkpt lat="44.97083" lon="-0.32429">
        <ele>52.8</ele>
        <time>2021-06-03T13:25:06.000Z</time>
      </trkpt>
      <trkpt lat="44.97084" lon="-0.32436">
        <ele>53.1</ele>
        <time>2021-06-03T13:25:07.000Z</time>
      </trkpt>
      <trkpt lat="44.97085" lon="-0.32442">
        <ele>53.4</ele>
        <time>2021-06-03T13:25:08.000Z</time>
      </trkpt>
      <trkpt lat="44.97086" lon="-0.32449">
        <ele>53.6</ele>
        <time>2021-06-03T13:25:09.000Z</time>
      </trkpt>
      <trkpt lat="44.97088" lon="-0.32456">
        <ele>53.7</ele>
        <time>2021-06-03T13:25:10.000Z</time>
      </trkpt>
      <trkpt lat="44.9709" lon="-0.32462">
        <ele>54</ele>
        <time>2021-06-03T13:25:11.000Z</time>
      </trkpt>
      <trkpt lat="44.97092" lon="-0.32468">
        <ele>54.1</ele>
        <time>2021-06-03T13:25:12.000Z</time>
      </trkpt>
      <trkpt lat="44.97094" lon="-0.32474">
        <ele>54</ele>
        <time>2021-06-03T13:25:13.000Z</time>
      </trkpt>
      <trkpt lat="44.97097" lon="-0.3248">
        <ele>54</ele>
        <time>2021-06-03T13:25:14.000Z</time>
      </trkpt>
      <trkpt lat="44.97099" lon="-0.32485">
        <ele>54.1</ele>
        <time>2021-06-03T13:25:15.000Z</time>
      </trkpt>
      <trkpt lat="44.97103" lon="-0.32496">
        <ele>54.1</ele>
        <time>2021-06-03T13:25:17.000Z</time>
      </trkpt>
      <trkpt lat="44.97108" lon="-0.32507">
        <ele>55</ele>
        <time>2021-06-03T13:25:19.000Z</time>
      </trkpt>
      <trkpt lat="44.9711" lon="-0.32513">
        <ele>55</ele>
        <time>2021-06-03T13:25:20.000Z</time>
      </trkpt>
      <trkpt lat="44.97112" lon="-0.32519">
        <ele>54.9</ele>
        <time>2021-06-03T13:25:21.000Z</time>
      </trkpt>
      <trkpt lat="44.97115" lon="-0.32524">
        <ele>55.1</ele>
        <time>2021-06-03T13:25:22.000Z</time>
      </trkpt>
      <trkpt lat="44.97117" lon="-0.3253">
        <ele>55.3</ele>
        <time>2021-06-03T13:25:23.000Z</time>
      </trkpt>
      <trkpt lat="44.97119" lon="-0.32536">
        <ele>55.4</ele>
        <time>2021-06-03T13:25:24.000Z</time>
      </trkpt>
      <trkpt lat="44.97121" lon="-0.32542">
        <ele>55.5</ele>
        <time>2021-06-03T13:25:25.000Z</time>
      </trkpt>
      <trkpt lat="44.97123" lon="-0.32548">
        <ele>55.6</ele>
        <time>2021-06-03T13:25:26.000Z</time>
      </trkpt>
      <trkpt lat="44.97125" lon="-0.32554">
        <ele>55.7</ele>
        <time>2021-06-03T13:25:27.000Z</time>
      </trkpt>
      <trkpt lat="44.97127" lon="-0.3256">
        <ele>55.9</ele>
        <time>2021-06-03T13:25:28.000Z</time>
      </trkpt>
      <trkpt lat="44.97128" lon="-0.32566">
        <ele>55.9</ele>
        <time>2021-06-03T13:25:29.000Z</time>
      </trkpt>
      <trkpt lat="44.9713" lon="-0.32572">
        <ele>56</ele>
        <time>2021-06-03T13:25:30.000Z</time>
      </trkpt>
      <trkpt lat="44.97132" lon="-0.32585">
        <ele>56.1</ele>
        <time>2021-06-03T13:25:32.000Z</time>
      </trkpt>
      <trkpt lat="44.97134" lon="-0.32597">
        <ele>56.1</ele>
        <time>2021-06-03T13:25:34.000Z</time>
      </trkpt>
      <trkpt lat="44.97136" lon="-0.32609">
        <ele>55.9</ele>
        <time>2021-06-03T13:25:36.000Z</time>
      </trkpt>
      <trkpt lat="44.97138" lon="-0.32621">
        <ele>56.3</ele>
        <time>2021-06-03T13:25:38.000Z</time>
      </trkpt>
      <trkpt lat="44.9714" lon="-0.32633">
        <ele>57.6</ele>
        <time>2021-06-03T13:25:40.000Z</time>
      </trkpt>
      <trkpt lat="44.97142" lon="-0.32645">
        <ele>57.6</ele>
        <time>2021-06-03T13:25:42.000Z</time>
      </trkpt>
      <trkpt lat="44.97144" lon="-0.32651">
        <ele>57.7</ele>
        <time>2021-06-03T13:25:43.000Z</time>
      </trkpt>
      <trkpt lat="44.97146" lon="-0.32657">
        <ele>57.6</ele>
        <time>2021-06-03T13:25:44.000Z</time>
      </trkpt>
      <trkpt lat="44.9715" lon="-0.32668">
        <ele>57.7</ele>
        <time>2021-06-03T13:25:46.000Z</time>
      </trkpt>
      <trkpt lat="44.97155" lon="-0.32676">
        <ele>57.9</ele>
        <time>2021-06-03T13:25:48.000Z</time>
      </trkpt>
      <trkpt lat="44.9716" lon="-0.32684">
        <ele>57.8</ele>
        <time>2021-06-03T13:25:50.000Z</time>
      </trkpt>
      <trkpt lat="44.97165" lon="-0.3269">
        <ele>58.4</ele>
        <time>2021-06-03T13:25:52.000Z</time>
      </trkpt>
      <trkpt lat="44.97171" lon="-0.32695">
        <ele>59.1</ele>
        <time>2021-06-03T13:25:54.000Z</time>
      </trkpt>
      <trkpt lat="44.97176" lon="-0.32699">
        <ele>59.1</ele>
        <time>2021-06-03T13:25:56.000Z</time>
      </trkpt>
      <trkpt lat="44.97181" lon="-0.32704">
        <ele>58.9</ele>
        <time>2021-06-03T13:25:58.000Z</time>
      </trkpt>
      <trkpt lat="44.97187" lon="-0.32708">
        <ele>59.2</ele>
        <time>2021-06-03T13:26:00.000Z</time>
      </trkpt>
      <trkpt lat="44.97193" lon="-0.32713">
        <ele>59.5</ele>
        <time>2021-06-03T13:26:02.000Z</time>
      </trkpt>
      <trkpt lat="44.97199" lon="-0.32718">
        <ele>59.3</ele>
        <time>2021-06-03T13:26:04.000Z</time>
      </trkpt>
      <trkpt lat="44.97204" lon="-0.32724">
        <ele>59</ele>
        <time>2021-06-03T13:26:06.000Z</time>
      </trkpt>
      <trkpt lat="44.9721" lon="-0.3273">
        <ele>58.8</ele>
        <time>2021-06-03T13:26:08.000Z</time>
      </trkpt>
      <trkpt lat="44.97216" lon="-0.32738">
        <ele>58.9</ele>
        <time>2021-06-03T13:26:10.000Z</time>
      </trkpt>
      <trkpt lat="44.97221" lon="-0.32747">
        <ele>59.2</ele>
        <time>2021-06-03T13:26:12.000Z</time>
      </trkpt>
      <trkpt lat="44.97227" lon="-0.32757">
        <ele>59.3</ele>
        <time>2021-06-03T13:26:14.000Z</time>
      </trkpt>
      <trkpt lat="44.97229" lon="-0.32763">
        <ele>58.8</ele>
        <time>2021-06-03T13:26:15.000Z</time>
      </trkpt>
      <trkpt lat="44.97231" lon="-0.32769">
        <ele>58.4</ele>
        <time>2021-06-03T13:26:16.000Z</time>
      </trkpt>
      <trkpt lat="44.97233" lon="-0.32775">
        <ele>58.7</ele>
        <time>2021-06-03T13:26:17.000Z</time>
      </trkpt>
      <trkpt lat="44.97235" lon="-0.32781">
        <ele>58.8</ele>
        <time>2021-06-03T13:26:18.000Z</time>
      </trkpt>
      <trkpt lat="44.97237" lon="-0.32788">
        <ele>58.5</ele>
        <time>2021-06-03T13:26:19.000Z</time>
      </trkpt>
      <trkpt lat="44.97238" lon="-0.32795">
        <ele>58.2</ele>
        <time>2021-06-03T13:26:20.000Z</time>
      </trkpt>
      <trkpt lat="44.9724" lon="-0.32801">
        <ele>58</ele>
        <time>2021-06-03T13:26:21.000Z</time>
      </trkpt>
      <trkpt lat="44.97241" lon="-0.32808">
        <ele>57.9</ele>
        <time>2021-06-03T13:26:22.000Z</time>
      </trkpt>
      <trkpt lat="44.97243" lon="-0.32815">
        <ele>57.8</ele>
        <time>2021-06-03T13:26:23.000Z</time>
      </trkpt>
      <trkpt lat="44.97244" lon="-0.32822">
        <ele>57.6</ele>
        <time>2021-06-03T13:26:24.000Z</time>
      </trkpt>
      <trkpt lat="44.97246" lon="-0.3283">
        <ele>57.5</ele>
        <time>2021-06-03T13:26:25.000Z</time>
      </trkpt>
      <trkpt lat="44.97247" lon="-0.32837">
        <ele>57.6</ele>
        <time>2021-06-03T13:26:26.000Z</time>
      </trkpt>
      <trkpt lat="44.97249" lon="-0.32844">
        <ele>57.7</ele>
        <time>2021-06-03T13:26:27.000Z</time>
      </trkpt>
      <trkpt lat="44.97251" lon="-0.32851">
        <ele>57.8</ele>
        <time>2021-06-03T13:26:28.000Z</time>
      </trkpt>
      <trkpt lat="44.97252" lon="-0.32858">
        <ele>57.5</ele>
        <time>2021-06-03T13:26:29.000Z</time>
      </trkpt>
      <trkpt lat="44.97253" lon="-0.32866">
        <ele>57.3</ele>
        <time>2021-06-03T13:26:30.000Z</time>
      </trkpt>
      <trkpt lat="44.97255" lon="-0.32873">
        <ele>57.3</ele>
        <time>2021-06-03T13:26:31.000Z</time>
      </trkpt>
      <trkpt lat="44.97256" lon="-0.3288">
        <ele>57.4</ele>
        <time>2021-06-03T13:26:32.000Z</time>
      </trkpt>
      <trkpt lat="44.97258" lon="-0.32888">
        <ele>57.4</ele>
        <time>2021-06-03T13:26:33.000Z</time>
      </trkpt>
      <trkpt lat="44.97259" lon="-0.32894">
        <ele>57</ele>
        <time>2021-06-03T13:26:34.000Z</time>
      </trkpt>
      <trkpt lat="44.9726" lon="-0.32901">
        <ele>56.6</ele>
        <time>2021-06-03T13:26:35.000Z</time>
      </trkpt>
      <trkpt lat="44.97261" lon="-0.32908">
        <ele>56.6</ele>
        <time>2021-06-03T13:26:36.000Z</time>
      </trkpt>
      <trkpt lat="44.97263" lon="-0.32914">
        <ele>56.6</ele>
        <time>2021-06-03T13:26:37.000Z</time>
      </trkpt>
      <trkpt lat="44.97266" lon="-0.32925">
        <ele>57.2</ele>
        <time>2021-06-03T13:26:39.000Z</time>
      </trkpt>
      <trkpt lat="44.9727" lon="-0.32936">
        <ele>57.4</ele>
        <time>2021-06-03T13:26:41.000Z</time>
      </trkpt>
      <trkpt lat="44.97274" lon="-0.32947">
        <ele>57.3</ele>
        <time>2021-06-03T13:26:43.000Z</time>
      </trkpt>
      <trkpt lat="44.97277" lon="-0.32958">
        <ele>57.4</ele>
        <time>2021-06-03T13:26:45.000Z</time>
      </trkpt>
      <trkpt lat="44.97281" lon="-0.32968">
        <ele>57.5</ele>
        <time>2021-06-03T13:26:47.000Z</time>
      </trkpt>
      <trkpt lat="44.97285" lon="-0.32978">
        <ele>57.9</ele>
        <time>2021-06-03T13:26:49.000Z</time>
      </trkpt>
      <trkpt lat="44.97289" lon="-0.32989">
        <ele>58</ele>
        <time>2021-06-03T13:26:51.000Z</time>
      </trkpt>
      <trkpt lat="44.97292" lon="-0.33001">
        <ele>58.4</ele>
        <time>2021-06-03T13:26:53.000Z</time>
      </trkpt>
      <trkpt lat="44.97295" lon="-0.33012">
        <ele>58.5</ele>
        <time>2021-06-03T13:26:55.000Z</time>
      </trkpt>
      <trkpt lat="44.97297" lon="-0.33024">
        <ele>58.5</ele>
        <time>2021-06-03T13:26:57.000Z</time>
      </trkpt>
      <trkpt lat="44.97298" lon="-0.33035">
        <ele>58.6</ele>
        <time>2021-06-03T13:26:59.000Z</time>
      </trkpt>
      <trkpt lat="44.97299" lon="-0.33046">
        <ele>59.1</ele>
        <time>2021-06-03T13:27:01.000Z</time>
      </trkpt>
      <trkpt lat="44.97299" lon="-0.33057">
        <ele>58.9</ele>
        <time>2021-06-03T13:27:03.000Z</time>
      </trkpt>
      <trkpt lat="44.97298" lon="-0.33068">
        <ele>59.6</ele>
        <time>2021-06-03T13:27:05.000Z</time>
      </trkpt>
      <trkpt lat="44.97297" lon="-0.3308">
        <ele>59.2</ele>
        <time>2021-06-03T13:27:07.000Z</time>
      </trkpt>
      <trkpt lat="44.97296" lon="-0.33093">
        <ele>58.7</ele>
        <time>2021-06-03T13:27:09.000Z</time>
      </trkpt>
      <trkpt lat="44.97296" lon="-0.33099">
        <ele>58.8</ele>
        <time>2021-06-03T13:27:10.000Z</time>
      </trkpt>
      <trkpt lat="44.97296" lon="-0.33106">
        <ele>58.8</ele>
        <time>2021-06-03T13:27:11.000Z</time>
      </trkpt>
      <trkpt lat="44.97295" lon="-0.33113">
        <ele>58.7</ele>
        <time>2021-06-03T13:27:12.000Z</time>
      </trkpt>
      <trkpt lat="44.97294" lon="-0.33119">
        <ele>58.6</ele>
        <time>2021-06-03T13:27:13.000Z</time>
      </trkpt>
      <trkpt lat="44.97293" lon="-0.33126">
        <ele>58</ele>
        <time>2021-06-03T13:27:14.000Z</time>
      </trkpt>
      <trkpt lat="44.97292" lon="-0.33132">
        <ele>57.7</ele>
        <time>2021-06-03T13:27:15.000Z</time>
      </trkpt>
      <trkpt lat="44.97292" lon="-0.33139">
        <ele>57.5</ele>
        <time>2021-06-03T13:27:16.000Z</time>
      </trkpt>
      <trkpt lat="44.97291" lon="-0.33146">
        <ele>57.5</ele>
        <time>2021-06-03T13:27:17.000Z</time>
      </trkpt>
      <trkpt lat="44.9729" lon="-0.33153">
        <ele>57.4</ele>
        <time>2021-06-03T13:27:18.000Z</time>
      </trkpt>
      <trkpt lat="44.9729" lon="-0.33159">
        <ele>57.4</ele>
        <time>2021-06-03T13:27:19.000Z</time>
      </trkpt>
      <trkpt lat="44.9729" lon="-0.33166">
        <ele>57.4</ele>
        <time>2021-06-03T13:27:20.000Z</time>
      </trkpt>
      <trkpt lat="44.9729" lon="-0.33172">
        <ele>57.1</ele>
        <time>2021-06-03T13:27:21.000Z</time>
      </trkpt>
      <trkpt lat="44.9729" lon="-0.33179">
        <ele>56.9</ele>
        <time>2021-06-03T13:27:22.000Z</time>
      </trkpt>
      <trkpt lat="44.9729" lon="-0.33186">
        <ele>57.1</ele>
        <time>2021-06-03T13:27:23.000Z</time>
      </trkpt>
      <trkpt lat="44.9729" lon="-0.33193">
        <ele>57.2</ele>
        <time>2021-06-03T13:27:24.000Z</time>
      </trkpt>
      <trkpt lat="44.9729" lon="-0.332">
        <ele>57.3</ele>
        <time>2021-06-03T13:27:25.000Z</time>
      </trkpt>
      <trkpt lat="44.9729" lon="-0.33207">
        <ele>57.3</ele>
        <time>2021-06-03T13:27:26.000Z</time>
      </trkpt>
      <trkpt lat="44.9729" lon="-0.33214">
        <ele>57.3</ele>
        <time>2021-06-03T13:27:27.000Z</time>
      </trkpt>
      <trkpt lat="44.9729" lon="-0.33222">
        <ele>57</ele>
        <time>2021-06-03T13:27:28.000Z</time>
      </trkpt>
      <trkpt lat="44.97291" lon="-0.3323">
        <ele>56.7</ele>
        <time>2021-06-03T13:27:29.000Z</time>
      </trkpt>
      <trkpt lat="44.97292" lon="-0.33238">
        <ele>56.5</ele>
        <time>2021-06-03T13:27:30.000Z</time>
      </trkpt>
      <trkpt lat="44.97293" lon="-0.33246">
        <ele>56.1</ele>
        <time>2021-06-03T13:27:31.000Z</time>
      </trkpt>
      <trkpt lat="44.97293" lon="-0.33254">
        <ele>55.8</ele>
        <time>2021-06-03T13:27:32.000Z</time>
      </trkpt>
      <trkpt lat="44.97294" lon="-0.33262">
        <ele>55.6</ele>
        <time>2021-06-03T13:27:33.000Z</time>
      </trkpt>
      <trkpt lat="44.97295" lon="-0.3327">
        <ele>55.5</ele>
        <time>2021-06-03T13:27:34.000Z</time>
      </trkpt>
      <trkpt lat="44.97296" lon="-0.33277">
        <ele>55.4</ele>
        <time>2021-06-03T13:27:35.000Z</time>
      </trkpt>
      <trkpt lat="44.97297" lon="-0.33285">
        <ele>55.4</ele>
        <time>2021-06-03T13:27:36.000Z</time>
      </trkpt>
      <trkpt lat="44.97298" lon="-0.33293">
        <ele>55.4</ele>
        <time>2021-06-03T13:27:37.000Z</time>
      </trkpt>
      <trkpt lat="44.97299" lon="-0.33301">
        <ele>55.6</ele>
        <time>2021-06-03T13:27:38.000Z</time>
      </trkpt>
      <trkpt lat="44.973" lon="-0.33309">
        <ele>55.7</ele>
        <time>2021-06-03T13:27:39.000Z</time>
      </trkpt>
      <trkpt lat="44.97301" lon="-0.33317">
        <ele>54.9</ele>
        <time>2021-06-03T13:27:40.000Z</time>
      </trkpt>
      <trkpt lat="44.97302" lon="-0.33325">
        <ele>54.3</ele>
        <time>2021-06-03T13:27:41.000Z</time>
      </trkpt>
      <trkpt lat="44.97303" lon="-0.33332">
        <ele>54.3</ele>
        <time>2021-06-03T13:27:42.000Z</time>
      </trkpt>
      <trkpt lat="44.97304" lon="-0.3334">
        <ele>54.2</ele>
        <time>2021-06-03T13:27:43.000Z</time>
      </trkpt>
      <trkpt lat="44.97305" lon="-0.33347">
        <ele>54.2</ele>
        <time>2021-06-03T13:27:44.000Z</time>
      </trkpt>
      <trkpt lat="44.97305" lon="-0.33354">
        <ele>54.3</ele>
        <time>2021-06-03T13:27:45.000Z</time>
      </trkpt>
      <trkpt lat="44.97305" lon="-0.33361">
        <ele>54.3</ele>
        <time>2021-06-03T13:27:46.000Z</time>
      </trkpt>
      <trkpt lat="44.97305" lon="-0.33368">
        <ele>54.2</ele>
        <time>2021-06-03T13:27:47.000Z</time>
      </trkpt>
      <trkpt lat="44.97305" lon="-0.33376">
        <ele>54</ele>
        <time>2021-06-03T13:27:48.000Z</time>
      </trkpt>
      <trkpt lat="44.97304" lon="-0.33383">
        <ele>53.9</ele>
        <time>2021-06-03T13:27:49.000Z</time>
      </trkpt>
      <trkpt lat="44.97304" lon="-0.33391">
        <ele>53.8</ele>
        <time>2021-06-03T13:27:50.000Z</time>
      </trkpt>
      <trkpt lat="44.97303" lon="-0.33399">
        <ele>53.7</ele>
        <time>2021-06-03T13:27:51.000Z</time>
      </trkpt>
      <trkpt lat="44.97303" lon="-0.33406">
        <ele>53.4</ele>
        <time>2021-06-03T13:27:52.000Z</time>
      </trkpt>
      <trkpt lat="44.97302" lon="-0.33414">
        <ele>53.3</ele>
        <time>2021-06-03T13:27:53.000Z</time>
      </trkpt>
      <trkpt lat="44.97302" lon="-0.33422">
        <ele>53.1</ele>
        <time>2021-06-03T13:27:54.000Z</time>
      </trkpt>
      <trkpt lat="44.97301" lon="-0.3343">
        <ele>53</ele>
        <time>2021-06-03T13:27:55.000Z</time>
      </trkpt>
      <trkpt lat="44.97301" lon="-0.33437">
        <ele>52.9</ele>
        <time>2021-06-03T13:27:56.000Z</time>
      </trkpt>
      <trkpt lat="44.973" lon="-0.33445">
        <ele>53.1</ele>
        <time>2021-06-03T13:27:57.000Z</time>
      </trkpt>
      <trkpt lat="44.97299" lon="-0.33452">
        <ele>53.2</ele>
        <time>2021-06-03T13:27:58.000Z</time>
      </trkpt>
      <trkpt lat="44.97299" lon="-0.33459">
        <ele>53.4</ele>
        <time>2021-06-03T13:27:59.000Z</time>
      </trkpt>
      <trkpt lat="44.97298" lon="-0.33466">
        <ele>53.6</ele>
        <time>2021-06-03T13:28:00.000Z</time>
      </trkpt>
      <trkpt lat="44.97297" lon="-0.33473">
        <ele>53.2</ele>
        <time>2021-06-03T13:28:01.000Z</time>
      </trkpt>
      <trkpt lat="44.97297" lon="-0.33479">
        <ele>53</ele>
        <time>2021-06-03T13:28:02.000Z</time>
      </trkpt>
      <trkpt lat="44.97295" lon="-0.33491">
        <ele>52.8</ele>
        <time>2021-06-03T13:28:04.000Z</time>
      </trkpt>
      <trkpt lat="44.97292" lon="-0.33503">
        <ele>53.1</ele>
        <time>2021-06-03T13:28:06.000Z</time>
      </trkpt>
      <trkpt lat="44.97291" lon="-0.33509">
        <ele>53.4</ele>
        <time>2021-06-03T13:28:07.000Z</time>
      </trkpt>
      <trkpt lat="44.9729" lon="-0.33516">
        <ele>53.6</ele>
        <time>2021-06-03T13:28:08.000Z</time>
      </trkpt>
      <trkpt lat="44.97288" lon="-0.33522">
        <ele>53.9</ele>
        <time>2021-06-03T13:28:09.000Z</time>
      </trkpt>
      <trkpt lat="44.97285" lon="-0.33534">
        <ele>54.1</ele>
        <time>2021-06-03T13:28:11.000Z</time>
      </trkpt>
      <trkpt lat="44.97283" lon="-0.33545">
        <ele>54.5</ele>
        <time>2021-06-03T13:28:13.000Z</time>
      </trkpt>
      <trkpt lat="44.9728" lon="-0.33556">
        <ele>55</ele>
        <time>2021-06-03T13:28:15.000Z</time>
      </trkpt>
      <trkpt lat="44.97277" lon="-0.33567">
        <ele>55</ele>
        <time>2021-06-03T13:28:17.000Z</time>
      </trkpt>
      <trkpt lat="44.97275" lon="-0.33573">
        <ele>54.7</ele>
        <time>2021-06-03T13:28:18.000Z</time>
      </trkpt>
      <trkpt lat="44.97274" lon="-0.33579">
        <ele>54.4</ele>
        <time>2021-06-03T13:28:19.000Z</time>
      </trkpt>
      <trkpt lat="44.97272" lon="-0.33585">
        <ele>54.9</ele>
        <time>2021-06-03T13:28:20.000Z</time>
      </trkpt>
      <trkpt lat="44.9727" lon="-0.33591">
        <ele>55.2</ele>
        <time>2021-06-03T13:28:21.000Z</time>
      </trkpt>
      <trkpt lat="44.97269" lon="-0.33597">
        <ele>55.5</ele>
        <time>2021-06-03T13:28:22.000Z</time>
      </trkpt>
      <trkpt lat="44.97267" lon="-0.33604">
        <ele>55.1</ele>
        <time>2021-06-03T13:28:23.000Z</time>
      </trkpt>
      <trkpt lat="44.97265" lon="-0.33611">
        <ele>54.7</ele>
        <time>2021-06-03T13:28:24.000Z</time>
      </trkpt>
      <trkpt lat="44.97263" lon="-0.33618">
        <ele>54.5</ele>
        <time>2021-06-03T13:28:25.000Z</time>
      </trkpt>
      <trkpt lat="44.97262" lon="-0.33624">
        <ele>54.2</ele>
        <time>2021-06-03T13:28:26.000Z</time>
      </trkpt>
      <trkpt lat="44.9726" lon="-0.33631">
        <ele>54.1</ele>
        <time>2021-06-03T13:28:27.000Z</time>
      </trkpt>
      <trkpt lat="44.97258" lon="-0.33638">
        <ele>53.8</ele>
        <time>2021-06-03T13:28:28.000Z</time>
      </trkpt>
      <trkpt lat="44.97257" lon="-0.33645">
        <ele>53.6</ele>
        <time>2021-06-03T13:28:29.000Z</time>
      </trkpt>
      <trkpt lat="44.97254" lon="-0.33652">
        <ele>53.5</ele>
        <time>2021-06-03T13:28:30.000Z</time>
      </trkpt>
      <trkpt lat="44.97252" lon="-0.33658">
        <ele>53.5</ele>
        <time>2021-06-03T13:28:31.000Z</time>
      </trkpt>
      <trkpt lat="44.97249" lon="-0.33664">
        <ele>53.2</ele>
        <time>2021-06-03T13:28:32.000Z</time>
      </trkpt>
      <trkpt lat="44.97247" lon="-0.3367">
        <ele>53.1</ele>
        <time>2021-06-03T13:28:33.000Z</time>
      </trkpt>
      <trkpt lat="44.97244" lon="-0.33675">
        <ele>52.9</ele>
        <time>2021-06-03T13:28:34.000Z</time>
      </trkpt>
      <trkpt lat="44.9724" lon="-0.3368">
        <ele>53</ele>
        <time>2021-06-03T13:28:35.000Z</time>
      </trkpt>
      <trkpt lat="44.97237" lon="-0.33685">
        <ele>53.1</ele>
        <time>2021-06-03T13:28:36.000Z</time>
      </trkpt>
      <trkpt lat="44.97234" lon="-0.3369">
        <ele>53</ele>
        <time>2021-06-03T13:28:37.000Z</time>
      </trkpt>
      <trkpt lat="44.9723" lon="-0.33694">
        <ele>53</ele>
        <time>2021-06-03T13:28:38.000Z</time>
      </trkpt>
      <trkpt lat="44.97226" lon="-0.33697">
        <ele>52.9</ele>
        <time>2021-06-03T13:28:39.000Z</time>
      </trkpt>
      <trkpt lat="44.97222" lon="-0.33701">
        <ele>52.9</ele>
        <time>2021-06-03T13:28:40.000Z</time>
      </trkpt>
      <trkpt lat="44.97218" lon="-0.33704">
        <ele>52.8</ele>
        <time>2021-06-03T13:28:41.000Z</time>
      </trkpt>
      <trkpt lat="44.9721" lon="-0.3371">
        <ele>52.7</ele>
        <time>2021-06-03T13:28:43.000Z</time>
      </trkpt>
      <trkpt lat="44.97202" lon="-0.33717">
        <ele>51.7</ele>
        <time>2021-06-03T13:28:45.000Z</time>
      </trkpt>
      <trkpt lat="44.97199" lon="-0.33721">
        <ele>51.3</ele>
        <time>2021-06-03T13:28:46.000Z</time>
      </trkpt>
      <trkpt lat="44.97196" lon="-0.33726">
        <ele>51.1</ele>
        <time>2021-06-03T13:28:47.000Z</time>
      </trkpt>
      <trkpt lat="44.97193" lon="-0.33732">
        <ele>50.9</ele>
        <time>2021-06-03T13:28:48.000Z</time>
      </trkpt>
      <trkpt lat="44.97191" lon="-0.33739">
        <ele>50.8</ele>
        <time>2021-06-03T13:28:49.000Z</time>
      </trkpt>
      <trkpt lat="44.9719" lon="-0.33747">
        <ele>50.8</ele>
        <time>2021-06-03T13:28:50.000Z</time>
      </trkpt>
      <trkpt lat="44.9719" lon="-0.33756">
        <ele>50.9</ele>
        <time>2021-06-03T13:28:51.000Z</time>
      </trkpt>
      <trkpt lat="44.9719" lon="-0.33765">
        <ele>51</ele>
        <time>2021-06-03T13:28:52.000Z</time>
      </trkpt>
      <trkpt lat="44.97191" lon="-0.33774">
        <ele>51</ele>
        <time>2021-06-03T13:28:53.000Z</time>
      </trkpt>
      <trkpt lat="44.97192" lon="-0.33783">
        <ele>50.5</ele>
        <time>2021-06-03T13:28:54.000Z</time>
      </trkpt>
      <trkpt lat="44.97193" lon="-0.33792">
        <ele>50.1</ele>
        <time>2021-06-03T13:28:55.000Z</time>
      </trkpt>
      <trkpt lat="44.97194" lon="-0.33802">
        <ele>49.8</ele>
        <time>2021-06-03T13:28:56.000Z</time>
      </trkpt>
      <trkpt lat="44.97195" lon="-0.33812">
        <ele>49.6</ele>
        <time>2021-06-03T13:28:57.000Z</time>
      </trkpt>
      <trkpt lat="44.97197" lon="-0.33822">
        <ele>49.3</ele>
        <time>2021-06-03T13:28:58.000Z</time>
      </trkpt>
      <trkpt lat="44.97198" lon="-0.33833">
        <ele>49.1</ele>
        <time>2021-06-03T13:28:59.000Z</time>
      </trkpt>
      <trkpt lat="44.972" lon="-0.33843">
        <ele>48.9</ele>
        <time>2021-06-03T13:29:00.000Z</time>
      </trkpt>
      <trkpt lat="44.97201" lon="-0.33854">
        <ele>48.5</ele>
        <time>2021-06-03T13:29:01.000Z</time>
      </trkpt>
      <trkpt lat="44.97202" lon="-0.33865">
        <ele>48.1</ele>
        <time>2021-06-03T13:29:02.000Z</time>
      </trkpt>
      <trkpt lat="44.97204" lon="-0.33876">
        <ele>47.9</ele>
        <time>2021-06-03T13:29:03.000Z</time>
      </trkpt>
      <trkpt lat="44.97206" lon="-0.33887">
        <ele>47.7</ele>
        <time>2021-06-03T13:29:04.000Z</time>
      </trkpt>
      <trkpt lat="44.97208" lon="-0.33897">
        <ele>47.6</ele>
        <time>2021-06-03T13:29:05.000Z</time>
      </trkpt>
      <trkpt lat="44.97209" lon="-0.33908">
        <ele>46.8</ele>
        <time>2021-06-03T13:29:06.000Z</time>
      </trkpt>
      <trkpt lat="44.9721" lon="-0.33918">
        <ele>46.2</ele>
        <time>2021-06-03T13:29:07.000Z</time>
      </trkpt>
      <trkpt lat="44.9721" lon="-0.33929">
        <ele>46</ele>
        <time>2021-06-03T13:29:08.000Z</time>
      </trkpt>
      <trkpt lat="44.97211" lon="-0.33939">
        <ele>45.9</ele>
        <time>2021-06-03T13:29:09.000Z</time>
      </trkpt>
      <trkpt lat="44.97211" lon="-0.33949">
        <ele>45.7</ele>
        <time>2021-06-03T13:29:10.000Z</time>
      </trkpt>
      <trkpt lat="44.97211" lon="-0.33958">
        <ele>45.5</ele>
        <time>2021-06-03T13:29:11.000Z</time>
      </trkpt>
      <trkpt lat="44.9721" lon="-0.33967">
        <ele>45.4</ele>
        <time>2021-06-03T13:29:12.000Z</time>
      </trkpt>
      <trkpt lat="44.9721" lon="-0.33975">
        <ele>45.3</ele>
        <time>2021-06-03T13:29:13.000Z</time>
      </trkpt>
      <trkpt lat="44.9721" lon="-0.33983">
        <ele>45.3</ele>
        <time>2021-06-03T13:29:14.000Z</time>
      </trkpt>
      <trkpt lat="44.97209" lon="-0.33991">
        <ele>45.2</ele>
        <time>2021-06-03T13:29:15.000Z</time>
      </trkpt>
      <trkpt lat="44.97209" lon="-0.34">
        <ele>45.1</ele>
        <time>2021-06-03T13:29:16.000Z</time>
      </trkpt>
      <trkpt lat="44.97209" lon="-0.34008">
        <ele>45.1</ele>
        <time>2021-06-03T13:29:17.000Z</time>
      </trkpt>
      <trkpt lat="44.97209" lon="-0.34016">
        <ele>45</ele>
        <time>2021-06-03T13:29:18.000Z</time>
      </trkpt>
      <trkpt lat="44.97208" lon="-0.34024">
        <ele>45</ele>
        <time>2021-06-03T13:29:19.000Z</time>
      </trkpt>
      <trkpt lat="44.97208" lon="-0.34032">
        <ele>44.9</ele>
        <time>2021-06-03T13:29:20.000Z</time>
      </trkpt>
      <trkpt lat="44.97207" lon="-0.34039">
        <ele>44.7</ele>
        <time>2021-06-03T13:29:21.000Z</time>
      </trkpt>
      <trkpt lat="44.97209" lon="-0.34046">
        <ele>44.7</ele>
        <time>2021-06-03T13:29:22.000Z</time>
      </trkpt>
      <trkpt lat="44.97211" lon="-0.34052">
        <ele>44.6</ele>
        <time>2021-06-03T13:29:23.000Z</time>
      </trkpt>
      <trkpt lat="44.97219" lon="-0.34058">
        <ele>44.4</ele>
        <time>2021-06-03T13:29:25.000Z</time>
      </trkpt>
      <trkpt lat="44.97227" lon="-0.34061">
        <ele>44.3</ele>
        <time>2021-06-03T13:29:27.000Z</time>
      </trkpt>
      <trkpt lat="44.97232" lon="-0.34063">
        <ele>44.4</ele>
        <time>2021-06-03T13:29:28.000Z</time>
      </trkpt>
      <trkpt lat="44.97236" lon="-0.34065">
        <ele>44.5</ele>
        <time>2021-06-03T13:29:29.000Z</time>
      </trkpt>
      <trkpt lat="44.97245" lon="-0.34067">
        <ele>44.7</ele>
        <time>2021-06-03T13:29:31.000Z</time>
      </trkpt>
      <trkpt lat="44.97249" lon="-0.34069">
        <ele>44.8</ele>
        <time>2021-06-03T13:29:32.000Z</time>
      </trkpt>
      <trkpt lat="44.97259" lon="-0.34076">
        <ele>44.1</ele>
        <time>2021-06-03T13:29:35.000Z</time>
      </trkpt>
      <trkpt lat="44.97262" lon="-0.34085">
        <ele>43.8</ele>
        <time>2021-06-03T13:29:37.000Z</time>
      </trkpt>
      <trkpt lat="44.97262" lon="-0.34094">
        <ele>43.8</ele>
        <time>2021-06-03T13:29:39.000Z</time>
      </trkpt>
      <trkpt lat="44.97262" lon="-0.34106">
        <ele>43.7</ele>
        <time>2021-06-03T13:29:41.000Z</time>
      </trkpt>
      <trkpt lat="44.97262" lon="-0.34118">
        <ele>43.9</ele>
        <time>2021-06-03T13:29:43.000Z</time>
      </trkpt>
      <trkpt lat="44.97263" lon="-0.3413">
        <ele>44.1</ele>
        <time>2021-06-03T13:29:45.000Z</time>
      </trkpt>
      <trkpt lat="44.97263" lon="-0.34142">
        <ele>44.4</ele>
        <time>2021-06-03T13:29:47.000Z</time>
      </trkpt>
      <trkpt lat="44.97263" lon="-0.34153">
        <ele>44.4</ele>
        <time>2021-06-03T13:29:49.000Z</time>
      </trkpt>
      <trkpt lat="44.97263" lon="-0.34163">
        <ele>44.8</ele>
        <time>2021-06-03T13:29:51.000Z</time>
      </trkpt>
      <trkpt lat="44.97264" lon="-0.34173">
        <ele>45.7</ele>
        <time>2021-06-03T13:29:53.000Z</time>
      </trkpt>
      <trkpt lat="44.97264" lon="-0.34183">
        <ele>46.3</ele>
        <time>2021-06-03T13:29:55.000Z</time>
      </trkpt>
      <trkpt lat="44.97264" lon="-0.34192">
        <ele>46.5</ele>
        <time>2021-06-03T13:29:57.000Z</time>
      </trkpt>
      <trkpt lat="44.97265" lon="-0.34201">
        <ele>47.1</ele>
        <time>2021-06-03T13:29:59.000Z</time>
      </trkpt>
      <trkpt lat="44.97265" lon="-0.3421">
        <ele>46.9</ele>
        <time>2021-06-03T13:30:01.000Z</time>
      </trkpt>
      <trkpt lat="44.97267" lon="-0.34221">
        <ele>47.5</ele>
        <time>2021-06-03T13:30:04.000Z</time>
      </trkpt>
      <trkpt lat="44.97269" lon="-0.34232">
        <ele>47.2</ele>
        <time>2021-06-03T13:30:07.000Z</time>
      </trkpt>
      <trkpt lat="44.97271" lon="-0.3424">
        <ele>47.5</ele>
        <time>2021-06-03T13:30:09.000Z</time>
      </trkpt>
      <trkpt lat="44.97274" lon="-0.3425">
        <ele>46.7</ele>
        <time>2021-06-03T13:30:11.000Z</time>
      </trkpt>
      <trkpt lat="44.97277" lon="-0.34261">
        <ele>46.9</ele>
        <time>2021-06-03T13:30:13.000Z</time>
      </trkpt>
      <trkpt lat="44.97279" lon="-0.34267">
        <ele>46.5</ele>
        <time>2021-06-03T13:30:14.000Z</time>
      </trkpt>
      <trkpt lat="44.97281" lon="-0.34273">
        <ele>46.2</ele>
        <time>2021-06-03T13:30:15.000Z</time>
      </trkpt>
      <trkpt lat="44.97283" lon="-0.3428">
        <ele>46</ele>
        <time>2021-06-03T13:30:16.000Z</time>
      </trkpt>
      <trkpt lat="44.97285" lon="-0.34288">
        <ele>45.9</ele>
        <time>2021-06-03T13:30:17.000Z</time>
      </trkpt>
      <trkpt lat="44.97287" lon="-0.34295">
        <ele>45.9</ele>
        <time>2021-06-03T13:30:18.000Z</time>
      </trkpt>
      <trkpt lat="44.97289" lon="-0.34302">
        <ele>45.6</ele>
        <time>2021-06-03T13:30:19.000Z</time>
      </trkpt>
      <trkpt lat="44.97291" lon="-0.34309">
        <ele>45.4</ele>
        <time>2021-06-03T13:30:20.000Z</time>
      </trkpt>
      <trkpt lat="44.97293" lon="-0.34317">
        <ele>44.7</ele>
        <time>2021-06-03T13:30:21.000Z</time>
      </trkpt>
      <trkpt lat="44.97295" lon="-0.34325">
        <ele>44.2</ele>
        <time>2021-06-03T13:30:22.000Z</time>
      </trkpt>
      <trkpt lat="44.97296" lon="-0.34333">
        <ele>43.8</ele>
        <time>2021-06-03T13:30:23.000Z</time>
      </trkpt>
      <trkpt lat="44.97298" lon="-0.34341">
        <ele>43.2</ele>
        <time>2021-06-03T13:30:24.000Z</time>
      </trkpt>
      <trkpt lat="44.97299" lon="-0.3435">
        <ele>42.7</ele>
        <time>2021-06-03T13:30:25.000Z</time>
      </trkpt>
      <trkpt lat="44.97301" lon="-0.34358">
        <ele>41.9</ele>
        <time>2021-06-03T13:30:26.000Z</time>
      </trkpt>
      <trkpt lat="44.97302" lon="-0.34366">
        <ele>41.3</ele>
        <time>2021-06-03T13:30:27.000Z</time>
      </trkpt>
      <trkpt lat="44.97303" lon="-0.34374">
        <ele>40.9</ele>
        <time>2021-06-03T13:30:28.000Z</time>
      </trkpt>
      <trkpt lat="44.97304" lon="-0.34383">
        <ele>40.5</ele>
        <time>2021-06-03T13:30:29.000Z</time>
      </trkpt>
      <trkpt lat="44.97305" lon="-0.34393">
        <ele>40.1</ele>
        <time>2021-06-03T13:30:30.000Z</time>
      </trkpt>
      <trkpt lat="44.97306" lon="-0.34404">
        <ele>39.2</ele>
        <time>2021-06-03T13:30:31.000Z</time>
      </trkpt>
      <trkpt lat="44.97307" lon="-0.34414">
        <ele>38.6</ele>
        <time>2021-06-03T13:30:32.000Z</time>
      </trkpt>
      <trkpt lat="44.97309" lon="-0.34425">
        <ele>37.6</ele>
        <time>2021-06-03T13:30:33.000Z</time>
      </trkpt>
      <trkpt lat="44.9731" lon="-0.34434">
        <ele>36.8</ele>
        <time>2021-06-03T13:30:34.000Z</time>
      </trkpt>
      <trkpt lat="44.97312" lon="-0.34444">
        <ele>36.3</ele>
        <time>2021-06-03T13:30:35.000Z</time>
      </trkpt>
      <trkpt lat="44.97314" lon="-0.34454">
        <ele>35.5</ele>
        <time>2021-06-03T13:30:36.000Z</time>
      </trkpt>
      <trkpt lat="44.97316" lon="-0.34464">
        <ele>35</ele>
        <time>2021-06-03T13:30:37.000Z</time>
      </trkpt>
      <trkpt lat="44.97319" lon="-0.34474">
        <ele>34.3</ele>
        <time>2021-06-03T13:30:38.000Z</time>
      </trkpt>
      <trkpt lat="44.97322" lon="-0.34483">
        <ele>33.8</ele>
        <time>2021-06-03T13:30:39.000Z</time>
      </trkpt>
      <trkpt lat="44.97325" lon="-0.34492">
        <ele>33.1</ele>
        <time>2021-06-03T13:30:40.000Z</time>
      </trkpt>
      <trkpt lat="44.97327" lon="-0.34502">
        <ele>32.6</ele>
        <time>2021-06-03T13:30:41.000Z</time>
      </trkpt>
      <trkpt lat="44.9733" lon="-0.34512">
        <ele>32.2</ele>
        <time>2021-06-03T13:30:42.000Z</time>
      </trkpt>
      <trkpt lat="44.97334" lon="-0.34521">
        <ele>31.4</ele>
        <time>2021-06-03T13:30:43.000Z</time>
      </trkpt>
      <trkpt lat="44.97336" lon="-0.3453">
        <ele>30.8</ele>
        <time>2021-06-03T13:30:44.000Z</time>
      </trkpt>
      <trkpt lat="44.97339" lon="-0.34539">
        <ele>30.3</ele>
        <time>2021-06-03T13:30:45.000Z</time>
      </trkpt>
      <trkpt lat="44.97342" lon="-0.34548">
        <ele>29.9</ele>
        <time>2021-06-03T13:30:46.000Z</time>
      </trkpt>
      <trkpt lat="44.97345" lon="-0.34557">
        <ele>29.5</ele>
        <time>2021-06-03T13:30:47.000Z</time>
      </trkpt>
      <trkpt lat="44.97347" lon="-0.34566">
        <ele>28.9</ele>
        <time>2021-06-03T13:30:48.000Z</time>
      </trkpt>
      <trkpt lat="44.9735" lon="-0.34573">
        <ele>28.4</ele>
        <time>2021-06-03T13:30:49.000Z</time>
      </trkpt>
      <trkpt lat="44.97352" lon="-0.3458">
        <ele>27.9</ele>
        <time>2021-06-03T13:30:50.000Z</time>
      </trkpt>
      <trkpt lat="44.97354" lon="-0.34587">
        <ele>27.5</ele>
        <time>2021-06-03T13:30:51.000Z</time>
      </trkpt>
      <trkpt lat="44.97356" lon="-0.34594">
        <ele>27</ele>
        <time>2021-06-03T13:30:52.000Z</time>
      </trkpt>
      <trkpt lat="44.97357" lon="-0.34602">
        <ele>26.6</ele>
        <time>2021-06-03T13:30:53.000Z</time>
      </trkpt>
      <trkpt lat="44.97357" lon="-0.34609">
        <ele>26.3</ele>
        <time>2021-06-03T13:30:54.000Z</time>
      </trkpt>
      <trkpt lat="44.97356" lon="-0.34616">
        <ele>25.9</ele>
        <time>2021-06-03T13:30:55.000Z</time>
      </trkpt>
      <trkpt lat="44.97353" lon="-0.34622">
        <ele>25.6</ele>
        <time>2021-06-03T13:30:56.000Z</time>
      </trkpt>
      <trkpt lat="44.97349" lon="-0.34627">
        <ele>25.5</ele>
        <time>2021-06-03T13:30:57.000Z</time>
      </trkpt>
      <trkpt lat="44.97345" lon="-0.34632">
        <ele>25.4</ele>
        <time>2021-06-03T13:30:58.000Z</time>
      </trkpt>
      <trkpt lat="44.9734" lon="-0.34638">
        <ele>25.2</ele>
        <time>2021-06-03T13:30:59.000Z</time>
      </trkpt>
      <trkpt lat="44.97333" lon="-0.34645">
        <ele>25</ele>
        <time>2021-06-03T13:31:01.000Z</time>
      </trkpt>
      <trkpt lat="44.97327" lon="-0.34651">
        <ele>24.7</ele>
        <time>2021-06-03T13:31:03.000Z</time>
      </trkpt>
      <trkpt lat="44.97324" lon="-0.34661">
        <ele>24.9</ele>
        <time>2021-06-03T13:31:05.000Z</time>
      </trkpt>
      <trkpt lat="44.97324" lon="-0.34668">
        <ele>24.5</ele>
        <time>2021-06-03T13:31:06.000Z</time>
      </trkpt>
      <trkpt lat="44.97325" lon="-0.34674">
        <ele>24.2</ele>
        <time>2021-06-03T13:31:07.000Z</time>
      </trkpt>
      <trkpt lat="44.97328" lon="-0.34681">
        <ele>24</ele>
        <time>2021-06-03T13:31:08.000Z</time>
      </trkpt>
      <trkpt lat="44.97331" lon="-0.34687">
        <ele>23.7</ele>
        <time>2021-06-03T13:31:09.000Z</time>
      </trkpt>
      <trkpt lat="44.97336" lon="-0.34692">
        <ele>23.4</ele>
        <time>2021-06-03T13:31:10.000Z</time>
      </trkpt>
      <trkpt lat="44.97341" lon="-0.34698">
        <ele>22.9</ele>
        <time>2021-06-03T13:31:11.000Z</time>
      </trkpt>
      <trkpt lat="44.97346" lon="-0.34704">
        <ele>22.5</ele>
        <time>2021-06-03T13:31:12.000Z</time>
      </trkpt>
      <trkpt lat="44.9735" lon="-0.34709">
        <ele>22.2</ele>
        <time>2021-06-03T13:31:13.000Z</time>
      </trkpt>
      <trkpt lat="44.97354" lon="-0.34714">
        <ele>21.7</ele>
        <time>2021-06-03T13:31:14.000Z</time>
      </trkpt>
      <trkpt lat="44.97356" lon="-0.3472">
        <ele>21.4</ele>
        <time>2021-06-03T13:31:15.000Z</time>
      </trkpt>
      <trkpt lat="44.97356" lon="-0.34728">
        <ele>21.1</ele>
        <time>2021-06-03T13:31:16.000Z</time>
      </trkpt>
      <trkpt lat="44.97355" lon="-0.34735">
        <ele>20.9</ele>
        <time>2021-06-03T13:31:17.000Z</time>
      </trkpt>
      <trkpt lat="44.97352" lon="-0.34742">
        <ele>20.7</ele>
        <time>2021-06-03T13:31:18.000Z</time>
      </trkpt>
      <trkpt lat="44.97349" lon="-0.34748">
        <ele>20.6</ele>
        <time>2021-06-03T13:31:19.000Z</time>
      </trkpt>
      <trkpt lat="44.97345" lon="-0.34755">
        <ele>20.6</ele>
        <time>2021-06-03T13:31:20.000Z</time>
      </trkpt>
      <trkpt lat="44.97343" lon="-0.34761">
        <ele>20.1</ele>
        <time>2021-06-03T13:31:21.000Z</time>
      </trkpt>
      <trkpt lat="44.97341" lon="-0.34768">
        <ele>19.8</ele>
        <time>2021-06-03T13:31:22.000Z</time>
      </trkpt>
      <trkpt lat="44.97342" lon="-0.34776">
        <ele>19.4</ele>
        <time>2021-06-03T13:31:23.000Z</time>
      </trkpt>
      <trkpt lat="44.97345" lon="-0.34784">
        <ele>19.1</ele>
        <time>2021-06-03T13:31:24.000Z</time>
      </trkpt>
      <trkpt lat="44.97349" lon="-0.3479">
        <ele>18.5</ele>
        <time>2021-06-03T13:31:25.000Z</time>
      </trkpt>
      <trkpt lat="44.97354" lon="-0.34796">
        <ele>18.1</ele>
        <time>2021-06-03T13:31:26.000Z</time>
      </trkpt>
      <trkpt lat="44.97359" lon="-0.34803">
        <ele>17.7</ele>
        <time>2021-06-03T13:31:27.000Z</time>
      </trkpt>
      <trkpt lat="44.97364" lon="-0.34809">
        <ele>17.3</ele>
        <time>2021-06-03T13:31:28.000Z</time>
      </trkpt>
      <trkpt lat="44.97369" lon="-0.34816">
        <ele>17</ele>
        <time>2021-06-03T13:31:29.000Z</time>
      </trkpt>
      <trkpt lat="44.97375" lon="-0.34822">
        <ele>17</ele>
        <time>2021-06-03T13:31:30.000Z</time>
      </trkpt>
      <trkpt lat="44.9738" lon="-0.34828">
        <ele>16.9</ele>
        <time>2021-06-03T13:31:31.000Z</time>
      </trkpt>
      <trkpt lat="44.97386" lon="-0.34834">
        <ele>16.9</ele>
        <time>2021-06-03T13:31:32.000Z</time>
      </trkpt>
      <trkpt lat="44.97392" lon="-0.3484">
        <ele>16.9</ele>
        <time>2021-06-03T13:31:33.000Z</time>
      </trkpt>
      <trkpt lat="44.97397" lon="-0.34846">
        <ele>16.8</ele>
        <time>2021-06-03T13:31:34.000Z</time>
      </trkpt>
      <trkpt lat="44.97403" lon="-0.34852">
        <ele>16.5</ele>
        <time>2021-06-03T13:31:35.000Z</time>
      </trkpt>
      <trkpt lat="44.97408" lon="-0.34858">
        <ele>16.2</ele>
        <time>2021-06-03T13:31:36.000Z</time>
      </trkpt>
      <trkpt lat="44.97413" lon="-0.34863">
        <ele>16.4</ele>
        <time>2021-06-03T13:31:37.000Z</time>
      </trkpt>
      <trkpt lat="44.97417" lon="-0.34868">
        <ele>16.4</ele>
        <time>2021-06-03T13:31:38.000Z</time>
      </trkpt>
      <trkpt lat="44.97422" lon="-0.34873">
        <ele>16.5</ele>
        <time>2021-06-03T13:31:39.000Z</time>
      </trkpt>
      <trkpt lat="44.97426" lon="-0.34878">
        <ele>16.2</ele>
        <time>2021-06-03T13:31:40.000Z</time>
      </trkpt>
      <trkpt lat="44.9743" lon="-0.34883">
        <ele>16</ele>
        <time>2021-06-03T13:31:41.000Z</time>
      </trkpt>
      <trkpt lat="44.97433" lon="-0.34888">
        <ele>15.9</ele>
        <time>2021-06-03T13:31:42.000Z</time>
      </trkpt>
      <trkpt lat="44.97437" lon="-0.34892">
        <ele>15.9</ele>
        <time>2021-06-03T13:31:43.000Z</time>
      </trkpt>
      <trkpt lat="44.97441" lon="-0.34897">
        <ele>15.8</ele>
        <time>2021-06-03T13:31:44.000Z</time>
      </trkpt>
      <trkpt lat="44.97444" lon="-0.34902">
        <ele>15.9</ele>
        <time>2021-06-03T13:31:45.000Z</time>
      </trkpt>
      <trkpt lat="44.97447" lon="-0.34907">
        <ele>16</ele>
        <time>2021-06-03T13:31:46.000Z</time>
      </trkpt>
      <trkpt lat="44.9745" lon="-0.34912">
        <ele>15.9</ele>
        <time>2021-06-03T13:31:47.000Z</time>
      </trkpt>
      <trkpt lat="44.97453" lon="-0.34917">
        <ele>15.9</ele>
        <time>2021-06-03T13:31:48.000Z</time>
      </trkpt>
      <trkpt lat="44.97458" lon="-0.34927">
        <ele>16.3</ele>
        <time>2021-06-03T13:31:50.000Z</time>
      </trkpt>
      <trkpt lat="44.97462" lon="-0.34938">
        <ele>16.7</ele>
        <time>2021-06-03T13:31:52.000Z</time>
      </trkpt>
      <trkpt lat="44.97463" lon="-0.34944">
        <ele>16.8</ele>
        <time>2021-06-03T13:31:53.000Z</time>
      </trkpt>
      <trkpt lat="44.97466" lon="-0.34956">
        <ele>16.9</ele>
        <time>2021-06-03T13:31:55.000Z</time>
      </trkpt>
      <trkpt lat="44.97469" lon="-0.34968">
        <ele>17</ele>
        <time>2021-06-03T13:31:57.000Z</time>
      </trkpt>
      <trkpt lat="44.97473" lon="-0.34979">
        <ele>17.2</ele>
        <time>2021-06-03T13:31:59.000Z</time>
      </trkpt>
      <trkpt lat="44.97478" lon="-0.34989">
        <ele>17.6</ele>
        <time>2021-06-03T13:32:01.000Z</time>
      </trkpt>
      <trkpt lat="44.9748" lon="-0.34995">
        <ele>17.7</ele>
        <time>2021-06-03T13:32:02.000Z</time>
      </trkpt>
      <trkpt lat="44.97485" lon="-0.35004">
        <ele>18</ele>
        <time>2021-06-03T13:32:04.000Z</time>
      </trkpt>
      <trkpt lat="44.97491" lon="-0.35013">
        <ele>18</ele>
        <time>2021-06-03T13:32:06.000Z</time>
      </trkpt>
      <trkpt lat="44.97498" lon="-0.3502">
        <ele>18.1</ele>
        <time>2021-06-03T13:32:08.000Z</time>
      </trkpt>
      <trkpt lat="44.97505" lon="-0.35026">
        <ele>18.2</ele>
        <time>2021-06-03T13:32:10.000Z</time>
      </trkpt>
      <trkpt lat="44.97513" lon="-0.35031">
        <ele>18.7</ele>
        <time>2021-06-03T13:32:12.000Z</time>
      </trkpt>
      <trkpt lat="44.97519" lon="-0.35035">
        <ele>18.9</ele>
        <time>2021-06-03T13:32:14.000Z</time>
      </trkpt>
      <trkpt lat="44.97525" lon="-0.35038">
        <ele>19.1</ele>
        <time>2021-06-03T13:32:16.000Z</time>
      </trkpt>
      <trkpt lat="44.97532" lon="-0.35042">
        <ele>19.3</ele>
        <time>2021-06-03T13:32:18.000Z</time>
      </trkpt>
      <trkpt lat="44.97538" lon="-0.35045">
        <ele>19.4</ele>
        <time>2021-06-03T13:32:20.000Z</time>
      </trkpt>
      <trkpt lat="44.97545" lon="-0.35049">
        <ele>19.4</ele>
        <time>2021-06-03T13:32:22.000Z</time>
      </trkpt>
      <trkpt lat="44.97552" lon="-0.35054">
        <ele>19.2</ele>
        <time>2021-06-03T13:32:24.000Z</time>
      </trkpt>
      <trkpt lat="44.97556" lon="-0.35056">
        <ele>19</ele>
        <time>2021-06-03T13:32:25.000Z</time>
      </trkpt>
      <trkpt lat="44.97561" lon="-0.35059">
        <ele>18.9</ele>
        <time>2021-06-03T13:32:26.000Z</time>
      </trkpt>
      <trkpt lat="44.97565" lon="-0.35062">
        <ele>18.9</ele>
        <time>2021-06-03T13:32:27.000Z</time>
      </trkpt>
      <trkpt lat="44.9757" lon="-0.35064">
        <ele>18.9</ele>
        <time>2021-06-03T13:32:28.000Z</time>
      </trkpt>
      <trkpt lat="44.97575" lon="-0.35067">
        <ele>18.9</ele>
        <time>2021-06-03T13:32:29.000Z</time>
      </trkpt>
      <trkpt lat="44.9758" lon="-0.3507">
        <ele>18.9</ele>
        <time>2021-06-03T13:32:30.000Z</time>
      </trkpt>
      <trkpt lat="44.97585" lon="-0.35073">
        <ele>18.9</ele>
        <time>2021-06-03T13:32:31.000Z</time>
      </trkpt>
      <trkpt lat="44.9759" lon="-0.35076">
        <ele>18.8</ele>
        <time>2021-06-03T13:32:32.000Z</time>
      </trkpt>
      <trkpt lat="44.97596" lon="-0.35078">
        <ele>18.8</ele>
        <time>2021-06-03T13:32:33.000Z</time>
      </trkpt>
      <trkpt lat="44.97601" lon="-0.35081">
        <ele>18.3</ele>
        <time>2021-06-03T13:32:34.000Z</time>
      </trkpt>
      <trkpt lat="44.97606" lon="-0.35084">
        <ele>17.9</ele>
        <time>2021-06-03T13:32:35.000Z</time>
      </trkpt>
      <trkpt lat="44.97611" lon="-0.35087">
        <ele>17.6</ele>
        <time>2021-06-03T13:32:36.000Z</time>
      </trkpt>
      <trkpt lat="44.97617" lon="-0.35089">
        <ele>17.2</ele>
        <time>2021-06-03T13:32:37.000Z</time>
      </trkpt>
      <trkpt lat="44.97623" lon="-0.35091">
        <ele>16.8</ele>
        <time>2021-06-03T13:32:38.000Z</time>
      </trkpt>
      <trkpt lat="44.97629" lon="-0.35093">
        <ele>16.4</ele>
        <time>2021-06-03T13:32:39.000Z</time>
      </trkpt>
      <trkpt lat="44.97634" lon="-0.35094">
        <ele>16.1</ele>
        <time>2021-06-03T13:32:40.000Z</time>
      </trkpt>
      <trkpt lat="44.9764" lon="-0.35096">
        <ele>16</ele>
        <time>2021-06-03T13:32:41.000Z</time>
      </trkpt>
      <trkpt lat="44.97646" lon="-0.35097">
        <ele>15.8</ele>
        <time>2021-06-03T13:32:42.000Z</time>
      </trkpt>
      <trkpt lat="44.97651" lon="-0.35098">
        <ele>15.7</ele>
        <time>2021-06-03T13:32:43.000Z</time>
      </trkpt>
      <trkpt lat="44.97656" lon="-0.351">
        <ele>15.7</ele>
        <time>2021-06-03T13:32:44.000Z</time>
      </trkpt>
      <trkpt lat="44.9766" lon="-0.35104">
        <ele>15.7</ele>
        <time>2021-06-03T13:32:45.000Z</time>
      </trkpt>
      <trkpt lat="44.97662" lon="-0.35111">
        <ele>15.6</ele>
        <time>2021-06-03T13:32:46.000Z</time>
      </trkpt>
      <trkpt lat="44.97663" lon="-0.35119">
        <ele>15.5</ele>
        <time>2021-06-03T13:32:47.000Z</time>
      </trkpt>
      <trkpt lat="44.97663" lon="-0.35127">
        <ele>15.4</ele>
        <time>2021-06-03T13:32:48.000Z</time>
      </trkpt>
      <trkpt lat="44.97663" lon="-0.35136">
        <ele>15.1</ele>
        <time>2021-06-03T13:32:49.000Z</time>
      </trkpt>
      <trkpt lat="44.97663" lon="-0.35145">
        <ele>14.8</ele>
        <time>2021-06-03T13:32:50.000Z</time>
      </trkpt>
      <trkpt lat="44.97663" lon="-0.35155">
        <ele>14.4</ele>
        <time>2021-06-03T13:32:51.000Z</time>
      </trkpt>
      <trkpt lat="44.97663" lon="-0.35163">
        <ele>14.1</ele>
        <time>2021-06-03T13:32:52.000Z</time>
      </trkpt>
      <trkpt lat="44.97663" lon="-0.35172">
        <ele>13.7</ele>
        <time>2021-06-03T13:32:53.000Z</time>
      </trkpt>
      <trkpt lat="44.97663" lon="-0.3518">
        <ele>13.4</ele>
        <time>2021-06-03T13:32:54.000Z</time>
      </trkpt>
      <trkpt lat="44.97663" lon="-0.35189">
        <ele>13.1</ele>
        <time>2021-06-03T13:32:55.000Z</time>
      </trkpt>
      <trkpt lat="44.97663" lon="-0.35197">
        <ele>13.1</ele>
        <time>2021-06-03T13:32:56.000Z</time>
      </trkpt>
      <trkpt lat="44.97663" lon="-0.35206">
        <ele>13</ele>
        <time>2021-06-03T13:32:57.000Z</time>
      </trkpt>
      <trkpt lat="44.97663" lon="-0.35214">
        <ele>13.4</ele>
        <time>2021-06-03T13:32:58.000Z</time>
      </trkpt>
      <trkpt lat="44.97663" lon="-0.35222">
        <ele>13.7</ele>
        <time>2021-06-03T13:32:59.000Z</time>
      </trkpt>
      <trkpt lat="44.97663" lon="-0.35229">
        <ele>13.4</ele>
        <time>2021-06-03T13:33:00.000Z</time>
      </trkpt>
      <trkpt lat="44.97663" lon="-0.35236">
        <ele>13.1</ele>
        <time>2021-06-03T13:33:01.000Z</time>
      </trkpt>
      <trkpt lat="44.97663" lon="-0.35243">
        <ele>13</ele>
        <time>2021-06-03T13:33:02.000Z</time>
      </trkpt>
      <trkpt lat="44.97663" lon="-0.35251">
        <ele>13</ele>
        <time>2021-06-03T13:33:03.000Z</time>
      </trkpt>
      <trkpt lat="44.97662" lon="-0.35258">
        <ele>13</ele>
        <time>2021-06-03T13:33:04.000Z</time>
      </trkpt>
      <trkpt lat="44.97662" lon="-0.35265">
        <ele>13</ele>
        <time>2021-06-03T13:33:05.000Z</time>
      </trkpt>
      <trkpt lat="44.97662" lon="-0.35272">
        <ele>13.1</ele>
        <time>2021-06-03T13:33:06.000Z</time>
      </trkpt>
      <trkpt lat="44.97662" lon="-0.35278">
        <ele>13.1</ele>
        <time>2021-06-03T13:33:07.000Z</time>
      </trkpt>
      <trkpt lat="44.97662" lon="-0.35285">
        <ele>13.5</ele>
        <time>2021-06-03T13:33:08.000Z</time>
      </trkpt>
      <trkpt lat="44.97662" lon="-0.35292">
        <ele>13.7</ele>
        <time>2021-06-03T13:33:09.000Z</time>
      </trkpt>
      <trkpt lat="44.97662" lon="-0.35298">
        <ele>14.1</ele>
        <time>2021-06-03T13:33:10.000Z</time>
      </trkpt>
      <trkpt lat="44.97662" lon="-0.35305">
        <ele>14.3</ele>
        <time>2021-06-03T13:33:11.000Z</time>
      </trkpt>
      <trkpt lat="44.97662" lon="-0.35312">
        <ele>14.3</ele>
        <time>2021-06-03T13:33:12.000Z</time>
      </trkpt>
      <trkpt lat="44.97662" lon="-0.35319">
        <ele>14.3</ele>
        <time>2021-06-03T13:33:13.000Z</time>
      </trkpt>
      <trkpt lat="44.97662" lon="-0.35326">
        <ele>14.3</ele>
        <time>2021-06-03T13:33:14.000Z</time>
      </trkpt>
      <trkpt lat="44.97662" lon="-0.35332">
        <ele>14.2</ele>
        <time>2021-06-03T13:33:15.000Z</time>
      </trkpt>
      <trkpt lat="44.97661" lon="-0.35339">
        <ele>14.1</ele>
        <time>2021-06-03T13:33:16.000Z</time>
      </trkpt>
      <trkpt lat="44.97661" lon="-0.35346">
        <ele>13.9</ele>
        <time>2021-06-03T13:33:17.000Z</time>
      </trkpt>
      <trkpt lat="44.97661" lon="-0.35353">
        <ele>13.7</ele>
        <time>2021-06-03T13:33:18.000Z</time>
      </trkpt>
      <trkpt lat="44.97662" lon="-0.3536">
        <ele>14.1</ele>
        <time>2021-06-03T13:33:19.000Z</time>
      </trkpt>
      <trkpt lat="44.97662" lon="-0.35367">
        <ele>14.4</ele>
        <time>2021-06-03T13:33:20.000Z</time>
      </trkpt>
      <trkpt lat="44.97662" lon="-0.35374">
        <ele>14.7</ele>
        <time>2021-06-03T13:33:21.000Z</time>
      </trkpt>
      <trkpt lat="44.97662" lon="-0.3538">
        <ele>14.6</ele>
        <time>2021-06-03T13:33:22.000Z</time>
      </trkpt>
      <trkpt lat="44.97662" lon="-0.35387">
        <ele>14.6</ele>
        <time>2021-06-03T13:33:23.000Z</time>
      </trkpt>
      <trkpt lat="44.97662" lon="-0.35394">
        <ele>15</ele>
        <time>2021-06-03T13:33:24.000Z</time>
      </trkpt>
      <trkpt lat="44.97662" lon="-0.35401">
        <ele>15.3</ele>
        <time>2021-06-03T13:33:25.000Z</time>
      </trkpt>
      <trkpt lat="44.97662" lon="-0.35408">
        <ele>15.5</ele>
        <time>2021-06-03T13:33:26.000Z</time>
      </trkpt>
      <trkpt lat="44.97662" lon="-0.35414">
        <ele>15.5</ele>
        <time>2021-06-03T13:33:27.000Z</time>
      </trkpt>
      <trkpt lat="44.97662" lon="-0.35421">
        <ele>15.5</ele>
        <time>2021-06-03T13:33:28.000Z</time>
      </trkpt>
      <trkpt lat="44.97662" lon="-0.35428">
        <ele>15.5</ele>
        <time>2021-06-03T13:33:29.000Z</time>
      </trkpt>
      <trkpt lat="44.97662" lon="-0.35434">
        <ele>15.4</ele>
        <time>2021-06-03T13:33:30.000Z</time>
      </trkpt>
      <trkpt lat="44.97662" lon="-0.35441">
        <ele>15.7</ele>
        <time>2021-06-03T13:33:31.000Z</time>
      </trkpt>
      <trkpt lat="44.97662" lon="-0.35454">
        <ele>16</ele>
        <time>2021-06-03T13:33:33.000Z</time>
      </trkpt>
      <trkpt lat="44.97662" lon="-0.35466">
        <ele>16.3</ele>
        <time>2021-06-03T13:33:35.000Z</time>
      </trkpt>
      <trkpt lat="44.97662" lon="-0.35472">
        <ele>16.3</ele>
        <time>2021-06-03T13:33:36.000Z</time>
      </trkpt>
      <trkpt lat="44.97662" lon="-0.35489">
        <ele>17</ele>
        <time>2021-06-03T13:33:39.000Z</time>
      </trkpt>
      <trkpt lat="44.97663" lon="-0.355">
        <ele>17.2</ele>
        <time>2021-06-03T13:33:41.000Z</time>
      </trkpt>
      <trkpt lat="44.97663" lon="-0.35511">
        <ele>17.3</ele>
        <time>2021-06-03T13:33:43.000Z</time>
      </trkpt>
      <trkpt lat="44.97663" lon="-0.35521">
        <ele>18</ele>
        <time>2021-06-03T13:33:45.000Z</time>
      </trkpt>
      <trkpt lat="44.97663" lon="-0.35531">
        <ele>18.8</ele>
        <time>2021-06-03T13:33:47.000Z</time>
      </trkpt>
      <trkpt lat="44.97663" lon="-0.35541">
        <ele>18.8</ele>
        <time>2021-06-03T13:33:49.000Z</time>
      </trkpt>
      <trkpt lat="44.97663" lon="-0.3555">
        <ele>18.9</ele>
        <time>2021-06-03T13:33:51.000Z</time>
      </trkpt>
      <trkpt lat="44.97664" lon="-0.35563">
        <ele>19.6</ele>
        <time>2021-06-03T13:33:54.000Z</time>
      </trkpt>
      <trkpt lat="44.97662" lon="-0.35574">
        <ele>20.7</ele>
        <time>2021-06-03T13:33:58.000Z</time>
      </trkpt>
      <trkpt lat="44.97656" lon="-0.35579">
        <ele>21.3</ele>
        <time>2021-06-03T13:34:01.000Z</time>
      </trkpt>
      <trkpt lat="44.97648" lon="-0.35581">
        <ele>21.5</ele>
        <time>2021-06-03T13:34:04.000Z</time>
      </trkpt>
      <trkpt lat="44.9764" lon="-0.35581">
        <ele>21.2</ele>
        <time>2021-06-03T13:34:07.000Z</time>
      </trkpt>
      <trkpt lat="44.97633" lon="-0.35581">
        <ele>21.2</ele>
        <time>2021-06-03T13:34:10.000Z</time>
      </trkpt>
      <trkpt lat="44.97627" lon="-0.35581">
        <ele>21.3</ele>
        <time>2021-06-03T13:34:12.000Z</time>
      </trkpt>
      <trkpt lat="44.9762" lon="-0.35581">
        <ele>20.9</ele>
        <time>2021-06-03T13:34:14.000Z</time>
      </trkpt>
      <trkpt lat="44.97613" lon="-0.35581">
        <ele>20.3</ele>
        <time>2021-06-03T13:34:16.000Z</time>
      </trkpt>
      <trkpt lat="44.97605" lon="-0.35581">
        <ele>20.1</ele>
        <time>2021-06-03T13:34:18.000Z</time>
      </trkpt>
      <trkpt lat="44.97597" lon="-0.35582">
        <ele>20.1</ele>
        <time>2021-06-03T13:34:20.000Z</time>
      </trkpt>
      <trkpt lat="44.97593" lon="-0.35582">
        <ele>19.8</ele>
        <time>2021-06-03T13:34:21.000Z</time>
      </trkpt>
      <trkpt lat="44.97588" lon="-0.35582">
        <ele>19.6</ele>
        <time>2021-06-03T13:34:22.000Z</time>
      </trkpt>
      <trkpt lat="44.97584" lon="-0.35583">
        <ele>19.8</ele>
        <time>2021-06-03T13:34:23.000Z</time>
      </trkpt>
      <trkpt lat="44.97579" lon="-0.35584">
        <ele>19.9</ele>
        <time>2021-06-03T13:34:24.000Z</time>
      </trkpt>
      <trkpt lat="44.97575" lon="-0.35584">
        <ele>20</ele>
        <time>2021-06-03T13:34:25.000Z</time>
      </trkpt>
      <trkpt lat="44.9757" lon="-0.35585">
        <ele>20.1</ele>
        <time>2021-06-03T13:34:26.000Z</time>
      </trkpt>
      <trkpt lat="44.97565" lon="-0.35586">
        <ele>20.1</ele>
        <time>2021-06-03T13:34:27.000Z</time>
      </trkpt>
      <trkpt lat="44.97557" lon="-0.35587">
        <ele>19.9</ele>
        <time>2021-06-03T13:34:29.000Z</time>
      </trkpt>
      <trkpt lat="44.97548" lon="-0.35589">
        <ele>19.8</ele>
        <time>2021-06-03T13:34:31.000Z</time>
      </trkpt>
      <trkpt lat="44.97539" lon="-0.35591">
        <ele>19.6</ele>
        <time>2021-06-03T13:34:33.000Z</time>
      </trkpt>
      <trkpt lat="44.97535" lon="-0.35592">
        <ele>19.5</ele>
        <time>2021-06-03T13:34:34.000Z</time>
      </trkpt>
      <trkpt lat="44.97526" lon="-0.35594">
        <ele>19</ele>
        <time>2021-06-03T13:34:36.000Z</time>
      </trkpt>
      <trkpt lat="44.97521" lon="-0.35596">
        <ele>18.9</ele>
        <time>2021-06-03T13:34:37.000Z</time>
      </trkpt>
      <trkpt lat="44.97513" lon="-0.35598">
        <ele>19.5</ele>
        <time>2021-06-03T13:34:39.000Z</time>
      </trkpt>
      <trkpt lat="44.97508" lon="-0.35599">
        <ele>19.2</ele>
        <time>2021-06-03T13:34:40.000Z</time>
      </trkpt>
      <trkpt lat="44.97503" lon="-0.35601">
        <ele>19</ele>
        <time>2021-06-03T13:34:41.000Z</time>
      </trkpt>
      <trkpt lat="44.97499" lon="-0.35604">
        <ele>19</ele>
        <time>2021-06-03T13:34:42.000Z</time>
      </trkpt>
      <trkpt lat="44.97494" lon="-0.35606">
        <ele>19</ele>
        <time>2021-06-03T13:34:43.000Z</time>
      </trkpt>
      <trkpt lat="44.97489" lon="-0.35608">
        <ele>19</ele>
        <time>2021-06-03T13:34:44.000Z</time>
      </trkpt>
      <trkpt lat="44.97485" lon="-0.35611">
        <ele>18.9</ele>
        <time>2021-06-03T13:34:45.000Z</time>
      </trkpt>
      <trkpt lat="44.9748" lon="-0.35614">
        <ele>18.8</ele>
        <time>2021-06-03T13:34:46.000Z</time>
      </trkpt>
      <trkpt lat="44.97476" lon="-0.35617">
        <ele>18.6</ele>
        <time>2021-06-03T13:34:47.000Z</time>
      </trkpt>
      <trkpt lat="44.97472" lon="-0.3562">
        <ele>18.5</ele>
        <time>2021-06-03T13:34:48.000Z</time>
      </trkpt>
      <trkpt lat="44.97464" lon="-0.35627">
        <ele>18.6</ele>
        <time>2021-06-03T13:34:50.000Z</time>
      </trkpt>
      <trkpt lat="44.97456" lon="-0.35633">
        <ele>18.5</ele>
        <time>2021-06-03T13:34:52.000Z</time>
      </trkpt>
      <trkpt lat="44.97449" lon="-0.3564">
        <ele>18.6</ele>
        <time>2021-06-03T13:34:54.000Z</time>
      </trkpt>
      <trkpt lat="44.97442" lon="-0.35647">
        <ele>18.9</ele>
        <time>2021-06-03T13:34:56.000Z</time>
      </trkpt>
      <trkpt lat="44.97438" lon="-0.3565">
        <ele>18.9</ele>
        <time>2021-06-03T13:34:57.000Z</time>
      </trkpt>
      <trkpt lat="44.97434" lon="-0.35653">
        <ele>18.8</ele>
        <time>2021-06-03T13:34:58.000Z</time>
      </trkpt>
      <trkpt lat="44.97426" lon="-0.35659">
        <ele>19.3</ele>
        <time>2021-06-03T13:35:00.000Z</time>
      </trkpt>
      <trkpt lat="44.97418" lon="-0.35665">
        <ele>18.8</ele>
        <time>2021-06-03T13:35:02.000Z</time>
      </trkpt>
      <trkpt lat="44.9741" lon="-0.35671">
        <ele>18.9</ele>
        <time>2021-06-03T13:35:04.000Z</time>
      </trkpt>
      <trkpt lat="44.97406" lon="-0.35674">
        <ele>19</ele>
        <time>2021-06-03T13:35:05.000Z</time>
      </trkpt>
      <trkpt lat="44.97402" lon="-0.35677">
        <ele>19.3</ele>
        <time>2021-06-03T13:35:06.000Z</time>
      </trkpt>
      <trkpt lat="44.97398" lon="-0.3568">
        <ele>19.5</ele>
        <time>2021-06-03T13:35:07.000Z</time>
      </trkpt>
      <trkpt lat="44.97394" lon="-0.35683">
        <ele>19.7</ele>
        <time>2021-06-03T13:35:08.000Z</time>
      </trkpt>
      <trkpt lat="44.97389" lon="-0.35685">
        <ele>19.6</ele>
        <time>2021-06-03T13:35:09.000Z</time>
      </trkpt>
      <trkpt lat="44.97385" lon="-0.35688">
        <ele>19.6</ele>
        <time>2021-06-03T13:35:10.000Z</time>
      </trkpt>
      <trkpt lat="44.97381" lon="-0.3569">
        <ele>19.6</ele>
        <time>2021-06-03T13:35:11.000Z</time>
      </trkpt>
      <trkpt lat="44.97376" lon="-0.35693">
        <ele>19.7</ele>
        <time>2021-06-03T13:35:12.000Z</time>
      </trkpt>
      <trkpt lat="44.97372" lon="-0.35695">
        <ele>19.8</ele>
        <time>2021-06-03T13:35:13.000Z</time>
      </trkpt>
      <trkpt lat="44.97367" lon="-0.35698">
        <ele>19.9</ele>
        <time>2021-06-03T13:35:14.000Z</time>
      </trkpt>
      <trkpt lat="44.97363" lon="-0.357">
        <ele>19.9</ele>
        <time>2021-06-03T13:35:15.000Z</time>
      </trkpt>
      <trkpt lat="44.97358" lon="-0.35702">
        <ele>19.7</ele>
        <time>2021-06-03T13:35:16.000Z</time>
      </trkpt>
      <trkpt lat="44.97354" lon="-0.35705">
        <ele>19.6</ele>
        <time>2021-06-03T13:35:17.000Z</time>
      </trkpt>
      <trkpt lat="44.97349" lon="-0.35707">
        <ele>19.6</ele>
        <time>2021-06-03T13:35:18.000Z</time>
      </trkpt>
      <trkpt lat="44.97345" lon="-0.35709">
        <ele>19.6</ele>
        <time>2021-06-03T13:35:19.000Z</time>
      </trkpt>
      <trkpt lat="44.9734" lon="-0.35711">
        <ele>19.3</ele>
        <time>2021-06-03T13:35:20.000Z</time>
      </trkpt>
      <trkpt lat="44.97336" lon="-0.35714">
        <ele>19.1</ele>
        <time>2021-06-03T13:35:21.000Z</time>
      </trkpt>
      <trkpt lat="44.97332" lon="-0.35716">
        <ele>19</ele>
        <time>2021-06-03T13:35:22.000Z</time>
      </trkpt>
      <trkpt lat="44.97327" lon="-0.35718">
        <ele>18.9</ele>
        <time>2021-06-03T13:35:23.000Z</time>
      </trkpt>
      <trkpt lat="44.97319" lon="-0.35723">
        <ele>19</ele>
        <time>2021-06-03T13:35:25.000Z</time>
      </trkpt>
      <trkpt lat="44.97311" lon="-0.35728">
        <ele>19.3</ele>
        <time>2021-06-03T13:35:27.000Z</time>
      </trkpt>
      <trkpt lat="44.97304" lon="-0.35733">
        <ele>18.8</ele>
        <time>2021-06-03T13:35:29.000Z</time>
      </trkpt>
      <trkpt lat="44.97297" lon="-0.35739">
        <ele>18.8</ele>
        <time>2021-06-03T13:35:31.000Z</time>
      </trkpt>
      <trkpt lat="44.97291" lon="-0.35747">
        <ele>19.6</ele>
        <time>2021-06-03T13:35:33.000Z</time>
      </trkpt>
      <trkpt lat="44.97286" lon="-0.35756">
        <ele>19.8</ele>
        <time>2021-06-03T13:35:35.000Z</time>
      </trkpt>
      <trkpt lat="44.97282" lon="-0.35766">
        <ele>19.8</ele>
        <time>2021-06-03T13:35:37.000Z</time>
      </trkpt>
      <trkpt lat="44.97281" lon="-0.35772">
        <ele>19.8</ele>
        <time>2021-06-03T13:35:38.000Z</time>
      </trkpt>
      <trkpt lat="44.97278" lon="-0.3579">
        <ele>19.7</ele>
        <time>2021-06-03T13:35:41.000Z</time>
      </trkpt>
      <trkpt lat="44.97278" lon="-0.35803">
        <ele>19.3</ele>
        <time>2021-06-03T13:35:43.000Z</time>
      </trkpt>
      <trkpt lat="44.97278" lon="-0.35809">
        <ele>19.5</ele>
        <time>2021-06-03T13:35:44.000Z</time>
      </trkpt>
      <trkpt lat="44.97278" lon="-0.35816">
        <ele>19.6</ele>
        <time>2021-06-03T13:35:45.000Z</time>
      </trkpt>
      <trkpt lat="44.97278" lon="-0.35828">
        <ele>19.8</ele>
        <time>2021-06-03T13:35:47.000Z</time>
      </trkpt>
      <trkpt lat="44.97278" lon="-0.3584">
        <ele>20.2</ele>
        <time>2021-06-03T13:35:49.000Z</time>
      </trkpt>
      <trkpt lat="44.97278" lon="-0.3585">
        <ele>20.4</ele>
        <time>2021-06-03T13:35:51.000Z</time>
      </trkpt>
      <trkpt lat="44.97279" lon="-0.35862">
        <ele>20.4</ele>
        <time>2021-06-03T13:35:53.000Z</time>
      </trkpt>
      <trkpt lat="44.97279" lon="-0.35873">
        <ele>21</ele>
        <time>2021-06-03T13:35:55.000Z</time>
      </trkpt>
      <trkpt lat="44.9728" lon="-0.35884">
        <ele>21.7</ele>
        <time>2021-06-03T13:35:57.000Z</time>
      </trkpt>
      <trkpt lat="44.9728" lon="-0.35895">
        <ele>21.5</ele>
        <time>2021-06-03T13:35:59.000Z</time>
      </trkpt>
      <trkpt lat="44.9728" lon="-0.35907">
        <ele>20.8</ele>
        <time>2021-06-03T13:36:01.000Z</time>
      </trkpt>
      <trkpt lat="44.9728" lon="-0.35919">
        <ele>20.5</ele>
        <time>2021-06-03T13:36:03.000Z</time>
      </trkpt>
      <trkpt lat="44.97279" lon="-0.35931">
        <ele>20.7</ele>
        <time>2021-06-03T13:36:05.000Z</time>
      </trkpt>
      <trkpt lat="44.97278" lon="-0.35937">
        <ele>20.8</ele>
        <time>2021-06-03T13:36:06.000Z</time>
      </trkpt>
      <trkpt lat="44.97276" lon="-0.35944">
        <ele>20.9</ele>
        <time>2021-06-03T13:36:07.000Z</time>
      </trkpt>
      <trkpt lat="44.97275" lon="-0.3595">
        <ele>20.9</ele>
        <time>2021-06-03T13:36:08.000Z</time>
      </trkpt>
      <trkpt lat="44.97273" lon="-0.35962">
        <ele>20.9</ele>
        <time>2021-06-03T13:36:10.000Z</time>
      </trkpt>
      <trkpt lat="44.9727" lon="-0.35974">
        <ele>20.9</ele>
        <time>2021-06-03T13:36:12.000Z</time>
      </trkpt>
      <trkpt lat="44.97269" lon="-0.35985">
        <ele>21</ele>
        <time>2021-06-03T13:36:14.000Z</time>
      </trkpt>
      <trkpt lat="44.97268" lon="-0.35995">
        <ele>21.1</ele>
        <time>2021-06-03T13:36:16.000Z</time>
      </trkpt>
      <trkpt lat="44.97267" lon="-0.36006">
        <ele>20.7</ele>
        <time>2021-06-03T13:36:18.000Z</time>
      </trkpt>
      <trkpt lat="44.97265" lon="-0.36016">
        <ele>21</ele>
        <time>2021-06-03T13:36:20.000Z</time>
      </trkpt>
      <trkpt lat="44.97264" lon="-0.36027">
        <ele>21.6</ele>
        <time>2021-06-03T13:36:22.000Z</time>
      </trkpt>
      <trkpt lat="44.97264" lon="-0.36038">
        <ele>22</ele>
        <time>2021-06-03T13:36:24.000Z</time>
      </trkpt>
      <trkpt lat="44.97263" lon="-0.36048">
        <ele>22.2</ele>
        <time>2021-06-03T13:36:26.000Z</time>
      </trkpt>
      <trkpt lat="44.97262" lon="-0.36058">
        <ele>23.1</ele>
        <time>2021-06-03T13:36:28.000Z</time>
      </trkpt>
      <trkpt lat="44.97261" lon="-0.36068">
        <ele>23.2</ele>
        <time>2021-06-03T13:36:30.000Z</time>
      </trkpt>
      <trkpt lat="44.9726" lon="-0.36078">
        <ele>23.6</ele>
        <time>2021-06-03T13:36:32.000Z</time>
      </trkpt>
      <trkpt lat="44.97259" lon="-0.36087">
        <ele>24.1</ele>
        <time>2021-06-03T13:36:34.000Z</time>
      </trkpt>
      <trkpt lat="44.97257" lon="-0.36097">
        <ele>24.7</ele>
        <time>2021-06-03T13:36:36.000Z</time>
      </trkpt>
      <trkpt lat="44.97255" lon="-0.36106">
        <ele>25.1</ele>
        <time>2021-06-03T13:36:38.000Z</time>
      </trkpt>
      <trkpt lat="44.97254" lon="-0.3611">
        <ele>24.8</ele>
        <time>2021-06-03T13:36:39.000Z</time>
      </trkpt>
      <trkpt lat="44.97248" lon="-0.36124">
        <ele>24.8</ele>
        <time>2021-06-03T13:36:42.000Z</time>
      </trkpt>
      <trkpt lat="44.97242" lon="-0.36134">
        <ele>24.8</ele>
        <time>2021-06-03T13:36:44.000Z</time>
      </trkpt>
      <trkpt lat="44.97239" lon="-0.36139">
        <ele>24.8</ele>
        <time>2021-06-03T13:36:45.000Z</time>
      </trkpt>
      <trkpt lat="44.97236" lon="-0.36143">
        <ele>24.8</ele>
        <time>2021-06-03T13:36:46.000Z</time>
      </trkpt>
      <trkpt lat="44.97232" lon="-0.36148">
        <ele>24.8</ele>
        <time>2021-06-03T13:36:47.000Z</time>
      </trkpt>
      <trkpt lat="44.97228" lon="-0.36152">
        <ele>24.3</ele>
        <time>2021-06-03T13:36:48.000Z</time>
      </trkpt>
      <trkpt lat="44.97225" lon="-0.36156">
        <ele>24</ele>
        <time>2021-06-03T13:36:49.000Z</time>
      </trkpt>
      <trkpt lat="44.97221" lon="-0.3616">
        <ele>23.7</ele>
        <time>2021-06-03T13:36:50.000Z</time>
      </trkpt>
      <trkpt lat="44.97217" lon="-0.36164">
        <ele>23.7</ele>
        <time>2021-06-03T13:36:51.000Z</time>
      </trkpt>
      <trkpt lat="44.97212" lon="-0.36168">
        <ele>23.6</ele>
        <time>2021-06-03T13:36:52.000Z</time>
      </trkpt>
      <trkpt lat="44.97208" lon="-0.36171">
        <ele>23.3</ele>
        <time>2021-06-03T13:36:53.000Z</time>
      </trkpt>
      <trkpt lat="44.97203" lon="-0.36174">
        <ele>23</ele>
        <time>2021-06-03T13:36:54.000Z</time>
      </trkpt>
      <trkpt lat="44.97198" lon="-0.36176">
        <ele>22.7</ele>
        <time>2021-06-03T13:36:55.000Z</time>
      </trkpt>
      <trkpt lat="44.97192" lon="-0.36178">
        <ele>22.5</ele>
        <time>2021-06-03T13:36:56.000Z</time>
      </trkpt>
      <trkpt lat="44.97186" lon="-0.3618">
        <ele>22.4</ele>
        <time>2021-06-03T13:36:57.000Z</time>
      </trkpt>
      <trkpt lat="44.9718" lon="-0.36183">
        <ele>21.8</ele>
        <time>2021-06-03T13:36:58.000Z</time>
      </trkpt>
      <trkpt lat="44.97174" lon="-0.36187">
        <ele>21.4</ele>
        <time>2021-06-03T13:36:59.000Z</time>
      </trkpt>
      <trkpt lat="44.97169" lon="-0.36193">
        <ele>21.4</ele>
        <time>2021-06-03T13:37:00.000Z</time>
      </trkpt>
      <trkpt lat="44.97163" lon="-0.362">
        <ele>21.4</ele>
        <time>2021-06-03T13:37:01.000Z</time>
      </trkpt>
      <trkpt lat="44.97158" lon="-0.36208">
        <ele>21.3</ele>
        <time>2021-06-03T13:37:02.000Z</time>
      </trkpt>
      <trkpt lat="44.97153" lon="-0.36217">
        <ele>20.9</ele>
        <time>2021-06-03T13:37:03.000Z</time>
      </trkpt>
      <trkpt lat="44.97148" lon="-0.36226">
        <ele>20.7</ele>
        <time>2021-06-03T13:37:04.000Z</time>
      </trkpt>
      <trkpt lat="44.97144" lon="-0.36236">
        <ele>20.1</ele>
        <time>2021-06-03T13:37:05.000Z</time>
      </trkpt>
      <trkpt lat="44.9714" lon="-0.36245">
        <ele>19.7</ele>
        <time>2021-06-03T13:37:06.000Z</time>
      </trkpt>
      <trkpt lat="44.97136" lon="-0.36255">
        <ele>19.3</ele>
        <time>2021-06-03T13:37:07.000Z</time>
      </trkpt>
      <trkpt lat="44.97132" lon="-0.36264">
        <ele>19</ele>
        <time>2021-06-03T13:37:08.000Z</time>
      </trkpt>
      <trkpt lat="44.97129" lon="-0.36274">
        <ele>18.8</ele>
        <time>2021-06-03T13:37:09.000Z</time>
      </trkpt>
      <trkpt lat="44.97125" lon="-0.36282">
        <ele>18.3</ele>
        <time>2021-06-03T13:37:10.000Z</time>
      </trkpt>
      <trkpt lat="44.97122" lon="-0.36291">
        <ele>17.9</ele>
        <time>2021-06-03T13:37:11.000Z</time>
      </trkpt>
      <trkpt lat="44.97119" lon="-0.36298">
        <ele>18.4</ele>
        <time>2021-06-03T13:37:12.000Z</time>
      </trkpt>
      <trkpt lat="44.97116" lon="-0.36306">
        <ele>18.8</ele>
        <time>2021-06-03T13:37:13.000Z</time>
      </trkpt>
      <trkpt lat="44.97114" lon="-0.36313">
        <ele>19</ele>
        <time>2021-06-03T13:37:14.000Z</time>
      </trkpt>
      <trkpt lat="44.97111" lon="-0.3632">
        <ele>19.2</ele>
        <time>2021-06-03T13:37:15.000Z</time>
      </trkpt>
      <trkpt lat="44.97109" lon="-0.36326">
        <ele>19.3</ele>
        <time>2021-06-03T13:37:16.000Z</time>
      </trkpt>
      <trkpt lat="44.97106" lon="-0.36333">
        <ele>19.4</ele>
        <time>2021-06-03T13:37:17.000Z</time>
      </trkpt>
      <trkpt lat="44.97104" lon="-0.36339">
        <ele>19.4</ele>
        <time>2021-06-03T13:37:18.000Z</time>
      </trkpt>
      <trkpt lat="44.97101" lon="-0.36346">
        <ele>19.2</ele>
        <time>2021-06-03T13:37:19.000Z</time>
      </trkpt>
      <trkpt lat="44.97099" lon="-0.36352">
        <ele>19.1</ele>
        <time>2021-06-03T13:37:20.000Z</time>
      </trkpt>
      <trkpt lat="44.97096" lon="-0.36358">
        <ele>19.3</ele>
        <time>2021-06-03T13:37:21.000Z</time>
      </trkpt>
      <trkpt lat="44.97094" lon="-0.36365">
        <ele>19.4</ele>
        <time>2021-06-03T13:37:22.000Z</time>
      </trkpt>
      <trkpt lat="44.97091" lon="-0.36371">
        <ele>19.5</ele>
        <time>2021-06-03T13:37:23.000Z</time>
      </trkpt>
      <trkpt lat="44.97089" lon="-0.36377">
        <ele>19.8</ele>
        <time>2021-06-03T13:37:24.000Z</time>
      </trkpt>
      <trkpt lat="44.97086" lon="-0.36384">
        <ele>20.1</ele>
        <time>2021-06-03T13:37:25.000Z</time>
      </trkpt>
      <trkpt lat="44.97084" lon="-0.3639">
        <ele>20.3</ele>
        <time>2021-06-03T13:37:26.000Z</time>
      </trkpt>
      <trkpt lat="44.97081" lon="-0.36396">
        <ele>20.5</ele>
        <time>2021-06-03T13:37:27.000Z</time>
      </trkpt>
      <trkpt lat="44.97079" lon="-0.36402">
        <ele>20.7</ele>
        <time>2021-06-03T13:37:28.000Z</time>
      </trkpt>
      <trkpt lat="44.97076" lon="-0.36408">
        <ele>20.6</ele>
        <time>2021-06-03T13:37:29.000Z</time>
      </trkpt>
      <trkpt lat="44.97074" lon="-0.36414">
        <ele>20.6</ele>
        <time>2021-06-03T13:37:30.000Z</time>
      </trkpt>
      <trkpt lat="44.97071" lon="-0.3642">
        <ele>20.7</ele>
        <time>2021-06-03T13:37:31.000Z</time>
      </trkpt>
      <trkpt lat="44.97068" lon="-0.36426">
        <ele>20.8</ele>
        <time>2021-06-03T13:37:32.000Z</time>
      </trkpt>
      <trkpt lat="44.97065" lon="-0.36432">
        <ele>21.3</ele>
        <time>2021-06-03T13:37:33.000Z</time>
      </trkpt>
      <trkpt lat="44.97063" lon="-0.36439">
        <ele>21.7</ele>
        <time>2021-06-03T13:37:34.000Z</time>
      </trkpt>
      <trkpt lat="44.9706" lon="-0.36445">
        <ele>21.9</ele>
        <time>2021-06-03T13:37:35.000Z</time>
      </trkpt>
      <trkpt lat="44.97057" lon="-0.36451">
        <ele>21.7</ele>
        <time>2021-06-03T13:37:36.000Z</time>
      </trkpt>
      <trkpt lat="44.97054" lon="-0.36457">
        <ele>21.5</ele>
        <time>2021-06-03T13:37:37.000Z</time>
      </trkpt>
      <trkpt lat="44.97051" lon="-0.36463">
        <ele>21.4</ele>
        <time>2021-06-03T13:37:38.000Z</time>
      </trkpt>
      <trkpt lat="44.97048" lon="-0.36469">
        <ele>21.4</ele>
        <time>2021-06-03T13:37:39.000Z</time>
      </trkpt>
      <trkpt lat="44.97045" lon="-0.36476">
        <ele>21.4</ele>
        <time>2021-06-03T13:37:40.000Z</time>
      </trkpt>
      <trkpt lat="44.97043" lon="-0.36482">
        <ele>21.5</ele>
        <time>2021-06-03T13:37:41.000Z</time>
      </trkpt>
      <trkpt lat="44.9704" lon="-0.36488">
        <ele>21.5</ele>
        <time>2021-06-03T13:37:42.000Z</time>
      </trkpt>
      <trkpt lat="44.97037" lon="-0.36494">
        <ele>21.4</ele>
        <time>2021-06-03T13:37:43.000Z</time>
      </trkpt>
      <trkpt lat="44.97034" lon="-0.36501">
        <ele>21.3</ele>
        <time>2021-06-03T13:37:44.000Z</time>
      </trkpt>
      <trkpt lat="44.97031" lon="-0.36507">
        <ele>21.3</ele>
        <time>2021-06-03T13:37:45.000Z</time>
      </trkpt>
      <trkpt lat="44.97028" lon="-0.36513">
        <ele>21.3</ele>
        <time>2021-06-03T13:37:46.000Z</time>
      </trkpt>
      <trkpt lat="44.97025" lon="-0.36519">
        <ele>21.3</ele>
        <time>2021-06-03T13:37:47.000Z</time>
      </trkpt>
      <trkpt lat="44.97023" lon="-0.36525">
        <ele>21.2</ele>
        <time>2021-06-03T13:37:48.000Z</time>
      </trkpt>
      <trkpt lat="44.9702" lon="-0.36531">
        <ele>21.1</ele>
        <time>2021-06-03T13:37:49.000Z</time>
      </trkpt>
      <trkpt lat="44.97017" lon="-0.36537">
        <ele>21</ele>
        <time>2021-06-03T13:37:50.000Z</time>
      </trkpt>
      <trkpt lat="44.97014" lon="-0.36543">
        <ele>21</ele>
        <time>2021-06-03T13:37:51.000Z</time>
      </trkpt>
      <trkpt lat="44.97011" lon="-0.36549">
        <ele>20.6</ele>
        <time>2021-06-03T13:37:52.000Z</time>
      </trkpt>
      <trkpt lat="44.97008" lon="-0.36555">
        <ele>20.3</ele>
        <time>2021-06-03T13:37:53.000Z</time>
      </trkpt>
      <trkpt lat="44.97006" lon="-0.36561">
        <ele>20.1</ele>
        <time>2021-06-03T13:37:54.000Z</time>
      </trkpt>
      <trkpt lat="44.97003" lon="-0.36567">
        <ele>20.6</ele>
        <time>2021-06-03T13:37:55.000Z</time>
      </trkpt>
      <trkpt lat="44.96999" lon="-0.36572">
        <ele>21</ele>
        <time>2021-06-03T13:37:56.000Z</time>
      </trkpt>
      <trkpt lat="44.96997" lon="-0.36578">
        <ele>21.1</ele>
        <time>2021-06-03T13:37:57.000Z</time>
      </trkpt>
      <trkpt lat="44.96993" lon="-0.36583">
        <ele>21.2</ele>
        <time>2021-06-03T13:37:58.000Z</time>
      </trkpt>
      <trkpt lat="44.9699" lon="-0.36588">
        <ele>21.2</ele>
        <time>2021-06-03T13:37:59.000Z</time>
      </trkpt>
      <trkpt lat="44.96987" lon="-0.36593">
        <ele>21.5</ele>
        <time>2021-06-03T13:38:00.000Z</time>
      </trkpt>
      <trkpt lat="44.96984" lon="-0.36599">
        <ele>21.8</ele>
        <time>2021-06-03T13:38:01.000Z</time>
      </trkpt>
      <trkpt lat="44.96981" lon="-0.36604">
        <ele>21.7</ele>
        <time>2021-06-03T13:38:02.000Z</time>
      </trkpt>
      <trkpt lat="44.96978" lon="-0.36609">
        <ele>21.7</ele>
        <time>2021-06-03T13:38:03.000Z</time>
      </trkpt>
      <trkpt lat="44.96975" lon="-0.36615">
        <ele>21.9</ele>
        <time>2021-06-03T13:38:04.000Z</time>
      </trkpt>
      <trkpt lat="44.96972" lon="-0.36619">
        <ele>22</ele>
        <time>2021-06-03T13:38:05.000Z</time>
      </trkpt>
      <trkpt lat="44.96969" lon="-0.36624">
        <ele>22.2</ele>
        <time>2021-06-03T13:38:06.000Z</time>
      </trkpt>
      <trkpt lat="44.96966" lon="-0.3663">
        <ele>22.8</ele>
        <time>2021-06-03T13:38:07.000Z</time>
      </trkpt>
      <trkpt lat="44.96961" lon="-0.3664">
        <ele>23.3</ele>
        <time>2021-06-03T13:38:09.000Z</time>
      </trkpt>
      <trkpt lat="44.96956" lon="-0.36651">
        <ele>23.6</ele>
        <time>2021-06-03T13:38:11.000Z</time>
      </trkpt>
      <trkpt lat="44.96952" lon="-0.36661">
        <ele>23.9</ele>
        <time>2021-06-03T13:38:13.000Z</time>
      </trkpt>
      <trkpt lat="44.96948" lon="-0.36673">
        <ele>24.3</ele>
        <time>2021-06-03T13:38:15.000Z</time>
      </trkpt>
      <trkpt lat="44.96945" lon="-0.36685">
        <ele>24.4</ele>
        <time>2021-06-03T13:38:17.000Z</time>
      </trkpt>
      <trkpt lat="44.96943" lon="-0.36697">
        <ele>23.9</ele>
        <time>2021-06-03T13:38:19.000Z</time>
      </trkpt>
      <trkpt lat="44.96942" lon="-0.36708">
        <ele>23.9</ele>
        <time>2021-06-03T13:38:21.000Z</time>
      </trkpt>
      <trkpt lat="44.96941" lon="-0.3672">
        <ele>24.2</ele>
        <time>2021-06-03T13:38:23.000Z</time>
      </trkpt>
      <trkpt lat="44.9694" lon="-0.36731">
        <ele>24.5</ele>
        <time>2021-06-03T13:38:25.000Z</time>
      </trkpt>
      <trkpt lat="44.96939" lon="-0.3674">
        <ele>24.8</ele>
        <time>2021-06-03T13:38:27.000Z</time>
      </trkpt>
      <trkpt lat="44.96938" lon="-0.36749">
        <ele>24.8</ele>
        <time>2021-06-03T13:38:29.000Z</time>
      </trkpt>
      <trkpt lat="44.96938" lon="-0.36759">
        <ele>25</ele>
        <time>2021-06-03T13:38:31.000Z</time>
      </trkpt>
      <trkpt lat="44.96937" lon="-0.36769">
        <ele>25.1</ele>
        <time>2021-06-03T13:38:33.000Z</time>
      </trkpt>
      <trkpt lat="44.96936" lon="-0.3678">
        <ele>25.4</ele>
        <time>2021-06-03T13:38:35.000Z</time>
      </trkpt>
      <trkpt lat="44.96936" lon="-0.36791">
        <ele>25.4</ele>
        <time>2021-06-03T13:38:37.000Z</time>
      </trkpt>
      <trkpt lat="44.96935" lon="-0.36802">
        <ele>25.2</ele>
        <time>2021-06-03T13:38:39.000Z</time>
      </trkpt>
      <trkpt lat="44.96935" lon="-0.36813">
        <ele>25.3</ele>
        <time>2021-06-03T13:38:41.000Z</time>
      </trkpt>
      <trkpt lat="44.96935" lon="-0.36819">
        <ele>25.4</ele>
        <time>2021-06-03T13:38:42.000Z</time>
      </trkpt>
      <trkpt lat="44.96935" lon="-0.36836">
        <ele>25.8</ele>
        <time>2021-06-03T13:38:45.000Z</time>
      </trkpt>
      <trkpt lat="44.96935" lon="-0.36847">
        <ele>25.9</ele>
        <time>2021-06-03T13:38:47.000Z</time>
      </trkpt>
      <trkpt lat="44.96936" lon="-0.36859">
        <ele>26</ele>
        <time>2021-06-03T13:38:49.000Z</time>
      </trkpt>
      <trkpt lat="44.96936" lon="-0.3687">
        <ele>26.2</ele>
        <time>2021-06-03T13:38:51.000Z</time>
      </trkpt>
      <trkpt lat="44.96936" lon="-0.36881">
        <ele>26.6</ele>
        <time>2021-06-03T13:38:53.000Z</time>
      </trkpt>
      <trkpt lat="44.96935" lon="-0.36892">
        <ele>27</ele>
        <time>2021-06-03T13:38:55.000Z</time>
      </trkpt>
      <trkpt lat="44.96934" lon="-0.36903">
        <ele>26.8</ele>
        <time>2021-06-03T13:38:57.000Z</time>
      </trkpt>
      <trkpt lat="44.96932" lon="-0.36913">
        <ele>26.7</ele>
        <time>2021-06-03T13:38:59.000Z</time>
      </trkpt>
      <trkpt lat="44.9693" lon="-0.36924">
        <ele>26.9</ele>
        <time>2021-06-03T13:39:01.000Z</time>
      </trkpt>
      <trkpt lat="44.96927" lon="-0.36934">
        <ele>27.3</ele>
        <time>2021-06-03T13:39:03.000Z</time>
      </trkpt>
      <trkpt lat="44.96923" lon="-0.36944">
        <ele>27.7</ele>
        <time>2021-06-03T13:39:05.000Z</time>
      </trkpt>
      <trkpt lat="44.9692" lon="-0.36955">
        <ele>27</ele>
        <time>2021-06-03T13:39:07.000Z</time>
      </trkpt>
      <trkpt lat="44.96917" lon="-0.36965">
        <ele>26.8</ele>
        <time>2021-06-03T13:39:09.000Z</time>
      </trkpt>
      <trkpt lat="44.96913" lon="-0.36976">
        <ele>27</ele>
        <time>2021-06-03T13:39:11.000Z</time>
      </trkpt>
      <trkpt lat="44.9691" lon="-0.36986">
        <ele>27.5</ele>
        <time>2021-06-03T13:39:13.000Z</time>
      </trkpt>
      <trkpt lat="44.96907" lon="-0.36997">
        <ele>27.7</ele>
        <time>2021-06-03T13:39:15.000Z</time>
      </trkpt>
      <trkpt lat="44.96903" lon="-0.37008">
        <ele>27.8</ele>
        <time>2021-06-03T13:39:17.000Z</time>
      </trkpt>
      <trkpt lat="44.969" lon="-0.37018">
        <ele>27.5</ele>
        <time>2021-06-03T13:39:19.000Z</time>
      </trkpt>
      <trkpt lat="44.96896" lon="-0.37029">
        <ele>27.4</ele>
        <time>2021-06-03T13:39:21.000Z</time>
      </trkpt>
      <trkpt lat="44.96893" lon="-0.37039">
        <ele>27.6</ele>
        <time>2021-06-03T13:39:23.000Z</time>
      </trkpt>
      <trkpt lat="44.96889" lon="-0.37049">
        <ele>28</ele>
        <time>2021-06-03T13:39:25.000Z</time>
      </trkpt>
      <trkpt lat="44.96886" lon="-0.37059">
        <ele>28.4</ele>
        <time>2021-06-03T13:39:27.000Z</time>
      </trkpt>
      <trkpt lat="44.96883" lon="-0.3707">
        <ele>28.7</ele>
        <time>2021-06-03T13:39:29.000Z</time>
      </trkpt>
      <trkpt lat="44.9688" lon="-0.37081">
        <ele>28.8</ele>
        <time>2021-06-03T13:39:31.000Z</time>
      </trkpt>
      <trkpt lat="44.96877" lon="-0.37091">
        <ele>28.9</ele>
        <time>2021-06-03T13:39:33.000Z</time>
      </trkpt>
      <trkpt lat="44.9687" lon="-0.37121">
        <ele>28</ele>
        <time>2021-06-03T13:39:38.000Z</time>
      </trkpt>
      <trkpt lat="44.96859" lon="-0.37168">
        <ele>28</ele>
        <time>2021-06-03T13:39:46.000Z</time>
      </trkpt>
      <trkpt lat="44.96854" lon="-0.37189">
        <ele>28.3</ele>
        <time>2021-06-03T13:39:50.000Z</time>
      </trkpt>
      <trkpt lat="44.96852" lon="-0.37196">
        <ele>28.6</ele>
        <time>2021-06-03T13:39:51.000Z</time>
      </trkpt>
      <trkpt lat="44.96849" lon="-0.37207">
        <ele>29.1</ele>
        <time>2021-06-03T13:39:53.000Z</time>
      </trkpt>
      <trkpt lat="44.96847" lon="-0.37217">
        <ele>29.5</ele>
        <time>2021-06-03T13:39:55.000Z</time>
      </trkpt>
      <trkpt lat="44.96843" lon="-0.37226">
        <ele>29.7</ele>
        <time>2021-06-03T13:39:57.000Z</time>
      </trkpt>
      <trkpt lat="44.9684" lon="-0.37231">
        <ele>29.7</ele>
        <time>2021-06-03T13:39:58.000Z</time>
      </trkpt>
      <trkpt lat="44.96836" lon="-0.37235">
        <ele>29.7</ele>
        <time>2021-06-03T13:39:59.000Z</time>
      </trkpt>
      <trkpt lat="44.96832" lon="-0.37238">
        <ele>29.6</ele>
        <time>2021-06-03T13:40:00.000Z</time>
      </trkpt>
      <trkpt lat="44.96827" lon="-0.37241">
        <ele>29.5</ele>
        <time>2021-06-03T13:40:01.000Z</time>
      </trkpt>
      <trkpt lat="44.96823" lon="-0.37242">
        <ele>29.5</ele>
        <time>2021-06-03T13:40:02.000Z</time>
      </trkpt>
      <trkpt lat="44.96818" lon="-0.37243">
        <ele>29.4</ele>
        <time>2021-06-03T13:40:03.000Z</time>
      </trkpt>
      <trkpt lat="44.96814" lon="-0.37244">
        <ele>29.4</ele>
        <time>2021-06-03T13:40:04.000Z</time>
      </trkpt>
      <trkpt lat="44.96809" lon="-0.37243">
        <ele>29.2</ele>
        <time>2021-06-03T13:40:05.000Z</time>
      </trkpt>
      <trkpt lat="44.96805" lon="-0.37243">
        <ele>29.2</ele>
        <time>2021-06-03T13:40:06.000Z</time>
      </trkpt>
      <trkpt lat="44.968" lon="-0.37242">
        <ele>29.1</ele>
        <time>2021-06-03T13:40:07.000Z</time>
      </trkpt>
      <trkpt lat="44.96796" lon="-0.37242">
        <ele>29.2</ele>
        <time>2021-06-03T13:40:08.000Z</time>
      </trkpt>
      <trkpt lat="44.96787" lon="-0.37241">
        <ele>29.3</ele>
        <time>2021-06-03T13:40:10.000Z</time>
      </trkpt>
      <trkpt lat="44.96782" lon="-0.37241">
        <ele>29.4</ele>
        <time>2021-06-03T13:40:11.000Z</time>
      </trkpt>
      <trkpt lat="44.96778" lon="-0.3724">
        <ele>29.7</ele>
        <time>2021-06-03T13:40:12.000Z</time>
      </trkpt>
      <trkpt lat="44.96769" lon="-0.37239">
        <ele>30</ele>
        <time>2021-06-03T13:40:14.000Z</time>
      </trkpt>
      <trkpt lat="44.96761" lon="-0.37237">
        <ele>29.6</ele>
        <time>2021-06-03T13:40:16.000Z</time>
      </trkpt>
      <trkpt lat="44.96752" lon="-0.37236">
        <ele>29.2</ele>
        <time>2021-06-03T13:40:18.000Z</time>
      </trkpt>
      <trkpt lat="44.96744" lon="-0.37238">
        <ele>29</ele>
        <time>2021-06-03T13:40:20.000Z</time>
      </trkpt>
      <trkpt lat="44.96736" lon="-0.37245">
        <ele>28.9</ele>
        <time>2021-06-03T13:40:22.000Z</time>
      </trkpt>
      <trkpt lat="44.96733" lon="-0.37257">
        <ele>28.4</ele>
        <time>2021-06-03T13:40:24.000Z</time>
      </trkpt>
      <trkpt lat="44.9673" lon="-0.37268">
        <ele>27.9</ele>
        <time>2021-06-03T13:40:26.000Z</time>
      </trkpt>
      <trkpt lat="44.96727" lon="-0.3728">
        <ele>28.8</ele>
        <time>2021-06-03T13:40:28.000Z</time>
      </trkpt>
      <trkpt lat="44.96724" lon="-0.37289">
        <ele>29.2</ele>
        <time>2021-06-03T13:40:30.000Z</time>
      </trkpt>
      <trkpt lat="44.96723" lon="-0.37298">
        <ele>28.8</ele>
        <time>2021-06-03T13:40:32.000Z</time>
      </trkpt>
      <trkpt lat="44.96721" lon="-0.37306">
        <ele>28.5</ele>
        <time>2021-06-03T13:40:34.000Z</time>
      </trkpt>
      <trkpt lat="44.96717" lon="-0.37317">
        <ele>28.1</ele>
        <time>2021-06-03T13:40:37.000Z</time>
      </trkpt>
      <trkpt lat="44.96714" lon="-0.37327">
        <ele>29.3</ele>
        <time>2021-06-03T13:40:47.000Z</time>
      </trkpt>
      <trkpt lat="44.96712" lon="-0.37337">
        <ele>29.3</ele>
        <time>2021-06-03T13:40:51.000Z</time>
      </trkpt>
      <trkpt lat="44.96711" lon="-0.37339">
        <ele>29.1</ele>
        <time>2021-06-03T13:40:52.000Z</time>
      </trkpt>
      <trkpt lat="44.96702" lon="-0.37354">
        <ele>30</ele>
        <time>2021-06-03T13:40:56.000Z</time>
      </trkpt>
      <trkpt lat="44.96698" lon="-0.37363">
        <ele>30</ele>
        <time>2021-06-03T13:40:58.000Z</time>
      </trkpt>
      <trkpt lat="44.96694" lon="-0.37373">
        <ele>29.7</ele>
        <time>2021-06-03T13:41:00.000Z</time>
      </trkpt>
      <trkpt lat="44.9669" lon="-0.37383">
        <ele>29.6</ele>
        <time>2021-06-03T13:41:02.000Z</time>
      </trkpt>
      <trkpt lat="44.96685" lon="-0.37393">
        <ele>29.7</ele>
        <time>2021-06-03T13:41:04.000Z</time>
      </trkpt>
      <trkpt lat="44.96681" lon="-0.37404">
        <ele>29.4</ele>
        <time>2021-06-03T13:41:06.000Z</time>
      </trkpt>
      <trkpt lat="44.96676" lon="-0.37414">
        <ele>29.9</ele>
        <time>2021-06-03T13:41:08.000Z</time>
      </trkpt>
      <trkpt lat="44.96672" lon="-0.37424">
        <ele>29.4</ele>
        <time>2021-06-03T13:41:10.000Z</time>
      </trkpt>
      <trkpt lat="44.96667" lon="-0.37434">
        <ele>29.6</ele>
        <time>2021-06-03T13:41:12.000Z</time>
      </trkpt>
      <trkpt lat="44.96663" lon="-0.37443">
        <ele>29.9</ele>
        <time>2021-06-03T13:41:14.000Z</time>
      </trkpt>
      <trkpt lat="44.9666" lon="-0.37453">
        <ele>29.9</ele>
        <time>2021-06-03T13:41:16.000Z</time>
      </trkpt>
      <trkpt lat="44.96656" lon="-0.37461">
        <ele>29.8</ele>
        <time>2021-06-03T13:41:18.000Z</time>
      </trkpt>
      <trkpt lat="44.96652" lon="-0.3747">
        <ele>30.1</ele>
        <time>2021-06-03T13:41:20.000Z</time>
      </trkpt>
      <trkpt lat="44.96647" lon="-0.37476">
        <ele>30.3</ele>
        <time>2021-06-03T13:41:22.000Z</time>
      </trkpt>
      <trkpt lat="44.9664" lon="-0.37484">
        <ele>30.1</ele>
        <time>2021-06-03T13:41:25.000Z</time>
      </trkpt>
      <trkpt lat="44.96636" lon="-0.37491">
        <ele>30.2</ele>
        <time>2021-06-03T13:41:27.000Z</time>
      </trkpt>
      <trkpt lat="44.96632" lon="-0.375">
        <ele>30.2</ele>
        <time>2021-06-03T13:41:29.000Z</time>
      </trkpt>
      <trkpt lat="44.9663" lon="-0.3751">
        <ele>30.3</ele>
        <time>2021-06-03T13:41:31.000Z</time>
      </trkpt>
      <trkpt lat="44.96628" lon="-0.3752">
        <ele>30.8</ele>
        <time>2021-06-03T13:41:33.000Z</time>
      </trkpt>
      <trkpt lat="44.96624" lon="-0.37527">
        <ele>31.4</ele>
        <time>2021-06-03T13:41:35.000Z</time>
      </trkpt>
      <trkpt lat="44.96617" lon="-0.37531">
        <ele>31.3</ele>
        <time>2021-06-03T13:41:37.000Z</time>
      </trkpt>
      <trkpt lat="44.9661" lon="-0.37533">
        <ele>31.3</ele>
        <time>2021-06-03T13:41:39.000Z</time>
      </trkpt>
      <trkpt lat="44.96604" lon="-0.37536">
        <ele>31.4</ele>
        <time>2021-06-03T13:41:41.000Z</time>
      </trkpt>
      <trkpt lat="44.96597" lon="-0.37539">
        <ele>31.5</ele>
        <time>2021-06-03T13:41:43.000Z</time>
      </trkpt>
      <trkpt lat="44.96591" lon="-0.37542">
        <ele>31.5</ele>
        <time>2021-06-03T13:41:45.000Z</time>
      </trkpt>
      <trkpt lat="44.96585" lon="-0.37544">
        <ele>31.4</ele>
        <time>2021-06-03T13:41:47.000Z</time>
      </trkpt>
      <trkpt lat="44.96579" lon="-0.37547">
        <ele>31.4</ele>
        <time>2021-06-03T13:41:49.000Z</time>
      </trkpt>
      <trkpt lat="44.96571" lon="-0.37552">
        <ele>31.5</ele>
        <time>2021-06-03T13:41:52.000Z</time>
      </trkpt>
      <trkpt lat="44.96568" lon="-0.37555">
        <ele>31.8</ele>
        <time>2021-06-03T13:41:53.000Z</time>
      </trkpt>
      <trkpt lat="44.96563" lon="-0.3757">
        <ele>31.8</ele>
        <time>2021-06-03T13:41:56.000Z</time>
      </trkpt>
      <trkpt lat="44.96561" lon="-0.37582">
        <ele>31.5</ele>
        <time>2021-06-03T13:41:58.000Z</time>
      </trkpt>
      <trkpt lat="44.9656" lon="-0.37588">
        <ele>31.2</ele>
        <time>2021-06-03T13:41:59.000Z</time>
      </trkpt>
      <trkpt lat="44.96559" lon="-0.37594">
        <ele>31</ele>
        <time>2021-06-03T13:42:00.000Z</time>
      </trkpt>
      <trkpt lat="44.96558" lon="-0.37601">
        <ele>30.9</ele>
        <time>2021-06-03T13:42:01.000Z</time>
      </trkpt>
      <trkpt lat="44.96557" lon="-0.37607">
        <ele>30.8</ele>
        <time>2021-06-03T13:42:02.000Z</time>
      </trkpt>
      <trkpt lat="44.96556" lon="-0.37614">
        <ele>30.8</ele>
        <time>2021-06-03T13:42:03.000Z</time>
      </trkpt>
      <trkpt lat="44.96555" lon="-0.37626">
        <ele>30.4</ele>
        <time>2021-06-03T13:42:05.000Z</time>
      </trkpt>
      <trkpt lat="44.96553" lon="-0.37638">
        <ele>30.7</ele>
        <time>2021-06-03T13:42:07.000Z</time>
      </trkpt>
      <trkpt lat="44.96552" lon="-0.37644">
        <ele>30.8</ele>
        <time>2021-06-03T13:42:08.000Z</time>
      </trkpt>
      <trkpt lat="44.96551" lon="-0.37651">
        <ele>30.6</ele>
        <time>2021-06-03T13:42:09.000Z</time>
      </trkpt>
      <trkpt lat="44.9655" lon="-0.37663">
        <ele>30.6</ele>
        <time>2021-06-03T13:42:11.000Z</time>
      </trkpt>
      <trkpt lat="44.96549" lon="-0.37676">
        <ele>30.5</ele>
        <time>2021-06-03T13:42:13.000Z</time>
      </trkpt>
      <trkpt lat="44.96548" lon="-0.37688">
        <ele>30.4</ele>
        <time>2021-06-03T13:42:15.000Z</time>
      </trkpt>
      <trkpt lat="44.96548" lon="-0.37701">
        <ele>30.3</ele>
        <time>2021-06-03T13:42:17.000Z</time>
      </trkpt>
      <trkpt lat="44.96547" lon="-0.37713">
        <ele>30.8</ele>
        <time>2021-06-03T13:42:19.000Z</time>
      </trkpt>
      <trkpt lat="44.96547" lon="-0.37725">
        <ele>30.9</ele>
        <time>2021-06-03T13:42:21.000Z</time>
      </trkpt>
      <trkpt lat="44.96547" lon="-0.37738">
        <ele>30.6</ele>
        <time>2021-06-03T13:42:23.000Z</time>
      </trkpt>
      <trkpt lat="44.96547" lon="-0.3775">
        <ele>30.4</ele>
        <time>2021-06-03T13:42:25.000Z</time>
      </trkpt>
      <trkpt lat="44.96548" lon="-0.37762">
        <ele>30.2</ele>
        <time>2021-06-03T13:42:27.000Z</time>
      </trkpt>
      <trkpt lat="44.96551" lon="-0.37775">
        <ele>30.2</ele>
        <time>2021-06-03T13:42:29.000Z</time>
      </trkpt>
      <trkpt lat="44.96551" lon="-0.37781">
        <ele>30.4</ele>
        <time>2021-06-03T13:42:30.000Z</time>
      </trkpt>
      <trkpt lat="44.96552" lon="-0.37788">
        <ele>30.6</ele>
        <time>2021-06-03T13:42:31.000Z</time>
      </trkpt>
      <trkpt lat="44.96554" lon="-0.37794">
        <ele>30.8</ele>
        <time>2021-06-03T13:42:32.000Z</time>
      </trkpt>
      <trkpt lat="44.96555" lon="-0.37801">
        <ele>31</ele>
        <time>2021-06-03T13:42:33.000Z</time>
      </trkpt>
      <trkpt lat="44.96557" lon="-0.37807">
        <ele>31.1</ele>
        <time>2021-06-03T13:42:34.000Z</time>
      </trkpt>
      <trkpt lat="44.96558" lon="-0.37813">
        <ele>31.3</ele>
        <time>2021-06-03T13:42:35.000Z</time>
      </trkpt>
      <trkpt lat="44.9656" lon="-0.3782">
        <ele>31.5</ele>
        <time>2021-06-03T13:42:36.000Z</time>
      </trkpt>
      <trkpt lat="44.96561" lon="-0.37827">
        <ele>31.3</ele>
        <time>2021-06-03T13:42:37.000Z</time>
      </trkpt>
      <trkpt lat="44.96562" lon="-0.37833">
        <ele>31.2</ele>
        <time>2021-06-03T13:42:38.000Z</time>
      </trkpt>
      <trkpt lat="44.96563" lon="-0.37839">
        <ele>31.1</ele>
        <time>2021-06-03T13:42:39.000Z</time>
      </trkpt>
      <trkpt lat="44.96565" lon="-0.37846">
        <ele>31.1</ele>
        <time>2021-06-03T13:42:40.000Z</time>
      </trkpt>
      <trkpt lat="44.96566" lon="-0.37852">
        <ele>31.1</ele>
        <time>2021-06-03T13:42:41.000Z</time>
      </trkpt>
      <trkpt lat="44.96567" lon="-0.37858">
        <ele>31.2</ele>
        <time>2021-06-03T13:42:42.000Z</time>
      </trkpt>
      <trkpt lat="44.96569" lon="-0.37865">
        <ele>31.2</ele>
        <time>2021-06-03T13:42:43.000Z</time>
      </trkpt>
      <trkpt lat="44.9657" lon="-0.37871">
        <ele>31.2</ele>
        <time>2021-06-03T13:42:44.000Z</time>
      </trkpt>
      <trkpt lat="44.96571" lon="-0.37878">
        <ele>31.2</ele>
        <time>2021-06-03T13:42:45.000Z</time>
      </trkpt>
      <trkpt lat="44.96573" lon="-0.37884">
        <ele>31.2</ele>
        <time>2021-06-03T13:42:46.000Z</time>
      </trkpt>
      <trkpt lat="44.96574" lon="-0.37891">
        <ele>31.3</ele>
        <time>2021-06-03T13:42:47.000Z</time>
      </trkpt>
      <trkpt lat="44.96575" lon="-0.37897">
        <ele>31.3</ele>
        <time>2021-06-03T13:42:48.000Z</time>
      </trkpt>
      <trkpt lat="44.96576" lon="-0.37904">
        <ele>31.5</ele>
        <time>2021-06-03T13:42:49.000Z</time>
      </trkpt>
      <trkpt lat="44.96578" lon="-0.3791">
        <ele>31.6</ele>
        <time>2021-06-03T13:42:50.000Z</time>
      </trkpt>
      <trkpt lat="44.96579" lon="-0.37916">
        <ele>31.8</ele>
        <time>2021-06-03T13:42:51.000Z</time>
      </trkpt>
      <trkpt lat="44.9658" lon="-0.37923">
        <ele>31.9</ele>
        <time>2021-06-03T13:42:52.000Z</time>
      </trkpt>
      <trkpt lat="44.96582" lon="-0.37929">
        <ele>31.9</ele>
        <time>2021-06-03T13:42:53.000Z</time>
      </trkpt>
      <trkpt lat="44.96583" lon="-0.37935">
        <ele>32</ele>
        <time>2021-06-03T13:42:54.000Z</time>
      </trkpt>
      <trkpt lat="44.96584" lon="-0.37942">
        <ele>32</ele>
        <time>2021-06-03T13:42:55.000Z</time>
      </trkpt>
      <trkpt lat="44.96585" lon="-0.37948">
        <ele>32.2</ele>
        <time>2021-06-03T13:42:56.000Z</time>
      </trkpt>
      <trkpt lat="44.96586" lon="-0.37955">
        <ele>32.3</ele>
        <time>2021-06-03T13:42:57.000Z</time>
      </trkpt>
      <trkpt lat="44.96587" lon="-0.37961">
        <ele>32.4</ele>
        <time>2021-06-03T13:42:58.000Z</time>
      </trkpt>
      <trkpt lat="44.96588" lon="-0.37968">
        <ele>32.6</ele>
        <time>2021-06-03T13:42:59.000Z</time>
      </trkpt>
      <trkpt lat="44.9659" lon="-0.37974">
        <ele>32.8</ele>
        <time>2021-06-03T13:43:00.000Z</time>
      </trkpt>
      <trkpt lat="44.96591" lon="-0.3798">
        <ele>33.1</ele>
        <time>2021-06-03T13:43:01.000Z</time>
      </trkpt>
      <trkpt lat="44.96593" lon="-0.37992">
        <ele>33.2</ele>
        <time>2021-06-03T13:43:03.000Z</time>
      </trkpt>
      <trkpt lat="44.96595" lon="-0.38004">
        <ele>33.1</ele>
        <time>2021-06-03T13:43:05.000Z</time>
      </trkpt>
      <trkpt lat="44.96597" lon="-0.38017">
        <ele>33.4</ele>
        <time>2021-06-03T13:43:07.000Z</time>
      </trkpt>
      <trkpt lat="44.96598" lon="-0.38023">
        <ele>33.4</ele>
        <time>2021-06-03T13:43:08.000Z</time>
      </trkpt>
      <trkpt lat="44.96599" lon="-0.38029">
        <ele>33.4</ele>
        <time>2021-06-03T13:43:09.000Z</time>
      </trkpt>
      <trkpt lat="44.966" lon="-0.38036">
        <ele>33.5</ele>
        <time>2021-06-03T13:43:10.000Z</time>
      </trkpt>
      <trkpt lat="44.96601" lon="-0.38042">
        <ele>33.6</ele>
        <time>2021-06-03T13:43:11.000Z</time>
      </trkpt>
      <trkpt lat="44.96602" lon="-0.38049">
        <ele>33.6</ele>
        <time>2021-06-03T13:43:12.000Z</time>
      </trkpt>
      <trkpt lat="44.96603" lon="-0.38055">
        <ele>33.8</ele>
        <time>2021-06-03T13:43:13.000Z</time>
      </trkpt>
      <trkpt lat="44.96604" lon="-0.38061">
        <ele>34</ele>
        <time>2021-06-03T13:43:14.000Z</time>
      </trkpt>
      <trkpt lat="44.96606" lon="-0.38074">
        <ele>33.9</ele>
        <time>2021-06-03T13:43:16.000Z</time>
      </trkpt>
      <trkpt lat="44.96608" lon="-0.38085">
        <ele>33.7</ele>
        <time>2021-06-03T13:43:18.000Z</time>
      </trkpt>
      <trkpt lat="44.96609" lon="-0.38091">
        <ele>33.6</ele>
        <time>2021-06-03T13:43:19.000Z</time>
      </trkpt>
      <trkpt lat="44.9661" lon="-0.38098">
        <ele>33.8</ele>
        <time>2021-06-03T13:43:20.000Z</time>
      </trkpt>
      <trkpt lat="44.9661" lon="-0.38104">
        <ele>33.9</ele>
        <time>2021-06-03T13:43:21.000Z</time>
      </trkpt>
      <trkpt lat="44.96611" lon="-0.38111">
        <ele>34.2</ele>
        <time>2021-06-03T13:43:22.000Z</time>
      </trkpt>
      <trkpt lat="44.96613" lon="-0.38117">
        <ele>34.3</ele>
        <time>2021-06-03T13:43:23.000Z</time>
      </trkpt>
      <trkpt lat="44.96614" lon="-0.38124">
        <ele>34.5</ele>
        <time>2021-06-03T13:43:24.000Z</time>
      </trkpt>
      <trkpt lat="44.96616" lon="-0.38132">
        <ele>34.7</ele>
        <time>2021-06-03T13:43:25.000Z</time>
      </trkpt>
      <trkpt lat="44.96618" lon="-0.38139">
        <ele>34.8</ele>
        <time>2021-06-03T13:43:26.000Z</time>
      </trkpt>
      <trkpt lat="44.9662" lon="-0.38146">
        <ele>35</ele>
        <time>2021-06-03T13:43:27.000Z</time>
      </trkpt>
      <trkpt lat="44.96621" lon="-0.38153">
        <ele>35.1</ele>
        <time>2021-06-03T13:43:28.000Z</time>
      </trkpt>
      <trkpt lat="44.96623" lon="-0.38159">
        <ele>35.4</ele>
        <time>2021-06-03T13:43:29.000Z</time>
      </trkpt>
      <trkpt lat="44.96624" lon="-0.38166">
        <ele>35.6</ele>
        <time>2021-06-03T13:43:30.000Z</time>
      </trkpt>
      <trkpt lat="44.96626" lon="-0.38172">
        <ele>35.8</ele>
        <time>2021-06-03T13:43:31.000Z</time>
      </trkpt>
      <trkpt lat="44.96627" lon="-0.38179">
        <ele>35.8</ele>
        <time>2021-06-03T13:43:32.000Z</time>
      </trkpt>
      <trkpt lat="44.96629" lon="-0.38185">
        <ele>35.9</ele>
        <time>2021-06-03T13:43:33.000Z</time>
      </trkpt>
      <trkpt lat="44.9663" lon="-0.38192">
        <ele>36</ele>
        <time>2021-06-03T13:43:34.000Z</time>
      </trkpt>
      <trkpt lat="44.96633" lon="-0.38204">
        <ele>36.1</ele>
        <time>2021-06-03T13:43:36.000Z</time>
      </trkpt>
      <trkpt lat="44.96636" lon="-0.38215">
        <ele>36.2</ele>
        <time>2021-06-03T13:43:38.000Z</time>
      </trkpt>
      <trkpt lat="44.96638" lon="-0.38226">
        <ele>36.6</ele>
        <time>2021-06-03T13:43:40.000Z</time>
      </trkpt>
      <trkpt lat="44.9664" lon="-0.38237">
        <ele>36.6</ele>
        <time>2021-06-03T13:43:42.000Z</time>
      </trkpt>
      <trkpt lat="44.96643" lon="-0.38248">
        <ele>36.7</ele>
        <time>2021-06-03T13:43:44.000Z</time>
      </trkpt>
      <trkpt lat="44.96645" lon="-0.38258">
        <ele>37.1</ele>
        <time>2021-06-03T13:43:46.000Z</time>
      </trkpt>
      <trkpt lat="44.96647" lon="-0.38268">
        <ele>37.5</ele>
        <time>2021-06-03T13:43:48.000Z</time>
      </trkpt>
      <trkpt lat="44.96649" lon="-0.38279">
        <ele>37.8</ele>
        <time>2021-06-03T13:43:50.000Z</time>
      </trkpt>
      <trkpt lat="44.9665" lon="-0.38289">
        <ele>37.9</ele>
        <time>2021-06-03T13:43:52.000Z</time>
      </trkpt>
      <trkpt lat="44.96652" lon="-0.38299">
        <ele>37.9</ele>
        <time>2021-06-03T13:43:54.000Z</time>
      </trkpt>
      <trkpt lat="44.96653" lon="-0.38304">
        <ele>38.1</ele>
        <time>2021-06-03T13:43:55.000Z</time>
      </trkpt>
      <trkpt lat="44.96656" lon="-0.38318">
        <ele>38.6</ele>
        <time>2021-06-03T13:43:58.000Z</time>
      </trkpt>
      <trkpt lat="44.96658" lon="-0.38328">
        <ele>38.7</ele>
        <time>2021-06-03T13:44:00.000Z</time>
      </trkpt>
      <trkpt lat="44.96661" lon="-0.38338">
        <ele>38.6</ele>
        <time>2021-06-03T13:44:02.000Z</time>
      </trkpt>
      <trkpt lat="44.96664" lon="-0.38347">
        <ele>38.3</ele>
        <time>2021-06-03T13:44:04.000Z</time>
      </trkpt>
      <trkpt lat="44.96666" lon="-0.38356">
        <ele>38.7</ele>
        <time>2021-06-03T13:44:06.000Z</time>
      </trkpt>
      <trkpt lat="44.96669" lon="-0.38365">
        <ele>39.4</ele>
        <time>2021-06-03T13:44:08.000Z</time>
      </trkpt>
      <trkpt lat="44.96672" lon="-0.38375">
        <ele>39.6</ele>
        <time>2021-06-03T13:44:10.000Z</time>
      </trkpt>
      <trkpt lat="44.96675" lon="-0.38384">
        <ele>39.8</ele>
        <time>2021-06-03T13:44:12.000Z</time>
      </trkpt>
      <trkpt lat="44.96677" lon="-0.38394">
        <ele>40.1</ele>
        <time>2021-06-03T13:44:14.000Z</time>
      </trkpt>
      <trkpt lat="44.9668" lon="-0.38404">
        <ele>40.3</ele>
        <time>2021-06-03T13:44:16.000Z</time>
      </trkpt>
      <trkpt lat="44.96682" lon="-0.38414">
        <ele>40</ele>
        <time>2021-06-03T13:44:18.000Z</time>
      </trkpt>
      <trkpt lat="44.96684" lon="-0.38424">
        <ele>40.2</ele>
        <time>2021-06-03T13:44:20.000Z</time>
      </trkpt>
      <trkpt lat="44.96685" lon="-0.38433">
        <ele>40.3</ele>
        <time>2021-06-03T13:44:22.000Z</time>
      </trkpt>
      <trkpt lat="44.96686" lon="-0.38443">
        <ele>40.4</ele>
        <time>2021-06-03T13:44:24.000Z</time>
      </trkpt>
      <trkpt lat="44.96687" lon="-0.38453">
        <ele>40.5</ele>
        <time>2021-06-03T13:44:26.000Z</time>
      </trkpt>
      <trkpt lat="44.96689" lon="-0.38462">
        <ele>40.5</ele>
        <time>2021-06-03T13:44:28.000Z</time>
      </trkpt>
      <trkpt lat="44.9669" lon="-0.38472">
        <ele>40.8</ele>
        <time>2021-06-03T13:44:30.000Z</time>
      </trkpt>
      <trkpt lat="44.96691" lon="-0.38482">
        <ele>40.9</ele>
        <time>2021-06-03T13:44:32.000Z</time>
      </trkpt>
      <trkpt lat="44.96692" lon="-0.38492">
        <ele>40.8</ele>
        <time>2021-06-03T13:44:34.000Z</time>
      </trkpt>
      <trkpt lat="44.96693" lon="-0.38502">
        <ele>41</ele>
        <time>2021-06-03T13:44:36.000Z</time>
      </trkpt>
      <trkpt lat="44.96695" lon="-0.38512">
        <ele>41.2</ele>
        <time>2021-06-03T13:44:38.000Z</time>
      </trkpt>
      <trkpt lat="44.96696" lon="-0.38522">
        <ele>41.1</ele>
        <time>2021-06-03T13:44:40.000Z</time>
      </trkpt>
      <trkpt lat="44.96697" lon="-0.38532">
        <ele>41.3</ele>
        <time>2021-06-03T13:44:42.000Z</time>
      </trkpt>
      <trkpt lat="44.96699" lon="-0.38543">
        <ele>41</ele>
        <time>2021-06-03T13:44:44.000Z</time>
      </trkpt>
      <trkpt lat="44.967" lon="-0.38553">
        <ele>40.7</ele>
        <time>2021-06-03T13:44:46.000Z</time>
      </trkpt>
      <trkpt lat="44.967" lon="-0.38562">
        <ele>41</ele>
        <time>2021-06-03T13:44:48.000Z</time>
      </trkpt>
      <trkpt lat="44.96701" lon="-0.38573">
        <ele>41.1</ele>
        <time>2021-06-03T13:44:50.000Z</time>
      </trkpt>
      <trkpt lat="44.96701" lon="-0.38583">
        <ele>41.2</ele>
        <time>2021-06-03T13:44:52.000Z</time>
      </trkpt>
      <trkpt lat="44.96701" lon="-0.38593">
        <ele>41.3</ele>
        <time>2021-06-03T13:44:54.000Z</time>
      </trkpt>
      <trkpt lat="44.96701" lon="-0.38602">
        <ele>41.7</ele>
        <time>2021-06-03T13:44:56.000Z</time>
      </trkpt>
      <trkpt lat="44.96701" lon="-0.38607">
        <ele>41.3</ele>
        <time>2021-06-03T13:44:57.000Z</time>
      </trkpt>
      <trkpt lat="44.96701" lon="-0.38622">
        <ele>41.4</ele>
        <time>2021-06-03T13:45:00.000Z</time>
      </trkpt>
      <trkpt lat="44.96701" lon="-0.38631">
        <ele>41.9</ele>
        <time>2021-06-03T13:45:02.000Z</time>
      </trkpt>
      <trkpt lat="44.96701" lon="-0.38641">
        <ele>42.1</ele>
        <time>2021-06-03T13:45:04.000Z</time>
      </trkpt>
      <trkpt lat="44.96701" lon="-0.3865">
        <ele>42.3</ele>
        <time>2021-06-03T13:45:06.000Z</time>
      </trkpt>
      <trkpt lat="44.967" lon="-0.38659">
        <ele>42.9</ele>
        <time>2021-06-03T13:45:08.000Z</time>
      </trkpt>
      <trkpt lat="44.967" lon="-0.38668">
        <ele>43.8</ele>
        <time>2021-06-03T13:45:10.000Z</time>
      </trkpt>
      <trkpt lat="44.967" lon="-0.38677">
        <ele>43.7</ele>
        <time>2021-06-03T13:45:12.000Z</time>
      </trkpt>
      <trkpt lat="44.96701" lon="-0.38686">
        <ele>43.7</ele>
        <time>2021-06-03T13:45:14.000Z</time>
      </trkpt>
      <trkpt lat="44.96699" lon="-0.38696">
        <ele>43.4</ele>
        <time>2021-06-03T13:45:16.000Z</time>
      </trkpt>
      <trkpt lat="44.96695" lon="-0.38704">
        <ele>43.4</ele>
        <time>2021-06-03T13:45:18.000Z</time>
      </trkpt>
      <trkpt lat="44.96689" lon="-0.38709">
        <ele>43.7</ele>
        <time>2021-06-03T13:45:20.000Z</time>
      </trkpt>
      <trkpt lat="44.96682" lon="-0.38714">
        <ele>43.9</ele>
        <time>2021-06-03T13:45:22.000Z</time>
      </trkpt>
      <trkpt lat="44.96676" lon="-0.38719">
        <ele>43.9</ele>
        <time>2021-06-03T13:45:24.000Z</time>
      </trkpt>
      <trkpt lat="44.9667" lon="-0.38725">
        <ele>44</ele>
        <time>2021-06-03T13:45:26.000Z</time>
      </trkpt>
      <trkpt lat="44.96665" lon="-0.38731">
        <ele>44.4</ele>
        <time>2021-06-03T13:45:28.000Z</time>
      </trkpt>
      <trkpt lat="44.96659" lon="-0.38737">
        <ele>44.7</ele>
        <time>2021-06-03T13:45:30.000Z</time>
      </trkpt>
      <trkpt lat="44.96654" lon="-0.38744">
        <ele>45</ele>
        <time>2021-06-03T13:45:32.000Z</time>
      </trkpt>
      <trkpt lat="44.9665" lon="-0.38751">
        <ele>45.3</ele>
        <time>2021-06-03T13:45:34.000Z</time>
      </trkpt>
      <trkpt lat="44.96645" lon="-0.38758">
        <ele>45.3</ele>
        <time>2021-06-03T13:45:36.000Z</time>
      </trkpt>
      <trkpt lat="44.9664" lon="-0.38766">
        <ele>45.5</ele>
        <time>2021-06-03T13:45:38.000Z</time>
      </trkpt>
      <trkpt lat="44.96636" lon="-0.38773">
        <ele>45.5</ele>
        <time>2021-06-03T13:45:40.000Z</time>
      </trkpt>
      <trkpt lat="44.96632" lon="-0.38781">
        <ele>45.6</ele>
        <time>2021-06-03T13:45:42.000Z</time>
      </trkpt>
      <trkpt lat="44.96627" lon="-0.38789">
        <ele>45.9</ele>
        <time>2021-06-03T13:45:44.000Z</time>
      </trkpt>
      <trkpt lat="44.96623" lon="-0.38797">
        <ele>46.5</ele>
        <time>2021-06-03T13:45:46.000Z</time>
      </trkpt>
      <trkpt lat="44.96619" lon="-0.38805">
        <ele>46.3</ele>
        <time>2021-06-03T13:45:48.000Z</time>
      </trkpt>
      <trkpt lat="44.96616" lon="-0.38813">
        <ele>46.8</ele>
        <time>2021-06-03T13:45:50.000Z</time>
      </trkpt>
      <trkpt lat="44.96613" lon="-0.38821">
        <ele>47.2</ele>
        <time>2021-06-03T13:45:52.000Z</time>
      </trkpt>
      <trkpt lat="44.9661" lon="-0.3883">
        <ele>47.4</ele>
        <time>2021-06-03T13:45:54.000Z</time>
      </trkpt>
      <trkpt lat="44.96608" lon="-0.38839">
        <ele>46.9</ele>
        <time>2021-06-03T13:45:56.000Z</time>
      </trkpt>
      <trkpt lat="44.96606" lon="-0.38849">
        <ele>46.3</ele>
        <time>2021-06-03T13:45:58.000Z</time>
      </trkpt>
      <trkpt lat="44.96605" lon="-0.38854">
        <ele>47</ele>
        <time>2021-06-03T13:45:59.000Z</time>
      </trkpt>
      <trkpt lat="44.96603" lon="-0.38868">
        <ele>47.7</ele>
        <time>2021-06-03T13:46:02.000Z</time>
      </trkpt>
      <trkpt lat="44.96601" lon="-0.38878">
        <ele>47.9</ele>
        <time>2021-06-03T13:46:04.000Z</time>
      </trkpt>
      <trkpt lat="44.96599" lon="-0.38887">
        <ele>47.8</ele>
        <time>2021-06-03T13:46:06.000Z</time>
      </trkpt>
      <trkpt lat="44.96597" lon="-0.38896">
        <ele>47.4</ele>
        <time>2021-06-03T13:46:08.000Z</time>
      </trkpt>
      <trkpt lat="44.96595" lon="-0.38905">
        <ele>46.8</ele>
        <time>2021-06-03T13:46:10.000Z</time>
      </trkpt>
      <trkpt lat="44.96592" lon="-0.38914">
        <ele>46.9</ele>
        <time>2021-06-03T13:46:12.000Z</time>
      </trkpt>
      <trkpt lat="44.96589" lon="-0.38923">
        <ele>47</ele>
        <time>2021-06-03T13:46:14.000Z</time>
      </trkpt>
      <trkpt lat="44.96584" lon="-0.38931">
        <ele>46.8</ele>
        <time>2021-06-03T13:46:16.000Z</time>
      </trkpt>
      <trkpt lat="44.96579" lon="-0.38939">
        <ele>46.7</ele>
        <time>2021-06-03T13:46:18.000Z</time>
      </trkpt>
      <trkpt lat="44.96572" lon="-0.38946">
        <ele>46.7</ele>
        <time>2021-06-03T13:46:20.000Z</time>
      </trkpt>
      <trkpt lat="44.96565" lon="-0.38952">
        <ele>46.7</ele>
        <time>2021-06-03T13:46:22.000Z</time>
      </trkpt>
      <trkpt lat="44.96562" lon="-0.38955">
        <ele>46.4</ele>
        <time>2021-06-03T13:46:23.000Z</time>
      </trkpt>
      <trkpt lat="44.96558" lon="-0.38959">
        <ele>46.1</ele>
        <time>2021-06-03T13:46:24.000Z</time>
      </trkpt>
      <trkpt lat="44.96553" lon="-0.38962">
        <ele>46.2</ele>
        <time>2021-06-03T13:46:25.000Z</time>
      </trkpt>
      <trkpt lat="44.96549" lon="-0.38966">
        <ele>46.3</ele>
        <time>2021-06-03T13:46:26.000Z</time>
      </trkpt>
      <trkpt lat="44.96544" lon="-0.38969">
        <ele>46.1</ele>
        <time>2021-06-03T13:46:27.000Z</time>
      </trkpt>
      <trkpt lat="44.9654" lon="-0.38972">
        <ele>46</ele>
        <time>2021-06-03T13:46:28.000Z</time>
      </trkpt>
      <trkpt lat="44.96535" lon="-0.38975">
        <ele>45.9</ele>
        <time>2021-06-03T13:46:29.000Z</time>
      </trkpt>
      <trkpt lat="44.9653" lon="-0.38977">
        <ele>45.6</ele>
        <time>2021-06-03T13:46:30.000Z</time>
      </trkpt>
      <trkpt lat="44.96525" lon="-0.3898">
        <ele>45.3</ele>
        <time>2021-06-03T13:46:31.000Z</time>
      </trkpt>
      <trkpt lat="44.9652" lon="-0.38982">
        <ele>45</ele>
        <time>2021-06-03T13:46:32.000Z</time>
      </trkpt>
      <trkpt lat="44.96515" lon="-0.38984">
        <ele>44.8</ele>
        <time>2021-06-03T13:46:33.000Z</time>
      </trkpt>
      <trkpt lat="44.96509" lon="-0.38987">
        <ele>44.7</ele>
        <time>2021-06-03T13:46:34.000Z</time>
      </trkpt>
      <trkpt lat="44.96504" lon="-0.38989">
        <ele>44.7</ele>
        <time>2021-06-03T13:46:35.000Z</time>
      </trkpt>
      <trkpt lat="44.96498" lon="-0.38991">
        <ele>44.6</ele>
        <time>2021-06-03T13:46:36.000Z</time>
      </trkpt>
      <trkpt lat="44.96492" lon="-0.38993">
        <ele>44.3</ele>
        <time>2021-06-03T13:46:37.000Z</time>
      </trkpt>
      <trkpt lat="44.96486" lon="-0.38994">
        <ele>44</ele>
        <time>2021-06-03T13:46:38.000Z</time>
      </trkpt>
      <trkpt lat="44.96479" lon="-0.38995">
        <ele>43.5</ele>
        <time>2021-06-03T13:46:39.000Z</time>
      </trkpt>
      <trkpt lat="44.96473" lon="-0.38996">
        <ele>43.2</ele>
        <time>2021-06-03T13:46:40.000Z</time>
      </trkpt>
      <trkpt lat="44.96468" lon="-0.38997">
        <ele>42.9</ele>
        <time>2021-06-03T13:46:41.000Z</time>
      </trkpt>
      <trkpt lat="44.96462" lon="-0.38997">
        <ele>42.7</ele>
        <time>2021-06-03T13:46:42.000Z</time>
      </trkpt>
      <trkpt lat="44.96456" lon="-0.38996">
        <ele>42.6</ele>
        <time>2021-06-03T13:46:43.000Z</time>
      </trkpt>
      <trkpt lat="44.96451" lon="-0.38996">
        <ele>42.6</ele>
        <time>2021-06-03T13:46:44.000Z</time>
      </trkpt>
      <trkpt lat="44.96445" lon="-0.38995">
        <ele>42.6</ele>
        <time>2021-06-03T13:46:45.000Z</time>
      </trkpt>
      <trkpt lat="44.96439" lon="-0.38995">
        <ele>42.3</ele>
        <time>2021-06-03T13:46:46.000Z</time>
      </trkpt>
      <trkpt lat="44.96434" lon="-0.38994">
        <ele>42</ele>
        <time>2021-06-03T13:46:47.000Z</time>
      </trkpt>
      <trkpt lat="44.96428" lon="-0.38993">
        <ele>41.8</ele>
        <time>2021-06-03T13:46:48.000Z</time>
      </trkpt>
      <trkpt lat="44.96423" lon="-0.38993">
        <ele>41.7</ele>
        <time>2021-06-03T13:46:49.000Z</time>
      </trkpt>
      <trkpt lat="44.96418" lon="-0.38992">
        <ele>41.7</ele>
        <time>2021-06-03T13:46:50.000Z</time>
      </trkpt>
      <trkpt lat="44.96414" lon="-0.38991">
        <ele>41.2</ele>
        <time>2021-06-03T13:46:51.000Z</time>
      </trkpt>
      <trkpt lat="44.96406" lon="-0.38996">
        <ele>40.9</ele>
        <time>2021-06-03T13:46:53.000Z</time>
      </trkpt>
      <trkpt lat="44.96403" lon="-0.39001">
        <ele>40.9</ele>
        <time>2021-06-03T13:46:54.000Z</time>
      </trkpt>
      <trkpt lat="44.96402" lon="-0.39008">
        <ele>40.9</ele>
        <time>2021-06-03T13:46:55.000Z</time>
      </trkpt>
      <trkpt lat="44.96401" lon="-0.39015">
        <ele>40.6</ele>
        <time>2021-06-03T13:46:56.000Z</time>
      </trkpt>
      <trkpt lat="44.96401" lon="-0.39023">
        <ele>40.4</ele>
        <time>2021-06-03T13:46:57.000Z</time>
      </trkpt>
      <trkpt lat="44.96401" lon="-0.3903">
        <ele>40.4</ele>
        <time>2021-06-03T13:46:58.000Z</time>
      </trkpt>
      <trkpt lat="44.96401" lon="-0.39038">
        <ele>40.4</ele>
        <time>2021-06-03T13:46:59.000Z</time>
      </trkpt>
      <trkpt lat="44.964" lon="-0.39045">
        <ele>40.4</ele>
        <time>2021-06-03T13:47:00.000Z</time>
      </trkpt>
      <trkpt lat="44.964" lon="-0.39052">
        <ele>40.2</ele>
        <time>2021-06-03T13:47:01.000Z</time>
      </trkpt>
      <trkpt lat="44.96399" lon="-0.3906">
        <ele>40</ele>
        <time>2021-06-03T13:47:02.000Z</time>
      </trkpt>
      <trkpt lat="44.96399" lon="-0.39067">
        <ele>39.8</ele>
        <time>2021-06-03T13:47:03.000Z</time>
      </trkpt>
      <trkpt lat="44.96398" lon="-0.39075">
        <ele>39.7</ele>
        <time>2021-06-03T13:47:04.000Z</time>
      </trkpt>
      <trkpt lat="44.96398" lon="-0.39083">
        <ele>39.5</ele>
        <time>2021-06-03T13:47:05.000Z</time>
      </trkpt>
      <trkpt lat="44.96397" lon="-0.39092">
        <ele>39.3</ele>
        <time>2021-06-03T13:47:06.000Z</time>
      </trkpt>
      <trkpt lat="44.96397" lon="-0.391">
        <ele>39.2</ele>
        <time>2021-06-03T13:47:07.000Z</time>
      </trkpt>
      <trkpt lat="44.96396" lon="-0.39109">
        <ele>38.8</ele>
        <time>2021-06-03T13:47:08.000Z</time>
      </trkpt>
      <trkpt lat="44.96396" lon="-0.39117">
        <ele>38.6</ele>
        <time>2021-06-03T13:47:09.000Z</time>
      </trkpt>
      <trkpt lat="44.96395" lon="-0.39126">
        <ele>38.7</ele>
        <time>2021-06-03T13:47:10.000Z</time>
      </trkpt>
      <trkpt lat="44.96395" lon="-0.39134">
        <ele>38.8</ele>
        <time>2021-06-03T13:47:11.000Z</time>
      </trkpt>
      <trkpt lat="44.96395" lon="-0.39142">
        <ele>38.7</ele>
        <time>2021-06-03T13:47:12.000Z</time>
      </trkpt>
      <trkpt lat="44.96395" lon="-0.3915">
        <ele>38.6</ele>
        <time>2021-06-03T13:47:13.000Z</time>
      </trkpt>
      <trkpt lat="44.96394" lon="-0.39158">
        <ele>38.5</ele>
        <time>2021-06-03T13:47:14.000Z</time>
      </trkpt>
      <trkpt lat="44.96393" lon="-0.39165">
        <ele>38.7</ele>
        <time>2021-06-03T13:47:15.000Z</time>
      </trkpt>
      <trkpt lat="44.96393" lon="-0.39172">
        <ele>38.9</ele>
        <time>2021-06-03T13:47:16.000Z</time>
      </trkpt>
      <trkpt lat="44.96391" lon="-0.39184">
        <ele>39.1</ele>
        <time>2021-06-03T13:47:18.000Z</time>
      </trkpt>
      <trkpt lat="44.96388" lon="-0.39195">
        <ele>39.2</ele>
        <time>2021-06-03T13:47:20.000Z</time>
      </trkpt>
      <trkpt lat="44.96386" lon="-0.39207">
        <ele>39.4</ele>
        <time>2021-06-03T13:47:22.000Z</time>
      </trkpt>
      <trkpt lat="44.96386" lon="-0.3922">
        <ele>39.5</ele>
        <time>2021-06-03T13:47:24.000Z</time>
      </trkpt>
      <trkpt lat="44.96386" lon="-0.39232">
        <ele>39.4</ele>
        <time>2021-06-03T13:47:26.000Z</time>
      </trkpt>
      <trkpt lat="44.96387" lon="-0.39239">
        <ele>39.3</ele>
        <time>2021-06-03T13:47:27.000Z</time>
      </trkpt>
      <trkpt lat="44.96388" lon="-0.39245">
        <ele>39.3</ele>
        <time>2021-06-03T13:47:28.000Z</time>
      </trkpt>
      <trkpt lat="44.96389" lon="-0.39252">
        <ele>39.2</ele>
        <time>2021-06-03T13:47:29.000Z</time>
      </trkpt>
      <trkpt lat="44.9639" lon="-0.39259">
        <ele>39.1</ele>
        <time>2021-06-03T13:47:30.000Z</time>
      </trkpt>
      <trkpt lat="44.9639" lon="-0.39266">
        <ele>39.3</ele>
        <time>2021-06-03T13:47:31.000Z</time>
      </trkpt>
      <trkpt lat="44.96391" lon="-0.39273">
        <ele>39.4</ele>
        <time>2021-06-03T13:47:32.000Z</time>
      </trkpt>
      <trkpt lat="44.96392" lon="-0.3928">
        <ele>39.5</ele>
        <time>2021-06-03T13:47:33.000Z</time>
      </trkpt>
      <trkpt lat="44.96393" lon="-0.39286">
        <ele>39.6</ele>
        <time>2021-06-03T13:47:34.000Z</time>
      </trkpt>
      <trkpt lat="44.96393" lon="-0.39293">
        <ele>39.7</ele>
        <time>2021-06-03T13:47:35.000Z</time>
      </trkpt>
      <trkpt lat="44.96394" lon="-0.39306">
        <ele>39.3</ele>
        <time>2021-06-03T13:47:37.000Z</time>
      </trkpt>
      <trkpt lat="44.96394" lon="-0.39312">
        <ele>39.2</ele>
        <time>2021-06-03T13:47:38.000Z</time>
      </trkpt>
      <trkpt lat="44.96394" lon="-0.39318">
        <ele>39.7</ele>
        <time>2021-06-03T13:47:39.000Z</time>
      </trkpt>
      <trkpt lat="44.96395" lon="-0.39331">
        <ele>40.2</ele>
        <time>2021-06-03T13:47:41.000Z</time>
      </trkpt>
      <trkpt lat="44.96394" lon="-0.39343">
        <ele>40.4</ele>
        <time>2021-06-03T13:47:43.000Z</time>
      </trkpt>
      <trkpt lat="44.96394" lon="-0.39355">
        <ele>40.5</ele>
        <time>2021-06-03T13:47:45.000Z</time>
      </trkpt>
      <trkpt lat="44.96393" lon="-0.39367">
        <ele>41.3</ele>
        <time>2021-06-03T13:47:47.000Z</time>
      </trkpt>
      <trkpt lat="44.96392" lon="-0.39379">
        <ele>41.4</ele>
        <time>2021-06-03T13:47:49.000Z</time>
      </trkpt>
      <trkpt lat="44.96392" lon="-0.39391">
        <ele>41.7</ele>
        <time>2021-06-03T13:47:51.000Z</time>
      </trkpt>
      <trkpt lat="44.96392" lon="-0.39402">
        <ele>41.9</ele>
        <time>2021-06-03T13:47:53.000Z</time>
      </trkpt>
      <trkpt lat="44.96394" lon="-0.39412">
        <ele>42.6</ele>
        <time>2021-06-03T13:47:55.000Z</time>
      </trkpt>
      <trkpt lat="44.96396" lon="-0.39422">
        <ele>43.2</ele>
        <time>2021-06-03T13:47:57.000Z</time>
      </trkpt>
      <trkpt lat="44.96399" lon="-0.3943">
        <ele>44</ele>
        <time>2021-06-03T13:47:59.000Z</time>
      </trkpt>
      <trkpt lat="44.96402" lon="-0.39437">
        <ele>44.5</ele>
        <time>2021-06-03T13:48:01.000Z</time>
      </trkpt>
      <trkpt lat="44.96404" lon="-0.3944">
        <ele>44.9</ele>
        <time>2021-06-03T13:48:02.000Z</time>
      </trkpt>
      <trkpt lat="44.96415" lon="-0.39452">
        <ele>46.1</ele>
        <time>2021-06-03T13:48:07.000Z</time>
      </trkpt>
      <trkpt lat="44.96422" lon="-0.39458">
        <ele>46.9</ele>
        <time>2021-06-03T13:48:10.000Z</time>
      </trkpt>
      <trkpt lat="44.96428" lon="-0.39466">
        <ele>47</ele>
        <time>2021-06-03T13:48:13.000Z</time>
      </trkpt>
      <trkpt lat="44.96434" lon="-0.39474">
        <ele>48.3</ele>
        <time>2021-06-03T13:48:16.000Z</time>
      </trkpt>
      <trkpt lat="44.96438" lon="-0.39485">
        <ele>49.1</ele>
        <time>2021-06-03T13:48:19.000Z</time>
      </trkpt>
      <trkpt lat="44.96442" lon="-0.39495">
        <ele>50</ele>
        <time>2021-06-03T13:48:22.000Z</time>
      </trkpt>
      <trkpt lat="44.96448" lon="-0.39505">
        <ele>50.2</ele>
        <time>2021-06-03T13:48:25.000Z</time>
      </trkpt>
      <trkpt lat="44.96453" lon="-0.39515">
        <ele>50.5</ele>
        <time>2021-06-03T13:48:28.000Z</time>
      </trkpt>
      <trkpt lat="44.96458" lon="-0.39524">
        <ele>50.8</ele>
        <time>2021-06-03T13:48:31.000Z</time>
      </trkpt>
      <trkpt lat="44.96463" lon="-0.39533">
        <ele>51.5</ele>
        <time>2021-06-03T13:48:34.000Z</time>
      </trkpt>
      <trkpt lat="44.96467" lon="-0.39542">
        <ele>51.9</ele>
        <time>2021-06-03T13:48:37.000Z</time>
      </trkpt>
      <trkpt lat="44.96472" lon="-0.39552">
        <ele>52.2</ele>
        <time>2021-06-03T13:48:40.000Z</time>
      </trkpt>
      <trkpt lat="44.96477" lon="-0.39562">
        <ele>52.2</ele>
        <time>2021-06-03T13:48:43.000Z</time>
      </trkpt>
      <trkpt lat="44.96483" lon="-0.39571">
        <ele>52.6</ele>
        <time>2021-06-03T13:48:46.000Z</time>
      </trkpt>
      <trkpt lat="44.96487" lon="-0.39578">
        <ele>52.8</ele>
        <time>2021-06-03T13:48:48.000Z</time>
      </trkpt>
      <trkpt lat="44.96491" lon="-0.39586">
        <ele>52.7</ele>
        <time>2021-06-03T13:48:50.000Z</time>
      </trkpt>
      <trkpt lat="44.96496" lon="-0.39595">
        <ele>52.5</ele>
        <time>2021-06-03T13:48:52.000Z</time>
      </trkpt>
      <trkpt lat="44.96501" lon="-0.39603">
        <ele>52.5</ele>
        <time>2021-06-03T13:48:54.000Z</time>
      </trkpt>
      <trkpt lat="44.96506" lon="-0.3961">
        <ele>52.5</ele>
        <time>2021-06-03T13:48:56.000Z</time>
      </trkpt>
      <trkpt lat="44.96511" lon="-0.39619">
        <ele>52.3</ele>
        <time>2021-06-03T13:48:58.000Z</time>
      </trkpt>
      <trkpt lat="44.96516" lon="-0.39628">
        <ele>52</ele>
        <time>2021-06-03T13:49:00.000Z</time>
      </trkpt>
      <trkpt lat="44.96521" lon="-0.39639">
        <ele>51.9</ele>
        <time>2021-06-03T13:49:02.000Z</time>
      </trkpt>
      <trkpt lat="44.96523" lon="-0.39644">
        <ele>51.9</ele>
        <time>2021-06-03T13:49:03.000Z</time>
      </trkpt>
      <trkpt lat="44.96526" lon="-0.39649">
        <ele>51.6</ele>
        <time>2021-06-03T13:49:04.000Z</time>
      </trkpt>
      <trkpt lat="44.96528" lon="-0.39655">
        <ele>51.4</ele>
        <time>2021-06-03T13:49:05.000Z</time>
      </trkpt>
      <trkpt lat="44.96531" lon="-0.3966">
        <ele>51.3</ele>
        <time>2021-06-03T13:49:06.000Z</time>
      </trkpt>
      <trkpt lat="44.96534" lon="-0.39666">
        <ele>51.3</ele>
        <time>2021-06-03T13:49:07.000Z</time>
      </trkpt>
      <trkpt lat="44.96536" lon="-0.39671">
        <ele>51.3</ele>
        <time>2021-06-03T13:49:08.000Z</time>
      </trkpt>
      <trkpt lat="44.96539" lon="-0.39677">
        <ele>51.1</ele>
        <time>2021-06-03T13:49:09.000Z</time>
      </trkpt>
      <trkpt lat="44.96544" lon="-0.39687">
        <ele>50.9</ele>
        <time>2021-06-03T13:49:11.000Z</time>
      </trkpt>
      <trkpt lat="44.9655" lon="-0.39696">
        <ele>51</ele>
        <time>2021-06-03T13:49:13.000Z</time>
      </trkpt>
      <trkpt lat="44.96555" lon="-0.39705">
        <ele>51.1</ele>
        <time>2021-06-03T13:49:15.000Z</time>
      </trkpt>
      <trkpt lat="44.96561" lon="-0.39714">
        <ele>51.5</ele>
        <time>2021-06-03T13:49:17.000Z</time>
      </trkpt>
      <trkpt lat="44.96566" lon="-0.39721">
        <ele>50.5</ele>
        <time>2021-06-03T13:49:19.000Z</time>
      </trkpt>
      <trkpt lat="44.96569" lon="-0.39729">
        <ele>50.5</ele>
        <time>2021-06-03T13:49:21.000Z</time>
      </trkpt>
      <trkpt lat="44.96571" lon="-0.39737">
        <ele>50.7</ele>
        <time>2021-06-03T13:49:23.000Z</time>
      </trkpt>
      <trkpt lat="44.96571" lon="-0.39748">
        <ele>50.5</ele>
        <time>2021-06-03T13:49:25.000Z</time>
      </trkpt>
      <trkpt lat="44.9657" lon="-0.39759">
        <ele>50.4</ele>
        <time>2021-06-03T13:49:27.000Z</time>
      </trkpt>
      <trkpt lat="44.9657" lon="-0.39771">
        <ele>50.2</ele>
        <time>2021-06-03T13:49:29.000Z</time>
      </trkpt>
      <trkpt lat="44.9657" lon="-0.39783">
        <ele>49.9</ele>
        <time>2021-06-03T13:49:31.000Z</time>
      </trkpt>
      <trkpt lat="44.9657" lon="-0.39796">
        <ele>50</ele>
        <time>2021-06-03T13:49:33.000Z</time>
      </trkpt>
      <trkpt lat="44.9657" lon="-0.39808">
        <ele>49.8</ele>
        <time>2021-06-03T13:49:35.000Z</time>
      </trkpt>
      <trkpt lat="44.96571" lon="-0.39821">
        <ele>49.4</ele>
        <time>2021-06-03T13:49:37.000Z</time>
      </trkpt>
      <trkpt lat="44.96571" lon="-0.39833">
        <ele>49</ele>
        <time>2021-06-03T13:49:39.000Z</time>
      </trkpt>
      <trkpt lat="44.96571" lon="-0.39844">
        <ele>48.9</ele>
        <time>2021-06-03T13:49:41.000Z</time>
      </trkpt>
      <trkpt lat="44.96572" lon="-0.39855">
        <ele>48.9</ele>
        <time>2021-06-03T13:49:43.000Z</time>
      </trkpt>
      <trkpt lat="44.96572" lon="-0.39866">
        <ele>48.4</ele>
        <time>2021-06-03T13:49:45.000Z</time>
      </trkpt>
      <trkpt lat="44.96573" lon="-0.39876">
        <ele>48.3</ele>
        <time>2021-06-03T13:49:47.000Z</time>
      </trkpt>
      <trkpt lat="44.96572" lon="-0.39886">
        <ele>47.9</ele>
        <time>2021-06-03T13:49:49.000Z</time>
      </trkpt>
      <trkpt lat="44.96567" lon="-0.39894">
        <ele>47.4</ele>
        <time>2021-06-03T13:49:51.000Z</time>
      </trkpt>
      <trkpt lat="44.9656" lon="-0.39902">
        <ele>47.2</ele>
        <time>2021-06-03T13:49:53.000Z</time>
      </trkpt>
      <trkpt lat="44.96557" lon="-0.39906">
        <ele>47.2</ele>
        <time>2021-06-03T13:49:54.000Z</time>
      </trkpt>
      <trkpt lat="44.96553" lon="-0.3991">
        <ele>47.2</ele>
        <time>2021-06-03T13:49:55.000Z</time>
      </trkpt>
      <trkpt lat="44.96549" lon="-0.39914">
        <ele>47.4</ele>
        <time>2021-06-03T13:49:56.000Z</time>
      </trkpt>
      <trkpt lat="44.96546" lon="-0.39918">
        <ele>47.6</ele>
        <time>2021-06-03T13:49:57.000Z</time>
      </trkpt>
      <trkpt lat="44.9654" lon="-0.39926">
        <ele>47.6</ele>
        <time>2021-06-03T13:49:59.000Z</time>
      </trkpt>
      <trkpt lat="44.96535" lon="-0.39933">
        <ele>47.4</ele>
        <time>2021-06-03T13:50:01.000Z</time>
      </trkpt>
      <trkpt lat="44.96529" lon="-0.39939">
        <ele>47.2</ele>
        <time>2021-06-03T13:50:03.000Z</time>
      </trkpt>
      <trkpt lat="44.96527" lon="-0.39942">
        <ele>47.1</ele>
        <time>2021-06-03T13:50:04.000Z</time>
      </trkpt>
      <trkpt lat="44.96523" lon="-0.39958">
        <ele>46.3</ele>
        <time>2021-06-03T13:50:07.000Z</time>
      </trkpt>
      <trkpt lat="44.96525" lon="-0.39971">
        <ele>46.4</ele>
        <time>2021-06-03T13:50:09.000Z</time>
      </trkpt>
      <trkpt lat="44.96526" lon="-0.39977">
        <ele>46.6</ele>
        <time>2021-06-03T13:50:10.000Z</time>
      </trkpt>
      <trkpt lat="44.96527" lon="-0.39984">
        <ele>46.7</ele>
        <time>2021-06-03T13:50:11.000Z</time>
      </trkpt>
      <trkpt lat="44.96529" lon="-0.39991">
        <ele>46.7</ele>
        <time>2021-06-03T13:50:12.000Z</time>
      </trkpt>
      <trkpt lat="44.9653" lon="-0.39998">
        <ele>46.5</ele>
        <time>2021-06-03T13:50:13.000Z</time>
      </trkpt>
      <trkpt lat="44.96531" lon="-0.40004">
        <ele>46.2</ele>
        <time>2021-06-03T13:50:14.000Z</time>
      </trkpt>
      <trkpt lat="44.96533" lon="-0.4001">
        <ele>46.1</ele>
        <time>2021-06-03T13:50:15.000Z</time>
      </trkpt>
      <trkpt lat="44.96534" lon="-0.40017">
        <ele>46.1</ele>
        <time>2021-06-03T13:50:16.000Z</time>
      </trkpt>
      <trkpt lat="44.96535" lon="-0.40023">
        <ele>46</ele>
        <time>2021-06-03T13:50:17.000Z</time>
      </trkpt>
      <trkpt lat="44.96537" lon="-0.40029">
        <ele>46.1</ele>
        <time>2021-06-03T13:50:18.000Z</time>
      </trkpt>
      <trkpt lat="44.9654" lon="-0.40035">
        <ele>46.1</ele>
        <time>2021-06-03T13:50:19.000Z</time>
      </trkpt>
      <trkpt lat="44.96541" lon="-0.40042">
        <ele>46.4</ele>
        <time>2021-06-03T13:50:20.000Z</time>
      </trkpt>
      <trkpt lat="44.96543" lon="-0.40048">
        <ele>46.6</ele>
        <time>2021-06-03T13:50:21.000Z</time>
      </trkpt>
      <trkpt lat="44.96544" lon="-0.40055">
        <ele>46.2</ele>
        <time>2021-06-03T13:50:22.000Z</time>
      </trkpt>
      <trkpt lat="44.96545" lon="-0.40062">
        <ele>46</ele>
        <time>2021-06-03T13:50:23.000Z</time>
      </trkpt>
      <trkpt lat="44.96546" lon="-0.40068">
        <ele>45.8</ele>
        <time>2021-06-03T13:50:24.000Z</time>
      </trkpt>
      <trkpt lat="44.96547" lon="-0.40075">
        <ele>45.8</ele>
        <time>2021-06-03T13:50:25.000Z</time>
      </trkpt>
      <trkpt lat="44.96547" lon="-0.40082">
        <ele>45.8</ele>
        <time>2021-06-03T13:50:26.000Z</time>
      </trkpt>
      <trkpt lat="44.96547" lon="-0.40089">
        <ele>45.7</ele>
        <time>2021-06-03T13:50:27.000Z</time>
      </trkpt>
      <trkpt lat="44.96546" lon="-0.40095">
        <ele>45.5</ele>
        <time>2021-06-03T13:50:28.000Z</time>
      </trkpt>
      <trkpt lat="44.96544" lon="-0.40102">
        <ele>45.4</ele>
        <time>2021-06-03T13:50:29.000Z</time>
      </trkpt>
      <trkpt lat="44.96542" lon="-0.40108">
        <ele>45.2</ele>
        <time>2021-06-03T13:50:30.000Z</time>
      </trkpt>
      <trkpt lat="44.9654" lon="-0.40114">
        <ele>45.1</ele>
        <time>2021-06-03T13:50:31.000Z</time>
      </trkpt>
      <trkpt lat="44.96537" lon="-0.40119">
        <ele>45.2</ele>
        <time>2021-06-03T13:50:32.000Z</time>
      </trkpt>
      <trkpt lat="44.96535" lon="-0.40125">
        <ele>45.3</ele>
        <time>2021-06-03T13:50:33.000Z</time>
      </trkpt>
      <trkpt lat="44.96533" lon="-0.40131">
        <ele>45.4</ele>
        <time>2021-06-03T13:50:34.000Z</time>
      </trkpt>
      <trkpt lat="44.96531" lon="-0.40137">
        <ele>45.5</ele>
        <time>2021-06-03T13:50:35.000Z</time>
      </trkpt>
      <trkpt lat="44.96529" lon="-0.40144">
        <ele>45.6</ele>
        <time>2021-06-03T13:50:36.000Z</time>
      </trkpt>
      <trkpt lat="44.96527" lon="-0.4015">
        <ele>45.6</ele>
        <time>2021-06-03T13:50:37.000Z</time>
      </trkpt>
      <trkpt lat="44.96525" lon="-0.40157">
        <ele>45.7</ele>
        <time>2021-06-03T13:50:38.000Z</time>
      </trkpt>
      <trkpt lat="44.96523" lon="-0.40164">
        <ele>45.5</ele>
        <time>2021-06-03T13:50:39.000Z</time>
      </trkpt>
      <trkpt lat="44.96521" lon="-0.40172">
        <ele>45.3</ele>
        <time>2021-06-03T13:50:40.000Z</time>
      </trkpt>
      <trkpt lat="44.96521" lon="-0.4018">
        <ele>45.1</ele>
        <time>2021-06-03T13:50:41.000Z</time>
      </trkpt>
      <trkpt lat="44.96521" lon="-0.40188">
        <ele>44.9</ele>
        <time>2021-06-03T13:50:42.000Z</time>
      </trkpt>
      <trkpt lat="44.96521" lon="-0.40196">
        <ele>44.8</ele>
        <time>2021-06-03T13:50:43.000Z</time>
      </trkpt>
      <trkpt lat="44.96521" lon="-0.40205">
        <ele>44.5</ele>
        <time>2021-06-03T13:50:44.000Z</time>
      </trkpt>
      <trkpt lat="44.96522" lon="-0.40213">
        <ele>44.2</ele>
        <time>2021-06-03T13:50:45.000Z</time>
      </trkpt>
      <trkpt lat="44.96523" lon="-0.40222">
        <ele>43.9</ele>
        <time>2021-06-03T13:50:46.000Z</time>
      </trkpt>
      <trkpt lat="44.96524" lon="-0.40232">
        <ele>43.6</ele>
        <time>2021-06-03T13:50:47.000Z</time>
      </trkpt>
      <trkpt lat="44.96526" lon="-0.40241">
        <ele>43</ele>
        <time>2021-06-03T13:50:48.000Z</time>
      </trkpt>
      <trkpt lat="44.96527" lon="-0.40251">
        <ele>42.6</ele>
        <time>2021-06-03T13:50:49.000Z</time>
      </trkpt>
      <trkpt lat="44.96529" lon="-0.40261">
        <ele>42.2</ele>
        <time>2021-06-03T13:50:50.000Z</time>
      </trkpt>
      <trkpt lat="44.96531" lon="-0.40271">
        <ele>41.6</ele>
        <time>2021-06-03T13:50:51.000Z</time>
      </trkpt>
      <trkpt lat="44.96533" lon="-0.40282">
        <ele>41.1</ele>
        <time>2021-06-03T13:50:52.000Z</time>
      </trkpt>
      <trkpt lat="44.96537" lon="-0.40293">
        <ele>40.4</ele>
        <time>2021-06-03T13:50:53.000Z</time>
      </trkpt>
      <trkpt lat="44.96541" lon="-0.40304">
        <ele>39.8</ele>
        <time>2021-06-03T13:50:54.000Z</time>
      </trkpt>
      <trkpt lat="44.96545" lon="-0.40315">
        <ele>39.5</ele>
        <time>2021-06-03T13:50:55.000Z</time>
      </trkpt>
      <trkpt lat="44.9655" lon="-0.40326">
        <ele>39.3</ele>
        <time>2021-06-03T13:50:56.000Z</time>
      </trkpt>
      <trkpt lat="44.96555" lon="-0.40337">
        <ele>39.2</ele>
        <time>2021-06-03T13:50:57.000Z</time>
      </trkpt>
      <trkpt lat="44.96561" lon="-0.40348">
        <ele>38.7</ele>
        <time>2021-06-03T13:50:58.000Z</time>
      </trkpt>
      <trkpt lat="44.96567" lon="-0.40359">
        <ele>38.3</ele>
        <time>2021-06-03T13:50:59.000Z</time>
      </trkpt>
      <trkpt lat="44.96573" lon="-0.40369">
        <ele>37.7</ele>
        <time>2021-06-03T13:51:00.000Z</time>
      </trkpt>
      <trkpt lat="44.96579" lon="-0.4038">
        <ele>37.2</ele>
        <time>2021-06-03T13:51:01.000Z</time>
      </trkpt>
      <trkpt lat="44.96584" lon="-0.40392">
        <ele>36.8</ele>
        <time>2021-06-03T13:51:02.000Z</time>
      </trkpt>
      <trkpt lat="44.96589" lon="-0.40404">
        <ele>36.5</ele>
        <time>2021-06-03T13:51:03.000Z</time>
      </trkpt>
      <trkpt lat="44.96593" lon="-0.40417">
        <ele>36.2</ele>
        <time>2021-06-03T13:51:04.000Z</time>
      </trkpt>
      <trkpt lat="44.96597" lon="-0.40429">
        <ele>35.9</ele>
        <time>2021-06-03T13:51:05.000Z</time>
      </trkpt>
      <trkpt lat="44.966" lon="-0.40442">
        <ele>35.6</ele>
        <time>2021-06-03T13:51:06.000Z</time>
      </trkpt>
      <trkpt lat="44.96604" lon="-0.40455">
        <ele>35</ele>
        <time>2021-06-03T13:51:07.000Z</time>
      </trkpt>
      <trkpt lat="44.96608" lon="-0.40467">
        <ele>34.6</ele>
        <time>2021-06-03T13:51:08.000Z</time>
      </trkpt>
      <trkpt lat="44.96612" lon="-0.40479">
        <ele>34.3</ele>
        <time>2021-06-03T13:51:09.000Z</time>
      </trkpt>
      <trkpt lat="44.96617" lon="-0.4049">
        <ele>34.1</ele>
        <time>2021-06-03T13:51:10.000Z</time>
      </trkpt>
      <trkpt lat="44.96623" lon="-0.405">
        <ele>34</ele>
        <time>2021-06-03T13:51:11.000Z</time>
      </trkpt>
      <trkpt lat="44.96629" lon="-0.40508">
        <ele>34.1</ele>
        <time>2021-06-03T13:51:12.000Z</time>
      </trkpt>
      <trkpt lat="44.96635" lon="-0.40516">
        <ele>34.3</ele>
        <time>2021-06-03T13:51:13.000Z</time>
      </trkpt>
      <trkpt lat="44.9664" lon="-0.40523">
        <ele>34.2</ele>
        <time>2021-06-03T13:51:14.000Z</time>
      </trkpt>
      <trkpt lat="44.96645" lon="-0.4053">
        <ele>34.2</ele>
        <time>2021-06-03T13:51:15.000Z</time>
      </trkpt>
      <trkpt lat="44.96648" lon="-0.40537">
        <ele>34.2</ele>
        <time>2021-06-03T13:51:16.000Z</time>
      </trkpt>
      <trkpt lat="44.96652" lon="-0.40544">
        <ele>34.5</ele>
        <time>2021-06-03T13:51:17.000Z</time>
      </trkpt>
      <trkpt lat="44.96655" lon="-0.40551">
        <ele>34.8</ele>
        <time>2021-06-03T13:51:18.000Z</time>
      </trkpt>
      <trkpt lat="44.96658" lon="-0.40557">
        <ele>35.1</ele>
        <time>2021-06-03T13:51:19.000Z</time>
      </trkpt>
      <trkpt lat="44.96661" lon="-0.40564">
        <ele>35.4</ele>
        <time>2021-06-03T13:51:20.000Z</time>
      </trkpt>
      <trkpt lat="44.96664" lon="-0.4057">
        <ele>35.5</ele>
        <time>2021-06-03T13:51:21.000Z</time>
      </trkpt>
      <trkpt lat="44.96666" lon="-0.40576">
        <ele>35.8</ele>
        <time>2021-06-03T13:51:22.000Z</time>
      </trkpt>
      <trkpt lat="44.96669" lon="-0.40582">
        <ele>35.9</ele>
        <time>2021-06-03T13:51:23.000Z</time>
      </trkpt>
      <trkpt lat="44.96672" lon="-0.40588">
        <ele>36.3</ele>
        <time>2021-06-03T13:51:24.000Z</time>
      </trkpt>
      <trkpt lat="44.96675" lon="-0.40594">
        <ele>36.7</ele>
        <time>2021-06-03T13:51:25.000Z</time>
      </trkpt>
      <trkpt lat="44.96679" lon="-0.406">
        <ele>36.7</ele>
        <time>2021-06-03T13:51:26.000Z</time>
      </trkpt>
      <trkpt lat="44.96682" lon="-0.40606">
        <ele>36.8</ele>
        <time>2021-06-03T13:51:27.000Z</time>
      </trkpt>
      <trkpt lat="44.96685" lon="-0.40612">
        <ele>36.8</ele>
        <time>2021-06-03T13:51:28.000Z</time>
      </trkpt>
      <trkpt lat="44.96688" lon="-0.40618">
        <ele>36.4</ele>
        <time>2021-06-03T13:51:29.000Z</time>
      </trkpt>
      <trkpt lat="44.96692" lon="-0.40624">
        <ele>36</ele>
        <time>2021-06-03T13:51:30.000Z</time>
      </trkpt>
      <trkpt lat="44.96695" lon="-0.4063">
        <ele>36</ele>
        <time>2021-06-03T13:51:31.000Z</time>
      </trkpt>
      <trkpt lat="44.96698" lon="-0.40636">
        <ele>35.9</ele>
        <time>2021-06-03T13:51:32.000Z</time>
      </trkpt>
      <trkpt lat="44.96702" lon="-0.40641">
        <ele>35.8</ele>
        <time>2021-06-03T13:51:33.000Z</time>
      </trkpt>
      <trkpt lat="44.96705" lon="-0.40648">
        <ele>35.7</ele>
        <time>2021-06-03T13:51:34.000Z</time>
      </trkpt>
      <trkpt lat="44.96707" lon="-0.40655">
        <ele>35.6</ele>
        <time>2021-06-03T13:51:35.000Z</time>
      </trkpt>
      <trkpt lat="44.96709" lon="-0.40663">
        <ele>35.7</ele>
        <time>2021-06-03T13:51:36.000Z</time>
      </trkpt>
      <trkpt lat="44.96711" lon="-0.40672">
        <ele>35.7</ele>
        <time>2021-06-03T13:51:37.000Z</time>
      </trkpt>
      <trkpt lat="44.96712" lon="-0.40682">
        <ele>35.2</ele>
        <time>2021-06-03T13:51:38.000Z</time>
      </trkpt>
      <trkpt lat="44.96713" lon="-0.40692">
        <ele>34.8</ele>
        <time>2021-06-03T13:51:39.000Z</time>
      </trkpt>
      <trkpt lat="44.96714" lon="-0.40703">
        <ele>34.5</ele>
        <time>2021-06-03T13:51:40.000Z</time>
      </trkpt>
      <trkpt lat="44.96715" lon="-0.40714">
        <ele>33.9</ele>
        <time>2021-06-03T13:51:41.000Z</time>
      </trkpt>
      <trkpt lat="44.96717" lon="-0.40725">
        <ele>33.4</ele>
        <time>2021-06-03T13:51:42.000Z</time>
      </trkpt>
      <trkpt lat="44.96719" lon="-0.40736">
        <ele>32.7</ele>
        <time>2021-06-03T13:51:43.000Z</time>
      </trkpt>
      <trkpt lat="44.96722" lon="-0.40748">
        <ele>32.1</ele>
        <time>2021-06-03T13:51:44.000Z</time>
      </trkpt>
      <trkpt lat="44.96725" lon="-0.40759">
        <ele>31.8</ele>
        <time>2021-06-03T13:51:45.000Z</time>
      </trkpt>
      <trkpt lat="44.96728" lon="-0.40771">
        <ele>31.5</ele>
        <time>2021-06-03T13:51:46.000Z</time>
      </trkpt>
      <trkpt lat="44.96732" lon="-0.40782">
        <ele>31.3</ele>
        <time>2021-06-03T13:51:47.000Z</time>
      </trkpt>
      <trkpt lat="44.96736" lon="-0.40793">
        <ele>30.8</ele>
        <time>2021-06-03T13:51:48.000Z</time>
      </trkpt>
      <trkpt lat="44.9674" lon="-0.40805">
        <ele>30.4</ele>
        <time>2021-06-03T13:51:49.000Z</time>
      </trkpt>
      <trkpt lat="44.96743" lon="-0.40816">
        <ele>30.1</ele>
        <time>2021-06-03T13:51:50.000Z</time>
      </trkpt>
      <trkpt lat="44.96746" lon="-0.40828">
        <ele>29.9</ele>
        <time>2021-06-03T13:51:51.000Z</time>
      </trkpt>
      <trkpt lat="44.96748" lon="-0.4084">
        <ele>29.5</ele>
        <time>2021-06-03T13:51:52.000Z</time>
      </trkpt>
      <trkpt lat="44.9675" lon="-0.40853">
        <ele>29.2</ele>
        <time>2021-06-03T13:51:53.000Z</time>
      </trkpt>
      <trkpt lat="44.96752" lon="-0.40865">
        <ele>29</ele>
        <time>2021-06-03T13:51:54.000Z</time>
      </trkpt>
      <trkpt lat="44.96754" lon="-0.40877">
        <ele>28.7</ele>
        <time>2021-06-03T13:51:55.000Z</time>
      </trkpt>
      <trkpt lat="44.96756" lon="-0.40889">
        <ele>28.4</ele>
        <time>2021-06-03T13:51:56.000Z</time>
      </trkpt>
      <trkpt lat="44.96758" lon="-0.40901">
        <ele>28.2</ele>
        <time>2021-06-03T13:51:57.000Z</time>
      </trkpt>
      <trkpt lat="44.96759" lon="-0.40912">
        <ele>28.1</ele>
        <time>2021-06-03T13:51:58.000Z</time>
      </trkpt>
      <trkpt lat="44.96761" lon="-0.40922">
        <ele>28</ele>
        <time>2021-06-03T13:51:59.000Z</time>
      </trkpt>
      <trkpt lat="44.96761" lon="-0.40932">
        <ele>27.9</ele>
        <time>2021-06-03T13:52:00.000Z</time>
      </trkpt>
      <trkpt lat="44.96761" lon="-0.4094">
        <ele>27.8</ele>
        <time>2021-06-03T13:52:01.000Z</time>
      </trkpt>
      <trkpt lat="44.96761" lon="-0.40949">
        <ele>27.9</ele>
        <time>2021-06-03T13:52:02.000Z</time>
      </trkpt>
      <trkpt lat="44.9676" lon="-0.40957">
        <ele>27.9</ele>
        <time>2021-06-03T13:52:03.000Z</time>
      </trkpt>
      <trkpt lat="44.9676" lon="-0.40965">
        <ele>28.1</ele>
        <time>2021-06-03T13:52:04.000Z</time>
      </trkpt>
      <trkpt lat="44.96761" lon="-0.40974">
        <ele>28.1</ele>
        <time>2021-06-03T13:52:05.000Z</time>
      </trkpt>
      <trkpt lat="44.96763" lon="-0.40982">
        <ele>28.2</ele>
        <time>2021-06-03T13:52:06.000Z</time>
      </trkpt>
      <trkpt lat="44.96766" lon="-0.40991">
        <ele>27.8</ele>
        <time>2021-06-03T13:52:07.000Z</time>
      </trkpt>
      <trkpt lat="44.9677" lon="-0.40999">
        <ele>27.6</ele>
        <time>2021-06-03T13:52:08.000Z</time>
      </trkpt>
      <trkpt lat="44.96774" lon="-0.41009">
        <ele>27.1</ele>
        <time>2021-06-03T13:52:09.000Z</time>
      </trkpt>
      <trkpt lat="44.96778" lon="-0.41018">
        <ele>26.8</ele>
        <time>2021-06-03T13:52:10.000Z</time>
      </trkpt>
      <trkpt lat="44.96781" lon="-0.41029">
        <ele>26.2</ele>
        <time>2021-06-03T13:52:11.000Z</time>
      </trkpt>
      <trkpt lat="44.96785" lon="-0.41041">
        <ele>25.7</ele>
        <time>2021-06-03T13:52:12.000Z</time>
      </trkpt>
      <trkpt lat="44.96787" lon="-0.41052">
        <ele>25.3</ele>
        <time>2021-06-03T13:52:13.000Z</time>
      </trkpt>
      <trkpt lat="44.9679" lon="-0.41065">
        <ele>24.5</ele>
        <time>2021-06-03T13:52:14.000Z</time>
      </trkpt>
      <trkpt lat="44.96793" lon="-0.41078">
        <ele>23.9</ele>
        <time>2021-06-03T13:52:15.000Z</time>
      </trkpt>
      <trkpt lat="44.96796" lon="-0.41092">
        <ele>22.8</ele>
        <time>2021-06-03T13:52:16.000Z</time>
      </trkpt>
      <trkpt lat="44.968" lon="-0.41105">
        <ele>22</ele>
        <time>2021-06-03T13:52:17.000Z</time>
      </trkpt>
      <trkpt lat="44.96805" lon="-0.41118">
        <ele>21.1</ele>
        <time>2021-06-03T13:52:18.000Z</time>
      </trkpt>
      <trkpt lat="44.96811" lon="-0.41131">
        <ele>20.4</ele>
        <time>2021-06-03T13:52:19.000Z</time>
      </trkpt>
      <trkpt lat="44.96817" lon="-0.41144">
        <ele>19.9</ele>
        <time>2021-06-03T13:52:20.000Z</time>
      </trkpt>
      <trkpt lat="44.96825" lon="-0.41156">
        <ele>19.2</ele>
        <time>2021-06-03T13:52:21.000Z</time>
      </trkpt>
      <trkpt lat="44.96832" lon="-0.41166">
        <ele>18.7</ele>
        <time>2021-06-03T13:52:22.000Z</time>
      </trkpt>
      <trkpt lat="44.9684" lon="-0.41176">
        <ele>17.7</ele>
        <time>2021-06-03T13:52:23.000Z</time>
      </trkpt>
      <trkpt lat="44.96849" lon="-0.41184">
        <ele>16.9</ele>
        <time>2021-06-03T13:52:24.000Z</time>
      </trkpt>
      <trkpt lat="44.96858" lon="-0.4119">
        <ele>16.4</ele>
        <time>2021-06-03T13:52:25.000Z</time>
      </trkpt>
      <trkpt lat="44.96868" lon="-0.41195">
        <ele>15.9</ele>
        <time>2021-06-03T13:52:26.000Z</time>
      </trkpt>
      <trkpt lat="44.96878" lon="-0.41199">
        <ele>15.6</ele>
        <time>2021-06-03T13:52:27.000Z</time>
      </trkpt>
      <trkpt lat="44.96888" lon="-0.41203">
        <ele>15.1</ele>
        <time>2021-06-03T13:52:28.000Z</time>
      </trkpt>
      <trkpt lat="44.96898" lon="-0.41206">
        <ele>14.7</ele>
        <time>2021-06-03T13:52:29.000Z</time>
      </trkpt>
      <trkpt lat="44.96908" lon="-0.4121">
        <ele>14.1</ele>
        <time>2021-06-03T13:52:30.000Z</time>
      </trkpt>
      <trkpt lat="44.96917" lon="-0.41213">
        <ele>13.7</ele>
        <time>2021-06-03T13:52:31.000Z</time>
      </trkpt>
      <trkpt lat="44.96927" lon="-0.41216">
        <ele>13.4</ele>
        <time>2021-06-03T13:52:32.000Z</time>
      </trkpt>
      <trkpt lat="44.96936" lon="-0.41219">
        <ele>12.8</ele>
        <time>2021-06-03T13:52:33.000Z</time>
      </trkpt>
      <trkpt lat="44.96946" lon="-0.41222">
        <ele>12.4</ele>
        <time>2021-06-03T13:52:34.000Z</time>
      </trkpt>
      <trkpt lat="44.96956" lon="-0.41225">
        <ele>11.9</ele>
        <time>2021-06-03T13:52:35.000Z</time>
      </trkpt>
      <trkpt lat="44.96966" lon="-0.41228">
        <ele>11.6</ele>
        <time>2021-06-03T13:52:36.000Z</time>
      </trkpt>
      <trkpt lat="44.96976" lon="-0.4123">
        <ele>11.3</ele>
        <time>2021-06-03T13:52:37.000Z</time>
      </trkpt>
      <trkpt lat="44.96986" lon="-0.41233">
        <ele>11.1</ele>
        <time>2021-06-03T13:52:38.000Z</time>
      </trkpt>
      <trkpt lat="44.96995" lon="-0.41236">
        <ele>11</ele>
        <time>2021-06-03T13:52:39.000Z</time>
      </trkpt>
      <trkpt lat="44.97004" lon="-0.41238">
        <ele>10.1</ele>
        <time>2021-06-03T13:52:40.000Z</time>
      </trkpt>
      <trkpt lat="44.97011" lon="-0.4124">
        <ele>9.4</ele>
        <time>2021-06-03T13:52:41.000Z</time>
      </trkpt>
      <trkpt lat="44.97019" lon="-0.41242">
        <ele>8.9</ele>
        <time>2021-06-03T13:52:42.000Z</time>
      </trkpt>
      <trkpt lat="44.97026" lon="-0.41244">
        <ele>8.5</ele>
        <time>2021-06-03T13:52:43.000Z</time>
      </trkpt>
      <trkpt lat="44.97034" lon="-0.41247">
        <ele>8.3</ele>
        <time>2021-06-03T13:52:44.000Z</time>
      </trkpt>
      <trkpt lat="44.97041" lon="-0.41249">
        <ele>7.6</ele>
        <time>2021-06-03T13:52:45.000Z</time>
      </trkpt>
      <trkpt lat="44.97048" lon="-0.41251">
        <ele>7.1</ele>
        <time>2021-06-03T13:52:46.000Z</time>
      </trkpt>
      <trkpt lat="44.97054" lon="-0.41253">
        <ele>7.1</ele>
        <time>2021-06-03T13:52:47.000Z</time>
      </trkpt>
      <trkpt lat="44.9706" lon="-0.41255">
        <ele>7.2</ele>
        <time>2021-06-03T13:52:48.000Z</time>
      </trkpt>
      <trkpt lat="44.97065" lon="-0.41257">
        <ele>7</ele>
        <time>2021-06-03T13:52:49.000Z</time>
      </trkpt>
      <trkpt lat="44.97073" lon="-0.41259">
        <ele>6.7</ele>
        <time>2021-06-03T13:52:51.000Z</time>
      </trkpt>
      <trkpt lat="44.9708" lon="-0.41261">
        <ele>6.7</ele>
        <time>2021-06-03T13:52:53.000Z</time>
      </trkpt>
      <trkpt lat="44.97087" lon="-0.4126">
        <ele>6.5</ele>
        <time>2021-06-03T13:52:55.000Z</time>
      </trkpt>
      <trkpt lat="44.97095" lon="-0.41259">
        <ele>6.8</ele>
        <time>2021-06-03T13:52:57.000Z</time>
      </trkpt>
      <trkpt lat="44.97103" lon="-0.4126">
        <ele>6.7</ele>
        <time>2021-06-03T13:52:59.000Z</time>
      </trkpt>
      <trkpt lat="44.9711" lon="-0.4126">
        <ele>6.5</ele>
        <time>2021-06-03T13:53:01.000Z</time>
      </trkpt>
      <trkpt lat="44.97118" lon="-0.4126">
        <ele>6.5</ele>
        <time>2021-06-03T13:53:03.000Z</time>
      </trkpt>
      <trkpt lat="44.97126" lon="-0.4126">
        <ele>6.7</ele>
        <time>2021-06-03T13:53:05.000Z</time>
      </trkpt>
      <trkpt lat="44.97134" lon="-0.41259">
        <ele>6.6</ele>
        <time>2021-06-03T13:53:07.000Z</time>
      </trkpt>
      <trkpt lat="44.97138" lon="-0.41259">
        <ele>6.8</ele>
        <time>2021-06-03T13:53:08.000Z</time>
      </trkpt>
      <trkpt lat="44.97151" lon="-0.41259">
        <ele>7</ele>
        <time>2021-06-03T13:53:11.000Z</time>
      </trkpt>
      <trkpt lat="44.9716" lon="-0.41258">
        <ele>7.1</ele>
        <time>2021-06-03T13:53:13.000Z</time>
      </trkpt>
      <trkpt lat="44.97168" lon="-0.41257">
        <ele>6.9</ele>
        <time>2021-06-03T13:53:15.000Z</time>
      </trkpt>
      <trkpt lat="44.97173" lon="-0.41257">
        <ele>6.8</ele>
        <time>2021-06-03T13:53:16.000Z</time>
      </trkpt>
      <trkpt lat="44.97177" lon="-0.41256">
        <ele>6.7</ele>
        <time>2021-06-03T13:53:17.000Z</time>
      </trkpt>
      <trkpt lat="44.97182" lon="-0.41256">
        <ele>7.1</ele>
        <time>2021-06-03T13:53:18.000Z</time>
      </trkpt>
      <trkpt lat="44.97187" lon="-0.41256">
        <ele>7.4</ele>
        <time>2021-06-03T13:53:19.000Z</time>
      </trkpt>
      <trkpt lat="44.97191" lon="-0.41255">
        <ele>7.3</ele>
        <time>2021-06-03T13:53:20.000Z</time>
      </trkpt>
      <trkpt lat="44.97196" lon="-0.41255">
        <ele>7.2</ele>
        <time>2021-06-03T13:53:21.000Z</time>
      </trkpt>
      <trkpt lat="44.97201" lon="-0.41255">
        <ele>7.2</ele>
        <time>2021-06-03T13:53:22.000Z</time>
      </trkpt>
      <trkpt lat="44.97205" lon="-0.41255">
        <ele>7.3</ele>
        <time>2021-06-03T13:53:23.000Z</time>
      </trkpt>
      <trkpt lat="44.9721" lon="-0.41255">
        <ele>7.4</ele>
        <time>2021-06-03T13:53:24.000Z</time>
      </trkpt>
      <trkpt lat="44.97214" lon="-0.41255">
        <ele>7.3</ele>
        <time>2021-06-03T13:53:25.000Z</time>
      </trkpt>
      <trkpt lat="44.97223" lon="-0.41257">
        <ele>7.1</ele>
        <time>2021-06-03T13:53:27.000Z</time>
      </trkpt>
      <trkpt lat="44.9723" lon="-0.41264">
        <ele>7</ele>
        <time>2021-06-03T13:53:29.000Z</time>
      </trkpt>
      <trkpt lat="44.97233" lon="-0.41269">
        <ele>6.9</ele>
        <time>2021-06-03T13:53:30.000Z</time>
      </trkpt>
      <trkpt lat="44.97235" lon="-0.41276">
        <ele>6.9</ele>
        <time>2021-06-03T13:53:31.000Z</time>
      </trkpt>
      <trkpt lat="44.97236" lon="-0.41283">
        <ele>7</ele>
        <time>2021-06-03T13:53:32.000Z</time>
      </trkpt>
      <trkpt lat="44.97238" lon="-0.4129">
        <ele>7.1</ele>
        <time>2021-06-03T13:53:33.000Z</time>
      </trkpt>
      <trkpt lat="44.97238" lon="-0.41297">
        <ele>7.2</ele>
        <time>2021-06-03T13:53:34.000Z</time>
      </trkpt>
      <trkpt lat="44.97239" lon="-0.41304">
        <ele>7.5</ele>
        <time>2021-06-03T13:53:35.000Z</time>
      </trkpt>
      <trkpt lat="44.9724" lon="-0.41311">
        <ele>7.8</ele>
        <time>2021-06-03T13:53:36.000Z</time>
      </trkpt>
      <trkpt lat="44.97241" lon="-0.41318">
        <ele>7.8</ele>
        <time>2021-06-03T13:53:37.000Z</time>
      </trkpt>
      <trkpt lat="44.97242" lon="-0.41325">
        <ele>7.9</ele>
        <time>2021-06-03T13:53:38.000Z</time>
      </trkpt>
      <trkpt lat="44.97243" lon="-0.41332">
        <ele>7.9</ele>
        <time>2021-06-03T13:53:39.000Z</time>
      </trkpt>
      <trkpt lat="44.97244" lon="-0.41339">
        <ele>7.9</ele>
        <time>2021-06-03T13:53:40.000Z</time>
      </trkpt>
      <trkpt lat="44.97244" lon="-0.41347">
        <ele>8</ele>
        <time>2021-06-03T13:53:41.000Z</time>
      </trkpt>
      <trkpt lat="44.97245" lon="-0.41354">
        <ele>8.1</ele>
        <time>2021-06-03T13:53:42.000Z</time>
      </trkpt>
      <trkpt lat="44.97246" lon="-0.41361">
        <ele>8.2</ele>
        <time>2021-06-03T13:53:43.000Z</time>
      </trkpt>
      <trkpt lat="44.97247" lon="-0.41369">
        <ele>8.1</ele>
        <time>2021-06-03T13:53:44.000Z</time>
      </trkpt>
      <trkpt lat="44.97247" lon="-0.41376">
        <ele>8.1</ele>
        <time>2021-06-03T13:53:45.000Z</time>
      </trkpt>
      <trkpt lat="44.97248" lon="-0.41384">
        <ele>7.9</ele>
        <time>2021-06-03T13:53:46.000Z</time>
      </trkpt>
      <trkpt lat="44.97249" lon="-0.41391">
        <ele>7.7</ele>
        <time>2021-06-03T13:53:47.000Z</time>
      </trkpt>
      <trkpt lat="44.97249" lon="-0.41398">
        <ele>7.6</ele>
        <time>2021-06-03T13:53:48.000Z</time>
      </trkpt>
      <trkpt lat="44.9725" lon="-0.41406">
        <ele>7.8</ele>
        <time>2021-06-03T13:53:49.000Z</time>
      </trkpt>
      <trkpt lat="44.97251" lon="-0.41412">
        <ele>8</ele>
        <time>2021-06-03T13:53:50.000Z</time>
      </trkpt>
      <trkpt lat="44.97251" lon="-0.41419">
        <ele>8.3</ele>
        <time>2021-06-03T13:53:51.000Z</time>
      </trkpt>
      <trkpt lat="44.97252" lon="-0.41426">
        <ele>8.5</ele>
        <time>2021-06-03T13:53:52.000Z</time>
      </trkpt>
      <trkpt lat="44.97252" lon="-0.41433">
        <ele>8.4</ele>
        <time>2021-06-03T13:53:53.000Z</time>
      </trkpt>
      <trkpt lat="44.97253" lon="-0.41441">
        <ele>8.3</ele>
        <time>2021-06-03T13:53:54.000Z</time>
      </trkpt>
      <trkpt lat="44.97253" lon="-0.41448">
        <ele>8.2</ele>
        <time>2021-06-03T13:53:55.000Z</time>
      </trkpt>
      <trkpt lat="44.97254" lon="-0.41455">
        <ele>8</ele>
        <time>2021-06-03T13:53:56.000Z</time>
      </trkpt>
      <trkpt lat="44.97255" lon="-0.41463">
        <ele>7.8</ele>
        <time>2021-06-03T13:53:57.000Z</time>
      </trkpt>
      <trkpt lat="44.97255" lon="-0.4147">
        <ele>8</ele>
        <time>2021-06-03T13:53:58.000Z</time>
      </trkpt>
      <trkpt lat="44.97256" lon="-0.41478">
        <ele>8.1</ele>
        <time>2021-06-03T13:53:59.000Z</time>
      </trkpt>
      <trkpt lat="44.97257" lon="-0.41485">
        <ele>8.2</ele>
        <time>2021-06-03T13:54:00.000Z</time>
      </trkpt>
      <trkpt lat="44.97258" lon="-0.41492">
        <ele>8.1</ele>
        <time>2021-06-03T13:54:01.000Z</time>
      </trkpt>
      <trkpt lat="44.97259" lon="-0.415">
        <ele>8</ele>
        <time>2021-06-03T13:54:02.000Z</time>
      </trkpt>
      <trkpt lat="44.9726" lon="-0.41507">
        <ele>7.9</ele>
        <time>2021-06-03T13:54:03.000Z</time>
      </trkpt>
      <trkpt lat="44.97261" lon="-0.41514">
        <ele>7.7</ele>
        <time>2021-06-03T13:54:04.000Z</time>
      </trkpt>
      <trkpt lat="44.97262" lon="-0.41521">
        <ele>7.5</ele>
        <time>2021-06-03T13:54:05.000Z</time>
      </trkpt>
      <trkpt lat="44.97263" lon="-0.41528">
        <ele>7.4</ele>
        <time>2021-06-03T13:54:06.000Z</time>
      </trkpt>
      <trkpt lat="44.97264" lon="-0.41535">
        <ele>7.2</ele>
        <time>2021-06-03T13:54:07.000Z</time>
      </trkpt>
      <trkpt lat="44.97265" lon="-0.41543">
        <ele>7.4</ele>
        <time>2021-06-03T13:54:08.000Z</time>
      </trkpt>
      <trkpt lat="44.97267" lon="-0.4155">
        <ele>7.5</ele>
        <time>2021-06-03T13:54:09.000Z</time>
      </trkpt>
      <trkpt lat="44.97268" lon="-0.41558">
        <ele>7.5</ele>
        <time>2021-06-03T13:54:10.000Z</time>
      </trkpt>
      <trkpt lat="44.97269" lon="-0.41566">
        <ele>7.5</ele>
        <time>2021-06-03T13:54:11.000Z</time>
      </trkpt>
      <trkpt lat="44.9727" lon="-0.41574">
        <ele>7.2</ele>
        <time>2021-06-03T13:54:12.000Z</time>
      </trkpt>
      <trkpt lat="44.97271" lon="-0.41582">
        <ele>7</ele>
        <time>2021-06-03T13:54:13.000Z</time>
      </trkpt>
      <trkpt lat="44.97272" lon="-0.41589">
        <ele>6.8</ele>
        <time>2021-06-03T13:54:14.000Z</time>
      </trkpt>
      <trkpt lat="44.97274" lon="-0.41597">
        <ele>6.9</ele>
        <time>2021-06-03T13:54:15.000Z</time>
      </trkpt>
      <trkpt lat="44.97274" lon="-0.41605">
        <ele>6.9</ele>
        <time>2021-06-03T13:54:16.000Z</time>
      </trkpt>
      <trkpt lat="44.97275" lon="-0.41613">
        <ele>7</ele>
        <time>2021-06-03T13:54:17.000Z</time>
      </trkpt>
      <trkpt lat="44.97276" lon="-0.41621">
        <ele>7</ele>
        <time>2021-06-03T13:54:18.000Z</time>
      </trkpt>
      <trkpt lat="44.97277" lon="-0.41628">
        <ele>7</ele>
        <time>2021-06-03T13:54:19.000Z</time>
      </trkpt>
      <trkpt lat="44.97278" lon="-0.41636">
        <ele>7.4</ele>
        <time>2021-06-03T13:54:20.000Z</time>
      </trkpt>
      <trkpt lat="44.97278" lon="-0.41643">
        <ele>7.6</ele>
        <time>2021-06-03T13:54:21.000Z</time>
      </trkpt>
      <trkpt lat="44.97279" lon="-0.41651">
        <ele>7.6</ele>
        <time>2021-06-03T13:54:22.000Z</time>
      </trkpt>
      <trkpt lat="44.97279" lon="-0.41659">
        <ele>7.6</ele>
        <time>2021-06-03T13:54:23.000Z</time>
      </trkpt>
      <trkpt lat="44.9728" lon="-0.41667">
        <ele>7.5</ele>
        <time>2021-06-03T13:54:24.000Z</time>
      </trkpt>
      <trkpt lat="44.9728" lon="-0.41675">
        <ele>7.5</ele>
        <time>2021-06-03T13:54:25.000Z</time>
      </trkpt>
      <trkpt lat="44.9728" lon="-0.41682">
        <ele>7.5</ele>
        <time>2021-06-03T13:54:26.000Z</time>
      </trkpt>
      <trkpt lat="44.97281" lon="-0.4169">
        <ele>7.7</ele>
        <time>2021-06-03T13:54:27.000Z</time>
      </trkpt>
      <trkpt lat="44.97281" lon="-0.41698">
        <ele>7.8</ele>
        <time>2021-06-03T13:54:28.000Z</time>
      </trkpt>
      <trkpt lat="44.97281" lon="-0.41705">
        <ele>7.9</ele>
        <time>2021-06-03T13:54:29.000Z</time>
      </trkpt>
      <trkpt lat="44.97281" lon="-0.41712">
        <ele>8</ele>
        <time>2021-06-03T13:54:30.000Z</time>
      </trkpt>
      <trkpt lat="44.97281" lon="-0.4172">
        <ele>7.9</ele>
        <time>2021-06-03T13:54:31.000Z</time>
      </trkpt>
      <trkpt lat="44.97281" lon="-0.41727">
        <ele>7.8</ele>
        <time>2021-06-03T13:54:32.000Z</time>
      </trkpt>
      <trkpt lat="44.97281" lon="-0.41735">
        <ele>7.8</ele>
        <time>2021-06-03T13:54:33.000Z</time>
      </trkpt>
      <trkpt lat="44.9728" lon="-0.41742">
        <ele>8</ele>
        <time>2021-06-03T13:54:34.000Z</time>
      </trkpt>
      <trkpt lat="44.9728" lon="-0.41749">
        <ele>8.2</ele>
        <time>2021-06-03T13:54:35.000Z</time>
      </trkpt>
      <trkpt lat="44.97279" lon="-0.41756">
        <ele>8.3</ele>
        <time>2021-06-03T13:54:36.000Z</time>
      </trkpt>
      <trkpt lat="44.97279" lon="-0.41763">
        <ele>8.4</ele>
        <time>2021-06-03T13:54:37.000Z</time>
      </trkpt>
      <trkpt lat="44.97278" lon="-0.4177">
        <ele>8.5</ele>
        <time>2021-06-03T13:54:38.000Z</time>
      </trkpt>
      <trkpt lat="44.97278" lon="-0.41776">
        <ele>8.7</ele>
        <time>2021-06-03T13:54:39.000Z</time>
      </trkpt>
      <trkpt lat="44.97278" lon="-0.41783">
        <ele>8.9</ele>
        <time>2021-06-03T13:54:40.000Z</time>
      </trkpt>
      <trkpt lat="44.97277" lon="-0.4179">
        <ele>8.7</ele>
        <time>2021-06-03T13:54:41.000Z</time>
      </trkpt>
      <trkpt lat="44.97277" lon="-0.41796">
        <ele>8.7</ele>
        <time>2021-06-03T13:54:42.000Z</time>
      </trkpt>
      <trkpt lat="44.97277" lon="-0.41802">
        <ele>8.6</ele>
        <time>2021-06-03T13:54:43.000Z</time>
      </trkpt>
      <trkpt lat="44.97277" lon="-0.41809">
        <ele>8.5</ele>
        <time>2021-06-03T13:54:44.000Z</time>
      </trkpt>
      <trkpt lat="44.97277" lon="-0.41822">
        <ele>8.6</ele>
        <time>2021-06-03T13:54:46.000Z</time>
      </trkpt>
      <trkpt lat="44.97277" lon="-0.41828">
        <ele>8.8</ele>
        <time>2021-06-03T13:54:47.000Z</time>
      </trkpt>
      <trkpt lat="44.97277" lon="-0.41835">
        <ele>8.9</ele>
        <time>2021-06-03T13:54:48.000Z</time>
      </trkpt>
      <trkpt lat="44.97277" lon="-0.41841">
        <ele>9.1</ele>
        <time>2021-06-03T13:54:49.000Z</time>
      </trkpt>
      <trkpt lat="44.97277" lon="-0.41848">
        <ele>9.4</ele>
        <time>2021-06-03T13:54:50.000Z</time>
      </trkpt>
      <trkpt lat="44.97276" lon="-0.41854">
        <ele>9.6</ele>
        <time>2021-06-03T13:54:51.000Z</time>
      </trkpt>
      <trkpt lat="44.97276" lon="-0.41861">
        <ele>9.8</ele>
        <time>2021-06-03T13:54:52.000Z</time>
      </trkpt>
      <trkpt lat="44.97276" lon="-0.41867">
        <ele>10</ele>
        <time>2021-06-03T13:54:53.000Z</time>
      </trkpt>
      <trkpt lat="44.97276" lon="-0.41874">
        <ele>10.2</ele>
        <time>2021-06-03T13:54:54.000Z</time>
      </trkpt>
      <trkpt lat="44.97276" lon="-0.41886">
        <ele>10.4</ele>
        <time>2021-06-03T13:54:56.000Z</time>
      </trkpt>
      <trkpt lat="44.97275" lon="-0.41899">
        <ele>10</ele>
        <time>2021-06-03T13:54:58.000Z</time>
      </trkpt>
      <trkpt lat="44.97276" lon="-0.41905">
        <ele>9.9</ele>
        <time>2021-06-03T13:54:59.000Z</time>
      </trkpt>
      <trkpt lat="44.97275" lon="-0.41912">
        <ele>10.3</ele>
        <time>2021-06-03T13:55:00.000Z</time>
      </trkpt>
      <trkpt lat="44.97275" lon="-0.41919">
        <ele>10.5</ele>
        <time>2021-06-03T13:55:01.000Z</time>
      </trkpt>
      <trkpt lat="44.97275" lon="-0.41925">
        <ele>10.6</ele>
        <time>2021-06-03T13:55:02.000Z</time>
      </trkpt>
      <trkpt lat="44.97275" lon="-0.41932">
        <ele>10.6</ele>
        <time>2021-06-03T13:55:03.000Z</time>
      </trkpt>
      <trkpt lat="44.97275" lon="-0.41939">
        <ele>10.6</ele>
        <time>2021-06-03T13:55:04.000Z</time>
      </trkpt>
      <trkpt lat="44.97275" lon="-0.41946">
        <ele>10.3</ele>
        <time>2021-06-03T13:55:05.000Z</time>
      </trkpt>
      <trkpt lat="44.97275" lon="-0.41953">
        <ele>10.1</ele>
        <time>2021-06-03T13:55:06.000Z</time>
      </trkpt>
      <trkpt lat="44.97275" lon="-0.4196">
        <ele>10.2</ele>
        <time>2021-06-03T13:55:07.000Z</time>
      </trkpt>
      <trkpt lat="44.97275" lon="-0.41967">
        <ele>10.4</ele>
        <time>2021-06-03T13:55:08.000Z</time>
      </trkpt>
      <trkpt lat="44.97276" lon="-0.41974">
        <ele>10.2</ele>
        <time>2021-06-03T13:55:09.000Z</time>
      </trkpt>
      <trkpt lat="44.97276" lon="-0.41982">
        <ele>10.2</ele>
        <time>2021-06-03T13:55:10.000Z</time>
      </trkpt>
      <trkpt lat="44.97275" lon="-0.41989">
        <ele>10.1</ele>
        <time>2021-06-03T13:55:11.000Z</time>
      </trkpt>
      <trkpt lat="44.97274" lon="-0.41997">
        <ele>9.9</ele>
        <time>2021-06-03T13:55:12.000Z</time>
      </trkpt>
      <trkpt lat="44.97273" lon="-0.42004">
        <ele>9.7</ele>
        <time>2021-06-03T13:55:13.000Z</time>
      </trkpt>
      <trkpt lat="44.97272" lon="-0.42011">
        <ele>9.6</ele>
        <time>2021-06-03T13:55:14.000Z</time>
      </trkpt>
      <trkpt lat="44.97271" lon="-0.42018">
        <ele>9.6</ele>
        <time>2021-06-03T13:55:15.000Z</time>
      </trkpt>
      <trkpt lat="44.97269" lon="-0.42024">
        <ele>9.3</ele>
        <time>2021-06-03T13:55:16.000Z</time>
      </trkpt>
      <trkpt lat="44.97267" lon="-0.4203">
        <ele>9.1</ele>
        <time>2021-06-03T13:55:17.000Z</time>
      </trkpt>
      <trkpt lat="44.97265" lon="-0.42037">
        <ele>8.9</ele>
        <time>2021-06-03T13:55:18.000Z</time>
      </trkpt>
      <trkpt lat="44.97262" lon="-0.42043">
        <ele>8.9</ele>
        <time>2021-06-03T13:55:19.000Z</time>
      </trkpt>
      <trkpt lat="44.97259" lon="-0.42049">
        <ele>8.8</ele>
        <time>2021-06-03T13:55:20.000Z</time>
      </trkpt>
      <trkpt lat="44.97256" lon="-0.42055">
        <ele>8.7</ele>
        <time>2021-06-03T13:55:21.000Z</time>
      </trkpt>
      <trkpt lat="44.97252" lon="-0.42061">
        <ele>8.6</ele>
        <time>2021-06-03T13:55:22.000Z</time>
      </trkpt>
      <trkpt lat="44.97249" lon="-0.42067">
        <ele>8.6</ele>
        <time>2021-06-03T13:55:23.000Z</time>
      </trkpt>
      <trkpt lat="44.97246" lon="-0.42072">
        <ele>8.5</ele>
        <time>2021-06-03T13:55:24.000Z</time>
      </trkpt>
      <trkpt lat="44.97243" lon="-0.42078">
        <ele>8.4</ele>
        <time>2021-06-03T13:55:25.000Z</time>
      </trkpt>
      <trkpt lat="44.9724" lon="-0.42083">
        <ele>8.5</ele>
        <time>2021-06-03T13:55:26.000Z</time>
      </trkpt>
      <trkpt lat="44.97237" lon="-0.42089">
        <ele>8.6</ele>
        <time>2021-06-03T13:55:27.000Z</time>
      </trkpt>
      <trkpt lat="44.97234" lon="-0.42095">
        <ele>8.6</ele>
        <time>2021-06-03T13:55:28.000Z</time>
      </trkpt>
      <trkpt lat="44.97231" lon="-0.42101">
        <ele>8.5</ele>
        <time>2021-06-03T13:55:29.000Z</time>
      </trkpt>
      <trkpt lat="44.97228" lon="-0.42108">
        <ele>8.5</ele>
        <time>2021-06-03T13:55:30.000Z</time>
      </trkpt>
      <trkpt lat="44.97226" lon="-0.42114">
        <ele>8.3</ele>
        <time>2021-06-03T13:55:31.000Z</time>
      </trkpt>
      <trkpt lat="44.97224" lon="-0.42121">
        <ele>8.1</ele>
        <time>2021-06-03T13:55:32.000Z</time>
      </trkpt>
      <trkpt lat="44.97222" lon="-0.42128">
        <ele>8.2</ele>
        <time>2021-06-03T13:55:33.000Z</time>
      </trkpt>
      <trkpt lat="44.9722" lon="-0.42136">
        <ele>8.3</ele>
        <time>2021-06-03T13:55:34.000Z</time>
      </trkpt>
      <trkpt lat="44.97218" lon="-0.42144">
        <ele>8.2</ele>
        <time>2021-06-03T13:55:35.000Z</time>
      </trkpt>
      <trkpt lat="44.97217" lon="-0.42152">
        <ele>8.1</ele>
        <time>2021-06-03T13:55:36.000Z</time>
      </trkpt>
      <trkpt lat="44.97216" lon="-0.42159">
        <ele>8</ele>
        <time>2021-06-03T13:55:37.000Z</time>
      </trkpt>
      <trkpt lat="44.97214" lon="-0.42167">
        <ele>8.3</ele>
        <time>2021-06-03T13:55:38.000Z</time>
      </trkpt>
      <trkpt lat="44.97213" lon="-0.42175">
        <ele>8.5</ele>
        <time>2021-06-03T13:55:39.000Z</time>
      </trkpt>
      <trkpt lat="44.97213" lon="-0.42182">
        <ele>8.6</ele>
        <time>2021-06-03T13:55:40.000Z</time>
      </trkpt>
      <trkpt lat="44.97212" lon="-0.4219">
        <ele>8.6</ele>
        <time>2021-06-03T13:55:41.000Z</time>
      </trkpt>
      <trkpt lat="44.97212" lon="-0.42198">
        <ele>8.7</ele>
        <time>2021-06-03T13:55:42.000Z</time>
      </trkpt>
      <trkpt lat="44.97211" lon="-0.42205">
        <ele>8.7</ele>
        <time>2021-06-03T13:55:43.000Z</time>
      </trkpt>
      <trkpt lat="44.9721" lon="-0.42213">
        <ele>8.8</ele>
        <time>2021-06-03T13:55:44.000Z</time>
      </trkpt>
      <trkpt lat="44.9721" lon="-0.42221">
        <ele>8.8</ele>
        <time>2021-06-03T13:55:45.000Z</time>
      </trkpt>
      <trkpt lat="44.97209" lon="-0.42229">
        <ele>8.7</ele>
        <time>2021-06-03T13:55:46.000Z</time>
      </trkpt>
      <trkpt lat="44.97209" lon="-0.42237">
        <ele>8.9</ele>
        <time>2021-06-03T13:55:47.000Z</time>
      </trkpt>
      <trkpt lat="44.97208" lon="-0.42244">
        <ele>9</ele>
        <time>2021-06-03T13:55:48.000Z</time>
      </trkpt>
      <trkpt lat="44.97207" lon="-0.42252">
        <ele>9.1</ele>
        <time>2021-06-03T13:55:49.000Z</time>
      </trkpt>
      <trkpt lat="44.97207" lon="-0.42259">
        <ele>9.1</ele>
        <time>2021-06-03T13:55:50.000Z</time>
      </trkpt>
      <trkpt lat="44.97206" lon="-0.42266">
        <ele>9.1</ele>
        <time>2021-06-03T13:55:51.000Z</time>
      </trkpt>
      <trkpt lat="44.97206" lon="-0.42274">
        <ele>8.9</ele>
        <time>2021-06-03T13:55:52.000Z</time>
      </trkpt>
      <trkpt lat="44.97205" lon="-0.42282">
        <ele>8.8</ele>
        <time>2021-06-03T13:55:53.000Z</time>
      </trkpt>
      <trkpt lat="44.97204" lon="-0.4229">
        <ele>8.8</ele>
        <time>2021-06-03T13:55:54.000Z</time>
      </trkpt>
      <trkpt lat="44.97204" lon="-0.42297">
        <ele>8.7</ele>
        <time>2021-06-03T13:55:55.000Z</time>
      </trkpt>
      <trkpt lat="44.97203" lon="-0.42305">
        <ele>8.7</ele>
        <time>2021-06-03T13:55:56.000Z</time>
      </trkpt>
      <trkpt lat="44.97203" lon="-0.42313">
        <ele>8.8</ele>
        <time>2021-06-03T13:55:57.000Z</time>
      </trkpt>
      <trkpt lat="44.97202" lon="-0.4232">
        <ele>8.8</ele>
        <time>2021-06-03T13:55:58.000Z</time>
      </trkpt>
      <trkpt lat="44.97202" lon="-0.42328">
        <ele>9</ele>
        <time>2021-06-03T13:55:59.000Z</time>
      </trkpt>
      <trkpt lat="44.97202" lon="-0.42335">
        <ele>9.2</ele>
        <time>2021-06-03T13:56:00.000Z</time>
      </trkpt>
      <trkpt lat="44.97202" lon="-0.42343">
        <ele>9.3</ele>
        <time>2021-06-03T13:56:01.000Z</time>
      </trkpt>
      <trkpt lat="44.97202" lon="-0.42351">
        <ele>9.2</ele>
        <time>2021-06-03T13:56:02.000Z</time>
      </trkpt>
      <trkpt lat="44.97202" lon="-0.42358">
        <ele>9.2</ele>
        <time>2021-06-03T13:56:03.000Z</time>
      </trkpt>
      <trkpt lat="44.97201" lon="-0.42366">
        <ele>9.5</ele>
        <time>2021-06-03T13:56:04.000Z</time>
      </trkpt>
      <trkpt lat="44.97201" lon="-0.42373">
        <ele>9.8</ele>
        <time>2021-06-03T13:56:05.000Z</time>
      </trkpt>
      <trkpt lat="44.97202" lon="-0.4238">
        <ele>9.5</ele>
        <time>2021-06-03T13:56:06.000Z</time>
      </trkpt>
      <trkpt lat="44.97202" lon="-0.42388">
        <ele>9.4</ele>
        <time>2021-06-03T13:56:07.000Z</time>
      </trkpt>
      <trkpt lat="44.97202" lon="-0.42396">
        <ele>9.3</ele>
        <time>2021-06-03T13:56:08.000Z</time>
      </trkpt>
      <trkpt lat="44.97202" lon="-0.42403">
        <ele>9.5</ele>
        <time>2021-06-03T13:56:09.000Z</time>
      </trkpt>
      <trkpt lat="44.97202" lon="-0.42411">
        <ele>9.7</ele>
        <time>2021-06-03T13:56:10.000Z</time>
      </trkpt>
      <trkpt lat="44.97202" lon="-0.42419">
        <ele>9.7</ele>
        <time>2021-06-03T13:56:11.000Z</time>
      </trkpt>
      <trkpt lat="44.97202" lon="-0.42426">
        <ele>9.7</ele>
        <time>2021-06-03T13:56:12.000Z</time>
      </trkpt>
      <trkpt lat="44.97203" lon="-0.42434">
        <ele>10.1</ele>
        <time>2021-06-03T13:56:13.000Z</time>
      </trkpt>
      <trkpt lat="44.97203" lon="-0.42441">
        <ele>10.5</ele>
        <time>2021-06-03T13:56:14.000Z</time>
      </trkpt>
      <trkpt lat="44.97203" lon="-0.42448">
        <ele>10.7</ele>
        <time>2021-06-03T13:56:15.000Z</time>
      </trkpt>
      <trkpt lat="44.97204" lon="-0.42455">
        <ele>10.4</ele>
        <time>2021-06-03T13:56:16.000Z</time>
      </trkpt>
      <trkpt lat="44.97204" lon="-0.42463">
        <ele>10.2</ele>
        <time>2021-06-03T13:56:17.000Z</time>
      </trkpt>
      <trkpt lat="44.97204" lon="-0.4247">
        <ele>10.2</ele>
        <time>2021-06-03T13:56:18.000Z</time>
      </trkpt>
      <trkpt lat="44.97205" lon="-0.42478">
        <ele>10.2</ele>
        <time>2021-06-03T13:56:19.000Z</time>
      </trkpt>
      <trkpt lat="44.97205" lon="-0.42485">
        <ele>10.2</ele>
        <time>2021-06-03T13:56:20.000Z</time>
      </trkpt>
      <trkpt lat="44.97206" lon="-0.42493">
        <ele>10.5</ele>
        <time>2021-06-03T13:56:21.000Z</time>
      </trkpt>
      <trkpt lat="44.97207" lon="-0.425">
        <ele>10.7</ele>
        <time>2021-06-03T13:56:22.000Z</time>
      </trkpt>
      <trkpt lat="44.97209" lon="-0.42508">
        <ele>10.9</ele>
        <time>2021-06-03T13:56:23.000Z</time>
      </trkpt>
      <trkpt lat="44.9721" lon="-0.42515">
        <ele>11.1</ele>
        <time>2021-06-03T13:56:24.000Z</time>
      </trkpt>
      <trkpt lat="44.97212" lon="-0.42523">
        <ele>11.1</ele>
        <time>2021-06-03T13:56:25.000Z</time>
      </trkpt>
      <trkpt lat="44.97213" lon="-0.4253">
        <ele>11.1</ele>
        <time>2021-06-03T13:56:26.000Z</time>
      </trkpt>
      <trkpt lat="44.97214" lon="-0.42537">
        <ele>11.1</ele>
        <time>2021-06-03T13:56:27.000Z</time>
      </trkpt>
      <trkpt lat="44.97216" lon="-0.42545">
        <ele>11.4</ele>
        <time>2021-06-03T13:56:28.000Z</time>
      </trkpt>
      <trkpt lat="44.97217" lon="-0.42552">
        <ele>11.6</ele>
        <time>2021-06-03T13:56:29.000Z</time>
      </trkpt>
      <trkpt lat="44.97218" lon="-0.4256">
        <ele>11.7</ele>
        <time>2021-06-03T13:56:30.000Z</time>
      </trkpt>
      <trkpt lat="44.97218" lon="-0.42567">
        <ele>11.8</ele>
        <time>2021-06-03T13:56:31.000Z</time>
      </trkpt>
      <trkpt lat="44.97219" lon="-0.42575">
        <ele>11.8</ele>
        <time>2021-06-03T13:56:32.000Z</time>
      </trkpt>
      <trkpt lat="44.9722" lon="-0.42582">
        <ele>11.8</ele>
        <time>2021-06-03T13:56:33.000Z</time>
      </trkpt>
      <trkpt lat="44.97221" lon="-0.42589">
        <ele>11.8</ele>
        <time>2021-06-03T13:56:34.000Z</time>
      </trkpt>
      <trkpt lat="44.97221" lon="-0.42597">
        <ele>11.9</ele>
        <time>2021-06-03T13:56:35.000Z</time>
      </trkpt>
      <trkpt lat="44.97222" lon="-0.42604">
        <ele>12</ele>
        <time>2021-06-03T13:56:36.000Z</time>
      </trkpt>
      <trkpt lat="44.97222" lon="-0.42611">
        <ele>12</ele>
        <time>2021-06-03T13:56:37.000Z</time>
      </trkpt>
      <trkpt lat="44.97223" lon="-0.42619">
        <ele>12.1</ele>
        <time>2021-06-03T13:56:38.000Z</time>
      </trkpt>
      <trkpt lat="44.97223" lon="-0.42626">
        <ele>12.1</ele>
        <time>2021-06-03T13:56:39.000Z</time>
      </trkpt>
      <trkpt lat="44.97223" lon="-0.42633">
        <ele>11.9</ele>
        <time>2021-06-03T13:56:40.000Z</time>
      </trkpt>
      <trkpt lat="44.97223" lon="-0.4264">
        <ele>11.7</ele>
        <time>2021-06-03T13:56:41.000Z</time>
      </trkpt>
      <trkpt lat="44.97223" lon="-0.42647">
        <ele>11.8</ele>
        <time>2021-06-03T13:56:42.000Z</time>
      </trkpt>
      <trkpt lat="44.97223" lon="-0.42654">
        <ele>11.8</ele>
        <time>2021-06-03T13:56:43.000Z</time>
      </trkpt>
      <trkpt lat="44.97222" lon="-0.42662">
        <ele>12.1</ele>
        <time>2021-06-03T13:56:44.000Z</time>
      </trkpt>
      <trkpt lat="44.97222" lon="-0.42669">
        <ele>12.3</ele>
        <time>2021-06-03T13:56:45.000Z</time>
      </trkpt>
      <trkpt lat="44.97221" lon="-0.42676">
        <ele>12.5</ele>
        <time>2021-06-03T13:56:46.000Z</time>
      </trkpt>
      <trkpt lat="44.9722" lon="-0.42683">
        <ele>12.6</ele>
        <time>2021-06-03T13:56:47.000Z</time>
      </trkpt>
      <trkpt lat="44.9722" lon="-0.4269">
        <ele>12.6</ele>
        <time>2021-06-03T13:56:48.000Z</time>
      </trkpt>
      <trkpt lat="44.97219" lon="-0.42697">
        <ele>12.7</ele>
        <time>2021-06-03T13:56:49.000Z</time>
      </trkpt>
      <trkpt lat="44.97219" lon="-0.42703">
        <ele>12.8</ele>
        <time>2021-06-03T13:56:50.000Z</time>
      </trkpt>
      <trkpt lat="44.97219" lon="-0.4271">
        <ele>12.9</ele>
        <time>2021-06-03T13:56:51.000Z</time>
      </trkpt>
      <trkpt lat="44.97218" lon="-0.42717">
        <ele>13.1</ele>
        <time>2021-06-03T13:56:52.000Z</time>
      </trkpt>
      <trkpt lat="44.97218" lon="-0.42723">
        <ele>13.1</ele>
        <time>2021-06-03T13:56:53.000Z</time>
      </trkpt>
      <trkpt lat="44.97218" lon="-0.4273">
        <ele>13.3</ele>
        <time>2021-06-03T13:56:54.000Z</time>
      </trkpt>
      <trkpt lat="44.97219" lon="-0.42742">
        <ele>13.6</ele>
        <time>2021-06-03T13:56:56.000Z</time>
      </trkpt>
      <trkpt lat="44.97219" lon="-0.42754">
        <ele>13.7</ele>
        <time>2021-06-03T13:56:58.000Z</time>
      </trkpt>
      <trkpt lat="44.9722" lon="-0.42766">
        <ele>13.8</ele>
        <time>2021-06-03T13:57:00.000Z</time>
      </trkpt>
      <trkpt lat="44.97221" lon="-0.42778">
        <ele>14.4</ele>
        <time>2021-06-03T13:57:02.000Z</time>
      </trkpt>
      <trkpt lat="44.97222" lon="-0.42789">
        <ele>15.1</ele>
        <time>2021-06-03T13:57:04.000Z</time>
      </trkpt>
      <trkpt lat="44.97223" lon="-0.428">
        <ele>15.6</ele>
        <time>2021-06-03T13:57:06.000Z</time>
      </trkpt>
      <trkpt lat="44.97224" lon="-0.42811">
        <ele>15.7</ele>
        <time>2021-06-03T13:57:08.000Z</time>
      </trkpt>
      <trkpt lat="44.97225" lon="-0.42822">
        <ele>15.7</ele>
        <time>2021-06-03T13:57:10.000Z</time>
      </trkpt>
      <trkpt lat="44.97226" lon="-0.42833">
        <ele>15.7</ele>
        <time>2021-06-03T13:57:12.000Z</time>
      </trkpt>
      <trkpt lat="44.97227" lon="-0.42838">
        <ele>16</ele>
        <time>2021-06-03T13:57:13.000Z</time>
      </trkpt>
      <trkpt lat="44.97229" lon="-0.42854">
        <ele>16.6</ele>
        <time>2021-06-03T13:57:16.000Z</time>
      </trkpt>
      <trkpt lat="44.97229" lon="-0.42864">
        <ele>16.9</ele>
        <time>2021-06-03T13:57:18.000Z</time>
      </trkpt>
      <trkpt lat="44.9723" lon="-0.42874">
        <ele>17.3</ele>
        <time>2021-06-03T13:57:20.000Z</time>
      </trkpt>
      <trkpt lat="44.97231" lon="-0.42885">
        <ele>17.5</ele>
        <time>2021-06-03T13:57:22.000Z</time>
      </trkpt>
      <trkpt lat="44.97232" lon="-0.42895">
        <ele>17.8</ele>
        <time>2021-06-03T13:57:24.000Z</time>
      </trkpt>
      <trkpt lat="44.97232" lon="-0.42906">
        <ele>17.9</ele>
        <time>2021-06-03T13:57:26.000Z</time>
      </trkpt>
      <trkpt lat="44.97233" lon="-0.42916">
        <ele>17.7</ele>
        <time>2021-06-03T13:57:28.000Z</time>
      </trkpt>
      <trkpt lat="44.97234" lon="-0.42926">
        <ele>17.8</ele>
        <time>2021-06-03T13:57:30.000Z</time>
      </trkpt>
      <trkpt lat="44.97235" lon="-0.42936">
        <ele>17.8</ele>
        <time>2021-06-03T13:57:32.000Z</time>
      </trkpt>
      <trkpt lat="44.97235" lon="-0.42946">
        <ele>18.1</ele>
        <time>2021-06-03T13:57:34.000Z</time>
      </trkpt>
      <trkpt lat="44.97237" lon="-0.42956">
        <ele>18.3</ele>
        <time>2021-06-03T13:57:36.000Z</time>
      </trkpt>
      <trkpt lat="44.97238" lon="-0.42966">
        <ele>18.6</ele>
        <time>2021-06-03T13:57:38.000Z</time>
      </trkpt>
      <trkpt lat="44.97239" lon="-0.42975">
        <ele>19.1</ele>
        <time>2021-06-03T13:57:40.000Z</time>
      </trkpt>
      <trkpt lat="44.9724" lon="-0.42984">
        <ele>19.1</ele>
        <time>2021-06-03T13:57:42.000Z</time>
      </trkpt>
      <trkpt lat="44.97242" lon="-0.42994">
        <ele>19.4</ele>
        <time>2021-06-03T13:57:44.000Z</time>
      </trkpt>
      <trkpt lat="44.97243" lon="-0.43004">
        <ele>19.7</ele>
        <time>2021-06-03T13:57:46.000Z</time>
      </trkpt>
      <trkpt lat="44.97244" lon="-0.43014">
        <ele>19.7</ele>
        <time>2021-06-03T13:57:48.000Z</time>
      </trkpt>
      <trkpt lat="44.97245" lon="-0.43023">
        <ele>19.6</ele>
        <time>2021-06-03T13:57:50.000Z</time>
      </trkpt>
      <trkpt lat="44.97246" lon="-0.43032">
        <ele>20</ele>
        <time>2021-06-03T13:57:52.000Z</time>
      </trkpt>
      <trkpt lat="44.97248" lon="-0.43041">
        <ele>20.3</ele>
        <time>2021-06-03T13:57:54.000Z</time>
      </trkpt>
      <trkpt lat="44.9725" lon="-0.43051">
        <ele>20.1</ele>
        <time>2021-06-03T13:57:56.000Z</time>
      </trkpt>
      <trkpt lat="44.97251" lon="-0.4306">
        <ele>20.5</ele>
        <time>2021-06-03T13:57:58.000Z</time>
      </trkpt>
      <trkpt lat="44.97253" lon="-0.4307">
        <ele>20.8</ele>
        <time>2021-06-03T13:58:00.000Z</time>
      </trkpt>
      <trkpt lat="44.97254" lon="-0.43081">
        <ele>20.7</ele>
        <time>2021-06-03T13:58:02.000Z</time>
      </trkpt>
      <trkpt lat="44.97256" lon="-0.43091">
        <ele>20.4</ele>
        <time>2021-06-03T13:58:04.000Z</time>
      </trkpt>
      <trkpt lat="44.97258" lon="-0.43101">
        <ele>20.9</ele>
        <time>2021-06-03T13:58:06.000Z</time>
      </trkpt>
      <trkpt lat="44.9726" lon="-0.43111">
        <ele>21.2</ele>
        <time>2021-06-03T13:58:08.000Z</time>
      </trkpt>
      <trkpt lat="44.97261" lon="-0.43121">
        <ele>21.5</ele>
        <time>2021-06-03T13:58:10.000Z</time>
      </trkpt>
      <trkpt lat="44.97262" lon="-0.43131">
        <ele>21.5</ele>
        <time>2021-06-03T13:58:12.000Z</time>
      </trkpt>
      <trkpt lat="44.97263" lon="-0.43141">
        <ele>21.3</ele>
        <time>2021-06-03T13:58:14.000Z</time>
      </trkpt>
      <trkpt lat="44.97264" lon="-0.43146">
        <ele>21.3</ele>
        <time>2021-06-03T13:58:15.000Z</time>
      </trkpt>
      <trkpt lat="44.97266" lon="-0.4316">
        <ele>21.6</ele>
        <time>2021-06-03T13:58:18.000Z</time>
      </trkpt>
      <trkpt lat="44.97267" lon="-0.4317">
        <ele>22.5</ele>
        <time>2021-06-03T13:58:20.000Z</time>
      </trkpt>
      <trkpt lat="44.97268" lon="-0.43179">
        <ele>22.7</ele>
        <time>2021-06-03T13:58:22.000Z</time>
      </trkpt>
      <trkpt lat="44.97269" lon="-0.43188">
        <ele>23</ele>
        <time>2021-06-03T13:58:24.000Z</time>
      </trkpt>
      <trkpt lat="44.97269" lon="-0.43197">
        <ele>23.6</ele>
        <time>2021-06-03T13:58:26.000Z</time>
      </trkpt>
      <trkpt lat="44.97269" lon="-0.43207">
        <ele>24.1</ele>
        <time>2021-06-03T13:58:28.000Z</time>
      </trkpt>
      <trkpt lat="44.9727" lon="-0.43216">
        <ele>24.4</ele>
        <time>2021-06-03T13:58:30.000Z</time>
      </trkpt>
      <trkpt lat="44.97271" lon="-0.43225">
        <ele>24.8</ele>
        <time>2021-06-03T13:58:32.000Z</time>
      </trkpt>
      <trkpt lat="44.97271" lon="-0.43234">
        <ele>25.3</ele>
        <time>2021-06-03T13:58:34.000Z</time>
      </trkpt>
      <trkpt lat="44.97272" lon="-0.43243">
        <ele>25.6</ele>
        <time>2021-06-03T13:58:36.000Z</time>
      </trkpt>
      <trkpt lat="44.97272" lon="-0.43251">
        <ele>25.9</ele>
        <time>2021-06-03T13:58:38.000Z</time>
      </trkpt>
      <trkpt lat="44.97272" lon="-0.4326">
        <ele>26.2</ele>
        <time>2021-06-03T13:58:40.000Z</time>
      </trkpt>
      <trkpt lat="44.97273" lon="-0.43269">
        <ele>26.2</ele>
        <time>2021-06-03T13:58:42.000Z</time>
      </trkpt>
      <trkpt lat="44.97273" lon="-0.43277">
        <ele>26.3</ele>
        <time>2021-06-03T13:58:44.000Z</time>
      </trkpt>
      <trkpt lat="44.97273" lon="-0.43287">
        <ele>26.1</ele>
        <time>2021-06-03T13:58:46.000Z</time>
      </trkpt>
      <trkpt lat="44.97274" lon="-0.43296">
        <ele>26</ele>
        <time>2021-06-03T13:58:48.000Z</time>
      </trkpt>
      <trkpt lat="44.97274" lon="-0.43305">
        <ele>26.4</ele>
        <time>2021-06-03T13:58:50.000Z</time>
      </trkpt>
      <trkpt lat="44.97274" lon="-0.43315">
        <ele>26.9</ele>
        <time>2021-06-03T13:58:52.000Z</time>
      </trkpt>
      <trkpt lat="44.97274" lon="-0.43327">
        <ele>27.5</ele>
        <time>2021-06-03T13:58:54.000Z</time>
      </trkpt>
      <trkpt lat="44.97274" lon="-0.43333">
        <ele>27.4</ele>
        <time>2021-06-03T13:58:55.000Z</time>
      </trkpt>
      <trkpt lat="44.97275" lon="-0.4334">
        <ele>27.4</ele>
        <time>2021-06-03T13:58:56.000Z</time>
      </trkpt>
      <trkpt lat="44.97275" lon="-0.43348">
        <ele>27.5</ele>
        <time>2021-06-03T13:58:57.000Z</time>
      </trkpt>
      <trkpt lat="44.97275" lon="-0.43355">
        <ele>27.5</ele>
        <time>2021-06-03T13:58:58.000Z</time>
      </trkpt>
      <trkpt lat="44.97276" lon="-0.43363">
        <ele>27.6</ele>
        <time>2021-06-03T13:58:59.000Z</time>
      </trkpt>
      <trkpt lat="44.97276" lon="-0.43371">
        <ele>27.5</ele>
        <time>2021-06-03T13:59:00.000Z</time>
      </trkpt>
      <trkpt lat="44.97276" lon="-0.43378">
        <ele>27.4</ele>
        <time>2021-06-03T13:59:01.000Z</time>
      </trkpt>
      <trkpt lat="44.97276" lon="-0.43386">
        <ele>27.3</ele>
        <time>2021-06-03T13:59:02.000Z</time>
      </trkpt>
      <trkpt lat="44.97277" lon="-0.43393">
        <ele>27.2</ele>
        <time>2021-06-03T13:59:03.000Z</time>
      </trkpt>
      <trkpt lat="44.97277" lon="-0.434">
        <ele>27.5</ele>
        <time>2021-06-03T13:59:04.000Z</time>
      </trkpt>
      <trkpt lat="44.97277" lon="-0.43407">
        <ele>27.8</ele>
        <time>2021-06-03T13:59:05.000Z</time>
      </trkpt>
      <trkpt lat="44.97278" lon="-0.43414">
        <ele>28</ele>
        <time>2021-06-03T13:59:06.000Z</time>
      </trkpt>
      <trkpt lat="44.97278" lon="-0.43421">
        <ele>28</ele>
        <time>2021-06-03T13:59:07.000Z</time>
      </trkpt>
      <trkpt lat="44.97278" lon="-0.43427">
        <ele>27.9</ele>
        <time>2021-06-03T13:59:08.000Z</time>
      </trkpt>
      <trkpt lat="44.97278" lon="-0.43434">
        <ele>28.1</ele>
        <time>2021-06-03T13:59:09.000Z</time>
      </trkpt>
      <trkpt lat="44.97279" lon="-0.43447">
        <ele>28.5</ele>
        <time>2021-06-03T13:59:11.000Z</time>
      </trkpt>
      <trkpt lat="44.97279" lon="-0.43459">
        <ele>28.8</ele>
        <time>2021-06-03T13:59:13.000Z</time>
      </trkpt>
      <trkpt lat="44.9728" lon="-0.43471">
        <ele>28.9</ele>
        <time>2021-06-03T13:59:15.000Z</time>
      </trkpt>
      <trkpt lat="44.9728" lon="-0.43477">
        <ele>28.9</ele>
        <time>2021-06-03T13:59:16.000Z</time>
      </trkpt>
      <trkpt lat="44.9728" lon="-0.43495">
        <ele>28.9</ele>
        <time>2021-06-03T13:59:19.000Z</time>
      </trkpt>
      <trkpt lat="44.97281" lon="-0.43508">
        <ele>29.1</ele>
        <time>2021-06-03T13:59:21.000Z</time>
      </trkpt>
      <trkpt lat="44.97281" lon="-0.4352">
        <ele>29.6</ele>
        <time>2021-06-03T13:59:23.000Z</time>
      </trkpt>
      <trkpt lat="44.97281" lon="-0.43532">
        <ele>30</ele>
        <time>2021-06-03T13:59:25.000Z</time>
      </trkpt>
      <trkpt lat="44.97282" lon="-0.43545">
        <ele>30</ele>
        <time>2021-06-03T13:59:27.000Z</time>
      </trkpt>
      <trkpt lat="44.97282" lon="-0.43557">
        <ele>30.5</ele>
        <time>2021-06-03T13:59:29.000Z</time>
      </trkpt>
      <trkpt lat="44.97282" lon="-0.43569">
        <ele>30.8</ele>
        <time>2021-06-03T13:59:31.000Z</time>
      </trkpt>
      <trkpt lat="44.97282" lon="-0.43581">
        <ele>31.2</ele>
        <time>2021-06-03T13:59:33.000Z</time>
      </trkpt>
      <trkpt lat="44.97281" lon="-0.43592">
        <ele>31.4</ele>
        <time>2021-06-03T13:59:35.000Z</time>
      </trkpt>
      <trkpt lat="44.9728" lon="-0.43604">
        <ele>31.5</ele>
        <time>2021-06-03T13:59:37.000Z</time>
      </trkpt>
      <trkpt lat="44.97278" lon="-0.43615">
        <ele>32.6</ele>
        <time>2021-06-03T13:59:39.000Z</time>
      </trkpt>
      <trkpt lat="44.97275" lon="-0.43626">
        <ele>32.4</ele>
        <time>2021-06-03T13:59:41.000Z</time>
      </trkpt>
      <trkpt lat="44.97272" lon="-0.43638">
        <ele>32.6</ele>
        <time>2021-06-03T13:59:43.000Z</time>
      </trkpt>
      <trkpt lat="44.97269" lon="-0.43649">
        <ele>32.7</ele>
        <time>2021-06-03T13:59:45.000Z</time>
      </trkpt>
      <trkpt lat="44.97267" lon="-0.43655">
        <ele>32.7</ele>
        <time>2021-06-03T13:59:46.000Z</time>
      </trkpt>
      <trkpt lat="44.97265" lon="-0.43661">
        <ele>33.1</ele>
        <time>2021-06-03T13:59:47.000Z</time>
      </trkpt>
      <trkpt lat="44.97263" lon="-0.43666">
        <ele>33.3</ele>
        <time>2021-06-03T13:59:48.000Z</time>
      </trkpt>
      <trkpt lat="44.97258" lon="-0.43677">
        <ele>33.5</ele>
        <time>2021-06-03T13:59:50.000Z</time>
      </trkpt>
      <trkpt lat="44.97253" lon="-0.43687">
        <ele>33.7</ele>
        <time>2021-06-03T13:59:52.000Z</time>
      </trkpt>
      <trkpt lat="44.97248" lon="-0.43697">
        <ele>33.9</ele>
        <time>2021-06-03T13:59:54.000Z</time>
      </trkpt>
      <trkpt lat="44.97242" lon="-0.43706">
        <ele>34.1</ele>
        <time>2021-06-03T13:59:56.000Z</time>
      </trkpt>
      <trkpt lat="44.97236" lon="-0.43714">
        <ele>34.3</ele>
        <time>2021-06-03T13:59:58.000Z</time>
      </trkpt>
      <trkpt lat="44.9723" lon="-0.43722">
        <ele>34.7</ele>
        <time>2021-06-03T14:00:00.000Z</time>
      </trkpt>
      <trkpt lat="44.97224" lon="-0.4373">
        <ele>35.2</ele>
        <time>2021-06-03T14:00:02.000Z</time>
      </trkpt>
      <trkpt lat="44.97217" lon="-0.43737">
        <ele>35.4</ele>
        <time>2021-06-03T14:00:04.000Z</time>
      </trkpt>
      <trkpt lat="44.9721" lon="-0.43744">
        <ele>35.5</ele>
        <time>2021-06-03T14:00:06.000Z</time>
      </trkpt>
      <trkpt lat="44.97203" lon="-0.43751">
        <ele>35.6</ele>
        <time>2021-06-03T14:00:08.000Z</time>
      </trkpt>
      <trkpt lat="44.97196" lon="-0.43759">
        <ele>35.8</ele>
        <time>2021-06-03T14:00:10.000Z</time>
      </trkpt>
      <trkpt lat="44.97189" lon="-0.43766">
        <ele>35.7</ele>
        <time>2021-06-03T14:00:12.000Z</time>
      </trkpt>
      <trkpt lat="44.97182" lon="-0.43774">
        <ele>36.4</ele>
        <time>2021-06-03T14:00:14.000Z</time>
      </trkpt>
      <trkpt lat="44.97176" lon="-0.43783">
        <ele>36.8</ele>
        <time>2021-06-03T14:00:16.000Z</time>
      </trkpt>
      <trkpt lat="44.97173" lon="-0.43788">
        <ele>36.9</ele>
        <time>2021-06-03T14:00:17.000Z</time>
      </trkpt>
      <trkpt lat="44.97164" lon="-0.43802">
        <ele>36.8</ele>
        <time>2021-06-03T14:00:20.000Z</time>
      </trkpt>
      <trkpt lat="44.97158" lon="-0.43812">
        <ele>36.7</ele>
        <time>2021-06-03T14:00:22.000Z</time>
      </trkpt>
      <trkpt lat="44.97153" lon="-0.43822">
        <ele>37.2</ele>
        <time>2021-06-03T14:00:24.000Z</time>
      </trkpt>
      <trkpt lat="44.9715" lon="-0.43833">
        <ele>37.7</ele>
        <time>2021-06-03T14:00:26.000Z</time>
      </trkpt>
      <trkpt lat="44.97146" lon="-0.43845">
        <ele>37.6</ele>
        <time>2021-06-03T14:00:28.000Z</time>
      </trkpt>
      <trkpt lat="44.97144" lon="-0.43851">
        <ele>37.6</ele>
        <time>2021-06-03T14:00:29.000Z</time>
      </trkpt>
      <trkpt lat="44.97142" lon="-0.43857">
        <ele>37.7</ele>
        <time>2021-06-03T14:00:30.000Z</time>
      </trkpt>
      <trkpt lat="44.97141" lon="-0.43863">
        <ele>37.8</ele>
        <time>2021-06-03T14:00:31.000Z</time>
      </trkpt>
      <trkpt lat="44.9714" lon="-0.43869">
        <ele>37.9</ele>
        <time>2021-06-03T14:00:32.000Z</time>
      </trkpt>
      <trkpt lat="44.97138" lon="-0.43875">
        <ele>37.9</ele>
        <time>2021-06-03T14:00:33.000Z</time>
      </trkpt>
      <trkpt lat="44.97136" lon="-0.43887">
        <ele>38.2</ele>
        <time>2021-06-03T14:00:35.000Z</time>
      </trkpt>
      <trkpt lat="44.97135" lon="-0.439">
        <ele>38.4</ele>
        <time>2021-06-03T14:00:37.000Z</time>
      </trkpt>
      <trkpt lat="44.97134" lon="-0.43912">
        <ele>38.6</ele>
        <time>2021-06-03T14:00:39.000Z</time>
      </trkpt>
      <trkpt lat="44.97132" lon="-0.43925">
        <ele>38.7</ele>
        <time>2021-06-03T14:00:41.000Z</time>
      </trkpt>
      <trkpt lat="44.97131" lon="-0.43931">
        <ele>38.8</ele>
        <time>2021-06-03T14:00:42.000Z</time>
      </trkpt>
      <trkpt lat="44.9713" lon="-0.43937">
        <ele>38.9</ele>
        <time>2021-06-03T14:00:43.000Z</time>
      </trkpt>
      <trkpt lat="44.9713" lon="-0.43944">
        <ele>39</ele>
        <time>2021-06-03T14:00:44.000Z</time>
      </trkpt>
      <trkpt lat="44.97129" lon="-0.4395">
        <ele>39.1</ele>
        <time>2021-06-03T14:00:45.000Z</time>
      </trkpt>
      <trkpt lat="44.97128" lon="-0.43958">
        <ele>39.2</ele>
        <time>2021-06-03T14:00:46.000Z</time>
      </trkpt>
      <trkpt lat="44.97128" lon="-0.43965">
        <ele>39.2</ele>
        <time>2021-06-03T14:00:47.000Z</time>
      </trkpt>
      <trkpt lat="44.97127" lon="-0.43972">
        <ele>39.3</ele>
        <time>2021-06-03T14:00:48.000Z</time>
      </trkpt>
      <trkpt lat="44.97127" lon="-0.43978">
        <ele>39.3</ele>
        <time>2021-06-03T14:00:49.000Z</time>
      </trkpt>
      <trkpt lat="44.97126" lon="-0.43985">
        <ele>39.4</ele>
        <time>2021-06-03T14:00:50.000Z</time>
      </trkpt>
      <trkpt lat="44.97126" lon="-0.43991">
        <ele>39.4</ele>
        <time>2021-06-03T14:00:51.000Z</time>
      </trkpt>
      <trkpt lat="44.97125" lon="-0.43998">
        <ele>39.4</ele>
        <time>2021-06-03T14:00:52.000Z</time>
      </trkpt>
      <trkpt lat="44.97125" lon="-0.44005">
        <ele>39.5</ele>
        <time>2021-06-03T14:00:53.000Z</time>
      </trkpt>
      <trkpt lat="44.97124" lon="-0.44011">
        <ele>39.5</ele>
        <time>2021-06-03T14:00:54.000Z</time>
      </trkpt>
      <trkpt lat="44.97123" lon="-0.44018">
        <ele>39.6</ele>
        <time>2021-06-03T14:00:55.000Z</time>
      </trkpt>
      <trkpt lat="44.97122" lon="-0.44024">
        <ele>39.7</ele>
        <time>2021-06-03T14:00:56.000Z</time>
      </trkpt>
      <trkpt lat="44.97121" lon="-0.4403">
        <ele>39.8</ele>
        <time>2021-06-03T14:00:57.000Z</time>
      </trkpt>
      <trkpt lat="44.97119" lon="-0.44036">
        <ele>40.2</ele>
        <time>2021-06-03T14:00:58.000Z</time>
      </trkpt>
      <trkpt lat="44.97117" lon="-0.44049">
        <ele>40.8</ele>
        <time>2021-06-03T14:01:00.000Z</time>
      </trkpt>
      <trkpt lat="44.97116" lon="-0.44055">
        <ele>40.8</ele>
        <time>2021-06-03T14:01:01.000Z</time>
      </trkpt>
      <trkpt lat="44.97115" lon="-0.44062">
        <ele>40.8</ele>
        <time>2021-06-03T14:01:02.000Z</time>
      </trkpt>
      <trkpt lat="44.97114" lon="-0.44068">
        <ele>40.8</ele>
        <time>2021-06-03T14:01:03.000Z</time>
      </trkpt>
      <trkpt lat="44.97113" lon="-0.44075">
        <ele>40.8</ele>
        <time>2021-06-03T14:01:04.000Z</time>
      </trkpt>
      <trkpt lat="44.97112" lon="-0.44081">
        <ele>41.2</ele>
        <time>2021-06-03T14:01:05.000Z</time>
      </trkpt>
      <trkpt lat="44.9711" lon="-0.44094">
        <ele>41.9</ele>
        <time>2021-06-03T14:01:07.000Z</time>
      </trkpt>
      <trkpt lat="44.97109" lon="-0.441">
        <ele>41.7</ele>
        <time>2021-06-03T14:01:08.000Z</time>
      </trkpt>
      <trkpt lat="44.97109" lon="-0.44106">
        <ele>41.5</ele>
        <time>2021-06-03T14:01:09.000Z</time>
      </trkpt>
      <trkpt lat="44.97108" lon="-0.44113">
        <ele>41.2</ele>
        <time>2021-06-03T14:01:10.000Z</time>
      </trkpt>
      <trkpt lat="44.97107" lon="-0.4412">
        <ele>41</ele>
        <time>2021-06-03T14:01:11.000Z</time>
      </trkpt>
      <trkpt lat="44.97107" lon="-0.44126">
        <ele>40.8</ele>
        <time>2021-06-03T14:01:12.000Z</time>
      </trkpt>
      <trkpt lat="44.97106" lon="-0.44133">
        <ele>41.1</ele>
        <time>2021-06-03T14:01:13.000Z</time>
      </trkpt>
      <trkpt lat="44.97106" lon="-0.4414">
        <ele>41.2</ele>
        <time>2021-06-03T14:01:14.000Z</time>
      </trkpt>
      <trkpt lat="44.97105" lon="-0.44147">
        <ele>41.8</ele>
        <time>2021-06-03T14:01:15.000Z</time>
      </trkpt>
      <trkpt lat="44.97105" lon="-0.44154">
        <ele>42.2</ele>
        <time>2021-06-03T14:01:16.000Z</time>
      </trkpt>
      <trkpt lat="44.97105" lon="-0.44161">
        <ele>42.2</ele>
        <time>2021-06-03T14:01:17.000Z</time>
      </trkpt>
      <trkpt lat="44.97105" lon="-0.44168">
        <ele>42.3</ele>
        <time>2021-06-03T14:01:18.000Z</time>
      </trkpt>
      <trkpt lat="44.97106" lon="-0.44175">
        <ele>42.4</ele>
        <time>2021-06-03T14:01:19.000Z</time>
      </trkpt>
      <trkpt lat="44.97106" lon="-0.44182">
        <ele>42.1</ele>
        <time>2021-06-03T14:01:20.000Z</time>
      </trkpt>
      <trkpt lat="44.97107" lon="-0.44188">
        <ele>41.8</ele>
        <time>2021-06-03T14:01:21.000Z</time>
      </trkpt>
      <trkpt lat="44.97107" lon="-0.44195">
        <ele>41.9</ele>
        <time>2021-06-03T14:01:22.000Z</time>
      </trkpt>
      <trkpt lat="44.97108" lon="-0.44201">
        <ele>42</ele>
        <time>2021-06-03T14:01:23.000Z</time>
      </trkpt>
      <trkpt lat="44.97109" lon="-0.44207">
        <ele>41.9</ele>
        <time>2021-06-03T14:01:24.000Z</time>
      </trkpt>
      <trkpt lat="44.97111" lon="-0.44219">
        <ele>41.9</ele>
        <time>2021-06-03T14:01:26.000Z</time>
      </trkpt>
      <trkpt lat="44.97113" lon="-0.4423">
        <ele>41.8</ele>
        <time>2021-06-03T14:01:28.000Z</time>
      </trkpt>
      <trkpt lat="44.97114" lon="-0.4424">
        <ele>41.3</ele>
        <time>2021-06-03T14:01:30.000Z</time>
      </trkpt>
      <trkpt lat="44.97116" lon="-0.44249">
        <ele>41.3</ele>
        <time>2021-06-03T14:01:32.000Z</time>
      </trkpt>
      <trkpt lat="44.97118" lon="-0.44257">
        <ele>41.4</ele>
        <time>2021-06-03T14:01:34.000Z</time>
      </trkpt>
      <trkpt lat="44.9712" lon="-0.44266">
        <ele>41.5</ele>
        <time>2021-06-03T14:01:36.000Z</time>
      </trkpt>
      <trkpt lat="44.97121" lon="-0.44274">
        <ele>41.6</ele>
        <time>2021-06-03T14:01:38.000Z</time>
      </trkpt>
      <trkpt lat="44.97124" lon="-0.44286">
        <ele>41.8</ele>
        <time>2021-06-03T14:01:41.000Z</time>
      </trkpt>
      <trkpt lat="44.97126" lon="-0.44296">
        <ele>41.7</ele>
        <time>2021-06-03T14:01:44.000Z</time>
      </trkpt>
      <trkpt lat="44.97128" lon="-0.44306">
        <ele>42</ele>
        <time>2021-06-03T14:01:47.000Z</time>
      </trkpt>
      <trkpt lat="44.9713" lon="-0.44317">
        <ele>41.3</ele>
        <time>2021-06-03T14:01:51.000Z</time>
      </trkpt>
      <trkpt lat="44.97132" lon="-0.44329">
        <ele>41.2</ele>
        <time>2021-06-03T14:01:56.000Z</time>
      </trkpt>
      <trkpt lat="44.97133" lon="-0.44339">
        <ele>41.7</ele>
        <time>2021-06-03T14:02:00.000Z</time>
      </trkpt>
      <trkpt lat="44.97134" lon="-0.44351">
        <ele>41.4</ele>
        <time>2021-06-03T14:02:04.000Z</time>
      </trkpt>
      <trkpt lat="44.97135" lon="-0.44364">
        <ele>41</ele>
        <time>2021-06-03T14:02:07.000Z</time>
      </trkpt>
      <trkpt lat="44.97134" lon="-0.44372">
        <ele>41.3</ele>
        <time>2021-06-03T14:02:09.000Z</time>
      </trkpt>
      <trkpt lat="44.97134" lon="-0.44382">
        <ele>41.5</ele>
        <time>2021-06-03T14:02:11.000Z</time>
      </trkpt>
      <trkpt lat="44.97134" lon="-0.44392">
        <ele>41.3</ele>
        <time>2021-06-03T14:02:13.000Z</time>
      </trkpt>
      <trkpt lat="44.97133" lon="-0.44402">
        <ele>41.2</ele>
        <time>2021-06-03T14:02:15.000Z</time>
      </trkpt>
      <trkpt lat="44.97133" lon="-0.44413">
        <ele>40.8</ele>
        <time>2021-06-03T14:02:17.000Z</time>
      </trkpt>
      <trkpt lat="44.97132" lon="-0.44425">
        <ele>40.7</ele>
        <time>2021-06-03T14:02:19.000Z</time>
      </trkpt>
      <trkpt lat="44.97131" lon="-0.44431">
        <ele>40.7</ele>
        <time>2021-06-03T14:02:20.000Z</time>
      </trkpt>
      <trkpt lat="44.9713" lon="-0.44443">
        <ele>41.1</ele>
        <time>2021-06-03T14:02:22.000Z</time>
      </trkpt>
      <trkpt lat="44.97129" lon="-0.4445">
        <ele>41.2</ele>
        <time>2021-06-03T14:02:23.000Z</time>
      </trkpt>
      <trkpt lat="44.97128" lon="-0.44456">
        <ele>40.9</ele>
        <time>2021-06-03T14:02:24.000Z</time>
      </trkpt>
      <trkpt lat="44.97127" lon="-0.44463">
        <ele>40.7</ele>
        <time>2021-06-03T14:02:25.000Z</time>
      </trkpt>
      <trkpt lat="44.97127" lon="-0.4447">
        <ele>40.5</ele>
        <time>2021-06-03T14:02:26.000Z</time>
      </trkpt>
      <trkpt lat="44.97126" lon="-0.44477">
        <ele>40.4</ele>
        <time>2021-06-03T14:02:27.000Z</time>
      </trkpt>
      <trkpt lat="44.97125" lon="-0.44484">
        <ele>40.1</ele>
        <time>2021-06-03T14:02:28.000Z</time>
      </trkpt>
      <trkpt lat="44.97124" lon="-0.44492">
        <ele>40</ele>
        <time>2021-06-03T14:02:29.000Z</time>
      </trkpt>
      <trkpt lat="44.97124" lon="-0.44499">
        <ele>39.8</ele>
        <time>2021-06-03T14:02:30.000Z</time>
      </trkpt>
      <trkpt lat="44.97123" lon="-0.44506">
        <ele>39.8</ele>
        <time>2021-06-03T14:02:31.000Z</time>
      </trkpt>
      <trkpt lat="44.97122" lon="-0.44513">
        <ele>39.7</ele>
        <time>2021-06-03T14:02:32.000Z</time>
      </trkpt>
      <trkpt lat="44.97121" lon="-0.44521">
        <ele>39.9</ele>
        <time>2021-06-03T14:02:33.000Z</time>
      </trkpt>
      <trkpt lat="44.9712" lon="-0.44528">
        <ele>40.1</ele>
        <time>2021-06-03T14:02:34.000Z</time>
      </trkpt>
      <trkpt lat="44.9712" lon="-0.44535">
        <ele>40.2</ele>
        <time>2021-06-03T14:02:35.000Z</time>
      </trkpt>
      <trkpt lat="44.97119" lon="-0.44542">
        <ele>40.2</ele>
        <time>2021-06-03T14:02:36.000Z</time>
      </trkpt>
      <trkpt lat="44.97118" lon="-0.44549">
        <ele>40.3</ele>
        <time>2021-06-03T14:02:37.000Z</time>
      </trkpt>
      <trkpt lat="44.97118" lon="-0.44556">
        <ele>39.8</ele>
        <time>2021-06-03T14:02:38.000Z</time>
      </trkpt>
      <trkpt lat="44.97118" lon="-0.44563">
        <ele>39.4</ele>
        <time>2021-06-03T14:02:39.000Z</time>
      </trkpt>
      <trkpt lat="44.97119" lon="-0.44569">
        <ele>39</ele>
        <time>2021-06-03T14:02:40.000Z</time>
      </trkpt>
      <trkpt lat="44.97119" lon="-0.44576">
        <ele>38.8</ele>
        <time>2021-06-03T14:02:41.000Z</time>
      </trkpt>
      <trkpt lat="44.9712" lon="-0.44583">
        <ele>38.5</ele>
        <time>2021-06-03T14:02:42.000Z</time>
      </trkpt>
      <trkpt lat="44.9712" lon="-0.4459">
        <ele>38.4</ele>
        <time>2021-06-03T14:02:43.000Z</time>
      </trkpt>
      <trkpt lat="44.9712" lon="-0.44596">
        <ele>38.4</ele>
        <time>2021-06-03T14:02:44.000Z</time>
      </trkpt>
      <trkpt lat="44.97121" lon="-0.44603">
        <ele>38.7</ele>
        <time>2021-06-03T14:02:45.000Z</time>
      </trkpt>
      <trkpt lat="44.97121" lon="-0.4461">
        <ele>39</ele>
        <time>2021-06-03T14:02:46.000Z</time>
      </trkpt>
      <trkpt lat="44.97122" lon="-0.44616">
        <ele>39.1</ele>
        <time>2021-06-03T14:02:47.000Z</time>
      </trkpt>
      <trkpt lat="44.97122" lon="-0.44623">
        <ele>39.2</ele>
        <time>2021-06-03T14:02:48.000Z</time>
      </trkpt>
      <trkpt lat="44.97124" lon="-0.44635">
        <ele>39</ele>
        <time>2021-06-03T14:02:50.000Z</time>
      </trkpt>
      <trkpt lat="44.97124" lon="-0.44647">
        <ele>38.9</ele>
        <time>2021-06-03T14:02:52.000Z</time>
      </trkpt>
      <trkpt lat="44.97124" lon="-0.44659">
        <ele>39</ele>
        <time>2021-06-03T14:02:54.000Z</time>
      </trkpt>
      <trkpt lat="44.97123" lon="-0.4467">
        <ele>38.6</ele>
        <time>2021-06-03T14:02:56.000Z</time>
      </trkpt>
      <trkpt lat="44.97121" lon="-0.44679">
        <ele>39.1</ele>
        <time>2021-06-03T14:02:58.000Z</time>
      </trkpt>
      <trkpt lat="44.97119" lon="-0.44689">
        <ele>39.1</ele>
        <time>2021-06-03T14:03:00.000Z</time>
      </trkpt>
      <trkpt lat="44.97116" lon="-0.44698">
        <ele>39.2</ele>
        <time>2021-06-03T14:03:02.000Z</time>
      </trkpt>
      <trkpt lat="44.97112" lon="-0.44706">
        <ele>39.2</ele>
        <time>2021-06-03T14:03:04.000Z</time>
      </trkpt>
      <trkpt lat="44.97108" lon="-0.44713">
        <ele>39.2</ele>
        <time>2021-06-03T14:03:06.000Z</time>
      </trkpt>
      <trkpt lat="44.97104" lon="-0.44721">
        <ele>39.1</ele>
        <time>2021-06-03T14:03:08.000Z</time>
      </trkpt>
      <trkpt lat="44.971" lon="-0.44729">
        <ele>38.7</ele>
        <time>2021-06-03T14:03:10.000Z</time>
      </trkpt>
      <trkpt lat="44.97097" lon="-0.44739">
        <ele>39</ele>
        <time>2021-06-03T14:03:12.000Z</time>
      </trkpt>
      <trkpt lat="44.97096" lon="-0.44752">
        <ele>38.8</ele>
        <time>2021-06-03T14:03:14.000Z</time>
      </trkpt>
      <trkpt lat="44.97097" lon="-0.44758">
        <ele>38.6</ele>
        <time>2021-06-03T14:03:15.000Z</time>
      </trkpt>
      <trkpt lat="44.97099" lon="-0.44764">
        <ele>38.8</ele>
        <time>2021-06-03T14:03:16.000Z</time>
      </trkpt>
      <trkpt lat="44.97102" lon="-0.4477">
        <ele>38.9</ele>
        <time>2021-06-03T14:03:17.000Z</time>
      </trkpt>
      <trkpt lat="44.97104" lon="-0.44776">
        <ele>38.7</ele>
        <time>2021-06-03T14:03:18.000Z</time>
      </trkpt>
      <trkpt lat="44.97106" lon="-0.44782">
        <ele>38.5</ele>
        <time>2021-06-03T14:03:19.000Z</time>
      </trkpt>
      <trkpt lat="44.97108" lon="-0.44788">
        <ele>38.4</ele>
        <time>2021-06-03T14:03:20.000Z</time>
      </trkpt>
      <trkpt lat="44.97111" lon="-0.44794">
        <ele>38.2</ele>
        <time>2021-06-03T14:03:21.000Z</time>
      </trkpt>
      <trkpt lat="44.97113" lon="-0.448">
        <ele>38.1</ele>
        <time>2021-06-03T14:03:22.000Z</time>
      </trkpt>
      <trkpt lat="44.97115" lon="-0.44806">
        <ele>37.8</ele>
        <time>2021-06-03T14:03:23.000Z</time>
      </trkpt>
      <trkpt lat="44.97117" lon="-0.44813">
        <ele>37.6</ele>
        <time>2021-06-03T14:03:24.000Z</time>
      </trkpt>
      <trkpt lat="44.97118" lon="-0.44819">
        <ele>37.5</ele>
        <time>2021-06-03T14:03:25.000Z</time>
      </trkpt>
      <trkpt lat="44.9712" lon="-0.44826">
        <ele>37.3</ele>
        <time>2021-06-03T14:03:26.000Z</time>
      </trkpt>
      <trkpt lat="44.97121" lon="-0.44832">
        <ele>37.2</ele>
        <time>2021-06-03T14:03:27.000Z</time>
      </trkpt>
      <trkpt lat="44.97123" lon="-0.44839">
        <ele>36.9</ele>
        <time>2021-06-03T14:03:28.000Z</time>
      </trkpt>
      <trkpt lat="44.97124" lon="-0.44845">
        <ele>36.7</ele>
        <time>2021-06-03T14:03:29.000Z</time>
      </trkpt>
      <trkpt lat="44.97125" lon="-0.44851">
        <ele>36.7</ele>
        <time>2021-06-03T14:03:30.000Z</time>
      </trkpt>
      <trkpt lat="44.97126" lon="-0.44857">
        <ele>36.7</ele>
        <time>2021-06-03T14:03:31.000Z</time>
      </trkpt>
      <trkpt lat="44.97126" lon="-0.44864">
        <ele>36.7</ele>
        <time>2021-06-03T14:03:32.000Z</time>
      </trkpt>
      <trkpt lat="44.97127" lon="-0.4487">
        <ele>36.9</ele>
        <time>2021-06-03T14:03:33.000Z</time>
      </trkpt>
      <trkpt lat="44.97128" lon="-0.44877">
        <ele>37.1</ele>
        <time>2021-06-03T14:03:34.000Z</time>
      </trkpt>
      <trkpt lat="44.97128" lon="-0.44883">
        <ele>37</ele>
        <time>2021-06-03T14:03:35.000Z</time>
      </trkpt>
      <trkpt lat="44.97129" lon="-0.4489">
        <ele>36.9</ele>
        <time>2021-06-03T14:03:36.000Z</time>
      </trkpt>
      <trkpt lat="44.9713" lon="-0.44897">
        <ele>37</ele>
        <time>2021-06-03T14:03:37.000Z</time>
      </trkpt>
      <trkpt lat="44.97131" lon="-0.44904">
        <ele>37</ele>
        <time>2021-06-03T14:03:38.000Z</time>
      </trkpt>
      <trkpt lat="44.97132" lon="-0.44912">
        <ele>37</ele>
        <time>2021-06-03T14:03:39.000Z</time>
      </trkpt>
      <trkpt lat="44.97133" lon="-0.44919">
        <ele>36.7</ele>
        <time>2021-06-03T14:03:40.000Z</time>
      </trkpt>
      <trkpt lat="44.97135" lon="-0.44927">
        <ele>36.4</ele>
        <time>2021-06-03T14:03:41.000Z</time>
      </trkpt>
      <trkpt lat="44.97136" lon="-0.44935">
        <ele>36.4</ele>
        <time>2021-06-03T14:03:42.000Z</time>
      </trkpt>
      <trkpt lat="44.97138" lon="-0.44943">
        <ele>36.3</ele>
        <time>2021-06-03T14:03:43.000Z</time>
      </trkpt>
      <trkpt lat="44.9714" lon="-0.44951">
        <ele>36.2</ele>
        <time>2021-06-03T14:03:44.000Z</time>
      </trkpt>
      <trkpt lat="44.97141" lon="-0.44959">
        <ele>36.1</ele>
        <time>2021-06-03T14:03:45.000Z</time>
      </trkpt>
      <trkpt lat="44.97142" lon="-0.44967">
        <ele>36</ele>
        <time>2021-06-03T14:03:46.000Z</time>
      </trkpt>
      <trkpt lat="44.97143" lon="-0.44976">
        <ele>36</ele>
        <time>2021-06-03T14:03:47.000Z</time>
      </trkpt>
      <trkpt lat="44.97143" lon="-0.44985">
        <ele>35.9</ele>
        <time>2021-06-03T14:03:48.000Z</time>
      </trkpt>
      <trkpt lat="44.97144" lon="-0.44994">
        <ele>35.6</ele>
        <time>2021-06-03T14:03:49.000Z</time>
      </trkpt>
      <trkpt lat="44.97144" lon="-0.45003">
        <ele>35.4</ele>
        <time>2021-06-03T14:03:50.000Z</time>
      </trkpt>
      <trkpt lat="44.97143" lon="-0.45012">
        <ele>35.3</ele>
        <time>2021-06-03T14:03:51.000Z</time>
      </trkpt>
      <trkpt lat="44.97142" lon="-0.45021">
        <ele>35.1</ele>
        <time>2021-06-03T14:03:52.000Z</time>
      </trkpt>
      <trkpt lat="44.97141" lon="-0.4503">
        <ele>35</ele>
        <time>2021-06-03T14:03:53.000Z</time>
      </trkpt>
      <trkpt lat="44.9714" lon="-0.45038">
        <ele>34.9</ele>
        <time>2021-06-03T14:03:54.000Z</time>
      </trkpt>
      <trkpt lat="44.97138" lon="-0.45047">
        <ele>34.8</ele>
        <time>2021-06-03T14:03:55.000Z</time>
      </trkpt>
      <trkpt lat="44.97136" lon="-0.45055">
        <ele>34.7</ele>
        <time>2021-06-03T14:03:56.000Z</time>
      </trkpt>
      <trkpt lat="44.97133" lon="-0.45063">
        <ele>34.6</ele>
        <time>2021-06-03T14:03:57.000Z</time>
      </trkpt>
      <trkpt lat="44.97131" lon="-0.45071">
        <ele>34.6</ele>
        <time>2021-06-03T14:03:58.000Z</time>
      </trkpt>
      <trkpt lat="44.97128" lon="-0.45078">
        <ele>34.4</ele>
        <time>2021-06-03T14:03:59.000Z</time>
      </trkpt>
      <trkpt lat="44.97125" lon="-0.45085">
        <ele>34.4</ele>
        <time>2021-06-03T14:04:00.000Z</time>
      </trkpt>
      <trkpt lat="44.97122" lon="-0.45093">
        <ele>34.4</ele>
        <time>2021-06-03T14:04:01.000Z</time>
      </trkpt>
      <trkpt lat="44.97119" lon="-0.451">
        <ele>34.4</ele>
        <time>2021-06-03T14:04:02.000Z</time>
      </trkpt>
      <trkpt lat="44.97117" lon="-0.45107">
        <ele>34.4</ele>
        <time>2021-06-03T14:04:03.000Z</time>
      </trkpt>
      <trkpt lat="44.97115" lon="-0.45115">
        <ele>34.4</ele>
        <time>2021-06-03T14:04:04.000Z</time>
      </trkpt>
      <trkpt lat="44.97113" lon="-0.45122">
        <ele>34.4</ele>
        <time>2021-06-03T14:04:05.000Z</time>
      </trkpt>
      <trkpt lat="44.97113" lon="-0.4513">
        <ele>34.4</ele>
        <time>2021-06-03T14:04:06.000Z</time>
      </trkpt>
      <trkpt lat="44.97113" lon="-0.45138">
        <ele>34.4</ele>
        <time>2021-06-03T14:04:07.000Z</time>
      </trkpt>
      <trkpt lat="44.97114" lon="-0.45146">
        <ele>34.2</ele>
        <time>2021-06-03T14:04:08.000Z</time>
      </trkpt>
      <trkpt lat="44.97114" lon="-0.45154">
        <ele>34.1</ele>
        <time>2021-06-03T14:04:09.000Z</time>
      </trkpt>
      <trkpt lat="44.97115" lon="-0.45162">
        <ele>34.1</ele>
        <time>2021-06-03T14:04:10.000Z</time>
      </trkpt>
      <trkpt lat="44.97116" lon="-0.45169">
        <ele>34.1</ele>
        <time>2021-06-03T14:04:11.000Z</time>
      </trkpt>
      <trkpt lat="44.97117" lon="-0.45176">
        <ele>34.1</ele>
        <time>2021-06-03T14:04:12.000Z</time>
      </trkpt>
      <trkpt lat="44.97118" lon="-0.45184">
        <ele>34.3</ele>
        <time>2021-06-03T14:04:13.000Z</time>
      </trkpt>
      <trkpt lat="44.97119" lon="-0.45191">
        <ele>34.3</ele>
        <time>2021-06-03T14:04:14.000Z</time>
      </trkpt>
      <trkpt lat="44.9712" lon="-0.45198">
        <ele>33.8</ele>
        <time>2021-06-03T14:04:15.000Z</time>
      </trkpt>
      <trkpt lat="44.9712" lon="-0.45204">
        <ele>33.4</ele>
        <time>2021-06-03T14:04:16.000Z</time>
      </trkpt>
      <trkpt lat="44.97121" lon="-0.45211">
        <ele>33.2</ele>
        <time>2021-06-03T14:04:17.000Z</time>
      </trkpt>
      <trkpt lat="44.97123" lon="-0.45223">
        <ele>33.6</ele>
        <time>2021-06-03T14:04:19.000Z</time>
      </trkpt>
      <trkpt lat="44.97124" lon="-0.45235">
        <ele>33.6</ele>
        <time>2021-06-03T14:04:21.000Z</time>
      </trkpt>
      <trkpt lat="44.97125" lon="-0.45241">
        <ele>33.3</ele>
        <time>2021-06-03T14:04:22.000Z</time>
      </trkpt>
      <trkpt lat="44.97127" lon="-0.45259">
        <ele>32.8</ele>
        <time>2021-06-03T14:04:25.000Z</time>
      </trkpt>
      <trkpt lat="44.97129" lon="-0.4527">
        <ele>32.5</ele>
        <time>2021-06-03T14:04:27.000Z</time>
      </trkpt>
      <trkpt lat="44.97131" lon="-0.4528">
        <ele>32.3</ele>
        <time>2021-06-03T14:04:29.000Z</time>
      </trkpt>
      <trkpt lat="44.97134" lon="-0.45291">
        <ele>32.4</ele>
        <time>2021-06-03T14:04:32.000Z</time>
      </trkpt>
      <trkpt lat="44.97138" lon="-0.45303">
        <ele>32.9</ele>
        <time>2021-06-03T14:04:37.000Z</time>
      </trkpt>
      <trkpt lat="44.97142" lon="-0.45314">
        <ele>32.1</ele>
        <time>2021-06-03T14:04:48.000Z</time>
      </trkpt>
      <trkpt lat="44.97145" lon="-0.45323">
        <ele>31.8</ele>
        <time>2021-06-03T14:04:51.000Z</time>
      </trkpt>
      <trkpt lat="44.9715" lon="-0.45332">
        <ele>31.9</ele>
        <time>2021-06-03T14:04:54.000Z</time>
      </trkpt>
      <trkpt lat="44.97147" lon="-0.45344">
        <ele>31.9</ele>
        <time>2021-06-03T14:04:58.000Z</time>
      </trkpt>
      <trkpt lat="44.97141" lon="-0.45347">
        <ele>31.7</ele>
        <time>2021-06-03T14:05:00.000Z</time>
      </trkpt>
      <trkpt lat="44.97135" lon="-0.45351">
        <ele>31.5</ele>
        <time>2021-06-03T14:05:02.000Z</time>
      </trkpt>
      <trkpt lat="44.97129" lon="-0.45356">
        <ele>31.5</ele>
        <time>2021-06-03T14:05:04.000Z</time>
      </trkpt>
      <trkpt lat="44.97122" lon="-0.4536">
        <ele>31.7</ele>
        <time>2021-06-03T14:05:06.000Z</time>
      </trkpt>
      <trkpt lat="44.97115" lon="-0.45364">
        <ele>31.2</ele>
        <time>2021-06-03T14:05:08.000Z</time>
      </trkpt>
      <trkpt lat="44.97107" lon="-0.45368">
        <ele>30.9</ele>
        <time>2021-06-03T14:05:10.000Z</time>
      </trkpt>
      <trkpt lat="44.97099" lon="-0.45372">
        <ele>30.9</ele>
        <time>2021-06-03T14:05:12.000Z</time>
      </trkpt>
      <trkpt lat="44.97091" lon="-0.45376">
        <ele>30.9</ele>
        <time>2021-06-03T14:05:14.000Z</time>
      </trkpt>
      <trkpt lat="44.97087" lon="-0.45378">
        <ele>31</ele>
        <time>2021-06-03T14:05:15.000Z</time>
      </trkpt>
      <trkpt lat="44.97083" lon="-0.45381">
        <ele>31</ele>
        <time>2021-06-03T14:05:16.000Z</time>
      </trkpt>
      <trkpt lat="44.97078" lon="-0.45383">
        <ele>30.8</ele>
        <time>2021-06-03T14:05:17.000Z</time>
      </trkpt>
      <trkpt lat="44.97074" lon="-0.45385">
        <ele>30.6</ele>
        <time>2021-06-03T14:05:18.000Z</time>
      </trkpt>
      <trkpt lat="44.97069" lon="-0.45387">
        <ele>30.3</ele>
        <time>2021-06-03T14:05:19.000Z</time>
      </trkpt>
      <trkpt lat="44.97064" lon="-0.45389">
        <ele>30</ele>
        <time>2021-06-03T14:05:20.000Z</time>
      </trkpt>
      <trkpt lat="44.97059" lon="-0.45392">
        <ele>29.9</ele>
        <time>2021-06-03T14:05:21.000Z</time>
      </trkpt>
      <trkpt lat="44.97054" lon="-0.45394">
        <ele>29.8</ele>
        <time>2021-06-03T14:05:22.000Z</time>
      </trkpt>
      <trkpt lat="44.97049" lon="-0.45397">
        <ele>29.8</ele>
        <time>2021-06-03T14:05:23.000Z</time>
      </trkpt>
      <trkpt lat="44.97044" lon="-0.454">
        <ele>29.6</ele>
        <time>2021-06-03T14:05:24.000Z</time>
      </trkpt>
      <trkpt lat="44.97039" lon="-0.45403">
        <ele>29.4</ele>
        <time>2021-06-03T14:05:25.000Z</time>
      </trkpt>
      <trkpt lat="44.97033" lon="-0.45405">
        <ele>29.3</ele>
        <time>2021-06-03T14:05:26.000Z</time>
      </trkpt>
      <trkpt lat="44.97028" lon="-0.45408">
        <ele>29.2</ele>
        <time>2021-06-03T14:05:27.000Z</time>
      </trkpt>
      <trkpt lat="44.97022" lon="-0.45411">
        <ele>29.2</ele>
        <time>2021-06-03T14:05:28.000Z</time>
      </trkpt>
      <trkpt lat="44.97016" lon="-0.45414">
        <ele>29.1</ele>
        <time>2021-06-03T14:05:29.000Z</time>
      </trkpt>
      <trkpt lat="44.97011" lon="-0.45417">
        <ele>29.1</ele>
        <time>2021-06-03T14:05:30.000Z</time>
      </trkpt>
      <trkpt lat="44.97005" lon="-0.4542">
        <ele>28.6</ele>
        <time>2021-06-03T14:05:31.000Z</time>
      </trkpt>
      <trkpt lat="44.96999" lon="-0.45423">
        <ele>28.3</ele>
        <time>2021-06-03T14:05:32.000Z</time>
      </trkpt>
      <trkpt lat="44.96993" lon="-0.45426">
        <ele>28</ele>
        <time>2021-06-03T14:05:33.000Z</time>
      </trkpt>
      <trkpt lat="44.96987" lon="-0.45429">
        <ele>27.9</ele>
        <time>2021-06-03T14:05:34.000Z</time>
      </trkpt>
      <trkpt lat="44.96981" lon="-0.45433">
        <ele>27.7</ele>
        <time>2021-06-03T14:05:35.000Z</time>
      </trkpt>
      <trkpt lat="44.96976" lon="-0.45436">
        <ele>27.6</ele>
        <time>2021-06-03T14:05:36.000Z</time>
      </trkpt>
      <trkpt lat="44.9697" lon="-0.45439">
        <ele>27.5</ele>
        <time>2021-06-03T14:05:37.000Z</time>
      </trkpt>
      <trkpt lat="44.96965" lon="-0.45442">
        <ele>27.2</ele>
        <time>2021-06-03T14:05:38.000Z</time>
      </trkpt>
      <trkpt lat="44.96959" lon="-0.45445">
        <ele>26.9</ele>
        <time>2021-06-03T14:05:39.000Z</time>
      </trkpt>
      <trkpt lat="44.96953" lon="-0.45448">
        <ele>26.7</ele>
        <time>2021-06-03T14:05:40.000Z</time>
      </trkpt>
      <trkpt lat="44.96947" lon="-0.45451">
        <ele>26.1</ele>
        <time>2021-06-03T14:05:41.000Z</time>
      </trkpt>
      <trkpt lat="44.96941" lon="-0.45454">
        <ele>25.7</ele>
        <time>2021-06-03T14:05:42.000Z</time>
      </trkpt>
      <trkpt lat="44.96935" lon="-0.45457">
        <ele>25.5</ele>
        <time>2021-06-03T14:05:43.000Z</time>
      </trkpt>
      <trkpt lat="44.96929" lon="-0.4546">
        <ele>25.3</ele>
        <time>2021-06-03T14:05:44.000Z</time>
      </trkpt>
      <trkpt lat="44.96923" lon="-0.45462">
        <ele>24.9</ele>
        <time>2021-06-03T14:05:45.000Z</time>
      </trkpt>
      <trkpt lat="44.96917" lon="-0.45465">
        <ele>24.6</ele>
        <time>2021-06-03T14:05:46.000Z</time>
      </trkpt>
      <trkpt lat="44.96911" lon="-0.45468">
        <ele>24.4</ele>
        <time>2021-06-03T14:05:47.000Z</time>
      </trkpt>
      <trkpt lat="44.96905" lon="-0.4547">
        <ele>24</ele>
        <time>2021-06-03T14:05:48.000Z</time>
      </trkpt>
      <trkpt lat="44.96899" lon="-0.45472">
        <ele>23.6</ele>
        <time>2021-06-03T14:05:49.000Z</time>
      </trkpt>
      <trkpt lat="44.96893" lon="-0.45475">
        <ele>23.2</ele>
        <time>2021-06-03T14:05:50.000Z</time>
      </trkpt>
      <trkpt lat="44.96886" lon="-0.45477">
        <ele>22.9</ele>
        <time>2021-06-03T14:05:51.000Z</time>
      </trkpt>
      <trkpt lat="44.9688" lon="-0.45479">
        <ele>22.6</ele>
        <time>2021-06-03T14:05:52.000Z</time>
      </trkpt>
      <trkpt lat="44.96873" lon="-0.45481">
        <ele>22.6</ele>
        <time>2021-06-03T14:05:53.000Z</time>
      </trkpt>
      <trkpt lat="44.96866" lon="-0.45483">
        <ele>22.5</ele>
        <time>2021-06-03T14:05:54.000Z</time>
      </trkpt>
      <trkpt lat="44.96859" lon="-0.45485">
        <ele>22.3</ele>
        <time>2021-06-03T14:05:55.000Z</time>
      </trkpt>
      <trkpt lat="44.96851" lon="-0.45487">
        <ele>22.1</ele>
        <time>2021-06-03T14:05:56.000Z</time>
      </trkpt>
      <trkpt lat="44.96844" lon="-0.45489">
        <ele>21.5</ele>
        <time>2021-06-03T14:05:57.000Z</time>
      </trkpt>
      <trkpt lat="44.96836" lon="-0.45491">
        <ele>21.1</ele>
        <time>2021-06-03T14:05:58.000Z</time>
      </trkpt>
      <trkpt lat="44.96829" lon="-0.45492">
        <ele>20.8</ele>
        <time>2021-06-03T14:05:59.000Z</time>
      </trkpt>
      <trkpt lat="44.96822" lon="-0.45493">
        <ele>20.5</ele>
        <time>2021-06-03T14:06:00.000Z</time>
      </trkpt>
      <trkpt lat="44.96815" lon="-0.45494">
        <ele>20.3</ele>
        <time>2021-06-03T14:06:01.000Z</time>
      </trkpt>
      <trkpt lat="44.96808" lon="-0.45495">
        <ele>19.6</ele>
        <time>2021-06-03T14:06:02.000Z</time>
      </trkpt>
      <trkpt lat="44.96801" lon="-0.45496">
        <ele>19.1</ele>
        <time>2021-06-03T14:06:03.000Z</time>
      </trkpt>
      <trkpt lat="44.96795" lon="-0.45497">
        <ele>18.2</ele>
        <time>2021-06-03T14:06:04.000Z</time>
      </trkpt>
      <trkpt lat="44.96789" lon="-0.45497">
        <ele>17.5</ele>
        <time>2021-06-03T14:06:05.000Z</time>
      </trkpt>
      <trkpt lat="44.96782" lon="-0.45498">
        <ele>17</ele>
        <time>2021-06-03T14:06:06.000Z</time>
      </trkpt>
      <trkpt lat="44.96775" lon="-0.45497">
        <ele>16.6</ele>
        <time>2021-06-03T14:06:07.000Z</time>
      </trkpt>
      <trkpt lat="44.96768" lon="-0.45497">
        <ele>16.2</ele>
        <time>2021-06-03T14:06:08.000Z</time>
      </trkpt>
      <trkpt lat="44.96761" lon="-0.45496">
        <ele>15.9</ele>
        <time>2021-06-03T14:06:09.000Z</time>
      </trkpt>
      <trkpt lat="44.96753" lon="-0.45495">
        <ele>15.7</ele>
        <time>2021-06-03T14:06:10.000Z</time>
      </trkpt>
      <trkpt lat="44.96745" lon="-0.45495">
        <ele>15.3</ele>
        <time>2021-06-03T14:06:11.000Z</time>
      </trkpt>
      <trkpt lat="44.96736" lon="-0.45494">
        <ele>15</ele>
        <time>2021-06-03T14:06:12.000Z</time>
      </trkpt>
      <trkpt lat="44.96728" lon="-0.45494">
        <ele>14.7</ele>
        <time>2021-06-03T14:06:13.000Z</time>
      </trkpt>
      <trkpt lat="44.96719" lon="-0.45493">
        <ele>13.8</ele>
        <time>2021-06-03T14:06:14.000Z</time>
      </trkpt>
      <trkpt lat="44.96711" lon="-0.45492">
        <ele>13.1</ele>
        <time>2021-06-03T14:06:15.000Z</time>
      </trkpt>
      <trkpt lat="44.96704" lon="-0.45491">
        <ele>12.7</ele>
        <time>2021-06-03T14:06:16.000Z</time>
      </trkpt>
      <trkpt lat="44.96698" lon="-0.45489">
        <ele>12.4</ele>
        <time>2021-06-03T14:06:17.000Z</time>
      </trkpt>
      <trkpt lat="44.96693" lon="-0.45487">
        <ele>12.2</ele>
        <time>2021-06-03T14:06:18.000Z</time>
      </trkpt>
      <trkpt lat="44.96688" lon="-0.45484">
        <ele>12</ele>
        <time>2021-06-03T14:06:19.000Z</time>
      </trkpt>
      <trkpt lat="44.96681" lon="-0.45475">
        <ele>11.6</ele>
        <time>2021-06-03T14:06:21.000Z</time>
      </trkpt>
      <trkpt lat="44.96675" lon="-0.4547">
        <ele>10.9</ele>
        <time>2021-06-03T14:06:23.000Z</time>
      </trkpt>
      <trkpt lat="44.96671" lon="-0.45471">
        <ele>10.6</ele>
        <time>2021-06-03T14:06:24.000Z</time>
      </trkpt>
      <trkpt lat="44.9666" lon="-0.45475">
        <ele>10.9</ele>
        <time>2021-06-03T14:06:27.000Z</time>
      </trkpt>
      <trkpt lat="44.96655" lon="-0.45475">
        <ele>10.9</ele>
        <time>2021-06-03T14:06:28.000Z</time>
      </trkpt>
      <trkpt lat="44.96651" lon="-0.45475">
        <ele>11</ele>
        <time>2021-06-03T14:06:29.000Z</time>
      </trkpt>
      <trkpt lat="44.96646" lon="-0.45475">
        <ele>11</ele>
        <time>2021-06-03T14:06:30.000Z</time>
      </trkpt>
      <trkpt lat="44.96637" lon="-0.45475">
        <ele>11.2</ele>
        <time>2021-06-03T14:06:32.000Z</time>
      </trkpt>
      <trkpt lat="44.96629" lon="-0.45476">
        <ele>11.7</ele>
        <time>2021-06-03T14:06:34.000Z</time>
      </trkpt>
      <trkpt lat="44.96622" lon="-0.45477">
        <ele>11.9</ele>
        <time>2021-06-03T14:06:36.000Z</time>
      </trkpt>
      <trkpt lat="44.96614" lon="-0.45478">
        <ele>12.1</ele>
        <time>2021-06-03T14:06:38.000Z</time>
      </trkpt>
      <trkpt lat="44.96606" lon="-0.4548">
        <ele>12.2</ele>
        <time>2021-06-03T14:06:40.000Z</time>
      </trkpt>
      <trkpt lat="44.96598" lon="-0.45482">
        <ele>12.4</ele>
        <time>2021-06-03T14:06:42.000Z</time>
      </trkpt>
      <trkpt lat="44.96589" lon="-0.45484">
        <ele>12.6</ele>
        <time>2021-06-03T14:06:44.000Z</time>
      </trkpt>
      <trkpt lat="44.96581" lon="-0.45486">
        <ele>12.6</ele>
        <time>2021-06-03T14:06:46.000Z</time>
      </trkpt>
      <trkpt lat="44.96573" lon="-0.45489">
        <ele>12.6</ele>
        <time>2021-06-03T14:06:48.000Z</time>
      </trkpt>
      <trkpt lat="44.96565" lon="-0.45491">
        <ele>12.9</ele>
        <time>2021-06-03T14:06:50.000Z</time>
      </trkpt>
      <trkpt lat="44.96557" lon="-0.45494">
        <ele>13.2</ele>
        <time>2021-06-03T14:06:52.000Z</time>
      </trkpt>
      <trkpt lat="44.96549" lon="-0.45497">
        <ele>13.2</ele>
        <time>2021-06-03T14:06:54.000Z</time>
      </trkpt>
      <trkpt lat="44.96541" lon="-0.45501">
        <ele>13.1</ele>
        <time>2021-06-03T14:06:56.000Z</time>
      </trkpt>
      <trkpt lat="44.96533" lon="-0.45505">
        <ele>14.1</ele>
        <time>2021-06-03T14:06:58.000Z</time>
      </trkpt>
      <trkpt lat="44.96526" lon="-0.45509">
        <ele>14.2</ele>
        <time>2021-06-03T14:07:00.000Z</time>
      </trkpt>
      <trkpt lat="44.96519" lon="-0.45513">
        <ele>14.5</ele>
        <time>2021-06-03T14:07:02.000Z</time>
      </trkpt>
      <trkpt lat="44.96513" lon="-0.45517">
        <ele>14.7</ele>
        <time>2021-06-03T14:07:04.000Z</time>
      </trkpt>
      <trkpt lat="44.96508" lon="-0.45521">
        <ele>15.3</ele>
        <time>2021-06-03T14:07:06.000Z</time>
      </trkpt>
      <trkpt lat="44.96502" lon="-0.45526">
        <ele>15.8</ele>
        <time>2021-06-03T14:07:08.000Z</time>
      </trkpt>
      <trkpt lat="44.96497" lon="-0.45531">
        <ele>16</ele>
        <time>2021-06-03T14:07:10.000Z</time>
      </trkpt>
      <trkpt lat="44.96491" lon="-0.45536">
        <ele>16.4</ele>
        <time>2021-06-03T14:07:12.000Z</time>
      </trkpt>
      <trkpt lat="44.96486" lon="-0.45542">
        <ele>16.4</ele>
        <time>2021-06-03T14:07:14.000Z</time>
      </trkpt>
      <trkpt lat="44.9648" lon="-0.45548">
        <ele>16.7</ele>
        <time>2021-06-03T14:07:16.000Z</time>
      </trkpt>
      <trkpt lat="44.96474" lon="-0.45554">
        <ele>16.9</ele>
        <time>2021-06-03T14:07:18.000Z</time>
      </trkpt>
      <trkpt lat="44.96468" lon="-0.45561">
        <ele>16.9</ele>
        <time>2021-06-03T14:07:20.000Z</time>
      </trkpt>
      <trkpt lat="44.96463" lon="-0.45568">
        <ele>16.8</ele>
        <time>2021-06-03T14:07:22.000Z</time>
      </trkpt>
      <trkpt lat="44.96457" lon="-0.45575">
        <ele>17.4</ele>
        <time>2021-06-03T14:07:24.000Z</time>
      </trkpt>
      <trkpt lat="44.96455" lon="-0.45578">
        <ele>17.7</ele>
        <time>2021-06-03T14:07:25.000Z</time>
      </trkpt>
      <trkpt lat="44.96447" lon="-0.45589">
        <ele>17.6</ele>
        <time>2021-06-03T14:07:28.000Z</time>
      </trkpt>
      <trkpt lat="44.96442" lon="-0.45595">
        <ele>18</ele>
        <time>2021-06-03T14:07:30.000Z</time>
      </trkpt>
      <trkpt lat="44.96437" lon="-0.45603">
        <ele>18.5</ele>
        <time>2021-06-03T14:07:32.000Z</time>
      </trkpt>
      <trkpt lat="44.96433" lon="-0.4561">
        <ele>18.7</ele>
        <time>2021-06-03T14:07:34.000Z</time>
      </trkpt>
      <trkpt lat="44.96428" lon="-0.45618">
        <ele>19</ele>
        <time>2021-06-03T14:07:36.000Z</time>
      </trkpt>
      <trkpt lat="44.96424" lon="-0.45626">
        <ele>18.8</ele>
        <time>2021-06-03T14:07:38.000Z</time>
      </trkpt>
      <trkpt lat="44.96419" lon="-0.45634">
        <ele>19.1</ele>
        <time>2021-06-03T14:07:40.000Z</time>
      </trkpt>
      <trkpt lat="44.96415" lon="-0.45642">
        <ele>19.7</ele>
        <time>2021-06-03T14:07:42.000Z</time>
      </trkpt>
      <trkpt lat="44.96411" lon="-0.4565">
        <ele>19.9</ele>
        <time>2021-06-03T14:07:44.000Z</time>
      </trkpt>
      <trkpt lat="44.96407" lon="-0.45658">
        <ele>20</ele>
        <time>2021-06-03T14:07:46.000Z</time>
      </trkpt>
      <trkpt lat="44.96403" lon="-0.45667">
        <ele>20.3</ele>
        <time>2021-06-03T14:07:48.000Z</time>
      </trkpt>
      <trkpt lat="44.96399" lon="-0.45676">
        <ele>21</ele>
        <time>2021-06-03T14:07:50.000Z</time>
      </trkpt>
      <trkpt lat="44.96395" lon="-0.45684">
        <ele>21</ele>
        <time>2021-06-03T14:07:52.000Z</time>
      </trkpt>
      <trkpt lat="44.96391" lon="-0.45692">
        <ele>21</ele>
        <time>2021-06-03T14:07:54.000Z</time>
      </trkpt>
      <trkpt lat="44.96387" lon="-0.45701">
        <ele>20.8</ele>
        <time>2021-06-03T14:07:56.000Z</time>
      </trkpt>
      <trkpt lat="44.96383" lon="-0.45709">
        <ele>20.9</ele>
        <time>2021-06-03T14:07:58.000Z</time>
      </trkpt>
      <trkpt lat="44.96379" lon="-0.45718">
        <ele>21.3</ele>
        <time>2021-06-03T14:08:00.000Z</time>
      </trkpt>
      <trkpt lat="44.96375" lon="-0.45727">
        <ele>21.6</ele>
        <time>2021-06-03T14:08:02.000Z</time>
      </trkpt>
      <trkpt lat="44.96371" lon="-0.45735">
        <ele>21.5</ele>
        <time>2021-06-03T14:08:04.000Z</time>
      </trkpt>
      <trkpt lat="44.96367" lon="-0.45744">
        <ele>22</ele>
        <time>2021-06-03T14:08:06.000Z</time>
      </trkpt>
      <trkpt lat="44.96363" lon="-0.45752">
        <ele>22.5</ele>
        <time>2021-06-03T14:08:08.000Z</time>
      </trkpt>
      <trkpt lat="44.96359" lon="-0.45761">
        <ele>22.9</ele>
        <time>2021-06-03T14:08:10.000Z</time>
      </trkpt>
      <trkpt lat="44.96355" lon="-0.45769">
        <ele>23</ele>
        <time>2021-06-03T14:08:12.000Z</time>
      </trkpt>
      <trkpt lat="44.96351" lon="-0.45778">
        <ele>23.7</ele>
        <time>2021-06-03T14:08:14.000Z</time>
      </trkpt>
      <trkpt lat="44.96347" lon="-0.45787">
        <ele>23.7</ele>
        <time>2021-06-03T14:08:16.000Z</time>
      </trkpt>
      <trkpt lat="44.96343" lon="-0.45795">
        <ele>24</ele>
        <time>2021-06-03T14:08:18.000Z</time>
      </trkpt>
      <trkpt lat="44.96339" lon="-0.45804">
        <ele>24.2</ele>
        <time>2021-06-03T14:08:20.000Z</time>
      </trkpt>
      <trkpt lat="44.96336" lon="-0.45812">
        <ele>24.4</ele>
        <time>2021-06-03T14:08:22.000Z</time>
      </trkpt>
      <trkpt lat="44.96331" lon="-0.45821">
        <ele>25.2</ele>
        <time>2021-06-03T14:08:24.000Z</time>
      </trkpt>
      <trkpt lat="44.96327" lon="-0.4583">
        <ele>26.1</ele>
        <time>2021-06-03T14:08:26.000Z</time>
      </trkpt>
      <trkpt lat="44.96325" lon="-0.45834">
        <ele>25.8</ele>
        <time>2021-06-03T14:08:27.000Z</time>
      </trkpt>
      <trkpt lat="44.96318" lon="-0.45847">
        <ele>25.4</ele>
        <time>2021-06-03T14:08:30.000Z</time>
      </trkpt>
      <trkpt lat="44.96313" lon="-0.45856">
        <ele>25.1</ele>
        <time>2021-06-03T14:08:32.000Z</time>
      </trkpt>
      <trkpt lat="44.9631" lon="-0.45866">
        <ele>25</ele>
        <time>2021-06-03T14:08:34.000Z</time>
      </trkpt>
      <trkpt lat="44.96306" lon="-0.45875">
        <ele>25.1</ele>
        <time>2021-06-03T14:08:36.000Z</time>
      </trkpt>
      <trkpt lat="44.96301" lon="-0.45884">
        <ele>25.3</ele>
        <time>2021-06-03T14:08:38.000Z</time>
      </trkpt>
      <trkpt lat="44.96296" lon="-0.45894">
        <ele>25.8</ele>
        <time>2021-06-03T14:08:40.000Z</time>
      </trkpt>
      <trkpt lat="44.96292" lon="-0.45904">
        <ele>25.9</ele>
        <time>2021-06-03T14:08:42.000Z</time>
      </trkpt>
      <trkpt lat="44.96287" lon="-0.45913">
        <ele>26</ele>
        <time>2021-06-03T14:08:44.000Z</time>
      </trkpt>
      <trkpt lat="44.96282" lon="-0.45923">
        <ele>26</ele>
        <time>2021-06-03T14:08:46.000Z</time>
      </trkpt>
      <trkpt lat="44.96277" lon="-0.45932">
        <ele>26.1</ele>
        <time>2021-06-03T14:08:48.000Z</time>
      </trkpt>
      <trkpt lat="44.96273" lon="-0.45943">
        <ele>26.3</ele>
        <time>2021-06-03T14:08:50.000Z</time>
      </trkpt>
      <trkpt lat="44.96268" lon="-0.45953">
        <ele>26.4</ele>
        <time>2021-06-03T14:08:52.000Z</time>
      </trkpt>
      <trkpt lat="44.96263" lon="-0.45963">
        <ele>25.9</ele>
        <time>2021-06-03T14:08:54.000Z</time>
      </trkpt>
      <trkpt lat="44.96258" lon="-0.45973">
        <ele>25.5</ele>
        <time>2021-06-03T14:08:56.000Z</time>
      </trkpt>
      <trkpt lat="44.96253" lon="-0.45983">
        <ele>26.1</ele>
        <time>2021-06-03T14:08:58.000Z</time>
      </trkpt>
      <trkpt lat="44.96248" lon="-0.45993">
        <ele>26.6</ele>
        <time>2021-06-03T14:09:00.000Z</time>
      </trkpt>
      <trkpt lat="44.96243" lon="-0.46003">
        <ele>26.9</ele>
        <time>2021-06-03T14:09:02.000Z</time>
      </trkpt>
      <trkpt lat="44.96238" lon="-0.46013">
        <ele>27.3</ele>
        <time>2021-06-03T14:09:04.000Z</time>
      </trkpt>
      <trkpt lat="44.96233" lon="-0.46023">
        <ele>26.9</ele>
        <time>2021-06-03T14:09:06.000Z</time>
      </trkpt>
      <trkpt lat="44.96229" lon="-0.46033">
        <ele>27.1</ele>
        <time>2021-06-03T14:09:08.000Z</time>
      </trkpt>
      <trkpt lat="44.96224" lon="-0.46043">
        <ele>27.4</ele>
        <time>2021-06-03T14:09:10.000Z</time>
      </trkpt>
      <trkpt lat="44.96219" lon="-0.46052">
        <ele>27.5</ele>
        <time>2021-06-03T14:09:12.000Z</time>
      </trkpt>
      <trkpt lat="44.96215" lon="-0.4606">
        <ele>27.4</ele>
        <time>2021-06-03T14:09:14.000Z</time>
      </trkpt>
      <trkpt lat="44.9621" lon="-0.46069">
        <ele>27.3</ele>
        <time>2021-06-03T14:09:16.000Z</time>
      </trkpt>
      <trkpt lat="44.96205" lon="-0.46078">
        <ele>27.3</ele>
        <time>2021-06-03T14:09:18.000Z</time>
      </trkpt>
      <trkpt lat="44.96201" lon="-0.46088">
        <ele>27.8</ele>
        <time>2021-06-03T14:09:20.000Z</time>
      </trkpt>
      <trkpt lat="44.96196" lon="-0.46098">
        <ele>27.8</ele>
        <time>2021-06-03T14:09:22.000Z</time>
      </trkpt>
      <trkpt lat="44.96191" lon="-0.46108">
        <ele>27.9</ele>
        <time>2021-06-03T14:09:24.000Z</time>
      </trkpt>
      <trkpt lat="44.96188" lon="-0.46114">
        <ele>28.1</ele>
        <time>2021-06-03T14:09:25.000Z</time>
      </trkpt>
      <trkpt lat="44.96183" lon="-0.46124">
        <ele>28.3</ele>
        <time>2021-06-03T14:09:27.000Z</time>
      </trkpt>
      <trkpt lat="44.96181" lon="-0.46128">
        <ele>28.2</ele>
        <time>2021-06-03T14:09:28.000Z</time>
      </trkpt>
      <trkpt lat="44.96174" lon="-0.46142">
        <ele>28.5</ele>
        <time>2021-06-03T14:09:31.000Z</time>
      </trkpt>
      <trkpt lat="44.96169" lon="-0.46152">
        <ele>28.2</ele>
        <time>2021-06-03T14:09:33.000Z</time>
      </trkpt>
      <trkpt lat="44.96166" lon="-0.46157">
        <ele>27.8</ele>
        <time>2021-06-03T14:09:34.000Z</time>
      </trkpt>
      <trkpt lat="44.96164" lon="-0.46163">
        <ele>27.5</ele>
        <time>2021-06-03T14:09:35.000Z</time>
      </trkpt>
      <trkpt lat="44.96161" lon="-0.46168">
        <ele>27.3</ele>
        <time>2021-06-03T14:09:36.000Z</time>
      </trkpt>
      <trkpt lat="44.96158" lon="-0.46174">
        <ele>27.2</ele>
        <time>2021-06-03T14:09:37.000Z</time>
      </trkpt>
      <trkpt lat="44.96156" lon="-0.4618">
        <ele>27.4</ele>
        <time>2021-06-03T14:09:38.000Z</time>
      </trkpt>
      <trkpt lat="44.96153" lon="-0.46185">
        <ele>27.5</ele>
        <time>2021-06-03T14:09:39.000Z</time>
      </trkpt>
      <trkpt lat="44.9615" lon="-0.46191">
        <ele>27.5</ele>
        <time>2021-06-03T14:09:40.000Z</time>
      </trkpt>
      <trkpt lat="44.96148" lon="-0.46196">
        <ele>27.5</ele>
        <time>2021-06-03T14:09:41.000Z</time>
      </trkpt>
      <trkpt lat="44.96145" lon="-0.46202">
        <ele>27.4</ele>
        <time>2021-06-03T14:09:42.000Z</time>
      </trkpt>
      <trkpt lat="44.9614" lon="-0.46212">
        <ele>27.8</ele>
        <time>2021-06-03T14:09:44.000Z</time>
      </trkpt>
      <trkpt lat="44.96135" lon="-0.46222">
        <ele>27.3</ele>
        <time>2021-06-03T14:09:46.000Z</time>
      </trkpt>
      <trkpt lat="44.96131" lon="-0.46233">
        <ele>27.5</ele>
        <time>2021-06-03T14:09:48.000Z</time>
      </trkpt>
      <trkpt lat="44.96126" lon="-0.46243">
        <ele>27.5</ele>
        <time>2021-06-03T14:09:50.000Z</time>
      </trkpt>
      <trkpt lat="44.96121" lon="-0.46254">
        <ele>27.5</ele>
        <time>2021-06-03T14:09:52.000Z</time>
      </trkpt>
      <trkpt lat="44.96117" lon="-0.46265">
        <ele>27.5</ele>
        <time>2021-06-03T14:09:54.000Z</time>
      </trkpt>
      <trkpt lat="44.96112" lon="-0.46274">
        <ele>27.7</ele>
        <time>2021-06-03T14:09:56.000Z</time>
      </trkpt>
      <trkpt lat="44.96108" lon="-0.46284">
        <ele>27.4</ele>
        <time>2021-06-03T14:09:58.000Z</time>
      </trkpt>
      <trkpt lat="44.96103" lon="-0.46294">
        <ele>27.8</ele>
        <time>2021-06-03T14:10:00.000Z</time>
      </trkpt>
      <trkpt lat="44.96098" lon="-0.46304">
        <ele>27.7</ele>
        <time>2021-06-03T14:10:02.000Z</time>
      </trkpt>
      <trkpt lat="44.96093" lon="-0.46314">
        <ele>27.1</ele>
        <time>2021-06-03T14:10:04.000Z</time>
      </trkpt>
      <trkpt lat="44.96091" lon="-0.4632">
        <ele>26.7</ele>
        <time>2021-06-03T14:10:05.000Z</time>
      </trkpt>
      <trkpt lat="44.96086" lon="-0.4633">
        <ele>26.9</ele>
        <time>2021-06-03T14:10:07.000Z</time>
      </trkpt>
      <trkpt lat="44.96081" lon="-0.4634">
        <ele>26.8</ele>
        <time>2021-06-03T14:10:09.000Z</time>
      </trkpt>
      <trkpt lat="44.96076" lon="-0.46349">
        <ele>26.7</ele>
        <time>2021-06-03T14:10:11.000Z</time>
      </trkpt>
      <trkpt lat="44.96072" lon="-0.46359">
        <ele>26.6</ele>
        <time>2021-06-03T14:10:13.000Z</time>
      </trkpt>
      <trkpt lat="44.96067" lon="-0.46369">
        <ele>26.2</ele>
        <time>2021-06-03T14:10:15.000Z</time>
      </trkpt>
      <trkpt lat="44.96062" lon="-0.46379">
        <ele>26.3</ele>
        <time>2021-06-03T14:10:17.000Z</time>
      </trkpt>
      <trkpt lat="44.96058" lon="-0.46389">
        <ele>26.4</ele>
        <time>2021-06-03T14:10:19.000Z</time>
      </trkpt>
      <trkpt lat="44.96053" lon="-0.46399">
        <ele>26.3</ele>
        <time>2021-06-03T14:10:21.000Z</time>
      </trkpt>
      <trkpt lat="44.96048" lon="-0.46408">
        <ele>26.3</ele>
        <time>2021-06-03T14:10:23.000Z</time>
      </trkpt>
      <trkpt lat="44.96044" lon="-0.46418">
        <ele>26.2</ele>
        <time>2021-06-03T14:10:25.000Z</time>
      </trkpt>
      <trkpt lat="44.96038" lon="-0.46427">
        <ele>26</ele>
        <time>2021-06-03T14:10:27.000Z</time>
      </trkpt>
      <trkpt lat="44.96036" lon="-0.46433">
        <ele>25.8</ele>
        <time>2021-06-03T14:10:28.000Z</time>
      </trkpt>
      <trkpt lat="44.96033" lon="-0.46438">
        <ele>25.6</ele>
        <time>2021-06-03T14:10:29.000Z</time>
      </trkpt>
      <trkpt lat="44.96031" lon="-0.46444">
        <ele>25.8</ele>
        <time>2021-06-03T14:10:30.000Z</time>
      </trkpt>
      <trkpt lat="44.96029" lon="-0.46451">
        <ele>25.9</ele>
        <time>2021-06-03T14:10:31.000Z</time>
      </trkpt>
      <trkpt lat="44.96027" lon="-0.46457">
        <ele>26</ele>
        <time>2021-06-03T14:10:32.000Z</time>
      </trkpt>
      <trkpt lat="44.96024" lon="-0.46464">
        <ele>26</ele>
        <time>2021-06-03T14:10:33.000Z</time>
      </trkpt>
      <trkpt lat="44.96021" lon="-0.4647">
        <ele>26</ele>
        <time>2021-06-03T14:10:34.000Z</time>
      </trkpt>
      <trkpt lat="44.96019" lon="-0.46477">
        <ele>25.7</ele>
        <time>2021-06-03T14:10:35.000Z</time>
      </trkpt>
      <trkpt lat="44.96016" lon="-0.46484">
        <ele>25.4</ele>
        <time>2021-06-03T14:10:36.000Z</time>
      </trkpt>
      <trkpt lat="44.96013" lon="-0.46491">
        <ele>25.1</ele>
        <time>2021-06-03T14:10:37.000Z</time>
      </trkpt>
      <trkpt lat="44.9601" lon="-0.46498">
        <ele>24.9</ele>
        <time>2021-06-03T14:10:38.000Z</time>
      </trkpt>
      <trkpt lat="44.96006" lon="-0.46506">
        <ele>24.7</ele>
        <time>2021-06-03T14:10:39.000Z</time>
      </trkpt>
      <trkpt lat="44.96003" lon="-0.46513">
        <ele>24.5</ele>
        <time>2021-06-03T14:10:40.000Z</time>
      </trkpt>
      <trkpt lat="44.96" lon="-0.4652">
        <ele>24.3</ele>
        <time>2021-06-03T14:10:41.000Z</time>
      </trkpt>
      <trkpt lat="44.95997" lon="-0.46527">
        <ele>24.2</ele>
        <time>2021-06-03T14:10:42.000Z</time>
      </trkpt>
      <trkpt lat="44.95994" lon="-0.46535">
        <ele>24</ele>
        <time>2021-06-03T14:10:43.000Z</time>
      </trkpt>
      <trkpt lat="44.95991" lon="-0.46542">
        <ele>23.9</ele>
        <time>2021-06-03T14:10:44.000Z</time>
      </trkpt>
      <trkpt lat="44.95988" lon="-0.46549">
        <ele>23.8</ele>
        <time>2021-06-03T14:10:45.000Z</time>
      </trkpt>
      <trkpt lat="44.95985" lon="-0.46557">
        <ele>23.8</ele>
        <time>2021-06-03T14:10:46.000Z</time>
      </trkpt>
      <trkpt lat="44.95981" lon="-0.46564">
        <ele>23.5</ele>
        <time>2021-06-03T14:10:47.000Z</time>
      </trkpt>
      <trkpt lat="44.95978" lon="-0.46572">
        <ele>23.3</ele>
        <time>2021-06-03T14:10:48.000Z</time>
      </trkpt>
      <trkpt lat="44.95975" lon="-0.4658">
        <ele>23.2</ele>
        <time>2021-06-03T14:10:49.000Z</time>
      </trkpt>
      <trkpt lat="44.95971" lon="-0.46588">
        <ele>23.1</ele>
        <time>2021-06-03T14:10:50.000Z</time>
      </trkpt>
      <trkpt lat="44.95968" lon="-0.46596">
        <ele>22.9</ele>
        <time>2021-06-03T14:10:51.000Z</time>
      </trkpt>
      <trkpt lat="44.95965" lon="-0.46603">
        <ele>22.7</ele>
        <time>2021-06-03T14:10:52.000Z</time>
      </trkpt>
      <trkpt lat="44.95961" lon="-0.4661">
        <ele>22.6</ele>
        <time>2021-06-03T14:10:53.000Z</time>
      </trkpt>
      <trkpt lat="44.95958" lon="-0.46618">
        <ele>22.2</ele>
        <time>2021-06-03T14:10:54.000Z</time>
      </trkpt>
      <trkpt lat="44.95955" lon="-0.46629">
        <ele>21.9</ele>
        <time>2021-06-03T14:10:55.000Z</time>
      </trkpt>
      <trkpt lat="44.95952" lon="-0.46636">
        <ele>21.5</ele>
        <time>2021-06-03T14:10:56.000Z</time>
      </trkpt>
      <trkpt lat="44.95948" lon="-0.46644">
        <ele>21.3</ele>
        <time>2021-06-03T14:10:57.000Z</time>
      </trkpt>
      <trkpt lat="44.95945" lon="-0.46651">
        <ele>21.1</ele>
        <time>2021-06-03T14:10:58.000Z</time>
      </trkpt>
      <trkpt lat="44.95941" lon="-0.46658">
        <ele>20.8</ele>
        <time>2021-06-03T14:10:59.000Z</time>
      </trkpt>
      <trkpt lat="44.95937" lon="-0.46666">
        <ele>20.6</ele>
        <time>2021-06-03T14:11:00.000Z</time>
      </trkpt>
      <trkpt lat="44.95934" lon="-0.46674">
        <ele>20.6</ele>
        <time>2021-06-03T14:11:01.000Z</time>
      </trkpt>
      <trkpt lat="44.9593" lon="-0.46682">
        <ele>20.7</ele>
        <time>2021-06-03T14:11:02.000Z</time>
      </trkpt>
      <trkpt lat="44.95927" lon="-0.4669">
        <ele>20.2</ele>
        <time>2021-06-03T14:11:03.000Z</time>
      </trkpt>
      <trkpt lat="44.95923" lon="-0.46697">
        <ele>19.8</ele>
        <time>2021-06-03T14:11:04.000Z</time>
      </trkpt>
      <trkpt lat="44.9592" lon="-0.46705">
        <ele>19.5</ele>
        <time>2021-06-03T14:11:05.000Z</time>
      </trkpt>
      <trkpt lat="44.95917" lon="-0.46713">
        <ele>19.3</ele>
        <time>2021-06-03T14:11:06.000Z</time>
      </trkpt>
      <trkpt lat="44.95913" lon="-0.46721">
        <ele>19.2</ele>
        <time>2021-06-03T14:11:07.000Z</time>
      </trkpt>
      <trkpt lat="44.9591" lon="-0.46729">
        <ele>19.1</ele>
        <time>2021-06-03T14:11:08.000Z</time>
      </trkpt>
      <trkpt lat="44.95905" lon="-0.46736">
        <ele>19.1</ele>
        <time>2021-06-03T14:11:09.000Z</time>
      </trkpt>
      <trkpt lat="44.95901" lon="-0.46744">
        <ele>18.4</ele>
        <time>2021-06-03T14:11:10.000Z</time>
      </trkpt>
      <trkpt lat="44.95896" lon="-0.46751">
        <ele>17.9</ele>
        <time>2021-06-03T14:11:11.000Z</time>
      </trkpt>
      <trkpt lat="44.95891" lon="-0.46759">
        <ele>17.6</ele>
        <time>2021-06-03T14:11:12.000Z</time>
      </trkpt>
      <trkpt lat="44.95886" lon="-0.46766">
        <ele>17.3</ele>
        <time>2021-06-03T14:11:13.000Z</time>
      </trkpt>
      <trkpt lat="44.95881" lon="-0.46773">
        <ele>17.1</ele>
        <time>2021-06-03T14:11:14.000Z</time>
      </trkpt>
      <trkpt lat="44.95876" lon="-0.4678">
        <ele>16.8</ele>
        <time>2021-06-03T14:11:15.000Z</time>
      </trkpt>
      <trkpt lat="44.9587" lon="-0.46786">
        <ele>16.6</ele>
        <time>2021-06-03T14:11:16.000Z</time>
      </trkpt>
      <trkpt lat="44.95865" lon="-0.46792">
        <ele>16.5</ele>
        <time>2021-06-03T14:11:17.000Z</time>
      </trkpt>
      <trkpt lat="44.95859" lon="-0.46798">
        <ele>16.2</ele>
        <time>2021-06-03T14:11:18.000Z</time>
      </trkpt>
      <trkpt lat="44.95853" lon="-0.46804">
        <ele>16</ele>
        <time>2021-06-03T14:11:19.000Z</time>
      </trkpt>
      <trkpt lat="44.95848" lon="-0.46808">
        <ele>15.7</ele>
        <time>2021-06-03T14:11:20.000Z</time>
      </trkpt>
      <trkpt lat="44.95842" lon="-0.46813">
        <ele>15.5</ele>
        <time>2021-06-03T14:11:21.000Z</time>
      </trkpt>
      <trkpt lat="44.95836" lon="-0.46817">
        <ele>15</ele>
        <time>2021-06-03T14:11:22.000Z</time>
      </trkpt>
      <trkpt lat="44.9583" lon="-0.46821">
        <ele>14.6</ele>
        <time>2021-06-03T14:11:23.000Z</time>
      </trkpt>
      <trkpt lat="44.95824" lon="-0.46825">
        <ele>14.4</ele>
        <time>2021-06-03T14:11:24.000Z</time>
      </trkpt>
      <trkpt lat="44.95817" lon="-0.46828">
        <ele>14.1</ele>
        <time>2021-06-03T14:11:25.000Z</time>
      </trkpt>
      <trkpt lat="44.95811" lon="-0.46832">
        <ele>13.8</ele>
        <time>2021-06-03T14:11:26.000Z</time>
      </trkpt>
      <trkpt lat="44.95804" lon="-0.46835">
        <ele>13.3</ele>
        <time>2021-06-03T14:11:27.000Z</time>
      </trkpt>
      <trkpt lat="44.95798" lon="-0.46837">
        <ele>12.9</ele>
        <time>2021-06-03T14:11:28.000Z</time>
      </trkpt>
      <trkpt lat="44.95792" lon="-0.4684">
        <ele>12.6</ele>
        <time>2021-06-03T14:11:29.000Z</time>
      </trkpt>
      <trkpt lat="44.95785" lon="-0.46843">
        <ele>12.8</ele>
        <time>2021-06-03T14:11:30.000Z</time>
      </trkpt>
      <trkpt lat="44.95778" lon="-0.46845">
        <ele>12.9</ele>
        <time>2021-06-03T14:11:31.000Z</time>
      </trkpt>
      <trkpt lat="44.95772" lon="-0.46846">
        <ele>13.2</ele>
        <time>2021-06-03T14:11:32.000Z</time>
      </trkpt>
      <trkpt lat="44.95765" lon="-0.46847">
        <ele>13.4</ele>
        <time>2021-06-03T14:11:33.000Z</time>
      </trkpt>
      <trkpt lat="44.95758" lon="-0.46848">
        <ele>12.7</ele>
        <time>2021-06-03T14:11:34.000Z</time>
      </trkpt>
      <trkpt lat="44.95751" lon="-0.46849">
        <ele>12.1</ele>
        <time>2021-06-03T14:11:35.000Z</time>
      </trkpt>
      <trkpt lat="44.95745" lon="-0.4685">
        <ele>11.7</ele>
        <time>2021-06-03T14:11:36.000Z</time>
      </trkpt>
      <trkpt lat="44.95738" lon="-0.4685">
        <ele>11.5</ele>
        <time>2021-06-03T14:11:37.000Z</time>
      </trkpt>
      <trkpt lat="44.95732" lon="-0.4685">
        <ele>11.4</ele>
        <time>2021-06-03T14:11:38.000Z</time>
      </trkpt>
      <trkpt lat="44.95726" lon="-0.4685">
        <ele>11.1</ele>
        <time>2021-06-03T14:11:39.000Z</time>
      </trkpt>
      <trkpt lat="44.9572" lon="-0.46849">
        <ele>10.9</ele>
        <time>2021-06-03T14:11:40.000Z</time>
      </trkpt>
      <trkpt lat="44.95714" lon="-0.46848">
        <ele>10.7</ele>
        <time>2021-06-03T14:11:41.000Z</time>
      </trkpt>
      <trkpt lat="44.95708" lon="-0.46847">
        <ele>10.6</ele>
        <time>2021-06-03T14:11:42.000Z</time>
      </trkpt>
      <trkpt lat="44.95702" lon="-0.46846">
        <ele>10.5</ele>
        <time>2021-06-03T14:11:43.000Z</time>
      </trkpt>
      <trkpt lat="44.95696" lon="-0.46844">
        <ele>10.1</ele>
        <time>2021-06-03T14:11:44.000Z</time>
      </trkpt>
      <trkpt lat="44.9569" lon="-0.46843">
        <ele>9.8</ele>
        <time>2021-06-03T14:11:45.000Z</time>
      </trkpt>
      <trkpt lat="44.95684" lon="-0.46842">
        <ele>9.9</ele>
        <time>2021-06-03T14:11:46.000Z</time>
      </trkpt>
      <trkpt lat="44.95678" lon="-0.46841">
        <ele>9.9</ele>
        <time>2021-06-03T14:11:47.000Z</time>
      </trkpt>
      <trkpt lat="44.95672" lon="-0.4684">
        <ele>9.6</ele>
        <time>2021-06-03T14:11:48.000Z</time>
      </trkpt>
      <trkpt lat="44.95667" lon="-0.46839">
        <ele>9.3</ele>
        <time>2021-06-03T14:11:49.000Z</time>
      </trkpt>
      <trkpt lat="44.95662" lon="-0.46838">
        <ele>9.1</ele>
        <time>2021-06-03T14:11:50.000Z</time>
      </trkpt>
      <trkpt lat="44.95656" lon="-0.46837">
        <ele>9</ele>
        <time>2021-06-03T14:11:51.000Z</time>
      </trkpt>
      <trkpt lat="44.95651" lon="-0.46836">
        <ele>8.9</ele>
        <time>2021-06-03T14:11:52.000Z</time>
      </trkpt>
      <trkpt lat="44.95646" lon="-0.46836">
        <ele>9</ele>
        <time>2021-06-03T14:11:53.000Z</time>
      </trkpt>
      <trkpt lat="44.95637" lon="-0.46834">
        <ele>9.1</ele>
        <time>2021-06-03T14:11:55.000Z</time>
      </trkpt>
      <trkpt lat="44.95628" lon="-0.46833">
        <ele>8.3</ele>
        <time>2021-06-03T14:12:00.000Z</time>
      </trkpt>
      <trkpt lat="44.95625" lon="-0.46843">
        <ele>8.2</ele>
        <time>2021-06-03T14:12:12.000Z</time>
      </trkpt>
      <trkpt lat="44.95623" lon="-0.46853">
        <ele>7.9</ele>
        <time>2021-06-03T14:12:15.000Z</time>
      </trkpt>
      <trkpt lat="44.95618" lon="-0.46864">
        <ele>7.9</ele>
        <time>2021-06-03T14:13:44.000Z</time>
      </trkpt>
      <trkpt lat="44.95618" lon="-0.46864">
        <ele>7.8</ele>
        <time>2021-06-03T14:13:45.000Z</time>
      </trkpt>
      <trkpt lat="44.95612" lon="-0.46876">
        <ele>7.4</ele>
        <time>2021-06-03T14:19:14.000Z</time>
      </trkpt>
      <trkpt lat="44.95605" lon="-0.46886">
        <ele>7.7</ele>
        <time>2021-06-03T14:19:17.000Z</time>
      </trkpt>
      <trkpt lat="44.95605" lon="-0.46898">
        <ele>7.1</ele>
        <time>2021-06-03T14:19:20.000Z</time>
      </trkpt>
      <trkpt lat="44.95604" lon="-0.46908">
        <ele>5.9</ele>
        <time>2021-06-03T14:19:39.000Z</time>
      </trkpt>
      <trkpt lat="44.95612" lon="-0.46912">
        <ele>5.9</ele>
        <time>2021-06-03T14:19:43.000Z</time>
      </trkpt>
      <trkpt lat="44.9562" lon="-0.46906">
        <ele>6</ele>
        <time>2021-06-03T14:19:46.000Z</time>
      </trkpt>
      <trkpt lat="44.95624" lon="-0.46899">
        <ele>6</ele>
        <time>2021-06-03T14:19:48.000Z</time>
      </trkpt>
      <trkpt lat="44.95628" lon="-0.46892">
        <ele>6.1</ele>
        <time>2021-06-03T14:19:50.000Z</time>
      </trkpt>
      <trkpt lat="44.95635" lon="-0.46886">
        <ele>6.5</ele>
        <time>2021-06-03T14:19:52.000Z</time>
      </trkpt>
      <trkpt lat="44.95642" lon="-0.46881">
        <ele>6.7</ele>
        <time>2021-06-03T14:19:54.000Z</time>
      </trkpt>
      <trkpt lat="44.9565" lon="-0.46878">
        <ele>6.7</ele>
        <time>2021-06-03T14:19:56.000Z</time>
      </trkpt>
      <trkpt lat="44.95657" lon="-0.46877">
        <ele>6.3</ele>
        <time>2021-06-03T14:19:58.000Z</time>
      </trkpt>
      <trkpt lat="44.95664" lon="-0.46876">
        <ele>6.3</ele>
        <time>2021-06-03T14:20:00.000Z</time>
      </trkpt>
      <trkpt lat="44.95672" lon="-0.46877">
        <ele>6.4</ele>
        <time>2021-06-03T14:20:02.000Z</time>
      </trkpt>
      <trkpt lat="44.95679" lon="-0.46877">
        <ele>6.2</ele>
        <time>2021-06-03T14:20:04.000Z</time>
      </trkpt>
      <trkpt lat="44.95686" lon="-0.46879">
        <ele>5.9</ele>
        <time>2021-06-03T14:20:06.000Z</time>
      </trkpt>
      <trkpt lat="44.95692" lon="-0.46883">
        <ele>6.4</ele>
        <time>2021-06-03T14:20:08.000Z</time>
      </trkpt>
      <trkpt lat="44.95697" lon="-0.46891">
        <ele>6</ele>
        <time>2021-06-03T14:20:10.000Z</time>
      </trkpt>
      <trkpt lat="44.95698" lon="-0.46903">
        <ele>6</ele>
        <time>2021-06-03T14:20:12.000Z</time>
      </trkpt>
      <trkpt lat="44.95698" lon="-0.46915">
        <ele>6</ele>
        <time>2021-06-03T14:20:14.000Z</time>
      </trkpt>
      <trkpt lat="44.95699" lon="-0.46921">
        <ele>5.8</ele>
        <time>2021-06-03T14:20:15.000Z</time>
      </trkpt>
      <trkpt lat="44.95699" lon="-0.46939">
        <ele>5.4</ele>
        <time>2021-06-03T14:20:18.000Z</time>
      </trkpt>
      <trkpt lat="44.95699" lon="-0.46952">
        <ele>5.5</ele>
        <time>2021-06-03T14:20:20.000Z</time>
      </trkpt>
      <trkpt lat="44.95699" lon="-0.46958">
        <ele>5.5</ele>
        <time>2021-06-03T14:20:21.000Z</time>
      </trkpt>
      <trkpt lat="44.95699" lon="-0.46965">
        <ele>5.4</ele>
        <time>2021-06-03T14:20:22.000Z</time>
      </trkpt>
      <trkpt lat="44.95699" lon="-0.46972">
        <ele>5.7</ele>
        <time>2021-06-03T14:20:23.000Z</time>
      </trkpt>
      <trkpt lat="44.957" lon="-0.46978">
        <ele>5.9</ele>
        <time>2021-06-03T14:20:24.000Z</time>
      </trkpt>
      <trkpt lat="44.957" lon="-0.46985">
        <ele>6</ele>
        <time>2021-06-03T14:20:25.000Z</time>
      </trkpt>
      <trkpt lat="44.957" lon="-0.46997">
        <ele>5.5</ele>
        <time>2021-06-03T14:20:27.000Z</time>
      </trkpt>
      <trkpt lat="44.95701" lon="-0.4701">
        <ele>5.6</ele>
        <time>2021-06-03T14:20:29.000Z</time>
      </trkpt>
      <trkpt lat="44.95701" lon="-0.47017">
        <ele>5.6</ele>
        <time>2021-06-03T14:20:30.000Z</time>
      </trkpt>
      <trkpt lat="44.957" lon="-0.47023">
        <ele>5.6</ele>
        <time>2021-06-03T14:20:31.000Z</time>
      </trkpt>
      <trkpt lat="44.957" lon="-0.4703">
        <ele>5.6</ele>
        <time>2021-06-03T14:20:32.000Z</time>
      </trkpt>
      <trkpt lat="44.957" lon="-0.47037">
        <ele>5.4</ele>
        <time>2021-06-03T14:20:33.000Z</time>
      </trkpt>
      <trkpt lat="44.957" lon="-0.47044">
        <ele>5.2</ele>
        <time>2021-06-03T14:20:34.000Z</time>
      </trkpt>
      <trkpt lat="44.957" lon="-0.47051">
        <ele>5</ele>
        <time>2021-06-03T14:20:35.000Z</time>
      </trkpt>
      <trkpt lat="44.957" lon="-0.47058">
        <ele>4.9</ele>
        <time>2021-06-03T14:20:36.000Z</time>
      </trkpt>
      <trkpt lat="44.957" lon="-0.47065">
        <ele>4.8</ele>
        <time>2021-06-03T14:20:37.000Z</time>
      </trkpt>
      <trkpt lat="44.95699" lon="-0.47072">
        <ele>5.2</ele>
        <time>2021-06-03T14:20:38.000Z</time>
      </trkpt>
      <trkpt lat="44.95699" lon="-0.47079">
        <ele>5.6</ele>
        <time>2021-06-03T14:20:39.000Z</time>
      </trkpt>
      <trkpt lat="44.95699" lon="-0.47086">
        <ele>5.8</ele>
        <time>2021-06-03T14:20:40.000Z</time>
      </trkpt>
      <trkpt lat="44.95699" lon="-0.47092">
        <ele>6</ele>
        <time>2021-06-03T14:20:41.000Z</time>
      </trkpt>
      <trkpt lat="44.95699" lon="-0.47099">
        <ele>5.6</ele>
        <time>2021-06-03T14:20:42.000Z</time>
      </trkpt>
      <trkpt lat="44.95699" lon="-0.47106">
        <ele>5.4</ele>
        <time>2021-06-03T14:20:43.000Z</time>
      </trkpt>
      <trkpt lat="44.95699" lon="-0.47113">
        <ele>5.2</ele>
        <time>2021-06-03T14:20:44.000Z</time>
      </trkpt>
      <trkpt lat="44.95699" lon="-0.4712">
        <ele>5.5</ele>
        <time>2021-06-03T14:20:45.000Z</time>
      </trkpt>
      <trkpt lat="44.95699" lon="-0.47127">
        <ele>5.8</ele>
        <time>2021-06-03T14:20:46.000Z</time>
      </trkpt>
      <trkpt lat="44.95699" lon="-0.47134">
        <ele>5.7</ele>
        <time>2021-06-03T14:20:47.000Z</time>
      </trkpt>
      <trkpt lat="44.95699" lon="-0.47141">
        <ele>5.6</ele>
        <time>2021-06-03T14:20:48.000Z</time>
      </trkpt>
      <trkpt lat="44.95699" lon="-0.47148">
        <ele>5.6</ele>
        <time>2021-06-03T14:20:49.000Z</time>
      </trkpt>
      <trkpt lat="44.95699" lon="-0.47155">
        <ele>5.6</ele>
        <time>2021-06-03T14:20:50.000Z</time>
      </trkpt>
      <trkpt lat="44.95699" lon="-0.47163">
        <ele>5.5</ele>
        <time>2021-06-03T14:20:51.000Z</time>
      </trkpt>
      <trkpt lat="44.95698" lon="-0.4717">
        <ele>5.5</ele>
        <time>2021-06-03T14:20:52.000Z</time>
      </trkpt>
      <trkpt lat="44.95698" lon="-0.47177">
        <ele>5.5</ele>
        <time>2021-06-03T14:20:53.000Z</time>
      </trkpt>
      <trkpt lat="44.95698" lon="-0.47184">
        <ele>5.7</ele>
        <time>2021-06-03T14:20:54.000Z</time>
      </trkpt>
      <trkpt lat="44.95698" lon="-0.47192">
        <ele>5.8</ele>
        <time>2021-06-03T14:20:55.000Z</time>
      </trkpt>
      <trkpt lat="44.95698" lon="-0.47199">
        <ele>5.8</ele>
        <time>2021-06-03T14:20:56.000Z</time>
      </trkpt>
      <trkpt lat="44.95698" lon="-0.47207">
        <ele>5.7</ele>
        <time>2021-06-03T14:20:57.000Z</time>
      </trkpt>
      <trkpt lat="44.95698" lon="-0.47214">
        <ele>5.7</ele>
        <time>2021-06-03T14:20:58.000Z</time>
      </trkpt>
      <trkpt lat="44.95698" lon="-0.47221">
        <ele>5.7</ele>
        <time>2021-06-03T14:20:59.000Z</time>
      </trkpt>
      <trkpt lat="44.95698" lon="-0.47229">
        <ele>5.7</ele>
        <time>2021-06-03T14:21:00.000Z</time>
      </trkpt>
      <trkpt lat="44.95697" lon="-0.47237">
        <ele>5.8</ele>
        <time>2021-06-03T14:21:01.000Z</time>
      </trkpt>
      <trkpt lat="44.95698" lon="-0.47244">
        <ele>5.8</ele>
        <time>2021-06-03T14:21:02.000Z</time>
      </trkpt>
      <trkpt lat="44.95698" lon="-0.47252">
        <ele>5.9</ele>
        <time>2021-06-03T14:21:03.000Z</time>
      </trkpt>
      <trkpt lat="44.95698" lon="-0.47259">
        <ele>5.9</ele>
        <time>2021-06-03T14:21:04.000Z</time>
      </trkpt>
      <trkpt lat="44.95698" lon="-0.47267">
        <ele>5.9</ele>
        <time>2021-06-03T14:21:05.000Z</time>
      </trkpt>
      <trkpt lat="44.95698" lon="-0.47274">
        <ele>5.7</ele>
        <time>2021-06-03T14:21:06.000Z</time>
      </trkpt>
      <trkpt lat="44.95698" lon="-0.47282">
        <ele>5.5</ele>
        <time>2021-06-03T14:21:07.000Z</time>
      </trkpt>
      <trkpt lat="44.95698" lon="-0.47289">
        <ele>5.4</ele>
        <time>2021-06-03T14:21:08.000Z</time>
      </trkpt>
      <trkpt lat="44.95698" lon="-0.47297">
        <ele>5.3</ele>
        <time>2021-06-03T14:21:09.000Z</time>
      </trkpt>
      <trkpt lat="44.95698" lon="-0.47304">
        <ele>5.2</ele>
        <time>2021-06-03T14:21:10.000Z</time>
      </trkpt>
      <trkpt lat="44.95698" lon="-0.47312">
        <ele>5.3</ele>
        <time>2021-06-03T14:21:11.000Z</time>
      </trkpt>
      <trkpt lat="44.95698" lon="-0.47319">
        <ele>5.4</ele>
        <time>2021-06-03T14:21:12.000Z</time>
      </trkpt>
      <trkpt lat="44.95698" lon="-0.47326">
        <ele>5.3</ele>
        <time>2021-06-03T14:21:13.000Z</time>
      </trkpt>
      <trkpt lat="44.95698" lon="-0.47333">
        <ele>5.3</ele>
        <time>2021-06-03T14:21:14.000Z</time>
      </trkpt>
      <trkpt lat="44.95698" lon="-0.47341">
        <ele>5.3</ele>
        <time>2021-06-03T14:21:15.000Z</time>
      </trkpt>
      <trkpt lat="44.95698" lon="-0.47348">
        <ele>5.4</ele>
        <time>2021-06-03T14:21:16.000Z</time>
      </trkpt>
      <trkpt lat="44.95698" lon="-0.47356">
        <ele>5.5</ele>
        <time>2021-06-03T14:21:17.000Z</time>
      </trkpt>
      <trkpt lat="44.95698" lon="-0.47363">
        <ele>5.7</ele>
        <time>2021-06-03T14:21:18.000Z</time>
      </trkpt>
      <trkpt lat="44.95698" lon="-0.4737">
        <ele>5.8</ele>
        <time>2021-06-03T14:21:19.000Z</time>
      </trkpt>
      <trkpt lat="44.95698" lon="-0.47378">
        <ele>5.8</ele>
        <time>2021-06-03T14:21:20.000Z</time>
      </trkpt>
      <trkpt lat="44.95698" lon="-0.47385">
        <ele>5.8</ele>
        <time>2021-06-03T14:21:21.000Z</time>
      </trkpt>
      <trkpt lat="44.95698" lon="-0.47393">
        <ele>5.8</ele>
        <time>2021-06-03T14:21:22.000Z</time>
      </trkpt>
      <trkpt lat="44.95698" lon="-0.47401">
        <ele>6</ele>
        <time>2021-06-03T14:21:23.000Z</time>
      </trkpt>
      <trkpt lat="44.95699" lon="-0.47408">
        <ele>6.2</ele>
        <time>2021-06-03T14:21:24.000Z</time>
      </trkpt>
      <trkpt lat="44.95699" lon="-0.47416">
        <ele>5.5</ele>
        <time>2021-06-03T14:21:25.000Z</time>
      </trkpt>
      <trkpt lat="44.95699" lon="-0.47423">
        <ele>5</ele>
        <time>2021-06-03T14:21:26.000Z</time>
      </trkpt>
      <trkpt lat="44.95699" lon="-0.47431">
        <ele>4.6</ele>
        <time>2021-06-03T14:21:27.000Z</time>
      </trkpt>
      <trkpt lat="44.95699" lon="-0.47438">
        <ele>4.8</ele>
        <time>2021-06-03T14:21:28.000Z</time>
      </trkpt>
      <trkpt lat="44.95699" lon="-0.47446">
        <ele>4.9</ele>
        <time>2021-06-03T14:21:29.000Z</time>
      </trkpt>
      <trkpt lat="44.95699" lon="-0.47453">
        <ele>5.1</ele>
        <time>2021-06-03T14:21:30.000Z</time>
      </trkpt>
      <trkpt lat="44.95699" lon="-0.47461">
        <ele>5.3</ele>
        <time>2021-06-03T14:21:31.000Z</time>
      </trkpt>
      <trkpt lat="44.95699" lon="-0.47468">
        <ele>4.9</ele>
        <time>2021-06-03T14:21:32.000Z</time>
      </trkpt>
      <trkpt lat="44.95699" lon="-0.47475">
        <ele>4.7</ele>
        <time>2021-06-03T14:21:33.000Z</time>
      </trkpt>
      <trkpt lat="44.95699" lon="-0.47483">
        <ele>4.5</ele>
        <time>2021-06-03T14:21:34.000Z</time>
      </trkpt>
      <trkpt lat="44.95699" lon="-0.4749">
        <ele>4.8</ele>
        <time>2021-06-03T14:21:35.000Z</time>
      </trkpt>
      <trkpt lat="44.95699" lon="-0.47497">
        <ele>4.9</ele>
        <time>2021-06-03T14:21:36.000Z</time>
      </trkpt>
      <trkpt lat="44.95699" lon="-0.47505">
        <ele>5</ele>
        <time>2021-06-03T14:21:37.000Z</time>
      </trkpt>
      <trkpt lat="44.95698" lon="-0.47512">
        <ele>5</ele>
        <time>2021-06-03T14:21:38.000Z</time>
      </trkpt>
      <trkpt lat="44.95698" lon="-0.47519">
        <ele>5</ele>
        <time>2021-06-03T14:21:39.000Z</time>
      </trkpt>
      <trkpt lat="44.95697" lon="-0.47527">
        <ele>5</ele>
        <time>2021-06-03T14:21:40.000Z</time>
      </trkpt>
      <trkpt lat="44.95697" lon="-0.47534">
        <ele>5</ele>
        <time>2021-06-03T14:21:41.000Z</time>
      </trkpt>
      <trkpt lat="44.95696" lon="-0.47541">
        <ele>5</ele>
        <time>2021-06-03T14:21:42.000Z</time>
      </trkpt>
      <trkpt lat="44.95695" lon="-0.47549">
        <ele>5</ele>
        <time>2021-06-03T14:21:43.000Z</time>
      </trkpt>
      <trkpt lat="44.95693" lon="-0.47556">
        <ele>4.9</ele>
        <time>2021-06-03T14:21:44.000Z</time>
      </trkpt>
      <trkpt lat="44.95692" lon="-0.47563">
        <ele>4.9</ele>
        <time>2021-06-03T14:21:45.000Z</time>
      </trkpt>
      <trkpt lat="44.9569" lon="-0.4757">
        <ele>4.8</ele>
        <time>2021-06-03T14:21:46.000Z</time>
      </trkpt>
      <trkpt lat="44.95688" lon="-0.47577">
        <ele>4.9</ele>
        <time>2021-06-03T14:21:47.000Z</time>
      </trkpt>
      <trkpt lat="44.95686" lon="-0.47583">
        <ele>4.9</ele>
        <time>2021-06-03T14:21:48.000Z</time>
      </trkpt>
      <trkpt lat="44.95684" lon="-0.4759">
        <ele>4.8</ele>
        <time>2021-06-03T14:21:49.000Z</time>
      </trkpt>
      <trkpt lat="44.95681" lon="-0.47596">
        <ele>4.7</ele>
        <time>2021-06-03T14:21:50.000Z</time>
      </trkpt>
      <trkpt lat="44.95679" lon="-0.47603">
        <ele>4.7</ele>
        <time>2021-06-03T14:21:51.000Z</time>
      </trkpt>
      <trkpt lat="44.95677" lon="-0.4761">
        <ele>4.7</ele>
        <time>2021-06-03T14:21:52.000Z</time>
      </trkpt>
      <trkpt lat="44.95674" lon="-0.47616">
        <ele>4.6</ele>
        <time>2021-06-03T14:21:53.000Z</time>
      </trkpt>
      <trkpt lat="44.95672" lon="-0.47623">
        <ele>4.7</ele>
        <time>2021-06-03T14:21:54.000Z</time>
      </trkpt>
      <trkpt lat="44.95669" lon="-0.47629">
        <ele>4.7</ele>
        <time>2021-06-03T14:21:55.000Z</time>
      </trkpt>
      <trkpt lat="44.95667" lon="-0.47636">
        <ele>4.8</ele>
        <time>2021-06-03T14:21:56.000Z</time>
      </trkpt>
      <trkpt lat="44.95665" lon="-0.47643">
        <ele>4.9</ele>
        <time>2021-06-03T14:21:57.000Z</time>
      </trkpt>
      <trkpt lat="44.95662" lon="-0.47649">
        <ele>4.7</ele>
        <time>2021-06-03T14:21:58.000Z</time>
      </trkpt>
      <trkpt lat="44.9566" lon="-0.47656">
        <ele>4.5</ele>
        <time>2021-06-03T14:21:59.000Z</time>
      </trkpt>
      <trkpt lat="44.95657" lon="-0.47662">
        <ele>4.4</ele>
        <time>2021-06-03T14:22:00.000Z</time>
      </trkpt>
      <trkpt lat="44.95655" lon="-0.47669">
        <ele>4.4</ele>
        <time>2021-06-03T14:22:01.000Z</time>
      </trkpt>
      <trkpt lat="44.95653" lon="-0.47676">
        <ele>4.4</ele>
        <time>2021-06-03T14:22:02.000Z</time>
      </trkpt>
      <trkpt lat="44.9565" lon="-0.47683">
        <ele>4.5</ele>
        <time>2021-06-03T14:22:03.000Z</time>
      </trkpt>
      <trkpt lat="44.95648" lon="-0.47689">
        <ele>4.7</ele>
        <time>2021-06-03T14:22:04.000Z</time>
      </trkpt>
      <trkpt lat="44.95646" lon="-0.47696">
        <ele>4.8</ele>
        <time>2021-06-03T14:22:05.000Z</time>
      </trkpt>
      <trkpt lat="44.95644" lon="-0.47702">
        <ele>4.8</ele>
        <time>2021-06-03T14:22:06.000Z</time>
      </trkpt>
      <trkpt lat="44.95642" lon="-0.47709">
        <ele>4.9</ele>
        <time>2021-06-03T14:22:07.000Z</time>
      </trkpt>
      <trkpt lat="44.9564" lon="-0.47715">
        <ele>4.7</ele>
        <time>2021-06-03T14:22:08.000Z</time>
      </trkpt>
      <trkpt lat="44.95639" lon="-0.47722">
        <ele>4.6</ele>
        <time>2021-06-03T14:22:09.000Z</time>
      </trkpt>
      <trkpt lat="44.95638" lon="-0.47728">
        <ele>4.4</ele>
        <time>2021-06-03T14:22:10.000Z</time>
      </trkpt>
      <trkpt lat="44.95638" lon="-0.47735">
        <ele>4.2</ele>
        <time>2021-06-03T14:22:11.000Z</time>
      </trkpt>
      <trkpt lat="44.95638" lon="-0.47742">
        <ele>4.1</ele>
        <time>2021-06-03T14:22:12.000Z</time>
      </trkpt>
      <trkpt lat="44.95639" lon="-0.47749">
        <ele>4.2</ele>
        <time>2021-06-03T14:22:13.000Z</time>
      </trkpt>
      <trkpt lat="44.9564" lon="-0.47756">
        <ele>4.2</ele>
        <time>2021-06-03T14:22:14.000Z</time>
      </trkpt>
      <trkpt lat="44.95641" lon="-0.47764">
        <ele>4.1</ele>
        <time>2021-06-03T14:22:15.000Z</time>
      </trkpt>
      <trkpt lat="44.95643" lon="-0.47771">
        <ele>4</ele>
        <time>2021-06-03T14:22:16.000Z</time>
      </trkpt>
      <trkpt lat="44.95645" lon="-0.47778">
        <ele>4.1</ele>
        <time>2021-06-03T14:22:17.000Z</time>
      </trkpt>
      <trkpt lat="44.95648" lon="-0.47784">
        <ele>4.1</ele>
        <time>2021-06-03T14:22:18.000Z</time>
      </trkpt>
      <trkpt lat="44.9565" lon="-0.47791">
        <ele>4.1</ele>
        <time>2021-06-03T14:22:19.000Z</time>
      </trkpt>
      <trkpt lat="44.95653" lon="-0.47798">
        <ele>4.1</ele>
        <time>2021-06-03T14:22:20.000Z</time>
      </trkpt>
      <trkpt lat="44.95655" lon="-0.47804">
        <ele>4.1</ele>
        <time>2021-06-03T14:22:21.000Z</time>
      </trkpt>
      <trkpt lat="44.95658" lon="-0.4781">
        <ele>4.4</ele>
        <time>2021-06-03T14:22:22.000Z</time>
      </trkpt>
      <trkpt lat="44.95661" lon="-0.47816">
        <ele>4.6</ele>
        <time>2021-06-03T14:22:23.000Z</time>
      </trkpt>
      <trkpt lat="44.95664" lon="-0.47822">
        <ele>4.8</ele>
        <time>2021-06-03T14:22:24.000Z</time>
      </trkpt>
      <trkpt lat="44.95668" lon="-0.47827">
        <ele>4.6</ele>
        <time>2021-06-03T14:22:25.000Z</time>
      </trkpt>
      <trkpt lat="44.95672" lon="-0.47832">
        <ele>4.5</ele>
        <time>2021-06-03T14:22:26.000Z</time>
      </trkpt>
      <trkpt lat="44.95677" lon="-0.47836">
        <ele>4.5</ele>
        <time>2021-06-03T14:22:27.000Z</time>
      </trkpt>
      <trkpt lat="44.95682" lon="-0.47839">
        <ele>4.5</ele>
        <time>2021-06-03T14:22:28.000Z</time>
      </trkpt>
      <trkpt lat="44.95687" lon="-0.47842">
        <ele>4.6</ele>
        <time>2021-06-03T14:22:29.000Z</time>
      </trkpt>
      <trkpt lat="44.95692" lon="-0.47843">
        <ele>4.8</ele>
        <time>2021-06-03T14:22:30.000Z</time>
      </trkpt>
      <trkpt lat="44.95697" lon="-0.47845">
        <ele>4.9</ele>
        <time>2021-06-03T14:22:31.000Z</time>
      </trkpt>
      <trkpt lat="44.95702" lon="-0.47846">
        <ele>4.7</ele>
        <time>2021-06-03T14:22:32.000Z</time>
      </trkpt>
      <trkpt lat="44.95707" lon="-0.47846">
        <ele>4.5</ele>
        <time>2021-06-03T14:22:33.000Z</time>
      </trkpt>
      <trkpt lat="44.95713" lon="-0.47847">
        <ele>4.7</ele>
        <time>2021-06-03T14:22:34.000Z</time>
      </trkpt>
      <trkpt lat="44.95718" lon="-0.47847">
        <ele>4.9</ele>
        <time>2021-06-03T14:22:35.000Z</time>
      </trkpt>
      <trkpt lat="44.95723" lon="-0.47848">
        <ele>4.8</ele>
        <time>2021-06-03T14:22:36.000Z</time>
      </trkpt>
      <trkpt lat="44.95728" lon="-0.47849">
        <ele>4.6</ele>
        <time>2021-06-03T14:22:37.000Z</time>
      </trkpt>
      <trkpt lat="44.95733" lon="-0.47849">
        <ele>4.6</ele>
        <time>2021-06-03T14:22:38.000Z</time>
      </trkpt>
      <trkpt lat="44.95738" lon="-0.4785">
        <ele>4.3</ele>
        <time>2021-06-03T14:22:39.000Z</time>
      </trkpt>
      <trkpt lat="44.95743" lon="-0.4785">
        <ele>4.2</ele>
        <time>2021-06-03T14:22:40.000Z</time>
      </trkpt>
      <trkpt lat="44.95748" lon="-0.47851">
        <ele>4.3</ele>
        <time>2021-06-03T14:22:41.000Z</time>
      </trkpt>
      <trkpt lat="44.95752" lon="-0.47851">
        <ele>4.4</ele>
        <time>2021-06-03T14:22:42.000Z</time>
      </trkpt>
      <trkpt lat="44.95757" lon="-0.47851">
        <ele>4.4</ele>
        <time>2021-06-03T14:22:43.000Z</time>
      </trkpt>
      <trkpt lat="44.95762" lon="-0.47852">
        <ele>4</ele>
        <time>2021-06-03T14:22:44.000Z</time>
      </trkpt>
      <trkpt lat="44.95766" lon="-0.47852">
        <ele>3.7</ele>
        <time>2021-06-03T14:22:45.000Z</time>
      </trkpt>
      <trkpt lat="44.95771" lon="-0.47853">
        <ele>4</ele>
        <time>2021-06-03T14:22:46.000Z</time>
      </trkpt>
      <trkpt lat="44.95776" lon="-0.47853">
        <ele>4.1</ele>
        <time>2021-06-03T14:22:47.000Z</time>
      </trkpt>
      <trkpt lat="44.95784" lon="-0.47853">
        <ele>4.2</ele>
        <time>2021-06-03T14:22:49.000Z</time>
      </trkpt>
      <trkpt lat="44.95789" lon="-0.47854">
        <ele>4.2</ele>
        <time>2021-06-03T14:22:50.000Z</time>
      </trkpt>
      <trkpt lat="44.95794" lon="-0.47854">
        <ele>4.4</ele>
        <time>2021-06-03T14:22:51.000Z</time>
      </trkpt>
      <trkpt lat="44.95798" lon="-0.47854">
        <ele>4.5</ele>
        <time>2021-06-03T14:22:52.000Z</time>
      </trkpt>
      <trkpt lat="44.95803" lon="-0.47855">
        <ele>4.5</ele>
        <time>2021-06-03T14:22:53.000Z</time>
      </trkpt>
      <trkpt lat="44.95808" lon="-0.47855">
        <ele>4.4</ele>
        <time>2021-06-03T14:22:54.000Z</time>
      </trkpt>
      <trkpt lat="44.95813" lon="-0.47856">
        <ele>4.4</ele>
        <time>2021-06-03T14:22:55.000Z</time>
      </trkpt>
      <trkpt lat="44.95818" lon="-0.47857">
        <ele>4.4</ele>
        <time>2021-06-03T14:22:56.000Z</time>
      </trkpt>
      <trkpt lat="44.95823" lon="-0.47858">
        <ele>4.4</ele>
        <time>2021-06-03T14:22:57.000Z</time>
      </trkpt>
      <trkpt lat="44.95828" lon="-0.47859">
        <ele>4.3</ele>
        <time>2021-06-03T14:22:58.000Z</time>
      </trkpt>
      <trkpt lat="44.95833" lon="-0.47861">
        <ele>4.3</ele>
        <time>2021-06-03T14:22:59.000Z</time>
      </trkpt>
      <trkpt lat="44.95838" lon="-0.47863">
        <ele>4.2</ele>
        <time>2021-06-03T14:23:00.000Z</time>
      </trkpt>
      <trkpt lat="44.95843" lon="-0.47867">
        <ele>4.1</ele>
        <time>2021-06-03T14:23:01.000Z</time>
      </trkpt>
      <trkpt lat="44.95848" lon="-0.4787">
        <ele>4.1</ele>
        <time>2021-06-03T14:23:02.000Z</time>
      </trkpt>
      <trkpt lat="44.95852" lon="-0.47875">
        <ele>4</ele>
        <time>2021-06-03T14:23:03.000Z</time>
      </trkpt>
      <trkpt lat="44.95856" lon="-0.4788">
        <ele>4</ele>
        <time>2021-06-03T14:23:04.000Z</time>
      </trkpt>
      <trkpt lat="44.9586" lon="-0.47885">
        <ele>4</ele>
        <time>2021-06-03T14:23:05.000Z</time>
      </trkpt>
      <trkpt lat="44.95863" lon="-0.47891">
        <ele>4</ele>
        <time>2021-06-03T14:23:06.000Z</time>
      </trkpt>
      <trkpt lat="44.95866" lon="-0.47897">
        <ele>4.6</ele>
        <time>2021-06-03T14:23:07.000Z</time>
      </trkpt>
      <trkpt lat="44.95869" lon="-0.47903">
        <ele>5</ele>
        <time>2021-06-03T14:23:08.000Z</time>
      </trkpt>
      <trkpt lat="44.95871" lon="-0.47909">
        <ele>5.4</ele>
        <time>2021-06-03T14:23:09.000Z</time>
      </trkpt>
      <trkpt lat="44.95874" lon="-0.47915">
        <ele>4.9</ele>
        <time>2021-06-03T14:23:10.000Z</time>
      </trkpt>
      <trkpt lat="44.95876" lon="-0.47922">
        <ele>4.5</ele>
        <time>2021-06-03T14:23:11.000Z</time>
      </trkpt>
      <trkpt lat="44.95877" lon="-0.47928">
        <ele>4.6</ele>
        <time>2021-06-03T14:23:12.000Z</time>
      </trkpt>
      <trkpt lat="44.95877" lon="-0.47934">
        <ele>4.7</ele>
        <time>2021-06-03T14:23:13.000Z</time>
      </trkpt>
      <trkpt lat="44.95878" lon="-0.47941">
        <ele>4.6</ele>
        <time>2021-06-03T14:23:14.000Z</time>
      </trkpt>
      <trkpt lat="44.95878" lon="-0.47949">
        <ele>4.6</ele>
        <time>2021-06-03T14:23:15.000Z</time>
      </trkpt>
      <trkpt lat="44.95878" lon="-0.47956">
        <ele>4.5</ele>
        <time>2021-06-03T14:23:16.000Z</time>
      </trkpt>
      <trkpt lat="44.95877" lon="-0.47964">
        <ele>4.7</ele>
        <time>2021-06-03T14:23:17.000Z</time>
      </trkpt>
      <trkpt lat="44.95877" lon="-0.47971">
        <ele>4.8</ele>
        <time>2021-06-03T14:23:18.000Z</time>
      </trkpt>
      <trkpt lat="44.95875" lon="-0.47979">
        <ele>4.4</ele>
        <time>2021-06-03T14:23:19.000Z</time>
      </trkpt>
      <trkpt lat="44.95873" lon="-0.47985">
        <ele>4</ele>
        <time>2021-06-03T14:23:20.000Z</time>
      </trkpt>
      <trkpt lat="44.95871" lon="-0.47991">
        <ele>4.1</ele>
        <time>2021-06-03T14:23:21.000Z</time>
      </trkpt>
      <trkpt lat="44.95866" lon="-0.48001">
        <ele>4.2</ele>
        <time>2021-06-03T14:23:23.000Z</time>
      </trkpt>
      <trkpt lat="44.9586" lon="-0.48009">
        <ele>4.1</ele>
        <time>2021-06-03T14:23:25.000Z</time>
      </trkpt>
      <trkpt lat="44.95853" lon="-0.48016">
        <ele>3.6</ele>
        <time>2021-06-03T14:23:27.000Z</time>
      </trkpt>
      <trkpt lat="44.9585" lon="-0.4802">
        <ele>3.4</ele>
        <time>2021-06-03T14:23:28.000Z</time>
      </trkpt>
      <trkpt lat="44.95845" lon="-0.48023">
        <ele>3.9</ele>
        <time>2021-06-03T14:23:29.000Z</time>
      </trkpt>
      <trkpt lat="44.95841" lon="-0.48026">
        <ele>4.3</ele>
        <time>2021-06-03T14:23:30.000Z</time>
      </trkpt>
      <trkpt lat="44.95837" lon="-0.48029">
        <ele>4.3</ele>
        <time>2021-06-03T14:23:31.000Z</time>
      </trkpt>
      <trkpt lat="44.95833" lon="-0.48033">
        <ele>4.3</ele>
        <time>2021-06-03T14:23:32.000Z</time>
      </trkpt>
      <trkpt lat="44.95829" lon="-0.48036">
        <ele>3.7</ele>
        <time>2021-06-03T14:23:33.000Z</time>
      </trkpt>
      <trkpt lat="44.95825" lon="-0.4804">
        <ele>3.3</ele>
        <time>2021-06-03T14:23:34.000Z</time>
      </trkpt>
      <trkpt lat="44.9582" lon="-0.48043">
        <ele>3</ele>
        <time>2021-06-03T14:23:35.000Z</time>
      </trkpt>
      <trkpt lat="44.95816" lon="-0.48047">
        <ele>3</ele>
        <time>2021-06-03T14:23:36.000Z</time>
      </trkpt>
      <trkpt lat="44.95812" lon="-0.4805">
        <ele>3</ele>
        <time>2021-06-03T14:23:37.000Z</time>
      </trkpt>
      <trkpt lat="44.95808" lon="-0.48053">
        <ele>3.7</ele>
        <time>2021-06-03T14:23:38.000Z</time>
      </trkpt>
      <trkpt lat="44.95804" lon="-0.48057">
        <ele>4.2</ele>
        <time>2021-06-03T14:23:39.000Z</time>
      </trkpt>
      <trkpt lat="44.958" lon="-0.48062">
        <ele>4.1</ele>
        <time>2021-06-03T14:23:40.000Z</time>
      </trkpt>
      <trkpt lat="44.95796" lon="-0.48067">
        <ele>4.1</ele>
        <time>2021-06-03T14:23:41.000Z</time>
      </trkpt>
      <trkpt lat="44.95793" lon="-0.48072">
        <ele>4.1</ele>
        <time>2021-06-03T14:23:42.000Z</time>
      </trkpt>
      <trkpt lat="44.9579" lon="-0.48079">
        <ele>4</ele>
        <time>2021-06-03T14:23:43.000Z</time>
      </trkpt>
      <trkpt lat="44.95787" lon="-0.48085">
        <ele>4</ele>
        <time>2021-06-03T14:23:44.000Z</time>
      </trkpt>
      <trkpt lat="44.95785" lon="-0.48092">
        <ele>3.8</ele>
        <time>2021-06-03T14:23:45.000Z</time>
      </trkpt>
      <trkpt lat="44.95783" lon="-0.48099">
        <ele>3.6</ele>
        <time>2021-06-03T14:23:46.000Z</time>
      </trkpt>
      <trkpt lat="44.95783" lon="-0.48107">
        <ele>3.5</ele>
        <time>2021-06-03T14:23:47.000Z</time>
      </trkpt>
      <trkpt lat="44.95783" lon="-0.48114">
        <ele>3.7</ele>
        <time>2021-06-03T14:23:48.000Z</time>
      </trkpt>
      <trkpt lat="44.95783" lon="-0.48122">
        <ele>3.9</ele>
        <time>2021-06-03T14:23:49.000Z</time>
      </trkpt>
      <trkpt lat="44.95785" lon="-0.48129">
        <ele>3.8</ele>
        <time>2021-06-03T14:23:50.000Z</time>
      </trkpt>
      <trkpt lat="44.95786" lon="-0.48136">
        <ele>3.7</ele>
        <time>2021-06-03T14:23:51.000Z</time>
      </trkpt>
      <trkpt lat="44.95789" lon="-0.48143">
        <ele>3.7</ele>
        <time>2021-06-03T14:23:52.000Z</time>
      </trkpt>
      <trkpt lat="44.95791" lon="-0.4815">
        <ele>3.8</ele>
        <time>2021-06-03T14:23:53.000Z</time>
      </trkpt>
      <trkpt lat="44.95792" lon="-0.48157">
        <ele>3.8</ele>
        <time>2021-06-03T14:23:54.000Z</time>
      </trkpt>
      <trkpt lat="44.95794" lon="-0.48164">
        <ele>3.7</ele>
        <time>2021-06-03T14:23:55.000Z</time>
      </trkpt>
      <trkpt lat="44.95797" lon="-0.4817">
        <ele>3.6</ele>
        <time>2021-06-03T14:23:56.000Z</time>
      </trkpt>
      <trkpt lat="44.95799" lon="-0.48177">
        <ele>3.7</ele>
        <time>2021-06-03T14:23:57.000Z</time>
      </trkpt>
      <trkpt lat="44.95801" lon="-0.48184">
        <ele>3.8</ele>
        <time>2021-06-03T14:23:58.000Z</time>
      </trkpt>
      <trkpt lat="44.95804" lon="-0.48191">
        <ele>3.9</ele>
        <time>2021-06-03T14:23:59.000Z</time>
      </trkpt>
      <trkpt lat="44.95806" lon="-0.48197">
        <ele>3.7</ele>
        <time>2021-06-03T14:24:00.000Z</time>
      </trkpt>
      <trkpt lat="44.95808" lon="-0.48204">
        <ele>3.5</ele>
        <time>2021-06-03T14:24:01.000Z</time>
      </trkpt>
      <trkpt lat="44.95811" lon="-0.4821">
        <ele>3.7</ele>
        <time>2021-06-03T14:24:02.000Z</time>
      </trkpt>
      <trkpt lat="44.95813" lon="-0.48217">
        <ele>3.8</ele>
        <time>2021-06-03T14:24:03.000Z</time>
      </trkpt>
      <trkpt lat="44.95816" lon="-0.48224">
        <ele>3.7</ele>
        <time>2021-06-03T14:24:04.000Z</time>
      </trkpt>
      <trkpt lat="44.95818" lon="-0.4823">
        <ele>3.6</ele>
        <time>2021-06-03T14:24:05.000Z</time>
      </trkpt>
      <trkpt lat="44.9582" lon="-0.48236">
        <ele>3.6</ele>
        <time>2021-06-03T14:24:06.000Z</time>
      </trkpt>
      <trkpt lat="44.95823" lon="-0.48243">
        <ele>3.9</ele>
        <time>2021-06-03T14:24:07.000Z</time>
      </trkpt>
      <trkpt lat="44.95825" lon="-0.48249">
        <ele>4.1</ele>
        <time>2021-06-03T14:24:08.000Z</time>
      </trkpt>
      <trkpt lat="44.95828" lon="-0.4826">
        <ele>3.9</ele>
        <time>2021-06-03T14:24:10.000Z</time>
      </trkpt>
      <trkpt lat="44.95833" lon="-0.4827">
        <ele>3.5</ele>
        <time>2021-06-03T14:24:12.000Z</time>
      </trkpt>
      <trkpt lat="44.95835" lon="-0.48275">
        <ele>3.4</ele>
        <time>2021-06-03T14:24:13.000Z</time>
      </trkpt>
      <trkpt lat="44.95838" lon="-0.48282">
        <ele>3.6</ele>
        <time>2021-06-03T14:24:14.000Z</time>
      </trkpt>
      <trkpt lat="44.9584" lon="-0.48288">
        <ele>3.8</ele>
        <time>2021-06-03T14:24:15.000Z</time>
      </trkpt>
      <trkpt lat="44.95843" lon="-0.48294">
        <ele>3.9</ele>
        <time>2021-06-03T14:24:16.000Z</time>
      </trkpt>
      <trkpt lat="44.95846" lon="-0.483">
        <ele>3.9</ele>
        <time>2021-06-03T14:24:17.000Z</time>
      </trkpt>
      <trkpt lat="44.95848" lon="-0.48306">
        <ele>3.8</ele>
        <time>2021-06-03T14:24:18.000Z</time>
      </trkpt>
      <trkpt lat="44.9585" lon="-0.48312">
        <ele>3.7</ele>
        <time>2021-06-03T14:24:19.000Z</time>
      </trkpt>
      <trkpt lat="44.95852" lon="-0.48318">
        <ele>3.6</ele>
        <time>2021-06-03T14:24:20.000Z</time>
      </trkpt>
      <trkpt lat="44.95855" lon="-0.48324">
        <ele>3.7</ele>
        <time>2021-06-03T14:24:21.000Z</time>
      </trkpt>
      <trkpt lat="44.95857" lon="-0.48331">
        <ele>3.9</ele>
        <time>2021-06-03T14:24:22.000Z</time>
      </trkpt>
      <trkpt lat="44.95859" lon="-0.48337">
        <ele>3.8</ele>
        <time>2021-06-03T14:24:23.000Z</time>
      </trkpt>
      <trkpt lat="44.95861" lon="-0.48342">
        <ele>3.7</ele>
        <time>2021-06-03T14:24:24.000Z</time>
      </trkpt>
      <trkpt lat="44.95864" lon="-0.48348">
        <ele>3.7</ele>
        <time>2021-06-03T14:24:25.000Z</time>
      </trkpt>
      <trkpt lat="44.95866" lon="-0.48354">
        <ele>3.8</ele>
        <time>2021-06-03T14:24:26.000Z</time>
      </trkpt>
      <trkpt lat="44.95868" lon="-0.4836">
        <ele>4</ele>
        <time>2021-06-03T14:24:27.000Z</time>
      </trkpt>
      <trkpt lat="44.95872" lon="-0.48371">
        <ele>4.1</ele>
        <time>2021-06-03T14:24:29.000Z</time>
      </trkpt>
      <trkpt lat="44.95875" lon="-0.48381">
        <ele>3.8</ele>
        <time>2021-06-03T14:24:31.000Z</time>
      </trkpt>
      <trkpt lat="44.95878" lon="-0.48391">
        <ele>3</ele>
        <time>2021-06-03T14:24:34.000Z</time>
      </trkpt>
      <trkpt lat="44.95881" lon="-0.48401">
        <ele>3.4</ele>
        <time>2021-06-03T14:24:37.000Z</time>
      </trkpt>
      <trkpt lat="44.95878" lon="-0.48411">
        <ele>3.9</ele>
        <time>2021-06-03T14:24:40.000Z</time>
      </trkpt>
      <trkpt lat="44.95871" lon="-0.48415">
        <ele>3.8</ele>
        <time>2021-06-03T14:24:42.000Z</time>
      </trkpt>
      <trkpt lat="44.95863" lon="-0.48419">
        <ele>3.5</ele>
        <time>2021-06-03T14:24:44.000Z</time>
      </trkpt>
      <trkpt lat="44.95859" lon="-0.48421">
        <ele>3.5</ele>
        <time>2021-06-03T14:24:45.000Z</time>
      </trkpt>
      <trkpt lat="44.95854" lon="-0.48422">
        <ele>3.5</ele>
        <time>2021-06-03T14:24:46.000Z</time>
      </trkpt>
      <trkpt lat="44.9585" lon="-0.48424">
        <ele>3.5</ele>
        <time>2021-06-03T14:24:47.000Z</time>
      </trkpt>
      <trkpt lat="44.95845" lon="-0.48426">
        <ele>3.6</ele>
        <time>2021-06-03T14:24:48.000Z</time>
      </trkpt>
      <trkpt lat="44.9584" lon="-0.48428">
        <ele>3.5</ele>
        <time>2021-06-03T14:24:49.000Z</time>
      </trkpt>
      <trkpt lat="44.95835" lon="-0.48429">
        <ele>3.4</ele>
        <time>2021-06-03T14:24:50.000Z</time>
      </trkpt>
      <trkpt lat="44.95831" lon="-0.48431">
        <ele>3.3</ele>
        <time>2021-06-03T14:24:51.000Z</time>
      </trkpt>
      <trkpt lat="44.95826" lon="-0.48433">
        <ele>3.5</ele>
        <time>2021-06-03T14:24:52.000Z</time>
      </trkpt>
      <trkpt lat="44.95821" lon="-0.48435">
        <ele>3.6</ele>
        <time>2021-06-03T14:24:53.000Z</time>
      </trkpt>
      <trkpt lat="44.95816" lon="-0.48437">
        <ele>3.4</ele>
        <time>2021-06-03T14:24:54.000Z</time>
      </trkpt>
      <trkpt lat="44.95811" lon="-0.48439">
        <ele>3.3</ele>
        <time>2021-06-03T14:24:55.000Z</time>
      </trkpt>
      <trkpt lat="44.95806" lon="-0.48441">
        <ele>3.4</ele>
        <time>2021-06-03T14:24:56.000Z</time>
      </trkpt>
      <trkpt lat="44.95801" lon="-0.48442">
        <ele>3.4</ele>
        <time>2021-06-03T14:24:57.000Z</time>
      </trkpt>
      <trkpt lat="44.95797" lon="-0.48444">
        <ele>3.5</ele>
        <time>2021-06-03T14:24:58.000Z</time>
      </trkpt>
      <trkpt lat="44.95791" lon="-0.48446">
        <ele>3.6</ele>
        <time>2021-06-03T14:24:59.000Z</time>
      </trkpt>
      <trkpt lat="44.95786" lon="-0.48448">
        <ele>3.6</ele>
        <time>2021-06-03T14:25:00.000Z</time>
      </trkpt>
      <trkpt lat="44.95781" lon="-0.4845">
        <ele>3.8</ele>
        <time>2021-06-03T14:25:01.000Z</time>
      </trkpt>
      <trkpt lat="44.95777" lon="-0.48452">
        <ele>4</ele>
        <time>2021-06-03T14:25:02.000Z</time>
      </trkpt>
      <trkpt lat="44.95772" lon="-0.48454">
        <ele>4.1</ele>
        <time>2021-06-03T14:25:03.000Z</time>
      </trkpt>
      <trkpt lat="44.95767" lon="-0.48455">
        <ele>4</ele>
        <time>2021-06-03T14:25:04.000Z</time>
      </trkpt>
      <trkpt lat="44.95762" lon="-0.48457">
        <ele>3.8</ele>
        <time>2021-06-03T14:25:05.000Z</time>
      </trkpt>
      <trkpt lat="44.95757" lon="-0.48459">
        <ele>3.6</ele>
        <time>2021-06-03T14:25:06.000Z</time>
      </trkpt>
      <trkpt lat="44.95751" lon="-0.48461">
        <ele>3.4</ele>
        <time>2021-06-03T14:25:07.000Z</time>
      </trkpt>
      <trkpt lat="44.95746" lon="-0.48463">
        <ele>3.5</ele>
        <time>2021-06-03T14:25:08.000Z</time>
      </trkpt>
      <trkpt lat="44.95741" lon="-0.48465">
        <ele>3.5</ele>
        <time>2021-06-03T14:25:09.000Z</time>
      </trkpt>
      <trkpt lat="44.95736" lon="-0.48467">
        <ele>3.5</ele>
        <time>2021-06-03T14:25:10.000Z</time>
      </trkpt>
      <trkpt lat="44.95731" lon="-0.48469">
        <ele>3.6</ele>
        <time>2021-06-03T14:25:11.000Z</time>
      </trkpt>
      <trkpt lat="44.95726" lon="-0.4847">
        <ele>3.8</ele>
        <time>2021-06-03T14:25:12.000Z</time>
      </trkpt>
      <trkpt lat="44.95721" lon="-0.48472">
        <ele>3.8</ele>
        <time>2021-06-03T14:25:13.000Z</time>
      </trkpt>
      <trkpt lat="44.95716" lon="-0.48474">
        <ele>3.9</ele>
        <time>2021-06-03T14:25:14.000Z</time>
      </trkpt>
      <trkpt lat="44.95711" lon="-0.48476">
        <ele>3.8</ele>
        <time>2021-06-03T14:25:15.000Z</time>
      </trkpt>
      <trkpt lat="44.95706" lon="-0.48478">
        <ele>3.8</ele>
        <time>2021-06-03T14:25:16.000Z</time>
      </trkpt>
      <trkpt lat="44.95701" lon="-0.4848">
        <ele>3.8</ele>
        <time>2021-06-03T14:25:17.000Z</time>
      </trkpt>
      <trkpt lat="44.95696" lon="-0.48482">
        <ele>3.8</ele>
        <time>2021-06-03T14:25:18.000Z</time>
      </trkpt>
      <trkpt lat="44.95691" lon="-0.48484">
        <ele>3.8</ele>
        <time>2021-06-03T14:25:19.000Z</time>
      </trkpt>
      <trkpt lat="44.95685" lon="-0.48485">
        <ele>3.7</ele>
        <time>2021-06-03T14:25:20.000Z</time>
      </trkpt>
      <trkpt lat="44.9568" lon="-0.48487">
        <ele>3.6</ele>
        <time>2021-06-03T14:25:21.000Z</time>
      </trkpt>
      <trkpt lat="44.95675" lon="-0.48489">
        <ele>3.6</ele>
        <time>2021-06-03T14:25:22.000Z</time>
      </trkpt>
      <trkpt lat="44.95669" lon="-0.48491">
        <ele>3.4</ele>
        <time>2021-06-03T14:25:23.000Z</time>
      </trkpt>
      <trkpt lat="44.95664" lon="-0.48493">
        <ele>3.2</ele>
        <time>2021-06-03T14:25:24.000Z</time>
      </trkpt>
      <trkpt lat="44.95659" lon="-0.48495">
        <ele>3.5</ele>
        <time>2021-06-03T14:25:25.000Z</time>
      </trkpt>
      <trkpt lat="44.95654" lon="-0.48497">
        <ele>3.7</ele>
        <time>2021-06-03T14:25:26.000Z</time>
      </trkpt>
      <trkpt lat="44.95648" lon="-0.48499">
        <ele>3.7</ele>
        <time>2021-06-03T14:25:27.000Z</time>
      </trkpt>
      <trkpt lat="44.95643" lon="-0.48501">
        <ele>3.6</ele>
        <time>2021-06-03T14:25:28.000Z</time>
      </trkpt>
      <trkpt lat="44.95638" lon="-0.48503">
        <ele>3.6</ele>
        <time>2021-06-03T14:25:29.000Z</time>
      </trkpt>
      <trkpt lat="44.95632" lon="-0.48505">
        <ele>3.7</ele>
        <time>2021-06-03T14:25:30.000Z</time>
      </trkpt>
      <trkpt lat="44.95627" lon="-0.48507">
        <ele>3.8</ele>
        <time>2021-06-03T14:25:31.000Z</time>
      </trkpt>
      <trkpt lat="44.95622" lon="-0.48509">
        <ele>3.7</ele>
        <time>2021-06-03T14:25:32.000Z</time>
      </trkpt>
      <trkpt lat="44.95616" lon="-0.48511">
        <ele>3.6</ele>
        <time>2021-06-03T14:25:33.000Z</time>
      </trkpt>
      <trkpt lat="44.95611" lon="-0.48513">
        <ele>3.7</ele>
        <time>2021-06-03T14:25:34.000Z</time>
      </trkpt>
      <trkpt lat="44.95606" lon="-0.48515">
        <ele>3.7</ele>
        <time>2021-06-03T14:25:35.000Z</time>
      </trkpt>
      <trkpt lat="44.956" lon="-0.48517">
        <ele>3.7</ele>
        <time>2021-06-03T14:25:36.000Z</time>
      </trkpt>
      <trkpt lat="44.95595" lon="-0.48519">
        <ele>3.8</ele>
        <time>2021-06-03T14:25:37.000Z</time>
      </trkpt>
      <trkpt lat="44.95589" lon="-0.48521">
        <ele>3.8</ele>
        <time>2021-06-03T14:25:38.000Z</time>
      </trkpt>
      <trkpt lat="44.95584" lon="-0.48523">
        <ele>3.8</ele>
        <time>2021-06-03T14:25:39.000Z</time>
      </trkpt>
      <trkpt lat="44.95579" lon="-0.48525">
        <ele>3.8</ele>
        <time>2021-06-03T14:25:40.000Z</time>
      </trkpt>
      <trkpt lat="44.95574" lon="-0.48527">
        <ele>3.6</ele>
        <time>2021-06-03T14:25:41.000Z</time>
      </trkpt>
      <trkpt lat="44.95568" lon="-0.48529">
        <ele>3.4</ele>
        <time>2021-06-03T14:25:42.000Z</time>
      </trkpt>
      <trkpt lat="44.95563" lon="-0.48531">
        <ele>3.3</ele>
        <time>2021-06-03T14:25:43.000Z</time>
      </trkpt>
      <trkpt lat="44.95558" lon="-0.48533">
        <ele>3.5</ele>
        <time>2021-06-03T14:25:44.000Z</time>
      </trkpt>
      <trkpt lat="44.95552" lon="-0.48535">
        <ele>3.7</ele>
        <time>2021-06-03T14:25:45.000Z</time>
      </trkpt>
      <trkpt lat="44.95547" lon="-0.48537">
        <ele>3.6</ele>
        <time>2021-06-03T14:25:46.000Z</time>
      </trkpt>
      <trkpt lat="44.95542" lon="-0.48539">
        <ele>3.5</ele>
        <time>2021-06-03T14:25:47.000Z</time>
      </trkpt>
      <trkpt lat="44.95536" lon="-0.48541">
        <ele>3.5</ele>
        <time>2021-06-03T14:25:48.000Z</time>
      </trkpt>
      <trkpt lat="44.95531" lon="-0.48543">
        <ele>3.1</ele>
        <time>2021-06-03T14:25:49.000Z</time>
      </trkpt>
      <trkpt lat="44.95526" lon="-0.48545">
        <ele>2.9</ele>
        <time>2021-06-03T14:25:50.000Z</time>
      </trkpt>
      <trkpt lat="44.9552" lon="-0.48547">
        <ele>3.3</ele>
        <time>2021-06-03T14:25:51.000Z</time>
      </trkpt>
      <trkpt lat="44.95515" lon="-0.48549">
        <ele>3.6</ele>
        <time>2021-06-03T14:25:52.000Z</time>
      </trkpt>
      <trkpt lat="44.9551" lon="-0.48551">
        <ele>3.8</ele>
        <time>2021-06-03T14:25:53.000Z</time>
      </trkpt>
      <trkpt lat="44.95505" lon="-0.48553">
        <ele>3.9</ele>
        <time>2021-06-03T14:25:54.000Z</time>
      </trkpt>
      <trkpt lat="44.955" lon="-0.48555">
        <ele>4.1</ele>
        <time>2021-06-03T14:25:55.000Z</time>
      </trkpt>
      <trkpt lat="44.95494" lon="-0.48556">
        <ele>3.9</ele>
        <time>2021-06-03T14:25:56.000Z</time>
      </trkpt>
      <trkpt lat="44.95489" lon="-0.48558">
        <ele>3.7</ele>
        <time>2021-06-03T14:25:57.000Z</time>
      </trkpt>
      <trkpt lat="44.95484" lon="-0.4856">
        <ele>3.7</ele>
        <time>2021-06-03T14:25:58.000Z</time>
      </trkpt>
      <trkpt lat="44.95479" lon="-0.48562">
        <ele>3.7</ele>
        <time>2021-06-03T14:25:59.000Z</time>
      </trkpt>
      <trkpt lat="44.95474" lon="-0.48564">
        <ele>3.6</ele>
        <time>2021-06-03T14:26:00.000Z</time>
      </trkpt>
      <trkpt lat="44.95469" lon="-0.48566">
        <ele>3.6</ele>
        <time>2021-06-03T14:26:01.000Z</time>
      </trkpt>
      <trkpt lat="44.95464" lon="-0.48568">
        <ele>3.5</ele>
        <time>2021-06-03T14:26:02.000Z</time>
      </trkpt>
      <trkpt lat="44.95459" lon="-0.4857">
        <ele>3.6</ele>
        <time>2021-06-03T14:26:03.000Z</time>
      </trkpt>
      <trkpt lat="44.95454" lon="-0.48572">
        <ele>3.7</ele>
        <time>2021-06-03T14:26:04.000Z</time>
      </trkpt>
      <trkpt lat="44.95449" lon="-0.48574">
        <ele>4</ele>
        <time>2021-06-03T14:26:05.000Z</time>
      </trkpt>
      <trkpt lat="44.95444" lon="-0.48576">
        <ele>4.2</ele>
        <time>2021-06-03T14:26:06.000Z</time>
      </trkpt>
      <trkpt lat="44.95439" lon="-0.48578">
        <ele>4.4</ele>
        <time>2021-06-03T14:26:07.000Z</time>
      </trkpt>
      <trkpt lat="44.95434" lon="-0.4858">
        <ele>4.3</ele>
        <time>2021-06-03T14:26:08.000Z</time>
      </trkpt>
      <trkpt lat="44.95429" lon="-0.48582">
        <ele>4.2</ele>
        <time>2021-06-03T14:26:09.000Z</time>
      </trkpt>
      <trkpt lat="44.95424" lon="-0.48584">
        <ele>4.2</ele>
        <time>2021-06-03T14:26:10.000Z</time>
      </trkpt>
      <trkpt lat="44.95419" lon="-0.48586">
        <ele>4.3</ele>
        <time>2021-06-03T14:26:11.000Z</time>
      </trkpt>
      <trkpt lat="44.95414" lon="-0.48588">
        <ele>4.2</ele>
        <time>2021-06-03T14:26:12.000Z</time>
      </trkpt>
      <trkpt lat="44.95409" lon="-0.4859">
        <ele>4.1</ele>
        <time>2021-06-03T14:26:13.000Z</time>
      </trkpt>
      <trkpt lat="44.95404" lon="-0.48593">
        <ele>4</ele>
        <time>2021-06-03T14:26:14.000Z</time>
      </trkpt>
      <trkpt lat="44.95398" lon="-0.48595">
        <ele>4.1</ele>
        <time>2021-06-03T14:26:15.000Z</time>
      </trkpt>
      <trkpt lat="44.95393" lon="-0.48597">
        <ele>4.1</ele>
        <time>2021-06-03T14:26:16.000Z</time>
      </trkpt>
      <trkpt lat="44.95388" lon="-0.486">
        <ele>4.1</ele>
        <time>2021-06-03T14:26:17.000Z</time>
      </trkpt>
      <trkpt lat="44.95383" lon="-0.48602">
        <ele>4.2</ele>
        <time>2021-06-03T14:26:18.000Z</time>
      </trkpt>
      <trkpt lat="44.95378" lon="-0.48604">
        <ele>4</ele>
        <time>2021-06-03T14:26:19.000Z</time>
      </trkpt>
      <trkpt lat="44.95373" lon="-0.48606">
        <ele>3.8</ele>
        <time>2021-06-03T14:26:20.000Z</time>
      </trkpt>
      <trkpt lat="44.95368" lon="-0.48608">
        <ele>3.7</ele>
        <time>2021-06-03T14:26:21.000Z</time>
      </trkpt>
      <trkpt lat="44.95363" lon="-0.4861">
        <ele>3.7</ele>
        <time>2021-06-03T14:26:22.000Z</time>
      </trkpt>
      <trkpt lat="44.95357" lon="-0.48613">
        <ele>3.7</ele>
        <time>2021-06-03T14:26:23.000Z</time>
      </trkpt>
      <trkpt lat="44.95352" lon="-0.48615">
        <ele>3.8</ele>
        <time>2021-06-03T14:26:24.000Z</time>
      </trkpt>
      <trkpt lat="44.95347" lon="-0.48617">
        <ele>3.9</ele>
        <time>2021-06-03T14:26:25.000Z</time>
      </trkpt>
      <trkpt lat="44.95342" lon="-0.4862">
        <ele>4</ele>
        <time>2021-06-03T14:26:26.000Z</time>
      </trkpt>
      <trkpt lat="44.95337" lon="-0.48622">
        <ele>4.1</ele>
        <time>2021-06-03T14:26:27.000Z</time>
      </trkpt>
      <trkpt lat="44.95332" lon="-0.48623">
        <ele>4.2</ele>
        <time>2021-06-03T14:26:28.000Z</time>
      </trkpt>
      <trkpt lat="44.95327" lon="-0.48625">
        <ele>4.3</ele>
        <time>2021-06-03T14:26:29.000Z</time>
      </trkpt>
      <trkpt lat="44.95322" lon="-0.48627">
        <ele>4.4</ele>
        <time>2021-06-03T14:26:30.000Z</time>
      </trkpt>
      <trkpt lat="44.95317" lon="-0.48629">
        <ele>4.2</ele>
        <time>2021-06-03T14:26:31.000Z</time>
      </trkpt>
      <trkpt lat="44.95312" lon="-0.48632">
        <ele>4.1</ele>
        <time>2021-06-03T14:26:32.000Z</time>
      </trkpt>
      <trkpt lat="44.95307" lon="-0.48634">
        <ele>4</ele>
        <time>2021-06-03T14:26:33.000Z</time>
      </trkpt>
      <trkpt lat="44.95302" lon="-0.48636">
        <ele>4.6</ele>
        <time>2021-06-03T14:26:34.000Z</time>
      </trkpt>
      <trkpt lat="44.95297" lon="-0.48638">
        <ele>5</ele>
        <time>2021-06-03T14:26:35.000Z</time>
      </trkpt>
      <trkpt lat="44.95292" lon="-0.4864">
        <ele>4.9</ele>
        <time>2021-06-03T14:26:36.000Z</time>
      </trkpt>
      <trkpt lat="44.95287" lon="-0.48643">
        <ele>4.8</ele>
        <time>2021-06-03T14:26:37.000Z</time>
      </trkpt>
      <trkpt lat="44.95282" lon="-0.48645">
        <ele>4.6</ele>
        <time>2021-06-03T14:26:38.000Z</time>
      </trkpt>
      <trkpt lat="44.95277" lon="-0.48647">
        <ele>4.4</ele>
        <time>2021-06-03T14:26:39.000Z</time>
      </trkpt>
      <trkpt lat="44.95273" lon="-0.48649">
        <ele>4.3</ele>
        <time>2021-06-03T14:26:40.000Z</time>
      </trkpt>
      <trkpt lat="44.95268" lon="-0.48651">
        <ele>4.3</ele>
        <time>2021-06-03T14:26:41.000Z</time>
      </trkpt>
      <trkpt lat="44.95263" lon="-0.48652">
        <ele>4.3</ele>
        <time>2021-06-03T14:26:42.000Z</time>
      </trkpt>
      <trkpt lat="44.95259" lon="-0.48654">
        <ele>4.7</ele>
        <time>2021-06-03T14:26:43.000Z</time>
      </trkpt>
      <trkpt lat="44.95254" lon="-0.48656">
        <ele>5</ele>
        <time>2021-06-03T14:26:44.000Z</time>
      </trkpt>
      <trkpt lat="44.9525" lon="-0.48658">
        <ele>5.2</ele>
        <time>2021-06-03T14:26:45.000Z</time>
      </trkpt>
      <trkpt lat="44.95245" lon="-0.4866">
        <ele>5.1</ele>
        <time>2021-06-03T14:26:46.000Z</time>
      </trkpt>
      <trkpt lat="44.95241" lon="-0.48662">
        <ele>5.1</ele>
        <time>2021-06-03T14:26:47.000Z</time>
      </trkpt>
      <trkpt lat="44.95236" lon="-0.48664">
        <ele>5.2</ele>
        <time>2021-06-03T14:26:48.000Z</time>
      </trkpt>
      <trkpt lat="44.95231" lon="-0.48666">
        <ele>5.2</ele>
        <time>2021-06-03T14:26:49.000Z</time>
      </trkpt>
      <trkpt lat="44.95227" lon="-0.48668">
        <ele>5.1</ele>
        <time>2021-06-03T14:26:50.000Z</time>
      </trkpt>
      <trkpt lat="44.95222" lon="-0.4867">
        <ele>5</ele>
        <time>2021-06-03T14:26:51.000Z</time>
      </trkpt>
      <trkpt lat="44.95217" lon="-0.48672">
        <ele>5</ele>
        <time>2021-06-03T14:26:52.000Z</time>
      </trkpt>
      <trkpt lat="44.95213" lon="-0.48674">
        <ele>5</ele>
        <time>2021-06-03T14:26:53.000Z</time>
      </trkpt>
      <trkpt lat="44.95208" lon="-0.48676">
        <ele>5.1</ele>
        <time>2021-06-03T14:26:54.000Z</time>
      </trkpt>
      <trkpt lat="44.95203" lon="-0.48678">
        <ele>5.2</ele>
        <time>2021-06-03T14:26:55.000Z</time>
      </trkpt>
      <trkpt lat="44.95199" lon="-0.4868">
        <ele>5.2</ele>
        <time>2021-06-03T14:26:56.000Z</time>
      </trkpt>
      <trkpt lat="44.95194" lon="-0.48682">
        <ele>5.3</ele>
        <time>2021-06-03T14:26:57.000Z</time>
      </trkpt>
      <trkpt lat="44.9519" lon="-0.48684">
        <ele>5.3</ele>
        <time>2021-06-03T14:26:58.000Z</time>
      </trkpt>
      <trkpt lat="44.95185" lon="-0.48686">
        <ele>5.4</ele>
        <time>2021-06-03T14:26:59.000Z</time>
      </trkpt>
      <trkpt lat="44.9518" lon="-0.48688">
        <ele>5.7</ele>
        <time>2021-06-03T14:27:00.000Z</time>
      </trkpt>
      <trkpt lat="44.95175" lon="-0.4869">
        <ele>6</ele>
        <time>2021-06-03T14:27:01.000Z</time>
      </trkpt>
      <trkpt lat="44.9517" lon="-0.48692">
        <ele>6.3</ele>
        <time>2021-06-03T14:27:02.000Z</time>
      </trkpt>
      <trkpt lat="44.95166" lon="-0.48694">
        <ele>6.6</ele>
        <time>2021-06-03T14:27:03.000Z</time>
      </trkpt>
      <trkpt lat="44.95161" lon="-0.48696">
        <ele>6.8</ele>
        <time>2021-06-03T14:27:04.000Z</time>
      </trkpt>
      <trkpt lat="44.95157" lon="-0.48698">
        <ele>6.3</ele>
        <time>2021-06-03T14:27:05.000Z</time>
      </trkpt>
      <trkpt lat="44.95152" lon="-0.487">
        <ele>5.9</ele>
        <time>2021-06-03T14:27:06.000Z</time>
      </trkpt>
      <trkpt lat="44.95148" lon="-0.48702">
        <ele>6</ele>
        <time>2021-06-03T14:27:07.000Z</time>
      </trkpt>
      <trkpt lat="44.95143" lon="-0.48704">
        <ele>6</ele>
        <time>2021-06-03T14:27:08.000Z</time>
      </trkpt>
      <trkpt lat="44.95139" lon="-0.48707">
        <ele>6.2</ele>
        <time>2021-06-03T14:27:09.000Z</time>
      </trkpt>
      <trkpt lat="44.95134" lon="-0.48709">
        <ele>6.3</ele>
        <time>2021-06-03T14:27:10.000Z</time>
      </trkpt>
      <trkpt lat="44.9513" lon="-0.48711">
        <ele>6.3</ele>
        <time>2021-06-03T14:27:11.000Z</time>
      </trkpt>
      <trkpt lat="44.95125" lon="-0.48713">
        <ele>6.5</ele>
        <time>2021-06-03T14:27:12.000Z</time>
      </trkpt>
      <trkpt lat="44.95121" lon="-0.48714">
        <ele>6.6</ele>
        <time>2021-06-03T14:27:13.000Z</time>
      </trkpt>
      <trkpt lat="44.95116" lon="-0.48715">
        <ele>7</ele>
        <time>2021-06-03T14:27:14.000Z</time>
      </trkpt>
      <trkpt lat="44.95112" lon="-0.48717">
        <ele>7.3</ele>
        <time>2021-06-03T14:27:15.000Z</time>
      </trkpt>
      <trkpt lat="44.95107" lon="-0.48719">
        <ele>7.2</ele>
        <time>2021-06-03T14:27:16.000Z</time>
      </trkpt>
      <trkpt lat="44.95103" lon="-0.48721">
        <ele>7.2</ele>
        <time>2021-06-03T14:27:17.000Z</time>
      </trkpt>
      <trkpt lat="44.95098" lon="-0.48723">
        <ele>7.1</ele>
        <time>2021-06-03T14:27:18.000Z</time>
      </trkpt>
      <trkpt lat="44.95094" lon="-0.48725">
        <ele>6.9</ele>
        <time>2021-06-03T14:27:19.000Z</time>
      </trkpt>
      <trkpt lat="44.95089" lon="-0.48727">
        <ele>6.7</ele>
        <time>2021-06-03T14:27:20.000Z</time>
      </trkpt>
      <trkpt lat="44.95084" lon="-0.48729">
        <ele>7</ele>
        <time>2021-06-03T14:27:21.000Z</time>
      </trkpt>
      <trkpt lat="44.9508" lon="-0.48731">
        <ele>7.2</ele>
        <time>2021-06-03T14:27:22.000Z</time>
      </trkpt>
      <trkpt lat="44.95075" lon="-0.48733">
        <ele>7.4</ele>
        <time>2021-06-03T14:27:23.000Z</time>
      </trkpt>
      <trkpt lat="44.9507" lon="-0.48735">
        <ele>7.5</ele>
        <time>2021-06-03T14:27:24.000Z</time>
      </trkpt>
      <trkpt lat="44.95066" lon="-0.48737">
        <ele>7.6</ele>
        <time>2021-06-03T14:27:25.000Z</time>
      </trkpt>
      <trkpt lat="44.95061" lon="-0.48738">
        <ele>7.9</ele>
        <time>2021-06-03T14:27:26.000Z</time>
      </trkpt>
      <trkpt lat="44.95057" lon="-0.4874">
        <ele>8.1</ele>
        <time>2021-06-03T14:27:27.000Z</time>
      </trkpt>
      <trkpt lat="44.95052" lon="-0.48742">
        <ele>8</ele>
        <time>2021-06-03T14:27:28.000Z</time>
      </trkpt>
      <trkpt lat="44.95048" lon="-0.48744">
        <ele>7.9</ele>
        <time>2021-06-03T14:27:29.000Z</time>
      </trkpt>
      <trkpt lat="44.95043" lon="-0.48746">
        <ele>7.8</ele>
        <time>2021-06-03T14:27:30.000Z</time>
      </trkpt>
      <trkpt lat="44.95039" lon="-0.48748">
        <ele>7.9</ele>
        <time>2021-06-03T14:27:31.000Z</time>
      </trkpt>
      <trkpt lat="44.95034" lon="-0.4875">
        <ele>8</ele>
        <time>2021-06-03T14:27:32.000Z</time>
      </trkpt>
      <trkpt lat="44.9503" lon="-0.48752">
        <ele>7.9</ele>
        <time>2021-06-03T14:27:33.000Z</time>
      </trkpt>
      <trkpt lat="44.95025" lon="-0.48753">
        <ele>7.8</ele>
        <time>2021-06-03T14:27:34.000Z</time>
      </trkpt>
      <trkpt lat="44.95021" lon="-0.48755">
        <ele>8</ele>
        <time>2021-06-03T14:27:35.000Z</time>
      </trkpt>
      <trkpt lat="44.95016" lon="-0.48757">
        <ele>8.1</ele>
        <time>2021-06-03T14:27:36.000Z</time>
      </trkpt>
      <trkpt lat="44.95012" lon="-0.48759">
        <ele>8.2</ele>
        <time>2021-06-03T14:27:37.000Z</time>
      </trkpt>
      <trkpt lat="44.95007" lon="-0.48761">
        <ele>8.3</ele>
        <time>2021-06-03T14:27:38.000Z</time>
      </trkpt>
      <trkpt lat="44.95003" lon="-0.48763">
        <ele>8.4</ele>
        <time>2021-06-03T14:27:39.000Z</time>
      </trkpt>
      <trkpt lat="44.94998" lon="-0.48764">
        <ele>8.5</ele>
        <time>2021-06-03T14:27:40.000Z</time>
      </trkpt>
      <trkpt lat="44.94994" lon="-0.48766">
        <ele>8.6</ele>
        <time>2021-06-03T14:27:41.000Z</time>
      </trkpt>
      <trkpt lat="44.94989" lon="-0.48768">
        <ele>8.6</ele>
        <time>2021-06-03T14:27:42.000Z</time>
      </trkpt>
      <trkpt lat="44.94985" lon="-0.4877">
        <ele>8.8</ele>
        <time>2021-06-03T14:27:43.000Z</time>
      </trkpt>
      <trkpt lat="44.94981" lon="-0.48772">
        <ele>8.9</ele>
        <time>2021-06-03T14:27:44.000Z</time>
      </trkpt>
      <trkpt lat="44.94976" lon="-0.48774">
        <ele>8.7</ele>
        <time>2021-06-03T14:27:45.000Z</time>
      </trkpt>
      <trkpt lat="44.94972" lon="-0.48776">
        <ele>8.6</ele>
        <time>2021-06-03T14:27:46.000Z</time>
      </trkpt>
      <trkpt lat="44.94968" lon="-0.48778">
        <ele>8.6</ele>
        <time>2021-06-03T14:27:47.000Z</time>
      </trkpt>
      <trkpt lat="44.94963" lon="-0.4878">
        <ele>8.7</ele>
        <time>2021-06-03T14:27:48.000Z</time>
      </trkpt>
      <trkpt lat="44.94959" lon="-0.48782">
        <ele>8.7</ele>
        <time>2021-06-03T14:27:49.000Z</time>
      </trkpt>
      <trkpt lat="44.94954" lon="-0.48783">
        <ele>8.9</ele>
        <time>2021-06-03T14:27:50.000Z</time>
      </trkpt>
      <trkpt lat="44.9495" lon="-0.48785">
        <ele>9.1</ele>
        <time>2021-06-03T14:27:51.000Z</time>
      </trkpt>
      <trkpt lat="44.94946" lon="-0.48787">
        <ele>9.5</ele>
        <time>2021-06-03T14:27:52.000Z</time>
      </trkpt>
      <trkpt lat="44.94937" lon="-0.48791">
        <ele>9.7</ele>
        <time>2021-06-03T14:27:54.000Z</time>
      </trkpt>
      <trkpt lat="44.94933" lon="-0.48793">
        <ele>9.6</ele>
        <time>2021-06-03T14:27:55.000Z</time>
      </trkpt>
      <trkpt lat="44.94928" lon="-0.48794">
        <ele>9.6</ele>
        <time>2021-06-03T14:27:56.000Z</time>
      </trkpt>
      <trkpt lat="44.9492" lon="-0.48798">
        <ele>9.4</ele>
        <time>2021-06-03T14:27:58.000Z</time>
      </trkpt>
      <trkpt lat="44.94911" lon="-0.48802">
        <ele>9.9</ele>
        <time>2021-06-03T14:28:00.000Z</time>
      </trkpt>
      <trkpt lat="44.94907" lon="-0.48804">
        <ele>9.9</ele>
        <time>2021-06-03T14:28:01.000Z</time>
      </trkpt>
      <trkpt lat="44.94899" lon="-0.48808">
        <ele>9.8</ele>
        <time>2021-06-03T14:28:03.000Z</time>
      </trkpt>
      <trkpt lat="44.9489" lon="-0.48812">
        <ele>10</ele>
        <time>2021-06-03T14:28:05.000Z</time>
      </trkpt>
      <trkpt lat="44.94882" lon="-0.48817">
        <ele>10.4</ele>
        <time>2021-06-03T14:28:07.000Z</time>
      </trkpt>
      <trkpt lat="44.94878" lon="-0.48819">
        <ele>10.5</ele>
        <time>2021-06-03T14:28:08.000Z</time>
      </trkpt>
      <trkpt lat="44.94874" lon="-0.48822">
        <ele>10.7</ele>
        <time>2021-06-03T14:28:09.000Z</time>
      </trkpt>
      <trkpt lat="44.94869" lon="-0.48824">
        <ele>10.8</ele>
        <time>2021-06-03T14:28:10.000Z</time>
      </trkpt>
      <trkpt lat="44.94865" lon="-0.48826">
        <ele>10.7</ele>
        <time>2021-06-03T14:28:11.000Z</time>
      </trkpt>
      <trkpt lat="44.94861" lon="-0.48829">
        <ele>10.7</ele>
        <time>2021-06-03T14:28:12.000Z</time>
      </trkpt>
      <trkpt lat="44.94857" lon="-0.48831">
        <ele>10.8</ele>
        <time>2021-06-03T14:28:13.000Z</time>
      </trkpt>
      <trkpt lat="44.94852" lon="-0.48834">
        <ele>10.9</ele>
        <time>2021-06-03T14:28:14.000Z</time>
      </trkpt>
      <trkpt lat="44.94848" lon="-0.48836">
        <ele>11</ele>
        <time>2021-06-03T14:28:15.000Z</time>
      </trkpt>
      <trkpt lat="44.94844" lon="-0.48839">
        <ele>11.1</ele>
        <time>2021-06-03T14:28:16.000Z</time>
      </trkpt>
      <trkpt lat="44.9484" lon="-0.48842">
        <ele>11.2</ele>
        <time>2021-06-03T14:28:17.000Z</time>
      </trkpt>
      <trkpt lat="44.94836" lon="-0.48844">
        <ele>11.2</ele>
        <time>2021-06-03T14:28:18.000Z</time>
      </trkpt>
      <trkpt lat="44.94831" lon="-0.48847">
        <ele>11.2</ele>
        <time>2021-06-03T14:28:19.000Z</time>
      </trkpt>
      <trkpt lat="44.94827" lon="-0.48849">
        <ele>11.3</ele>
        <time>2021-06-03T14:28:20.000Z</time>
      </trkpt>
      <trkpt lat="44.94823" lon="-0.48851">
        <ele>11.2</ele>
        <time>2021-06-03T14:28:21.000Z</time>
      </trkpt>
      <trkpt lat="44.94819" lon="-0.48854">
        <ele>11.1</ele>
        <time>2021-06-03T14:28:22.000Z</time>
      </trkpt>
      <trkpt lat="44.94814" lon="-0.48857">
        <ele>10.8</ele>
        <time>2021-06-03T14:28:23.000Z</time>
      </trkpt>
      <trkpt lat="44.94809" lon="-0.48859">
        <ele>10.6</ele>
        <time>2021-06-03T14:28:24.000Z</time>
      </trkpt>
      <trkpt lat="44.94805" lon="-0.48862">
        <ele>10.6</ele>
        <time>2021-06-03T14:28:25.000Z</time>
      </trkpt>
      <trkpt lat="44.948" lon="-0.48864">
        <ele>10.5</ele>
        <time>2021-06-03T14:28:26.000Z</time>
      </trkpt>
      <trkpt lat="44.94795" lon="-0.48867">
        <ele>10.5</ele>
        <time>2021-06-03T14:28:27.000Z</time>
      </trkpt>
      <trkpt lat="44.94791" lon="-0.48869">
        <ele>10.7</ele>
        <time>2021-06-03T14:28:28.000Z</time>
      </trkpt>
      <trkpt lat="44.94786" lon="-0.48872">
        <ele>10.8</ele>
        <time>2021-06-03T14:28:29.000Z</time>
      </trkpt>
      <trkpt lat="44.94781" lon="-0.48875">
        <ele>11.1</ele>
        <time>2021-06-03T14:28:30.000Z</time>
      </trkpt>
      <trkpt lat="44.94777" lon="-0.48877">
        <ele>11.3</ele>
        <time>2021-06-03T14:28:31.000Z</time>
      </trkpt>
      <trkpt lat="44.94772" lon="-0.4888">
        <ele>11.1</ele>
        <time>2021-06-03T14:28:32.000Z</time>
      </trkpt>
      <trkpt lat="44.94768" lon="-0.48883">
        <ele>11</ele>
        <time>2021-06-03T14:28:33.000Z</time>
      </trkpt>
      <trkpt lat="44.94763" lon="-0.48885">
        <ele>10.9</ele>
        <time>2021-06-03T14:28:34.000Z</time>
      </trkpt>
      <trkpt lat="44.94758" lon="-0.48888">
        <ele>10.7</ele>
        <time>2021-06-03T14:28:35.000Z</time>
      </trkpt>
      <trkpt lat="44.94754" lon="-0.4889">
        <ele>10.6</ele>
        <time>2021-06-03T14:28:36.000Z</time>
      </trkpt>
      <trkpt lat="44.94749" lon="-0.48892">
        <ele>10.9</ele>
        <time>2021-06-03T14:28:37.000Z</time>
      </trkpt>
      <trkpt lat="44.94745" lon="-0.48894">
        <ele>11.1</ele>
        <time>2021-06-03T14:28:38.000Z</time>
      </trkpt>
      <trkpt lat="44.9474" lon="-0.48896">
        <ele>11.3</ele>
        <time>2021-06-03T14:28:39.000Z</time>
      </trkpt>
      <trkpt lat="44.94736" lon="-0.48898">
        <ele>11.5</ele>
        <time>2021-06-03T14:28:40.000Z</time>
      </trkpt>
      <trkpt lat="44.94731" lon="-0.489">
        <ele>11.7</ele>
        <time>2021-06-03T14:28:41.000Z</time>
      </trkpt>
      <trkpt lat="44.94727" lon="-0.48902">
        <ele>11.9</ele>
        <time>2021-06-03T14:28:42.000Z</time>
      </trkpt>
      <trkpt lat="44.94723" lon="-0.48904">
        <ele>12.1</ele>
        <time>2021-06-03T14:28:43.000Z</time>
      </trkpt>
      <trkpt lat="44.94718" lon="-0.48905">
        <ele>12.3</ele>
        <time>2021-06-03T14:28:44.000Z</time>
      </trkpt>
      <trkpt lat="44.94714" lon="-0.48907">
        <ele>12.5</ele>
        <time>2021-06-03T14:28:45.000Z</time>
      </trkpt>
      <trkpt lat="44.94709" lon="-0.48909">
        <ele>12.6</ele>
        <time>2021-06-03T14:28:46.000Z</time>
      </trkpt>
      <trkpt lat="44.94705" lon="-0.48911">
        <ele>12.3</ele>
        <time>2021-06-03T14:28:47.000Z</time>
      </trkpt>
      <trkpt lat="44.94701" lon="-0.48913">
        <ele>12.1</ele>
        <time>2021-06-03T14:28:48.000Z</time>
      </trkpt>
      <trkpt lat="44.94696" lon="-0.48915">
        <ele>12.2</ele>
        <time>2021-06-03T14:28:49.000Z</time>
      </trkpt>
      <trkpt lat="44.94692" lon="-0.48917">
        <ele>12.3</ele>
        <time>2021-06-03T14:28:50.000Z</time>
      </trkpt>
      <trkpt lat="44.94687" lon="-0.48919">
        <ele>12.2</ele>
        <time>2021-06-03T14:28:51.000Z</time>
      </trkpt>
      <trkpt lat="44.94683" lon="-0.48921">
        <ele>12.1</ele>
        <time>2021-06-03T14:28:52.000Z</time>
      </trkpt>
      <trkpt lat="44.94678" lon="-0.48923">
        <ele>12.1</ele>
        <time>2021-06-03T14:28:53.000Z</time>
      </trkpt>
      <trkpt lat="44.94673" lon="-0.48925">
        <ele>11.9</ele>
        <time>2021-06-03T14:28:54.000Z</time>
      </trkpt>
      <trkpt lat="44.94668" lon="-0.48926">
        <ele>11.7</ele>
        <time>2021-06-03T14:28:55.000Z</time>
      </trkpt>
      <trkpt lat="44.94664" lon="-0.48928">
        <ele>12.1</ele>
        <time>2021-06-03T14:28:56.000Z</time>
      </trkpt>
      <trkpt lat="44.94659" lon="-0.48929">
        <ele>12.3</ele>
        <time>2021-06-03T14:28:57.000Z</time>
      </trkpt>
      <trkpt lat="44.94654" lon="-0.4893">
        <ele>12.5</ele>
        <time>2021-06-03T14:28:58.000Z</time>
      </trkpt>
      <trkpt lat="44.94649" lon="-0.48931">
        <ele>12.5</ele>
        <time>2021-06-03T14:28:59.000Z</time>
      </trkpt>
      <trkpt lat="44.94645" lon="-0.48932">
        <ele>12.5</ele>
        <time>2021-06-03T14:29:00.000Z</time>
      </trkpt>
      <trkpt lat="44.9464" lon="-0.48934">
        <ele>12.5</ele>
        <time>2021-06-03T14:29:01.000Z</time>
      </trkpt>
      <trkpt lat="44.94635" lon="-0.48935">
        <ele>12.4</ele>
        <time>2021-06-03T14:29:02.000Z</time>
      </trkpt>
      <trkpt lat="44.94631" lon="-0.48937">
        <ele>12.6</ele>
        <time>2021-06-03T14:29:03.000Z</time>
      </trkpt>
      <trkpt lat="44.94626" lon="-0.48939">
        <ele>12.6</ele>
        <time>2021-06-03T14:29:04.000Z</time>
      </trkpt>
      <trkpt lat="44.94622" lon="-0.4894">
        <ele>12.7</ele>
        <time>2021-06-03T14:29:05.000Z</time>
      </trkpt>
      <trkpt lat="44.94617" lon="-0.48942">
        <ele>13</ele>
        <time>2021-06-03T14:29:06.000Z</time>
      </trkpt>
      <trkpt lat="44.94612" lon="-0.48944">
        <ele>13.1</ele>
        <time>2021-06-03T14:29:07.000Z</time>
      </trkpt>
      <trkpt lat="44.94604" lon="-0.48947">
        <ele>13.5</ele>
        <time>2021-06-03T14:29:09.000Z</time>
      </trkpt>
      <trkpt lat="44.94595" lon="-0.48949">
        <ele>13.1</ele>
        <time>2021-06-03T14:29:11.000Z</time>
      </trkpt>
      <trkpt lat="44.94587" lon="-0.48953">
        <ele>12.6</ele>
        <time>2021-06-03T14:29:13.000Z</time>
      </trkpt>
      <trkpt lat="44.94579" lon="-0.48956">
        <ele>12.3</ele>
        <time>2021-06-03T14:29:15.000Z</time>
      </trkpt>
      <trkpt lat="44.94572" lon="-0.48958">
        <ele>12.3</ele>
        <time>2021-06-03T14:29:17.000Z</time>
      </trkpt>
      <trkpt lat="44.94566" lon="-0.48961">
        <ele>12.8</ele>
        <time>2021-06-03T14:29:19.000Z</time>
      </trkpt>
      <trkpt lat="44.9456" lon="-0.48964">
        <ele>13.3</ele>
        <time>2021-06-03T14:29:21.000Z</time>
      </trkpt>
      <trkpt lat="44.94554" lon="-0.48967">
        <ele>13.3</ele>
        <time>2021-06-03T14:29:23.000Z</time>
      </trkpt>
      <trkpt lat="44.94547" lon="-0.48971">
        <ele>13.1</ele>
        <time>2021-06-03T14:29:26.000Z</time>
      </trkpt>
      <trkpt lat="44.94539" lon="-0.48975">
        <ele>13</ele>
        <time>2021-06-03T14:29:31.000Z</time>
      </trkpt>
      <trkpt lat="44.94538" lon="-0.48975">
        <ele>13.5</ele>
        <time>2021-06-03T14:29:32.000Z</time>
      </trkpt>
      <trkpt lat="44.94522" lon="-0.48982">
        <ele>12.8</ele>
        <time>2021-06-03T14:29:51.000Z</time>
      </trkpt>
      <trkpt lat="44.94515" lon="-0.48985">
        <ele>12.7</ele>
        <time>2021-06-03T14:29:53.000Z</time>
      </trkpt>
      <trkpt lat="44.94508" lon="-0.48988">
        <ele>12.8</ele>
        <time>2021-06-03T14:29:55.000Z</time>
      </trkpt>
      <trkpt lat="44.945" lon="-0.48992">
        <ele>12.7</ele>
        <time>2021-06-03T14:29:57.000Z</time>
      </trkpt>
      <trkpt lat="44.94492" lon="-0.48995">
        <ele>13.4</ele>
        <time>2021-06-03T14:29:59.000Z</time>
      </trkpt>
      <trkpt lat="44.94484" lon="-0.48999">
        <ele>14</ele>
        <time>2021-06-03T14:30:01.000Z</time>
      </trkpt>
      <trkpt lat="44.9448" lon="-0.49001">
        <ele>14.2</ele>
        <time>2021-06-03T14:30:02.000Z</time>
      </trkpt>
      <trkpt lat="44.94475" lon="-0.49002">
        <ele>14.5</ele>
        <time>2021-06-03T14:30:03.000Z</time>
      </trkpt>
      <trkpt lat="44.94471" lon="-0.49005">
        <ele>14.7</ele>
        <time>2021-06-03T14:30:04.000Z</time>
      </trkpt>
      <trkpt lat="44.94467" lon="-0.49007">
        <ele>14.4</ele>
        <time>2021-06-03T14:30:05.000Z</time>
      </trkpt>
      <trkpt lat="44.94462" lon="-0.49009">
        <ele>14.2</ele>
        <time>2021-06-03T14:30:06.000Z</time>
      </trkpt>
      <trkpt lat="44.94458" lon="-0.49011">
        <ele>14.5</ele>
        <time>2021-06-03T14:30:07.000Z</time>
      </trkpt>
      <trkpt lat="44.94453" lon="-0.49013">
        <ele>14.8</ele>
        <time>2021-06-03T14:30:08.000Z</time>
      </trkpt>
      <trkpt lat="44.94449" lon="-0.49014">
        <ele>15</ele>
        <time>2021-06-03T14:30:09.000Z</time>
      </trkpt>
      <trkpt lat="44.94444" lon="-0.49016">
        <ele>15</ele>
        <time>2021-06-03T14:30:10.000Z</time>
      </trkpt>
      <trkpt lat="44.9444" lon="-0.49018">
        <ele>15</ele>
        <time>2021-06-03T14:30:11.000Z</time>
      </trkpt>
      <trkpt lat="44.94435" lon="-0.4902">
        <ele>14.6</ele>
        <time>2021-06-03T14:30:12.000Z</time>
      </trkpt>
      <trkpt lat="44.9443" lon="-0.49022">
        <ele>14.2</ele>
        <time>2021-06-03T14:30:13.000Z</time>
      </trkpt>
      <trkpt lat="44.94426" lon="-0.49024">
        <ele>14</ele>
        <time>2021-06-03T14:30:14.000Z</time>
      </trkpt>
      <trkpt lat="44.94421" lon="-0.49026">
        <ele>14.1</ele>
        <time>2021-06-03T14:30:15.000Z</time>
      </trkpt>
      <trkpt lat="44.94416" lon="-0.49029">
        <ele>14.2</ele>
        <time>2021-06-03T14:30:16.000Z</time>
      </trkpt>
      <trkpt lat="44.94408" lon="-0.49032">
        <ele>14.7</ele>
        <time>2021-06-03T14:30:18.000Z</time>
      </trkpt>
      <trkpt lat="44.944" lon="-0.49036">
        <ele>14.6</ele>
        <time>2021-06-03T14:30:20.000Z</time>
      </trkpt>
      <trkpt lat="44.94392" lon="-0.49039">
        <ele>14.6</ele>
        <time>2021-06-03T14:30:22.000Z</time>
      </trkpt>
      <trkpt lat="44.94383" lon="-0.49043">
        <ele>15</ele>
        <time>2021-06-03T14:30:24.000Z</time>
      </trkpt>
      <trkpt lat="44.94379" lon="-0.49044">
        <ele>15.3</ele>
        <time>2021-06-03T14:30:25.000Z</time>
      </trkpt>
      <trkpt lat="44.94375" lon="-0.49046">
        <ele>15.3</ele>
        <time>2021-06-03T14:30:26.000Z</time>
      </trkpt>
      <trkpt lat="44.9437" lon="-0.49048">
        <ele>15.3</ele>
        <time>2021-06-03T14:30:27.000Z</time>
      </trkpt>
      <trkpt lat="44.94366" lon="-0.4905">
        <ele>15.4</ele>
        <time>2021-06-03T14:30:28.000Z</time>
      </trkpt>
      <trkpt lat="44.94361" lon="-0.49052">
        <ele>15.2</ele>
        <time>2021-06-03T14:30:29.000Z</time>
      </trkpt>
      <trkpt lat="44.94357" lon="-0.49055">
        <ele>15.1</ele>
        <time>2021-06-03T14:30:30.000Z</time>
      </trkpt>
      <trkpt lat="44.94352" lon="-0.49057">
        <ele>15</ele>
        <time>2021-06-03T14:30:31.000Z</time>
      </trkpt>
      <trkpt lat="44.94347" lon="-0.49059">
        <ele>15</ele>
        <time>2021-06-03T14:30:32.000Z</time>
      </trkpt>
      <trkpt lat="44.94343" lon="-0.49061">
        <ele>14.9</ele>
        <time>2021-06-03T14:30:33.000Z</time>
      </trkpt>
      <trkpt lat="44.94338" lon="-0.49063">
        <ele>14.9</ele>
        <time>2021-06-03T14:30:34.000Z</time>
      </trkpt>
      <trkpt lat="44.94333" lon="-0.49065">
        <ele>14.9</ele>
        <time>2021-06-03T14:30:35.000Z</time>
      </trkpt>
      <trkpt lat="44.94329" lon="-0.49067">
        <ele>14.8</ele>
        <time>2021-06-03T14:30:36.000Z</time>
      </trkpt>
      <trkpt lat="44.94324" lon="-0.49069">
        <ele>14.8</ele>
        <time>2021-06-03T14:30:37.000Z</time>
      </trkpt>
      <trkpt lat="44.94319" lon="-0.49071">
        <ele>14.9</ele>
        <time>2021-06-03T14:30:38.000Z</time>
      </trkpt>
      <trkpt lat="44.94315" lon="-0.49073">
        <ele>15.1</ele>
        <time>2021-06-03T14:30:39.000Z</time>
      </trkpt>
      <trkpt lat="44.9431" lon="-0.49075">
        <ele>15.2</ele>
        <time>2021-06-03T14:30:40.000Z</time>
      </trkpt>
      <trkpt lat="44.94306" lon="-0.49078">
        <ele>15.1</ele>
        <time>2021-06-03T14:30:41.000Z</time>
      </trkpt>
      <trkpt lat="44.94301" lon="-0.4908">
        <ele>15</ele>
        <time>2021-06-03T14:30:42.000Z</time>
      </trkpt>
      <trkpt lat="44.94296" lon="-0.49082">
        <ele>15</ele>
        <time>2021-06-03T14:30:43.000Z</time>
      </trkpt>
      <trkpt lat="44.94292" lon="-0.49084">
        <ele>15.1</ele>
        <time>2021-06-03T14:30:44.000Z</time>
      </trkpt>
      <trkpt lat="44.94287" lon="-0.49087">
        <ele>14.7</ele>
        <time>2021-06-03T14:30:45.000Z</time>
      </trkpt>
      <trkpt lat="44.94283" lon="-0.49089">
        <ele>14.4</ele>
        <time>2021-06-03T14:30:46.000Z</time>
      </trkpt>
      <trkpt lat="44.94278" lon="-0.49092">
        <ele>14.2</ele>
        <time>2021-06-03T14:30:47.000Z</time>
      </trkpt>
      <trkpt lat="44.94274" lon="-0.49094">
        <ele>14.5</ele>
        <time>2021-06-03T14:30:48.000Z</time>
      </trkpt>
      <trkpt lat="44.94269" lon="-0.49097">
        <ele>14.8</ele>
        <time>2021-06-03T14:30:49.000Z</time>
      </trkpt>
      <trkpt lat="44.94265" lon="-0.49099">
        <ele>14.6</ele>
        <time>2021-06-03T14:30:50.000Z</time>
      </trkpt>
      <trkpt lat="44.9426" lon="-0.49102">
        <ele>14.4</ele>
        <time>2021-06-03T14:30:51.000Z</time>
      </trkpt>
      <trkpt lat="44.94256" lon="-0.49104">
        <ele>14.5</ele>
        <time>2021-06-03T14:30:52.000Z</time>
      </trkpt>
      <trkpt lat="44.94251" lon="-0.49107">
        <ele>14.6</ele>
        <time>2021-06-03T14:30:53.000Z</time>
      </trkpt>
      <trkpt lat="44.94246" lon="-0.49109">
        <ele>14.7</ele>
        <time>2021-06-03T14:30:54.000Z</time>
      </trkpt>
      <trkpt lat="44.94241" lon="-0.49111">
        <ele>14.8</ele>
        <time>2021-06-03T14:30:55.000Z</time>
      </trkpt>
      <trkpt lat="44.94236" lon="-0.49114">
        <ele>14.9</ele>
        <time>2021-06-03T14:30:56.000Z</time>
      </trkpt>
      <trkpt lat="44.94231" lon="-0.49116">
        <ele>15</ele>
        <time>2021-06-03T14:30:57.000Z</time>
      </trkpt>
      <trkpt lat="44.94226" lon="-0.49118">
        <ele>15.1</ele>
        <time>2021-06-03T14:30:58.000Z</time>
      </trkpt>
      <trkpt lat="44.94222" lon="-0.4912">
        <ele>15.2</ele>
        <time>2021-06-03T14:30:59.000Z</time>
      </trkpt>
      <trkpt lat="44.94217" lon="-0.49123">
        <ele>15.2</ele>
        <time>2021-06-03T14:31:00.000Z</time>
      </trkpt>
      <trkpt lat="44.94212" lon="-0.49125">
        <ele>15.3</ele>
        <time>2021-06-03T14:31:01.000Z</time>
      </trkpt>
      <trkpt lat="44.94208" lon="-0.49127">
        <ele>15.1</ele>
        <time>2021-06-03T14:31:02.000Z</time>
      </trkpt>
      <trkpt lat="44.94203" lon="-0.49129">
        <ele>15.1</ele>
        <time>2021-06-03T14:31:03.000Z</time>
      </trkpt>
      <trkpt lat="44.94199" lon="-0.4913">
        <ele>15</ele>
        <time>2021-06-03T14:31:04.000Z</time>
      </trkpt>
      <trkpt lat="44.9419" lon="-0.49134">
        <ele>15</ele>
        <time>2021-06-03T14:31:06.000Z</time>
      </trkpt>
      <trkpt lat="44.94186" lon="-0.49136">
        <ele>14.9</ele>
        <time>2021-06-03T14:31:07.000Z</time>
      </trkpt>
      <trkpt lat="44.94182" lon="-0.49138">
        <ele>14.7</ele>
        <time>2021-06-03T14:31:08.000Z</time>
      </trkpt>
      <trkpt lat="44.94177" lon="-0.49141">
        <ele>14.8</ele>
        <time>2021-06-03T14:31:09.000Z</time>
      </trkpt>
      <trkpt lat="44.94173" lon="-0.49143">
        <ele>14.8</ele>
        <time>2021-06-03T14:31:10.000Z</time>
      </trkpt>
      <trkpt lat="44.94168" lon="-0.49145">
        <ele>14.6</ele>
        <time>2021-06-03T14:31:11.000Z</time>
      </trkpt>
      <trkpt lat="44.94163" lon="-0.49147">
        <ele>14.5</ele>
        <time>2021-06-03T14:31:12.000Z</time>
      </trkpt>
      <trkpt lat="44.94159" lon="-0.49149">
        <ele>14.4</ele>
        <time>2021-06-03T14:31:13.000Z</time>
      </trkpt>
      <trkpt lat="44.94154" lon="-0.49151">
        <ele>14.7</ele>
        <time>2021-06-03T14:31:14.000Z</time>
      </trkpt>
      <trkpt lat="44.9415" lon="-0.49153">
        <ele>14.9</ele>
        <time>2021-06-03T14:31:15.000Z</time>
      </trkpt>
      <trkpt lat="44.94145" lon="-0.49155">
        <ele>15</ele>
        <time>2021-06-03T14:31:16.000Z</time>
      </trkpt>
      <trkpt lat="44.9414" lon="-0.49157">
        <ele>15</ele>
        <time>2021-06-03T14:31:17.000Z</time>
      </trkpt>
      <trkpt lat="44.94136" lon="-0.49159">
        <ele>15.1</ele>
        <time>2021-06-03T14:31:18.000Z</time>
      </trkpt>
      <trkpt lat="44.94131" lon="-0.49161">
        <ele>15.2</ele>
        <time>2021-06-03T14:31:19.000Z</time>
      </trkpt>
      <trkpt lat="44.94127" lon="-0.49164">
        <ele>15.2</ele>
        <time>2021-06-03T14:31:20.000Z</time>
      </trkpt>
      <trkpt lat="44.94118" lon="-0.49167">
        <ele>14.9</ele>
        <time>2021-06-03T14:31:22.000Z</time>
      </trkpt>
      <trkpt lat="44.9411" lon="-0.4917">
        <ele>14.5</ele>
        <time>2021-06-03T14:31:24.000Z</time>
      </trkpt>
      <trkpt lat="44.94105" lon="-0.49172">
        <ele>14.4</ele>
        <time>2021-06-03T14:31:25.000Z</time>
      </trkpt>
      <trkpt lat="44.94101" lon="-0.49173">
        <ele>14.9</ele>
        <time>2021-06-03T14:31:26.000Z</time>
      </trkpt>
      <trkpt lat="44.94096" lon="-0.49174">
        <ele>15.2</ele>
        <time>2021-06-03T14:31:27.000Z</time>
      </trkpt>
      <trkpt lat="44.94091" lon="-0.49175">
        <ele>15.1</ele>
        <time>2021-06-03T14:31:28.000Z</time>
      </trkpt>
      <trkpt lat="44.94087" lon="-0.49177">
        <ele>15</ele>
        <time>2021-06-03T14:31:29.000Z</time>
      </trkpt>
      <trkpt lat="44.94082" lon="-0.49178">
        <ele>14.9</ele>
        <time>2021-06-03T14:31:30.000Z</time>
      </trkpt>
      <trkpt lat="44.94077" lon="-0.49179">
        <ele>14.8</ele>
        <time>2021-06-03T14:31:31.000Z</time>
      </trkpt>
      <trkpt lat="44.94072" lon="-0.4918">
        <ele>14.8</ele>
        <time>2021-06-03T14:31:32.000Z</time>
      </trkpt>
      <trkpt lat="44.94067" lon="-0.49181">
        <ele>15</ele>
        <time>2021-06-03T14:31:33.000Z</time>
      </trkpt>
      <trkpt lat="44.94062" lon="-0.49182">
        <ele>15.2</ele>
        <time>2021-06-03T14:31:34.000Z</time>
      </trkpt>
      <trkpt lat="44.94057" lon="-0.49183">
        <ele>15.1</ele>
        <time>2021-06-03T14:31:35.000Z</time>
      </trkpt>
      <trkpt lat="44.94052" lon="-0.49184">
        <ele>15.1</ele>
        <time>2021-06-03T14:31:36.000Z</time>
      </trkpt>
      <trkpt lat="44.94048" lon="-0.49185">
        <ele>15</ele>
        <time>2021-06-03T14:31:37.000Z</time>
      </trkpt>
      <trkpt lat="44.94043" lon="-0.49186">
        <ele>15.1</ele>
        <time>2021-06-03T14:31:38.000Z</time>
      </trkpt>
      <trkpt lat="44.94038" lon="-0.49188">
        <ele>15.1</ele>
        <time>2021-06-03T14:31:39.000Z</time>
      </trkpt>
      <trkpt lat="44.94034" lon="-0.4919">
        <ele>15</ele>
        <time>2021-06-03T14:31:40.000Z</time>
      </trkpt>
      <trkpt lat="44.94029" lon="-0.49191">
        <ele>14.8</ele>
        <time>2021-06-03T14:31:41.000Z</time>
      </trkpt>
      <trkpt lat="44.94024" lon="-0.49194">
        <ele>14.9</ele>
        <time>2021-06-03T14:31:42.000Z</time>
      </trkpt>
      <trkpt lat="44.9402" lon="-0.49196">
        <ele>14.9</ele>
        <time>2021-06-03T14:31:43.000Z</time>
      </trkpt>
      <trkpt lat="44.94015" lon="-0.49199">
        <ele>14.9</ele>
        <time>2021-06-03T14:31:44.000Z</time>
      </trkpt>
      <trkpt lat="44.94011" lon="-0.49201">
        <ele>14.9</ele>
        <time>2021-06-03T14:31:45.000Z</time>
      </trkpt>
      <trkpt lat="44.94006" lon="-0.49203">
        <ele>14.8</ele>
        <time>2021-06-03T14:31:46.000Z</time>
      </trkpt>
      <trkpt lat="44.94002" lon="-0.49205">
        <ele>14.6</ele>
        <time>2021-06-03T14:31:47.000Z</time>
      </trkpt>
      <trkpt lat="44.93997" lon="-0.49207">
        <ele>14.5</ele>
        <time>2021-06-03T14:31:48.000Z</time>
      </trkpt>
      <trkpt lat="44.93992" lon="-0.49209">
        <ele>14.4</ele>
        <time>2021-06-03T14:31:49.000Z</time>
      </trkpt>
      <trkpt lat="44.93987" lon="-0.49211">
        <ele>14.4</ele>
        <time>2021-06-03T14:31:50.000Z</time>
      </trkpt>
      <trkpt lat="44.93982" lon="-0.49213">
        <ele>14.4</ele>
        <time>2021-06-03T14:31:51.000Z</time>
      </trkpt>
      <trkpt lat="44.93978" lon="-0.49215">
        <ele>14.4</ele>
        <time>2021-06-03T14:31:52.000Z</time>
      </trkpt>
      <trkpt lat="44.93973" lon="-0.49217">
        <ele>14.4</ele>
        <time>2021-06-03T14:31:53.000Z</time>
      </trkpt>
      <trkpt lat="44.93968" lon="-0.49219">
        <ele>14.4</ele>
        <time>2021-06-03T14:31:54.000Z</time>
      </trkpt>
      <trkpt lat="44.93964" lon="-0.49221">
        <ele>14.4</ele>
        <time>2021-06-03T14:31:55.000Z</time>
      </trkpt>
      <trkpt lat="44.93959" lon="-0.49223">
        <ele>14.7</ele>
        <time>2021-06-03T14:31:56.000Z</time>
      </trkpt>
      <trkpt lat="44.93955" lon="-0.49225">
        <ele>14.9</ele>
        <time>2021-06-03T14:31:57.000Z</time>
      </trkpt>
      <trkpt lat="44.9395" lon="-0.49227">
        <ele>15</ele>
        <time>2021-06-03T14:31:58.000Z</time>
      </trkpt>
      <trkpt lat="44.93946" lon="-0.49229">
        <ele>14.7</ele>
        <time>2021-06-03T14:31:59.000Z</time>
      </trkpt>
      <trkpt lat="44.93941" lon="-0.49231">
        <ele>14.5</ele>
        <time>2021-06-03T14:32:00.000Z</time>
      </trkpt>
      <trkpt lat="44.93936" lon="-0.49233">
        <ele>14.6</ele>
        <time>2021-06-03T14:32:01.000Z</time>
      </trkpt>
      <trkpt lat="44.93932" lon="-0.49235">
        <ele>14.8</ele>
        <time>2021-06-03T14:32:02.000Z</time>
      </trkpt>
      <trkpt lat="44.93927" lon="-0.49237">
        <ele>14.9</ele>
        <time>2021-06-03T14:32:03.000Z</time>
      </trkpt>
      <trkpt lat="44.93923" lon="-0.49239">
        <ele>14.7</ele>
        <time>2021-06-03T14:32:04.000Z</time>
      </trkpt>
      <trkpt lat="44.93918" lon="-0.49241">
        <ele>14.5</ele>
        <time>2021-06-03T14:32:05.000Z</time>
      </trkpt>
      <trkpt lat="44.93914" lon="-0.49243">
        <ele>14.8</ele>
        <time>2021-06-03T14:32:06.000Z</time>
      </trkpt>
      <trkpt lat="44.93909" lon="-0.49245">
        <ele>15</ele>
        <time>2021-06-03T14:32:07.000Z</time>
      </trkpt>
      <trkpt lat="44.93904" lon="-0.49247">
        <ele>14.9</ele>
        <time>2021-06-03T14:32:08.000Z</time>
      </trkpt>
      <trkpt lat="44.93899" lon="-0.49249">
        <ele>14.9</ele>
        <time>2021-06-03T14:32:09.000Z</time>
      </trkpt>
      <trkpt lat="44.93895" lon="-0.49251">
        <ele>14.8</ele>
        <time>2021-06-03T14:32:10.000Z</time>
      </trkpt>
      <trkpt lat="44.9389" lon="-0.49253">
        <ele>14.7</ele>
        <time>2021-06-03T14:32:11.000Z</time>
      </trkpt>
      <trkpt lat="44.93886" lon="-0.49256">
        <ele>14.6</ele>
        <time>2021-06-03T14:32:12.000Z</time>
      </trkpt>
      <trkpt lat="44.93881" lon="-0.49257">
        <ele>14.7</ele>
        <time>2021-06-03T14:32:13.000Z</time>
      </trkpt>
      <trkpt lat="44.93877" lon="-0.49259">
        <ele>14.9</ele>
        <time>2021-06-03T14:32:14.000Z</time>
      </trkpt>
      <trkpt lat="44.93873" lon="-0.49262">
        <ele>15</ele>
        <time>2021-06-03T14:32:15.000Z</time>
      </trkpt>
      <trkpt lat="44.93868" lon="-0.49264">
        <ele>14.8</ele>
        <time>2021-06-03T14:32:16.000Z</time>
      </trkpt>
      <trkpt lat="44.93863" lon="-0.49267">
        <ele>14.7</ele>
        <time>2021-06-03T14:32:17.000Z</time>
      </trkpt>
      <trkpt lat="44.93859" lon="-0.49269">
        <ele>14.5</ele>
        <time>2021-06-03T14:32:18.000Z</time>
      </trkpt>
      <trkpt lat="44.93854" lon="-0.4927">
        <ele>14.3</ele>
        <time>2021-06-03T14:32:19.000Z</time>
      </trkpt>
      <trkpt lat="44.93849" lon="-0.49272">
        <ele>14.5</ele>
        <time>2021-06-03T14:32:20.000Z</time>
      </trkpt>
      <trkpt lat="44.93845" lon="-0.49273">
        <ele>14.6</ele>
        <time>2021-06-03T14:32:21.000Z</time>
      </trkpt>
      <trkpt lat="44.9384" lon="-0.49275">
        <ele>14.6</ele>
        <time>2021-06-03T14:32:22.000Z</time>
      </trkpt>
      <trkpt lat="44.93835" lon="-0.49277">
        <ele>14.7</ele>
        <time>2021-06-03T14:32:23.000Z</time>
      </trkpt>
      <trkpt lat="44.9383" lon="-0.49279">
        <ele>14.8</ele>
        <time>2021-06-03T14:32:24.000Z</time>
      </trkpt>
      <trkpt lat="44.93826" lon="-0.49281">
        <ele>15</ele>
        <time>2021-06-03T14:32:25.000Z</time>
      </trkpt>
      <trkpt lat="44.93821" lon="-0.49283">
        <ele>15.2</ele>
        <time>2021-06-03T14:32:26.000Z</time>
      </trkpt>
      <trkpt lat="44.93817" lon="-0.49285">
        <ele>15.3</ele>
        <time>2021-06-03T14:32:27.000Z</time>
      </trkpt>
      <trkpt lat="44.93812" lon="-0.49287">
        <ele>15.3</ele>
        <time>2021-06-03T14:32:28.000Z</time>
      </trkpt>
      <trkpt lat="44.93808" lon="-0.49289">
        <ele>15.4</ele>
        <time>2021-06-03T14:32:29.000Z</time>
      </trkpt>
      <trkpt lat="44.93803" lon="-0.49291">
        <ele>15.3</ele>
        <time>2021-06-03T14:32:30.000Z</time>
      </trkpt>
      <trkpt lat="44.93799" lon="-0.49293">
        <ele>15.2</ele>
        <time>2021-06-03T14:32:31.000Z</time>
      </trkpt>
      <trkpt lat="44.93794" lon="-0.49295">
        <ele>15.2</ele>
        <time>2021-06-03T14:32:32.000Z</time>
      </trkpt>
      <trkpt lat="44.9379" lon="-0.49297">
        <ele>15.2</ele>
        <time>2021-06-03T14:32:33.000Z</time>
      </trkpt>
      <trkpt lat="44.93785" lon="-0.49299">
        <ele>15.2</ele>
        <time>2021-06-03T14:32:34.000Z</time>
      </trkpt>
      <trkpt lat="44.93781" lon="-0.49301">
        <ele>15.2</ele>
        <time>2021-06-03T14:32:35.000Z</time>
      </trkpt>
      <trkpt lat="44.93776" lon="-0.49302">
        <ele>15.2</ele>
        <time>2021-06-03T14:32:36.000Z</time>
      </trkpt>
      <trkpt lat="44.93772" lon="-0.49304">
        <ele>15.4</ele>
        <time>2021-06-03T14:32:37.000Z</time>
      </trkpt>
      <trkpt lat="44.93767" lon="-0.49306">
        <ele>15.6</ele>
        <time>2021-06-03T14:32:38.000Z</time>
      </trkpt>
      <trkpt lat="44.93763" lon="-0.49308">
        <ele>15.7</ele>
        <time>2021-06-03T14:32:39.000Z</time>
      </trkpt>
      <trkpt lat="44.93758" lon="-0.4931">
        <ele>15.8</ele>
        <time>2021-06-03T14:32:40.000Z</time>
      </trkpt>
      <trkpt lat="44.93754" lon="-0.49312">
        <ele>15.8</ele>
        <time>2021-06-03T14:32:41.000Z</time>
      </trkpt>
      <trkpt lat="44.93749" lon="-0.49315">
        <ele>15.7</ele>
        <time>2021-06-03T14:32:42.000Z</time>
      </trkpt>
      <trkpt lat="44.93745" lon="-0.49317">
        <ele>15.6</ele>
        <time>2021-06-03T14:32:43.000Z</time>
      </trkpt>
      <trkpt lat="44.9374" lon="-0.49319">
        <ele>15.6</ele>
        <time>2021-06-03T14:32:44.000Z</time>
      </trkpt>
      <trkpt lat="44.93735" lon="-0.49321">
        <ele>15.5</ele>
        <time>2021-06-03T14:32:45.000Z</time>
      </trkpt>
      <trkpt lat="44.93731" lon="-0.49323">
        <ele>15.4</ele>
        <time>2021-06-03T14:32:46.000Z</time>
      </trkpt>
      <trkpt lat="44.93726" lon="-0.49325">
        <ele>15.3</ele>
        <time>2021-06-03T14:32:47.000Z</time>
      </trkpt>
      <trkpt lat="44.93721" lon="-0.49327">
        <ele>15.2</ele>
        <time>2021-06-03T14:32:48.000Z</time>
      </trkpt>
      <trkpt lat="44.93717" lon="-0.49329">
        <ele>15.3</ele>
        <time>2021-06-03T14:32:49.000Z</time>
      </trkpt>
      <trkpt lat="44.93712" lon="-0.49331">
        <ele>15.3</ele>
        <time>2021-06-03T14:32:50.000Z</time>
      </trkpt>
      <trkpt lat="44.93704" lon="-0.49334">
        <ele>15.1</ele>
        <time>2021-06-03T14:32:52.000Z</time>
      </trkpt>
      <trkpt lat="44.93699" lon="-0.49336">
        <ele>14.8</ele>
        <time>2021-06-03T14:32:53.000Z</time>
      </trkpt>
      <trkpt lat="44.93695" lon="-0.49338">
        <ele>14.6</ele>
        <time>2021-06-03T14:32:54.000Z</time>
      </trkpt>
      <trkpt lat="44.93691" lon="-0.4934">
        <ele>14.5</ele>
        <time>2021-06-03T14:32:55.000Z</time>
      </trkpt>
      <trkpt lat="44.93686" lon="-0.49343">
        <ele>14.5</ele>
        <time>2021-06-03T14:32:56.000Z</time>
      </trkpt>
      <trkpt lat="44.93682" lon="-0.49344">
        <ele>14.6</ele>
        <time>2021-06-03T14:32:57.000Z</time>
      </trkpt>
      <trkpt lat="44.93677" lon="-0.49346">
        <ele>14.9</ele>
        <time>2021-06-03T14:32:58.000Z</time>
      </trkpt>
      <trkpt lat="44.93673" lon="-0.49348">
        <ele>15.2</ele>
        <time>2021-06-03T14:32:59.000Z</time>
      </trkpt>
      <trkpt lat="44.93669" lon="-0.4935">
        <ele>15.4</ele>
        <time>2021-06-03T14:33:00.000Z</time>
      </trkpt>
      <trkpt lat="44.93664" lon="-0.49352">
        <ele>15.6</ele>
        <time>2021-06-03T14:33:01.000Z</time>
      </trkpt>
      <trkpt lat="44.9366" lon="-0.49353">
        <ele>15.8</ele>
        <time>2021-06-03T14:33:02.000Z</time>
      </trkpt>
      <trkpt lat="44.93655" lon="-0.49355">
        <ele>15.8</ele>
        <time>2021-06-03T14:33:03.000Z</time>
      </trkpt>
      <trkpt lat="44.9365" lon="-0.49357">
        <ele>15.8</ele>
        <time>2021-06-03T14:33:04.000Z</time>
      </trkpt>
      <trkpt lat="44.93646" lon="-0.49358">
        <ele>15.7</ele>
        <time>2021-06-03T14:33:05.000Z</time>
      </trkpt>
      <trkpt lat="44.93641" lon="-0.4936">
        <ele>15.5</ele>
        <time>2021-06-03T14:33:06.000Z</time>
      </trkpt>
      <trkpt lat="44.93636" lon="-0.49362">
        <ele>15.5</ele>
        <time>2021-06-03T14:33:07.000Z</time>
      </trkpt>
      <trkpt lat="44.93632" lon="-0.49364">
        <ele>15.6</ele>
        <time>2021-06-03T14:33:08.000Z</time>
      </trkpt>
      <trkpt lat="44.93628" lon="-0.49366">
        <ele>15.7</ele>
        <time>2021-06-03T14:33:09.000Z</time>
      </trkpt>
      <trkpt lat="44.93623" lon="-0.49368">
        <ele>15.7</ele>
        <time>2021-06-03T14:33:10.000Z</time>
      </trkpt>
      <trkpt lat="44.93619" lon="-0.4937">
        <ele>15.7</ele>
        <time>2021-06-03T14:33:11.000Z</time>
      </trkpt>
      <trkpt lat="44.93614" lon="-0.49372">
        <ele>15.7</ele>
        <time>2021-06-03T14:33:12.000Z</time>
      </trkpt>
      <trkpt lat="44.9361" lon="-0.49374">
        <ele>15.4</ele>
        <time>2021-06-03T14:33:13.000Z</time>
      </trkpt>
      <trkpt lat="44.93606" lon="-0.49377">
        <ele>15.2</ele>
        <time>2021-06-03T14:33:14.000Z</time>
      </trkpt>
      <trkpt lat="44.93601" lon="-0.4938">
        <ele>15.1</ele>
        <time>2021-06-03T14:33:15.000Z</time>
      </trkpt>
      <trkpt lat="44.93597" lon="-0.49382">
        <ele>15</ele>
        <time>2021-06-03T14:33:16.000Z</time>
      </trkpt>
      <trkpt lat="44.93592" lon="-0.49384">
        <ele>15</ele>
        <time>2021-06-03T14:33:17.000Z</time>
      </trkpt>
      <trkpt lat="44.93588" lon="-0.49386">
        <ele>15</ele>
        <time>2021-06-03T14:33:18.000Z</time>
      </trkpt>
      <trkpt lat="44.93583" lon="-0.49389">
        <ele>15</ele>
        <time>2021-06-03T14:33:19.000Z</time>
      </trkpt>
      <trkpt lat="44.93579" lon="-0.49391">
        <ele>15.1</ele>
        <time>2021-06-03T14:33:20.000Z</time>
      </trkpt>
      <trkpt lat="44.93574" lon="-0.49393">
        <ele>15.2</ele>
        <time>2021-06-03T14:33:21.000Z</time>
      </trkpt>
      <trkpt lat="44.93569" lon="-0.49395">
        <ele>15.2</ele>
        <time>2021-06-03T14:33:22.000Z</time>
      </trkpt>
      <trkpt lat="44.93565" lon="-0.49397">
        <ele>15.2</ele>
        <time>2021-06-03T14:33:23.000Z</time>
      </trkpt>
      <trkpt lat="44.9356" lon="-0.49399">
        <ele>15.1</ele>
        <time>2021-06-03T14:33:24.000Z</time>
      </trkpt>
      <trkpt lat="44.93556" lon="-0.49401">
        <ele>15.1</ele>
        <time>2021-06-03T14:33:25.000Z</time>
      </trkpt>
      <trkpt lat="44.93552" lon="-0.49403">
        <ele>15.1</ele>
        <time>2021-06-03T14:33:26.000Z</time>
      </trkpt>
      <trkpt lat="44.93543" lon="-0.49406">
        <ele>15.1</ele>
        <time>2021-06-03T14:33:28.000Z</time>
      </trkpt>
      <trkpt lat="44.93535" lon="-0.4941">
        <ele>15.1</ele>
        <time>2021-06-03T14:33:30.000Z</time>
      </trkpt>
      <trkpt lat="44.93527" lon="-0.49414">
        <ele>15.2</ele>
        <time>2021-06-03T14:33:32.000Z</time>
      </trkpt>
      <trkpt lat="44.93522" lon="-0.49415">
        <ele>15.2</ele>
        <time>2021-06-03T14:33:33.000Z</time>
      </trkpt>
      <trkpt lat="44.93518" lon="-0.49417">
        <ele>15.3</ele>
        <time>2021-06-03T14:33:34.000Z</time>
      </trkpt>
      <trkpt lat="44.93513" lon="-0.4942">
        <ele>15.3</ele>
        <time>2021-06-03T14:33:35.000Z</time>
      </trkpt>
      <trkpt lat="44.93509" lon="-0.49422">
        <ele>15.4</ele>
        <time>2021-06-03T14:33:36.000Z</time>
      </trkpt>
      <trkpt lat="44.93504" lon="-0.49424">
        <ele>15.5</ele>
        <time>2021-06-03T14:33:37.000Z</time>
      </trkpt>
      <trkpt lat="44.935" lon="-0.49426">
        <ele>15.6</ele>
        <time>2021-06-03T14:33:38.000Z</time>
      </trkpt>
      <trkpt lat="44.93495" lon="-0.49427">
        <ele>15.6</ele>
        <time>2021-06-03T14:33:39.000Z</time>
      </trkpt>
      <trkpt lat="44.9349" lon="-0.49429">
        <ele>15.5</ele>
        <time>2021-06-03T14:33:40.000Z</time>
      </trkpt>
      <trkpt lat="44.93486" lon="-0.49431">
        <ele>15.4</ele>
        <time>2021-06-03T14:33:41.000Z</time>
      </trkpt>
      <trkpt lat="44.93481" lon="-0.49433">
        <ele>15.3</ele>
        <time>2021-06-03T14:33:42.000Z</time>
      </trkpt>
      <trkpt lat="44.93476" lon="-0.49435">
        <ele>15.4</ele>
        <time>2021-06-03T14:33:43.000Z</time>
      </trkpt>
      <trkpt lat="44.93472" lon="-0.49437">
        <ele>15.5</ele>
        <time>2021-06-03T14:33:44.000Z</time>
      </trkpt>
      <trkpt lat="44.93467" lon="-0.4944">
        <ele>15.6</ele>
        <time>2021-06-03T14:33:45.000Z</time>
      </trkpt>
      <trkpt lat="44.93463" lon="-0.49442">
        <ele>15.3</ele>
        <time>2021-06-03T14:33:46.000Z</time>
      </trkpt>
      <trkpt lat="44.93459" lon="-0.49444">
        <ele>15.2</ele>
        <time>2021-06-03T14:33:47.000Z</time>
      </trkpt>
      <trkpt lat="44.93454" lon="-0.49446">
        <ele>15.2</ele>
        <time>2021-06-03T14:33:48.000Z</time>
      </trkpt>
      <trkpt lat="44.93449" lon="-0.49448">
        <ele>15.1</ele>
        <time>2021-06-03T14:33:49.000Z</time>
      </trkpt>
      <trkpt lat="44.93445" lon="-0.49449">
        <ele>15.3</ele>
        <time>2021-06-03T14:33:50.000Z</time>
      </trkpt>
      <trkpt lat="44.9344" lon="-0.49451">
        <ele>15.5</ele>
        <time>2021-06-03T14:33:51.000Z</time>
      </trkpt>
      <trkpt lat="44.93436" lon="-0.49453">
        <ele>15.6</ele>
        <time>2021-06-03T14:33:52.000Z</time>
      </trkpt>
      <trkpt lat="44.93431" lon="-0.49455">
        <ele>15.8</ele>
        <time>2021-06-03T14:33:53.000Z</time>
      </trkpt>
      <trkpt lat="44.93427" lon="-0.49457">
        <ele>16</ele>
        <time>2021-06-03T14:33:54.000Z</time>
      </trkpt>
      <trkpt lat="44.93422" lon="-0.4946">
        <ele>15.7</ele>
        <time>2021-06-03T14:33:55.000Z</time>
      </trkpt>
      <trkpt lat="44.93418" lon="-0.49462">
        <ele>15.5</ele>
        <time>2021-06-03T14:33:56.000Z</time>
      </trkpt>
      <trkpt lat="44.93413" lon="-0.49464">
        <ele>15.4</ele>
        <time>2021-06-03T14:33:57.000Z</time>
      </trkpt>
      <trkpt lat="44.93409" lon="-0.49467">
        <ele>15.4</ele>
        <time>2021-06-03T14:33:58.000Z</time>
      </trkpt>
      <trkpt lat="44.93404" lon="-0.49469">
        <ele>15.5</ele>
        <time>2021-06-03T14:33:59.000Z</time>
      </trkpt>
      <trkpt lat="44.934" lon="-0.49471">
        <ele>15.5</ele>
        <time>2021-06-03T14:34:00.000Z</time>
      </trkpt>
      <trkpt lat="44.93395" lon="-0.49473">
        <ele>15.5</ele>
        <time>2021-06-03T14:34:01.000Z</time>
      </trkpt>
      <trkpt lat="44.9339" lon="-0.49475">
        <ele>15.3</ele>
        <time>2021-06-03T14:34:02.000Z</time>
      </trkpt>
      <trkpt lat="44.93386" lon="-0.49477">
        <ele>15.1</ele>
        <time>2021-06-03T14:34:03.000Z</time>
      </trkpt>
      <trkpt lat="44.93381" lon="-0.49479">
        <ele>15</ele>
        <time>2021-06-03T14:34:04.000Z</time>
      </trkpt>
      <trkpt lat="44.93377" lon="-0.49481">
        <ele>15.4</ele>
        <time>2021-06-03T14:34:05.000Z</time>
      </trkpt>
      <trkpt lat="44.93372" lon="-0.49483">
        <ele>15.7</ele>
        <time>2021-06-03T14:34:06.000Z</time>
      </trkpt>
      <trkpt lat="44.93368" lon="-0.49485">
        <ele>15.6</ele>
        <time>2021-06-03T14:34:07.000Z</time>
      </trkpt>
      <trkpt lat="44.93363" lon="-0.49487">
        <ele>15.5</ele>
        <time>2021-06-03T14:34:08.000Z</time>
      </trkpt>
      <trkpt lat="44.93358" lon="-0.49489">
        <ele>15.5</ele>
        <time>2021-06-03T14:34:09.000Z</time>
      </trkpt>
      <trkpt lat="44.93354" lon="-0.49491">
        <ele>15.6</ele>
        <time>2021-06-03T14:34:10.000Z</time>
      </trkpt>
      <trkpt lat="44.93349" lon="-0.49493">
        <ele>15.6</ele>
        <time>2021-06-03T14:34:11.000Z</time>
      </trkpt>
      <trkpt lat="44.93345" lon="-0.49495">
        <ele>15.5</ele>
        <time>2021-06-03T14:34:12.000Z</time>
      </trkpt>
      <trkpt lat="44.9334" lon="-0.49497">
        <ele>15.5</ele>
        <time>2021-06-03T14:34:13.000Z</time>
      </trkpt>
      <trkpt lat="44.93332" lon="-0.495">
        <ele>15.5</ele>
        <time>2021-06-03T14:34:15.000Z</time>
      </trkpt>
      <trkpt lat="44.93324" lon="-0.49503">
        <ele>15.5</ele>
        <time>2021-06-03T14:34:17.000Z</time>
      </trkpt>
      <trkpt lat="44.93317" lon="-0.49507">
        <ele>15.8</ele>
        <time>2021-06-03T14:34:19.000Z</time>
      </trkpt>
      <trkpt lat="44.93309" lon="-0.49511">
        <ele>15.8</ele>
        <time>2021-06-03T14:34:21.000Z</time>
      </trkpt>
      <trkpt lat="44.933" lon="-0.49514">
        <ele>15.6</ele>
        <time>2021-06-03T14:34:23.000Z</time>
      </trkpt>
      <trkpt lat="44.93292" lon="-0.49518">
        <ele>15.8</ele>
        <time>2021-06-03T14:34:25.000Z</time>
      </trkpt>
      <trkpt lat="44.93283" lon="-0.49521">
        <ele>16</ele>
        <time>2021-06-03T14:34:27.000Z</time>
      </trkpt>
      <trkpt lat="44.93279" lon="-0.49524">
        <ele>16.1</ele>
        <time>2021-06-03T14:34:28.000Z</time>
      </trkpt>
      <trkpt lat="44.93275" lon="-0.49526">
        <ele>16.1</ele>
        <time>2021-06-03T14:34:29.000Z</time>
      </trkpt>
      <trkpt lat="44.93266" lon="-0.4953">
        <ele>16.1</ele>
        <time>2021-06-03T14:34:31.000Z</time>
      </trkpt>
      <trkpt lat="44.93262" lon="-0.49532">
        <ele>16</ele>
        <time>2021-06-03T14:34:32.000Z</time>
      </trkpt>
      <trkpt lat="44.93257" lon="-0.49534">
        <ele>15.8</ele>
        <time>2021-06-03T14:34:33.000Z</time>
      </trkpt>
      <trkpt lat="44.93253" lon="-0.49536">
        <ele>15.6</ele>
        <time>2021-06-03T14:34:34.000Z</time>
      </trkpt>
      <trkpt lat="44.93248" lon="-0.49538">
        <ele>15.5</ele>
        <time>2021-06-03T14:34:35.000Z</time>
      </trkpt>
      <trkpt lat="44.93244" lon="-0.4954">
        <ele>15.7</ele>
        <time>2021-06-03T14:34:36.000Z</time>
      </trkpt>
      <trkpt lat="44.93239" lon="-0.49542">
        <ele>15.8</ele>
        <time>2021-06-03T14:34:37.000Z</time>
      </trkpt>
      <trkpt lat="44.93235" lon="-0.49544">
        <ele>15.8</ele>
        <time>2021-06-03T14:34:38.000Z</time>
      </trkpt>
      <trkpt lat="44.9323" lon="-0.49546">
        <ele>15.8</ele>
        <time>2021-06-03T14:34:39.000Z</time>
      </trkpt>
      <trkpt lat="44.93226" lon="-0.49548">
        <ele>16</ele>
        <time>2021-06-03T14:34:40.000Z</time>
      </trkpt>
      <trkpt lat="44.93221" lon="-0.4955">
        <ele>16.2</ele>
        <time>2021-06-03T14:34:41.000Z</time>
      </trkpt>
      <trkpt lat="44.93217" lon="-0.49552">
        <ele>16.3</ele>
        <time>2021-06-03T14:34:42.000Z</time>
      </trkpt>
      <trkpt lat="44.93212" lon="-0.49554">
        <ele>16.2</ele>
        <time>2021-06-03T14:34:43.000Z</time>
      </trkpt>
      <trkpt lat="44.93208" lon="-0.49556">
        <ele>16.1</ele>
        <time>2021-06-03T14:34:44.000Z</time>
      </trkpt>
      <trkpt lat="44.93203" lon="-0.49558">
        <ele>16.4</ele>
        <time>2021-06-03T14:34:45.000Z</time>
      </trkpt>
      <trkpt lat="44.93199" lon="-0.4956">
        <ele>16.6</ele>
        <time>2021-06-03T14:34:46.000Z</time>
      </trkpt>
      <trkpt lat="44.93194" lon="-0.49561">
        <ele>16.5</ele>
        <time>2021-06-03T14:34:47.000Z</time>
      </trkpt>
      <trkpt lat="44.93189" lon="-0.49563">
        <ele>16.5</ele>
        <time>2021-06-03T14:34:48.000Z</time>
      </trkpt>
      <trkpt lat="44.93184" lon="-0.49565">
        <ele>16.4</ele>
        <time>2021-06-03T14:34:49.000Z</time>
      </trkpt>
      <trkpt lat="44.9318" lon="-0.49566">
        <ele>16.4</ele>
        <time>2021-06-03T14:34:50.000Z</time>
      </trkpt>
      <trkpt lat="44.93175" lon="-0.49569">
        <ele>16.3</ele>
        <time>2021-06-03T14:34:51.000Z</time>
      </trkpt>
      <trkpt lat="44.93171" lon="-0.49571">
        <ele>16.1</ele>
        <time>2021-06-03T14:34:52.000Z</time>
      </trkpt>
      <trkpt lat="44.93166" lon="-0.49574">
        <ele>16</ele>
        <time>2021-06-03T14:34:53.000Z</time>
      </trkpt>
      <trkpt lat="44.93162" lon="-0.49576">
        <ele>16.2</ele>
        <time>2021-06-03T14:34:54.000Z</time>
      </trkpt>
      <trkpt lat="44.93157" lon="-0.49578">
        <ele>16.3</ele>
        <time>2021-06-03T14:34:55.000Z</time>
      </trkpt>
      <trkpt lat="44.93153" lon="-0.49579">
        <ele>16.4</ele>
        <time>2021-06-03T14:34:56.000Z</time>
      </trkpt>
      <trkpt lat="44.93148" lon="-0.49581">
        <ele>16.2</ele>
        <time>2021-06-03T14:34:57.000Z</time>
      </trkpt>
      <trkpt lat="44.93143" lon="-0.49583">
        <ele>16</ele>
        <time>2021-06-03T14:34:58.000Z</time>
      </trkpt>
      <trkpt lat="44.93139" lon="-0.49585">
        <ele>16.5</ele>
        <time>2021-06-03T14:34:59.000Z</time>
      </trkpt>
      <trkpt lat="44.93134" lon="-0.49587">
        <ele>16.8</ele>
        <time>2021-06-03T14:35:00.000Z</time>
      </trkpt>
      <trkpt lat="44.93129" lon="-0.49589">
        <ele>17.1</ele>
        <time>2021-06-03T14:35:01.000Z</time>
      </trkpt>
      <trkpt lat="44.93124" lon="-0.4959">
        <ele>17.1</ele>
        <time>2021-06-03T14:35:02.000Z</time>
      </trkpt>
      <trkpt lat="44.9312" lon="-0.49592">
        <ele>17.1</ele>
        <time>2021-06-03T14:35:03.000Z</time>
      </trkpt>
      <trkpt lat="44.93115" lon="-0.49593">
        <ele>16.8</ele>
        <time>2021-06-03T14:35:04.000Z</time>
      </trkpt>
      <trkpt lat="44.93111" lon="-0.49595">
        <ele>16.6</ele>
        <time>2021-06-03T14:35:05.000Z</time>
      </trkpt>
      <trkpt lat="44.93106" lon="-0.49597">
        <ele>16.9</ele>
        <time>2021-06-03T14:35:06.000Z</time>
      </trkpt>
      <trkpt lat="44.93101" lon="-0.49598">
        <ele>17.1</ele>
        <time>2021-06-03T14:35:07.000Z</time>
      </trkpt>
      <trkpt lat="44.93097" lon="-0.496">
        <ele>17.2</ele>
        <time>2021-06-03T14:35:08.000Z</time>
      </trkpt>
      <trkpt lat="44.93092" lon="-0.49601">
        <ele>17</ele>
        <time>2021-06-03T14:35:09.000Z</time>
      </trkpt>
      <trkpt lat="44.93088" lon="-0.49603">
        <ele>16.8</ele>
        <time>2021-06-03T14:35:10.000Z</time>
      </trkpt>
      <trkpt lat="44.93084" lon="-0.49604">
        <ele>17</ele>
        <time>2021-06-03T14:35:11.000Z</time>
      </trkpt>
      <trkpt lat="44.93079" lon="-0.49606">
        <ele>17.1</ele>
        <time>2021-06-03T14:35:12.000Z</time>
      </trkpt>
      <trkpt lat="44.93075" lon="-0.49608">
        <ele>16.9</ele>
        <time>2021-06-03T14:35:13.000Z</time>
      </trkpt>
      <trkpt lat="44.9307" lon="-0.49609">
        <ele>16.9</ele>
        <time>2021-06-03T14:35:14.000Z</time>
      </trkpt>
      <trkpt lat="44.93066" lon="-0.4961">
        <ele>16.8</ele>
        <time>2021-06-03T14:35:15.000Z</time>
      </trkpt>
      <trkpt lat="44.93061" lon="-0.49612">
        <ele>16.6</ele>
        <time>2021-06-03T14:35:16.000Z</time>
      </trkpt>
      <trkpt lat="44.93057" lon="-0.49614">
        <ele>16.4</ele>
        <time>2021-06-03T14:35:17.000Z</time>
      </trkpt>
      <trkpt lat="44.93052" lon="-0.49615">
        <ele>16.4</ele>
        <time>2021-06-03T14:35:18.000Z</time>
      </trkpt>
      <trkpt lat="44.93048" lon="-0.49616">
        <ele>16.4</ele>
        <time>2021-06-03T14:35:19.000Z</time>
      </trkpt>
      <trkpt lat="44.93039" lon="-0.49618">
        <ele>16.4</ele>
        <time>2021-06-03T14:35:21.000Z</time>
      </trkpt>
      <trkpt lat="44.93034" lon="-0.49619">
        <ele>16.5</ele>
        <time>2021-06-03T14:35:22.000Z</time>
      </trkpt>
      <trkpt lat="44.9303" lon="-0.49621">
        <ele>16.4</ele>
        <time>2021-06-03T14:35:23.000Z</time>
      </trkpt>
      <trkpt lat="44.93025" lon="-0.49622">
        <ele>16.3</ele>
        <time>2021-06-03T14:35:24.000Z</time>
      </trkpt>
      <trkpt lat="44.93017" lon="-0.49624">
        <ele>16.2</ele>
        <time>2021-06-03T14:35:26.000Z</time>
      </trkpt>
      <trkpt lat="44.9301" lon="-0.49622">
        <ele>16.1</ele>
        <time>2021-06-03T14:35:28.000Z</time>
      </trkpt>
      <trkpt lat="44.93002" lon="-0.49618">
        <ele>15.7</ele>
        <time>2021-06-03T14:35:30.000Z</time>
      </trkpt>
      <trkpt lat="44.92994" lon="-0.49618">
        <ele>15</ele>
        <time>2021-06-03T14:35:32.000Z</time>
      </trkpt>
      <trkpt lat="44.92985" lon="-0.49621">
        <ele>14.6</ele>
        <time>2021-06-03T14:35:34.000Z</time>
      </trkpt>
      <trkpt lat="44.92979" lon="-0.49628">
        <ele>15</ele>
        <time>2021-06-03T14:35:36.000Z</time>
      </trkpt>
      <trkpt lat="44.92973" lon="-0.49637">
        <ele>14.7</ele>
        <time>2021-06-03T14:35:38.000Z</time>
      </trkpt>
      <trkpt lat="44.92969" lon="-0.49644">
        <ele>14.9</ele>
        <time>2021-06-03T14:35:40.000Z</time>
      </trkpt>
      <trkpt lat="44.92961" lon="-0.49648">
        <ele>15.6</ele>
        <time>2021-06-03T14:35:43.000Z</time>
      </trkpt>
      <trkpt lat="44.92958" lon="-0.49647">
        <ele>15.6</ele>
        <time>2021-06-03T14:35:44.000Z</time>
      </trkpt>
      <trkpt lat="44.92945" lon="-0.49646">
        <ele>15</ele>
        <time>2021-06-03T14:35:47.000Z</time>
      </trkpt>
      <trkpt lat="44.92941" lon="-0.49647">
        <ele>14.7</ele>
        <time>2021-06-03T14:35:48.000Z</time>
      </trkpt>
      <trkpt lat="44.92936" lon="-0.49648">
        <ele>14.6</ele>
        <time>2021-06-03T14:35:49.000Z</time>
      </trkpt>
      <trkpt lat="44.92931" lon="-0.49649">
        <ele>14.6</ele>
        <time>2021-06-03T14:35:50.000Z</time>
      </trkpt>
      <trkpt lat="44.92926" lon="-0.4965">
        <ele>14.1</ele>
        <time>2021-06-03T14:35:51.000Z</time>
      </trkpt>
      <trkpt lat="44.92921" lon="-0.49652">
        <ele>13.8</ele>
        <time>2021-06-03T14:35:52.000Z</time>
      </trkpt>
      <trkpt lat="44.92913" lon="-0.49658">
        <ele>13.3</ele>
        <time>2021-06-03T14:35:54.000Z</time>
      </trkpt>
      <trkpt lat="44.92907" lon="-0.49666">
        <ele>12.7</ele>
        <time>2021-06-03T14:35:56.000Z</time>
      </trkpt>
      <trkpt lat="44.92902" lon="-0.49672">
        <ele>12.2</ele>
        <time>2021-06-03T14:35:58.000Z</time>
      </trkpt>
      <trkpt lat="44.92896" lon="-0.49679">
        <ele>12.4</ele>
        <time>2021-06-03T14:36:00.000Z</time>
      </trkpt>
      <trkpt lat="44.92893" lon="-0.4969">
        <ele>11.9</ele>
        <time>2021-06-03T14:36:02.000Z</time>
      </trkpt>
      <trkpt lat="44.92891" lon="-0.49697">
        <ele>11.8</ele>
        <time>2021-06-03T14:36:03.000Z</time>
      </trkpt>
      <trkpt lat="44.9289" lon="-0.49703">
        <ele>11.7</ele>
        <time>2021-06-03T14:36:04.000Z</time>
      </trkpt>
      <trkpt lat="44.92887" lon="-0.49714">
        <ele>11.1</ele>
        <time>2021-06-03T14:36:06.000Z</time>
      </trkpt>
      <trkpt lat="44.92885" lon="-0.49723">
        <ele>10.7</ele>
        <time>2021-06-03T14:36:08.000Z</time>
      </trkpt>
      <trkpt lat="44.92882" lon="-0.49732">
        <ele>10.2</ele>
        <time>2021-06-03T14:36:11.000Z</time>
      </trkpt>
      <trkpt lat="44.92874" lon="-0.49735">
        <ele>9.5</ele>
        <time>2021-06-03T14:36:16.000Z</time>
      </trkpt>
      <trkpt lat="44.9285" lon="-0.49733">
        <ele>8</ele>
        <time>2021-06-03T14:36:23.000Z</time>
      </trkpt>
      <trkpt lat="44.92831" lon="-0.49739">
        <ele>9</ele>
        <time>2021-06-03T14:36:29.000Z</time>
      </trkpt>
      <trkpt lat="44.92825" lon="-0.49739">
        <ele>9.3</ele>
        <time>2021-06-03T14:36:31.000Z</time>
      </trkpt>
      <trkpt lat="44.92818" lon="-0.49741">
        <ele>9.6</ele>
        <time>2021-06-03T14:36:33.000Z</time>
      </trkpt>
      <trkpt lat="44.9281" lon="-0.49745">
        <ele>9.1</ele>
        <time>2021-06-03T14:36:35.000Z</time>
      </trkpt>
      <trkpt lat="44.92803" lon="-0.49749">
        <ele>9.4</ele>
        <time>2021-06-03T14:36:37.000Z</time>
      </trkpt>
      <trkpt lat="44.92797" lon="-0.49752">
        <ele>9.4</ele>
        <time>2021-06-03T14:36:39.000Z</time>
      </trkpt>
      <trkpt lat="44.9279" lon="-0.49756">
        <ele>9.6</ele>
        <time>2021-06-03T14:36:41.000Z</time>
      </trkpt>
      <trkpt lat="44.92784" lon="-0.49759">
        <ele>10</ele>
        <time>2021-06-03T14:36:43.000Z</time>
      </trkpt>
      <trkpt lat="44.92778" lon="-0.49762">
        <ele>10.1</ele>
        <time>2021-06-03T14:36:45.000Z</time>
      </trkpt>
      <trkpt lat="44.92774" lon="-0.49764">
        <ele>10</ele>
        <time>2021-06-03T14:36:46.000Z</time>
      </trkpt>
      <trkpt lat="44.92762" lon="-0.49768">
        <ele>9.7</ele>
        <time>2021-06-03T14:36:49.000Z</time>
      </trkpt>
      <trkpt lat="44.92757" lon="-0.49769">
        <ele>9.7</ele>
        <time>2021-06-03T14:36:50.000Z</time>
      </trkpt>
      <trkpt lat="44.92752" lon="-0.49769">
        <ele>9.5</ele>
        <time>2021-06-03T14:36:51.000Z</time>
      </trkpt>
      <trkpt lat="44.92747" lon="-0.4977">
        <ele>9.4</ele>
        <time>2021-06-03T14:36:52.000Z</time>
      </trkpt>
      <trkpt lat="44.92741" lon="-0.49771">
        <ele>9.2</ele>
        <time>2021-06-03T14:36:53.000Z</time>
      </trkpt>
      <trkpt lat="44.92736" lon="-0.49772">
        <ele>9.1</ele>
        <time>2021-06-03T14:36:54.000Z</time>
      </trkpt>
      <trkpt lat="44.92731" lon="-0.49773">
        <ele>9</ele>
        <time>2021-06-03T14:36:55.000Z</time>
      </trkpt>
      <trkpt lat="44.92726" lon="-0.49774">
        <ele>9</ele>
        <time>2021-06-03T14:36:56.000Z</time>
      </trkpt>
      <trkpt lat="44.92722" lon="-0.49775">
        <ele>9</ele>
        <time>2021-06-03T14:36:57.000Z</time>
      </trkpt>
      <trkpt lat="44.92717" lon="-0.49776">
        <ele>9.3</ele>
        <time>2021-06-03T14:36:58.000Z</time>
      </trkpt>
      <trkpt lat="44.92712" lon="-0.49777">
        <ele>9.5</ele>
        <time>2021-06-03T14:36:59.000Z</time>
      </trkpt>
      <trkpt lat="44.92708" lon="-0.49778">
        <ele>9.4</ele>
        <time>2021-06-03T14:37:00.000Z</time>
      </trkpt>
      <trkpt lat="44.92699" lon="-0.49781">
        <ele>9.2</ele>
        <time>2021-06-03T14:37:02.000Z</time>
      </trkpt>
      <trkpt lat="44.92695" lon="-0.49784">
        <ele>9.1</ele>
        <time>2021-06-03T14:37:03.000Z</time>
      </trkpt>
      <trkpt lat="44.92687" lon="-0.49789">
        <ele>9.1</ele>
        <time>2021-06-03T14:37:05.000Z</time>
      </trkpt>
      <trkpt lat="44.92679" lon="-0.49796">
        <ele>8.9</ele>
        <time>2021-06-03T14:37:07.000Z</time>
      </trkpt>
      <trkpt lat="44.92673" lon="-0.49803">
        <ele>8.6</ele>
        <time>2021-06-03T14:37:09.000Z</time>
      </trkpt>
      <trkpt lat="44.92666" lon="-0.4981">
        <ele>8.6</ele>
        <time>2021-06-03T14:37:11.000Z</time>
      </trkpt>
      <trkpt lat="44.92658" lon="-0.49817">
        <ele>8.8</ele>
        <time>2021-06-03T14:37:13.000Z</time>
      </trkpt>
      <trkpt lat="44.92651" lon="-0.49823">
        <ele>9.2</ele>
        <time>2021-06-03T14:37:15.000Z</time>
      </trkpt>
      <trkpt lat="44.92644" lon="-0.49829">
        <ele>9.7</ele>
        <time>2021-06-03T14:37:17.000Z</time>
      </trkpt>
      <trkpt lat="44.92637" lon="-0.49835">
        <ele>10.1</ele>
        <time>2021-06-03T14:37:19.000Z</time>
      </trkpt>
      <trkpt lat="44.9263" lon="-0.49842">
        <ele>10.4</ele>
        <time>2021-06-03T14:37:21.000Z</time>
      </trkpt>
      <trkpt lat="44.92623" lon="-0.49847">
        <ele>9.9</ele>
        <time>2021-06-03T14:37:23.000Z</time>
      </trkpt>
      <trkpt lat="44.92616" lon="-0.49852">
        <ele>10.4</ele>
        <time>2021-06-03T14:37:25.000Z</time>
      </trkpt>
      <trkpt lat="44.92609" lon="-0.49857">
        <ele>10.6</ele>
        <time>2021-06-03T14:37:27.000Z</time>
      </trkpt>
      <trkpt lat="44.92601" lon="-0.49862">
        <ele>10.7</ele>
        <time>2021-06-03T14:37:29.000Z</time>
      </trkpt>
      <trkpt lat="44.92595" lon="-0.49867">
        <ele>10.8</ele>
        <time>2021-06-03T14:37:31.000Z</time>
      </trkpt>
      <trkpt lat="44.92588" lon="-0.49872">
        <ele>11.1</ele>
        <time>2021-06-03T14:37:33.000Z</time>
      </trkpt>
      <trkpt lat="44.92581" lon="-0.49877">
        <ele>10.7</ele>
        <time>2021-06-03T14:37:35.000Z</time>
      </trkpt>
      <trkpt lat="44.92575" lon="-0.49882">
        <ele>10.7</ele>
        <time>2021-06-03T14:37:37.000Z</time>
      </trkpt>
      <trkpt lat="44.92568" lon="-0.49887">
        <ele>10.7</ele>
        <time>2021-06-03T14:37:39.000Z</time>
      </trkpt>
      <trkpt lat="44.92561" lon="-0.49891">
        <ele>11</ele>
        <time>2021-06-03T14:37:41.000Z</time>
      </trkpt>
      <trkpt lat="44.92553" lon="-0.49889">
        <ele>11.4</ele>
        <time>2021-06-03T14:37:43.000Z</time>
      </trkpt>
      <trkpt lat="44.92548" lon="-0.49881">
        <ele>11.9</ele>
        <time>2021-06-03T14:37:45.000Z</time>
      </trkpt>
      <trkpt lat="44.92541" lon="-0.49874">
        <ele>12.3</ele>
        <time>2021-06-03T14:37:47.000Z</time>
      </trkpt>
      <trkpt lat="44.92538" lon="-0.49871">
        <ele>12.1</ele>
        <time>2021-06-03T14:37:48.000Z</time>
      </trkpt>
      <trkpt lat="44.92528" lon="-0.49863">
        <ele>12.1</ele>
        <time>2021-06-03T14:37:51.000Z</time>
      </trkpt>
      <trkpt lat="44.92522" lon="-0.49856">
        <ele>12.2</ele>
        <time>2021-06-03T14:37:53.000Z</time>
      </trkpt>
      <trkpt lat="44.92516" lon="-0.49849">
        <ele>12.4</ele>
        <time>2021-06-03T14:37:55.000Z</time>
      </trkpt>
      <trkpt lat="44.9251" lon="-0.49842">
        <ele>13</ele>
        <time>2021-06-03T14:37:57.000Z</time>
      </trkpt>
      <trkpt lat="44.92504" lon="-0.49834">
        <ele>13.5</ele>
        <time>2021-06-03T14:37:59.000Z</time>
      </trkpt>
      <trkpt lat="44.92499" lon="-0.49826">
        <ele>13.8</ele>
        <time>2021-06-03T14:38:01.000Z</time>
      </trkpt>
      <trkpt lat="44.92494" lon="-0.49819">
        <ele>13.3</ele>
        <time>2021-06-03T14:38:03.000Z</time>
      </trkpt>
      <trkpt lat="44.92489" lon="-0.49812">
        <ele>13.5</ele>
        <time>2021-06-03T14:38:05.000Z</time>
      </trkpt>
      <trkpt lat="44.92484" lon="-0.49806">
        <ele>13.6</ele>
        <time>2021-06-03T14:38:07.000Z</time>
      </trkpt>
      <trkpt lat="44.92479" lon="-0.49799">
        <ele>13.6</ele>
        <time>2021-06-03T14:38:10.000Z</time>
      </trkpt>
      <trkpt lat="44.92474" lon="-0.49791">
        <ele>13</ele>
        <time>2021-06-03T14:38:14.000Z</time>
      </trkpt>
      <trkpt lat="44.92467" lon="-0.49785">
        <ele>13.1</ele>
        <time>2021-06-03T14:38:18.000Z</time>
      </trkpt>
      <trkpt lat="44.9246" lon="-0.4978">
        <ele>13</ele>
        <time>2021-06-03T14:38:22.000Z</time>
      </trkpt>
      <trkpt lat="44.92451" lon="-0.49776">
        <ele>13.9</ele>
        <time>2021-06-03T14:38:25.000Z</time>
      </trkpt>
      <trkpt lat="44.92444" lon="-0.49782">
        <ele>14.1</ele>
        <time>2021-06-03T14:38:28.000Z</time>
      </trkpt>
      <trkpt lat="44.92441" lon="-0.4979">
        <ele>14.1</ele>
        <time>2021-06-03T14:38:30.000Z</time>
      </trkpt>
      <trkpt lat="44.92438" lon="-0.49798">
        <ele>13.7</ele>
        <time>2021-06-03T14:38:32.000Z</time>
      </trkpt>
      <trkpt lat="44.92435" lon="-0.49807">
        <ele>14.3</ele>
        <time>2021-06-03T14:38:34.000Z</time>
      </trkpt>
      <trkpt lat="44.92432" lon="-0.49815">
        <ele>15.5</ele>
        <time>2021-06-03T14:38:36.000Z</time>
      </trkpt>
      <trkpt lat="44.92428" lon="-0.49824">
        <ele>15.6</ele>
        <time>2021-06-03T14:38:38.000Z</time>
      </trkpt>
      <trkpt lat="44.92424" lon="-0.49833">
        <ele>15.3</ele>
        <time>2021-06-03T14:38:40.000Z</time>
      </trkpt>
      <trkpt lat="44.92421" lon="-0.49842">
        <ele>15.1</ele>
        <time>2021-06-03T14:38:42.000Z</time>
      </trkpt>
      <trkpt lat="44.92417" lon="-0.49852">
        <ele>14.9</ele>
        <time>2021-06-03T14:38:44.000Z</time>
      </trkpt>
      <trkpt lat="44.92414" lon="-0.49862">
        <ele>15.1</ele>
        <time>2021-06-03T14:38:46.000Z</time>
      </trkpt>
      <trkpt lat="44.9241" lon="-0.49871">
        <ele>15.2</ele>
        <time>2021-06-03T14:38:48.000Z</time>
      </trkpt>
      <trkpt lat="44.92406" lon="-0.4988">
        <ele>15.8</ele>
        <time>2021-06-03T14:38:50.000Z</time>
      </trkpt>
      <trkpt lat="44.92404" lon="-0.49885">
        <ele>16</ele>
        <time>2021-06-03T14:38:51.000Z</time>
      </trkpt>
      <trkpt lat="44.92399" lon="-0.49899">
        <ele>16.6</ele>
        <time>2021-06-03T14:38:54.000Z</time>
      </trkpt>
      <trkpt lat="44.92396" lon="-0.49908">
        <ele>17.1</ele>
        <time>2021-06-03T14:38:56.000Z</time>
      </trkpt>
      <trkpt lat="44.92392" lon="-0.49917">
        <ele>16.8</ele>
        <time>2021-06-03T14:38:58.000Z</time>
      </trkpt>
      <trkpt lat="44.92389" lon="-0.49926">
        <ele>17.3</ele>
        <time>2021-06-03T14:39:00.000Z</time>
      </trkpt>
      <trkpt lat="44.92385" lon="-0.49934">
        <ele>17.6</ele>
        <time>2021-06-03T14:39:02.000Z</time>
      </trkpt>
      <trkpt lat="44.92382" lon="-0.49943">
        <ele>17.7</ele>
        <time>2021-06-03T14:39:04.000Z</time>
      </trkpt>
      <trkpt lat="44.92378" lon="-0.49953">
        <ele>17.5</ele>
        <time>2021-06-03T14:39:06.000Z</time>
      </trkpt>
      <trkpt lat="44.92374" lon="-0.49962">
        <ele>17.8</ele>
        <time>2021-06-03T14:39:08.000Z</time>
      </trkpt>
      <trkpt lat="44.9237" lon="-0.49972">
        <ele>18.4</ele>
        <time>2021-06-03T14:39:10.000Z</time>
      </trkpt>
      <trkpt lat="44.92366" lon="-0.49981">
        <ele>18.3</ele>
        <time>2021-06-03T14:39:12.000Z</time>
      </trkpt>
      <trkpt lat="44.92362" lon="-0.4999">
        <ele>18.4</ele>
        <time>2021-06-03T14:39:14.000Z</time>
      </trkpt>
      <trkpt lat="44.92359" lon="-0.5">
        <ele>18.7</ele>
        <time>2021-06-03T14:39:16.000Z</time>
      </trkpt>
      <trkpt lat="44.92355" lon="-0.50009">
        <ele>19</ele>
        <time>2021-06-03T14:39:18.000Z</time>
      </trkpt>
      <trkpt lat="44.92352" lon="-0.50018">
        <ele>19.3</ele>
        <time>2021-06-03T14:39:20.000Z</time>
      </trkpt>
      <trkpt lat="44.92348" lon="-0.50027">
        <ele>19.4</ele>
        <time>2021-06-03T14:39:22.000Z</time>
      </trkpt>
      <trkpt lat="44.92345" lon="-0.50036">
        <ele>19.2</ele>
        <time>2021-06-03T14:39:24.000Z</time>
      </trkpt>
      <trkpt lat="44.92341" lon="-0.50046">
        <ele>20</ele>
        <time>2021-06-03T14:39:27.000Z</time>
      </trkpt>
      <trkpt lat="44.92336" lon="-0.50055">
        <ele>20.2</ele>
        <time>2021-06-03T14:39:30.000Z</time>
      </trkpt>
      <trkpt lat="44.92329" lon="-0.5006">
        <ele>20.5</ele>
        <time>2021-06-03T14:39:33.000Z</time>
      </trkpt>
      <trkpt lat="44.92323" lon="-0.50065">
        <ele>20.9</ele>
        <time>2021-06-03T14:39:35.000Z</time>
      </trkpt>
      <trkpt lat="44.92319" lon="-0.50071">
        <ele>21.4</ele>
        <time>2021-06-03T14:39:37.000Z</time>
      </trkpt>
      <trkpt lat="44.92313" lon="-0.5008">
        <ele>21.1</ele>
        <time>2021-06-03T14:39:40.000Z</time>
      </trkpt>
      <trkpt lat="44.92306" lon="-0.50089">
        <ele>21.3</ele>
        <time>2021-06-03T14:39:43.000Z</time>
      </trkpt>
      <trkpt lat="44.92302" lon="-0.50099">
        <ele>22</ele>
        <time>2021-06-03T14:39:46.000Z</time>
      </trkpt>
      <trkpt lat="44.923" lon="-0.50111">
        <ele>22.3</ele>
        <time>2021-06-03T14:39:49.000Z</time>
      </trkpt>
      <trkpt lat="44.92296" lon="-0.50119">
        <ele>22.7</ele>
        <time>2021-06-03T14:39:52.000Z</time>
      </trkpt>
      <trkpt lat="44.92294" lon="-0.50121">
        <ele>23.2</ele>
        <time>2021-06-03T14:39:53.000Z</time>
      </trkpt>
      <trkpt lat="44.92286" lon="-0.50134">
        <ele>23.7</ele>
        <time>2021-06-03T14:39:58.000Z</time>
      </trkpt>
      <trkpt lat="44.9228" lon="-0.5014">
        <ele>23.9</ele>
        <time>2021-06-03T14:40:01.000Z</time>
      </trkpt>
      <trkpt lat="44.92273" lon="-0.50147">
        <ele>25</ele>
        <time>2021-06-03T14:40:04.000Z</time>
      </trkpt>
      <trkpt lat="44.92267" lon="-0.50153">
        <ele>25.6</ele>
        <time>2021-06-03T14:40:07.000Z</time>
      </trkpt>
      <trkpt lat="44.92261" lon="-0.50159">
        <ele>26.7</ele>
        <time>2021-06-03T14:40:10.000Z</time>
      </trkpt>
      <trkpt lat="44.92254" lon="-0.50166">
        <ele>27</ele>
        <time>2021-06-03T14:40:13.000Z</time>
      </trkpt>
      <trkpt lat="44.92247" lon="-0.50171">
        <ele>26.9</ele>
        <time>2021-06-03T14:40:16.000Z</time>
      </trkpt>
      <trkpt lat="44.92239" lon="-0.50175">
        <ele>27</ele>
        <time>2021-06-03T14:40:19.000Z</time>
      </trkpt>
      <trkpt lat="44.92231" lon="-0.50179">
        <ele>27.9</ele>
        <time>2021-06-03T14:40:22.000Z</time>
      </trkpt>
      <trkpt lat="44.92223" lon="-0.50182">
        <ele>28</ele>
        <time>2021-06-03T14:40:25.000Z</time>
      </trkpt>
      <trkpt lat="44.92215" lon="-0.50185">
        <ele>28.6</ele>
        <time>2021-06-03T14:40:28.000Z</time>
      </trkpt>
      <trkpt lat="44.92206" lon="-0.50187">
        <ele>28.5</ele>
        <time>2021-06-03T14:40:31.000Z</time>
      </trkpt>
      <trkpt lat="44.92197" lon="-0.50189">
        <ele>30</ele>
        <time>2021-06-03T14:40:34.000Z</time>
      </trkpt>
      <trkpt lat="44.92189" lon="-0.50191">
        <ele>30.6</ele>
        <time>2021-06-03T14:40:37.000Z</time>
      </trkpt>
      <trkpt lat="44.9218" lon="-0.50192">
        <ele>30.7</ele>
        <time>2021-06-03T14:40:40.000Z</time>
      </trkpt>
      <trkpt lat="44.92174" lon="-0.50191">
        <ele>30.9</ele>
        <time>2021-06-03T14:40:42.000Z</time>
      </trkpt>
      <trkpt lat="44.92167" lon="-0.5019">
        <ele>30.8</ele>
        <time>2021-06-03T14:40:44.000Z</time>
      </trkpt>
      <trkpt lat="44.92161" lon="-0.50191">
        <ele>30.8</ele>
        <time>2021-06-03T14:40:46.000Z</time>
      </trkpt>
      <trkpt lat="44.92154" lon="-0.50192">
        <ele>30.5</ele>
        <time>2021-06-03T14:40:48.000Z</time>
      </trkpt>
      <trkpt lat="44.92147" lon="-0.50193">
        <ele>30.1</ele>
        <time>2021-06-03T14:40:50.000Z</time>
      </trkpt>
      <trkpt lat="44.92141" lon="-0.50193">
        <ele>30.9</ele>
        <time>2021-06-03T14:40:52.000Z</time>
      </trkpt>
      <trkpt lat="44.92134" lon="-0.50195">
        <ele>31.1</ele>
        <time>2021-06-03T14:40:54.000Z</time>
      </trkpt>
      <trkpt lat="44.92131" lon="-0.50195">
        <ele>31.3</ele>
        <time>2021-06-03T14:40:55.000Z</time>
      </trkpt>
      <trkpt lat="44.92121" lon="-0.50197">
        <ele>31.7</ele>
        <time>2021-06-03T14:40:58.000Z</time>
      </trkpt>
      <trkpt lat="44.92115" lon="-0.50198">
        <ele>31.9</ele>
        <time>2021-06-03T14:41:00.000Z</time>
      </trkpt>
      <trkpt lat="44.92108" lon="-0.50199">
        <ele>32</ele>
        <time>2021-06-03T14:41:02.000Z</time>
      </trkpt>
      <trkpt lat="44.92102" lon="-0.50201">
        <ele>31.9</ele>
        <time>2021-06-03T14:41:04.000Z</time>
      </trkpt>
      <trkpt lat="44.92095" lon="-0.50204">
        <ele>32.1</ele>
        <time>2021-06-03T14:41:06.000Z</time>
      </trkpt>
      <trkpt lat="44.92089" lon="-0.50206">
        <ele>32.5</ele>
        <time>2021-06-03T14:41:08.000Z</time>
      </trkpt>
      <trkpt lat="44.92082" lon="-0.50208">
        <ele>32.4</ele>
        <time>2021-06-03T14:41:10.000Z</time>
      </trkpt>
      <trkpt lat="44.92075" lon="-0.50211">
        <ele>32.3</ele>
        <time>2021-06-03T14:41:12.000Z</time>
      </trkpt>
      <trkpt lat="44.92068" lon="-0.50214">
        <ele>32.6</ele>
        <time>2021-06-03T14:41:14.000Z</time>
      </trkpt>
      <trkpt lat="44.9206" lon="-0.50216">
        <ele>33</ele>
        <time>2021-06-03T14:41:16.000Z</time>
      </trkpt>
      <trkpt lat="44.92053" lon="-0.5022">
        <ele>33.5</ele>
        <time>2021-06-03T14:41:18.000Z</time>
      </trkpt>
      <trkpt lat="44.92045" lon="-0.50224">
        <ele>33.3</ele>
        <time>2021-06-03T14:41:20.000Z</time>
      </trkpt>
      <trkpt lat="44.92038" lon="-0.50229">
        <ele>33.4</ele>
        <time>2021-06-03T14:41:22.000Z</time>
      </trkpt>
      <trkpt lat="44.9203" lon="-0.50234">
        <ele>33.6</ele>
        <time>2021-06-03T14:41:24.000Z</time>
      </trkpt>
      <trkpt lat="44.92023" lon="-0.50239">
        <ele>33.9</ele>
        <time>2021-06-03T14:41:26.000Z</time>
      </trkpt>
      <trkpt lat="44.92016" lon="-0.50245">
        <ele>34.1</ele>
        <time>2021-06-03T14:41:28.000Z</time>
      </trkpt>
      <trkpt lat="44.92008" lon="-0.50252">
        <ele>34</ele>
        <time>2021-06-03T14:41:30.000Z</time>
      </trkpt>
      <trkpt lat="44.92001" lon="-0.50258">
        <ele>34</ele>
        <time>2021-06-03T14:41:32.000Z</time>
      </trkpt>
      <trkpt lat="44.91995" lon="-0.50264">
        <ele>33.7</ele>
        <time>2021-06-03T14:41:34.000Z</time>
      </trkpt>
      <trkpt lat="44.91988" lon="-0.5027">
        <ele>33.7</ele>
        <time>2021-06-03T14:41:36.000Z</time>
      </trkpt>
      <trkpt lat="44.91982" lon="-0.50276">
        <ele>34</ele>
        <time>2021-06-03T14:41:38.000Z</time>
      </trkpt>
      <trkpt lat="44.91975" lon="-0.50282">
        <ele>34.1</ele>
        <time>2021-06-03T14:41:40.000Z</time>
      </trkpt>
      <trkpt lat="44.91968" lon="-0.50289">
        <ele>34</ele>
        <time>2021-06-03T14:41:42.000Z</time>
      </trkpt>
      <trkpt lat="44.91962" lon="-0.50296">
        <ele>33.9</ele>
        <time>2021-06-03T14:41:44.000Z</time>
      </trkpt>
      <trkpt lat="44.91955" lon="-0.50303">
        <ele>34.4</ele>
        <time>2021-06-03T14:41:46.000Z</time>
      </trkpt>
      <trkpt lat="44.91948" lon="-0.50309">
        <ele>33.9</ele>
        <time>2021-06-03T14:41:48.000Z</time>
      </trkpt>
      <trkpt lat="44.91941" lon="-0.50316">
        <ele>33.8</ele>
        <time>2021-06-03T14:41:50.000Z</time>
      </trkpt>
      <trkpt lat="44.91934" lon="-0.50323">
        <ele>33.8</ele>
        <time>2021-06-03T14:41:52.000Z</time>
      </trkpt>
      <trkpt lat="44.91926" lon="-0.50328">
        <ele>33.8</ele>
        <time>2021-06-03T14:41:54.000Z</time>
      </trkpt>
      <trkpt lat="44.91918" lon="-0.50333">
        <ele>34.6</ele>
        <time>2021-06-03T14:41:56.000Z</time>
      </trkpt>
      <trkpt lat="44.91915" lon="-0.50336">
        <ele>34.4</ele>
        <time>2021-06-03T14:41:57.000Z</time>
      </trkpt>
      <trkpt lat="44.91903" lon="-0.50343">
        <ele>34</ele>
        <time>2021-06-03T14:42:00.000Z</time>
      </trkpt>
      <trkpt lat="44.91895" lon="-0.50346">
        <ele>33.6</ele>
        <time>2021-06-03T14:42:02.000Z</time>
      </trkpt>
      <trkpt lat="44.91889" lon="-0.50348">
        <ele>33.3</ele>
        <time>2021-06-03T14:42:04.000Z</time>
      </trkpt>
      <trkpt lat="44.91872" lon="-0.50348">
        <ele>32</ele>
        <time>2021-06-03T14:42:08.000Z</time>
      </trkpt>
      <trkpt lat="44.9186" lon="-0.50343">
        <ele>32</ele>
        <time>2021-06-03T14:42:12.000Z</time>
      </trkpt>
      <trkpt lat="44.91855" lon="-0.50338">
        <ele>32.5</ele>
        <time>2021-06-03T14:42:15.000Z</time>
      </trkpt>
      <trkpt lat="44.91848" lon="-0.50339">
        <ele>31.8</ele>
        <time>2021-06-03T14:42:17.000Z</time>
      </trkpt>
      <trkpt lat="44.91842" lon="-0.50347">
        <ele>31.8</ele>
        <time>2021-06-03T14:42:19.000Z</time>
      </trkpt>
      <trkpt lat="44.91839" lon="-0.50358">
        <ele>31.7</ele>
        <time>2021-06-03T14:42:21.000Z</time>
      </trkpt>
      <trkpt lat="44.9184" lon="-0.5037">
        <ele>31.8</ele>
        <time>2021-06-03T14:42:23.000Z</time>
      </trkpt>
      <trkpt lat="44.91838" lon="-0.50381">
        <ele>31.9</ele>
        <time>2021-06-03T14:42:25.000Z</time>
      </trkpt>
      <trkpt lat="44.91837" lon="-0.50393">
        <ele>32</ele>
        <time>2021-06-03T14:42:27.000Z</time>
      </trkpt>
      <trkpt lat="44.91835" lon="-0.50405">
        <ele>31.9</ele>
        <time>2021-06-03T14:42:29.000Z</time>
      </trkpt>
      <trkpt lat="44.91835" lon="-0.50411">
        <ele>31.9</ele>
        <time>2021-06-03T14:42:30.000Z</time>
      </trkpt>
      <trkpt lat="44.91834" lon="-0.50418">
        <ele>32</ele>
        <time>2021-06-03T14:42:31.000Z</time>
      </trkpt>
      <trkpt lat="44.91832" lon="-0.50425">
        <ele>32</ele>
        <time>2021-06-03T14:42:32.000Z</time>
      </trkpt>
      <trkpt lat="44.91831" lon="-0.50431">
        <ele>31.9</ele>
        <time>2021-06-03T14:42:33.000Z</time>
      </trkpt>
      <trkpt lat="44.9183" lon="-0.50438">
        <ele>31.7</ele>
        <time>2021-06-03T14:42:34.000Z</time>
      </trkpt>
      <trkpt lat="44.91829" lon="-0.50445">
        <ele>31.5</ele>
        <time>2021-06-03T14:42:35.000Z</time>
      </trkpt>
      <trkpt lat="44.91828" lon="-0.50451">
        <ele>31.4</ele>
        <time>2021-06-03T14:42:36.000Z</time>
      </trkpt>
      <trkpt lat="44.91827" lon="-0.50458">
        <ele>31.2</ele>
        <time>2021-06-03T14:42:37.000Z</time>
      </trkpt>
      <trkpt lat="44.91826" lon="-0.50464">
        <ele>31</ele>
        <time>2021-06-03T14:42:38.000Z</time>
      </trkpt>
      <trkpt lat="44.91825" lon="-0.50471">
        <ele>30.9</ele>
        <time>2021-06-03T14:42:39.000Z</time>
      </trkpt>
      <trkpt lat="44.91824" lon="-0.50477">
        <ele>30.7</ele>
        <time>2021-06-03T14:42:40.000Z</time>
      </trkpt>
      <trkpt lat="44.91823" lon="-0.50483">
        <ele>30.5</ele>
        <time>2021-06-03T14:42:41.000Z</time>
      </trkpt>
      <trkpt lat="44.91822" lon="-0.5049">
        <ele>30.5</ele>
        <time>2021-06-03T14:42:42.000Z</time>
      </trkpt>
      <trkpt lat="44.9182" lon="-0.50496">
        <ele>30.5</ele>
        <time>2021-06-03T14:42:43.000Z</time>
      </trkpt>
      <trkpt lat="44.91819" lon="-0.50502">
        <ele>30.6</ele>
        <time>2021-06-03T14:42:44.000Z</time>
      </trkpt>
      <trkpt lat="44.91818" lon="-0.50508">
        <ele>30.7</ele>
        <time>2021-06-03T14:42:45.000Z</time>
      </trkpt>
      <trkpt lat="44.91816" lon="-0.50515">
        <ele>30.8</ele>
        <time>2021-06-03T14:42:46.000Z</time>
      </trkpt>
      <trkpt lat="44.91815" lon="-0.50521">
        <ele>31</ele>
        <time>2021-06-03T14:42:47.000Z</time>
      </trkpt>
      <trkpt lat="44.91813" lon="-0.50527">
        <ele>31.1</ele>
        <time>2021-06-03T14:42:48.000Z</time>
      </trkpt>
      <trkpt lat="44.91811" lon="-0.50539">
        <ele>30.7</ele>
        <time>2021-06-03T14:42:50.000Z</time>
      </trkpt>
      <trkpt lat="44.91808" lon="-0.5055">
        <ele>30.1</ele>
        <time>2021-06-03T14:42:52.000Z</time>
      </trkpt>
      <trkpt lat="44.91804" lon="-0.50561">
        <ele>29.9</ele>
        <time>2021-06-03T14:42:54.000Z</time>
      </trkpt>
      <trkpt lat="44.91802" lon="-0.50567">
        <ele>29.9</ele>
        <time>2021-06-03T14:42:55.000Z</time>
      </trkpt>
      <trkpt lat="44.918" lon="-0.50573">
        <ele>29.9</ele>
        <time>2021-06-03T14:42:56.000Z</time>
      </trkpt>
      <trkpt lat="44.91797" lon="-0.50585">
        <ele>29.8</ele>
        <time>2021-06-03T14:42:58.000Z</time>
      </trkpt>
      <trkpt lat="44.91796" lon="-0.5059">
        <ele>30</ele>
        <time>2021-06-03T14:42:59.000Z</time>
      </trkpt>
      <trkpt lat="44.91791" lon="-0.50606">
        <ele>30.6</ele>
        <time>2021-06-03T14:43:02.000Z</time>
      </trkpt>
      <trkpt lat="44.91787" lon="-0.50617">
        <ele>30.8</ele>
        <time>2021-06-03T14:43:04.000Z</time>
      </trkpt>
      <trkpt lat="44.91783" lon="-0.50627">
        <ele>30.5</ele>
        <time>2021-06-03T14:43:06.000Z</time>
      </trkpt>
      <trkpt lat="44.91779" lon="-0.50638">
        <ele>30.2</ele>
        <time>2021-06-03T14:43:08.000Z</time>
      </trkpt>
      <trkpt lat="44.91776" lon="-0.50646">
        <ele>30.2</ele>
        <time>2021-06-03T14:43:10.000Z</time>
      </trkpt>
      <trkpt lat="44.91773" lon="-0.50654">
        <ele>30.5</ele>
        <time>2021-06-03T14:43:12.000Z</time>
      </trkpt>
      <trkpt lat="44.91765" lon="-0.50659">
        <ele>30.2</ele>
        <time>2021-06-03T14:43:15.000Z</time>
      </trkpt>
      <trkpt lat="44.91759" lon="-0.50663">
        <ele>30.4</ele>
        <time>2021-06-03T14:43:17.000Z</time>
      </trkpt>
      <trkpt lat="44.91755" lon="-0.50672">
        <ele>30.8</ele>
        <time>2021-06-03T14:43:19.000Z</time>
      </trkpt>
      <trkpt lat="44.91754" lon="-0.50684">
        <ele>30.6</ele>
        <time>2021-06-03T14:43:21.000Z</time>
      </trkpt>
      <trkpt lat="44.91753" lon="-0.50691">
        <ele>30.7</ele>
        <time>2021-06-03T14:43:22.000Z</time>
      </trkpt>
      <trkpt lat="44.91751" lon="-0.50702">
        <ele>30.9</ele>
        <time>2021-06-03T14:43:24.000Z</time>
      </trkpt>
      <trkpt lat="44.91746" lon="-0.50713">
        <ele>29.9</ele>
        <time>2021-06-03T14:43:26.000Z</time>
      </trkpt>
      <trkpt lat="44.91741" lon="-0.50722">
        <ele>30.2</ele>
        <time>2021-06-03T14:43:28.000Z</time>
      </trkpt>
      <trkpt lat="44.91738" lon="-0.50727">
        <ele>30.3</ele>
        <time>2021-06-03T14:43:29.000Z</time>
      </trkpt>
      <trkpt lat="44.91735" lon="-0.50733">
        <ele>30.2</ele>
        <time>2021-06-03T14:43:30.000Z</time>
      </trkpt>
      <trkpt lat="44.91732" lon="-0.50738">
        <ele>30.1</ele>
        <time>2021-06-03T14:43:31.000Z</time>
      </trkpt>
      <trkpt lat="44.91729" lon="-0.50743">
        <ele>30.2</ele>
        <time>2021-06-03T14:43:32.000Z</time>
      </trkpt>
      <trkpt lat="44.91726" lon="-0.50748">
        <ele>30.4</ele>
        <time>2021-06-03T14:43:33.000Z</time>
      </trkpt>
      <trkpt lat="44.91721" lon="-0.50758">
        <ele>29.6</ele>
        <time>2021-06-03T14:43:35.000Z</time>
      </trkpt>
      <trkpt lat="44.91715" lon="-0.50767">
        <ele>29.4</ele>
        <time>2021-06-03T14:43:37.000Z</time>
      </trkpt>
      <trkpt lat="44.91709" lon="-0.50777">
        <ele>29.1</ele>
        <time>2021-06-03T14:43:39.000Z</time>
      </trkpt>
      <trkpt lat="44.91704" lon="-0.50787">
        <ele>28.9</ele>
        <time>2021-06-03T14:43:41.000Z</time>
      </trkpt>
      <trkpt lat="44.91701" lon="-0.50792">
        <ele>28.9</ele>
        <time>2021-06-03T14:43:42.000Z</time>
      </trkpt>
      <trkpt lat="44.91698" lon="-0.50797">
        <ele>28.8</ele>
        <time>2021-06-03T14:43:43.000Z</time>
      </trkpt>
      <trkpt lat="44.91696" lon="-0.50803">
        <ele>28.8</ele>
        <time>2021-06-03T14:43:44.000Z</time>
      </trkpt>
      <trkpt lat="44.91693" lon="-0.50808">
        <ele>28.8</ele>
        <time>2021-06-03T14:43:45.000Z</time>
      </trkpt>
      <trkpt lat="44.9169" lon="-0.50814">
        <ele>28.6</ele>
        <time>2021-06-03T14:43:46.000Z</time>
      </trkpt>
      <trkpt lat="44.91687" lon="-0.50819">
        <ele>28.5</ele>
        <time>2021-06-03T14:43:47.000Z</time>
      </trkpt>
      <trkpt lat="44.91684" lon="-0.50824">
        <ele>28.3</ele>
        <time>2021-06-03T14:43:48.000Z</time>
      </trkpt>
      <trkpt lat="44.91681" lon="-0.5083">
        <ele>28.1</ele>
        <time>2021-06-03T14:43:49.000Z</time>
      </trkpt>
      <trkpt lat="44.91678" lon="-0.50835">
        <ele>28</ele>
        <time>2021-06-03T14:43:50.000Z</time>
      </trkpt>
      <trkpt lat="44.91675" lon="-0.50841">
        <ele>28.1</ele>
        <time>2021-06-03T14:43:51.000Z</time>
      </trkpt>
      <trkpt lat="44.91672" lon="-0.50846">
        <ele>28.2</ele>
        <time>2021-06-03T14:43:52.000Z</time>
      </trkpt>
      <trkpt lat="44.91669" lon="-0.50852">
        <ele>27.9</ele>
        <time>2021-06-03T14:43:53.000Z</time>
      </trkpt>
      <trkpt lat="44.91666" lon="-0.50857">
        <ele>27.7</ele>
        <time>2021-06-03T14:43:54.000Z</time>
      </trkpt>
      <trkpt lat="44.91663" lon="-0.50863">
        <ele>27.6</ele>
        <time>2021-06-03T14:43:55.000Z</time>
      </trkpt>
      <trkpt lat="44.91659" lon="-0.50868">
        <ele>28</ele>
        <time>2021-06-03T14:43:56.000Z</time>
      </trkpt>
      <trkpt lat="44.91656" lon="-0.50873">
        <ele>28.3</ele>
        <time>2021-06-03T14:43:57.000Z</time>
      </trkpt>
      <trkpt lat="44.91652" lon="-0.50878">
        <ele>27.7</ele>
        <time>2021-06-03T14:43:58.000Z</time>
      </trkpt>
      <trkpt lat="44.91649" lon="-0.50882">
        <ele>27.4</ele>
        <time>2021-06-03T14:43:59.000Z</time>
      </trkpt>
      <trkpt lat="44.91646" lon="-0.50887">
        <ele>27.2</ele>
        <time>2021-06-03T14:44:00.000Z</time>
      </trkpt>
      <trkpt lat="44.91642" lon="-0.50891">
        <ele>27</ele>
        <time>2021-06-03T14:44:01.000Z</time>
      </trkpt>
      <trkpt lat="44.91638" lon="-0.50895">
        <ele>26.9</ele>
        <time>2021-06-03T14:44:02.000Z</time>
      </trkpt>
      <trkpt lat="44.91635" lon="-0.509">
        <ele>26.9</ele>
        <time>2021-06-03T14:44:03.000Z</time>
      </trkpt>
      <trkpt lat="44.91631" lon="-0.50904">
        <ele>26.9</ele>
        <time>2021-06-03T14:44:04.000Z</time>
      </trkpt>
      <trkpt lat="44.91627" lon="-0.50908">
        <ele>26.7</ele>
        <time>2021-06-03T14:44:05.000Z</time>
      </trkpt>
      <trkpt lat="44.91623" lon="-0.50911">
        <ele>26.6</ele>
        <time>2021-06-03T14:44:06.000Z</time>
      </trkpt>
      <trkpt lat="44.91619" lon="-0.50915">
        <ele>26.5</ele>
        <time>2021-06-03T14:44:07.000Z</time>
      </trkpt>
      <trkpt lat="44.91614" lon="-0.50919">
        <ele>26.4</ele>
        <time>2021-06-03T14:44:08.000Z</time>
      </trkpt>
      <trkpt lat="44.9161" lon="-0.50922">
        <ele>26.3</ele>
        <time>2021-06-03T14:44:09.000Z</time>
      </trkpt>
      <trkpt lat="44.91606" lon="-0.50926">
        <ele>26.3</ele>
        <time>2021-06-03T14:44:10.000Z</time>
      </trkpt>
      <trkpt lat="44.91602" lon="-0.50929">
        <ele>26.3</ele>
        <time>2021-06-03T14:44:11.000Z</time>
      </trkpt>
      <trkpt lat="44.91598" lon="-0.50933">
        <ele>26.5</ele>
        <time>2021-06-03T14:44:12.000Z</time>
      </trkpt>
      <trkpt lat="44.91595" lon="-0.50936">
        <ele>26.6</ele>
        <time>2021-06-03T14:44:13.000Z</time>
      </trkpt>
      <trkpt lat="44.91591" lon="-0.5094">
        <ele>26.6</ele>
        <time>2021-06-03T14:44:14.000Z</time>
      </trkpt>
      <trkpt lat="44.91586" lon="-0.50944">
        <ele>26.4</ele>
        <time>2021-06-03T14:44:15.000Z</time>
      </trkpt>
      <trkpt lat="44.91582" lon="-0.50947">
        <ele>26.2</ele>
        <time>2021-06-03T14:44:16.000Z</time>
      </trkpt>
      <trkpt lat="44.91578" lon="-0.50951">
        <ele>26.1</ele>
        <time>2021-06-03T14:44:17.000Z</time>
      </trkpt>
      <trkpt lat="44.91574" lon="-0.50954">
        <ele>26.1</ele>
        <time>2021-06-03T14:44:18.000Z</time>
      </trkpt>
      <trkpt lat="44.9157" lon="-0.50957">
        <ele>25.7</ele>
        <time>2021-06-03T14:44:19.000Z</time>
      </trkpt>
      <trkpt lat="44.91565" lon="-0.50961">
        <ele>25.4</ele>
        <time>2021-06-03T14:44:20.000Z</time>
      </trkpt>
      <trkpt lat="44.9156" lon="-0.50964">
        <ele>25.2</ele>
        <time>2021-06-03T14:44:21.000Z</time>
      </trkpt>
      <trkpt lat="44.91555" lon="-0.50967">
        <ele>25.3</ele>
        <time>2021-06-03T14:44:22.000Z</time>
      </trkpt>
      <trkpt lat="44.9155" lon="-0.50971">
        <ele>25.3</ele>
        <time>2021-06-03T14:44:23.000Z</time>
      </trkpt>
      <trkpt lat="44.91546" lon="-0.50977">
        <ele>25</ele>
        <time>2021-06-03T14:44:24.000Z</time>
      </trkpt>
      <trkpt lat="44.91541" lon="-0.50982">
        <ele>24.8</ele>
        <time>2021-06-03T14:44:25.000Z</time>
      </trkpt>
      <trkpt lat="44.91537" lon="-0.50986">
        <ele>24.1</ele>
        <time>2021-06-03T14:44:26.000Z</time>
      </trkpt>
      <trkpt lat="44.91532" lon="-0.5099">
        <ele>23.7</ele>
        <time>2021-06-03T14:44:27.000Z</time>
      </trkpt>
      <trkpt lat="44.91527" lon="-0.50995">
        <ele>23.3</ele>
        <time>2021-06-03T14:44:28.000Z</time>
      </trkpt>
      <trkpt lat="44.91522" lon="-0.50999">
        <ele>23</ele>
        <time>2021-06-03T14:44:29.000Z</time>
      </trkpt>
      <trkpt lat="44.91518" lon="-0.51003">
        <ele>22.9</ele>
        <time>2021-06-03T14:44:30.000Z</time>
      </trkpt>
      <trkpt lat="44.91513" lon="-0.51007">
        <ele>22.9</ele>
        <time>2021-06-03T14:44:31.000Z</time>
      </trkpt>
      <trkpt lat="44.91508" lon="-0.5101">
        <ele>22.9</ele>
        <time>2021-06-03T14:44:32.000Z</time>
      </trkpt>
      <trkpt lat="44.91504" lon="-0.51014">
        <ele>22.9</ele>
        <time>2021-06-03T14:44:33.000Z</time>
      </trkpt>
      <trkpt lat="44.91499" lon="-0.51018">
        <ele>22.7</ele>
        <time>2021-06-03T14:44:34.000Z</time>
      </trkpt>
      <trkpt lat="44.91495" lon="-0.51021">
        <ele>22.5</ele>
        <time>2021-06-03T14:44:35.000Z</time>
      </trkpt>
      <trkpt lat="44.91491" lon="-0.51025">
        <ele>22.6</ele>
        <time>2021-06-03T14:44:36.000Z</time>
      </trkpt>
      <trkpt lat="44.91487" lon="-0.51028">
        <ele>22.7</ele>
        <time>2021-06-03T14:44:37.000Z</time>
      </trkpt>
      <trkpt lat="44.91479" lon="-0.51035">
        <ele>22.3</ele>
        <time>2021-06-03T14:44:39.000Z</time>
      </trkpt>
      <trkpt lat="44.91472" lon="-0.51041">
        <ele>22.4</ele>
        <time>2021-06-03T14:44:41.000Z</time>
      </trkpt>
      <trkpt lat="44.91468" lon="-0.51045">
        <ele>22.6</ele>
        <time>2021-06-03T14:44:42.000Z</time>
      </trkpt>
      <trkpt lat="44.91464" lon="-0.51048">
        <ele>22.4</ele>
        <time>2021-06-03T14:44:43.000Z</time>
      </trkpt>
      <trkpt lat="44.9146" lon="-0.51051">
        <ele>22.3</ele>
        <time>2021-06-03T14:44:44.000Z</time>
      </trkpt>
      <trkpt lat="44.91456" lon="-0.51055">
        <ele>22.3</ele>
        <time>2021-06-03T14:44:45.000Z</time>
      </trkpt>
      <trkpt lat="44.91452" lon="-0.51058">
        <ele>22.3</ele>
        <time>2021-06-03T14:44:46.000Z</time>
      </trkpt>
      <trkpt lat="44.91448" lon="-0.51061">
        <ele>22.2</ele>
        <time>2021-06-03T14:44:47.000Z</time>
      </trkpt>
      <trkpt lat="44.91444" lon="-0.51065">
        <ele>22.1</ele>
        <time>2021-06-03T14:44:48.000Z</time>
      </trkpt>
      <trkpt lat="44.9144" lon="-0.51068">
        <ele>22</ele>
        <time>2021-06-03T14:44:49.000Z</time>
      </trkpt>
      <trkpt lat="44.91433" lon="-0.51075">
        <ele>21.8</ele>
        <time>2021-06-03T14:44:51.000Z</time>
      </trkpt>
      <trkpt lat="44.91426" lon="-0.51081">
        <ele>21.9</ele>
        <time>2021-06-03T14:44:53.000Z</time>
      </trkpt>
      <trkpt lat="44.91419" lon="-0.51088">
        <ele>21.5</ele>
        <time>2021-06-03T14:44:55.000Z</time>
      </trkpt>
      <trkpt lat="44.91412" lon="-0.51094">
        <ele>21.4</ele>
        <time>2021-06-03T14:44:57.000Z</time>
      </trkpt>
      <trkpt lat="44.91406" lon="-0.51099">
        <ele>21.7</ele>
        <time>2021-06-03T14:44:59.000Z</time>
      </trkpt>
      <trkpt lat="44.91399" lon="-0.51104">
        <ele>22.1</ele>
        <time>2021-06-03T14:45:01.000Z</time>
      </trkpt>
      <trkpt lat="44.91393" lon="-0.51105">
        <ele>22.3</ele>
        <time>2021-06-03T14:45:03.000Z</time>
      </trkpt>
      <trkpt lat="44.91389" lon="-0.51104">
        <ele>22.3</ele>
        <time>2021-06-03T14:45:04.000Z</time>
      </trkpt>
      <trkpt lat="44.91378" lon="-0.51101">
        <ele>22.6</ele>
        <time>2021-06-03T14:45:08.000Z</time>
      </trkpt>
      <trkpt lat="44.91372" lon="-0.51108">
        <ele>21.9</ele>
        <time>2021-06-03T14:45:11.000Z</time>
      </trkpt>
      <trkpt lat="44.91371" lon="-0.51117">
        <ele>21.9</ele>
        <time>2021-06-03T14:45:13.000Z</time>
      </trkpt>
      <trkpt lat="44.91368" lon="-0.51126">
        <ele>22.4</ele>
        <time>2021-06-03T14:45:15.000Z</time>
      </trkpt>
      <trkpt lat="44.91362" lon="-0.51134">
        <ele>22.3</ele>
        <time>2021-06-03T14:45:17.000Z</time>
      </trkpt>
      <trkpt lat="44.91355" lon="-0.5114">
        <ele>21.7</ele>
        <time>2021-06-03T14:45:19.000Z</time>
      </trkpt>
      <trkpt lat="44.91348" lon="-0.51146">
        <ele>21.8</ele>
        <time>2021-06-03T14:45:21.000Z</time>
      </trkpt>
      <trkpt lat="44.9134" lon="-0.51152">
        <ele>22.3</ele>
        <time>2021-06-03T14:45:23.000Z</time>
      </trkpt>
      <trkpt lat="44.91336" lon="-0.51155">
        <ele>22.3</ele>
        <time>2021-06-03T14:45:24.000Z</time>
      </trkpt>
      <trkpt lat="44.91332" lon="-0.51158">
        <ele>22.3</ele>
        <time>2021-06-03T14:45:25.000Z</time>
      </trkpt>
      <trkpt lat="44.91325" lon="-0.51165">
        <ele>21.5</ele>
        <time>2021-06-03T14:45:27.000Z</time>
      </trkpt>
      <trkpt lat="44.91317" lon="-0.51171">
        <ele>21</ele>
        <time>2021-06-03T14:45:29.000Z</time>
      </trkpt>
      <trkpt lat="44.9131" lon="-0.51178">
        <ele>21.1</ele>
        <time>2021-06-03T14:45:31.000Z</time>
      </trkpt>
      <trkpt lat="44.91306" lon="-0.51181">
        <ele>21.3</ele>
        <time>2021-06-03T14:45:32.000Z</time>
      </trkpt>
      <trkpt lat="44.91302" lon="-0.51185">
        <ele>21.3</ele>
        <time>2021-06-03T14:45:33.000Z</time>
      </trkpt>
      <trkpt lat="44.91298" lon="-0.51188">
        <ele>21.3</ele>
        <time>2021-06-03T14:45:34.000Z</time>
      </trkpt>
      <trkpt lat="44.91294" lon="-0.51192">
        <ele>21</ele>
        <time>2021-06-03T14:45:35.000Z</time>
      </trkpt>
      <trkpt lat="44.9129" lon="-0.51195">
        <ele>20.8</ele>
        <time>2021-06-03T14:45:36.000Z</time>
      </trkpt>
      <trkpt lat="44.91287" lon="-0.51199">
        <ele>20.7</ele>
        <time>2021-06-03T14:45:37.000Z</time>
      </trkpt>
      <trkpt lat="44.91279" lon="-0.51205">
        <ele>20.9</ele>
        <time>2021-06-03T14:45:39.000Z</time>
      </trkpt>
      <trkpt lat="44.91271" lon="-0.51211">
        <ele>20.7</ele>
        <time>2021-06-03T14:45:41.000Z</time>
      </trkpt>
      <trkpt lat="44.91264" lon="-0.51216">
        <ele>20.5</ele>
        <time>2021-06-03T14:45:43.000Z</time>
      </trkpt>
      <trkpt lat="44.91257" lon="-0.51221">
        <ele>20.4</ele>
        <time>2021-06-03T14:45:45.000Z</time>
      </trkpt>
      <trkpt lat="44.91253" lon="-0.51225">
        <ele>20.3</ele>
        <time>2021-06-03T14:45:46.000Z</time>
      </trkpt>
      <trkpt lat="44.91249" lon="-0.51228">
        <ele>20.3</ele>
        <time>2021-06-03T14:45:47.000Z</time>
      </trkpt>
      <trkpt lat="44.91245" lon="-0.51231">
        <ele>20.3</ele>
        <time>2021-06-03T14:45:48.000Z</time>
      </trkpt>
      <trkpt lat="44.9124" lon="-0.51234">
        <ele>20.3</ele>
        <time>2021-06-03T14:45:49.000Z</time>
      </trkpt>
      <trkpt lat="44.91236" lon="-0.51238">
        <ele>20.1</ele>
        <time>2021-06-03T14:45:50.000Z</time>
      </trkpt>
      <trkpt lat="44.91231" lon="-0.51241">
        <ele>20</ele>
        <time>2021-06-03T14:45:51.000Z</time>
      </trkpt>
      <trkpt lat="44.91226" lon="-0.51244">
        <ele>19.8</ele>
        <time>2021-06-03T14:45:52.000Z</time>
      </trkpt>
      <trkpt lat="44.91221" lon="-0.51248">
        <ele>19.6</ele>
        <time>2021-06-03T14:45:53.000Z</time>
      </trkpt>
      <trkpt lat="44.91216" lon="-0.51251">
        <ele>19.5</ele>
        <time>2021-06-03T14:45:54.000Z</time>
      </trkpt>
      <trkpt lat="44.91211" lon="-0.51254">
        <ele>19.3</ele>
        <time>2021-06-03T14:45:55.000Z</time>
      </trkpt>
      <trkpt lat="44.91206" lon="-0.51258">
        <ele>19.2</ele>
        <time>2021-06-03T14:45:56.000Z</time>
      </trkpt>
      <trkpt lat="44.91201" lon="-0.51261">
        <ele>19.1</ele>
        <time>2021-06-03T14:45:57.000Z</time>
      </trkpt>
      <trkpt lat="44.91196" lon="-0.51264">
        <ele>19</ele>
        <time>2021-06-03T14:45:58.000Z</time>
      </trkpt>
      <trkpt lat="44.91192" lon="-0.51268">
        <ele>18.9</ele>
        <time>2021-06-03T14:45:59.000Z</time>
      </trkpt>
      <trkpt lat="44.91187" lon="-0.51271">
        <ele>18.8</ele>
        <time>2021-06-03T14:46:00.000Z</time>
      </trkpt>
      <trkpt lat="44.91183" lon="-0.51274">
        <ele>18.5</ele>
        <time>2021-06-03T14:46:01.000Z</time>
      </trkpt>
      <trkpt lat="44.91178" lon="-0.51277">
        <ele>18.2</ele>
        <time>2021-06-03T14:46:02.000Z</time>
      </trkpt>
      <trkpt lat="44.91174" lon="-0.5128">
        <ele>17.9</ele>
        <time>2021-06-03T14:46:03.000Z</time>
      </trkpt>
      <trkpt lat="44.9117" lon="-0.51283">
        <ele>17.8</ele>
        <time>2021-06-03T14:46:04.000Z</time>
      </trkpt>
      <trkpt lat="44.91165" lon="-0.51286">
        <ele>17.6</ele>
        <time>2021-06-03T14:46:05.000Z</time>
      </trkpt>
      <trkpt lat="44.91161" lon="-0.51289">
        <ele>17.7</ele>
        <time>2021-06-03T14:46:06.000Z</time>
      </trkpt>
      <trkpt lat="44.91153" lon="-0.51295">
        <ele>17.7</ele>
        <time>2021-06-03T14:46:08.000Z</time>
      </trkpt>
      <trkpt lat="44.91146" lon="-0.51301">
        <ele>18.6</ele>
        <time>2021-06-03T14:46:10.000Z</time>
      </trkpt>
      <trkpt lat="44.91142" lon="-0.51304">
        <ele>18.5</ele>
        <time>2021-06-03T14:46:11.000Z</time>
      </trkpt>
      <trkpt lat="44.91137" lon="-0.51308">
        <ele>18.4</ele>
        <time>2021-06-03T14:46:12.000Z</time>
      </trkpt>
      <trkpt lat="44.91133" lon="-0.51311">
        <ele>18.3</ele>
        <time>2021-06-03T14:46:13.000Z</time>
      </trkpt>
      <trkpt lat="44.91129" lon="-0.51314">
        <ele>18.2</ele>
        <time>2021-06-03T14:46:14.000Z</time>
      </trkpt>
      <trkpt lat="44.91124" lon="-0.51317">
        <ele>18.2</ele>
        <time>2021-06-03T14:46:15.000Z</time>
      </trkpt>
      <trkpt lat="44.91119" lon="-0.51321">
        <ele>17.7</ele>
        <time>2021-06-03T14:46:16.000Z</time>
      </trkpt>
      <trkpt lat="44.91115" lon="-0.51324">
        <ele>17.4</ele>
        <time>2021-06-03T14:46:17.000Z</time>
      </trkpt>
      <trkpt lat="44.9111" lon="-0.51327">
        <ele>17</ele>
        <time>2021-06-03T14:46:18.000Z</time>
      </trkpt>
      <trkpt lat="44.91105" lon="-0.51331">
        <ele>16.7</ele>
        <time>2021-06-03T14:46:19.000Z</time>
      </trkpt>
      <trkpt lat="44.911" lon="-0.51334">
        <ele>16.7</ele>
        <time>2021-06-03T14:46:20.000Z</time>
      </trkpt>
      <trkpt lat="44.91095" lon="-0.51337">
        <ele>16.7</ele>
        <time>2021-06-03T14:46:21.000Z</time>
      </trkpt>
      <trkpt lat="44.9109" lon="-0.5134">
        <ele>16.8</ele>
        <time>2021-06-03T14:46:22.000Z</time>
      </trkpt>
      <trkpt lat="44.91086" lon="-0.51344">
        <ele>16.2</ele>
        <time>2021-06-03T14:46:23.000Z</time>
      </trkpt>
      <trkpt lat="44.9108" lon="-0.51347">
        <ele>15.7</ele>
        <time>2021-06-03T14:46:24.000Z</time>
      </trkpt>
      <trkpt lat="44.91076" lon="-0.51351">
        <ele>15.5</ele>
        <time>2021-06-03T14:46:25.000Z</time>
      </trkpt>
      <trkpt lat="44.91071" lon="-0.51354">
        <ele>15.4</ele>
        <time>2021-06-03T14:46:26.000Z</time>
      </trkpt>
      <trkpt lat="44.91066" lon="-0.51358">
        <ele>15.3</ele>
        <time>2021-06-03T14:46:27.000Z</time>
      </trkpt>
      <trkpt lat="44.91062" lon="-0.51361">
        <ele>16</ele>
        <time>2021-06-03T14:46:28.000Z</time>
      </trkpt>
      <trkpt lat="44.91057" lon="-0.51365">
        <ele>16.6</ele>
        <time>2021-06-03T14:46:29.000Z</time>
      </trkpt>
      <trkpt lat="44.91053" lon="-0.51369">
        <ele>16.3</ele>
        <time>2021-06-03T14:46:30.000Z</time>
      </trkpt>
      <trkpt lat="44.91049" lon="-0.51372">
        <ele>16.1</ele>
        <time>2021-06-03T14:46:31.000Z</time>
      </trkpt>
      <trkpt lat="44.91045" lon="-0.51376">
        <ele>16.3</ele>
        <time>2021-06-03T14:46:32.000Z</time>
      </trkpt>
      <trkpt lat="44.91041" lon="-0.5138">
        <ele>16.5</ele>
        <time>2021-06-03T14:46:33.000Z</time>
      </trkpt>
      <trkpt lat="44.91037" lon="-0.51384">
        <ele>16.6</ele>
        <time>2021-06-03T14:46:34.000Z</time>
      </trkpt>
      <trkpt lat="44.91033" lon="-0.51387">
        <ele>16.7</ele>
        <time>2021-06-03T14:46:35.000Z</time>
      </trkpt>
      <trkpt lat="44.91029" lon="-0.51391">
        <ele>16.8</ele>
        <time>2021-06-03T14:46:36.000Z</time>
      </trkpt>
      <trkpt lat="44.91022" lon="-0.51399">
        <ele>16.9</ele>
        <time>2021-06-03T14:46:38.000Z</time>
      </trkpt>
      <trkpt lat="44.91015" lon="-0.51406">
        <ele>16.8</ele>
        <time>2021-06-03T14:46:40.000Z</time>
      </trkpt>
      <trkpt lat="44.91008" lon="-0.51413">
        <ele>16.6</ele>
        <time>2021-06-03T14:46:42.000Z</time>
      </trkpt>
      <trkpt lat="44.91004" lon="-0.51416">
        <ele>16.5</ele>
        <time>2021-06-03T14:46:43.000Z</time>
      </trkpt>
      <trkpt lat="44.91" lon="-0.51419">
        <ele>16.4</ele>
        <time>2021-06-03T14:46:44.000Z</time>
      </trkpt>
      <trkpt lat="44.90993" lon="-0.51424">
        <ele>16.3</ele>
        <time>2021-06-03T14:46:46.000Z</time>
      </trkpt>
      <trkpt lat="44.90987" lon="-0.51428">
        <ele>16.1</ele>
        <time>2021-06-03T14:46:48.000Z</time>
      </trkpt>
      <trkpt lat="44.9098" lon="-0.51432">
        <ele>15.7</ele>
        <time>2021-06-03T14:46:51.000Z</time>
      </trkpt>
      <trkpt lat="44.90981" lon="-0.51444">
        <ele>15.4</ele>
        <time>2021-06-03T14:49:17.000Z</time>
      </trkpt>
      <trkpt lat="44.9098" lon="-0.51445">
        <ele>15.7</ele>
        <time>2021-06-03T14:49:18.000Z</time>
      </trkpt>
      <trkpt lat="44.90968" lon="-0.51456">
        <ele>15.6</ele>
        <time>2021-06-03T14:49:23.000Z</time>
      </trkpt>
      <trkpt lat="44.90962" lon="-0.51462">
        <ele>15.4</ele>
        <time>2021-06-03T14:49:25.000Z</time>
      </trkpt>
      <trkpt lat="44.90956" lon="-0.51468">
        <ele>15.6</ele>
        <time>2021-06-03T14:49:27.000Z</time>
      </trkpt>
      <trkpt lat="44.90949" lon="-0.51474">
        <ele>15.2</ele>
        <time>2021-06-03T14:49:29.000Z</time>
      </trkpt>
      <trkpt lat="44.90942" lon="-0.5148">
        <ele>15.2</ele>
        <time>2021-06-03T14:49:31.000Z</time>
      </trkpt>
      <trkpt lat="44.90934" lon="-0.51478">
        <ele>15.1</ele>
        <time>2021-06-03T14:49:33.000Z</time>
      </trkpt>
      <trkpt lat="44.90926" lon="-0.51473">
        <ele>14.5</ele>
        <time>2021-06-03T14:49:36.000Z</time>
      </trkpt>
      <trkpt lat="44.90919" lon="-0.51477">
        <ele>14.5</ele>
        <time>2021-06-03T14:49:39.000Z</time>
      </trkpt>
      <trkpt lat="44.90913" lon="-0.51484">
        <ele>14.5</ele>
        <time>2021-06-03T14:49:42.000Z</time>
      </trkpt>
      <trkpt lat="44.90913" lon="-0.51497">
        <ele>14.3</ele>
        <time>2021-06-03T14:49:45.000Z</time>
      </trkpt>
      <trkpt lat="44.90912" lon="-0.51505">
        <ele>14</ele>
        <time>2021-06-03T14:49:47.000Z</time>
      </trkpt>
      <trkpt lat="44.9091" lon="-0.51517">
        <ele>13.5</ele>
        <time>2021-06-03T14:49:50.000Z</time>
      </trkpt>
      <trkpt lat="44.90908" lon="-0.51526">
        <ele>13.3</ele>
        <time>2021-06-03T14:49:54.000Z</time>
      </trkpt>
      <trkpt lat="44.90906" lon="-0.51537">
        <ele>13.1</ele>
        <time>2021-06-03T14:49:57.000Z</time>
      </trkpt>
      <trkpt lat="44.90899" lon="-0.51546">
        <ele>12.8</ele>
        <time>2021-06-03T14:50:01.000Z</time>
      </trkpt>
      <trkpt lat="44.909" lon="-0.51557">
        <ele>13</ele>
        <time>2021-06-03T14:50:07.000Z</time>
      </trkpt>
      <trkpt lat="44.90901" lon="-0.51568">
        <ele>12.5</ele>
        <time>2021-06-03T14:50:11.000Z</time>
      </trkpt>
      <trkpt lat="44.90894" lon="-0.51575">
        <ele>12.9</ele>
        <time>2021-06-03T14:50:14.000Z</time>
      </trkpt>
      <trkpt lat="44.90888" lon="-0.51581">
        <ele>12.1</ele>
        <time>2021-06-03T14:50:16.000Z</time>
      </trkpt>
      <trkpt lat="44.90882" lon="-0.51588">
        <ele>11.7</ele>
        <time>2021-06-03T14:50:18.000Z</time>
      </trkpt>
      <trkpt lat="44.90875" lon="-0.51595">
        <ele>11.7</ele>
        <time>2021-06-03T14:50:20.000Z</time>
      </trkpt>
      <trkpt lat="44.90872" lon="-0.51598">
        <ele>11.7</ele>
        <time>2021-06-03T14:50:21.000Z</time>
      </trkpt>
      <trkpt lat="44.90863" lon="-0.51607">
        <ele>11.7</ele>
        <time>2021-06-03T14:50:24.000Z</time>
      </trkpt>
      <trkpt lat="44.90857" lon="-0.51614">
        <ele>11.5</ele>
        <time>2021-06-03T14:50:26.000Z</time>
      </trkpt>
      <trkpt lat="44.90851" lon="-0.5162">
        <ele>11</ele>
        <time>2021-06-03T14:50:28.000Z</time>
      </trkpt>
      <trkpt lat="44.90846" lon="-0.51627">
        <ele>10.9</ele>
        <time>2021-06-03T14:50:30.000Z</time>
      </trkpt>
      <trkpt lat="44.9084" lon="-0.51633">
        <ele>10.6</ele>
        <time>2021-06-03T14:50:32.000Z</time>
      </trkpt>
      <trkpt lat="44.90834" lon="-0.5164">
        <ele>10.5</ele>
        <time>2021-06-03T14:50:34.000Z</time>
      </trkpt>
      <trkpt lat="44.90828" lon="-0.51646">
        <ele>10.5</ele>
        <time>2021-06-03T14:50:36.000Z</time>
      </trkpt>
      <trkpt lat="44.90822" lon="-0.51652">
        <ele>10.7</ele>
        <time>2021-06-03T14:50:39.000Z</time>
      </trkpt>
      <trkpt lat="44.90815" lon="-0.5166">
        <ele>9.9</ele>
        <time>2021-06-03T14:50:44.000Z</time>
      </trkpt>
      <trkpt lat="44.90808" lon="-0.51668">
        <ele>9.9</ele>
        <time>2021-06-03T14:50:48.000Z</time>
      </trkpt>
      <trkpt lat="44.90803" lon="-0.51673">
        <ele>10.2</ele>
        <time>2021-06-03T14:50:50.000Z</time>
      </trkpt>
      <trkpt lat="44.90798" lon="-0.51679">
        <ele>10.4</ele>
        <time>2021-06-03T14:50:52.000Z</time>
      </trkpt>
      <trkpt lat="44.90792" lon="-0.51685">
        <ele>10.3</ele>
        <time>2021-06-03T14:50:54.000Z</time>
      </trkpt>
      <trkpt lat="44.90786" lon="-0.5169">
        <ele>10</ele>
        <time>2021-06-03T14:50:56.000Z</time>
      </trkpt>
      <trkpt lat="44.9078" lon="-0.51695">
        <ele>9.8</ele>
        <time>2021-06-03T14:50:58.000Z</time>
      </trkpt>
      <trkpt lat="44.90774" lon="-0.51702">
        <ele>9.8</ele>
        <time>2021-06-03T14:51:00.000Z</time>
      </trkpt>
      <trkpt lat="44.90768" lon="-0.51711">
        <ele>10.4</ele>
        <time>2021-06-03T14:51:02.000Z</time>
      </trkpt>
      <trkpt lat="44.90764" lon="-0.51715">
        <ele>10.5</ele>
        <time>2021-06-03T14:51:03.000Z</time>
      </trkpt>
      <trkpt lat="44.90756" lon="-0.51721">
        <ele>10.6</ele>
        <time>2021-06-03T14:51:05.000Z</time>
      </trkpt>
      <trkpt lat="44.90748" lon="-0.51725">
        <ele>10.8</ele>
        <time>2021-06-03T14:51:07.000Z</time>
      </trkpt>
      <trkpt lat="44.9074" lon="-0.51728">
        <ele>10.1</ele>
        <time>2021-06-03T14:51:09.000Z</time>
      </trkpt>
      <trkpt lat="44.90732" lon="-0.51731">
        <ele>10.3</ele>
        <time>2021-06-03T14:51:11.000Z</time>
      </trkpt>
      <trkpt lat="44.90724" lon="-0.51729">
        <ele>10</ele>
        <time>2021-06-03T14:51:13.000Z</time>
      </trkpt>
      <trkpt lat="44.90717" lon="-0.51724">
        <ele>10</ele>
        <time>2021-06-03T14:51:15.000Z</time>
      </trkpt>
      <trkpt lat="44.90709" lon="-0.51719">
        <ele>10.6</ele>
        <time>2021-06-03T14:51:17.000Z</time>
      </trkpt>
      <trkpt lat="44.907" lon="-0.51717">
        <ele>10.9</ele>
        <time>2021-06-03T14:51:19.000Z</time>
      </trkpt>
      <trkpt lat="44.90692" lon="-0.51716">
        <ele>11</ele>
        <time>2021-06-03T14:51:21.000Z</time>
      </trkpt>
      <trkpt lat="44.90683" lon="-0.51716">
        <ele>11.1</ele>
        <time>2021-06-03T14:51:23.000Z</time>
      </trkpt>
      <trkpt lat="44.90679" lon="-0.51715">
        <ele>11.5</ele>
        <time>2021-06-03T14:51:24.000Z</time>
      </trkpt>
      <trkpt lat="44.90666" lon="-0.51715">
        <ele>11.8</ele>
        <time>2021-06-03T14:51:27.000Z</time>
      </trkpt>
      <trkpt lat="44.90658" lon="-0.51714">
        <ele>11.9</ele>
        <time>2021-06-03T14:51:29.000Z</time>
      </trkpt>
      <trkpt lat="44.90649" lon="-0.51714">
        <ele>12.2</ele>
        <time>2021-06-03T14:51:31.000Z</time>
      </trkpt>
      <trkpt lat="44.90641" lon="-0.51714">
        <ele>12.5</ele>
        <time>2021-06-03T14:51:33.000Z</time>
      </trkpt>
      <trkpt lat="44.90633" lon="-0.51715">
        <ele>13.8</ele>
        <time>2021-06-03T14:51:35.000Z</time>
      </trkpt>
      <trkpt lat="44.90624" lon="-0.51715">
        <ele>14.1</ele>
        <time>2021-06-03T14:51:37.000Z</time>
      </trkpt>
      <trkpt lat="44.90616" lon="-0.51715">
        <ele>14.2</ele>
        <time>2021-06-03T14:51:39.000Z</time>
      </trkpt>
      <trkpt lat="44.90608" lon="-0.51716">
        <ele>14.2</ele>
        <time>2021-06-03T14:51:41.000Z</time>
      </trkpt>
      <trkpt lat="44.906" lon="-0.51718">
        <ele>14.5</ele>
        <time>2021-06-03T14:51:43.000Z</time>
      </trkpt>
      <trkpt lat="44.90592" lon="-0.51719">
        <ele>14.9</ele>
        <time>2021-06-03T14:51:45.000Z</time>
      </trkpt>
      <trkpt lat="44.90585" lon="-0.51721">
        <ele>14.9</ele>
        <time>2021-06-03T14:51:47.000Z</time>
      </trkpt>
      <trkpt lat="44.90578" lon="-0.51724">
        <ele>14.6</ele>
        <time>2021-06-03T14:51:49.000Z</time>
      </trkpt>
      <trkpt lat="44.90571" lon="-0.51726">
        <ele>15.6</ele>
        <time>2021-06-03T14:51:51.000Z</time>
      </trkpt>
      <trkpt lat="44.90564" lon="-0.5173">
        <ele>16.2</ele>
        <time>2021-06-03T14:51:53.000Z</time>
      </trkpt>
      <trkpt lat="44.90558" lon="-0.51736">
        <ele>16.8</ele>
        <time>2021-06-03T14:51:55.000Z</time>
      </trkpt>
      <trkpt lat="44.90552" lon="-0.51742">
        <ele>17.2</ele>
        <time>2021-06-03T14:51:57.000Z</time>
      </trkpt>
      <trkpt lat="44.90545" lon="-0.51745">
        <ele>17.4</ele>
        <time>2021-06-03T14:51:59.000Z</time>
      </trkpt>
      <trkpt lat="44.90537" lon="-0.51747">
        <ele>17.9</ele>
        <time>2021-06-03T14:52:01.000Z</time>
      </trkpt>
      <trkpt lat="44.90528" lon="-0.5175">
        <ele>17.3</ele>
        <time>2021-06-03T14:52:03.000Z</time>
      </trkpt>
      <trkpt lat="44.9052" lon="-0.51754">
        <ele>17.2</ele>
        <time>2021-06-03T14:52:05.000Z</time>
      </trkpt>
      <trkpt lat="44.90516" lon="-0.51756">
        <ele>17.3</ele>
        <time>2021-06-03T14:52:06.000Z</time>
      </trkpt>
      <trkpt lat="44.90511" lon="-0.51758">
        <ele>17.2</ele>
        <time>2021-06-03T14:52:07.000Z</time>
      </trkpt>
      <trkpt lat="44.90503" lon="-0.51761">
        <ele>17.4</ele>
        <time>2021-06-03T14:52:09.000Z</time>
      </trkpt>
      <trkpt lat="44.90495" lon="-0.51765">
        <ele>17.7</ele>
        <time>2021-06-03T14:52:11.000Z</time>
      </trkpt>
      <trkpt lat="44.90487" lon="-0.51769">
        <ele>17.7</ele>
        <time>2021-06-03T14:52:13.000Z</time>
      </trkpt>
      <trkpt lat="44.90478" lon="-0.51772">
        <ele>17.5</ele>
        <time>2021-06-03T14:52:15.000Z</time>
      </trkpt>
      <trkpt lat="44.9047" lon="-0.51776">
        <ele>17.7</ele>
        <time>2021-06-03T14:52:17.000Z</time>
      </trkpt>
      <trkpt lat="44.90462" lon="-0.51781">
        <ele>18.1</ele>
        <time>2021-06-03T14:52:19.000Z</time>
      </trkpt>
      <trkpt lat="44.90458" lon="-0.51784">
        <ele>18.3</ele>
        <time>2021-06-03T14:52:20.000Z</time>
      </trkpt>
      <trkpt lat="44.90454" lon="-0.51788">
        <ele>18.8</ele>
        <time>2021-06-03T14:52:21.000Z</time>
      </trkpt>
      <trkpt lat="44.90451" lon="-0.51792">
        <ele>19.2</ele>
        <time>2021-06-03T14:52:22.000Z</time>
      </trkpt>
      <trkpt lat="44.90448" lon="-0.51797">
        <ele>19.4</ele>
        <time>2021-06-03T14:52:23.000Z</time>
      </trkpt>
      <trkpt lat="44.90445" lon="-0.51802">
        <ele>18.9</ele>
        <time>2021-06-03T14:52:24.000Z</time>
      </trkpt>
      <trkpt lat="44.90442" lon="-0.51807">
        <ele>18.5</ele>
        <time>2021-06-03T14:52:25.000Z</time>
      </trkpt>
      <trkpt lat="44.9044" lon="-0.51812">
        <ele>18.2</ele>
        <time>2021-06-03T14:52:26.000Z</time>
      </trkpt>
      <trkpt lat="44.90438" lon="-0.51818">
        <ele>18</ele>
        <time>2021-06-03T14:52:27.000Z</time>
      </trkpt>
      <trkpt lat="44.90437" lon="-0.51825">
        <ele>18.1</ele>
        <time>2021-06-03T14:52:28.000Z</time>
      </trkpt>
      <trkpt lat="44.90435" lon="-0.51832">
        <ele>18.2</ele>
        <time>2021-06-03T14:52:29.000Z</time>
      </trkpt>
      <trkpt lat="44.90435" lon="-0.51839">
        <ele>18.2</ele>
        <time>2021-06-03T14:52:30.000Z</time>
      </trkpt>
      <trkpt lat="44.90434" lon="-0.51846">
        <ele>17.8</ele>
        <time>2021-06-03T14:52:31.000Z</time>
      </trkpt>
      <trkpt lat="44.90434" lon="-0.51854">
        <ele>17.5</ele>
        <time>2021-06-03T14:52:32.000Z</time>
      </trkpt>
      <trkpt lat="44.90434" lon="-0.51861">
        <ele>17.2</ele>
        <time>2021-06-03T14:52:33.000Z</time>
      </trkpt>
      <trkpt lat="44.90436" lon="-0.51889">
        <ele>16</ele>
        <time>2021-06-03T14:52:36.000Z</time>
      </trkpt>
      <trkpt lat="44.90439" lon="-0.51901">
        <ele>16.3</ele>
        <time>2021-06-03T14:52:38.000Z</time>
      </trkpt>
      <trkpt lat="44.90449" lon="-0.51949">
        <ele>15</ele>
        <time>2021-06-03T14:52:43.000Z</time>
      </trkpt>
      <trkpt lat="44.90466" lon="-0.52001">
        <ele>13</ele>
        <time>2021-06-03T14:52:49.000Z</time>
      </trkpt>
      <trkpt lat="44.90464" lon="-0.52016">
        <ele>13.4</ele>
        <time>2021-06-03T14:52:51.000Z</time>
      </trkpt>
      <trkpt lat="44.90464" lon="-0.52026">
        <ele>13.2</ele>
        <time>2021-06-03T14:52:52.000Z</time>
      </trkpt>
      <trkpt lat="44.90462" lon="-0.52036">
        <ele>13</ele>
        <time>2021-06-03T14:52:53.000Z</time>
      </trkpt>
      <trkpt lat="44.90461" lon="-0.52046">
        <ele>12.6</ele>
        <time>2021-06-03T14:52:54.000Z</time>
      </trkpt>
      <trkpt lat="44.90459" lon="-0.52056">
        <ele>12.3</ele>
        <time>2021-06-03T14:52:55.000Z</time>
      </trkpt>
      <trkpt lat="44.90457" lon="-0.52066">
        <ele>12.1</ele>
        <time>2021-06-03T14:52:56.000Z</time>
      </trkpt>
      <trkpt lat="44.90455" lon="-0.52076">
        <ele>11.9</ele>
        <time>2021-06-03T14:52:57.000Z</time>
      </trkpt>
      <trkpt lat="44.90453" lon="-0.52086">
        <ele>11.7</ele>
        <time>2021-06-03T14:52:58.000Z</time>
      </trkpt>
      <trkpt lat="44.9045" lon="-0.52096">
        <ele>11.2</ele>
        <time>2021-06-03T14:52:59.000Z</time>
      </trkpt>
      <trkpt lat="44.90447" lon="-0.52106">
        <ele>10.8</ele>
        <time>2021-06-03T14:53:00.000Z</time>
      </trkpt>
      <trkpt lat="44.90444" lon="-0.52116">
        <ele>10.7</ele>
        <time>2021-06-03T14:53:01.000Z</time>
      </trkpt>
      <trkpt lat="44.90441" lon="-0.52126">
        <ele>10.7</ele>
        <time>2021-06-03T14:53:02.000Z</time>
      </trkpt>
      <trkpt lat="44.90438" lon="-0.52136">
        <ele>10.6</ele>
        <time>2021-06-03T14:53:03.000Z</time>
      </trkpt>
      <trkpt lat="44.90435" lon="-0.52147">
        <ele>9.9</ele>
        <time>2021-06-03T14:53:04.000Z</time>
      </trkpt>
      <trkpt lat="44.90432" lon="-0.52157">
        <ele>9.3</ele>
        <time>2021-06-03T14:53:05.000Z</time>
      </trkpt>
      <trkpt lat="44.90428" lon="-0.52168">
        <ele>9.1</ele>
        <time>2021-06-03T14:53:06.000Z</time>
      </trkpt>
      <trkpt lat="44.90425" lon="-0.52178">
        <ele>8.9</ele>
        <time>2021-06-03T14:53:07.000Z</time>
      </trkpt>
      <trkpt lat="44.90422" lon="-0.52188">
        <ele>8.8</ele>
        <time>2021-06-03T14:53:08.000Z</time>
      </trkpt>
      <trkpt lat="44.90418" lon="-0.52199">
        <ele>8.5</ele>
        <time>2021-06-03T14:53:09.000Z</time>
      </trkpt>
      <trkpt lat="44.90414" lon="-0.52209">
        <ele>8.3</ele>
        <time>2021-06-03T14:53:10.000Z</time>
      </trkpt>
      <trkpt lat="44.90411" lon="-0.5222">
        <ele>8.1</ele>
        <time>2021-06-03T14:53:11.000Z</time>
      </trkpt>
      <trkpt lat="44.90408" lon="-0.5223">
        <ele>8</ele>
        <time>2021-06-03T14:53:12.000Z</time>
      </trkpt>
      <trkpt lat="44.90405" lon="-0.5224">
        <ele>7.9</ele>
        <time>2021-06-03T14:53:13.000Z</time>
      </trkpt>
      <trkpt lat="44.90403" lon="-0.52248">
        <ele>7.8</ele>
        <time>2021-06-03T14:53:14.000Z</time>
      </trkpt>
      <trkpt lat="44.90401" lon="-0.52257">
        <ele>7.7</ele>
        <time>2021-06-03T14:53:15.000Z</time>
      </trkpt>
      <trkpt lat="44.90399" lon="-0.52265">
        <ele>7.4</ele>
        <time>2021-06-03T14:53:16.000Z</time>
      </trkpt>
      <trkpt lat="44.90395" lon="-0.52273">
        <ele>7.1</ele>
        <time>2021-06-03T14:53:17.000Z</time>
      </trkpt>
      <trkpt lat="44.90392" lon="-0.52281">
        <ele>7.1</ele>
        <time>2021-06-03T14:53:18.000Z</time>
      </trkpt>
      <trkpt lat="44.90389" lon="-0.52289">
        <ele>7</ele>
        <time>2021-06-03T14:53:19.000Z</time>
      </trkpt>
      <trkpt lat="44.90386" lon="-0.52296">
        <ele>7</ele>
        <time>2021-06-03T14:53:20.000Z</time>
      </trkpt>
      <trkpt lat="44.90382" lon="-0.52304">
        <ele>6.9</ele>
        <time>2021-06-03T14:53:21.000Z</time>
      </trkpt>
      <trkpt lat="44.90379" lon="-0.52311">
        <ele>6.9</ele>
        <time>2021-06-03T14:53:22.000Z</time>
      </trkpt>
      <trkpt lat="44.90375" lon="-0.52318">
        <ele>7.1</ele>
        <time>2021-06-03T14:53:23.000Z</time>
      </trkpt>
      <trkpt lat="44.90371" lon="-0.52324">
        <ele>7.2</ele>
        <time>2021-06-03T14:53:24.000Z</time>
      </trkpt>
      <trkpt lat="44.90368" lon="-0.52331">
        <ele>7.2</ele>
        <time>2021-06-03T14:53:25.000Z</time>
      </trkpt>
      <trkpt lat="44.90364" lon="-0.52336">
        <ele>7.1</ele>
        <time>2021-06-03T14:53:26.000Z</time>
      </trkpt>
      <trkpt lat="44.9036" lon="-0.52342">
        <ele>7.1</ele>
        <time>2021-06-03T14:53:27.000Z</time>
      </trkpt>
      <trkpt lat="44.90356" lon="-0.52347">
        <ele>7.2</ele>
        <time>2021-06-03T14:53:28.000Z</time>
      </trkpt>
      <trkpt lat="44.90352" lon="-0.52352">
        <ele>7.2</ele>
        <time>2021-06-03T14:53:29.000Z</time>
      </trkpt>
      <trkpt lat="44.90348" lon="-0.52356">
        <ele>7</ele>
        <time>2021-06-03T14:53:30.000Z</time>
      </trkpt>
      <trkpt lat="44.90344" lon="-0.5236">
        <ele>6.9</ele>
        <time>2021-06-03T14:53:31.000Z</time>
      </trkpt>
      <trkpt lat="44.9034" lon="-0.52364">
        <ele>6.9</ele>
        <time>2021-06-03T14:53:32.000Z</time>
      </trkpt>
      <trkpt lat="44.90335" lon="-0.52368">
        <ele>6.9</ele>
        <time>2021-06-03T14:53:33.000Z</time>
      </trkpt>
      <trkpt lat="44.90331" lon="-0.52372">
        <ele>6.9</ele>
        <time>2021-06-03T14:53:34.000Z</time>
      </trkpt>
      <trkpt lat="44.90326" lon="-0.52376">
        <ele>7.3</ele>
        <time>2021-06-03T14:53:35.000Z</time>
      </trkpt>
      <trkpt lat="44.90322" lon="-0.52379">
        <ele>7.6</ele>
        <time>2021-06-03T14:53:36.000Z</time>
      </trkpt>
      <trkpt lat="44.90318" lon="-0.52382">
        <ele>7.7</ele>
        <time>2021-06-03T14:53:37.000Z</time>
      </trkpt>
      <trkpt lat="44.90313" lon="-0.52385">
        <ele>7.8</ele>
        <time>2021-06-03T14:53:38.000Z</time>
      </trkpt>
      <trkpt lat="44.90309" lon="-0.52388">
        <ele>7.8</ele>
        <time>2021-06-03T14:53:39.000Z</time>
      </trkpt>
      <trkpt lat="44.90305" lon="-0.5239">
        <ele>7.8</ele>
        <time>2021-06-03T14:53:40.000Z</time>
      </trkpt>
      <trkpt lat="44.903" lon="-0.52393">
        <ele>7.8</ele>
        <time>2021-06-03T14:53:41.000Z</time>
      </trkpt>
      <trkpt lat="44.90295" lon="-0.52395">
        <ele>7.8</ele>
        <time>2021-06-03T14:53:42.000Z</time>
      </trkpt>
      <trkpt lat="44.90291" lon="-0.52398">
        <ele>7.8</ele>
        <time>2021-06-03T14:53:43.000Z</time>
      </trkpt>
      <trkpt lat="44.90286" lon="-0.524">
        <ele>7.8</ele>
        <time>2021-06-03T14:53:44.000Z</time>
      </trkpt>
      <trkpt lat="44.90281" lon="-0.52402">
        <ele>7.9</ele>
        <time>2021-06-03T14:53:45.000Z</time>
      </trkpt>
      <trkpt lat="44.90276" lon="-0.52405">
        <ele>7.9</ele>
        <time>2021-06-03T14:53:46.000Z</time>
      </trkpt>
      <trkpt lat="44.90271" lon="-0.52406">
        <ele>7.9</ele>
        <time>2021-06-03T14:53:47.000Z</time>
      </trkpt>
      <trkpt lat="44.90266" lon="-0.52408">
        <ele>7.9</ele>
        <time>2021-06-03T14:53:48.000Z</time>
      </trkpt>
      <trkpt lat="44.90262" lon="-0.5241">
        <ele>8.3</ele>
        <time>2021-06-03T14:53:49.000Z</time>
      </trkpt>
      <trkpt lat="44.90257" lon="-0.52412">
        <ele>8.6</ele>
        <time>2021-06-03T14:53:50.000Z</time>
      </trkpt>
      <trkpt lat="44.90252" lon="-0.52414">
        <ele>8.7</ele>
        <time>2021-06-03T14:53:51.000Z</time>
      </trkpt>
      <trkpt lat="44.90248" lon="-0.52415">
        <ele>8.8</ele>
        <time>2021-06-03T14:53:52.000Z</time>
      </trkpt>
      <trkpt lat="44.90243" lon="-0.52417">
        <ele>8.9</ele>
        <time>2021-06-03T14:53:53.000Z</time>
      </trkpt>
      <trkpt lat="44.90238" lon="-0.52419">
        <ele>9.3</ele>
        <time>2021-06-03T14:53:54.000Z</time>
      </trkpt>
      <trkpt lat="44.90234" lon="-0.52421">
        <ele>9.7</ele>
        <time>2021-06-03T14:53:55.000Z</time>
      </trkpt>
      <trkpt lat="44.90229" lon="-0.52423">
        <ele>9.8</ele>
        <time>2021-06-03T14:53:56.000Z</time>
      </trkpt>
      <trkpt lat="44.90224" lon="-0.52424">
        <ele>9.8</ele>
        <time>2021-06-03T14:53:57.000Z</time>
      </trkpt>
      <trkpt lat="44.9022" lon="-0.52426">
        <ele>9.7</ele>
        <time>2021-06-03T14:53:58.000Z</time>
      </trkpt>
      <trkpt lat="44.90215" lon="-0.52428">
        <ele>9.7</ele>
        <time>2021-06-03T14:53:59.000Z</time>
      </trkpt>
      <trkpt lat="44.90211" lon="-0.5243">
        <ele>9.6</ele>
        <time>2021-06-03T14:54:00.000Z</time>
      </trkpt>
      <trkpt lat="44.90206" lon="-0.52431">
        <ele>9.4</ele>
        <time>2021-06-03T14:54:01.000Z</time>
      </trkpt>
      <trkpt lat="44.90201" lon="-0.52433">
        <ele>9.3</ele>
        <time>2021-06-03T14:54:02.000Z</time>
      </trkpt>
      <trkpt lat="44.90197" lon="-0.52435">
        <ele>9.3</ele>
        <time>2021-06-03T14:54:03.000Z</time>
      </trkpt>
      <trkpt lat="44.90192" lon="-0.52436">
        <ele>9.2</ele>
        <time>2021-06-03T14:54:04.000Z</time>
      </trkpt>
      <trkpt lat="44.90188" lon="-0.52438">
        <ele>9.2</ele>
        <time>2021-06-03T14:54:05.000Z</time>
      </trkpt>
      <trkpt lat="44.90183" lon="-0.5244">
        <ele>9.4</ele>
        <time>2021-06-03T14:54:06.000Z</time>
      </trkpt>
      <trkpt lat="44.90179" lon="-0.52441">
        <ele>9.6</ele>
        <time>2021-06-03T14:54:07.000Z</time>
      </trkpt>
      <trkpt lat="44.90174" lon="-0.52443">
        <ele>9.9</ele>
        <time>2021-06-03T14:54:08.000Z</time>
      </trkpt>
      <trkpt lat="44.9017" lon="-0.52445">
        <ele>10.1</ele>
        <time>2021-06-03T14:54:09.000Z</time>
      </trkpt>
      <trkpt lat="44.90165" lon="-0.52447">
        <ele>10.3</ele>
        <time>2021-06-03T14:54:10.000Z</time>
      </trkpt>
      <trkpt lat="44.9016" lon="-0.52448">
        <ele>10.4</ele>
        <time>2021-06-03T14:54:11.000Z</time>
      </trkpt>
      <trkpt lat="44.90156" lon="-0.5245">
        <ele>10.5</ele>
        <time>2021-06-03T14:54:12.000Z</time>
      </trkpt>
      <trkpt lat="44.90151" lon="-0.52452">
        <ele>10.6</ele>
        <time>2021-06-03T14:54:13.000Z</time>
      </trkpt>
      <trkpt lat="44.90146" lon="-0.52453">
        <ele>10.7</ele>
        <time>2021-06-03T14:54:14.000Z</time>
      </trkpt>
      <trkpt lat="44.90142" lon="-0.52455">
        <ele>10.3</ele>
        <time>2021-06-03T14:54:15.000Z</time>
      </trkpt>
      <trkpt lat="44.90137" lon="-0.52456">
        <ele>10.1</ele>
        <time>2021-06-03T14:54:16.000Z</time>
      </trkpt>
      <trkpt lat="44.90132" lon="-0.52458">
        <ele>10.3</ele>
        <time>2021-06-03T14:54:17.000Z</time>
      </trkpt>
      <trkpt lat="44.90127" lon="-0.5246">
        <ele>10.5</ele>
        <time>2021-06-03T14:54:18.000Z</time>
      </trkpt>
      <trkpt lat="44.90122" lon="-0.52461">
        <ele>10.6</ele>
        <time>2021-06-03T14:54:19.000Z</time>
      </trkpt>
      <trkpt lat="44.90117" lon="-0.52463">
        <ele>10.6</ele>
        <time>2021-06-03T14:54:20.000Z</time>
      </trkpt>
      <trkpt lat="44.90099" lon="-0.5247">
        <ele>10</ele>
        <time>2021-06-03T14:54:23.000Z</time>
      </trkpt>
      <trkpt lat="44.90092" lon="-0.52472">
        <ele>10.3</ele>
        <time>2021-06-03T14:54:25.000Z</time>
      </trkpt>
      <trkpt lat="44.90087" lon="-0.52474">
        <ele>10.4</ele>
        <time>2021-06-03T14:54:26.000Z</time>
      </trkpt>
      <trkpt lat="44.90082" lon="-0.52476">
        <ele>10.2</ele>
        <time>2021-06-03T14:54:27.000Z</time>
      </trkpt>
      <trkpt lat="44.90077" lon="-0.52478">
        <ele>9.9</ele>
        <time>2021-06-03T14:54:28.000Z</time>
      </trkpt>
      <trkpt lat="44.90071" lon="-0.5248">
        <ele>9.8</ele>
        <time>2021-06-03T14:54:29.000Z</time>
      </trkpt>
      <trkpt lat="44.90066" lon="-0.52482">
        <ele>9.8</ele>
        <time>2021-06-03T14:54:30.000Z</time>
      </trkpt>
      <trkpt lat="44.90061" lon="-0.52484">
        <ele>9.7</ele>
        <time>2021-06-03T14:54:31.000Z</time>
      </trkpt>
      <trkpt lat="44.90056" lon="-0.52486">
        <ele>9.7</ele>
        <time>2021-06-03T14:54:32.000Z</time>
      </trkpt>
      <trkpt lat="44.9005" lon="-0.52488">
        <ele>9.7</ele>
        <time>2021-06-03T14:54:33.000Z</time>
      </trkpt>
      <trkpt lat="44.90045" lon="-0.5249">
        <ele>10</ele>
        <time>2021-06-03T14:54:34.000Z</time>
      </trkpt>
      <trkpt lat="44.9004" lon="-0.52492">
        <ele>10.2</ele>
        <time>2021-06-03T14:54:35.000Z</time>
      </trkpt>
      <trkpt lat="44.90035" lon="-0.52494">
        <ele>10</ele>
        <time>2021-06-03T14:54:36.000Z</time>
      </trkpt>
      <trkpt lat="44.90029" lon="-0.52496">
        <ele>9.8</ele>
        <time>2021-06-03T14:54:37.000Z</time>
      </trkpt>
      <trkpt lat="44.90024" lon="-0.52497">
        <ele>9.7</ele>
        <time>2021-06-03T14:54:38.000Z</time>
      </trkpt>
      <trkpt lat="44.90018" lon="-0.52499">
        <ele>9.7</ele>
        <time>2021-06-03T14:54:39.000Z</time>
      </trkpt>
      <trkpt lat="44.90013" lon="-0.52501">
        <ele>9.7</ele>
        <time>2021-06-03T14:54:40.000Z</time>
      </trkpt>
      <trkpt lat="44.90008" lon="-0.52502">
        <ele>9.6</ele>
        <time>2021-06-03T14:54:41.000Z</time>
      </trkpt>
      <trkpt lat="44.90003" lon="-0.52504">
        <ele>9.4</ele>
        <time>2021-06-03T14:54:42.000Z</time>
      </trkpt>
      <trkpt lat="44.89998" lon="-0.52505">
        <ele>9.4</ele>
        <time>2021-06-03T14:54:43.000Z</time>
      </trkpt>
      <trkpt lat="44.89993" lon="-0.52506">
        <ele>9.3</ele>
        <time>2021-06-03T14:54:44.000Z</time>
      </trkpt>
      <trkpt lat="44.89988" lon="-0.52507">
        <ele>9.3</ele>
        <time>2021-06-03T14:54:45.000Z</time>
      </trkpt>
      <trkpt lat="44.89982" lon="-0.52508">
        <ele>9.3</ele>
        <time>2021-06-03T14:54:46.000Z</time>
      </trkpt>
      <trkpt lat="44.89977" lon="-0.52509">
        <ele>9.3</ele>
        <time>2021-06-03T14:54:47.000Z</time>
      </trkpt>
      <trkpt lat="44.89972" lon="-0.5251">
        <ele>9.4</ele>
        <time>2021-06-03T14:54:48.000Z</time>
      </trkpt>
      <trkpt lat="44.89967" lon="-0.52511">
        <ele>9.5</ele>
        <time>2021-06-03T14:54:49.000Z</time>
      </trkpt>
      <trkpt lat="44.89962" lon="-0.52512">
        <ele>9.6</ele>
        <time>2021-06-03T14:54:50.000Z</time>
      </trkpt>
      <trkpt lat="44.89957" lon="-0.52513">
        <ele>9.6</ele>
        <time>2021-06-03T14:54:51.000Z</time>
      </trkpt>
      <trkpt lat="44.89952" lon="-0.52514">
        <ele>9.7</ele>
        <time>2021-06-03T14:54:52.000Z</time>
      </trkpt>
      <trkpt lat="44.89946" lon="-0.52516">
        <ele>9.7</ele>
        <time>2021-06-03T14:54:53.000Z</time>
      </trkpt>
      <trkpt lat="44.89941" lon="-0.52517">
        <ele>9.8</ele>
        <time>2021-06-03T14:54:54.000Z</time>
      </trkpt>
      <trkpt lat="44.89936" lon="-0.52518">
        <ele>9.8</ele>
        <time>2021-06-03T14:54:55.000Z</time>
      </trkpt>
      <trkpt lat="44.89932" lon="-0.52519">
        <ele>9.8</ele>
        <time>2021-06-03T14:54:56.000Z</time>
      </trkpt>
      <trkpt lat="44.89927" lon="-0.52521">
        <ele>9.8</ele>
        <time>2021-06-03T14:54:57.000Z</time>
      </trkpt>
      <trkpt lat="44.89922" lon="-0.52522">
        <ele>9.9</ele>
        <time>2021-06-03T14:54:58.000Z</time>
      </trkpt>
      <trkpt lat="44.89918" lon="-0.52524">
        <ele>10</ele>
        <time>2021-06-03T14:54:59.000Z</time>
      </trkpt>
      <trkpt lat="44.89914" lon="-0.52527">
        <ele>10.2</ele>
        <time>2021-06-03T14:55:00.000Z</time>
      </trkpt>
      <trkpt lat="44.8991" lon="-0.5253">
        <ele>10.4</ele>
        <time>2021-06-03T14:55:01.000Z</time>
      </trkpt>
      <trkpt lat="44.89906" lon="-0.52533">
        <ele>10.6</ele>
        <time>2021-06-03T14:55:02.000Z</time>
      </trkpt>
      <trkpt lat="44.89902" lon="-0.52537">
        <ele>10.8</ele>
        <time>2021-06-03T14:55:03.000Z</time>
      </trkpt>
      <trkpt lat="44.89899" lon="-0.52543">
        <ele>10.9</ele>
        <time>2021-06-03T14:55:04.000Z</time>
      </trkpt>
      <trkpt lat="44.89896" lon="-0.52549">
        <ele>10.9</ele>
        <time>2021-06-03T14:55:05.000Z</time>
      </trkpt>
      <trkpt lat="44.89895" lon="-0.52557">
        <ele>10.9</ele>
        <time>2021-06-03T14:55:06.000Z</time>
      </trkpt>
      <trkpt lat="44.89893" lon="-0.52564">
        <ele>10.7</ele>
        <time>2021-06-03T14:55:07.000Z</time>
      </trkpt>
      <trkpt lat="44.89891" lon="-0.52571">
        <ele>10.5</ele>
        <time>2021-06-03T14:55:08.000Z</time>
      </trkpt>
      <trkpt lat="44.89887" lon="-0.52577">
        <ele>10.4</ele>
        <time>2021-06-03T14:55:09.000Z</time>
      </trkpt>
      <trkpt lat="44.89882" lon="-0.5258">
        <ele>10.2</ele>
        <time>2021-06-03T14:55:10.000Z</time>
      </trkpt>
      <trkpt lat="44.89877" lon="-0.52581">
        <ele>10</ele>
        <time>2021-06-03T14:55:11.000Z</time>
      </trkpt>
      <trkpt lat="44.89872" lon="-0.52579">
        <ele>10.1</ele>
        <time>2021-06-03T14:55:12.000Z</time>
      </trkpt>
      <trkpt lat="44.89867" lon="-0.52576">
        <ele>10.2</ele>
        <time>2021-06-03T14:55:13.000Z</time>
      </trkpt>
      <trkpt lat="44.89862" lon="-0.52574">
        <ele>10.2</ele>
        <time>2021-06-03T14:55:14.000Z</time>
      </trkpt>
      <trkpt lat="44.89858" lon="-0.52571">
        <ele>10.1</ele>
        <time>2021-06-03T14:55:15.000Z</time>
      </trkpt>
      <trkpt lat="44.89853" lon="-0.52569">
        <ele>10.1</ele>
        <time>2021-06-03T14:55:16.000Z</time>
      </trkpt>
      <trkpt lat="44.89847" lon="-0.52568">
        <ele>10.6</ele>
        <time>2021-06-03T14:55:17.000Z</time>
      </trkpt>
      <trkpt lat="44.89842" lon="-0.52567">
        <ele>10.9</ele>
        <time>2021-06-03T14:55:18.000Z</time>
      </trkpt>
      <trkpt lat="44.89837" lon="-0.52566">
        <ele>11</ele>
        <time>2021-06-03T14:55:19.000Z</time>
      </trkpt>
      <trkpt lat="44.89832" lon="-0.52566">
        <ele>11</ele>
        <time>2021-06-03T14:55:20.000Z</time>
      </trkpt>
      <trkpt lat="44.89827" lon="-0.52566">
        <ele>11</ele>
        <time>2021-06-03T14:55:21.000Z</time>
      </trkpt>
      <trkpt lat="44.89822" lon="-0.52568">
        <ele>11</ele>
        <time>2021-06-03T14:55:22.000Z</time>
      </trkpt>
      <trkpt lat="44.89818" lon="-0.5257">
        <ele>11</ele>
        <time>2021-06-03T14:55:23.000Z</time>
      </trkpt>
      <trkpt lat="44.89813" lon="-0.52572">
        <ele>11.3</ele>
        <time>2021-06-03T14:55:24.000Z</time>
      </trkpt>
      <trkpt lat="44.89809" lon="-0.52575">
        <ele>11.5</ele>
        <time>2021-06-03T14:55:25.000Z</time>
      </trkpt>
      <trkpt lat="44.89804" lon="-0.52577">
        <ele>11.6</ele>
        <time>2021-06-03T14:55:26.000Z</time>
      </trkpt>
      <trkpt lat="44.898" lon="-0.5258">
        <ele>11.6</ele>
        <time>2021-06-03T14:55:27.000Z</time>
      </trkpt>
      <trkpt lat="44.89795" lon="-0.52582">
        <ele>11.6</ele>
        <time>2021-06-03T14:55:28.000Z</time>
      </trkpt>
      <trkpt lat="44.8979" lon="-0.52584">
        <ele>11.7</ele>
        <time>2021-06-03T14:55:29.000Z</time>
      </trkpt>
      <trkpt lat="44.89786" lon="-0.52586">
        <ele>11.7</ele>
        <time>2021-06-03T14:55:30.000Z</time>
      </trkpt>
      <trkpt lat="44.89781" lon="-0.52588">
        <ele>11.8</ele>
        <time>2021-06-03T14:55:31.000Z</time>
      </trkpt>
      <trkpt lat="44.89776" lon="-0.5259">
        <ele>11.9</ele>
        <time>2021-06-03T14:55:32.000Z</time>
      </trkpt>
      <trkpt lat="44.89771" lon="-0.52591">
        <ele>12.1</ele>
        <time>2021-06-03T14:55:33.000Z</time>
      </trkpt>
      <trkpt lat="44.89766" lon="-0.52593">
        <ele>12.3</ele>
        <time>2021-06-03T14:55:34.000Z</time>
      </trkpt>
      <trkpt lat="44.89761" lon="-0.52594">
        <ele>12.5</ele>
        <time>2021-06-03T14:55:35.000Z</time>
      </trkpt>
      <trkpt lat="44.89756" lon="-0.52596">
        <ele>12.5</ele>
        <time>2021-06-03T14:55:36.000Z</time>
      </trkpt>
      <trkpt lat="44.8975" lon="-0.52596">
        <ele>12.6</ele>
        <time>2021-06-03T14:55:37.000Z</time>
      </trkpt>
      <trkpt lat="44.89745" lon="-0.52597">
        <ele>12.4</ele>
        <time>2021-06-03T14:55:38.000Z</time>
      </trkpt>
      <trkpt lat="44.8974" lon="-0.52598">
        <ele>12.3</ele>
        <time>2021-06-03T14:55:39.000Z</time>
      </trkpt>
      <trkpt lat="44.89735" lon="-0.52598">
        <ele>12.2</ele>
        <time>2021-06-03T14:55:40.000Z</time>
      </trkpt>
      <trkpt lat="44.8973" lon="-0.52599">
        <ele>12</ele>
        <time>2021-06-03T14:55:41.000Z</time>
      </trkpt>
      <trkpt lat="44.89724" lon="-0.52599">
        <ele>11.8</ele>
        <time>2021-06-03T14:55:42.000Z</time>
      </trkpt>
      <trkpt lat="44.89719" lon="-0.526">
        <ele>12.1</ele>
        <time>2021-06-03T14:55:43.000Z</time>
      </trkpt>
      <trkpt lat="44.89714" lon="-0.52601">
        <ele>12.2</ele>
        <time>2021-06-03T14:55:44.000Z</time>
      </trkpt>
      <trkpt lat="44.89709" lon="-0.52602">
        <ele>12.2</ele>
        <time>2021-06-03T14:55:45.000Z</time>
      </trkpt>
      <trkpt lat="44.89704" lon="-0.52602">
        <ele>12.2</ele>
        <time>2021-06-03T14:55:46.000Z</time>
      </trkpt>
      <trkpt lat="44.89698" lon="-0.52603">
        <ele>12.2</ele>
        <time>2021-06-03T14:55:47.000Z</time>
      </trkpt>
      <trkpt lat="44.89693" lon="-0.52603">
        <ele>12.4</ele>
        <time>2021-06-03T14:55:48.000Z</time>
      </trkpt>
      <trkpt lat="44.89688" lon="-0.52604">
        <ele>12.5</ele>
        <time>2021-06-03T14:55:49.000Z</time>
      </trkpt>
      <trkpt lat="44.89683" lon="-0.52605">
        <ele>12.5</ele>
        <time>2021-06-03T14:55:50.000Z</time>
      </trkpt>
      <trkpt lat="44.89677" lon="-0.52605">
        <ele>12.5</ele>
        <time>2021-06-03T14:55:51.000Z</time>
      </trkpt>
      <trkpt lat="44.89672" lon="-0.52606">
        <ele>12.7</ele>
        <time>2021-06-03T14:55:52.000Z</time>
      </trkpt>
      <trkpt lat="44.89667" lon="-0.52606">
        <ele>12.9</ele>
        <time>2021-06-03T14:55:53.000Z</time>
      </trkpt>
      <trkpt lat="44.89661" lon="-0.52607">
        <ele>13</ele>
        <time>2021-06-03T14:55:54.000Z</time>
      </trkpt>
      <trkpt lat="44.89656" lon="-0.52608">
        <ele>13</ele>
        <time>2021-06-03T14:55:55.000Z</time>
      </trkpt>
      <trkpt lat="44.8965" lon="-0.52608">
        <ele>13</ele>
        <time>2021-06-03T14:55:56.000Z</time>
      </trkpt>
      <trkpt lat="44.89645" lon="-0.52609">
        <ele>13</ele>
        <time>2021-06-03T14:55:57.000Z</time>
      </trkpt>
      <trkpt lat="44.89639" lon="-0.52609">
        <ele>13</ele>
        <time>2021-06-03T14:55:58.000Z</time>
      </trkpt>
      <trkpt lat="44.89634" lon="-0.5261">
        <ele>12.9</ele>
        <time>2021-06-03T14:55:59.000Z</time>
      </trkpt>
      <trkpt lat="44.89628" lon="-0.5261">
        <ele>12.8</ele>
        <time>2021-06-03T14:56:00.000Z</time>
      </trkpt>
      <trkpt lat="44.89623" lon="-0.52611">
        <ele>12.7</ele>
        <time>2021-06-03T14:56:01.000Z</time>
      </trkpt>
      <trkpt lat="44.89618" lon="-0.52612">
        <ele>12.5</ele>
        <time>2021-06-03T14:56:02.000Z</time>
      </trkpt>
      <trkpt lat="44.89612" lon="-0.52612">
        <ele>12.3</ele>
        <time>2021-06-03T14:56:03.000Z</time>
      </trkpt>
      <trkpt lat="44.89607" lon="-0.52613">
        <ele>12.4</ele>
        <time>2021-06-03T14:56:04.000Z</time>
      </trkpt>
      <trkpt lat="44.89602" lon="-0.52614">
        <ele>12.4</ele>
        <time>2021-06-03T14:56:05.000Z</time>
      </trkpt>
      <trkpt lat="44.89596" lon="-0.52614">
        <ele>12.4</ele>
        <time>2021-06-03T14:56:06.000Z</time>
      </trkpt>
      <trkpt lat="44.89591" lon="-0.52615">
        <ele>12.3</ele>
        <time>2021-06-03T14:56:07.000Z</time>
      </trkpt>
      <trkpt lat="44.89585" lon="-0.52615">
        <ele>12.3</ele>
        <time>2021-06-03T14:56:08.000Z</time>
      </trkpt>
      <trkpt lat="44.8958" lon="-0.52616">
        <ele>12.3</ele>
        <time>2021-06-03T14:56:09.000Z</time>
      </trkpt>
      <trkpt lat="44.89574" lon="-0.52618">
        <ele>12.3</ele>
        <time>2021-06-03T14:56:10.000Z</time>
      </trkpt>
      <trkpt lat="44.89569" lon="-0.5262">
        <ele>12.4</ele>
        <time>2021-06-03T14:56:11.000Z</time>
      </trkpt>
      <trkpt lat="44.89564" lon="-0.52622">
        <ele>12.4</ele>
        <time>2021-06-03T14:56:12.000Z</time>
      </trkpt>
      <trkpt lat="44.89559" lon="-0.52625">
        <ele>12.4</ele>
        <time>2021-06-03T14:56:13.000Z</time>
      </trkpt>
      <trkpt lat="44.89554" lon="-0.52628">
        <ele>12.4</ele>
        <time>2021-06-03T14:56:14.000Z</time>
      </trkpt>
      <trkpt lat="44.8955" lon="-0.52632">
        <ele>12.3</ele>
        <time>2021-06-03T14:56:15.000Z</time>
      </trkpt>
      <trkpt lat="44.89545" lon="-0.52636">
        <ele>12.4</ele>
        <time>2021-06-03T14:56:16.000Z</time>
      </trkpt>
      <trkpt lat="44.89541" lon="-0.5264">
        <ele>12.4</ele>
        <time>2021-06-03T14:56:17.000Z</time>
      </trkpt>
      <trkpt lat="44.89537" lon="-0.52644">
        <ele>12.4</ele>
        <time>2021-06-03T14:56:18.000Z</time>
      </trkpt>
      <trkpt lat="44.89534" lon="-0.52649">
        <ele>12.3</ele>
        <time>2021-06-03T14:56:19.000Z</time>
      </trkpt>
      <trkpt lat="44.89532" lon="-0.52655">
        <ele>12.3</ele>
        <time>2021-06-03T14:56:20.000Z</time>
      </trkpt>
      <trkpt lat="44.89531" lon="-0.52663">
        <ele>12.3</ele>
        <time>2021-06-03T14:56:21.000Z</time>
      </trkpt>
      <trkpt lat="44.8953" lon="-0.5267">
        <ele>12.4</ele>
        <time>2021-06-03T14:56:22.000Z</time>
      </trkpt>
      <trkpt lat="44.89528" lon="-0.52677">
        <ele>12.5</ele>
        <time>2021-06-03T14:56:23.000Z</time>
      </trkpt>
      <trkpt lat="44.89525" lon="-0.52683">
        <ele>12.5</ele>
        <time>2021-06-03T14:56:24.000Z</time>
      </trkpt>
      <trkpt lat="44.89522" lon="-0.52688">
        <ele>12.6</ele>
        <time>2021-06-03T14:56:25.000Z</time>
      </trkpt>
      <trkpt lat="44.89517" lon="-0.52692">
        <ele>12.3</ele>
        <time>2021-06-03T14:56:26.000Z</time>
      </trkpt>
      <trkpt lat="44.89512" lon="-0.52694">
        <ele>12.2</ele>
        <time>2021-06-03T14:56:27.000Z</time>
      </trkpt>
      <trkpt lat="44.89508" lon="-0.52695">
        <ele>12.1</ele>
        <time>2021-06-03T14:56:28.000Z</time>
      </trkpt>
      <trkpt lat="44.89503" lon="-0.52697">
        <ele>12.1</ele>
        <time>2021-06-03T14:56:29.000Z</time>
      </trkpt>
      <trkpt lat="44.89498" lon="-0.52699">
        <ele>11.9</ele>
        <time>2021-06-03T14:56:30.000Z</time>
      </trkpt>
      <trkpt lat="44.89493" lon="-0.52702">
        <ele>11.8</ele>
        <time>2021-06-03T14:56:31.000Z</time>
      </trkpt>
      <trkpt lat="44.89489" lon="-0.52707">
        <ele>11.7</ele>
        <time>2021-06-03T14:56:32.000Z</time>
      </trkpt>
      <trkpt lat="44.89485" lon="-0.52714">
        <ele>11.6</ele>
        <time>2021-06-03T14:56:33.000Z</time>
      </trkpt>
      <trkpt lat="44.89482" lon="-0.5272">
        <ele>11.5</ele>
        <time>2021-06-03T14:56:34.000Z</time>
      </trkpt>
      <trkpt lat="44.89479" lon="-0.52726">
        <ele>11.5</ele>
        <time>2021-06-03T14:56:35.000Z</time>
      </trkpt>
      <trkpt lat="44.89475" lon="-0.52732">
        <ele>11.4</ele>
        <time>2021-06-03T14:56:36.000Z</time>
      </trkpt>
      <trkpt lat="44.89472" lon="-0.52739">
        <ele>11.4</ele>
        <time>2021-06-03T14:56:37.000Z</time>
      </trkpt>
      <trkpt lat="44.89469" lon="-0.52745">
        <ele>11.4</ele>
        <time>2021-06-03T14:56:38.000Z</time>
      </trkpt>
      <trkpt lat="44.89465" lon="-0.52752">
        <ele>11.4</ele>
        <time>2021-06-03T14:56:39.000Z</time>
      </trkpt>
      <trkpt lat="44.89462" lon="-0.52758">
        <ele>11.4</ele>
        <time>2021-06-03T14:56:40.000Z</time>
      </trkpt>
      <trkpt lat="44.89459" lon="-0.52765">
        <ele>11.4</ele>
        <time>2021-06-03T14:56:41.000Z</time>
      </trkpt>
      <trkpt lat="44.89455" lon="-0.52771">
        <ele>11.3</ele>
        <time>2021-06-03T14:56:42.000Z</time>
      </trkpt>
      <trkpt lat="44.89452" lon="-0.52777">
        <ele>11.3</ele>
        <time>2021-06-03T14:56:43.000Z</time>
      </trkpt>
      <trkpt lat="44.89449" lon="-0.52784">
        <ele>11</ele>
        <time>2021-06-03T14:56:44.000Z</time>
      </trkpt>
      <trkpt lat="44.89446" lon="-0.5279">
        <ele>10.8</ele>
        <time>2021-06-03T14:56:45.000Z</time>
      </trkpt>
      <trkpt lat="44.89442" lon="-0.52797">
        <ele>10.7</ele>
        <time>2021-06-03T14:56:46.000Z</time>
      </trkpt>
      <trkpt lat="44.89439" lon="-0.52803">
        <ele>10.4</ele>
        <time>2021-06-03T14:56:47.000Z</time>
      </trkpt>
      <trkpt lat="44.89435" lon="-0.52809">
        <ele>10.3</ele>
        <time>2021-06-03T14:56:48.000Z</time>
      </trkpt>
      <trkpt lat="44.89432" lon="-0.52816">
        <ele>10</ele>
        <time>2021-06-03T14:56:49.000Z</time>
      </trkpt>
      <trkpt lat="44.89429" lon="-0.52822">
        <ele>9.8</ele>
        <time>2021-06-03T14:56:50.000Z</time>
      </trkpt>
      <trkpt lat="44.89426" lon="-0.52828">
        <ele>9.7</ele>
        <time>2021-06-03T14:56:51.000Z</time>
      </trkpt>
      <trkpt lat="44.89423" lon="-0.52834">
        <ele>9.6</ele>
        <time>2021-06-03T14:56:52.000Z</time>
      </trkpt>
      <trkpt lat="44.8942" lon="-0.52841">
        <ele>9.6</ele>
        <time>2021-06-03T14:56:53.000Z</time>
      </trkpt>
      <trkpt lat="44.89416" lon="-0.52847">
        <ele>9.7</ele>
        <time>2021-06-03T14:56:54.000Z</time>
      </trkpt>
      <trkpt lat="44.89413" lon="-0.52853">
        <ele>9.7</ele>
        <time>2021-06-03T14:56:55.000Z</time>
      </trkpt>
      <trkpt lat="44.8941" lon="-0.52859">
        <ele>9.3</ele>
        <time>2021-06-03T14:56:56.000Z</time>
      </trkpt>
      <trkpt lat="44.89407" lon="-0.52865">
        <ele>8.9</ele>
        <time>2021-06-03T14:56:57.000Z</time>
      </trkpt>
      <trkpt lat="44.89404" lon="-0.52871">
        <ele>8.6</ele>
        <time>2021-06-03T14:56:58.000Z</time>
      </trkpt>
      <trkpt lat="44.89401" lon="-0.52877">
        <ele>8.5</ele>
        <time>2021-06-03T14:56:59.000Z</time>
      </trkpt>
      <trkpt lat="44.89398" lon="-0.52883">
        <ele>8.4</ele>
        <time>2021-06-03T14:57:00.000Z</time>
      </trkpt>
      <trkpt lat="44.89394" lon="-0.52889">
        <ele>8.5</ele>
        <time>2021-06-03T14:57:01.000Z</time>
      </trkpt>
      <trkpt lat="44.89391" lon="-0.52895">
        <ele>8.5</ele>
        <time>2021-06-03T14:57:02.000Z</time>
      </trkpt>
      <trkpt lat="44.89388" lon="-0.52901">
        <ele>8.9</ele>
        <time>2021-06-03T14:57:03.000Z</time>
      </trkpt>
      <trkpt lat="44.89385" lon="-0.52907">
        <ele>9.1</ele>
        <time>2021-06-03T14:57:04.000Z</time>
      </trkpt>
      <trkpt lat="44.89382" lon="-0.52912">
        <ele>9.3</ele>
        <time>2021-06-03T14:57:05.000Z</time>
      </trkpt>
      <trkpt lat="44.89379" lon="-0.52918">
        <ele>9</ele>
        <time>2021-06-03T14:57:06.000Z</time>
      </trkpt>
      <trkpt lat="44.89376" lon="-0.52924">
        <ele>8.8</ele>
        <time>2021-06-03T14:57:07.000Z</time>
      </trkpt>
      <trkpt lat="44.89373" lon="-0.5293">
        <ele>9</ele>
        <time>2021-06-03T14:57:08.000Z</time>
      </trkpt>
      <trkpt lat="44.8937" lon="-0.52936">
        <ele>9.1</ele>
        <time>2021-06-03T14:57:09.000Z</time>
      </trkpt>
      <trkpt lat="44.89367" lon="-0.52942">
        <ele>9.1</ele>
        <time>2021-06-03T14:57:10.000Z</time>
      </trkpt>
      <trkpt lat="44.89364" lon="-0.52947">
        <ele>8.9</ele>
        <time>2021-06-03T14:57:11.000Z</time>
      </trkpt>
      <trkpt lat="44.89361" lon="-0.52953">
        <ele>8.7</ele>
        <time>2021-06-03T14:57:12.000Z</time>
      </trkpt>
      <trkpt lat="44.89358" lon="-0.52958">
        <ele>8.2</ele>
        <time>2021-06-03T14:57:13.000Z</time>
      </trkpt>
      <trkpt lat="44.89356" lon="-0.52964">
        <ele>7.9</ele>
        <time>2021-06-03T14:57:14.000Z</time>
      </trkpt>
      <trkpt lat="44.89354" lon="-0.52971">
        <ele>7.9</ele>
        <time>2021-06-03T14:57:15.000Z</time>
      </trkpt>
      <trkpt lat="44.89354" lon="-0.52978">
        <ele>8</ele>
        <time>2021-06-03T14:57:16.000Z</time>
      </trkpt>
      <trkpt lat="44.89355" lon="-0.52986">
        <ele>8</ele>
        <time>2021-06-03T14:57:17.000Z</time>
      </trkpt>
      <trkpt lat="44.89356" lon="-0.52993">
        <ele>7.8</ele>
        <time>2021-06-03T14:57:18.000Z</time>
      </trkpt>
      <trkpt lat="44.89356" lon="-0.53001">
        <ele>7.6</ele>
        <time>2021-06-03T14:57:19.000Z</time>
      </trkpt>
      <trkpt lat="44.89356" lon="-0.53008">
        <ele>7.5</ele>
        <time>2021-06-03T14:57:20.000Z</time>
      </trkpt>
      <trkpt lat="44.89356" lon="-0.53016">
        <ele>7.3</ele>
        <time>2021-06-03T14:57:21.000Z</time>
      </trkpt>
      <trkpt lat="44.89354" lon="-0.53023">
        <ele>7.2</ele>
        <time>2021-06-03T14:57:22.000Z</time>
      </trkpt>
      <trkpt lat="44.89351" lon="-0.53029">
        <ele>7.4</ele>
        <time>2021-06-03T14:57:23.000Z</time>
      </trkpt>
      <trkpt lat="44.89347" lon="-0.53035">
        <ele>7.5</ele>
        <time>2021-06-03T14:57:24.000Z</time>
      </trkpt>
      <trkpt lat="44.89343" lon="-0.5304">
        <ele>7.8</ele>
        <time>2021-06-03T14:57:25.000Z</time>
      </trkpt>
      <trkpt lat="44.89338" lon="-0.53043">
        <ele>8</ele>
        <time>2021-06-03T14:57:26.000Z</time>
      </trkpt>
      <trkpt lat="44.89333" lon="-0.53045">
        <ele>8</ele>
        <time>2021-06-03T14:57:27.000Z</time>
      </trkpt>
      <trkpt lat="44.89327" lon="-0.53045">
        <ele>8</ele>
        <time>2021-06-03T14:57:28.000Z</time>
      </trkpt>
      <trkpt lat="44.89322" lon="-0.53044">
        <ele>8.1</ele>
        <time>2021-06-03T14:57:29.000Z</time>
      </trkpt>
      <trkpt lat="44.89317" lon="-0.53041">
        <ele>8.1</ele>
        <time>2021-06-03T14:57:30.000Z</time>
      </trkpt>
      <trkpt lat="44.89313" lon="-0.53038">
        <ele>8.1</ele>
        <time>2021-06-03T14:57:31.000Z</time>
      </trkpt>
      <trkpt lat="44.89309" lon="-0.53033">
        <ele>8.1</ele>
        <time>2021-06-03T14:57:32.000Z</time>
      </trkpt>
      <trkpt lat="44.89305" lon="-0.53027">
        <ele>8.2</ele>
        <time>2021-06-03T14:57:33.000Z</time>
      </trkpt>
      <trkpt lat="44.89301" lon="-0.53022">
        <ele>8.1</ele>
        <time>2021-06-03T14:57:34.000Z</time>
      </trkpt>
      <trkpt lat="44.89296" lon="-0.53017">
        <ele>8.1</ele>
        <time>2021-06-03T14:57:35.000Z</time>
      </trkpt>
      <trkpt lat="44.89292" lon="-0.53013">
        <ele>8.1</ele>
        <time>2021-06-03T14:57:36.000Z</time>
      </trkpt>
      <trkpt lat="44.89287" lon="-0.53009">
        <ele>8.1</ele>
        <time>2021-06-03T14:57:37.000Z</time>
      </trkpt>
      <trkpt lat="44.89282" lon="-0.53006">
        <ele>8.1</ele>
        <time>2021-06-03T14:57:38.000Z</time>
      </trkpt>
      <trkpt lat="44.89276" lon="-0.53004">
        <ele>8.2</ele>
        <time>2021-06-03T14:57:39.000Z</time>
      </trkpt>
      <trkpt lat="44.89271" lon="-0.53003">
        <ele>8.3</ele>
        <time>2021-06-03T14:57:40.000Z</time>
      </trkpt>
      <trkpt lat="44.89266" lon="-0.53001">
        <ele>8.4</ele>
        <time>2021-06-03T14:57:41.000Z</time>
      </trkpt>
      <trkpt lat="44.8926" lon="-0.53">
        <ele>8.3</ele>
        <time>2021-06-03T14:57:42.000Z</time>
      </trkpt>
      <trkpt lat="44.89255" lon="-0.52999">
        <ele>8.2</ele>
        <time>2021-06-03T14:57:43.000Z</time>
      </trkpt>
      <trkpt lat="44.89249" lon="-0.52998">
        <ele>8.2</ele>
        <time>2021-06-03T14:57:44.000Z</time>
      </trkpt>
      <trkpt lat="44.89243" lon="-0.52997">
        <ele>8.2</ele>
        <time>2021-06-03T14:57:45.000Z</time>
      </trkpt>
      <trkpt lat="44.89238" lon="-0.52996">
        <ele>8</ele>
        <time>2021-06-03T14:57:46.000Z</time>
      </trkpt>
      <trkpt lat="44.89232" lon="-0.52995">
        <ele>7.9</ele>
        <time>2021-06-03T14:57:47.000Z</time>
      </trkpt>
      <trkpt lat="44.89226" lon="-0.52994">
        <ele>7.8</ele>
        <time>2021-06-03T14:57:48.000Z</time>
      </trkpt>
      <trkpt lat="44.89221" lon="-0.52993">
        <ele>7.7</ele>
        <time>2021-06-03T14:57:49.000Z</time>
      </trkpt>
      <trkpt lat="44.89215" lon="-0.52992">
        <ele>7.7</ele>
        <time>2021-06-03T14:57:50.000Z</time>
      </trkpt>
      <trkpt lat="44.8921" lon="-0.52991">
        <ele>7.7</ele>
        <time>2021-06-03T14:57:51.000Z</time>
      </trkpt>
      <trkpt lat="44.89205" lon="-0.5299">
        <ele>7.7</ele>
        <time>2021-06-03T14:57:52.000Z</time>
      </trkpt>
      <trkpt lat="44.89199" lon="-0.52989">
        <ele>7.8</ele>
        <time>2021-06-03T14:57:53.000Z</time>
      </trkpt>
      <trkpt lat="44.89194" lon="-0.52988">
        <ele>7.8</ele>
        <time>2021-06-03T14:57:54.000Z</time>
      </trkpt>
      <trkpt lat="44.89189" lon="-0.52987">
        <ele>7.9</ele>
        <time>2021-06-03T14:57:55.000Z</time>
      </trkpt>
      <trkpt lat="44.89183" lon="-0.52985">
        <ele>7.4</ele>
        <time>2021-06-03T14:57:56.000Z</time>
      </trkpt>
      <trkpt lat="44.89178" lon="-0.52984">
        <ele>7.1</ele>
        <time>2021-06-03T14:57:57.000Z</time>
      </trkpt>
      <trkpt lat="44.89172" lon="-0.52983">
        <ele>7.3</ele>
        <time>2021-06-03T14:57:58.000Z</time>
      </trkpt>
      <trkpt lat="44.89167" lon="-0.52982">
        <ele>7.5</ele>
        <time>2021-06-03T14:57:59.000Z</time>
      </trkpt>
      <trkpt lat="44.89162" lon="-0.52981">
        <ele>7.6</ele>
        <time>2021-06-03T14:58:00.000Z</time>
      </trkpt>
      <trkpt lat="44.89156" lon="-0.5298">
        <ele>7.3</ele>
        <time>2021-06-03T14:58:01.000Z</time>
      </trkpt>
      <trkpt lat="44.89151" lon="-0.52979">
        <ele>7</ele>
        <time>2021-06-03T14:58:02.000Z</time>
      </trkpt>
      <trkpt lat="44.89145" lon="-0.52978">
        <ele>7.1</ele>
        <time>2021-06-03T14:58:03.000Z</time>
      </trkpt>
      <trkpt lat="44.89139" lon="-0.52977">
        <ele>7.2</ele>
        <time>2021-06-03T14:58:04.000Z</time>
      </trkpt>
      <trkpt lat="44.89134" lon="-0.52976">
        <ele>7.2</ele>
        <time>2021-06-03T14:58:05.000Z</time>
      </trkpt>
      <trkpt lat="44.89128" lon="-0.52976">
        <ele>7.2</ele>
        <time>2021-06-03T14:58:06.000Z</time>
      </trkpt>
      <trkpt lat="44.89123" lon="-0.52975">
        <ele>7.2</ele>
        <time>2021-06-03T14:58:07.000Z</time>
      </trkpt>
      <trkpt lat="44.89117" lon="-0.52974">
        <ele>7.3</ele>
        <time>2021-06-03T14:58:08.000Z</time>
      </trkpt>
      <trkpt lat="44.89112" lon="-0.52973">
        <ele>7.3</ele>
        <time>2021-06-03T14:58:09.000Z</time>
      </trkpt>
      <trkpt lat="44.89106" lon="-0.52973">
        <ele>7.5</ele>
        <time>2021-06-03T14:58:10.000Z</time>
      </trkpt>
      <trkpt lat="44.89101" lon="-0.52972">
        <ele>7.7</ele>
        <time>2021-06-03T14:58:11.000Z</time>
      </trkpt>
      <trkpt lat="44.89096" lon="-0.52972">
        <ele>7.3</ele>
        <time>2021-06-03T14:58:12.000Z</time>
      </trkpt>
      <trkpt lat="44.89091" lon="-0.52972">
        <ele>6.9</ele>
        <time>2021-06-03T14:58:13.000Z</time>
      </trkpt>
      <trkpt lat="44.89085" lon="-0.52971">
        <ele>6.7</ele>
        <time>2021-06-03T14:58:14.000Z</time>
      </trkpt>
      <trkpt lat="44.8908" lon="-0.52971">
        <ele>6.9</ele>
        <time>2021-06-03T14:58:15.000Z</time>
      </trkpt>
      <trkpt lat="44.89074" lon="-0.5297">
        <ele>7</ele>
        <time>2021-06-03T14:58:16.000Z</time>
      </trkpt>
      <trkpt lat="44.89069" lon="-0.5297">
        <ele>7.2</ele>
        <time>2021-06-03T14:58:17.000Z</time>
      </trkpt>
      <trkpt lat="44.89063" lon="-0.52969">
        <ele>7.3</ele>
        <time>2021-06-03T14:58:18.000Z</time>
      </trkpt>
      <trkpt lat="44.89058" lon="-0.52969">
        <ele>7.4</ele>
        <time>2021-06-03T14:58:19.000Z</time>
      </trkpt>
      <trkpt lat="44.89053" lon="-0.52969">
        <ele>7.6</ele>
        <time>2021-06-03T14:58:20.000Z</time>
      </trkpt>
      <trkpt lat="44.89047" lon="-0.52968">
        <ele>7.8</ele>
        <time>2021-06-03T14:58:21.000Z</time>
      </trkpt>
      <trkpt lat="44.89042" lon="-0.52968">
        <ele>7.8</ele>
        <time>2021-06-03T14:58:22.000Z</time>
      </trkpt>
      <trkpt lat="44.89036" lon="-0.52967">
        <ele>7.7</ele>
        <time>2021-06-03T14:58:23.000Z</time>
      </trkpt>
      <trkpt lat="44.89031" lon="-0.52967">
        <ele>7.7</ele>
        <time>2021-06-03T14:58:24.000Z</time>
      </trkpt>
      <trkpt lat="44.89026" lon="-0.52966">
        <ele>7.7</ele>
        <time>2021-06-03T14:58:25.000Z</time>
      </trkpt>
      <trkpt lat="44.89021" lon="-0.52966">
        <ele>7.7</ele>
        <time>2021-06-03T14:58:26.000Z</time>
      </trkpt>
      <trkpt lat="44.89015" lon="-0.52965">
        <ele>7.6</ele>
        <time>2021-06-03T14:58:27.000Z</time>
      </trkpt>
      <trkpt lat="44.8901" lon="-0.52965">
        <ele>7.5</ele>
        <time>2021-06-03T14:58:28.000Z</time>
      </trkpt>
      <trkpt lat="44.89005" lon="-0.52964">
        <ele>7.3</ele>
        <time>2021-06-03T14:58:29.000Z</time>
      </trkpt>
      <trkpt lat="44.88999" lon="-0.52964">
        <ele>7.1</ele>
        <time>2021-06-03T14:58:30.000Z</time>
      </trkpt>
      <trkpt lat="44.88994" lon="-0.52963">
        <ele>7.1</ele>
        <time>2021-06-03T14:58:31.000Z</time>
      </trkpt>
      <trkpt lat="44.88989" lon="-0.52963">
        <ele>7</ele>
        <time>2021-06-03T14:58:32.000Z</time>
      </trkpt>
      <trkpt lat="44.88984" lon="-0.52963">
        <ele>7</ele>
        <time>2021-06-03T14:58:33.000Z</time>
      </trkpt>
      <trkpt lat="44.88979" lon="-0.52962">
        <ele>7.2</ele>
        <time>2021-06-03T14:58:34.000Z</time>
      </trkpt>
      <trkpt lat="44.88974" lon="-0.52962">
        <ele>7.4</ele>
        <time>2021-06-03T14:58:35.000Z</time>
      </trkpt>
      <trkpt lat="44.88969" lon="-0.52963">
        <ele>7.5</ele>
        <time>2021-06-03T14:58:36.000Z</time>
      </trkpt>
      <trkpt lat="44.88963" lon="-0.52963">
        <ele>7.6</ele>
        <time>2021-06-03T14:58:37.000Z</time>
      </trkpt>
      <trkpt lat="44.88958" lon="-0.52963">
        <ele>7.7</ele>
        <time>2021-06-03T14:58:38.000Z</time>
      </trkpt>
      <trkpt lat="44.88953" lon="-0.52964">
        <ele>7.6</ele>
        <time>2021-06-03T14:58:39.000Z</time>
      </trkpt>
      <trkpt lat="44.88948" lon="-0.52965">
        <ele>7.6</ele>
        <time>2021-06-03T14:58:40.000Z</time>
      </trkpt>
      <trkpt lat="44.88944" lon="-0.52965">
        <ele>7.7</ele>
        <time>2021-06-03T14:58:41.000Z</time>
      </trkpt>
      <trkpt lat="44.88939" lon="-0.52966">
        <ele>7.8</ele>
        <time>2021-06-03T14:58:42.000Z</time>
      </trkpt>
      <trkpt lat="44.88934" lon="-0.52967">
        <ele>8</ele>
        <time>2021-06-03T14:58:43.000Z</time>
      </trkpt>
      <trkpt lat="44.88929" lon="-0.52967">
        <ele>8.2</ele>
        <time>2021-06-03T14:58:44.000Z</time>
      </trkpt>
      <trkpt lat="44.88925" lon="-0.52968">
        <ele>8.4</ele>
        <time>2021-06-03T14:58:45.000Z</time>
      </trkpt>
      <trkpt lat="44.8892" lon="-0.5297">
        <ele>8.3</ele>
        <time>2021-06-03T14:58:46.000Z</time>
      </trkpt>
      <trkpt lat="44.88915" lon="-0.52972">
        <ele>8.2</ele>
        <time>2021-06-03T14:58:47.000Z</time>
      </trkpt>
      <trkpt lat="44.88909" lon="-0.5298">
        <ele>7.8</ele>
        <time>2021-06-03T14:58:49.000Z</time>
      </trkpt>
      <trkpt lat="44.88904" lon="-0.5299">
        <ele>8</ele>
        <time>2021-06-03T14:58:51.000Z</time>
      </trkpt>
      <trkpt lat="44.88897" lon="-0.52999">
        <ele>7.5</ele>
        <time>2021-06-03T14:58:53.000Z</time>
      </trkpt>
      <trkpt lat="44.88893" lon="-0.53002">
        <ele>7.1</ele>
        <time>2021-06-03T14:58:54.000Z</time>
      </trkpt>
      <trkpt lat="44.88889" lon="-0.53005">
        <ele>7.3</ele>
        <time>2021-06-03T14:58:55.000Z</time>
      </trkpt>
      <trkpt lat="44.88885" lon="-0.53007">
        <ele>7.4</ele>
        <time>2021-06-03T14:58:56.000Z</time>
      </trkpt>
      <trkpt lat="44.8888" lon="-0.53008">
        <ele>7.5</ele>
        <time>2021-06-03T14:58:57.000Z</time>
      </trkpt>
      <trkpt lat="44.88871" lon="-0.53009">
        <ele>7.7</ele>
        <time>2021-06-03T14:58:59.000Z</time>
      </trkpt>
      <trkpt lat="44.88863" lon="-0.53005">
        <ele>8.1</ele>
        <time>2021-06-03T14:59:01.000Z</time>
      </trkpt>
      <trkpt lat="44.88859" lon="-0.53001">
        <ele>7.9</ele>
        <time>2021-06-03T14:59:02.000Z</time>
      </trkpt>
      <trkpt lat="44.88855" lon="-0.52997">
        <ele>7.8</ele>
        <time>2021-06-03T14:59:03.000Z</time>
      </trkpt>
      <trkpt lat="44.8885" lon="-0.52987">
        <ele>7.8</ele>
        <time>2021-06-03T14:59:05.000Z</time>
      </trkpt>
      <trkpt lat="44.88845" lon="-0.52978">
        <ele>8.1</ele>
        <time>2021-06-03T14:59:07.000Z</time>
      </trkpt>
      <trkpt lat="44.88841" lon="-0.52968">
        <ele>8.5</ele>
        <time>2021-06-03T14:59:09.000Z</time>
      </trkpt>
      <trkpt lat="44.88838" lon="-0.52959">
        <ele>9</ele>
        <time>2021-06-03T14:59:11.000Z</time>
      </trkpt>
      <trkpt lat="44.88835" lon="-0.52951">
        <ele>8.3</ele>
        <time>2021-06-03T14:59:13.000Z</time>
      </trkpt>
      <trkpt lat="44.8883" lon="-0.52946">
        <ele>7.7</ele>
        <time>2021-06-03T14:59:15.000Z</time>
      </trkpt>
      <trkpt lat="44.88822" lon="-0.52945">
        <ele>7.7</ele>
        <time>2021-06-03T14:59:17.000Z</time>
      </trkpt>
      <trkpt lat="44.88817" lon="-0.52944">
        <ele>7.7</ele>
        <time>2021-06-03T14:59:18.000Z</time>
      </trkpt>
      <trkpt lat="44.88813" lon="-0.52944">
        <ele>7.8</ele>
        <time>2021-06-03T14:59:19.000Z</time>
      </trkpt>
      <trkpt lat="44.88808" lon="-0.52943">
        <ele>7.8</ele>
        <time>2021-06-03T14:59:20.000Z</time>
      </trkpt>
      <trkpt lat="44.88803" lon="-0.52942">
        <ele>7.7</ele>
        <time>2021-06-03T14:59:21.000Z</time>
      </trkpt>
      <trkpt lat="44.88798" lon="-0.52941">
        <ele>7.5</ele>
        <time>2021-06-03T14:59:22.000Z</time>
      </trkpt>
      <trkpt lat="44.88793" lon="-0.52941">
        <ele>7.4</ele>
        <time>2021-06-03T14:59:23.000Z</time>
      </trkpt>
      <trkpt lat="44.88789" lon="-0.52941">
        <ele>7.4</ele>
        <time>2021-06-03T14:59:24.000Z</time>
      </trkpt>
      <trkpt lat="44.88784" lon="-0.52941">
        <ele>7.4</ele>
        <time>2021-06-03T14:59:25.000Z</time>
      </trkpt>
      <trkpt lat="44.88779" lon="-0.52941">
        <ele>7.3</ele>
        <time>2021-06-03T14:59:26.000Z</time>
      </trkpt>
      <trkpt lat="44.88775" lon="-0.52941">
        <ele>7.2</ele>
        <time>2021-06-03T14:59:27.000Z</time>
      </trkpt>
      <trkpt lat="44.8877" lon="-0.52942">
        <ele>7.5</ele>
        <time>2021-06-03T14:59:28.000Z</time>
      </trkpt>
      <trkpt lat="44.88765" lon="-0.52942">
        <ele>7.7</ele>
        <time>2021-06-03T14:59:29.000Z</time>
      </trkpt>
      <trkpt lat="44.8876" lon="-0.52943">
        <ele>7.8</ele>
        <time>2021-06-03T14:59:30.000Z</time>
      </trkpt>
      <trkpt lat="44.88752" lon="-0.52944">
        <ele>7.6</ele>
        <time>2021-06-03T14:59:32.000Z</time>
      </trkpt>
      <trkpt lat="44.88747" lon="-0.52945">
        <ele>7.6</ele>
        <time>2021-06-03T14:59:33.000Z</time>
      </trkpt>
      <trkpt lat="44.88743" lon="-0.52945">
        <ele>7.7</ele>
        <time>2021-06-03T14:59:34.000Z</time>
      </trkpt>
      <trkpt lat="44.88738" lon="-0.52946">
        <ele>7.7</ele>
        <time>2021-06-03T14:59:35.000Z</time>
      </trkpt>
      <trkpt lat="44.88733" lon="-0.52947">
        <ele>7.6</ele>
        <time>2021-06-03T14:59:36.000Z</time>
      </trkpt>
      <trkpt lat="44.88729" lon="-0.52948">
        <ele>7.4</ele>
        <time>2021-06-03T14:59:37.000Z</time>
      </trkpt>
      <trkpt lat="44.88724" lon="-0.52949">
        <ele>7.4</ele>
        <time>2021-06-03T14:59:38.000Z</time>
      </trkpt>
      <trkpt lat="44.88719" lon="-0.52949">
        <ele>7.4</ele>
        <time>2021-06-03T14:59:39.000Z</time>
      </trkpt>
      <trkpt lat="44.88715" lon="-0.5295">
        <ele>7.1</ele>
        <time>2021-06-03T14:59:40.000Z</time>
      </trkpt>
      <trkpt lat="44.8871" lon="-0.5295">
        <ele>7</ele>
        <time>2021-06-03T14:59:41.000Z</time>
      </trkpt>
      <trkpt lat="44.88706" lon="-0.5295">
        <ele>6.8</ele>
        <time>2021-06-03T14:59:42.000Z</time>
      </trkpt>
      <trkpt lat="44.88701" lon="-0.52951">
        <ele>6.8</ele>
        <time>2021-06-03T14:59:43.000Z</time>
      </trkpt>
      <trkpt lat="44.88696" lon="-0.52951">
        <ele>6.7</ele>
        <time>2021-06-03T14:59:44.000Z</time>
      </trkpt>
      <trkpt lat="44.88691" lon="-0.52952">
        <ele>6.7</ele>
        <time>2021-06-03T14:59:45.000Z</time>
      </trkpt>
      <trkpt lat="44.88687" lon="-0.52952">
        <ele>6.7</ele>
        <time>2021-06-03T14:59:46.000Z</time>
      </trkpt>
      <trkpt lat="44.88682" lon="-0.52953">
        <ele>7</ele>
        <time>2021-06-03T14:59:47.000Z</time>
      </trkpt>
      <trkpt lat="44.88677" lon="-0.52954">
        <ele>7.2</ele>
        <time>2021-06-03T14:59:48.000Z</time>
      </trkpt>
      <trkpt lat="44.88673" lon="-0.52955">
        <ele>7.4</ele>
        <time>2021-06-03T14:59:49.000Z</time>
      </trkpt>
      <trkpt lat="44.88668" lon="-0.52956">
        <ele>7.2</ele>
        <time>2021-06-03T14:59:50.000Z</time>
      </trkpt>
      <trkpt lat="44.88663" lon="-0.52957">
        <ele>7</ele>
        <time>2021-06-03T14:59:51.000Z</time>
      </trkpt>
      <trkpt lat="44.88658" lon="-0.52958">
        <ele>7.1</ele>
        <time>2021-06-03T14:59:52.000Z</time>
      </trkpt>
      <trkpt lat="44.88653" lon="-0.52959">
        <ele>7.2</ele>
        <time>2021-06-03T14:59:53.000Z</time>
      </trkpt>
      <trkpt lat="44.88648" lon="-0.5296">
        <ele>7.4</ele>
        <time>2021-06-03T14:59:54.000Z</time>
      </trkpt>
      <trkpt lat="44.88643" lon="-0.5296">
        <ele>7.5</ele>
        <time>2021-06-03T14:59:55.000Z</time>
      </trkpt>
      <trkpt lat="44.88639" lon="-0.52961">
        <ele>7.6</ele>
        <time>2021-06-03T14:59:56.000Z</time>
      </trkpt>
      <trkpt lat="44.88634" lon="-0.52962">
        <ele>7.3</ele>
        <time>2021-06-03T14:59:57.000Z</time>
      </trkpt>
      <trkpt lat="44.88629" lon="-0.52963">
        <ele>7.1</ele>
        <time>2021-06-03T14:59:58.000Z</time>
      </trkpt>
      <trkpt lat="44.88624" lon="-0.52964">
        <ele>7</ele>
        <time>2021-06-03T14:59:59.000Z</time>
      </trkpt>
      <trkpt lat="44.8862" lon="-0.52965">
        <ele>7</ele>
        <time>2021-06-03T15:00:00.000Z</time>
      </trkpt>
      <trkpt lat="44.88615" lon="-0.52966">
        <ele>7</ele>
        <time>2021-06-03T15:00:01.000Z</time>
      </trkpt>
      <trkpt lat="44.8861" lon="-0.52967">
        <ele>6.8</ele>
        <time>2021-06-03T15:00:02.000Z</time>
      </trkpt>
      <trkpt lat="44.88602" lon="-0.52969">
        <ele>6.9</ele>
        <time>2021-06-03T15:00:04.000Z</time>
      </trkpt>
      <trkpt lat="44.88594" lon="-0.5297">
        <ele>7.3</ele>
        <time>2021-06-03T15:00:06.000Z</time>
      </trkpt>
      <trkpt lat="44.88586" lon="-0.52972">
        <ele>7.4</ele>
        <time>2021-06-03T15:00:08.000Z</time>
      </trkpt>
      <trkpt lat="44.88578" lon="-0.52974">
        <ele>7.5</ele>
        <time>2021-06-03T15:00:10.000Z</time>
      </trkpt>
      <trkpt lat="44.8857" lon="-0.52975">
        <ele>7.4</ele>
        <time>2021-06-03T15:00:12.000Z</time>
      </trkpt>
      <trkpt lat="44.88564" lon="-0.52976">
        <ele>7.4</ele>
        <time>2021-06-03T15:00:14.000Z</time>
      </trkpt>
      <trkpt lat="44.88556" lon="-0.52979">
        <ele>7.6</ele>
        <time>2021-06-03T15:00:17.000Z</time>
      </trkpt>
      <trkpt lat="44.88548" lon="-0.52983">
        <ele>7.4</ele>
        <time>2021-06-03T15:00:21.000Z</time>
      </trkpt>
      <trkpt lat="44.88541" lon="-0.52981">
        <ele>7.1</ele>
        <time>2021-06-03T15:01:06.000Z</time>
      </trkpt>
      <trkpt lat="44.88539" lon="-0.52981">
        <ele>7.1</ele>
        <time>2021-06-03T15:01:07.000Z</time>
      </trkpt>
      <trkpt lat="44.88525" lon="-0.52986">
        <ele>7.5</ele>
        <time>2021-06-03T15:01:11.000Z</time>
      </trkpt>
      <trkpt lat="44.88517" lon="-0.52989">
        <ele>7.8</ele>
        <time>2021-06-03T15:01:13.000Z</time>
      </trkpt>
      <trkpt lat="44.88513" lon="-0.5299">
        <ele>8.1</ele>
        <time>2021-06-03T15:01:14.000Z</time>
      </trkpt>
      <trkpt lat="44.88508" lon="-0.52992">
        <ele>7.8</ele>
        <time>2021-06-03T15:01:15.000Z</time>
      </trkpt>
      <trkpt lat="44.88503" lon="-0.52994">
        <ele>7.6</ele>
        <time>2021-06-03T15:01:16.000Z</time>
      </trkpt>
      <trkpt lat="44.88498" lon="-0.52996">
        <ele>7.5</ele>
        <time>2021-06-03T15:01:17.000Z</time>
      </trkpt>
      <trkpt lat="44.88493" lon="-0.52998">
        <ele>7.5</ele>
        <time>2021-06-03T15:01:18.000Z</time>
      </trkpt>
      <trkpt lat="44.88488" lon="-0.53">
        <ele>7.5</ele>
        <time>2021-06-03T15:01:19.000Z</time>
      </trkpt>
      <trkpt lat="44.88483" lon="-0.53002">
        <ele>7.6</ele>
        <time>2021-06-03T15:01:20.000Z</time>
      </trkpt>
      <trkpt lat="44.88478" lon="-0.53003">
        <ele>7.8</ele>
        <time>2021-06-03T15:01:21.000Z</time>
      </trkpt>
      <trkpt lat="44.88473" lon="-0.53005">
        <ele>7.7</ele>
        <time>2021-06-03T15:01:22.000Z</time>
      </trkpt>
      <trkpt lat="44.88469" lon="-0.53006">
        <ele>7.7</ele>
        <time>2021-06-03T15:01:23.000Z</time>
      </trkpt>
      <trkpt lat="44.88464" lon="-0.53007">
        <ele>7.6</ele>
        <time>2021-06-03T15:01:24.000Z</time>
      </trkpt>
      <trkpt lat="44.8846" lon="-0.53009">
        <ele>7.9</ele>
        <time>2021-06-03T15:01:25.000Z</time>
      </trkpt>
      <trkpt lat="44.88455" lon="-0.53011">
        <ele>8.1</ele>
        <time>2021-06-03T15:01:26.000Z</time>
      </trkpt>
      <trkpt lat="44.88451" lon="-0.53012">
        <ele>8</ele>
        <time>2021-06-03T15:01:27.000Z</time>
      </trkpt>
      <trkpt lat="44.88446" lon="-0.53014">
        <ele>7.9</ele>
        <time>2021-06-03T15:01:28.000Z</time>
      </trkpt>
      <trkpt lat="44.88442" lon="-0.53015">
        <ele>8.3</ele>
        <time>2021-06-03T15:01:29.000Z</time>
      </trkpt>
      <trkpt lat="44.88437" lon="-0.53016">
        <ele>8.6</ele>
        <time>2021-06-03T15:01:30.000Z</time>
      </trkpt>
      <trkpt lat="44.88433" lon="-0.53018">
        <ele>8.8</ele>
        <time>2021-06-03T15:01:31.000Z</time>
      </trkpt>
      <trkpt lat="44.88428" lon="-0.53019">
        <ele>8.4</ele>
        <time>2021-06-03T15:01:32.000Z</time>
      </trkpt>
      <trkpt lat="44.88424" lon="-0.53021">
        <ele>8.1</ele>
        <time>2021-06-03T15:01:33.000Z</time>
      </trkpt>
      <trkpt lat="44.88419" lon="-0.53022">
        <ele>8</ele>
        <time>2021-06-03T15:01:34.000Z</time>
      </trkpt>
      <trkpt lat="44.88414" lon="-0.53024">
        <ele>7.8</ele>
        <time>2021-06-03T15:01:35.000Z</time>
      </trkpt>
      <trkpt lat="44.88409" lon="-0.53026">
        <ele>7.8</ele>
        <time>2021-06-03T15:01:36.000Z</time>
      </trkpt>
      <trkpt lat="44.88401" lon="-0.53029">
        <ele>7.1</ele>
        <time>2021-06-03T15:01:38.000Z</time>
      </trkpt>
      <trkpt lat="44.88392" lon="-0.53032">
        <ele>7</ele>
        <time>2021-06-03T15:01:40.000Z</time>
      </trkpt>
      <trkpt lat="44.88384" lon="-0.53036">
        <ele>7.6</ele>
        <time>2021-06-03T15:01:42.000Z</time>
      </trkpt>
      <trkpt lat="44.88376" lon="-0.53039">
        <ele>7.8</ele>
        <time>2021-06-03T15:01:44.000Z</time>
      </trkpt>
      <trkpt lat="44.88371" lon="-0.5304">
        <ele>7.8</ele>
        <time>2021-06-03T15:01:45.000Z</time>
      </trkpt>
      <trkpt lat="44.88366" lon="-0.53042">
        <ele>7.8</ele>
        <time>2021-06-03T15:01:46.000Z</time>
      </trkpt>
      <trkpt lat="44.88362" lon="-0.53044">
        <ele>7.8</ele>
        <time>2021-06-03T15:01:47.000Z</time>
      </trkpt>
      <trkpt lat="44.88357" lon="-0.53047">
        <ele>8.1</ele>
        <time>2021-06-03T15:01:48.000Z</time>
      </trkpt>
      <trkpt lat="44.88352" lon="-0.5305">
        <ele>8.2</ele>
        <time>2021-06-03T15:01:49.000Z</time>
      </trkpt>
      <trkpt lat="44.88347" lon="-0.53053">
        <ele>8.3</ele>
        <time>2021-06-03T15:01:50.000Z</time>
      </trkpt>
      <trkpt lat="44.88342" lon="-0.53055">
        <ele>8.4</ele>
        <time>2021-06-03T15:01:51.000Z</time>
      </trkpt>
      <trkpt lat="44.88336" lon="-0.53058">
        <ele>8.5</ele>
        <time>2021-06-03T15:01:52.000Z</time>
      </trkpt>
      <trkpt lat="44.88331" lon="-0.5306">
        <ele>8</ele>
        <time>2021-06-03T15:01:53.000Z</time>
      </trkpt>
      <trkpt lat="44.88326" lon="-0.53062">
        <ele>7.7</ele>
        <time>2021-06-03T15:01:54.000Z</time>
      </trkpt>
      <trkpt lat="44.8832" lon="-0.53065">
        <ele>7.5</ele>
        <time>2021-06-03T15:01:55.000Z</time>
      </trkpt>
      <trkpt lat="44.88314" lon="-0.53068">
        <ele>7.9</ele>
        <time>2021-06-03T15:01:56.000Z</time>
      </trkpt>
      <trkpt lat="44.88309" lon="-0.5307">
        <ele>8.3</ele>
        <time>2021-06-03T15:01:57.000Z</time>
      </trkpt>
      <trkpt lat="44.88304" lon="-0.53072">
        <ele>8.5</ele>
        <time>2021-06-03T15:01:58.000Z</time>
      </trkpt>
      <trkpt lat="44.88299" lon="-0.53074">
        <ele>8.7</ele>
        <time>2021-06-03T15:01:59.000Z</time>
      </trkpt>
      <trkpt lat="44.88294" lon="-0.53075">
        <ele>8.7</ele>
        <time>2021-06-03T15:02:00.000Z</time>
      </trkpt>
      <trkpt lat="44.88289" lon="-0.53077">
        <ele>8.7</ele>
        <time>2021-06-03T15:02:01.000Z</time>
      </trkpt>
      <trkpt lat="44.88284" lon="-0.53079">
        <ele>8.7</ele>
        <time>2021-06-03T15:02:02.000Z</time>
      </trkpt>
      <trkpt lat="44.8828" lon="-0.53081">
        <ele>8.8</ele>
        <time>2021-06-03T15:02:03.000Z</time>
      </trkpt>
      <trkpt lat="44.88275" lon="-0.53083">
        <ele>8.9</ele>
        <time>2021-06-03T15:02:04.000Z</time>
      </trkpt>
      <trkpt lat="44.88271" lon="-0.53085">
        <ele>8.7</ele>
        <time>2021-06-03T15:02:05.000Z</time>
      </trkpt>
      <trkpt lat="44.88266" lon="-0.53088">
        <ele>8.5</ele>
        <time>2021-06-03T15:02:06.000Z</time>
      </trkpt>
      <trkpt lat="44.88259" lon="-0.53091">
        <ele>8.2</ele>
        <time>2021-06-03T15:02:08.000Z</time>
      </trkpt>
      <trkpt lat="44.88253" lon="-0.53094">
        <ele>8.2</ele>
        <time>2021-06-03T15:02:09.000Z</time>
      </trkpt>
      <trkpt lat="44.88248" lon="-0.53096">
        <ele>8.7</ele>
        <time>2021-06-03T15:02:10.000Z</time>
      </trkpt>
      <trkpt lat="44.88243" lon="-0.53098">
        <ele>9.1</ele>
        <time>2021-06-03T15:02:11.000Z</time>
      </trkpt>
      <trkpt lat="44.88238" lon="-0.531">
        <ele>9.1</ele>
        <time>2021-06-03T15:02:12.000Z</time>
      </trkpt>
      <trkpt lat="44.88234" lon="-0.53102">
        <ele>9.2</ele>
        <time>2021-06-03T15:02:13.000Z</time>
      </trkpt>
      <trkpt lat="44.88229" lon="-0.53104">
        <ele>9.2</ele>
        <time>2021-06-03T15:02:14.000Z</time>
      </trkpt>
      <trkpt lat="44.88225" lon="-0.53106">
        <ele>9.1</ele>
        <time>2021-06-03T15:02:15.000Z</time>
      </trkpt>
      <trkpt lat="44.8822" lon="-0.53108">
        <ele>8.9</ele>
        <time>2021-06-03T15:02:16.000Z</time>
      </trkpt>
      <trkpt lat="44.88212" lon="-0.53111">
        <ele>8.6</ele>
        <time>2021-06-03T15:02:18.000Z</time>
      </trkpt>
      <trkpt lat="44.88204" lon="-0.53116">
        <ele>9.3</ele>
        <time>2021-06-03T15:02:20.000Z</time>
      </trkpt>
      <trkpt lat="44.88196" lon="-0.5312">
        <ele>9.4</ele>
        <time>2021-06-03T15:02:22.000Z</time>
      </trkpt>
      <trkpt lat="44.8819" lon="-0.53125">
        <ele>9.4</ele>
        <time>2021-06-03T15:02:24.000Z</time>
      </trkpt>
      <trkpt lat="44.88183" lon="-0.5313">
        <ele>9.6</ele>
        <time>2021-06-03T15:02:26.000Z</time>
      </trkpt>
      <trkpt lat="44.88178" lon="-0.53136">
        <ele>9.6</ele>
        <time>2021-06-03T15:02:28.000Z</time>
      </trkpt>
      <trkpt lat="44.88178" lon="-0.53144">
        <ele>9.5</ele>
        <time>2021-06-03T15:02:31.000Z</time>
      </trkpt>
      <trkpt lat="44.88178" lon="-0.53154">
        <ele>9.8</ele>
        <time>2021-06-03T15:02:33.000Z</time>
      </trkpt>
      <trkpt lat="44.88177" lon="-0.53161">
        <ele>9.5</ele>
        <time>2021-06-03T15:02:34.000Z</time>
      </trkpt>
      <trkpt lat="44.88175" lon="-0.53168">
        <ele>9.2</ele>
        <time>2021-06-03T15:02:35.000Z</time>
      </trkpt>
      <trkpt lat="44.88172" lon="-0.53175">
        <ele>9.2</ele>
        <time>2021-06-03T15:02:36.000Z</time>
      </trkpt>
      <trkpt lat="44.88168" lon="-0.5318">
        <ele>9.2</ele>
        <time>2021-06-03T15:02:37.000Z</time>
      </trkpt>
      <trkpt lat="44.88163" lon="-0.53185">
        <ele>9.2</ele>
        <time>2021-06-03T15:02:38.000Z</time>
      </trkpt>
      <trkpt lat="44.88158" lon="-0.53189">
        <ele>9.2</ele>
        <time>2021-06-03T15:02:39.000Z</time>
      </trkpt>
      <trkpt lat="44.88154" lon="-0.53193">
        <ele>9.2</ele>
        <time>2021-06-03T15:02:40.000Z</time>
      </trkpt>
      <trkpt lat="44.8815" lon="-0.53199">
        <ele>8.8</ele>
        <time>2021-06-03T15:02:41.000Z</time>
      </trkpt>
      <trkpt lat="44.88146" lon="-0.53204">
        <ele>8.5</ele>
        <time>2021-06-03T15:02:42.000Z</time>
      </trkpt>
      <trkpt lat="44.88142" lon="-0.53206">
        <ele>8.6</ele>
        <time>2021-06-03T15:02:43.000Z</time>
      </trkpt>
      <trkpt lat="44.88137" lon="-0.53206">
        <ele>8.7</ele>
        <time>2021-06-03T15:02:44.000Z</time>
      </trkpt>
      <trkpt lat="44.88132" lon="-0.53203">
        <ele>8.6</ele>
        <time>2021-06-03T15:02:45.000Z</time>
      </trkpt>
      <trkpt lat="44.88128" lon="-0.53199">
        <ele>8.5</ele>
        <time>2021-06-03T15:02:46.000Z</time>
      </trkpt>
      <trkpt lat="44.88124" lon="-0.53194">
        <ele>8.4</ele>
        <time>2021-06-03T15:02:47.000Z</time>
      </trkpt>
      <trkpt lat="44.8812" lon="-0.5319">
        <ele>8.2</ele>
        <time>2021-06-03T15:02:48.000Z</time>
      </trkpt>
      <trkpt lat="44.88116" lon="-0.53186">
        <ele>8.1</ele>
        <time>2021-06-03T15:02:49.000Z</time>
      </trkpt>
      <trkpt lat="44.88111" lon="-0.53184">
        <ele>7.9</ele>
        <time>2021-06-03T15:02:50.000Z</time>
      </trkpt>
      <trkpt lat="44.88103" lon="-0.53186">
        <ele>7.8</ele>
        <time>2021-06-03T15:02:52.000Z</time>
      </trkpt>
      <trkpt lat="44.88098" lon="-0.53188">
        <ele>7.8</ele>
        <time>2021-06-03T15:02:53.000Z</time>
      </trkpt>
      <trkpt lat="44.8809" lon="-0.53192">
        <ele>8</ele>
        <time>2021-06-03T15:02:55.000Z</time>
      </trkpt>
      <trkpt lat="44.88085" lon="-0.53197">
        <ele>8</ele>
        <time>2021-06-03T15:02:57.000Z</time>
      </trkpt>
      <trkpt lat="44.88078" lon="-0.53203">
        <ele>7.8</ele>
        <time>2021-06-03T15:02:59.000Z</time>
      </trkpt>
      <trkpt lat="44.88074" lon="-0.53206">
        <ele>8.4</ele>
        <time>2021-06-03T15:03:00.000Z</time>
      </trkpt>
      <trkpt lat="44.88069" lon="-0.5321">
        <ele>8.8</ele>
        <time>2021-06-03T15:03:01.000Z</time>
      </trkpt>
      <trkpt lat="44.88064" lon="-0.53213">
        <ele>8.7</ele>
        <time>2021-06-03T15:03:02.000Z</time>
      </trkpt>
      <trkpt lat="44.88059" lon="-0.53217">
        <ele>8.6</ele>
        <time>2021-06-03T15:03:03.000Z</time>
      </trkpt>
      <trkpt lat="44.88054" lon="-0.5322">
        <ele>8.8</ele>
        <time>2021-06-03T15:03:04.000Z</time>
      </trkpt>
      <trkpt lat="44.88049" lon="-0.53224">
        <ele>8.9</ele>
        <time>2021-06-03T15:03:05.000Z</time>
      </trkpt>
      <trkpt lat="44.88045" lon="-0.53227">
        <ele>9</ele>
        <time>2021-06-03T15:03:06.000Z</time>
      </trkpt>
      <trkpt lat="44.88037" lon="-0.53232">
        <ele>9.7</ele>
        <time>2021-06-03T15:03:08.000Z</time>
      </trkpt>
      <trkpt lat="44.88029" lon="-0.53237">
        <ele>9.4</ele>
        <time>2021-06-03T15:03:10.000Z</time>
      </trkpt>
      <trkpt lat="44.88025" lon="-0.53239">
        <ele>9.3</ele>
        <time>2021-06-03T15:03:11.000Z</time>
      </trkpt>
      <trkpt lat="44.8802" lon="-0.53242">
        <ele>9.3</ele>
        <time>2021-06-03T15:03:12.000Z</time>
      </trkpt>
      <trkpt lat="44.88015" lon="-0.53245">
        <ele>9.3</ele>
        <time>2021-06-03T15:03:13.000Z</time>
      </trkpt>
      <trkpt lat="44.88011" lon="-0.53248">
        <ele>9.4</ele>
        <time>2021-06-03T15:03:14.000Z</time>
      </trkpt>
      <trkpt lat="44.88007" lon="-0.53251">
        <ele>9.4</ele>
        <time>2021-06-03T15:03:15.000Z</time>
      </trkpt>
      <trkpt lat="44.88002" lon="-0.53254">
        <ele>9.3</ele>
        <time>2021-06-03T15:03:16.000Z</time>
      </trkpt>
      <trkpt lat="44.87996" lon="-0.53263">
        <ele>9.1</ele>
        <time>2021-06-03T15:03:18.000Z</time>
      </trkpt>
      <trkpt lat="44.87997" lon="-0.53275">
        <ele>9.4</ele>
        <time>2021-06-03T15:03:20.000Z</time>
      </trkpt>
      <trkpt lat="44.87998" lon="-0.53281">
        <ele>9.5</ele>
        <time>2021-06-03T15:03:21.000Z</time>
      </trkpt>
      <trkpt lat="44.87998" lon="-0.53289">
        <ele>9.6</ele>
        <time>2021-06-03T15:03:22.000Z</time>
      </trkpt>
      <trkpt lat="44.87996" lon="-0.53301">
        <ele>9.6</ele>
        <time>2021-06-03T15:03:24.000Z</time>
      </trkpt>
      <trkpt lat="44.87993" lon="-0.53309">
        <ele>9.1</ele>
        <time>2021-06-03T15:03:26.000Z</time>
      </trkpt>
      <trkpt lat="44.87991" lon="-0.5332">
        <ele>8.6</ele>
        <time>2021-06-03T15:03:29.000Z</time>
      </trkpt>
      <trkpt lat="44.87986" lon="-0.53325">
        <ele>8.2</ele>
        <time>2021-06-03T15:03:31.000Z</time>
      </trkpt>
      <trkpt lat="44.87978" lon="-0.53328">
        <ele>8.2</ele>
        <time>2021-06-03T15:03:33.000Z</time>
      </trkpt>
      <trkpt lat="44.87971" lon="-0.5333">
        <ele>8.7</ele>
        <time>2021-06-03T15:03:35.000Z</time>
      </trkpt>
      <trkpt lat="44.87964" lon="-0.53332">
        <ele>9.4</ele>
        <time>2021-06-03T15:03:37.000Z</time>
      </trkpt>
      <trkpt lat="44.87957" lon="-0.53335">
        <ele>9.8</ele>
        <time>2021-06-03T15:03:39.000Z</time>
      </trkpt>
      <trkpt lat="44.8795" lon="-0.53338">
        <ele>9.5</ele>
        <time>2021-06-03T15:03:41.000Z</time>
      </trkpt>
      <trkpt lat="44.87943" lon="-0.53339">
        <ele>9</ele>
        <time>2021-06-03T15:03:43.000Z</time>
      </trkpt>
      <trkpt lat="44.87936" lon="-0.53342">
        <ele>8.9</ele>
        <time>2021-06-03T15:03:45.000Z</time>
      </trkpt>
      <trkpt lat="44.87929" lon="-0.53346">
        <ele>8.8</ele>
        <time>2021-06-03T15:03:47.000Z</time>
      </trkpt>
      <trkpt lat="44.87922" lon="-0.53349">
        <ele>8.7</ele>
        <time>2021-06-03T15:03:49.000Z</time>
      </trkpt>
      <trkpt lat="44.87913" lon="-0.53352">
        <ele>8.7</ele>
        <time>2021-06-03T15:03:51.000Z</time>
      </trkpt>
      <trkpt lat="44.87905" lon="-0.53356">
        <ele>8.4</ele>
        <time>2021-06-03T15:03:53.000Z</time>
      </trkpt>
      <trkpt lat="44.87897" lon="-0.53359">
        <ele>8.6</ele>
        <time>2021-06-03T15:03:55.000Z</time>
      </trkpt>
      <trkpt lat="44.87888" lon="-0.53362">
        <ele>8.5</ele>
        <time>2021-06-03T15:03:57.000Z</time>
      </trkpt>
      <trkpt lat="44.8788" lon="-0.53366">
        <ele>8.2</ele>
        <time>2021-06-03T15:03:59.000Z</time>
      </trkpt>
      <trkpt lat="44.87872" lon="-0.53371">
        <ele>8.5</ele>
        <time>2021-06-03T15:04:01.000Z</time>
      </trkpt>
      <trkpt lat="44.87865" lon="-0.53376">
        <ele>9</ele>
        <time>2021-06-03T15:04:03.000Z</time>
      </trkpt>
      <trkpt lat="44.87858" lon="-0.53381">
        <ele>9</ele>
        <time>2021-06-03T15:04:05.000Z</time>
      </trkpt>
      <trkpt lat="44.8785" lon="-0.53387">
        <ele>8.8</ele>
        <time>2021-06-03T15:04:08.000Z</time>
      </trkpt>
      <trkpt lat="44.87845" lon="-0.53392">
        <ele>8.9</ele>
        <time>2021-06-03T15:04:10.000Z</time>
      </trkpt>
      <trkpt lat="44.87837" lon="-0.53397">
        <ele>9.3</ele>
        <time>2021-06-03T15:04:12.000Z</time>
      </trkpt>
      <trkpt lat="44.87833" lon="-0.53399">
        <ele>9.3</ele>
        <time>2021-06-03T15:04:13.000Z</time>
      </trkpt>
      <trkpt lat="44.87825" lon="-0.53403">
        <ele>9.3</ele>
        <time>2021-06-03T15:04:15.000Z</time>
      </trkpt>
      <trkpt lat="44.87817" lon="-0.53407">
        <ele>9.3</ele>
        <time>2021-06-03T15:04:17.000Z</time>
      </trkpt>
      <trkpt lat="44.87808" lon="-0.53409">
        <ele>9.3</ele>
        <time>2021-06-03T15:04:19.000Z</time>
      </trkpt>
      <trkpt lat="44.87804" lon="-0.53412">
        <ele>9.3</ele>
        <time>2021-06-03T15:04:20.000Z</time>
      </trkpt>
      <trkpt lat="44.878" lon="-0.53414">
        <ele>9.4</ele>
        <time>2021-06-03T15:04:21.000Z</time>
      </trkpt>
      <trkpt lat="44.87796" lon="-0.53417">
        <ele>9.4</ele>
        <time>2021-06-03T15:04:22.000Z</time>
      </trkpt>
      <trkpt lat="44.87792" lon="-0.5342">
        <ele>9.4</ele>
        <time>2021-06-03T15:04:23.000Z</time>
      </trkpt>
      <trkpt lat="44.87787" lon="-0.53421">
        <ele>9.5</ele>
        <time>2021-06-03T15:04:24.000Z</time>
      </trkpt>
      <trkpt lat="44.87783" lon="-0.53423">
        <ele>9.3</ele>
        <time>2021-06-03T15:04:25.000Z</time>
      </trkpt>
      <trkpt lat="44.87778" lon="-0.53425">
        <ele>9.3</ele>
        <time>2021-06-03T15:04:26.000Z</time>
      </trkpt>
      <trkpt lat="44.87774" lon="-0.53427">
        <ele>9.5</ele>
        <time>2021-06-03T15:04:27.000Z</time>
      </trkpt>
      <trkpt lat="44.87769" lon="-0.53429">
        <ele>9.7</ele>
        <time>2021-06-03T15:04:28.000Z</time>
      </trkpt>
      <trkpt lat="44.87761" lon="-0.53433">
        <ele>9.6</ele>
        <time>2021-06-03T15:04:30.000Z</time>
      </trkpt>
      <trkpt lat="44.87757" lon="-0.53434">
        <ele>9.4</ele>
        <time>2021-06-03T15:04:31.000Z</time>
      </trkpt>
      <trkpt lat="44.87752" lon="-0.53435">
        <ele>9.3</ele>
        <time>2021-06-03T15:04:32.000Z</time>
      </trkpt>
      <trkpt lat="44.87747" lon="-0.53436">
        <ele>9.3</ele>
        <time>2021-06-03T15:04:33.000Z</time>
      </trkpt>
      <trkpt lat="44.87742" lon="-0.53437">
        <ele>9.3</ele>
        <time>2021-06-03T15:04:34.000Z</time>
      </trkpt>
      <trkpt lat="44.87738" lon="-0.53439">
        <ele>9.3</ele>
        <time>2021-06-03T15:04:35.000Z</time>
      </trkpt>
      <trkpt lat="44.87733" lon="-0.53441">
        <ele>9.4</ele>
        <time>2021-06-03T15:04:36.000Z</time>
      </trkpt>
      <trkpt lat="44.87726" lon="-0.53445">
        <ele>9.8</ele>
        <time>2021-06-03T15:04:38.000Z</time>
      </trkpt>
      <trkpt lat="44.87719" lon="-0.5345">
        <ele>9.6</ele>
        <time>2021-06-03T15:04:40.000Z</time>
      </trkpt>
      <trkpt lat="44.87712" lon="-0.53455">
        <ele>10.2</ele>
        <time>2021-06-03T15:04:42.000Z</time>
      </trkpt>
      <trkpt lat="44.87704" lon="-0.53461">
        <ele>10.6</ele>
        <time>2021-06-03T15:04:44.000Z</time>
      </trkpt>
      <trkpt lat="44.87697" lon="-0.53467">
        <ele>10.2</ele>
        <time>2021-06-03T15:04:46.000Z</time>
      </trkpt>
      <trkpt lat="44.8769" lon="-0.53474">
        <ele>9.7</ele>
        <time>2021-06-03T15:04:48.000Z</time>
      </trkpt>
      <trkpt lat="44.87687" lon="-0.53478">
        <ele>9.8</ele>
        <time>2021-06-03T15:04:49.000Z</time>
      </trkpt>
      <trkpt lat="44.87679" lon="-0.53484">
        <ele>10.1</ele>
        <time>2021-06-03T15:04:51.000Z</time>
      </trkpt>
      <trkpt lat="44.87671" lon="-0.5349">
        <ele>10.4</ele>
        <time>2021-06-03T15:04:53.000Z</time>
      </trkpt>
      <trkpt lat="44.87667" lon="-0.53493">
        <ele>10.7</ele>
        <time>2021-06-03T15:04:54.000Z</time>
      </trkpt>
      <trkpt lat="44.87663" lon="-0.53496">
        <ele>10.9</ele>
        <time>2021-06-03T15:04:55.000Z</time>
      </trkpt>
      <trkpt lat="44.87658" lon="-0.53499">
        <ele>10.8</ele>
        <time>2021-06-03T15:04:56.000Z</time>
      </trkpt>
      <trkpt lat="44.87654" lon="-0.53502">
        <ele>10.6</ele>
        <time>2021-06-03T15:04:57.000Z</time>
      </trkpt>
      <trkpt lat="44.8765" lon="-0.53506">
        <ele>10.6</ele>
        <time>2021-06-03T15:04:58.000Z</time>
      </trkpt>
      <trkpt lat="44.87646" lon="-0.53509">
        <ele>10.5</ele>
        <time>2021-06-03T15:04:59.000Z</time>
      </trkpt>
      <trkpt lat="44.87641" lon="-0.53512">
        <ele>10.5</ele>
        <time>2021-06-03T15:05:00.000Z</time>
      </trkpt>
      <trkpt lat="44.87637" lon="-0.53515">
        <ele>10.2</ele>
        <time>2021-06-03T15:05:01.000Z</time>
      </trkpt>
      <trkpt lat="44.87632" lon="-0.53518">
        <ele>9.9</ele>
        <time>2021-06-03T15:05:02.000Z</time>
      </trkpt>
      <trkpt lat="44.87628" lon="-0.53521">
        <ele>9.9</ele>
        <time>2021-06-03T15:05:03.000Z</time>
      </trkpt>
      <trkpt lat="44.87623" lon="-0.53524">
        <ele>9.9</ele>
        <time>2021-06-03T15:05:04.000Z</time>
      </trkpt>
      <trkpt lat="44.87615" lon="-0.53529">
        <ele>10.4</ele>
        <time>2021-06-03T15:05:06.000Z</time>
      </trkpt>
      <trkpt lat="44.87611" lon="-0.53532">
        <ele>10.6</ele>
        <time>2021-06-03T15:05:07.000Z</time>
      </trkpt>
      <trkpt lat="44.87607" lon="-0.53536">
        <ele>10.7</ele>
        <time>2021-06-03T15:05:08.000Z</time>
      </trkpt>
      <trkpt lat="44.87602" lon="-0.53539">
        <ele>10.8</ele>
        <time>2021-06-03T15:05:09.000Z</time>
      </trkpt>
      <trkpt lat="44.87598" lon="-0.53542">
        <ele>11</ele>
        <time>2021-06-03T15:05:10.000Z</time>
      </trkpt>
      <trkpt lat="44.87593" lon="-0.53545">
        <ele>11.2</ele>
        <time>2021-06-03T15:05:11.000Z</time>
      </trkpt>
      <trkpt lat="44.87589" lon="-0.53548">
        <ele>11.3</ele>
        <time>2021-06-03T15:05:12.000Z</time>
      </trkpt>
      <trkpt lat="44.87585" lon="-0.53551">
        <ele>11.4</ele>
        <time>2021-06-03T15:05:13.000Z</time>
      </trkpt>
      <trkpt lat="44.8758" lon="-0.53554">
        <ele>11.4</ele>
        <time>2021-06-03T15:05:14.000Z</time>
      </trkpt>
      <trkpt lat="44.87576" lon="-0.53557">
        <ele>11.5</ele>
        <time>2021-06-03T15:05:15.000Z</time>
      </trkpt>
      <trkpt lat="44.87568" lon="-0.53563">
        <ele>11.6</ele>
        <time>2021-06-03T15:05:17.000Z</time>
      </trkpt>
      <trkpt lat="44.87563" lon="-0.53567">
        <ele>11.7</ele>
        <time>2021-06-03T15:05:18.000Z</time>
      </trkpt>
      <trkpt lat="44.87559" lon="-0.5357">
        <ele>11.7</ele>
        <time>2021-06-03T15:05:19.000Z</time>
      </trkpt>
      <trkpt lat="44.87554" lon="-0.53573">
        <ele>11.5</ele>
        <time>2021-06-03T15:05:20.000Z</time>
      </trkpt>
      <trkpt lat="44.8755" lon="-0.53576">
        <ele>11.4</ele>
        <time>2021-06-03T15:05:21.000Z</time>
      </trkpt>
      <trkpt lat="44.87546" lon="-0.53579">
        <ele>11.3</ele>
        <time>2021-06-03T15:05:22.000Z</time>
      </trkpt>
      <trkpt lat="44.87541" lon="-0.53583">
        <ele>11.2</ele>
        <time>2021-06-03T15:05:23.000Z</time>
      </trkpt>
      <trkpt lat="44.87536" lon="-0.53587">
        <ele>11</ele>
        <time>2021-06-03T15:05:24.000Z</time>
      </trkpt>
      <trkpt lat="44.87531" lon="-0.53591">
        <ele>10.8</ele>
        <time>2021-06-03T15:05:25.000Z</time>
      </trkpt>
      <trkpt lat="44.87525" lon="-0.53595">
        <ele>10.7</ele>
        <time>2021-06-03T15:05:26.000Z</time>
      </trkpt>
      <trkpt lat="44.8752" lon="-0.53599">
        <ele>11</ele>
        <time>2021-06-03T15:05:27.000Z</time>
      </trkpt>
      <trkpt lat="44.87515" lon="-0.53603">
        <ele>11.3</ele>
        <time>2021-06-03T15:05:28.000Z</time>
      </trkpt>
      <trkpt lat="44.87509" lon="-0.53607">
        <ele>11.3</ele>
        <time>2021-06-03T15:05:29.000Z</time>
      </trkpt>
      <trkpt lat="44.87504" lon="-0.53611">
        <ele>11.4</ele>
        <time>2021-06-03T15:05:30.000Z</time>
      </trkpt>
      <trkpt lat="44.87498" lon="-0.53615">
        <ele>11.4</ele>
        <time>2021-06-03T15:05:31.000Z</time>
      </trkpt>
      <trkpt lat="44.87493" lon="-0.53619">
        <ele>11.4</ele>
        <time>2021-06-03T15:05:32.000Z</time>
      </trkpt>
      <trkpt lat="44.87487" lon="-0.53623">
        <ele>11.3</ele>
        <time>2021-06-03T15:05:33.000Z</time>
      </trkpt>
      <trkpt lat="44.87482" lon="-0.53627">
        <ele>11.1</ele>
        <time>2021-06-03T15:05:34.000Z</time>
      </trkpt>
      <trkpt lat="44.87477" lon="-0.53631">
        <ele>11</ele>
        <time>2021-06-03T15:05:35.000Z</time>
      </trkpt>
      <trkpt lat="44.87471" lon="-0.53635">
        <ele>10.8</ele>
        <time>2021-06-03T15:05:36.000Z</time>
      </trkpt>
      <trkpt lat="44.87466" lon="-0.53639">
        <ele>10.6</ele>
        <time>2021-06-03T15:05:37.000Z</time>
      </trkpt>
      <trkpt lat="44.87461" lon="-0.53643">
        <ele>10.5</ele>
        <time>2021-06-03T15:05:38.000Z</time>
      </trkpt>
      <trkpt lat="44.87455" lon="-0.53647">
        <ele>11</ele>
        <time>2021-06-03T15:05:39.000Z</time>
      </trkpt>
      <trkpt lat="44.8745" lon="-0.53651">
        <ele>11.3</ele>
        <time>2021-06-03T15:05:40.000Z</time>
      </trkpt>
      <trkpt lat="44.87445" lon="-0.53654">
        <ele>11.4</ele>
        <time>2021-06-03T15:05:41.000Z</time>
      </trkpt>
      <trkpt lat="44.87439" lon="-0.53658">
        <ele>11.4</ele>
        <time>2021-06-03T15:05:42.000Z</time>
      </trkpt>
      <trkpt lat="44.87434" lon="-0.53662">
        <ele>11.2</ele>
        <time>2021-06-03T15:05:43.000Z</time>
      </trkpt>
      <trkpt lat="44.87429" lon="-0.53665">
        <ele>11</ele>
        <time>2021-06-03T15:05:44.000Z</time>
      </trkpt>
      <trkpt lat="44.87423" lon="-0.53669">
        <ele>10.9</ele>
        <time>2021-06-03T15:05:45.000Z</time>
      </trkpt>
      <trkpt lat="44.87418" lon="-0.53672">
        <ele>11</ele>
        <time>2021-06-03T15:05:46.000Z</time>
      </trkpt>
      <trkpt lat="44.87412" lon="-0.53676">
        <ele>11.1</ele>
        <time>2021-06-03T15:05:47.000Z</time>
      </trkpt>
      <trkpt lat="44.87407" lon="-0.5368">
        <ele>11.2</ele>
        <time>2021-06-03T15:05:48.000Z</time>
      </trkpt>
      <trkpt lat="44.87402" lon="-0.53683">
        <ele>11.4</ele>
        <time>2021-06-03T15:05:49.000Z</time>
      </trkpt>
      <trkpt lat="44.87396" lon="-0.53686">
        <ele>11.5</ele>
        <time>2021-06-03T15:05:50.000Z</time>
      </trkpt>
      <trkpt lat="44.87391" lon="-0.53689">
        <ele>11.3</ele>
        <time>2021-06-03T15:05:51.000Z</time>
      </trkpt>
      <trkpt lat="44.87385" lon="-0.53692">
        <ele>11.2</ele>
        <time>2021-06-03T15:05:52.000Z</time>
      </trkpt>
      <trkpt lat="44.8738" lon="-0.53695">
        <ele>11.3</ele>
        <time>2021-06-03T15:05:53.000Z</time>
      </trkpt>
      <trkpt lat="44.87374" lon="-0.53698">
        <ele>11.4</ele>
        <time>2021-06-03T15:05:54.000Z</time>
      </trkpt>
      <trkpt lat="44.87369" lon="-0.53701">
        <ele>11.5</ele>
        <time>2021-06-03T15:05:55.000Z</time>
      </trkpt>
      <trkpt lat="44.87364" lon="-0.53704">
        <ele>11.6</ele>
        <time>2021-06-03T15:05:56.000Z</time>
      </trkpt>
      <trkpt lat="44.87359" lon="-0.53707">
        <ele>11.7</ele>
        <time>2021-06-03T15:05:57.000Z</time>
      </trkpt>
      <trkpt lat="44.87354" lon="-0.53709">
        <ele>11.9</ele>
        <time>2021-06-03T15:05:58.000Z</time>
      </trkpt>
      <trkpt lat="44.87349" lon="-0.53712">
        <ele>12</ele>
        <time>2021-06-03T15:05:59.000Z</time>
      </trkpt>
      <trkpt lat="44.87343" lon="-0.53715">
        <ele>11.8</ele>
        <time>2021-06-03T15:06:00.000Z</time>
      </trkpt>
      <trkpt lat="44.87338" lon="-0.53717">
        <ele>11.7</ele>
        <time>2021-06-03T15:06:01.000Z</time>
      </trkpt>
      <trkpt lat="44.87333" lon="-0.53719">
        <ele>11.5</ele>
        <time>2021-06-03T15:06:02.000Z</time>
      </trkpt>
      <trkpt lat="44.87328" lon="-0.53722">
        <ele>11.4</ele>
        <time>2021-06-03T15:06:03.000Z</time>
      </trkpt>
      <trkpt lat="44.87323" lon="-0.53724">
        <ele>11.3</ele>
        <time>2021-06-03T15:06:04.000Z</time>
      </trkpt>
      <trkpt lat="44.87318" lon="-0.53726">
        <ele>11.6</ele>
        <time>2021-06-03T15:06:05.000Z</time>
      </trkpt>
      <trkpt lat="44.87313" lon="-0.53728">
        <ele>11.7</ele>
        <time>2021-06-03T15:06:06.000Z</time>
      </trkpt>
      <trkpt lat="44.87308" lon="-0.5373">
        <ele>11.8</ele>
        <time>2021-06-03T15:06:07.000Z</time>
      </trkpt>
      <trkpt lat="44.87303" lon="-0.53731">
        <ele>11.8</ele>
        <time>2021-06-03T15:06:08.000Z</time>
      </trkpt>
      <trkpt lat="44.87298" lon="-0.53733">
        <ele>11.8</ele>
        <time>2021-06-03T15:06:09.000Z</time>
      </trkpt>
      <trkpt lat="44.87292" lon="-0.53735">
        <ele>11.9</ele>
        <time>2021-06-03T15:06:10.000Z</time>
      </trkpt>
      <trkpt lat="44.87287" lon="-0.53736">
        <ele>11.9</ele>
        <time>2021-06-03T15:06:11.000Z</time>
      </trkpt>
      <trkpt lat="44.87282" lon="-0.53737">
        <ele>11.7</ele>
        <time>2021-06-03T15:06:12.000Z</time>
      </trkpt>
      <trkpt lat="44.87277" lon="-0.53739">
        <ele>11.6</ele>
        <time>2021-06-03T15:06:13.000Z</time>
      </trkpt>
      <trkpt lat="44.87272" lon="-0.5374">
        <ele>11.6</ele>
        <time>2021-06-03T15:06:14.000Z</time>
      </trkpt>
      <trkpt lat="44.87266" lon="-0.53741">
        <ele>11.7</ele>
        <time>2021-06-03T15:06:15.000Z</time>
      </trkpt>
      <trkpt lat="44.87261" lon="-0.53742">
        <ele>11.7</ele>
        <time>2021-06-03T15:06:16.000Z</time>
      </trkpt>
      <trkpt lat="44.87256" lon="-0.53743">
        <ele>11.8</ele>
        <time>2021-06-03T15:06:17.000Z</time>
      </trkpt>
      <trkpt lat="44.87251" lon="-0.53745">
        <ele>11.9</ele>
        <time>2021-06-03T15:06:18.000Z</time>
      </trkpt>
      <trkpt lat="44.87246" lon="-0.53746">
        <ele>12</ele>
        <time>2021-06-03T15:06:19.000Z</time>
      </trkpt>
      <trkpt lat="44.8724" lon="-0.53747">
        <ele>12</ele>
        <time>2021-06-03T15:06:20.000Z</time>
      </trkpt>
      <trkpt lat="44.87235" lon="-0.53749">
        <ele>12.2</ele>
        <time>2021-06-03T15:06:21.000Z</time>
      </trkpt>
      <trkpt lat="44.8723" lon="-0.5375">
        <ele>12.4</ele>
        <time>2021-06-03T15:06:22.000Z</time>
      </trkpt>
      <trkpt lat="44.87224" lon="-0.53751">
        <ele>12.5</ele>
        <time>2021-06-03T15:06:23.000Z</time>
      </trkpt>
      <trkpt lat="44.87219" lon="-0.53752">
        <ele>12.6</ele>
        <time>2021-06-03T15:06:24.000Z</time>
      </trkpt>
      <trkpt lat="44.87213" lon="-0.53753">
        <ele>12.7</ele>
        <time>2021-06-03T15:06:25.000Z</time>
      </trkpt>
      <trkpt lat="44.87207" lon="-0.53754">
        <ele>12.6</ele>
        <time>2021-06-03T15:06:26.000Z</time>
      </trkpt>
      <trkpt lat="44.87202" lon="-0.53755">
        <ele>12.6</ele>
        <time>2021-06-03T15:06:27.000Z</time>
      </trkpt>
      <trkpt lat="44.87196" lon="-0.53757">
        <ele>12.4</ele>
        <time>2021-06-03T15:06:28.000Z</time>
      </trkpt>
      <trkpt lat="44.87191" lon="-0.53758">
        <ele>12.3</ele>
        <time>2021-06-03T15:06:29.000Z</time>
      </trkpt>
      <trkpt lat="44.87185" lon="-0.53759">
        <ele>12.3</ele>
        <time>2021-06-03T15:06:30.000Z</time>
      </trkpt>
      <trkpt lat="44.8718" lon="-0.5376">
        <ele>12.1</ele>
        <time>2021-06-03T15:06:31.000Z</time>
      </trkpt>
      <trkpt lat="44.87174" lon="-0.53761">
        <ele>12</ele>
        <time>2021-06-03T15:06:32.000Z</time>
      </trkpt>
      <trkpt lat="44.87168" lon="-0.53762">
        <ele>11.8</ele>
        <time>2021-06-03T15:06:33.000Z</time>
      </trkpt>
      <trkpt lat="44.87162" lon="-0.53763">
        <ele>11.7</ele>
        <time>2021-06-03T15:06:34.000Z</time>
      </trkpt>
      <trkpt lat="44.87156" lon="-0.53764">
        <ele>11.6</ele>
        <time>2021-06-03T15:06:35.000Z</time>
      </trkpt>
      <trkpt lat="44.8715" lon="-0.53764">
        <ele>11.3</ele>
        <time>2021-06-03T15:06:36.000Z</time>
      </trkpt>
      <trkpt lat="44.87145" lon="-0.53764">
        <ele>11</ele>
        <time>2021-06-03T15:06:37.000Z</time>
      </trkpt>
      <trkpt lat="44.87139" lon="-0.53764">
        <ele>11.2</ele>
        <time>2021-06-03T15:06:38.000Z</time>
      </trkpt>
      <trkpt lat="44.87133" lon="-0.53765">
        <ele>11.3</ele>
        <time>2021-06-03T15:06:39.000Z</time>
      </trkpt>
      <trkpt lat="44.87128" lon="-0.53765">
        <ele>11.2</ele>
        <time>2021-06-03T15:06:40.000Z</time>
      </trkpt>
      <trkpt lat="44.87122" lon="-0.53765">
        <ele>11.1</ele>
        <time>2021-06-03T15:06:41.000Z</time>
      </trkpt>
      <trkpt lat="44.87117" lon="-0.53765">
        <ele>11</ele>
        <time>2021-06-03T15:06:42.000Z</time>
      </trkpt>
      <trkpt lat="44.87111" lon="-0.53765">
        <ele>10.9</ele>
        <time>2021-06-03T15:06:43.000Z</time>
      </trkpt>
      <trkpt lat="44.87106" lon="-0.53765">
        <ele>10.7</ele>
        <time>2021-06-03T15:06:44.000Z</time>
      </trkpt>
      <trkpt lat="44.87101" lon="-0.53765">
        <ele>10.8</ele>
        <time>2021-06-03T15:06:45.000Z</time>
      </trkpt>
      <trkpt lat="44.87095" lon="-0.53764">
        <ele>10.8</ele>
        <time>2021-06-03T15:06:46.000Z</time>
      </trkpt>
      <trkpt lat="44.8709" lon="-0.53764">
        <ele>10.6</ele>
        <time>2021-06-03T15:06:47.000Z</time>
      </trkpt>
      <trkpt lat="44.87084" lon="-0.53764">
        <ele>10.6</ele>
        <time>2021-06-03T15:06:48.000Z</time>
      </trkpt>
      <trkpt lat="44.87079" lon="-0.53764">
        <ele>10.5</ele>
        <time>2021-06-03T15:06:49.000Z</time>
      </trkpt>
      <trkpt lat="44.87074" lon="-0.53765">
        <ele>10.5</ele>
        <time>2021-06-03T15:06:50.000Z</time>
      </trkpt>
      <trkpt lat="44.87068" lon="-0.53765">
        <ele>10.5</ele>
        <time>2021-06-03T15:06:51.000Z</time>
      </trkpt>
      <trkpt lat="44.87063" lon="-0.53765">
        <ele>10.5</ele>
        <time>2021-06-03T15:06:52.000Z</time>
      </trkpt>
      <trkpt lat="44.87057" lon="-0.53765">
        <ele>10.5</ele>
        <time>2021-06-03T15:06:53.000Z</time>
      </trkpt>
      <trkpt lat="44.87052" lon="-0.53764">
        <ele>10.5</ele>
        <time>2021-06-03T15:06:54.000Z</time>
      </trkpt>
      <trkpt lat="44.87047" lon="-0.53763">
        <ele>10.6</ele>
        <time>2021-06-03T15:06:55.000Z</time>
      </trkpt>
      <trkpt lat="44.87042" lon="-0.53761">
        <ele>10.7</ele>
        <time>2021-06-03T15:06:56.000Z</time>
      </trkpt>
      <trkpt lat="44.87037" lon="-0.5376">
        <ele>10.4</ele>
        <time>2021-06-03T15:06:57.000Z</time>
      </trkpt>
      <trkpt lat="44.87031" lon="-0.53759">
        <ele>10.2</ele>
        <time>2021-06-03T15:06:58.000Z</time>
      </trkpt>
      <trkpt lat="44.87026" lon="-0.53759">
        <ele>10.4</ele>
        <time>2021-06-03T15:06:59.000Z</time>
      </trkpt>
      <trkpt lat="44.87021" lon="-0.53758">
        <ele>10.5</ele>
        <time>2021-06-03T15:07:00.000Z</time>
      </trkpt>
      <trkpt lat="44.87016" lon="-0.53758">
        <ele>10.6</ele>
        <time>2021-06-03T15:07:01.000Z</time>
      </trkpt>
      <trkpt lat="44.8701" lon="-0.53758">
        <ele>10.5</ele>
        <time>2021-06-03T15:07:02.000Z</time>
      </trkpt>
      <trkpt lat="44.87005" lon="-0.53758">
        <ele>10.4</ele>
        <time>2021-06-03T15:07:03.000Z</time>
      </trkpt>
      <trkpt lat="44.86999" lon="-0.53759">
        <ele>10.5</ele>
        <time>2021-06-03T15:07:04.000Z</time>
      </trkpt>
      <trkpt lat="44.86994" lon="-0.5376">
        <ele>10.6</ele>
        <time>2021-06-03T15:07:05.000Z</time>
      </trkpt>
      <trkpt lat="44.86989" lon="-0.53761">
        <ele>10.5</ele>
        <time>2021-06-03T15:07:06.000Z</time>
      </trkpt>
      <trkpt lat="44.86983" lon="-0.53762">
        <ele>10.4</ele>
        <time>2021-06-03T15:07:07.000Z</time>
      </trkpt>
      <trkpt lat="44.86978" lon="-0.53763">
        <ele>10.3</ele>
        <time>2021-06-03T15:07:08.000Z</time>
      </trkpt>
      <trkpt lat="44.86973" lon="-0.53764">
        <ele>10.1</ele>
        <time>2021-06-03T15:07:09.000Z</time>
      </trkpt>
      <trkpt lat="44.86967" lon="-0.53764">
        <ele>9.9</ele>
        <time>2021-06-03T15:07:10.000Z</time>
      </trkpt>
      <trkpt lat="44.86962" lon="-0.53764">
        <ele>10.2</ele>
        <time>2021-06-03T15:07:11.000Z</time>
      </trkpt>
      <trkpt lat="44.86957" lon="-0.53765">
        <ele>10.4</ele>
        <time>2021-06-03T15:07:12.000Z</time>
      </trkpt>
      <trkpt lat="44.86951" lon="-0.53765">
        <ele>10.6</ele>
        <time>2021-06-03T15:07:13.000Z</time>
      </trkpt>
      <trkpt lat="44.86946" lon="-0.53765">
        <ele>10.6</ele>
        <time>2021-06-03T15:07:14.000Z</time>
      </trkpt>
      <trkpt lat="44.86942" lon="-0.53765">
        <ele>10.6</ele>
        <time>2021-06-03T15:07:15.000Z</time>
      </trkpt>
      <trkpt lat="44.86937" lon="-0.53766">
        <ele>10.5</ele>
        <time>2021-06-03T15:07:16.000Z</time>
      </trkpt>
      <trkpt lat="44.86932" lon="-0.53766">
        <ele>10.5</ele>
        <time>2021-06-03T15:07:17.000Z</time>
      </trkpt>
      <trkpt lat="44.86924" lon="-0.53768">
        <ele>10.6</ele>
        <time>2021-06-03T15:07:19.000Z</time>
      </trkpt>
      <trkpt lat="44.8692" lon="-0.53769">
        <ele>10.6</ele>
        <time>2021-06-03T15:07:20.000Z</time>
      </trkpt>
      <trkpt lat="44.86908" lon="-0.53771">
        <ele>10.2</ele>
        <time>2021-06-03T15:07:23.000Z</time>
      </trkpt>
      <trkpt lat="44.869" lon="-0.53773">
        <ele>10.2</ele>
        <time>2021-06-03T15:07:25.000Z</time>
      </trkpt>
      <trkpt lat="44.86895" lon="-0.53774">
        <ele>10.2</ele>
        <time>2021-06-03T15:07:26.000Z</time>
      </trkpt>
      <trkpt lat="44.8689" lon="-0.53775">
        <ele>10.3</ele>
        <time>2021-06-03T15:07:27.000Z</time>
      </trkpt>
      <trkpt lat="44.86885" lon="-0.53776">
        <ele>10.4</ele>
        <time>2021-06-03T15:07:28.000Z</time>
      </trkpt>
      <trkpt lat="44.86879" lon="-0.53777">
        <ele>10.5</ele>
        <time>2021-06-03T15:07:29.000Z</time>
      </trkpt>
      <trkpt lat="44.86874" lon="-0.53779">
        <ele>10.5</ele>
        <time>2021-06-03T15:07:30.000Z</time>
      </trkpt>
      <trkpt lat="44.86869" lon="-0.5378">
        <ele>10.6</ele>
        <time>2021-06-03T15:07:31.000Z</time>
      </trkpt>
      <trkpt lat="44.86863" lon="-0.53781">
        <ele>10.6</ele>
        <time>2021-06-03T15:07:32.000Z</time>
      </trkpt>
      <trkpt lat="44.86858" lon="-0.53783">
        <ele>10.4</ele>
        <time>2021-06-03T15:07:33.000Z</time>
      </trkpt>
      <trkpt lat="44.86853" lon="-0.53784">
        <ele>10.2</ele>
        <time>2021-06-03T15:07:34.000Z</time>
      </trkpt>
      <trkpt lat="44.86849" lon="-0.53786">
        <ele>10.1</ele>
        <time>2021-06-03T15:07:35.000Z</time>
      </trkpt>
      <trkpt lat="44.86843" lon="-0.53787">
        <ele>10.1</ele>
        <time>2021-06-03T15:07:36.000Z</time>
      </trkpt>
      <trkpt lat="44.86838" lon="-0.53788">
        <ele>10</ele>
        <time>2021-06-03T15:07:37.000Z</time>
      </trkpt>
      <trkpt lat="44.86832" lon="-0.53789">
        <ele>10</ele>
        <time>2021-06-03T15:07:38.000Z</time>
      </trkpt>
      <trkpt lat="44.86827" lon="-0.5379">
        <ele>9.9</ele>
        <time>2021-06-03T15:07:39.000Z</time>
      </trkpt>
      <trkpt lat="44.86821" lon="-0.53792">
        <ele>10.1</ele>
        <time>2021-06-03T15:07:40.000Z</time>
      </trkpt>
      <trkpt lat="44.86816" lon="-0.53793">
        <ele>10.2</ele>
        <time>2021-06-03T15:07:41.000Z</time>
      </trkpt>
      <trkpt lat="44.86811" lon="-0.53794">
        <ele>10.2</ele>
        <time>2021-06-03T15:07:42.000Z</time>
      </trkpt>
      <trkpt lat="44.86806" lon="-0.53795">
        <ele>10.2</ele>
        <time>2021-06-03T15:07:43.000Z</time>
      </trkpt>
      <trkpt lat="44.868" lon="-0.53797">
        <ele>10.2</ele>
        <time>2021-06-03T15:07:44.000Z</time>
      </trkpt>
      <trkpt lat="44.86795" lon="-0.53798">
        <ele>10.2</ele>
        <time>2021-06-03T15:07:45.000Z</time>
      </trkpt>
      <trkpt lat="44.8679" lon="-0.53799">
        <ele>10.2</ele>
        <time>2021-06-03T15:07:46.000Z</time>
      </trkpt>
      <trkpt lat="44.86785" lon="-0.53801">
        <ele>9.9</ele>
        <time>2021-06-03T15:07:47.000Z</time>
      </trkpt>
      <trkpt lat="44.8678" lon="-0.53802">
        <ele>9.7</ele>
        <time>2021-06-03T15:07:48.000Z</time>
      </trkpt>
      <trkpt lat="44.86775" lon="-0.53804">
        <ele>9.6</ele>
        <time>2021-06-03T15:07:49.000Z</time>
      </trkpt>
      <trkpt lat="44.8677" lon="-0.53805">
        <ele>9.4</ele>
        <time>2021-06-03T15:07:50.000Z</time>
      </trkpt>
      <trkpt lat="44.86765" lon="-0.53806">
        <ele>9.6</ele>
        <time>2021-06-03T15:07:51.000Z</time>
      </trkpt>
      <trkpt lat="44.8676" lon="-0.53807">
        <ele>9.7</ele>
        <time>2021-06-03T15:07:52.000Z</time>
      </trkpt>
      <trkpt lat="44.86755" lon="-0.53809">
        <ele>9.7</ele>
        <time>2021-06-03T15:07:53.000Z</time>
      </trkpt>
      <trkpt lat="44.8675" lon="-0.5381">
        <ele>9.6</ele>
        <time>2021-06-03T15:07:54.000Z</time>
      </trkpt>
      <trkpt lat="44.86745" lon="-0.53812">
        <ele>9.4</ele>
        <time>2021-06-03T15:07:55.000Z</time>
      </trkpt>
      <trkpt lat="44.86739" lon="-0.53813">
        <ele>9.4</ele>
        <time>2021-06-03T15:07:56.000Z</time>
      </trkpt>
      <trkpt lat="44.86734" lon="-0.53815">
        <ele>9.4</ele>
        <time>2021-06-03T15:07:57.000Z</time>
      </trkpt>
      <trkpt lat="44.86729" lon="-0.53816">
        <ele>9.4</ele>
        <time>2021-06-03T15:07:58.000Z</time>
      </trkpt>
      <trkpt lat="44.86723" lon="-0.53818">
        <ele>9.2</ele>
        <time>2021-06-03T15:07:59.000Z</time>
      </trkpt>
      <trkpt lat="44.86718" lon="-0.53818">
        <ele>9</ele>
        <time>2021-06-03T15:08:00.000Z</time>
      </trkpt>
      <trkpt lat="44.86713" lon="-0.5382">
        <ele>9.3</ele>
        <time>2021-06-03T15:08:01.000Z</time>
      </trkpt>
      <trkpt lat="44.86708" lon="-0.53822">
        <ele>9.5</ele>
        <time>2021-06-03T15:08:02.000Z</time>
      </trkpt>
      <trkpt lat="44.86703" lon="-0.53823">
        <ele>9.8</ele>
        <time>2021-06-03T15:08:03.000Z</time>
      </trkpt>
      <trkpt lat="44.86697" lon="-0.53825">
        <ele>10</ele>
        <time>2021-06-03T15:08:04.000Z</time>
      </trkpt>
      <trkpt lat="44.86692" lon="-0.53826">
        <ele>10.2</ele>
        <time>2021-06-03T15:08:05.000Z</time>
      </trkpt>
      <trkpt lat="44.86686" lon="-0.53828">
        <ele>10.2</ele>
        <time>2021-06-03T15:08:06.000Z</time>
      </trkpt>
      <trkpt lat="44.86681" lon="-0.53829">
        <ele>10.2</ele>
        <time>2021-06-03T15:08:07.000Z</time>
      </trkpt>
      <trkpt lat="44.86675" lon="-0.53831">
        <ele>10.1</ele>
        <time>2021-06-03T15:08:08.000Z</time>
      </trkpt>
      <trkpt lat="44.8667" lon="-0.53833">
        <ele>10</ele>
        <time>2021-06-03T15:08:09.000Z</time>
      </trkpt>
      <trkpt lat="44.86665" lon="-0.53835">
        <ele>9.9</ele>
        <time>2021-06-03T15:08:10.000Z</time>
      </trkpt>
      <trkpt lat="44.86659" lon="-0.53837">
        <ele>10.1</ele>
        <time>2021-06-03T15:08:11.000Z</time>
      </trkpt>
      <trkpt lat="44.86654" lon="-0.53838">
        <ele>10.2</ele>
        <time>2021-06-03T15:08:12.000Z</time>
      </trkpt>
      <trkpt lat="44.86649" lon="-0.53841">
        <ele>10.2</ele>
        <time>2021-06-03T15:08:13.000Z</time>
      </trkpt>
      <trkpt lat="44.86644" lon="-0.53843">
        <ele>10.1</ele>
        <time>2021-06-03T15:08:14.000Z</time>
      </trkpt>
      <trkpt lat="44.86639" lon="-0.53845">
        <ele>10.2</ele>
        <time>2021-06-03T15:08:15.000Z</time>
      </trkpt>
      <trkpt lat="44.86634" lon="-0.53846">
        <ele>10.3</ele>
        <time>2021-06-03T15:08:16.000Z</time>
      </trkpt>
      <trkpt lat="44.8663" lon="-0.53848">
        <ele>10.3</ele>
        <time>2021-06-03T15:08:17.000Z</time>
      </trkpt>
      <trkpt lat="44.86625" lon="-0.5385">
        <ele>10.6</ele>
        <time>2021-06-03T15:08:18.000Z</time>
      </trkpt>
      <trkpt lat="44.8662" lon="-0.53852">
        <ele>10.8</ele>
        <time>2021-06-03T15:08:19.000Z</time>
      </trkpt>
      <trkpt lat="44.86616" lon="-0.53854">
        <ele>10.8</ele>
        <time>2021-06-03T15:08:20.000Z</time>
      </trkpt>
      <trkpt lat="44.86611" lon="-0.53856">
        <ele>10.8</ele>
        <time>2021-06-03T15:08:21.000Z</time>
      </trkpt>
      <trkpt lat="44.86606" lon="-0.53858">
        <ele>10.7</ele>
        <time>2021-06-03T15:08:22.000Z</time>
      </trkpt>
      <trkpt lat="44.86598" lon="-0.53862">
        <ele>10.6</ele>
        <time>2021-06-03T15:08:24.000Z</time>
      </trkpt>
      <trkpt lat="44.86593" lon="-0.53863">
        <ele>10.7</ele>
        <time>2021-06-03T15:08:25.000Z</time>
      </trkpt>
      <trkpt lat="44.86588" lon="-0.53865">
        <ele>10.8</ele>
        <time>2021-06-03T15:08:26.000Z</time>
      </trkpt>
      <trkpt lat="44.86583" lon="-0.53867">
        <ele>11</ele>
        <time>2021-06-03T15:08:27.000Z</time>
      </trkpt>
      <trkpt lat="44.86578" lon="-0.53868">
        <ele>11.2</ele>
        <time>2021-06-03T15:08:28.000Z</time>
      </trkpt>
      <trkpt lat="44.86574" lon="-0.53869">
        <ele>11.1</ele>
        <time>2021-06-03T15:08:29.000Z</time>
      </trkpt>
      <trkpt lat="44.86569" lon="-0.53871">
        <ele>11.1</ele>
        <time>2021-06-03T15:08:30.000Z</time>
      </trkpt>
      <trkpt lat="44.86564" lon="-0.53872">
        <ele>11</ele>
        <time>2021-06-03T15:08:31.000Z</time>
      </trkpt>
      <trkpt lat="44.86555" lon="-0.53872">
        <ele>10.8</ele>
        <time>2021-06-03T15:08:33.000Z</time>
      </trkpt>
      <trkpt lat="44.86547" lon="-0.53872">
        <ele>10.4</ele>
        <time>2021-06-03T15:08:35.000Z</time>
      </trkpt>
      <trkpt lat="44.86539" lon="-0.53871">
        <ele>10.3</ele>
        <time>2021-06-03T15:08:37.000Z</time>
      </trkpt>
      <trkpt lat="44.86535" lon="-0.5387">
        <ele>10.4</ele>
        <time>2021-06-03T15:08:38.000Z</time>
      </trkpt>
      <trkpt lat="44.8653" lon="-0.5387">
        <ele>10.3</ele>
        <time>2021-06-03T15:08:39.000Z</time>
      </trkpt>
      <trkpt lat="44.86525" lon="-0.53869">
        <ele>10.2</ele>
        <time>2021-06-03T15:08:40.000Z</time>
      </trkpt>
      <trkpt lat="44.8652" lon="-0.53868">
        <ele>10.1</ele>
        <time>2021-06-03T15:08:41.000Z</time>
      </trkpt>
      <trkpt lat="44.86515" lon="-0.53867">
        <ele>10</ele>
        <time>2021-06-03T15:08:42.000Z</time>
      </trkpt>
      <trkpt lat="44.8651" lon="-0.53865">
        <ele>9.9</ele>
        <time>2021-06-03T15:08:43.000Z</time>
      </trkpt>
      <trkpt lat="44.86505" lon="-0.53862">
        <ele>9.9</ele>
        <time>2021-06-03T15:08:44.000Z</time>
      </trkpt>
      <trkpt lat="44.865" lon="-0.53859">
        <ele>9.9</ele>
        <time>2021-06-03T15:08:45.000Z</time>
      </trkpt>
      <trkpt lat="44.86495" lon="-0.53855">
        <ele>10.2</ele>
        <time>2021-06-03T15:08:46.000Z</time>
      </trkpt>
      <trkpt lat="44.8649" lon="-0.53852">
        <ele>10.4</ele>
        <time>2021-06-03T15:08:47.000Z</time>
      </trkpt>
      <trkpt lat="44.86485" lon="-0.53848">
        <ele>10.6</ele>
        <time>2021-06-03T15:08:48.000Z</time>
      </trkpt>
      <trkpt lat="44.8648" lon="-0.53844">
        <ele>10.2</ele>
        <time>2021-06-03T15:08:49.000Z</time>
      </trkpt>
      <trkpt lat="44.86475" lon="-0.53839">
        <ele>9.9</ele>
        <time>2021-06-03T15:08:50.000Z</time>
      </trkpt>
      <trkpt lat="44.8647" lon="-0.53835">
        <ele>10.1</ele>
        <time>2021-06-03T15:08:51.000Z</time>
      </trkpt>
      <trkpt lat="44.86465" lon="-0.5383">
        <ele>10.2</ele>
        <time>2021-06-03T15:08:52.000Z</time>
      </trkpt>
      <trkpt lat="44.86461" lon="-0.53826">
        <ele>10.2</ele>
        <time>2021-06-03T15:08:53.000Z</time>
      </trkpt>
      <trkpt lat="44.86456" lon="-0.53821">
        <ele>10.3</ele>
        <time>2021-06-03T15:08:54.000Z</time>
      </trkpt>
      <trkpt lat="44.86452" lon="-0.53816">
        <ele>10.3</ele>
        <time>2021-06-03T15:08:55.000Z</time>
      </trkpt>
      <trkpt lat="44.86447" lon="-0.53811">
        <ele>10.2</ele>
        <time>2021-06-03T15:08:56.000Z</time>
      </trkpt>
      <trkpt lat="44.86443" lon="-0.53806">
        <ele>10.1</ele>
        <time>2021-06-03T15:08:57.000Z</time>
      </trkpt>
      <trkpt lat="44.86439" lon="-0.53802">
        <ele>9.9</ele>
        <time>2021-06-03T15:08:58.000Z</time>
      </trkpt>
      <trkpt lat="44.86435" lon="-0.53797">
        <ele>9.7</ele>
        <time>2021-06-03T15:08:59.000Z</time>
      </trkpt>
      <trkpt lat="44.86431" lon="-0.53793">
        <ele>9.7</ele>
        <time>2021-06-03T15:09:00.000Z</time>
      </trkpt>
      <trkpt lat="44.86427" lon="-0.53788">
        <ele>9.7</ele>
        <time>2021-06-03T15:09:01.000Z</time>
      </trkpt>
      <trkpt lat="44.86423" lon="-0.53784">
        <ele>9.7</ele>
        <time>2021-06-03T15:09:02.000Z</time>
      </trkpt>
      <trkpt lat="44.86416" lon="-0.53777">
        <ele>9.8</ele>
        <time>2021-06-03T15:09:04.000Z</time>
      </trkpt>
      <trkpt lat="44.86412" lon="-0.53768">
        <ele>9.9</ele>
        <time>2021-06-03T15:09:06.000Z</time>
      </trkpt>
      <trkpt lat="44.86405" lon="-0.53759">
        <ele>9.6</ele>
        <time>2021-06-03T15:09:08.000Z</time>
      </trkpt>
      <trkpt lat="44.86398" lon="-0.53753">
        <ele>9.6</ele>
        <time>2021-06-03T15:09:10.000Z</time>
      </trkpt>
      <trkpt lat="44.86391" lon="-0.53748">
        <ele>9.4</ele>
        <time>2021-06-03T15:09:12.000Z</time>
      </trkpt>
      <trkpt lat="44.86384" lon="-0.53743">
        <ele>9</ele>
        <time>2021-06-03T15:09:14.000Z</time>
      </trkpt>
      <trkpt lat="44.86377" lon="-0.53741">
        <ele>9.3</ele>
        <time>2021-06-03T15:09:16.000Z</time>
      </trkpt>
      <trkpt lat="44.86368" lon="-0.53741">
        <ele>9.3</ele>
        <time>2021-06-03T15:09:18.000Z</time>
      </trkpt>
      <trkpt lat="44.86364" lon="-0.5374">
        <ele>9.5</ele>
        <time>2021-06-03T15:09:19.000Z</time>
      </trkpt>
      <trkpt lat="44.86359" lon="-0.53739">
        <ele>9.6</ele>
        <time>2021-06-03T15:09:20.000Z</time>
      </trkpt>
      <trkpt lat="44.86355" lon="-0.53738">
        <ele>9.7</ele>
        <time>2021-06-03T15:09:21.000Z</time>
      </trkpt>
      <trkpt lat="44.8635" lon="-0.53738">
        <ele>9.7</ele>
        <time>2021-06-03T15:09:22.000Z</time>
      </trkpt>
      <trkpt lat="44.86346" lon="-0.53739">
        <ele>9.7</ele>
        <time>2021-06-03T15:09:23.000Z</time>
      </trkpt>
      <trkpt lat="44.86341" lon="-0.53739">
        <ele>9.6</ele>
        <time>2021-06-03T15:09:24.000Z</time>
      </trkpt>
      <trkpt lat="44.86336" lon="-0.5374">
        <ele>9.5</ele>
        <time>2021-06-03T15:09:25.000Z</time>
      </trkpt>
      <trkpt lat="44.86331" lon="-0.53741">
        <ele>9.9</ele>
        <time>2021-06-03T15:09:26.000Z</time>
      </trkpt>
      <trkpt lat="44.86326" lon="-0.53743">
        <ele>10.3</ele>
        <time>2021-06-03T15:09:27.000Z</time>
      </trkpt>
      <trkpt lat="44.86322" lon="-0.53745">
        <ele>10.6</ele>
        <time>2021-06-03T15:09:28.000Z</time>
      </trkpt>
      <trkpt lat="44.86317" lon="-0.53747">
        <ele>10.2</ele>
        <time>2021-06-03T15:09:29.000Z</time>
      </trkpt>
      <trkpt lat="44.86312" lon="-0.5375">
        <ele>9.9</ele>
        <time>2021-06-03T15:09:30.000Z</time>
      </trkpt>
      <trkpt lat="44.86308" lon="-0.53754">
        <ele>10.2</ele>
        <time>2021-06-03T15:09:31.000Z</time>
      </trkpt>
      <trkpt lat="44.86303" lon="-0.53757">
        <ele>10.3</ele>
        <time>2021-06-03T15:09:32.000Z</time>
      </trkpt>
      <trkpt lat="44.86299" lon="-0.5376">
        <ele>10.5</ele>
        <time>2021-06-03T15:09:33.000Z</time>
      </trkpt>
      <trkpt lat="44.86294" lon="-0.53763">
        <ele>10.5</ele>
        <time>2021-06-03T15:09:34.000Z</time>
      </trkpt>
      <trkpt lat="44.8629" lon="-0.53766">
        <ele>10.5</ele>
        <time>2021-06-03T15:09:35.000Z</time>
      </trkpt>
      <trkpt lat="44.86285" lon="-0.53769">
        <ele>10.8</ele>
        <time>2021-06-03T15:09:36.000Z</time>
      </trkpt>
      <trkpt lat="44.8628" lon="-0.53772">
        <ele>11</ele>
        <time>2021-06-03T15:09:37.000Z</time>
      </trkpt>
      <trkpt lat="44.86276" lon="-0.53775">
        <ele>11.1</ele>
        <time>2021-06-03T15:09:38.000Z</time>
      </trkpt>
      <trkpt lat="44.86271" lon="-0.53778">
        <ele>11.1</ele>
        <time>2021-06-03T15:09:39.000Z</time>
      </trkpt>
      <trkpt lat="44.86266" lon="-0.53781">
        <ele>11.2</ele>
        <time>2021-06-03T15:09:40.000Z</time>
      </trkpt>
      <trkpt lat="44.86261" lon="-0.53784">
        <ele>11.2</ele>
        <time>2021-06-03T15:09:41.000Z</time>
      </trkpt>
      <trkpt lat="44.86257" lon="-0.53786">
        <ele>11.2</ele>
        <time>2021-06-03T15:09:42.000Z</time>
      </trkpt>
      <trkpt lat="44.86252" lon="-0.53788">
        <ele>11.1</ele>
        <time>2021-06-03T15:09:43.000Z</time>
      </trkpt>
      <trkpt lat="44.86247" lon="-0.5379">
        <ele>11.1</ele>
        <time>2021-06-03T15:09:44.000Z</time>
      </trkpt>
      <trkpt lat="44.86242" lon="-0.53792">
        <ele>10.9</ele>
        <time>2021-06-03T15:09:45.000Z</time>
      </trkpt>
      <trkpt lat="44.86237" lon="-0.53794">
        <ele>10.7</ele>
        <time>2021-06-03T15:09:46.000Z</time>
      </trkpt>
      <trkpt lat="44.86232" lon="-0.53796">
        <ele>10.6</ele>
        <time>2021-06-03T15:09:47.000Z</time>
      </trkpt>
      <trkpt lat="44.86227" lon="-0.53798">
        <ele>10.4</ele>
        <time>2021-06-03T15:09:48.000Z</time>
      </trkpt>
      <trkpt lat="44.86222" lon="-0.53799">
        <ele>10.3</ele>
        <time>2021-06-03T15:09:49.000Z</time>
      </trkpt>
      <trkpt lat="44.86217" lon="-0.538">
        <ele>10.5</ele>
        <time>2021-06-03T15:09:50.000Z</time>
      </trkpt>
      <trkpt lat="44.86212" lon="-0.53802">
        <ele>10.7</ele>
        <time>2021-06-03T15:09:51.000Z</time>
      </trkpt>
      <trkpt lat="44.86207" lon="-0.53803">
        <ele>10.8</ele>
        <time>2021-06-03T15:09:52.000Z</time>
      </trkpt>
      <trkpt lat="44.86202" lon="-0.53804">
        <ele>10.7</ele>
        <time>2021-06-03T15:09:53.000Z</time>
      </trkpt>
      <trkpt lat="44.86197" lon="-0.53806">
        <ele>10.6</ele>
        <time>2021-06-03T15:09:54.000Z</time>
      </trkpt>
      <trkpt lat="44.86192" lon="-0.53807">
        <ele>10.7</ele>
        <time>2021-06-03T15:09:55.000Z</time>
      </trkpt>
      <trkpt lat="44.86187" lon="-0.53808">
        <ele>10.8</ele>
        <time>2021-06-03T15:09:56.000Z</time>
      </trkpt>
      <trkpt lat="44.86182" lon="-0.5381">
        <ele>10.8</ele>
        <time>2021-06-03T15:09:57.000Z</time>
      </trkpt>
      <trkpt lat="44.86177" lon="-0.53811">
        <ele>10.8</ele>
        <time>2021-06-03T15:09:58.000Z</time>
      </trkpt>
      <trkpt lat="44.86172" lon="-0.53812">
        <ele>10.7</ele>
        <time>2021-06-03T15:09:59.000Z</time>
      </trkpt>
      <trkpt lat="44.86167" lon="-0.53813">
        <ele>10.6</ele>
        <time>2021-06-03T15:10:00.000Z</time>
      </trkpt>
      <trkpt lat="44.86162" lon="-0.53814">
        <ele>10.5</ele>
        <time>2021-06-03T15:10:01.000Z</time>
      </trkpt>
      <trkpt lat="44.86157" lon="-0.53816">
        <ele>10.4</ele>
        <time>2021-06-03T15:10:02.000Z</time>
      </trkpt>
      <trkpt lat="44.86152" lon="-0.53817">
        <ele>10.4</ele>
        <time>2021-06-03T15:10:03.000Z</time>
      </trkpt>
      <trkpt lat="44.86147" lon="-0.53818">
        <ele>10.6</ele>
        <time>2021-06-03T15:10:04.000Z</time>
      </trkpt>
      <trkpt lat="44.86142" lon="-0.5382">
        <ele>10.8</ele>
        <time>2021-06-03T15:10:05.000Z</time>
      </trkpt>
      <trkpt lat="44.86137" lon="-0.53821">
        <ele>10.9</ele>
        <time>2021-06-03T15:10:06.000Z</time>
      </trkpt>
      <trkpt lat="44.86132" lon="-0.53822">
        <ele>10.8</ele>
        <time>2021-06-03T15:10:07.000Z</time>
      </trkpt>
      <trkpt lat="44.86127" lon="-0.53823">
        <ele>10.8</ele>
        <time>2021-06-03T15:10:08.000Z</time>
      </trkpt>
      <trkpt lat="44.86123" lon="-0.53825">
        <ele>10.6</ele>
        <time>2021-06-03T15:10:09.000Z</time>
      </trkpt>
      <trkpt lat="44.86118" lon="-0.53826">
        <ele>10.4</ele>
        <time>2021-06-03T15:10:10.000Z</time>
      </trkpt>
      <trkpt lat="44.86113" lon="-0.53827">
        <ele>10.4</ele>
        <time>2021-06-03T15:10:11.000Z</time>
      </trkpt>
      <trkpt lat="44.86108" lon="-0.53829">
        <ele>10.6</ele>
        <time>2021-06-03T15:10:12.000Z</time>
      </trkpt>
      <trkpt lat="44.86103" lon="-0.5383">
        <ele>10.7</ele>
        <time>2021-06-03T15:10:13.000Z</time>
      </trkpt>
      <trkpt lat="44.86098" lon="-0.53831">
        <ele>11</ele>
        <time>2021-06-03T15:10:14.000Z</time>
      </trkpt>
      <trkpt lat="44.86093" lon="-0.53832">
        <ele>11.3</ele>
        <time>2021-06-03T15:10:15.000Z</time>
      </trkpt>
      <trkpt lat="44.86088" lon="-0.53834">
        <ele>11.2</ele>
        <time>2021-06-03T15:10:16.000Z</time>
      </trkpt>
      <trkpt lat="44.86083" lon="-0.53835">
        <ele>11.2</ele>
        <time>2021-06-03T15:10:17.000Z</time>
      </trkpt>
      <trkpt lat="44.86078" lon="-0.53836">
        <ele>11.2</ele>
        <time>2021-06-03T15:10:18.000Z</time>
      </trkpt>
      <trkpt lat="44.86074" lon="-0.53836">
        <ele>11.2</ele>
        <time>2021-06-03T15:10:19.000Z</time>
      </trkpt>
      <trkpt lat="44.86069" lon="-0.53837">
        <ele>11.3</ele>
        <time>2021-06-03T15:10:20.000Z</time>
      </trkpt>
      <trkpt lat="44.86064" lon="-0.53838">
        <ele>11.2</ele>
        <time>2021-06-03T15:10:21.000Z</time>
      </trkpt>
      <trkpt lat="44.8606" lon="-0.53839">
        <ele>11.1</ele>
        <time>2021-06-03T15:10:22.000Z</time>
      </trkpt>
      <trkpt lat="44.86055" lon="-0.5384">
        <ele>11.2</ele>
        <time>2021-06-03T15:10:23.000Z</time>
      </trkpt>
      <trkpt lat="44.8605" lon="-0.53841">
        <ele>11.2</ele>
        <time>2021-06-03T15:10:24.000Z</time>
      </trkpt>
      <trkpt lat="44.86045" lon="-0.53842">
        <ele>11.3</ele>
        <time>2021-06-03T15:10:25.000Z</time>
      </trkpt>
      <trkpt lat="44.86041" lon="-0.53843">
        <ele>11.4</ele>
        <time>2021-06-03T15:10:26.000Z</time>
      </trkpt>
      <trkpt lat="44.86036" lon="-0.53844">
        <ele>11.4</ele>
        <time>2021-06-03T15:10:27.000Z</time>
      </trkpt>
      <trkpt lat="44.86031" lon="-0.53844">
        <ele>11.5</ele>
        <time>2021-06-03T15:10:28.000Z</time>
      </trkpt>
      <trkpt lat="44.86026" lon="-0.53844">
        <ele>11.6</ele>
        <time>2021-06-03T15:10:29.000Z</time>
      </trkpt>
      <trkpt lat="44.86022" lon="-0.53843">
        <ele>11.6</ele>
        <time>2021-06-03T15:10:30.000Z</time>
      </trkpt>
      <trkpt lat="44.86017" lon="-0.53842">
        <ele>11.5</ele>
        <time>2021-06-03T15:10:31.000Z</time>
      </trkpt>
      <trkpt lat="44.86012" lon="-0.53842">
        <ele>11.5</ele>
        <time>2021-06-03T15:10:32.000Z</time>
      </trkpt>
      <trkpt lat="44.86008" lon="-0.53841">
        <ele>11.1</ele>
        <time>2021-06-03T15:10:33.000Z</time>
      </trkpt>
      <trkpt lat="44.86003" lon="-0.53841">
        <ele>10.8</ele>
        <time>2021-06-03T15:10:34.000Z</time>
      </trkpt>
      <trkpt lat="44.85998" lon="-0.5384">
        <ele>10.7</ele>
        <time>2021-06-03T15:10:35.000Z</time>
      </trkpt>
      <trkpt lat="44.85994" lon="-0.5384">
        <ele>10.6</ele>
        <time>2021-06-03T15:10:36.000Z</time>
      </trkpt>
      <trkpt lat="44.85989" lon="-0.53839">
        <ele>10.6</ele>
        <time>2021-06-03T15:10:37.000Z</time>
      </trkpt>
      <trkpt lat="44.85985" lon="-0.53839">
        <ele>10.7</ele>
        <time>2021-06-03T15:10:38.000Z</time>
      </trkpt>
      <trkpt lat="44.8598" lon="-0.53839">
        <ele>10.8</ele>
        <time>2021-06-03T15:10:39.000Z</time>
      </trkpt>
      <trkpt lat="44.85976" lon="-0.53839">
        <ele>10.7</ele>
        <time>2021-06-03T15:10:40.000Z</time>
      </trkpt>
      <trkpt lat="44.85967" lon="-0.53839">
        <ele>10.6</ele>
        <time>2021-06-03T15:10:42.000Z</time>
      </trkpt>
      <trkpt lat="44.8596" lon="-0.53839">
        <ele>10.6</ele>
        <time>2021-06-03T15:10:44.000Z</time>
      </trkpt>
      <trkpt lat="44.85955" lon="-0.53843">
        <ele>10.2</ele>
        <time>2021-06-03T15:10:46.000Z</time>
      </trkpt>
      <trkpt lat="44.85951" lon="-0.53851">
        <ele>10.1</ele>
        <time>2021-06-03T15:10:48.000Z</time>
      </trkpt>
      <trkpt lat="44.8595" lon="-0.53862">
        <ele>10</ele>
        <time>2021-06-03T15:10:50.000Z</time>
      </trkpt>
      <trkpt lat="44.8595" lon="-0.53869">
        <ele>10</ele>
        <time>2021-06-03T15:10:51.000Z</time>
      </trkpt>
      <trkpt lat="44.85951" lon="-0.53876">
        <ele>10</ele>
        <time>2021-06-03T15:10:52.000Z</time>
      </trkpt>
      <trkpt lat="44.85952" lon="-0.53883">
        <ele>9.9</ele>
        <time>2021-06-03T15:10:53.000Z</time>
      </trkpt>
      <trkpt lat="44.85953" lon="-0.53889">
        <ele>9.9</ele>
        <time>2021-06-03T15:10:54.000Z</time>
      </trkpt>
      <trkpt lat="44.85955" lon="-0.53901">
        <ele>9.9</ele>
        <time>2021-06-03T15:10:56.000Z</time>
      </trkpt>
      <trkpt lat="44.85956" lon="-0.53912">
        <ele>10.4</ele>
        <time>2021-06-03T15:10:58.000Z</time>
      </trkpt>
      <trkpt lat="44.85959" lon="-0.53924">
        <ele>10.1</ele>
        <time>2021-06-03T15:11:00.000Z</time>
      </trkpt>
      <trkpt lat="44.8596" lon="-0.5393">
        <ele>9.8</ele>
        <time>2021-06-03T15:11:01.000Z</time>
      </trkpt>
      <trkpt lat="44.85961" lon="-0.53936">
        <ele>9.7</ele>
        <time>2021-06-03T15:11:02.000Z</time>
      </trkpt>
      <trkpt lat="44.85962" lon="-0.53943">
        <ele>9.5</ele>
        <time>2021-06-03T15:11:03.000Z</time>
      </trkpt>
      <trkpt lat="44.85963" lon="-0.5395">
        <ele>10</ele>
        <time>2021-06-03T15:11:04.000Z</time>
      </trkpt>
      <trkpt lat="44.85965" lon="-0.53956">
        <ele>10.3</ele>
        <time>2021-06-03T15:11:05.000Z</time>
      </trkpt>
      <trkpt lat="44.85966" lon="-0.53963">
        <ele>10.4</ele>
        <time>2021-06-03T15:11:06.000Z</time>
      </trkpt>
      <trkpt lat="44.85967" lon="-0.5397">
        <ele>10.4</ele>
        <time>2021-06-03T15:11:07.000Z</time>
      </trkpt>
      <trkpt lat="44.85968" lon="-0.53976">
        <ele>10.5</ele>
        <time>2021-06-03T15:11:08.000Z</time>
      </trkpt>
      <trkpt lat="44.85969" lon="-0.53983">
        <ele>10.5</ele>
        <time>2021-06-03T15:11:09.000Z</time>
      </trkpt>
      <trkpt lat="44.8597" lon="-0.5399">
        <ele>10.5</ele>
        <time>2021-06-03T15:11:10.000Z</time>
      </trkpt>
      <trkpt lat="44.85971" lon="-0.53997">
        <ele>10.4</ele>
        <time>2021-06-03T15:11:11.000Z</time>
      </trkpt>
      <trkpt lat="44.85973" lon="-0.54004">
        <ele>10.4</ele>
        <time>2021-06-03T15:11:12.000Z</time>
      </trkpt>
      <trkpt lat="44.85974" lon="-0.54011">
        <ele>10.8</ele>
        <time>2021-06-03T15:11:13.000Z</time>
      </trkpt>
      <trkpt lat="44.85975" lon="-0.54018">
        <ele>11</ele>
        <time>2021-06-03T15:11:14.000Z</time>
      </trkpt>
      <trkpt lat="44.85975" lon="-0.54025">
        <ele>11.3</ele>
        <time>2021-06-03T15:11:15.000Z</time>
      </trkpt>
      <trkpt lat="44.85976" lon="-0.54032">
        <ele>11.1</ele>
        <time>2021-06-03T15:11:16.000Z</time>
      </trkpt>
      <trkpt lat="44.85977" lon="-0.54038">
        <ele>11</ele>
        <time>2021-06-03T15:11:17.000Z</time>
      </trkpt>
      <trkpt lat="44.85978" lon="-0.54045">
        <ele>11.1</ele>
        <time>2021-06-03T15:11:18.000Z</time>
      </trkpt>
      <trkpt lat="44.85978" lon="-0.54052">
        <ele>11.2</ele>
        <time>2021-06-03T15:11:19.000Z</time>
      </trkpt>
      <trkpt lat="44.85979" lon="-0.54059">
        <ele>11</ele>
        <time>2021-06-03T15:11:20.000Z</time>
      </trkpt>
      <trkpt lat="44.85979" lon="-0.54066">
        <ele>10.9</ele>
        <time>2021-06-03T15:11:21.000Z</time>
      </trkpt>
      <trkpt lat="44.85979" lon="-0.54073">
        <ele>10.9</ele>
        <time>2021-06-03T15:11:22.000Z</time>
      </trkpt>
      <trkpt lat="44.85979" lon="-0.54081">
        <ele>11</ele>
        <time>2021-06-03T15:11:23.000Z</time>
      </trkpt>
      <trkpt lat="44.85979" lon="-0.54088">
        <ele>11.1</ele>
        <time>2021-06-03T15:11:24.000Z</time>
      </trkpt>
      <trkpt lat="44.85979" lon="-0.54095">
        <ele>11</ele>
        <time>2021-06-03T15:11:25.000Z</time>
      </trkpt>
      <trkpt lat="44.85979" lon="-0.54102">
        <ele>10.9</ele>
        <time>2021-06-03T15:11:26.000Z</time>
      </trkpt>
      <trkpt lat="44.85979" lon="-0.54109">
        <ele>11.5</ele>
        <time>2021-06-03T15:11:27.000Z</time>
      </trkpt>
      <trkpt lat="44.85979" lon="-0.54116">
        <ele>12</ele>
        <time>2021-06-03T15:11:28.000Z</time>
      </trkpt>
      <trkpt lat="44.85979" lon="-0.54123">
        <ele>12.3</ele>
        <time>2021-06-03T15:11:29.000Z</time>
      </trkpt>
      <trkpt lat="44.85978" lon="-0.5413">
        <ele>12.1</ele>
        <time>2021-06-03T15:11:30.000Z</time>
      </trkpt>
      <trkpt lat="44.85978" lon="-0.54138">
        <ele>11.9</ele>
        <time>2021-06-03T15:11:31.000Z</time>
      </trkpt>
      <trkpt lat="44.85978" lon="-0.54145">
        <ele>12</ele>
        <time>2021-06-03T15:11:32.000Z</time>
      </trkpt>
      <trkpt lat="44.85978" lon="-0.54153">
        <ele>12</ele>
        <time>2021-06-03T15:11:33.000Z</time>
      </trkpt>
      <trkpt lat="44.85977" lon="-0.54161">
        <ele>12</ele>
        <time>2021-06-03T15:11:34.000Z</time>
      </trkpt>
      <trkpt lat="44.85977" lon="-0.54168">
        <ele>11.9</ele>
        <time>2021-06-03T15:11:35.000Z</time>
      </trkpt>
      <trkpt lat="44.85977" lon="-0.54175">
        <ele>11.9</ele>
        <time>2021-06-03T15:11:36.000Z</time>
      </trkpt>
      <trkpt lat="44.85976" lon="-0.54183">
        <ele>11.5</ele>
        <time>2021-06-03T15:11:37.000Z</time>
      </trkpt>
      <trkpt lat="44.85976" lon="-0.5419">
        <ele>11.3</ele>
        <time>2021-06-03T15:11:38.000Z</time>
      </trkpt>
      <trkpt lat="44.85976" lon="-0.54196">
        <ele>11.3</ele>
        <time>2021-06-03T15:11:39.000Z</time>
      </trkpt>
      <trkpt lat="44.85975" lon="-0.54203">
        <ele>11.3</ele>
        <time>2021-06-03T15:11:40.000Z</time>
      </trkpt>
      <trkpt lat="44.85975" lon="-0.5421">
        <ele>11.3</ele>
        <time>2021-06-03T15:11:41.000Z</time>
      </trkpt>
      <trkpt lat="44.85975" lon="-0.54216">
        <ele>11.6</ele>
        <time>2021-06-03T15:11:42.000Z</time>
      </trkpt>
      <trkpt lat="44.85975" lon="-0.54223">
        <ele>11.8</ele>
        <time>2021-06-03T15:11:43.000Z</time>
      </trkpt>
      <trkpt lat="44.85975" lon="-0.5423">
        <ele>11.7</ele>
        <time>2021-06-03T15:11:44.000Z</time>
      </trkpt>
      <trkpt lat="44.85974" lon="-0.54237">
        <ele>11.7</ele>
        <time>2021-06-03T15:11:45.000Z</time>
      </trkpt>
      <trkpt lat="44.85974" lon="-0.54244">
        <ele>11.7</ele>
        <time>2021-06-03T15:11:46.000Z</time>
      </trkpt>
      <trkpt lat="44.85974" lon="-0.5425">
        <ele>11.8</ele>
        <time>2021-06-03T15:11:47.000Z</time>
      </trkpt>
      <trkpt lat="44.85973" lon="-0.54257">
        <ele>11.8</ele>
        <time>2021-06-03T15:11:48.000Z</time>
      </trkpt>
      <trkpt lat="44.85973" lon="-0.54263">
        <ele>12.2</ele>
        <time>2021-06-03T15:11:49.000Z</time>
      </trkpt>
      <trkpt lat="44.85973" lon="-0.5427">
        <ele>12.4</ele>
        <time>2021-06-03T15:11:50.000Z</time>
      </trkpt>
      <trkpt lat="44.85974" lon="-0.54282">
        <ele>12.6</ele>
        <time>2021-06-03T15:11:52.000Z</time>
      </trkpt>
      <trkpt lat="44.85976" lon="-0.54287">
        <ele>12.6</ele>
        <time>2021-06-03T15:11:53.000Z</time>
      </trkpt>
      <trkpt lat="44.85978" lon="-0.54293">
        <ele>12.6</ele>
        <time>2021-06-03T15:11:54.000Z</time>
      </trkpt>
      <trkpt lat="44.8598" lon="-0.543">
        <ele>12.6</ele>
        <time>2021-06-03T15:11:55.000Z</time>
      </trkpt>
      <trkpt lat="44.85982" lon="-0.54306">
        <ele>12.6</ele>
        <time>2021-06-03T15:11:56.000Z</time>
      </trkpt>
      <trkpt lat="44.85983" lon="-0.54313">
        <ele>12.7</ele>
        <time>2021-06-03T15:11:57.000Z</time>
      </trkpt>
      <trkpt lat="44.85984" lon="-0.54319">
        <ele>12.7</ele>
        <time>2021-06-03T15:11:58.000Z</time>
      </trkpt>
      <trkpt lat="44.85985" lon="-0.54332">
        <ele>12.7</ele>
        <time>2021-06-03T15:12:00.000Z</time>
      </trkpt>
      <trkpt lat="44.85984" lon="-0.54344">
        <ele>12.3</ele>
        <time>2021-06-03T15:12:02.000Z</time>
      </trkpt>
      <trkpt lat="44.85982" lon="-0.54355">
        <ele>12.3</ele>
        <time>2021-06-03T15:12:04.000Z</time>
      </trkpt>
      <trkpt lat="44.85981" lon="-0.54365">
        <ele>12.5</ele>
        <time>2021-06-03T15:12:06.000Z</time>
      </trkpt>
      <trkpt lat="44.85977" lon="-0.54375">
        <ele>12.4</ele>
        <time>2021-06-03T15:12:08.000Z</time>
      </trkpt>
      <trkpt lat="44.85973" lon="-0.54385">
        <ele>12.1</ele>
        <time>2021-06-03T15:12:10.000Z</time>
      </trkpt>
      <trkpt lat="44.85968" lon="-0.54395">
        <ele>11.9</ele>
        <time>2021-06-03T15:12:12.000Z</time>
      </trkpt>
      <trkpt lat="44.85965" lon="-0.544">
        <ele>11.9</ele>
        <time>2021-06-03T15:12:13.000Z</time>
      </trkpt>
      <trkpt lat="44.85962" lon="-0.54404">
        <ele>11.8</ele>
        <time>2021-06-03T15:12:14.000Z</time>
      </trkpt>
      <trkpt lat="44.85958" lon="-0.54409">
        <ele>11.7</ele>
        <time>2021-06-03T15:12:15.000Z</time>
      </trkpt>
      <trkpt lat="44.85955" lon="-0.54413">
        <ele>11.5</ele>
        <time>2021-06-03T15:12:16.000Z</time>
      </trkpt>
      <trkpt lat="44.85951" lon="-0.54418">
        <ele>11.9</ele>
        <time>2021-06-03T15:12:17.000Z</time>
      </trkpt>
      <trkpt lat="44.85945" lon="-0.54426">
        <ele>12.3</ele>
        <time>2021-06-03T15:12:19.000Z</time>
      </trkpt>
      <trkpt lat="44.85941" lon="-0.5443">
        <ele>12.6</ele>
        <time>2021-06-03T15:12:20.000Z</time>
      </trkpt>
      <trkpt lat="44.85929" lon="-0.54446">
        <ele>12</ele>
        <time>2021-06-03T15:12:23.000Z</time>
      </trkpt>
      <trkpt lat="44.85924" lon="-0.54452">
        <ele>12.5</ele>
        <time>2021-06-03T15:12:25.000Z</time>
      </trkpt>
      <trkpt lat="44.85921" lon="-0.54456">
        <ele>12.5</ele>
        <time>2021-06-03T15:12:26.000Z</time>
      </trkpt>
      <trkpt lat="44.85917" lon="-0.5446">
        <ele>12.5</ele>
        <time>2021-06-03T15:12:27.000Z</time>
      </trkpt>
      <trkpt lat="44.85911" lon="-0.54469">
        <ele>12.8</ele>
        <time>2021-06-03T15:12:29.000Z</time>
      </trkpt>
      <trkpt lat="44.85907" lon="-0.54473">
        <ele>13</ele>
        <time>2021-06-03T15:12:30.000Z</time>
      </trkpt>
      <trkpt lat="44.85898" lon="-0.54485">
        <ele>13.6</ele>
        <time>2021-06-03T15:12:33.000Z</time>
      </trkpt>
      <trkpt lat="44.85891" lon="-0.54493">
        <ele>12.9</ele>
        <time>2021-06-03T15:12:35.000Z</time>
      </trkpt>
      <trkpt lat="44.85888" lon="-0.54497">
        <ele>12.9</ele>
        <time>2021-06-03T15:12:36.000Z</time>
      </trkpt>
      <trkpt lat="44.85884" lon="-0.54501">
        <ele>12.9</ele>
        <time>2021-06-03T15:12:37.000Z</time>
      </trkpt>
      <trkpt lat="44.85881" lon="-0.54505">
        <ele>12.9</ele>
        <time>2021-06-03T15:12:38.000Z</time>
      </trkpt>
      <trkpt lat="44.85877" lon="-0.5451">
        <ele>12.4</ele>
        <time>2021-06-03T15:12:39.000Z</time>
      </trkpt>
      <trkpt lat="44.85874" lon="-0.54515">
        <ele>12.1</ele>
        <time>2021-06-03T15:12:40.000Z</time>
      </trkpt>
      <trkpt lat="44.8587" lon="-0.5452">
        <ele>12.5</ele>
        <time>2021-06-03T15:12:41.000Z</time>
      </trkpt>
      <trkpt lat="44.85867" lon="-0.54525">
        <ele>12.9</ele>
        <time>2021-06-03T15:12:42.000Z</time>
      </trkpt>
      <trkpt lat="44.85863" lon="-0.5453">
        <ele>13</ele>
        <time>2021-06-03T15:12:43.000Z</time>
      </trkpt>
      <trkpt lat="44.8586" lon="-0.54535">
        <ele>13.2</ele>
        <time>2021-06-03T15:12:44.000Z</time>
      </trkpt>
      <trkpt lat="44.85856" lon="-0.5454">
        <ele>13.2</ele>
        <time>2021-06-03T15:12:45.000Z</time>
      </trkpt>
      <trkpt lat="44.85853" lon="-0.54545">
        <ele>12.9</ele>
        <time>2021-06-03T15:12:46.000Z</time>
      </trkpt>
      <trkpt lat="44.85849" lon="-0.54549">
        <ele>12.6</ele>
        <time>2021-06-03T15:12:47.000Z</time>
      </trkpt>
      <trkpt lat="44.85846" lon="-0.54554">
        <ele>12.4</ele>
        <time>2021-06-03T15:12:48.000Z</time>
      </trkpt>
      <trkpt lat="44.85843" lon="-0.54559">
        <ele>12.2</ele>
        <time>2021-06-03T15:12:49.000Z</time>
      </trkpt>
      <trkpt lat="44.85839" lon="-0.54564">
        <ele>12</ele>
        <time>2021-06-03T15:12:50.000Z</time>
      </trkpt>
      <trkpt lat="44.85836" lon="-0.54569">
        <ele>12</ele>
        <time>2021-06-03T15:12:51.000Z</time>
      </trkpt>
      <trkpt lat="44.85832" lon="-0.54574">
        <ele>12</ele>
        <time>2021-06-03T15:12:52.000Z</time>
      </trkpt>
      <trkpt lat="44.85829" lon="-0.5458">
        <ele>12.4</ele>
        <time>2021-06-03T15:12:53.000Z</time>
      </trkpt>
      <trkpt lat="44.85825" lon="-0.54585">
        <ele>12.6</ele>
        <time>2021-06-03T15:12:54.000Z</time>
      </trkpt>
      <trkpt lat="44.85821" lon="-0.54591">
        <ele>12.5</ele>
        <time>2021-06-03T15:12:55.000Z</time>
      </trkpt>
      <trkpt lat="44.85818" lon="-0.54596">
        <ele>12.5</ele>
        <time>2021-06-03T15:12:56.000Z</time>
      </trkpt>
      <trkpt lat="44.85814" lon="-0.54601">
        <ele>12.4</ele>
        <time>2021-06-03T15:12:57.000Z</time>
      </trkpt>
      <trkpt lat="44.85811" lon="-0.54606">
        <ele>12.3</ele>
        <time>2021-06-03T15:12:58.000Z</time>
      </trkpt>
      <trkpt lat="44.85807" lon="-0.54611">
        <ele>12.3</ele>
        <time>2021-06-03T15:12:59.000Z</time>
      </trkpt>
      <trkpt lat="44.85802" lon="-0.5462">
        <ele>12</ele>
        <time>2021-06-03T15:13:01.000Z</time>
      </trkpt>
      <trkpt lat="44.85796" lon="-0.5463">
        <ele>11.8</ele>
        <time>2021-06-03T15:13:03.000Z</time>
      </trkpt>
      <trkpt lat="44.8579" lon="-0.54638">
        <ele>11.6</ele>
        <time>2021-06-03T15:13:05.000Z</time>
      </trkpt>
      <trkpt lat="44.85784" lon="-0.54647">
        <ele>11.8</ele>
        <time>2021-06-03T15:13:07.000Z</time>
      </trkpt>
      <trkpt lat="44.85779" lon="-0.54655">
        <ele>12.1</ele>
        <time>2021-06-03T15:13:09.000Z</time>
      </trkpt>
      <trkpt lat="44.85773" lon="-0.54662">
        <ele>11.7</ele>
        <time>2021-06-03T15:13:11.000Z</time>
      </trkpt>
      <trkpt lat="44.85767" lon="-0.54669">
        <ele>12.1</ele>
        <time>2021-06-03T15:13:13.000Z</time>
      </trkpt>
      <trkpt lat="44.85761" lon="-0.54678">
        <ele>12.1</ele>
        <time>2021-06-03T15:13:15.000Z</time>
      </trkpt>
      <trkpt lat="44.85758" lon="-0.54683">
        <ele>12.1</ele>
        <time>2021-06-03T15:13:16.000Z</time>
      </trkpt>
      <trkpt lat="44.85754" lon="-0.54688">
        <ele>12.6</ele>
        <time>2021-06-03T15:13:17.000Z</time>
      </trkpt>
      <trkpt lat="44.85751" lon="-0.54693">
        <ele>13</ele>
        <time>2021-06-03T15:13:18.000Z</time>
      </trkpt>
      <trkpt lat="44.85748" lon="-0.54698">
        <ele>12.7</ele>
        <time>2021-06-03T15:13:19.000Z</time>
      </trkpt>
      <trkpt lat="44.85745" lon="-0.54703">
        <ele>12.6</ele>
        <time>2021-06-03T15:13:20.000Z</time>
      </trkpt>
      <trkpt lat="44.85742" lon="-0.54708">
        <ele>12.5</ele>
        <time>2021-06-03T15:13:21.000Z</time>
      </trkpt>
      <trkpt lat="44.85738" lon="-0.54713">
        <ele>12.5</ele>
        <time>2021-06-03T15:13:22.000Z</time>
      </trkpt>
      <trkpt lat="44.85735" lon="-0.54719">
        <ele>12.4</ele>
        <time>2021-06-03T15:13:23.000Z</time>
      </trkpt>
      <trkpt lat="44.85732" lon="-0.54723">
        <ele>12.9</ele>
        <time>2021-06-03T15:13:24.000Z</time>
      </trkpt>
      <trkpt lat="44.85729" lon="-0.54728">
        <ele>13.2</ele>
        <time>2021-06-03T15:13:25.000Z</time>
      </trkpt>
      <trkpt lat="44.85725" lon="-0.54733">
        <ele>13.1</ele>
        <time>2021-06-03T15:13:26.000Z</time>
      </trkpt>
      <trkpt lat="44.85722" lon="-0.54738">
        <ele>13.1</ele>
        <time>2021-06-03T15:13:27.000Z</time>
      </trkpt>
      <trkpt lat="44.85719" lon="-0.54743">
        <ele>13.3</ele>
        <time>2021-06-03T15:13:28.000Z</time>
      </trkpt>
      <trkpt lat="44.85716" lon="-0.54748">
        <ele>13.4</ele>
        <time>2021-06-03T15:13:29.000Z</time>
      </trkpt>
      <trkpt lat="44.85713" lon="-0.54753">
        <ele>13.5</ele>
        <time>2021-06-03T15:13:30.000Z</time>
      </trkpt>
      <trkpt lat="44.85707" lon="-0.54762">
        <ele>13.1</ele>
        <time>2021-06-03T15:13:32.000Z</time>
      </trkpt>
      <trkpt lat="44.85704" lon="-0.54767">
        <ele>13.2</ele>
        <time>2021-06-03T15:13:33.000Z</time>
      </trkpt>
      <trkpt lat="44.85697" lon="-0.54778">
        <ele>13.5</ele>
        <time>2021-06-03T15:13:36.000Z</time>
      </trkpt>
      <trkpt lat="44.85693" lon="-0.54786">
        <ele>13.3</ele>
        <time>2021-06-03T15:13:38.000Z</time>
      </trkpt>
      <trkpt lat="44.85688" lon="-0.54794">
        <ele>13.2</ele>
        <time>2021-06-03T15:13:41.000Z</time>
      </trkpt>
      <trkpt lat="44.85682" lon="-0.54804">
        <ele>13.1</ele>
        <time>2021-06-03T15:13:47.000Z</time>
      </trkpt>
      <trkpt lat="44.85678" lon="-0.54813">
        <ele>13.1</ele>
        <time>2021-06-03T15:13:52.000Z</time>
      </trkpt>
      <trkpt lat="44.85673" lon="-0.54821">
        <ele>13.1</ele>
        <time>2021-06-03T15:13:55.000Z</time>
      </trkpt>
      <trkpt lat="44.85667" lon="-0.54831">
        <ele>12.7</ele>
        <time>2021-06-03T15:13:58.000Z</time>
      </trkpt>
      <trkpt lat="44.85663" lon="-0.54838">
        <ele>13</ele>
        <time>2021-06-03T15:14:00.000Z</time>
      </trkpt>
      <trkpt lat="44.85658" lon="-0.54847">
        <ele>13</ele>
        <time>2021-06-03T15:14:02.000Z</time>
      </trkpt>
      <trkpt lat="44.85653" lon="-0.54856">
        <ele>13</ele>
        <time>2021-06-03T15:14:04.000Z</time>
      </trkpt>
      <trkpt lat="44.85648" lon="-0.54865">
        <ele>13</ele>
        <time>2021-06-03T15:14:06.000Z</time>
      </trkpt>
      <trkpt lat="44.85644" lon="-0.54873">
        <ele>13</ele>
        <time>2021-06-03T15:14:08.000Z</time>
      </trkpt>
      <trkpt lat="44.85642" lon="-0.54882">
        <ele>13.2</ele>
        <time>2021-06-03T15:14:10.000Z</time>
      </trkpt>
      <trkpt lat="44.85639" lon="-0.54889">
        <ele>13.6</ele>
        <time>2021-06-03T15:14:12.000Z</time>
      </trkpt>
      <trkpt lat="44.85635" lon="-0.54897">
        <ele>13.6</ele>
        <time>2021-06-03T15:14:14.000Z</time>
      </trkpt>
      <trkpt lat="44.8563" lon="-0.54905">
        <ele>13.7</ele>
        <time>2021-06-03T15:14:16.000Z</time>
      </trkpt>
      <trkpt lat="44.85626" lon="-0.54912">
        <ele>14</ele>
        <time>2021-06-03T15:14:18.000Z</time>
      </trkpt>
      <trkpt lat="44.85623" lon="-0.5492">
        <ele>14.1</ele>
        <time>2021-06-03T15:14:20.000Z</time>
      </trkpt>
      <trkpt lat="44.85623" lon="-0.54932">
        <ele>13.8</ele>
        <time>2021-06-03T15:14:24.000Z</time>
      </trkpt>
      <trkpt lat="44.8562" lon="-0.54939">
        <ele>14</ele>
        <time>2021-06-03T15:14:27.000Z</time>
      </trkpt>
      <trkpt lat="44.85615" lon="-0.54949">
        <ele>13.7</ele>
        <time>2021-06-03T15:14:30.000Z</time>
      </trkpt>
      <trkpt lat="44.85608" lon="-0.54956">
        <ele>14</ele>
        <time>2021-06-03T15:14:33.000Z</time>
      </trkpt>
      <trkpt lat="44.85601" lon="-0.54958">
        <ele>13.9</ele>
        <time>2021-06-03T15:14:35.000Z</time>
      </trkpt>
      <trkpt lat="44.85597" lon="-0.5496">
        <ele>13.9</ele>
        <time>2021-06-03T15:14:36.000Z</time>
      </trkpt>
      <trkpt lat="44.85591" lon="-0.5497">
        <ele>13.7</ele>
        <time>2021-06-03T15:14:38.000Z</time>
      </trkpt>
      <trkpt lat="44.85586" lon="-0.54979">
        <ele>13.5</ele>
        <time>2021-06-03T15:14:40.000Z</time>
      </trkpt>
      <trkpt lat="44.8558" lon="-0.54989">
        <ele>13.4</ele>
        <time>2021-06-03T15:14:42.000Z</time>
      </trkpt>
      <trkpt lat="44.85578" lon="-0.54995">
        <ele>13.3</ele>
        <time>2021-06-03T15:14:43.000Z</time>
      </trkpt>
      <trkpt lat="44.85575" lon="-0.55">
        <ele>13.4</ele>
        <time>2021-06-03T15:14:44.000Z</time>
      </trkpt>
      <trkpt lat="44.8557" lon="-0.5501">
        <ele>13.5</ele>
        <time>2021-06-03T15:14:46.000Z</time>
      </trkpt>
      <trkpt lat="44.85567" lon="-0.55015">
        <ele>13.5</ele>
        <time>2021-06-03T15:14:47.000Z</time>
      </trkpt>
      <trkpt lat="44.85564" lon="-0.5502">
        <ele>13.5</ele>
        <time>2021-06-03T15:14:48.000Z</time>
      </trkpt>
      <trkpt lat="44.85561" lon="-0.55024">
        <ele>13.6</ele>
        <time>2021-06-03T15:14:49.000Z</time>
      </trkpt>
      <trkpt lat="44.85558" lon="-0.55029">
        <ele>13.7</ele>
        <time>2021-06-03T15:14:50.000Z</time>
      </trkpt>
      <trkpt lat="44.85555" lon="-0.55035">
        <ele>13.4</ele>
        <time>2021-06-03T15:14:51.000Z</time>
      </trkpt>
      <trkpt lat="44.85552" lon="-0.5504">
        <ele>13.1</ele>
        <time>2021-06-03T15:14:52.000Z</time>
      </trkpt>
      <trkpt lat="44.85549" lon="-0.55046">
        <ele>12.9</ele>
        <time>2021-06-03T15:14:53.000Z</time>
      </trkpt>
      <trkpt lat="44.85546" lon="-0.55052">
        <ele>13.1</ele>
        <time>2021-06-03T15:14:54.000Z</time>
      </trkpt>
      <trkpt lat="44.85543" lon="-0.55058">
        <ele>13.3</ele>
        <time>2021-06-03T15:14:55.000Z</time>
      </trkpt>
      <trkpt lat="44.8554" lon="-0.55064">
        <ele>13.4</ele>
        <time>2021-06-03T15:14:56.000Z</time>
      </trkpt>
      <trkpt lat="44.85537" lon="-0.55069">
        <ele>13.5</ele>
        <time>2021-06-03T15:14:57.000Z</time>
      </trkpt>
      <trkpt lat="44.85534" lon="-0.55075">
        <ele>13.6</ele>
        <time>2021-06-03T15:14:58.000Z</time>
      </trkpt>
      <trkpt lat="44.85531" lon="-0.55081">
        <ele>13.5</ele>
        <time>2021-06-03T15:14:59.000Z</time>
      </trkpt>
      <trkpt lat="44.85528" lon="-0.55087">
        <ele>13.4</ele>
        <time>2021-06-03T15:15:00.000Z</time>
      </trkpt>
      <trkpt lat="44.85525" lon="-0.55093">
        <ele>13.3</ele>
        <time>2021-06-03T15:15:01.000Z</time>
      </trkpt>
      <trkpt lat="44.85523" lon="-0.55099">
        <ele>13.2</ele>
        <time>2021-06-03T15:15:02.000Z</time>
      </trkpt>
      <trkpt lat="44.8552" lon="-0.55105">
        <ele>13.3</ele>
        <time>2021-06-03T15:15:03.000Z</time>
      </trkpt>
      <trkpt lat="44.85517" lon="-0.55111">
        <ele>13.4</ele>
        <time>2021-06-03T15:15:04.000Z</time>
      </trkpt>
      <trkpt lat="44.85514" lon="-0.55116">
        <ele>13.5</ele>
        <time>2021-06-03T15:15:05.000Z</time>
      </trkpt>
      <trkpt lat="44.85511" lon="-0.55122">
        <ele>13.4</ele>
        <time>2021-06-03T15:15:06.000Z</time>
      </trkpt>
      <trkpt lat="44.85508" lon="-0.55127">
        <ele>13.4</ele>
        <time>2021-06-03T15:15:07.000Z</time>
      </trkpt>
      <trkpt lat="44.85506" lon="-0.55133">
        <ele>13.3</ele>
        <time>2021-06-03T15:15:08.000Z</time>
      </trkpt>
      <trkpt lat="44.85503" lon="-0.55138">
        <ele>13.2</ele>
        <time>2021-06-03T15:15:09.000Z</time>
      </trkpt>
      <trkpt lat="44.855" lon="-0.55144">
        <ele>13.2</ele>
        <time>2021-06-03T15:15:10.000Z</time>
      </trkpt>
      <trkpt lat="44.85497" lon="-0.5515">
        <ele>13.2</ele>
        <time>2021-06-03T15:15:11.000Z</time>
      </trkpt>
      <trkpt lat="44.85494" lon="-0.55156">
        <ele>13.3</ele>
        <time>2021-06-03T15:15:12.000Z</time>
      </trkpt>
      <trkpt lat="44.85491" lon="-0.55162">
        <ele>13.2</ele>
        <time>2021-06-03T15:15:13.000Z</time>
      </trkpt>
      <trkpt lat="44.85488" lon="-0.55168">
        <ele>13.2</ele>
        <time>2021-06-03T15:15:14.000Z</time>
      </trkpt>
      <trkpt lat="44.85485" lon="-0.55173">
        <ele>13.3</ele>
        <time>2021-06-03T15:15:15.000Z</time>
      </trkpt>
      <trkpt lat="44.85482" lon="-0.55179">
        <ele>13.4</ele>
        <time>2021-06-03T15:15:16.000Z</time>
      </trkpt>
      <trkpt lat="44.8548" lon="-0.55184">
        <ele>13.5</ele>
        <time>2021-06-03T15:15:17.000Z</time>
      </trkpt>
      <trkpt lat="44.85477" lon="-0.5519">
        <ele>13.4</ele>
        <time>2021-06-03T15:15:18.000Z</time>
      </trkpt>
      <trkpt lat="44.85474" lon="-0.55196">
        <ele>13.3</ele>
        <time>2021-06-03T15:15:19.000Z</time>
      </trkpt>
      <trkpt lat="44.85471" lon="-0.55201">
        <ele>13.2</ele>
        <time>2021-06-03T15:15:20.000Z</time>
      </trkpt>
      <trkpt lat="44.85468" lon="-0.55207">
        <ele>13.1</ele>
        <time>2021-06-03T15:15:21.000Z</time>
      </trkpt>
      <trkpt lat="44.85465" lon="-0.55213">
        <ele>12.9</ele>
        <time>2021-06-03T15:15:22.000Z</time>
      </trkpt>
      <trkpt lat="44.85462" lon="-0.55219">
        <ele>12.8</ele>
        <time>2021-06-03T15:15:23.000Z</time>
      </trkpt>
      <trkpt lat="44.85459" lon="-0.55225">
        <ele>12.7</ele>
        <time>2021-06-03T15:15:24.000Z</time>
      </trkpt>
      <trkpt lat="44.85456" lon="-0.55231">
        <ele>12.7</ele>
        <time>2021-06-03T15:15:25.000Z</time>
      </trkpt>
      <trkpt lat="44.85453" lon="-0.55237">
        <ele>12.7</ele>
        <time>2021-06-03T15:15:26.000Z</time>
      </trkpt>
      <trkpt lat="44.8545" lon="-0.55243">
        <ele>12.9</ele>
        <time>2021-06-03T15:15:27.000Z</time>
      </trkpt>
      <trkpt lat="44.85448" lon="-0.55249">
        <ele>13</ele>
        <time>2021-06-03T15:15:28.000Z</time>
      </trkpt>
      <trkpt lat="44.85445" lon="-0.55254">
        <ele>13.1</ele>
        <time>2021-06-03T15:15:29.000Z</time>
      </trkpt>
      <trkpt lat="44.85442" lon="-0.5526">
        <ele>13.3</ele>
        <time>2021-06-03T15:15:30.000Z</time>
      </trkpt>
      <trkpt lat="44.85439" lon="-0.55266">
        <ele>13.5</ele>
        <time>2021-06-03T15:15:31.000Z</time>
      </trkpt>
      <trkpt lat="44.85436" lon="-0.55271">
        <ele>13.4</ele>
        <time>2021-06-03T15:15:32.000Z</time>
      </trkpt>
      <trkpt lat="44.85433" lon="-0.55277">
        <ele>13.3</ele>
        <time>2021-06-03T15:15:33.000Z</time>
      </trkpt>
      <trkpt lat="44.8543" lon="-0.55283">
        <ele>13.2</ele>
        <time>2021-06-03T15:15:34.000Z</time>
      </trkpt>
      <trkpt lat="44.85427" lon="-0.55289">
        <ele>13.1</ele>
        <time>2021-06-03T15:15:35.000Z</time>
      </trkpt>
      <trkpt lat="44.85424" lon="-0.55294">
        <ele>13.1</ele>
        <time>2021-06-03T15:15:36.000Z</time>
      </trkpt>
      <trkpt lat="44.85422" lon="-0.553">
        <ele>13.5</ele>
        <time>2021-06-03T15:15:37.000Z</time>
      </trkpt>
      <trkpt lat="44.85419" lon="-0.55305">
        <ele>13.8</ele>
        <time>2021-06-03T15:15:38.000Z</time>
      </trkpt>
      <trkpt lat="44.85416" lon="-0.55311">
        <ele>13.7</ele>
        <time>2021-06-03T15:15:39.000Z</time>
      </trkpt>
      <trkpt lat="44.85413" lon="-0.55316">
        <ele>13.6</ele>
        <time>2021-06-03T15:15:40.000Z</time>
      </trkpt>
      <trkpt lat="44.8541" lon="-0.55322">
        <ele>13.5</ele>
        <time>2021-06-03T15:15:41.000Z</time>
      </trkpt>
      <trkpt lat="44.85407" lon="-0.55328">
        <ele>13.5</ele>
        <time>2021-06-03T15:15:42.000Z</time>
      </trkpt>
      <trkpt lat="44.85404" lon="-0.55334">
        <ele>13.4</ele>
        <time>2021-06-03T15:15:43.000Z</time>
      </trkpt>
      <trkpt lat="44.85401" lon="-0.55339">
        <ele>13.5</ele>
        <time>2021-06-03T15:15:44.000Z</time>
      </trkpt>
      <trkpt lat="44.85398" lon="-0.55345">
        <ele>13.5</ele>
        <time>2021-06-03T15:15:45.000Z</time>
      </trkpt>
      <trkpt lat="44.85395" lon="-0.55351">
        <ele>13.5</ele>
        <time>2021-06-03T15:15:46.000Z</time>
      </trkpt>
      <trkpt lat="44.85392" lon="-0.55357">
        <ele>13.4</ele>
        <time>2021-06-03T15:15:47.000Z</time>
      </trkpt>
      <trkpt lat="44.85389" lon="-0.55363">
        <ele>13.4</ele>
        <time>2021-06-03T15:15:48.000Z</time>
      </trkpt>
      <trkpt lat="44.85386" lon="-0.55369">
        <ele>13.3</ele>
        <time>2021-06-03T15:15:49.000Z</time>
      </trkpt>
      <trkpt lat="44.85383" lon="-0.55376">
        <ele>13.3</ele>
        <time>2021-06-03T15:15:50.000Z</time>
      </trkpt>
      <trkpt lat="44.8538" lon="-0.55382">
        <ele>13.2</ele>
        <time>2021-06-03T15:15:51.000Z</time>
      </trkpt>
      <trkpt lat="44.85377" lon="-0.55388">
        <ele>13.2</ele>
        <time>2021-06-03T15:15:52.000Z</time>
      </trkpt>
      <trkpt lat="44.85374" lon="-0.55393">
        <ele>13.4</ele>
        <time>2021-06-03T15:15:53.000Z</time>
      </trkpt>
      <trkpt lat="44.85371" lon="-0.55399">
        <ele>13.5</ele>
        <time>2021-06-03T15:15:54.000Z</time>
      </trkpt>
      <trkpt lat="44.85368" lon="-0.55405">
        <ele>13.6</ele>
        <time>2021-06-03T15:15:55.000Z</time>
      </trkpt>
      <trkpt lat="44.85365" lon="-0.55411">
        <ele>13.8</ele>
        <time>2021-06-03T15:15:56.000Z</time>
      </trkpt>
      <trkpt lat="44.85362" lon="-0.55417">
        <ele>13.9</ele>
        <time>2021-06-03T15:15:57.000Z</time>
      </trkpt>
      <trkpt lat="44.85359" lon="-0.55423">
        <ele>13.9</ele>
        <time>2021-06-03T15:15:58.000Z</time>
      </trkpt>
      <trkpt lat="44.85356" lon="-0.55428">
        <ele>13.8</ele>
        <time>2021-06-03T15:15:59.000Z</time>
      </trkpt>
      <trkpt lat="44.85354" lon="-0.55434">
        <ele>14.2</ele>
        <time>2021-06-03T15:16:00.000Z</time>
      </trkpt>
      <trkpt lat="44.85351" lon="-0.55439">
        <ele>14.5</ele>
        <time>2021-06-03T15:16:01.000Z</time>
      </trkpt>
      <trkpt lat="44.85348" lon="-0.55445">
        <ele>14.7</ele>
        <time>2021-06-03T15:16:02.000Z</time>
      </trkpt>
      <trkpt lat="44.85345" lon="-0.5545">
        <ele>14.7</ele>
        <time>2021-06-03T15:16:03.000Z</time>
      </trkpt>
      <trkpt lat="44.85343" lon="-0.55456">
        <ele>14.8</ele>
        <time>2021-06-03T15:16:04.000Z</time>
      </trkpt>
      <trkpt lat="44.8534" lon="-0.55461">
        <ele>14.5</ele>
        <time>2021-06-03T15:16:05.000Z</time>
      </trkpt>
      <trkpt lat="44.85337" lon="-0.55467">
        <ele>14.3</ele>
        <time>2021-06-03T15:16:06.000Z</time>
      </trkpt>
      <trkpt lat="44.85334" lon="-0.55473">
        <ele>13.9</ele>
        <time>2021-06-03T15:16:07.000Z</time>
      </trkpt>
      <trkpt lat="44.85332" lon="-0.55478">
        <ele>13.6</ele>
        <time>2021-06-03T15:16:08.000Z</time>
      </trkpt>
      <trkpt lat="44.85329" lon="-0.55484">
        <ele>13.4</ele>
        <time>2021-06-03T15:16:09.000Z</time>
      </trkpt>
      <trkpt lat="44.85326" lon="-0.55489">
        <ele>13.7</ele>
        <time>2021-06-03T15:16:10.000Z</time>
      </trkpt>
      <trkpt lat="44.85322" lon="-0.55495">
        <ele>13.9</ele>
        <time>2021-06-03T15:16:11.000Z</time>
      </trkpt>
      <trkpt lat="44.85319" lon="-0.555">
        <ele>14</ele>
        <time>2021-06-03T15:16:12.000Z</time>
      </trkpt>
      <trkpt lat="44.85316" lon="-0.55506">
        <ele>14.1</ele>
        <time>2021-06-03T15:16:13.000Z</time>
      </trkpt>
      <trkpt lat="44.85314" lon="-0.55512">
        <ele>14.1</ele>
        <time>2021-06-03T15:16:14.000Z</time>
      </trkpt>
      <trkpt lat="44.85311" lon="-0.55518">
        <ele>14</ele>
        <time>2021-06-03T15:16:15.000Z</time>
      </trkpt>
      <trkpt lat="44.85308" lon="-0.55524">
        <ele>13.9</ele>
        <time>2021-06-03T15:16:16.000Z</time>
      </trkpt>
      <trkpt lat="44.85305" lon="-0.5553">
        <ele>13.7</ele>
        <time>2021-06-03T15:16:17.000Z</time>
      </trkpt>
      <trkpt lat="44.85302" lon="-0.55535">
        <ele>13.5</ele>
        <time>2021-06-03T15:16:18.000Z</time>
      </trkpt>
      <trkpt lat="44.85299" lon="-0.55541">
        <ele>13.5</ele>
        <time>2021-06-03T15:16:19.000Z</time>
      </trkpt>
      <trkpt lat="44.85296" lon="-0.55547">
        <ele>13.5</ele>
        <time>2021-06-03T15:16:20.000Z</time>
      </trkpt>
      <trkpt lat="44.85293" lon="-0.55552">
        <ele>13.6</ele>
        <time>2021-06-03T15:16:21.000Z</time>
      </trkpt>
      <trkpt lat="44.8529" lon="-0.55558">
        <ele>13.3</ele>
        <time>2021-06-03T15:16:22.000Z</time>
      </trkpt>
      <trkpt lat="44.85287" lon="-0.55564">
        <ele>13.1</ele>
        <time>2021-06-03T15:16:23.000Z</time>
      </trkpt>
      <trkpt lat="44.85284" lon="-0.5557">
        <ele>13.2</ele>
        <time>2021-06-03T15:16:24.000Z</time>
      </trkpt>
      <trkpt lat="44.85281" lon="-0.55576">
        <ele>13.3</ele>
        <time>2021-06-03T15:16:25.000Z</time>
      </trkpt>
      <trkpt lat="44.85277" lon="-0.55582">
        <ele>13.1</ele>
        <time>2021-06-03T15:16:26.000Z</time>
      </trkpt>
      <trkpt lat="44.85274" lon="-0.55587">
        <ele>13</ele>
        <time>2021-06-03T15:16:27.000Z</time>
      </trkpt>
      <trkpt lat="44.85271" lon="-0.55593">
        <ele>12.9</ele>
        <time>2021-06-03T15:16:28.000Z</time>
      </trkpt>
      <trkpt lat="44.85268" lon="-0.55599">
        <ele>13.2</ele>
        <time>2021-06-03T15:16:29.000Z</time>
      </trkpt>
      <trkpt lat="44.85265" lon="-0.55605">
        <ele>13.4</ele>
        <time>2021-06-03T15:16:30.000Z</time>
      </trkpt>
      <trkpt lat="44.85262" lon="-0.5561">
        <ele>13.1</ele>
        <time>2021-06-03T15:16:31.000Z</time>
      </trkpt>
      <trkpt lat="44.85259" lon="-0.55616">
        <ele>12.8</ele>
        <time>2021-06-03T15:16:32.000Z</time>
      </trkpt>
      <trkpt lat="44.85256" lon="-0.55621">
        <ele>12.6</ele>
        <time>2021-06-03T15:16:33.000Z</time>
      </trkpt>
      <trkpt lat="44.85253" lon="-0.55627">
        <ele>12.7</ele>
        <time>2021-06-03T15:16:34.000Z</time>
      </trkpt>
      <trkpt lat="44.85251" lon="-0.55632">
        <ele>12.7</ele>
        <time>2021-06-03T15:16:35.000Z</time>
      </trkpt>
      <trkpt lat="44.85248" lon="-0.55638">
        <ele>13</ele>
        <time>2021-06-03T15:16:36.000Z</time>
      </trkpt>
      <trkpt lat="44.85245" lon="-0.55643">
        <ele>13.1</ele>
        <time>2021-06-03T15:16:37.000Z</time>
      </trkpt>
      <trkpt lat="44.85242" lon="-0.55648">
        <ele>13.3</ele>
        <time>2021-06-03T15:16:38.000Z</time>
      </trkpt>
      <trkpt lat="44.85239" lon="-0.55654">
        <ele>13.5</ele>
        <time>2021-06-03T15:16:39.000Z</time>
      </trkpt>
      <trkpt lat="44.85236" lon="-0.55659">
        <ele>13.6</ele>
        <time>2021-06-03T15:16:40.000Z</time>
      </trkpt>
      <trkpt lat="44.85233" lon="-0.55665">
        <ele>13.9</ele>
        <time>2021-06-03T15:16:41.000Z</time>
      </trkpt>
      <trkpt lat="44.85231" lon="-0.5567">
        <ele>14.1</ele>
        <time>2021-06-03T15:16:42.000Z</time>
      </trkpt>
      <trkpt lat="44.85228" lon="-0.55675">
        <ele>14.3</ele>
        <time>2021-06-03T15:16:43.000Z</time>
      </trkpt>
      <trkpt lat="44.85225" lon="-0.55681">
        <ele>14.6</ele>
        <time>2021-06-03T15:16:44.000Z</time>
      </trkpt>
      <trkpt lat="44.85222" lon="-0.55686">
        <ele>14.3</ele>
        <time>2021-06-03T15:16:45.000Z</time>
      </trkpt>
      <trkpt lat="44.8522" lon="-0.55691">
        <ele>14.2</ele>
        <time>2021-06-03T15:16:46.000Z</time>
      </trkpt>
      <trkpt lat="44.85217" lon="-0.55696">
        <ele>14</ele>
        <time>2021-06-03T15:16:47.000Z</time>
      </trkpt>
      <trkpt lat="44.85214" lon="-0.55702">
        <ele>14.2</ele>
        <time>2021-06-03T15:16:48.000Z</time>
      </trkpt>
      <trkpt lat="44.85211" lon="-0.55707">
        <ele>14.4</ele>
        <time>2021-06-03T15:16:49.000Z</time>
      </trkpt>
      <trkpt lat="44.85208" lon="-0.55712">
        <ele>14.3</ele>
        <time>2021-06-03T15:16:50.000Z</time>
      </trkpt>
      <trkpt lat="44.85205" lon="-0.55717">
        <ele>14.2</ele>
        <time>2021-06-03T15:16:51.000Z</time>
      </trkpt>
      <trkpt lat="44.85202" lon="-0.55722">
        <ele>14.1</ele>
        <time>2021-06-03T15:16:52.000Z</time>
      </trkpt>
      <trkpt lat="44.852" lon="-0.55728">
        <ele>13.9</ele>
        <time>2021-06-03T15:16:53.000Z</time>
      </trkpt>
      <trkpt lat="44.85197" lon="-0.55733">
        <ele>13.8</ele>
        <time>2021-06-03T15:16:54.000Z</time>
      </trkpt>
      <trkpt lat="44.85194" lon="-0.55738">
        <ele>13.9</ele>
        <time>2021-06-03T15:16:55.000Z</time>
      </trkpt>
      <trkpt lat="44.85191" lon="-0.55744">
        <ele>13.9</ele>
        <time>2021-06-03T15:16:56.000Z</time>
      </trkpt>
      <trkpt lat="44.85188" lon="-0.55749">
        <ele>13.9</ele>
        <time>2021-06-03T15:16:57.000Z</time>
      </trkpt>
      <trkpt lat="44.85185" lon="-0.55755">
        <ele>13.8</ele>
        <time>2021-06-03T15:16:58.000Z</time>
      </trkpt>
      <trkpt lat="44.85182" lon="-0.5576">
        <ele>13.8</ele>
        <time>2021-06-03T15:16:59.000Z</time>
      </trkpt>
      <trkpt lat="44.8518" lon="-0.55766">
        <ele>13.9</ele>
        <time>2021-06-03T15:17:00.000Z</time>
      </trkpt>
      <trkpt lat="44.85177" lon="-0.55771">
        <ele>14</ele>
        <time>2021-06-03T15:17:01.000Z</time>
      </trkpt>
      <trkpt lat="44.85171" lon="-0.55781">
        <ele>13.9</ele>
        <time>2021-06-03T15:17:03.000Z</time>
      </trkpt>
      <trkpt lat="44.85165" lon="-0.5579">
        <ele>13.8</ele>
        <time>2021-06-03T15:17:05.000Z</time>
      </trkpt>
      <trkpt lat="44.85163" lon="-0.55796">
        <ele>13.8</ele>
        <time>2021-06-03T15:17:06.000Z</time>
      </trkpt>
      <trkpt lat="44.8516" lon="-0.55801">
        <ele>14</ele>
        <time>2021-06-03T15:17:07.000Z</time>
      </trkpt>
      <trkpt lat="44.85157" lon="-0.55806">
        <ele>14.2</ele>
        <time>2021-06-03T15:17:08.000Z</time>
      </trkpt>
      <trkpt lat="44.85155" lon="-0.55811">
        <ele>14.2</ele>
        <time>2021-06-03T15:17:09.000Z</time>
      </trkpt>
      <trkpt lat="44.85152" lon="-0.55816">
        <ele>14.1</ele>
        <time>2021-06-03T15:17:10.000Z</time>
      </trkpt>
      <trkpt lat="44.85146" lon="-0.55826">
        <ele>13.7</ele>
        <time>2021-06-03T15:17:12.000Z</time>
      </trkpt>
      <trkpt lat="44.85143" lon="-0.55831">
        <ele>13.5</ele>
        <time>2021-06-03T15:17:13.000Z</time>
      </trkpt>
      <trkpt lat="44.8514" lon="-0.55837">
        <ele>13.6</ele>
        <time>2021-06-03T15:17:14.000Z</time>
      </trkpt>
      <trkpt lat="44.85138" lon="-0.55842">
        <ele>13.7</ele>
        <time>2021-06-03T15:17:15.000Z</time>
      </trkpt>
      <trkpt lat="44.85135" lon="-0.55848">
        <ele>13.5</ele>
        <time>2021-06-03T15:17:16.000Z</time>
      </trkpt>
      <trkpt lat="44.85131" lon="-0.55853">
        <ele>13.4</ele>
        <time>2021-06-03T15:17:17.000Z</time>
      </trkpt>
      <trkpt lat="44.85128" lon="-0.55859">
        <ele>13.3</ele>
        <time>2021-06-03T15:17:18.000Z</time>
      </trkpt>
      <trkpt lat="44.85125" lon="-0.55864">
        <ele>13.1</ele>
        <time>2021-06-03T15:17:19.000Z</time>
      </trkpt>
      <trkpt lat="44.8512" lon="-0.55874">
        <ele>13.4</ele>
        <time>2021-06-03T15:17:21.000Z</time>
      </trkpt>
      <trkpt lat="44.85117" lon="-0.5588">
        <ele>13.7</ele>
        <time>2021-06-03T15:17:22.000Z</time>
      </trkpt>
      <trkpt lat="44.85114" lon="-0.55885">
        <ele>13.9</ele>
        <time>2021-06-03T15:17:23.000Z</time>
      </trkpt>
      <trkpt lat="44.85111" lon="-0.5589">
        <ele>14</ele>
        <time>2021-06-03T15:17:24.000Z</time>
      </trkpt>
      <trkpt lat="44.85108" lon="-0.55895">
        <ele>14.2</ele>
        <time>2021-06-03T15:17:25.000Z</time>
      </trkpt>
      <trkpt lat="44.85105" lon="-0.55901">
        <ele>14.3</ele>
        <time>2021-06-03T15:17:26.000Z</time>
      </trkpt>
      <trkpt lat="44.85102" lon="-0.55907">
        <ele>14.4</ele>
        <time>2021-06-03T15:17:27.000Z</time>
      </trkpt>
      <trkpt lat="44.851" lon="-0.55913">
        <ele>14.2</ele>
        <time>2021-06-03T15:17:28.000Z</time>
      </trkpt>
      <trkpt lat="44.85097" lon="-0.55919">
        <ele>14</ele>
        <time>2021-06-03T15:17:29.000Z</time>
      </trkpt>
      <trkpt lat="44.85094" lon="-0.55925">
        <ele>13.9</ele>
        <time>2021-06-03T15:17:30.000Z</time>
      </trkpt>
      <trkpt lat="44.85091" lon="-0.55931">
        <ele>13.8</ele>
        <time>2021-06-03T15:17:31.000Z</time>
      </trkpt>
      <trkpt lat="44.85088" lon="-0.55937">
        <ele>13.8</ele>
        <time>2021-06-03T15:17:32.000Z</time>
      </trkpt>
      <trkpt lat="44.85084" lon="-0.55943">
        <ele>14</ele>
        <time>2021-06-03T15:17:33.000Z</time>
      </trkpt>
      <trkpt lat="44.85081" lon="-0.55948">
        <ele>14.1</ele>
        <time>2021-06-03T15:17:34.000Z</time>
      </trkpt>
      <trkpt lat="44.85078" lon="-0.55954">
        <ele>14.3</ele>
        <time>2021-06-03T15:17:35.000Z</time>
      </trkpt>
      <trkpt lat="44.85075" lon="-0.55959">
        <ele>14.5</ele>
        <time>2021-06-03T15:17:36.000Z</time>
      </trkpt>
      <trkpt lat="44.85072" lon="-0.55965">
        <ele>14.6</ele>
        <time>2021-06-03T15:17:37.000Z</time>
      </trkpt>
      <trkpt lat="44.85058" lon="-0.55988">
        <ele>13</ele>
        <time>2021-06-03T15:17:40.000Z</time>
      </trkpt>
      <trkpt lat="44.85054" lon="-0.55996">
        <ele>13.9</ele>
        <time>2021-06-03T15:17:42.000Z</time>
      </trkpt>
      <trkpt lat="44.85034" lon="-0.56035">
        <ele>13</ele>
        <time>2021-06-03T15:17:48.000Z</time>
      </trkpt>
      <trkpt lat="44.85018" lon="-0.56058">
        <ele>13</ele>
        <time>2021-06-03T15:17:52.000Z</time>
      </trkpt>
      <trkpt lat="44.85001" lon="-0.56082">
        <ele>13</ele>
        <time>2021-06-03T15:17:56.000Z</time>
      </trkpt>
      <trkpt lat="44.84986" lon="-0.56105">
        <ele>14</ele>
        <time>2021-06-03T15:18:00.000Z</time>
      </trkpt>
      <trkpt lat="44.8498" lon="-0.56114">
        <ele>14.3</ele>
        <time>2021-06-03T15:18:02.000Z</time>
      </trkpt>
      <trkpt lat="44.84977" lon="-0.56119">
        <ele>14.5</ele>
        <time>2021-06-03T15:18:03.000Z</time>
      </trkpt>
      <trkpt lat="44.84974" lon="-0.56124">
        <ele>14.5</ele>
        <time>2021-06-03T15:18:04.000Z</time>
      </trkpt>
      <trkpt lat="44.84971" lon="-0.56129">
        <ele>14.5</ele>
        <time>2021-06-03T15:18:05.000Z</time>
      </trkpt>
      <trkpt lat="44.84966" lon="-0.56139">
        <ele>15</ele>
        <time>2021-06-03T15:18:07.000Z</time>
      </trkpt>
      <trkpt lat="44.84961" lon="-0.56148">
        <ele>15.3</ele>
        <time>2021-06-03T15:18:09.000Z</time>
      </trkpt>
      <trkpt lat="44.84956" lon="-0.56157">
        <ele>15.2</ele>
        <time>2021-06-03T15:18:11.000Z</time>
      </trkpt>
      <trkpt lat="44.84951" lon="-0.56165">
        <ele>15.2</ele>
        <time>2021-06-03T15:18:13.000Z</time>
      </trkpt>
      <trkpt lat="44.84947" lon="-0.56173">
        <ele>15.3</ele>
        <time>2021-06-03T15:18:15.000Z</time>
      </trkpt>
      <trkpt lat="44.84942" lon="-0.56181">
        <ele>15.5</ele>
        <time>2021-06-03T15:18:17.000Z</time>
      </trkpt>
      <trkpt lat="44.84937" lon="-0.5619">
        <ele>15.1</ele>
        <time>2021-06-03T15:18:20.000Z</time>
      </trkpt>
      <trkpt lat="44.84932" lon="-0.56198">
        <ele>14.7</ele>
        <time>2021-06-03T15:18:23.000Z</time>
      </trkpt>
      <trkpt lat="44.84927" lon="-0.56207">
        <ele>15</ele>
        <time>2021-06-03T15:18:28.000Z</time>
      </trkpt>
      <trkpt lat="44.84927" lon="-0.5622">
        <ele>14.8</ele>
        <time>2021-06-03T15:18:33.000Z</time>
      </trkpt>
      <trkpt lat="44.84929" lon="-0.56231">
        <ele>14.7</ele>
        <time>2021-06-03T15:18:38.000Z</time>
      </trkpt>
      <trkpt lat="44.84938" lon="-0.56233">
        <ele>16.5</ele>
        <time>2021-06-03T15:22:55.000Z</time>
      </trkpt>
      <trkpt lat="44.84938" lon="-0.56233">
        <ele>16.5</ele>
        <time>2021-06-03T15:22:56.000Z</time>
      </trkpt>
      <trkpt lat="44.84928" lon="-0.56234">
        <ele>18</ele>
        <time>2021-06-03T15:25:56.000Z</time>
      </trkpt>
      <trkpt lat="44.8493" lon="-0.56234">
        <ele>18.6</ele>
        <time>2021-06-03T15:26:54.000Z</time>
      </trkpt>
      <trkpt lat="44.84922" lon="-0.5624">
        <ele>19.4</ele>
        <time>2021-06-03T15:27:16.000Z</time>
      </trkpt>
      <trkpt lat="44.84922" lon="-0.5624">
        <ele>19.4</ele>
        <time>2021-06-03T15:27:17.000Z</time>
      </trkpt>
      <trkpt lat="44.84914" lon="-0.56247">
        <ele>19.8</ele>
        <time>2021-06-03T15:29:34.000Z</time>
      </trkpt>
      <trkpt lat="44.84915" lon="-0.56248">
        <ele>20</ele>
        <time>2021-06-03T15:30:30.000Z</time>
      </trkpt>
      <trkpt lat="44.84907" lon="-0.56253">
        <ele>21.5</ele>
        <time>2021-06-03T15:30:38.000Z</time>
      </trkpt>
      <trkpt lat="44.84907" lon="-0.56254">
        <ele>21.3</ele>
        <time>2021-06-03T15:30:39.000Z</time>
      </trkpt>
      <trkpt lat="44.84909" lon="-0.56255">
        <ele>21.2</ele>
        <time>2021-06-03T15:31:26.000Z</time>
      </trkpt>
      <trkpt lat="44.84904" lon="-0.56263">
        <ele>21.3</ele>
        <time>2021-06-03T15:31:28.000Z</time>
      </trkpt>
      <trkpt lat="44.84898" lon="-0.5627">
        <ele>21.3</ele>
        <time>2021-06-03T15:31:30.000Z</time>
      </trkpt>
      <trkpt lat="44.84893" lon="-0.56278">
        <ele>21.3</ele>
        <time>2021-06-03T15:31:32.000Z</time>
      </trkpt>
      <trkpt lat="44.84887" lon="-0.56285">
        <ele>21.8</ele>
        <time>2021-06-03T15:31:34.000Z</time>
      </trkpt>
      <trkpt lat="44.84881" lon="-0.56293">
        <ele>21.4</ele>
        <time>2021-06-03T15:31:36.000Z</time>
      </trkpt>
      <trkpt lat="44.84875" lon="-0.56301">
        <ele>20.9</ele>
        <time>2021-06-03T15:31:38.000Z</time>
      </trkpt>
      <trkpt lat="44.84868" lon="-0.56309">
        <ele>20.9</ele>
        <time>2021-06-03T15:31:40.000Z</time>
      </trkpt>
      <trkpt lat="44.84865" lon="-0.56313">
        <ele>21.2</ele>
        <time>2021-06-03T15:31:41.000Z</time>
      </trkpt>
      <trkpt lat="44.84856" lon="-0.56325">
        <ele>21.5</ele>
        <time>2021-06-03T15:31:44.000Z</time>
      </trkpt>
      <trkpt lat="44.8485" lon="-0.56332">
        <ele>22</ele>
        <time>2021-06-03T15:31:46.000Z</time>
      </trkpt>
      <trkpt lat="44.84845" lon="-0.56339">
        <ele>21.9</ele>
        <time>2021-06-03T15:31:48.000Z</time>
      </trkpt>
      <trkpt lat="44.84838" lon="-0.56348">
        <ele>21.7</ele>
        <time>2021-06-03T15:31:50.000Z</time>
      </trkpt>
      <trkpt lat="44.84835" lon="-0.56352">
        <ele>21.6</ele>
        <time>2021-06-03T15:31:51.000Z</time>
      </trkpt>
      <trkpt lat="44.84829" lon="-0.56361">
        <ele>22.1</ele>
        <time>2021-06-03T15:31:53.000Z</time>
      </trkpt>
      <trkpt lat="44.84822" lon="-0.56369">
        <ele>22.1</ele>
        <time>2021-06-03T15:31:55.000Z</time>
      </trkpt>
      <trkpt lat="44.84817" lon="-0.56377">
        <ele>22.1</ele>
        <time>2021-06-03T15:31:57.000Z</time>
      </trkpt>
      <trkpt lat="44.84813" lon="-0.56382">
        <ele>22.2</ele>
        <time>2021-06-03T15:31:58.000Z</time>
      </trkpt>
      <trkpt lat="44.8481" lon="-0.56386">
        <ele>22.2</ele>
        <time>2021-06-03T15:31:59.000Z</time>
      </trkpt>
      <trkpt lat="44.84807" lon="-0.5639">
        <ele>22.1</ele>
        <time>2021-06-03T15:32:00.000Z</time>
      </trkpt>
      <trkpt lat="44.84803" lon="-0.56394">
        <ele>22.1</ele>
        <time>2021-06-03T15:32:01.000Z</time>
      </trkpt>
      <trkpt lat="44.84799" lon="-0.56398">
        <ele>22.2</ele>
        <time>2021-06-03T15:32:02.000Z</time>
      </trkpt>
      <trkpt lat="44.84793" lon="-0.56406">
        <ele>22.4</ele>
        <time>2021-06-03T15:32:04.000Z</time>
      </trkpt>
      <trkpt lat="44.84787" lon="-0.56413">
        <ele>22.7</ele>
        <time>2021-06-03T15:32:06.000Z</time>
      </trkpt>
      <trkpt lat="44.8478" lon="-0.56421">
        <ele>23</ele>
        <time>2021-06-03T15:32:08.000Z</time>
      </trkpt>
      <trkpt lat="44.84776" lon="-0.56426">
        <ele>23.1</ele>
        <time>2021-06-03T15:32:09.000Z</time>
      </trkpt>
      <trkpt lat="44.84772" lon="-0.5643">
        <ele>23.2</ele>
        <time>2021-06-03T15:32:10.000Z</time>
      </trkpt>
      <trkpt lat="44.84768" lon="-0.56434">
        <ele>22.7</ele>
        <time>2021-06-03T15:32:11.000Z</time>
      </trkpt>
      <trkpt lat="44.84761" lon="-0.5644">
        <ele>22.2</ele>
        <time>2021-06-03T15:32:13.000Z</time>
      </trkpt>
      <trkpt lat="44.84757" lon="-0.56443">
        <ele>22.1</ele>
        <time>2021-06-03T15:32:14.000Z</time>
      </trkpt>
      <trkpt lat="44.84753" lon="-0.56446">
        <ele>22</ele>
        <time>2021-06-03T15:32:15.000Z</time>
      </trkpt>
      <trkpt lat="44.84748" lon="-0.56448">
        <ele>22.2</ele>
        <time>2021-06-03T15:32:16.000Z</time>
      </trkpt>
      <trkpt lat="44.84744" lon="-0.56451">
        <ele>22.4</ele>
        <time>2021-06-03T15:32:17.000Z</time>
      </trkpt>
      <trkpt lat="44.8474" lon="-0.56453">
        <ele>22</ele>
        <time>2021-06-03T15:32:18.000Z</time>
      </trkpt>
      <trkpt lat="44.84735" lon="-0.56456">
        <ele>21.7</ele>
        <time>2021-06-03T15:32:19.000Z</time>
      </trkpt>
      <trkpt lat="44.84731" lon="-0.56458">
        <ele>21.5</ele>
        <time>2021-06-03T15:32:20.000Z</time>
      </trkpt>
      <trkpt lat="44.84726" lon="-0.56461">
        <ele>21.7</ele>
        <time>2021-06-03T15:32:21.000Z</time>
      </trkpt>
      <trkpt lat="44.84721" lon="-0.56463">
        <ele>21.8</ele>
        <time>2021-06-03T15:32:22.000Z</time>
      </trkpt>
      <trkpt lat="44.84716" lon="-0.56466">
        <ele>21.8</ele>
        <time>2021-06-03T15:32:23.000Z</time>
      </trkpt>
      <trkpt lat="44.84712" lon="-0.56469">
        <ele>21.8</ele>
        <time>2021-06-03T15:32:24.000Z</time>
      </trkpt>
      <trkpt lat="44.84707" lon="-0.56472">
        <ele>21.6</ele>
        <time>2021-06-03T15:32:25.000Z</time>
      </trkpt>
      <trkpt lat="44.84703" lon="-0.56474">
        <ele>21.4</ele>
        <time>2021-06-03T15:32:26.000Z</time>
      </trkpt>
      <trkpt lat="44.84698" lon="-0.56477">
        <ele>21.3</ele>
        <time>2021-06-03T15:32:27.000Z</time>
      </trkpt>
      <trkpt lat="44.84694" lon="-0.56479">
        <ele>21</ele>
        <time>2021-06-03T15:32:28.000Z</time>
      </trkpt>
      <trkpt lat="44.84689" lon="-0.56482">
        <ele>20.8</ele>
        <time>2021-06-03T15:32:29.000Z</time>
      </trkpt>
      <trkpt lat="44.84685" lon="-0.56484">
        <ele>21.6</ele>
        <time>2021-06-03T15:32:30.000Z</time>
      </trkpt>
      <trkpt lat="44.84681" lon="-0.56486">
        <ele>22.1</ele>
        <time>2021-06-03T15:32:31.000Z</time>
      </trkpt>
      <trkpt lat="44.84676" lon="-0.56488">
        <ele>22.3</ele>
        <time>2021-06-03T15:32:32.000Z</time>
      </trkpt>
      <trkpt lat="44.84671" lon="-0.5649">
        <ele>22.4</ele>
        <time>2021-06-03T15:32:33.000Z</time>
      </trkpt>
      <trkpt lat="44.84666" lon="-0.56492">
        <ele>22.4</ele>
        <time>2021-06-03T15:32:34.000Z</time>
      </trkpt>
      <trkpt lat="44.84661" lon="-0.56493">
        <ele>22.2</ele>
        <time>2021-06-03T15:32:35.000Z</time>
      </trkpt>
      <trkpt lat="44.84656" lon="-0.56494">
        <ele>22</ele>
        <time>2021-06-03T15:32:36.000Z</time>
      </trkpt>
      <trkpt lat="44.84651" lon="-0.56495">
        <ele>21.7</ele>
        <time>2021-06-03T15:32:37.000Z</time>
      </trkpt>
      <trkpt lat="44.84646" lon="-0.56496">
        <ele>21.4</ele>
        <time>2021-06-03T15:32:38.000Z</time>
      </trkpt>
      <trkpt lat="44.84641" lon="-0.56497">
        <ele>21.2</ele>
        <time>2021-06-03T15:32:39.000Z</time>
      </trkpt>
      <trkpt lat="44.84637" lon="-0.56498">
        <ele>21.4</ele>
        <time>2021-06-03T15:32:40.000Z</time>
      </trkpt>
      <trkpt lat="44.84632" lon="-0.56499">
        <ele>21.5</ele>
        <time>2021-06-03T15:32:41.000Z</time>
      </trkpt>
      <trkpt lat="44.84627" lon="-0.56499">
        <ele>21.5</ele>
        <time>2021-06-03T15:32:42.000Z</time>
      </trkpt>
      <trkpt lat="44.84621" lon="-0.56499">
        <ele>21.6</ele>
        <time>2021-06-03T15:32:43.000Z</time>
      </trkpt>
      <trkpt lat="44.84616" lon="-0.56499">
        <ele>21.7</ele>
        <time>2021-06-03T15:32:44.000Z</time>
      </trkpt>
      <trkpt lat="44.84611" lon="-0.56498">
        <ele>21.8</ele>
        <time>2021-06-03T15:32:45.000Z</time>
      </trkpt>
      <trkpt lat="44.84606" lon="-0.56498">
        <ele>21.8</ele>
        <time>2021-06-03T15:32:46.000Z</time>
      </trkpt>
      <trkpt lat="44.84602" lon="-0.56497">
        <ele>21.9</ele>
        <time>2021-06-03T15:32:47.000Z</time>
      </trkpt>
      <trkpt lat="44.84597" lon="-0.56495">
        <ele>22</ele>
        <time>2021-06-03T15:32:48.000Z</time>
      </trkpt>
      <trkpt lat="44.84592" lon="-0.56494">
        <ele>22.1</ele>
        <time>2021-06-03T15:32:49.000Z</time>
      </trkpt>
      <trkpt lat="44.84587" lon="-0.56492">
        <ele>22.2</ele>
        <time>2021-06-03T15:32:50.000Z</time>
      </trkpt>
      <trkpt lat="44.84583" lon="-0.56491">
        <ele>22.2</ele>
        <time>2021-06-03T15:32:51.000Z</time>
      </trkpt>
      <trkpt lat="44.84577" lon="-0.56491">
        <ele>22.2</ele>
        <time>2021-06-03T15:32:52.000Z</time>
      </trkpt>
      <trkpt lat="44.84572" lon="-0.5649">
        <ele>22.2</ele>
        <time>2021-06-03T15:32:53.000Z</time>
      </trkpt>
      <trkpt lat="44.84567" lon="-0.5649">
        <ele>22.3</ele>
        <time>2021-06-03T15:32:54.000Z</time>
      </trkpt>
      <trkpt lat="44.84562" lon="-0.56489">
        <ele>22.3</ele>
        <time>2021-06-03T15:32:55.000Z</time>
      </trkpt>
      <trkpt lat="44.84556" lon="-0.56489">
        <ele>22</ele>
        <time>2021-06-03T15:32:56.000Z</time>
      </trkpt>
      <trkpt lat="44.84551" lon="-0.56488">
        <ele>21.7</ele>
        <time>2021-06-03T15:32:57.000Z</time>
      </trkpt>
      <trkpt lat="44.84546" lon="-0.56487">
        <ele>21.5</ele>
        <time>2021-06-03T15:32:58.000Z</time>
      </trkpt>
      <trkpt lat="44.84541" lon="-0.56486">
        <ele>21.6</ele>
        <time>2021-06-03T15:32:59.000Z</time>
      </trkpt>
      <trkpt lat="44.84536" lon="-0.56485">
        <ele>21.7</ele>
        <time>2021-06-03T15:33:00.000Z</time>
      </trkpt>
      <trkpt lat="44.84531" lon="-0.56484">
        <ele>22.2</ele>
        <time>2021-06-03T15:33:01.000Z</time>
      </trkpt>
      <trkpt lat="44.84526" lon="-0.56483">
        <ele>22.5</ele>
        <time>2021-06-03T15:33:02.000Z</time>
      </trkpt>
      <trkpt lat="44.84521" lon="-0.56482">
        <ele>22.5</ele>
        <time>2021-06-03T15:33:03.000Z</time>
      </trkpt>
      <trkpt lat="44.84513" lon="-0.56479">
        <ele>22.6</ele>
        <time>2021-06-03T15:33:05.000Z</time>
      </trkpt>
      <trkpt lat="44.84505" lon="-0.56477">
        <ele>22.4</ele>
        <time>2021-06-03T15:33:07.000Z</time>
      </trkpt>
      <trkpt lat="44.845" lon="-0.56476">
        <ele>22.2</ele>
        <time>2021-06-03T15:33:08.000Z</time>
      </trkpt>
      <trkpt lat="44.84496" lon="-0.56474">
        <ele>22</ele>
        <time>2021-06-03T15:33:09.000Z</time>
      </trkpt>
      <trkpt lat="44.84487" lon="-0.56472">
        <ele>21.9</ele>
        <time>2021-06-03T15:33:11.000Z</time>
      </trkpt>
      <trkpt lat="44.84482" lon="-0.56471">
        <ele>21.8</ele>
        <time>2021-06-03T15:33:12.000Z</time>
      </trkpt>
      <trkpt lat="44.84477" lon="-0.5647">
        <ele>21.7</ele>
        <time>2021-06-03T15:33:13.000Z</time>
      </trkpt>
      <trkpt lat="44.84472" lon="-0.56469">
        <ele>21.6</ele>
        <time>2021-06-03T15:33:14.000Z</time>
      </trkpt>
      <trkpt lat="44.84467" lon="-0.56467">
        <ele>21.8</ele>
        <time>2021-06-03T15:33:15.000Z</time>
      </trkpt>
      <trkpt lat="44.84461" lon="-0.56466">
        <ele>21.9</ele>
        <time>2021-06-03T15:33:16.000Z</time>
      </trkpt>
      <trkpt lat="44.84456" lon="-0.56465">
        <ele>22</ele>
        <time>2021-06-03T15:33:17.000Z</time>
      </trkpt>
      <trkpt lat="44.84451" lon="-0.56463">
        <ele>22</ele>
        <time>2021-06-03T15:33:18.000Z</time>
      </trkpt>
      <trkpt lat="44.84446" lon="-0.56463">
        <ele>22</ele>
        <time>2021-06-03T15:33:19.000Z</time>
      </trkpt>
      <trkpt lat="44.84441" lon="-0.56462">
        <ele>22</ele>
        <time>2021-06-03T15:33:20.000Z</time>
      </trkpt>
      <trkpt lat="44.84436" lon="-0.5646">
        <ele>21.9</ele>
        <time>2021-06-03T15:33:21.000Z</time>
      </trkpt>
      <trkpt lat="44.8443" lon="-0.56459">
        <ele>21.9</ele>
        <time>2021-06-03T15:33:22.000Z</time>
      </trkpt>
      <trkpt lat="44.84425" lon="-0.56457">
        <ele>21.8</ele>
        <time>2021-06-03T15:33:23.000Z</time>
      </trkpt>
      <trkpt lat="44.8442" lon="-0.56456">
        <ele>21.7</ele>
        <time>2021-06-03T15:33:24.000Z</time>
      </trkpt>
      <trkpt lat="44.84414" lon="-0.56455">
        <ele>21.4</ele>
        <time>2021-06-03T15:33:25.000Z</time>
      </trkpt>
      <trkpt lat="44.84409" lon="-0.56454">
        <ele>21.2</ele>
        <time>2021-06-03T15:33:26.000Z</time>
      </trkpt>
      <trkpt lat="44.84404" lon="-0.56453">
        <ele>21.4</ele>
        <time>2021-06-03T15:33:27.000Z</time>
      </trkpt>
      <trkpt lat="44.84398" lon="-0.56452">
        <ele>21.5</ele>
        <time>2021-06-03T15:33:28.000Z</time>
      </trkpt>
      <trkpt lat="44.84393" lon="-0.5645">
        <ele>21.5</ele>
        <time>2021-06-03T15:33:29.000Z</time>
      </trkpt>
      <trkpt lat="44.84388" lon="-0.56449">
        <ele>21.5</ele>
        <time>2021-06-03T15:33:30.000Z</time>
      </trkpt>
      <trkpt lat="44.84383" lon="-0.56447">
        <ele>21.5</ele>
        <time>2021-06-03T15:33:31.000Z</time>
      </trkpt>
      <trkpt lat="44.84379" lon="-0.56445">
        <ele>21.6</ele>
        <time>2021-06-03T15:33:32.000Z</time>
      </trkpt>
      <trkpt lat="44.84374" lon="-0.56444">
        <ele>21.6</ele>
        <time>2021-06-03T15:33:33.000Z</time>
      </trkpt>
      <trkpt lat="44.84369" lon="-0.56442">
        <ele>21.3</ele>
        <time>2021-06-03T15:33:34.000Z</time>
      </trkpt>
      <trkpt lat="44.84364" lon="-0.56441">
        <ele>21</ele>
        <time>2021-06-03T15:33:35.000Z</time>
      </trkpt>
      <trkpt lat="44.84359" lon="-0.5644">
        <ele>20.8</ele>
        <time>2021-06-03T15:33:36.000Z</time>
      </trkpt>
      <trkpt lat="44.84354" lon="-0.56438">
        <ele>20.8</ele>
        <time>2021-06-03T15:33:37.000Z</time>
      </trkpt>
      <trkpt lat="44.8435" lon="-0.56436">
        <ele>20.8</ele>
        <time>2021-06-03T15:33:38.000Z</time>
      </trkpt>
      <trkpt lat="44.84345" lon="-0.56434">
        <ele>21</ele>
        <time>2021-06-03T15:33:39.000Z</time>
      </trkpt>
      <trkpt lat="44.84341" lon="-0.56431">
        <ele>21.1</ele>
        <time>2021-06-03T15:33:40.000Z</time>
      </trkpt>
      <trkpt lat="44.84337" lon="-0.56429">
        <ele>21.3</ele>
        <time>2021-06-03T15:33:41.000Z</time>
      </trkpt>
      <trkpt lat="44.84332" lon="-0.56426">
        <ele>21.5</ele>
        <time>2021-06-03T15:33:42.000Z</time>
      </trkpt>
      <trkpt lat="44.84328" lon="-0.56423">
        <ele>21.6</ele>
        <time>2021-06-03T15:33:43.000Z</time>
      </trkpt>
      <trkpt lat="44.84323" lon="-0.5642">
        <ele>21.7</ele>
        <time>2021-06-03T15:33:44.000Z</time>
      </trkpt>
      <trkpt lat="44.84319" lon="-0.56417">
        <ele>21.8</ele>
        <time>2021-06-03T15:33:45.000Z</time>
      </trkpt>
      <trkpt lat="44.84314" lon="-0.56413">
        <ele>21.8</ele>
        <time>2021-06-03T15:33:46.000Z</time>
      </trkpt>
      <trkpt lat="44.84309" lon="-0.5641">
        <ele>21.9</ele>
        <time>2021-06-03T15:33:47.000Z</time>
      </trkpt>
      <trkpt lat="44.84305" lon="-0.56407">
        <ele>21.8</ele>
        <time>2021-06-03T15:33:48.000Z</time>
      </trkpt>
      <trkpt lat="44.843" lon="-0.56404">
        <ele>21.8</ele>
        <time>2021-06-03T15:33:49.000Z</time>
      </trkpt>
      <trkpt lat="44.84295" lon="-0.56401">
        <ele>21.7</ele>
        <time>2021-06-03T15:33:50.000Z</time>
      </trkpt>
      <trkpt lat="44.8429" lon="-0.56399">
        <ele>21.7</ele>
        <time>2021-06-03T15:33:51.000Z</time>
      </trkpt>
      <trkpt lat="44.84286" lon="-0.56396">
        <ele>21.6</ele>
        <time>2021-06-03T15:33:52.000Z</time>
      </trkpt>
      <trkpt lat="44.84281" lon="-0.56393">
        <ele>21.8</ele>
        <time>2021-06-03T15:33:53.000Z</time>
      </trkpt>
      <trkpt lat="44.84276" lon="-0.56389">
        <ele>21.9</ele>
        <time>2021-06-03T15:33:54.000Z</time>
      </trkpt>
      <trkpt lat="44.84272" lon="-0.56386">
        <ele>21.9</ele>
        <time>2021-06-03T15:33:55.000Z</time>
      </trkpt>
      <trkpt lat="44.84267" lon="-0.56383">
        <ele>21.9</ele>
        <time>2021-06-03T15:33:56.000Z</time>
      </trkpt>
      <trkpt lat="44.84263" lon="-0.56379">
        <ele>22</ele>
        <time>2021-06-03T15:33:57.000Z</time>
      </trkpt>
      <trkpt lat="44.84259" lon="-0.56375">
        <ele>21.8</ele>
        <time>2021-06-03T15:33:58.000Z</time>
      </trkpt>
      <trkpt lat="44.84254" lon="-0.56371">
        <ele>21.7</ele>
        <time>2021-06-03T15:33:59.000Z</time>
      </trkpt>
      <trkpt lat="44.8425" lon="-0.56366">
        <ele>21.7</ele>
        <time>2021-06-03T15:34:00.000Z</time>
      </trkpt>
      <trkpt lat="44.84243" lon="-0.56358">
        <ele>21.8</ele>
        <time>2021-06-03T15:34:02.000Z</time>
      </trkpt>
      <trkpt lat="44.8424" lon="-0.56353">
        <ele>21.9</ele>
        <time>2021-06-03T15:34:03.000Z</time>
      </trkpt>
      <trkpt lat="44.84236" lon="-0.56349">
        <ele>21.9</ele>
        <time>2021-06-03T15:34:04.000Z</time>
      </trkpt>
      <trkpt lat="44.84232" lon="-0.56344">
        <ele>21.8</ele>
        <time>2021-06-03T15:34:05.000Z</time>
      </trkpt>
      <trkpt lat="44.84228" lon="-0.56338">
        <ele>21.7</ele>
        <time>2021-06-03T15:34:06.000Z</time>
      </trkpt>
      <trkpt lat="44.84223" lon="-0.56333">
        <ele>21.9</ele>
        <time>2021-06-03T15:34:07.000Z</time>
      </trkpt>
      <trkpt lat="44.84219" lon="-0.56329">
        <ele>22.1</ele>
        <time>2021-06-03T15:34:08.000Z</time>
      </trkpt>
      <trkpt lat="44.84215" lon="-0.56324">
        <ele>22.3</ele>
        <time>2021-06-03T15:34:09.000Z</time>
      </trkpt>
      <trkpt lat="44.84211" lon="-0.5632">
        <ele>22.2</ele>
        <time>2021-06-03T15:34:10.000Z</time>
      </trkpt>
      <trkpt lat="44.84207" lon="-0.56316">
        <ele>22.2</ele>
        <time>2021-06-03T15:34:11.000Z</time>
      </trkpt>
      <trkpt lat="44.84203" lon="-0.56311">
        <ele>22.1</ele>
        <time>2021-06-03T15:34:12.000Z</time>
      </trkpt>
      <trkpt lat="44.84199" lon="-0.56307">
        <ele>22.1</ele>
        <time>2021-06-03T15:34:13.000Z</time>
      </trkpt>
      <trkpt lat="44.84195" lon="-0.56303">
        <ele>22</ele>
        <time>2021-06-03T15:34:14.000Z</time>
      </trkpt>
      <trkpt lat="44.84192" lon="-0.56298">
        <ele>22.1</ele>
        <time>2021-06-03T15:34:15.000Z</time>
      </trkpt>
      <trkpt lat="44.84188" lon="-0.56294">
        <ele>22.2</ele>
        <time>2021-06-03T15:34:16.000Z</time>
      </trkpt>
      <trkpt lat="44.84184" lon="-0.56289">
        <ele>22.1</ele>
        <time>2021-06-03T15:34:17.000Z</time>
      </trkpt>
      <trkpt lat="44.84181" lon="-0.56284">
        <ele>22.1</ele>
        <time>2021-06-03T15:34:18.000Z</time>
      </trkpt>
      <trkpt lat="44.84177" lon="-0.5628">
        <ele>21.6</ele>
        <time>2021-06-03T15:34:19.000Z</time>
      </trkpt>
      <trkpt lat="44.84174" lon="-0.56276">
        <ele>20.9</ele>
        <time>2021-06-03T15:34:20.000Z</time>
      </trkpt>
      <trkpt lat="44.8417" lon="-0.56271">
        <ele>20.7</ele>
        <time>2021-06-03T15:34:21.000Z</time>
      </trkpt>
      <trkpt lat="44.84167" lon="-0.56267">
        <ele>21</ele>
        <time>2021-06-03T15:34:22.000Z</time>
      </trkpt>
      <trkpt lat="44.8416" lon="-0.56259">
        <ele>21.2</ele>
        <time>2021-06-03T15:34:24.000Z</time>
      </trkpt>
      <trkpt lat="44.84154" lon="-0.56251">
        <ele>21.6</ele>
        <time>2021-06-03T15:34:26.000Z</time>
      </trkpt>
      <trkpt lat="44.84147" lon="-0.56243">
        <ele>22</ele>
        <time>2021-06-03T15:34:28.000Z</time>
      </trkpt>
      <trkpt lat="44.84142" lon="-0.56237">
        <ele>22.1</ele>
        <time>2021-06-03T15:34:30.000Z</time>
      </trkpt>
      <trkpt lat="44.84136" lon="-0.56231">
        <ele>22.6</ele>
        <time>2021-06-03T15:34:32.000Z</time>
      </trkpt>
      <trkpt lat="44.84131" lon="-0.56224">
        <ele>22.3</ele>
        <time>2021-06-03T15:34:34.000Z</time>
      </trkpt>
      <trkpt lat="44.84127" lon="-0.56216">
        <ele>22</ele>
        <time>2021-06-03T15:34:37.000Z</time>
      </trkpt>
      <trkpt lat="44.8412" lon="-0.56207">
        <ele>22.1</ele>
        <time>2021-06-03T15:35:05.000Z</time>
      </trkpt>
      <trkpt lat="44.8412" lon="-0.56207">
        <ele>22.1</ele>
        <time>2021-06-03T15:35:06.000Z</time>
      </trkpt>
      <trkpt lat="44.84114" lon="-0.56186">
        <ele>23</ele>
        <time>2021-06-03T15:35:24.000Z</time>
      </trkpt>
      <trkpt lat="44.84112" lon="-0.56178">
        <ele>23</ele>
        <time>2021-06-03T15:35:26.000Z</time>
      </trkpt>
      <trkpt lat="44.84108" lon="-0.5617">
        <ele>23.1</ele>
        <time>2021-06-03T15:35:28.000Z</time>
      </trkpt>
      <trkpt lat="44.84102" lon="-0.56163">
        <ele>23.3</ele>
        <time>2021-06-03T15:35:30.000Z</time>
      </trkpt>
      <trkpt lat="44.8409" lon="-0.5615">
        <ele>23</ele>
        <time>2021-06-03T15:35:34.000Z</time>
      </trkpt>
      <trkpt lat="44.84086" lon="-0.56145">
        <ele>23.1</ele>
        <time>2021-06-03T15:35:36.000Z</time>
      </trkpt>
      <trkpt lat="44.84081" lon="-0.56137">
        <ele>23.5</ele>
        <time>2021-06-03T15:35:38.000Z</time>
      </trkpt>
      <trkpt lat="44.84078" lon="-0.56132">
        <ele>23.8</ele>
        <time>2021-06-03T15:35:39.000Z</time>
      </trkpt>
      <trkpt lat="44.84074" lon="-0.56127">
        <ele>24.1</ele>
        <time>2021-06-03T15:35:40.000Z</time>
      </trkpt>
      <trkpt lat="44.8407" lon="-0.56122">
        <ele>24.3</ele>
        <time>2021-06-03T15:35:41.000Z</time>
      </trkpt>
      <trkpt lat="44.84066" lon="-0.56117">
        <ele>24.1</ele>
        <time>2021-06-03T15:35:42.000Z</time>
      </trkpt>
      <trkpt lat="44.84062" lon="-0.56112">
        <ele>24</ele>
        <time>2021-06-03T15:35:43.000Z</time>
      </trkpt>
      <trkpt lat="44.84057" lon="-0.56108">
        <ele>23.9</ele>
        <time>2021-06-03T15:35:44.000Z</time>
      </trkpt>
      <trkpt lat="44.84052" lon="-0.56105">
        <ele>24.6</ele>
        <time>2021-06-03T15:35:45.000Z</time>
      </trkpt>
      <trkpt lat="44.84047" lon="-0.56101">
        <ele>25.2</ele>
        <time>2021-06-03T15:35:46.000Z</time>
      </trkpt>
      <trkpt lat="44.84042" lon="-0.56098">
        <ele>25.1</ele>
        <time>2021-06-03T15:35:47.000Z</time>
      </trkpt>
      <trkpt lat="44.84039" lon="-0.56093">
        <ele>25</ele>
        <time>2021-06-03T15:35:48.000Z</time>
      </trkpt>
      <trkpt lat="44.84033" lon="-0.56084">
        <ele>25.3</ele>
        <time>2021-06-03T15:35:50.000Z</time>
      </trkpt>
      <trkpt lat="44.84026" lon="-0.56076">
        <ele>26</ele>
        <time>2021-06-03T15:35:52.000Z</time>
      </trkpt>
      <trkpt lat="44.84021" lon="-0.56066">
        <ele>26.6</ele>
        <time>2021-06-03T15:35:54.000Z</time>
      </trkpt>
      <trkpt lat="44.84017" lon="-0.56057">
        <ele>27</ele>
        <time>2021-06-03T15:35:56.000Z</time>
      </trkpt>
      <trkpt lat="44.84013" lon="-0.56049">
        <ele>26.6</ele>
        <time>2021-06-03T15:35:58.000Z</time>
      </trkpt>
      <trkpt lat="44.84004" lon="-0.56048">
        <ele>27.2</ele>
        <time>2021-06-03T15:36:13.000Z</time>
      </trkpt>
      <trkpt lat="44.84004" lon="-0.56049">
        <ele>27.1</ele>
        <time>2021-06-03T15:36:14.000Z</time>
      </trkpt>
      <trkpt lat="44.84004" lon="-0.56047">
        <ele>30.7</ele>
        <time>2021-06-03T15:39:47.000Z</time>
      </trkpt>
      <trkpt lat="44.83923" lon="-0.56159">
        <ele>30.7</ele>
        <time>2021-06-03T15:41:09.000Z</time>
      </trkpt>
      <trkpt lat="44.83918" lon="-0.56167">
        <ele>30.5</ele>
        <time>2021-06-03T15:41:11.000Z</time>
      </trkpt>
      <trkpt lat="44.83912" lon="-0.56176">
        <ele>30.3</ele>
        <time>2021-06-03T15:41:13.000Z</time>
      </trkpt>
      <trkpt lat="44.83909" lon="-0.56181">
        <ele>30.3</ele>
        <time>2021-06-03T15:41:14.000Z</time>
      </trkpt>
      <trkpt lat="44.83906" lon="-0.56186">
        <ele>30.3</ele>
        <time>2021-06-03T15:41:15.000Z</time>
      </trkpt>
      <trkpt lat="44.83902" lon="-0.56192">
        <ele>30.2</ele>
        <time>2021-06-03T15:41:16.000Z</time>
      </trkpt>
      <trkpt lat="44.83899" lon="-0.56197">
        <ele>30</ele>
        <time>2021-06-03T15:41:17.000Z</time>
      </trkpt>
      <trkpt lat="44.83896" lon="-0.56203">
        <ele>30.4</ele>
        <time>2021-06-03T15:41:18.000Z</time>
      </trkpt>
      <trkpt lat="44.83892" lon="-0.56209">
        <ele>30.7</ele>
        <time>2021-06-03T15:41:19.000Z</time>
      </trkpt>
      <trkpt lat="44.83889" lon="-0.56214">
        <ele>30.9</ele>
        <time>2021-06-03T15:41:20.000Z</time>
      </trkpt>
      <trkpt lat="44.83885" lon="-0.5622">
        <ele>30.9</ele>
        <time>2021-06-03T15:41:21.000Z</time>
      </trkpt>
      <trkpt lat="44.83882" lon="-0.56226">
        <ele>30.9</ele>
        <time>2021-06-03T15:41:22.000Z</time>
      </trkpt>
      <trkpt lat="44.83878" lon="-0.56232">
        <ele>30.7</ele>
        <time>2021-06-03T15:41:23.000Z</time>
      </trkpt>
      <trkpt lat="44.83874" lon="-0.56238">
        <ele>30.5</ele>
        <time>2021-06-03T15:41:24.000Z</time>
      </trkpt>
      <trkpt lat="44.8387" lon="-0.56244">
        <ele>30.6</ele>
        <time>2021-06-03T15:41:25.000Z</time>
      </trkpt>
      <trkpt lat="44.83866" lon="-0.5625">
        <ele>30.7</ele>
        <time>2021-06-03T15:41:26.000Z</time>
      </trkpt>
      <trkpt lat="44.83862" lon="-0.56257">
        <ele>30.8</ele>
        <time>2021-06-03T15:41:27.000Z</time>
      </trkpt>
      <trkpt lat="44.83858" lon="-0.56263">
        <ele>31</ele>
        <time>2021-06-03T15:41:28.000Z</time>
      </trkpt>
      <trkpt lat="44.83854" lon="-0.5627">
        <ele>31.1</ele>
        <time>2021-06-03T15:41:29.000Z</time>
      </trkpt>
      <trkpt lat="44.8385" lon="-0.56277">
        <ele>30.9</ele>
        <time>2021-06-03T15:41:30.000Z</time>
      </trkpt>
      <trkpt lat="44.83846" lon="-0.56283">
        <ele>30.7</ele>
        <time>2021-06-03T15:41:31.000Z</time>
      </trkpt>
      <trkpt lat="44.83843" lon="-0.56289">
        <ele>30.9</ele>
        <time>2021-06-03T15:41:32.000Z</time>
      </trkpt>
      <trkpt lat="44.83839" lon="-0.56295">
        <ele>31</ele>
        <time>2021-06-03T15:41:33.000Z</time>
      </trkpt>
      <trkpt lat="44.83835" lon="-0.563">
        <ele>31.1</ele>
        <time>2021-06-03T15:41:34.000Z</time>
      </trkpt>
      <trkpt lat="44.83832" lon="-0.56305">
        <ele>31.3</ele>
        <time>2021-06-03T15:41:35.000Z</time>
      </trkpt>
      <trkpt lat="44.83828" lon="-0.56311">
        <ele>31.5</ele>
        <time>2021-06-03T15:41:36.000Z</time>
      </trkpt>
      <trkpt lat="44.83825" lon="-0.56316">
        <ele>31</ele>
        <time>2021-06-03T15:41:37.000Z</time>
      </trkpt>
      <trkpt lat="44.83822" lon="-0.56321">
        <ele>30.7</ele>
        <time>2021-06-03T15:41:38.000Z</time>
      </trkpt>
      <trkpt lat="44.83819" lon="-0.56326">
        <ele>30.4</ele>
        <time>2021-06-03T15:41:39.000Z</time>
      </trkpt>
      <trkpt lat="44.83816" lon="-0.56331">
        <ele>30.5</ele>
        <time>2021-06-03T15:41:40.000Z</time>
      </trkpt>
      <trkpt lat="44.83812" lon="-0.56337">
        <ele>30.5</ele>
        <time>2021-06-03T15:41:41.000Z</time>
      </trkpt>
      <trkpt lat="44.83809" lon="-0.56342">
        <ele>30.4</ele>
        <time>2021-06-03T15:41:42.000Z</time>
      </trkpt>
      <trkpt lat="44.83806" lon="-0.56347">
        <ele>30.4</ele>
        <time>2021-06-03T15:41:43.000Z</time>
      </trkpt>
      <trkpt lat="44.83803" lon="-0.56352">
        <ele>30.3</ele>
        <time>2021-06-03T15:41:44.000Z</time>
      </trkpt>
      <trkpt lat="44.838" lon="-0.56357">
        <ele>30.3</ele>
        <time>2021-06-03T15:41:45.000Z</time>
      </trkpt>
      <trkpt lat="44.83797" lon="-0.56362">
        <ele>30.3</ele>
        <time>2021-06-03T15:41:46.000Z</time>
      </trkpt>
      <trkpt lat="44.83793" lon="-0.56367">
        <ele>30.4</ele>
        <time>2021-06-03T15:41:47.000Z</time>
      </trkpt>
      <trkpt lat="44.8379" lon="-0.56372">
        <ele>30.5</ele>
        <time>2021-06-03T15:41:48.000Z</time>
      </trkpt>
      <trkpt lat="44.83787" lon="-0.56378">
        <ele>30.5</ele>
        <time>2021-06-03T15:41:49.000Z</time>
      </trkpt>
      <trkpt lat="44.83783" lon="-0.56383">
        <ele>30.5</ele>
        <time>2021-06-03T15:41:50.000Z</time>
      </trkpt>
      <trkpt lat="44.8378" lon="-0.56388">
        <ele>30.4</ele>
        <time>2021-06-03T15:41:51.000Z</time>
      </trkpt>
      <trkpt lat="44.83777" lon="-0.56394">
        <ele>30.3</ele>
        <time>2021-06-03T15:41:52.000Z</time>
      </trkpt>
      <trkpt lat="44.83773" lon="-0.56399">
        <ele>30.2</ele>
        <time>2021-06-03T15:41:53.000Z</time>
      </trkpt>
      <trkpt lat="44.8377" lon="-0.56405">
        <ele>30.3</ele>
        <time>2021-06-03T15:41:54.000Z</time>
      </trkpt>
      <trkpt lat="44.83766" lon="-0.5641">
        <ele>30.4</ele>
        <time>2021-06-03T15:41:55.000Z</time>
      </trkpt>
      <trkpt lat="44.83763" lon="-0.56416">
        <ele>30.3</ele>
        <time>2021-06-03T15:41:56.000Z</time>
      </trkpt>
      <trkpt lat="44.83759" lon="-0.56421">
        <ele>30.2</ele>
        <time>2021-06-03T15:41:57.000Z</time>
      </trkpt>
      <trkpt lat="44.83756" lon="-0.56427">
        <ele>30.1</ele>
        <time>2021-06-03T15:41:58.000Z</time>
      </trkpt>
      <trkpt lat="44.83752" lon="-0.56432">
        <ele>29.6</ele>
        <time>2021-06-03T15:41:59.000Z</time>
      </trkpt>
      <trkpt lat="44.83749" lon="-0.56438">
        <ele>29.3</ele>
        <time>2021-06-03T15:42:00.000Z</time>
      </trkpt>
      <trkpt lat="44.83745" lon="-0.56443">
        <ele>29.1</ele>
        <time>2021-06-03T15:42:01.000Z</time>
      </trkpt>
      <trkpt lat="44.83742" lon="-0.56449">
        <ele>29</ele>
        <time>2021-06-03T15:42:02.000Z</time>
      </trkpt>
      <trkpt lat="44.83738" lon="-0.56454">
        <ele>29.3</ele>
        <time>2021-06-03T15:42:03.000Z</time>
      </trkpt>
      <trkpt lat="44.83735" lon="-0.56459">
        <ele>29.5</ele>
        <time>2021-06-03T15:42:04.000Z</time>
      </trkpt>
      <trkpt lat="44.83732" lon="-0.56464">
        <ele>29.6</ele>
        <time>2021-06-03T15:42:05.000Z</time>
      </trkpt>
      <trkpt lat="44.83727" lon="-0.56473">
        <ele>28.8</ele>
        <time>2021-06-03T15:42:07.000Z</time>
      </trkpt>
      <trkpt lat="44.83721" lon="-0.56482">
        <ele>28.9</ele>
        <time>2021-06-03T15:42:09.000Z</time>
      </trkpt>
      <trkpt lat="44.83719" lon="-0.56487">
        <ele>29.1</ele>
        <time>2021-06-03T15:42:10.000Z</time>
      </trkpt>
      <trkpt lat="44.83711" lon="-0.56498">
        <ele>29.3</ele>
        <time>2021-06-03T15:42:13.000Z</time>
      </trkpt>
      <trkpt lat="44.83707" lon="-0.56505">
        <ele>29.1</ele>
        <time>2021-06-03T15:42:15.000Z</time>
      </trkpt>
      <trkpt lat="44.83702" lon="-0.56515">
        <ele>28.8</ele>
        <time>2021-06-03T15:42:18.000Z</time>
      </trkpt>
      <trkpt lat="44.83693" lon="-0.56515">
        <ele>28.3</ele>
        <time>2021-06-03T15:42:27.000Z</time>
      </trkpt>
      <trkpt lat="44.83685" lon="-0.56509">
        <ele>28.1</ele>
        <time>2021-06-03T15:42:31.000Z</time>
      </trkpt>
      <trkpt lat="44.83679" lon="-0.56506">
        <ele>28.3</ele>
        <time>2021-06-03T15:42:33.000Z</time>
      </trkpt>
      <trkpt lat="44.83673" lon="-0.56502">
        <ele>28.5</ele>
        <time>2021-06-03T15:42:35.000Z</time>
      </trkpt>
      <trkpt lat="44.83666" lon="-0.56497">
        <ele>28.4</ele>
        <time>2021-06-03T15:42:37.000Z</time>
      </trkpt>
      <trkpt lat="44.8366" lon="-0.56491">
        <ele>28.1</ele>
        <time>2021-06-03T15:42:39.000Z</time>
      </trkpt>
      <trkpt lat="44.83654" lon="-0.56483">
        <ele>27.1</ele>
        <time>2021-06-03T15:43:32.000Z</time>
      </trkpt>
      <trkpt lat="44.83651" lon="-0.5648">
        <ele>27</ele>
        <time>2021-06-03T15:43:33.000Z</time>
      </trkpt>
      <trkpt lat="44.83644" lon="-0.5647">
        <ele>27</ele>
        <time>2021-06-03T15:43:36.000Z</time>
      </trkpt>
      <trkpt lat="44.83638" lon="-0.56463">
        <ele>26.4</ele>
        <time>2021-06-03T15:43:38.000Z</time>
      </trkpt>
      <trkpt lat="44.83631" lon="-0.56455">
        <ele>25.9</ele>
        <time>2021-06-03T15:43:40.000Z</time>
      </trkpt>
      <trkpt lat="44.83628" lon="-0.56451">
        <ele>25.8</ele>
        <time>2021-06-03T15:43:41.000Z</time>
      </trkpt>
      <trkpt lat="44.83624" lon="-0.56446">
        <ele>25.8</ele>
        <time>2021-06-03T15:43:42.000Z</time>
      </trkpt>
      <trkpt lat="44.8362" lon="-0.56442">
        <ele>25.8</ele>
        <time>2021-06-03T15:43:43.000Z</time>
      </trkpt>
      <trkpt lat="44.83616" lon="-0.56437">
        <ele>25.8</ele>
        <time>2021-06-03T15:43:44.000Z</time>
      </trkpt>
      <trkpt lat="44.83612" lon="-0.56432">
        <ele>25.7</ele>
        <time>2021-06-03T15:43:45.000Z</time>
      </trkpt>
      <trkpt lat="44.83608" lon="-0.56427">
        <ele>25.7</ele>
        <time>2021-06-03T15:43:46.000Z</time>
      </trkpt>
      <trkpt lat="44.83604" lon="-0.56421">
        <ele>25.6</ele>
        <time>2021-06-03T15:43:47.000Z</time>
      </trkpt>
      <trkpt lat="44.83599" lon="-0.56416">
        <ele>25.5</ele>
        <time>2021-06-03T15:43:48.000Z</time>
      </trkpt>
      <trkpt lat="44.83595" lon="-0.56411">
        <ele>25.4</ele>
        <time>2021-06-03T15:43:49.000Z</time>
      </trkpt>
      <trkpt lat="44.8359" lon="-0.56406">
        <ele>25.7</ele>
        <time>2021-06-03T15:43:50.000Z</time>
      </trkpt>
      <trkpt lat="44.83585" lon="-0.56402">
        <ele>26</ele>
        <time>2021-06-03T15:43:51.000Z</time>
      </trkpt>
      <trkpt lat="44.83579" lon="-0.56397">
        <ele>26.1</ele>
        <time>2021-06-03T15:43:52.000Z</time>
      </trkpt>
      <trkpt lat="44.83574" lon="-0.56392">
        <ele>25.6</ele>
        <time>2021-06-03T15:43:53.000Z</time>
      </trkpt>
      <trkpt lat="44.83568" lon="-0.56387">
        <ele>25.3</ele>
        <time>2021-06-03T15:43:54.000Z</time>
      </trkpt>
      <trkpt lat="44.83563" lon="-0.56383">
        <ele>24.8</ele>
        <time>2021-06-03T15:43:55.000Z</time>
      </trkpt>
      <trkpt lat="44.83557" lon="-0.56378">
        <ele>24.4</ele>
        <time>2021-06-03T15:43:56.000Z</time>
      </trkpt>
      <trkpt lat="44.83551" lon="-0.56374">
        <ele>24</ele>
        <time>2021-06-03T15:43:57.000Z</time>
      </trkpt>
      <trkpt lat="44.83546" lon="-0.5637">
        <ele>23.7</ele>
        <time>2021-06-03T15:43:58.000Z</time>
      </trkpt>
      <trkpt lat="44.8354" lon="-0.56365">
        <ele>23.5</ele>
        <time>2021-06-03T15:43:59.000Z</time>
      </trkpt>
      <trkpt lat="44.83535" lon="-0.56361">
        <ele>23.5</ele>
        <time>2021-06-03T15:44:00.000Z</time>
      </trkpt>
      <trkpt lat="44.8353" lon="-0.56357">
        <ele>23.5</ele>
        <time>2021-06-03T15:44:01.000Z</time>
      </trkpt>
      <trkpt lat="44.83524" lon="-0.56352">
        <ele>23.5</ele>
        <time>2021-06-03T15:44:02.000Z</time>
      </trkpt>
      <trkpt lat="44.83519" lon="-0.56347">
        <ele>23.4</ele>
        <time>2021-06-03T15:44:03.000Z</time>
      </trkpt>
      <trkpt lat="44.83514" lon="-0.56343">
        <ele>23.3</ele>
        <time>2021-06-03T15:44:04.000Z</time>
      </trkpt>
      <trkpt lat="44.83509" lon="-0.56339">
        <ele>23.3</ele>
        <time>2021-06-03T15:44:05.000Z</time>
      </trkpt>
      <trkpt lat="44.83505" lon="-0.56334">
        <ele>23.2</ele>
        <time>2021-06-03T15:44:06.000Z</time>
      </trkpt>
      <trkpt lat="44.835" lon="-0.5633">
        <ele>23.2</ele>
        <time>2021-06-03T15:44:07.000Z</time>
      </trkpt>
      <trkpt lat="44.83496" lon="-0.56326">
        <ele>23.1</ele>
        <time>2021-06-03T15:44:08.000Z</time>
      </trkpt>
      <trkpt lat="44.83491" lon="-0.56322">
        <ele>23.1</ele>
        <time>2021-06-03T15:44:09.000Z</time>
      </trkpt>
      <trkpt lat="44.83487" lon="-0.56318">
        <ele>23.1</ele>
        <time>2021-06-03T15:44:10.000Z</time>
      </trkpt>
      <trkpt lat="44.83483" lon="-0.56314">
        <ele>23.1</ele>
        <time>2021-06-03T15:44:11.000Z</time>
      </trkpt>
      <trkpt lat="44.83479" lon="-0.56309">
        <ele>22.9</ele>
        <time>2021-06-03T15:44:12.000Z</time>
      </trkpt>
      <trkpt lat="44.83474" lon="-0.56305">
        <ele>22.8</ele>
        <time>2021-06-03T15:44:13.000Z</time>
      </trkpt>
      <trkpt lat="44.8347" lon="-0.56301">
        <ele>22.8</ele>
        <time>2021-06-03T15:44:14.000Z</time>
      </trkpt>
      <trkpt lat="44.83466" lon="-0.56296">
        <ele>22.8</ele>
        <time>2021-06-03T15:44:15.000Z</time>
      </trkpt>
      <trkpt lat="44.83462" lon="-0.56292">
        <ele>23</ele>
        <time>2021-06-03T15:44:16.000Z</time>
      </trkpt>
      <trkpt lat="44.83458" lon="-0.56287">
        <ele>23.1</ele>
        <time>2021-06-03T15:44:17.000Z</time>
      </trkpt>
      <trkpt lat="44.83454" lon="-0.56283">
        <ele>23.2</ele>
        <time>2021-06-03T15:44:18.000Z</time>
      </trkpt>
      <trkpt lat="44.8345" lon="-0.56278">
        <ele>23.1</ele>
        <time>2021-06-03T15:44:19.000Z</time>
      </trkpt>
      <trkpt lat="44.83446" lon="-0.56274">
        <ele>23.1</ele>
        <time>2021-06-03T15:44:20.000Z</time>
      </trkpt>
      <trkpt lat="44.83442" lon="-0.5627">
        <ele>23</ele>
        <time>2021-06-03T15:44:21.000Z</time>
      </trkpt>
      <trkpt lat="44.83438" lon="-0.56266">
        <ele>23</ele>
        <time>2021-06-03T15:44:22.000Z</time>
      </trkpt>
      <trkpt lat="44.83435" lon="-0.56262">
        <ele>23.1</ele>
        <time>2021-06-03T15:44:23.000Z</time>
      </trkpt>
      <trkpt lat="44.83431" lon="-0.56258">
        <ele>23.2</ele>
        <time>2021-06-03T15:44:24.000Z</time>
      </trkpt>
      <trkpt lat="44.83427" lon="-0.56253">
        <ele>23.2</ele>
        <time>2021-06-03T15:44:25.000Z</time>
      </trkpt>
      <trkpt lat="44.83423" lon="-0.56248">
        <ele>23.1</ele>
        <time>2021-06-03T15:44:26.000Z</time>
      </trkpt>
      <trkpt lat="44.83419" lon="-0.56243">
        <ele>23</ele>
        <time>2021-06-03T15:44:27.000Z</time>
      </trkpt>
      <trkpt lat="44.83415" lon="-0.56238">
        <ele>23.1</ele>
        <time>2021-06-03T15:44:28.000Z</time>
      </trkpt>
      <trkpt lat="44.83411" lon="-0.56232">
        <ele>23.1</ele>
        <time>2021-06-03T15:44:29.000Z</time>
      </trkpt>
      <trkpt lat="44.83407" lon="-0.56227">
        <ele>23.2</ele>
        <time>2021-06-03T15:44:30.000Z</time>
      </trkpt>
      <trkpt lat="44.83403" lon="-0.56221">
        <ele>23.3</ele>
        <time>2021-06-03T15:44:31.000Z</time>
      </trkpt>
      <trkpt lat="44.83399" lon="-0.56216">
        <ele>23.4</ele>
        <time>2021-06-03T15:44:32.000Z</time>
      </trkpt>
      <trkpt lat="44.83395" lon="-0.5621">
        <ele>23.3</ele>
        <time>2021-06-03T15:44:33.000Z</time>
      </trkpt>
      <trkpt lat="44.8339" lon="-0.56205">
        <ele>23.2</ele>
        <time>2021-06-03T15:44:34.000Z</time>
      </trkpt>
      <trkpt lat="44.83386" lon="-0.562">
        <ele>23.4</ele>
        <time>2021-06-03T15:44:35.000Z</time>
      </trkpt>
      <trkpt lat="44.83382" lon="-0.56194">
        <ele>23.6</ele>
        <time>2021-06-03T15:44:36.000Z</time>
      </trkpt>
      <trkpt lat="44.83378" lon="-0.56189">
        <ele>23.8</ele>
        <time>2021-06-03T15:44:37.000Z</time>
      </trkpt>
      <trkpt lat="44.83374" lon="-0.56183">
        <ele>24</ele>
        <time>2021-06-03T15:44:38.000Z</time>
      </trkpt>
      <trkpt lat="44.8337" lon="-0.56178">
        <ele>24.1</ele>
        <time>2021-06-03T15:44:39.000Z</time>
      </trkpt>
      <trkpt lat="44.83367" lon="-0.56172">
        <ele>24</ele>
        <time>2021-06-03T15:44:40.000Z</time>
      </trkpt>
      <trkpt lat="44.83363" lon="-0.56167">
        <ele>24</ele>
        <time>2021-06-03T15:44:41.000Z</time>
      </trkpt>
      <trkpt lat="44.83359" lon="-0.56162">
        <ele>23.9</ele>
        <time>2021-06-03T15:44:42.000Z</time>
      </trkpt>
      <trkpt lat="44.83356" lon="-0.56157">
        <ele>23.9</ele>
        <time>2021-06-03T15:44:43.000Z</time>
      </trkpt>
      <trkpt lat="44.83352" lon="-0.56151">
        <ele>23.8</ele>
        <time>2021-06-03T15:44:44.000Z</time>
      </trkpt>
      <trkpt lat="44.83348" lon="-0.56146">
        <ele>23.8</ele>
        <time>2021-06-03T15:44:45.000Z</time>
      </trkpt>
      <trkpt lat="44.83344" lon="-0.5614">
        <ele>23.8</ele>
        <time>2021-06-03T15:44:46.000Z</time>
      </trkpt>
      <trkpt lat="44.8334" lon="-0.56135">
        <ele>24.2</ele>
        <time>2021-06-03T15:44:47.000Z</time>
      </trkpt>
      <trkpt lat="44.83336" lon="-0.56129">
        <ele>24.5</ele>
        <time>2021-06-03T15:44:48.000Z</time>
      </trkpt>
      <trkpt lat="44.83333" lon="-0.56123">
        <ele>24.7</ele>
        <time>2021-06-03T15:44:49.000Z</time>
      </trkpt>
      <trkpt lat="44.83329" lon="-0.56117">
        <ele>24.4</ele>
        <time>2021-06-03T15:44:50.000Z</time>
      </trkpt>
      <trkpt lat="44.83325" lon="-0.56112">
        <ele>24.1</ele>
        <time>2021-06-03T15:44:51.000Z</time>
      </trkpt>
      <trkpt lat="44.83321" lon="-0.56106">
        <ele>24.2</ele>
        <time>2021-06-03T15:44:52.000Z</time>
      </trkpt>
      <trkpt lat="44.83317" lon="-0.561">
        <ele>24.2</ele>
        <time>2021-06-03T15:44:53.000Z</time>
      </trkpt>
      <trkpt lat="44.83313" lon="-0.56094">
        <ele>24.1</ele>
        <time>2021-06-03T15:44:54.000Z</time>
      </trkpt>
      <trkpt lat="44.83309" lon="-0.56088">
        <ele>24.1</ele>
        <time>2021-06-03T15:44:55.000Z</time>
      </trkpt>
      <trkpt lat="44.83306" lon="-0.56082">
        <ele>24.1</ele>
        <time>2021-06-03T15:44:56.000Z</time>
      </trkpt>
      <trkpt lat="44.83302" lon="-0.56076">
        <ele>24.2</ele>
        <time>2021-06-03T15:44:57.000Z</time>
      </trkpt>
      <trkpt lat="44.83297" lon="-0.56069">
        <ele>24.4</ele>
        <time>2021-06-03T15:44:58.000Z</time>
      </trkpt>
      <trkpt lat="44.83293" lon="-0.56062">
        <ele>23.9</ele>
        <time>2021-06-03T15:44:59.000Z</time>
      </trkpt>
      <trkpt lat="44.83289" lon="-0.56056">
        <ele>23.6</ele>
        <time>2021-06-03T15:45:00.000Z</time>
      </trkpt>
      <trkpt lat="44.83285" lon="-0.56049">
        <ele>23.6</ele>
        <time>2021-06-03T15:45:01.000Z</time>
      </trkpt>
      <trkpt lat="44.83281" lon="-0.56043">
        <ele>23.6</ele>
        <time>2021-06-03T15:45:02.000Z</time>
      </trkpt>
      <trkpt lat="44.83277" lon="-0.56037">
        <ele>23.6</ele>
        <time>2021-06-03T15:45:03.000Z</time>
      </trkpt>
      <trkpt lat="44.83273" lon="-0.5603">
        <ele>23.8</ele>
        <time>2021-06-03T15:45:04.000Z</time>
      </trkpt>
      <trkpt lat="44.83269" lon="-0.56024">
        <ele>23.9</ele>
        <time>2021-06-03T15:45:05.000Z</time>
      </trkpt>
      <trkpt lat="44.83265" lon="-0.56018">
        <ele>24</ele>
        <time>2021-06-03T15:45:06.000Z</time>
      </trkpt>
      <trkpt lat="44.83262" lon="-0.56012">
        <ele>24.1</ele>
        <time>2021-06-03T15:45:07.000Z</time>
      </trkpt>
      <trkpt lat="44.83258" lon="-0.56006">
        <ele>24.2</ele>
        <time>2021-06-03T15:45:08.000Z</time>
      </trkpt>
      <trkpt lat="44.83254" lon="-0.56">
        <ele>24.1</ele>
        <time>2021-06-03T15:45:09.000Z</time>
      </trkpt>
      <trkpt lat="44.8325" lon="-0.55994">
        <ele>24.1</ele>
        <time>2021-06-03T15:45:10.000Z</time>
      </trkpt>
      <trkpt lat="44.83247" lon="-0.55988">
        <ele>23.8</ele>
        <time>2021-06-03T15:45:11.000Z</time>
      </trkpt>
      <trkpt lat="44.83244" lon="-0.55982">
        <ele>23.7</ele>
        <time>2021-06-03T15:45:12.000Z</time>
      </trkpt>
      <trkpt lat="44.8324" lon="-0.55976">
        <ele>23.6</ele>
        <time>2021-06-03T15:45:13.000Z</time>
      </trkpt>
      <trkpt lat="44.83237" lon="-0.5597">
        <ele>23.6</ele>
        <time>2021-06-03T15:45:14.000Z</time>
      </trkpt>
      <trkpt lat="44.83234" lon="-0.55964">
        <ele>23.6</ele>
        <time>2021-06-03T15:45:15.000Z</time>
      </trkpt>
      <trkpt lat="44.83231" lon="-0.55958">
        <ele>23.8</ele>
        <time>2021-06-03T15:45:16.000Z</time>
      </trkpt>
      <trkpt lat="44.83227" lon="-0.55953">
        <ele>24</ele>
        <time>2021-06-03T15:45:17.000Z</time>
      </trkpt>
      <trkpt lat="44.83224" lon="-0.55948">
        <ele>23.7</ele>
        <time>2021-06-03T15:45:18.000Z</time>
      </trkpt>
      <trkpt lat="44.83221" lon="-0.55942">
        <ele>23.5</ele>
        <time>2021-06-03T15:45:19.000Z</time>
      </trkpt>
      <trkpt lat="44.83218" lon="-0.55937">
        <ele>23.4</ele>
        <time>2021-06-03T15:45:20.000Z</time>
      </trkpt>
      <trkpt lat="44.83212" lon="-0.55927">
        <ele>23.3</ele>
        <time>2021-06-03T15:45:22.000Z</time>
      </trkpt>
      <trkpt lat="44.83207" lon="-0.55918">
        <ele>23.2</ele>
        <time>2021-06-03T15:45:24.000Z</time>
      </trkpt>
      <trkpt lat="44.83202" lon="-0.55909">
        <ele>24</ele>
        <time>2021-06-03T15:45:26.000Z</time>
      </trkpt>
      <trkpt lat="44.83197" lon="-0.559">
        <ele>24.1</ele>
        <time>2021-06-03T15:45:28.000Z</time>
      </trkpt>
      <trkpt lat="44.83193" lon="-0.55891">
        <ele>24.1</ele>
        <time>2021-06-03T15:45:30.000Z</time>
      </trkpt>
      <trkpt lat="44.83191" lon="-0.55881">
        <ele>24.2</ele>
        <time>2021-06-03T15:45:32.000Z</time>
      </trkpt>
      <trkpt lat="44.83187" lon="-0.5587">
        <ele>24.4</ele>
        <time>2021-06-03T15:45:35.000Z</time>
      </trkpt>
      <trkpt lat="44.83187" lon="-0.55868">
        <ele>24.3</ele>
        <time>2021-06-03T15:45:36.000Z</time>
      </trkpt>
      <trkpt lat="44.83171" lon="-0.55861">
        <ele>23.6</ele>
        <time>2021-06-03T15:46:32.000Z</time>
      </trkpt>
      <trkpt lat="44.83165" lon="-0.55866">
        <ele>23.9</ele>
        <time>2021-06-03T15:46:39.000Z</time>
      </trkpt>
      <trkpt lat="44.83162" lon="-0.55868">
        <ele>23.8</ele>
        <time>2021-06-03T15:46:40.000Z</time>
      </trkpt>
      <trkpt lat="44.83153" lon="-0.55879">
        <ele>23.4</ele>
        <time>2021-06-03T15:46:45.000Z</time>
      </trkpt>
      <trkpt lat="44.83147" lon="-0.55885">
        <ele>23.9</ele>
        <time>2021-06-03T15:46:48.000Z</time>
      </trkpt>
      <trkpt lat="44.8314" lon="-0.55884">
        <ele>24</ele>
        <time>2021-06-03T15:46:51.000Z</time>
      </trkpt>
      <trkpt lat="44.83133" lon="-0.55883">
        <ele>24.1</ele>
        <time>2021-06-03T15:46:53.000Z</time>
      </trkpt>
      <trkpt lat="44.83127" lon="-0.55887">
        <ele>23.9</ele>
        <time>2021-06-03T15:46:55.000Z</time>
      </trkpt>
      <trkpt lat="44.8312" lon="-0.55892">
        <ele>24.2</ele>
        <time>2021-06-03T15:46:58.000Z</time>
      </trkpt>
      <trkpt lat="44.83113" lon="-0.55896">
        <ele>23.9</ele>
        <time>2021-06-03T15:47:06.000Z</time>
      </trkpt>
      <trkpt lat="44.83107" lon="-0.559">
        <ele>24.6</ele>
        <time>2021-06-03T15:47:09.000Z</time>
      </trkpt>
      <trkpt lat="44.831" lon="-0.55904">
        <ele>25.1</ele>
        <time>2021-06-03T15:47:11.000Z</time>
      </trkpt>
      <trkpt lat="44.83094" lon="-0.55909">
        <ele>24.7</ele>
        <time>2021-06-03T15:47:13.000Z</time>
      </trkpt>
      <trkpt lat="44.83087" lon="-0.55913">
        <ele>24.5</ele>
        <time>2021-06-03T15:47:15.000Z</time>
      </trkpt>
      <trkpt lat="44.83079" lon="-0.55918">
        <ele>24.3</ele>
        <time>2021-06-03T15:47:17.000Z</time>
      </trkpt>
      <trkpt lat="44.83071" lon="-0.55923">
        <ele>24.7</ele>
        <time>2021-06-03T15:47:19.000Z</time>
      </trkpt>
      <trkpt lat="44.83063" lon="-0.55928">
        <ele>25.2</ele>
        <time>2021-06-03T15:47:21.000Z</time>
      </trkpt>
      <trkpt lat="44.83056" lon="-0.55933">
        <ele>25.4</ele>
        <time>2021-06-03T15:47:23.000Z</time>
      </trkpt>
      <trkpt lat="44.83048" lon="-0.55938">
        <ele>25.2</ele>
        <time>2021-06-03T15:47:25.000Z</time>
      </trkpt>
      <trkpt lat="44.83042" lon="-0.55946">
        <ele>24.2</ele>
        <time>2021-06-03T15:47:27.000Z</time>
      </trkpt>
      <trkpt lat="44.8304" lon="-0.55958">
        <ele>24.3</ele>
        <time>2021-06-03T15:47:29.000Z</time>
      </trkpt>
      <trkpt lat="44.8304" lon="-0.55965">
        <ele>24.4</ele>
        <time>2021-06-03T15:47:30.000Z</time>
      </trkpt>
      <trkpt lat="44.8304" lon="-0.55972">
        <ele>24.3</ele>
        <time>2021-06-03T15:47:31.000Z</time>
      </trkpt>
      <trkpt lat="44.8304" lon="-0.55979">
        <ele>24.1</ele>
        <time>2021-06-03T15:47:32.000Z</time>
      </trkpt>
      <trkpt lat="44.8304" lon="-0.55986">
        <ele>23.9</ele>
        <time>2021-06-03T15:47:33.000Z</time>
      </trkpt>
      <trkpt lat="44.8304" lon="-0.55993">
        <ele>23.7</ele>
        <time>2021-06-03T15:47:34.000Z</time>
      </trkpt>
      <trkpt lat="44.8304" lon="-0.55999">
        <ele>23.6</ele>
        <time>2021-06-03T15:47:35.000Z</time>
      </trkpt>
      <trkpt lat="44.8304" lon="-0.56006">
        <ele>23.9</ele>
        <time>2021-06-03T15:47:36.000Z</time>
      </trkpt>
      <trkpt lat="44.8304" lon="-0.56018">
        <ele>24.4</ele>
        <time>2021-06-03T15:47:38.000Z</time>
      </trkpt>
      <trkpt lat="44.83039" lon="-0.56028">
        <ele>24.9</ele>
        <time>2021-06-03T15:47:40.000Z</time>
      </trkpt>
      <trkpt lat="44.83038" lon="-0.56032">
        <ele>25</ele>
        <time>2021-06-03T15:47:41.000Z</time>
      </trkpt>
      <trkpt lat="44.83027" lon="-0.56043">
        <ele>25.5</ele>
        <time>2021-06-03T15:48:02.000Z</time>
      </trkpt>
      <trkpt lat="44.83021" lon="-0.5604">
        <ele>25.7</ele>
        <time>2021-06-03T15:48:04.000Z</time>
      </trkpt>
      <trkpt lat="44.83016" lon="-0.56034">
        <ele>26.1</ele>
        <time>2021-06-03T15:48:06.000Z</time>
      </trkpt>
      <trkpt lat="44.8301" lon="-0.56025">
        <ele>26.5</ele>
        <time>2021-06-03T15:48:08.000Z</time>
      </trkpt>
      <trkpt lat="44.83004" lon="-0.56017">
        <ele>25.9</ele>
        <time>2021-06-03T15:48:10.000Z</time>
      </trkpt>
      <trkpt lat="44.82999" lon="-0.56008">
        <ele>25.8</ele>
        <time>2021-06-03T15:48:12.000Z</time>
      </trkpt>
      <trkpt lat="44.82994" lon="-0.56">
        <ele>25.8</ele>
        <time>2021-06-03T15:48:14.000Z</time>
      </trkpt>
      <trkpt lat="44.8299" lon="-0.55992">
        <ele>25.9</ele>
        <time>2021-06-03T15:48:16.000Z</time>
      </trkpt>
      <trkpt lat="44.82986" lon="-0.55984">
        <ele>25.5</ele>
        <time>2021-06-03T15:48:18.000Z</time>
      </trkpt>
      <trkpt lat="44.82982" lon="-0.55977">
        <ele>25</ele>
        <time>2021-06-03T15:48:20.000Z</time>
      </trkpt>
      <trkpt lat="44.82976" lon="-0.55972">
        <ele>25.2</ele>
        <time>2021-06-03T15:48:23.000Z</time>
      </trkpt>
      <trkpt lat="44.82968" lon="-0.55977">
        <ele>25.3</ele>
        <time>2021-06-03T15:48:25.000Z</time>
      </trkpt>
      <trkpt lat="44.82964" lon="-0.5598">
        <ele>25.1</ele>
        <time>2021-06-03T15:48:26.000Z</time>
      </trkpt>
      <trkpt lat="44.82956" lon="-0.55985">
        <ele>24.8</ele>
        <time>2021-06-03T15:48:28.000Z</time>
      </trkpt>
      <trkpt lat="44.82948" lon="-0.55989">
        <ele>24.6</ele>
        <time>2021-06-03T15:48:30.000Z</time>
      </trkpt>
      <trkpt lat="44.8294" lon="-0.55994">
        <ele>24.4</ele>
        <time>2021-06-03T15:48:32.000Z</time>
      </trkpt>
      <trkpt lat="44.82933" lon="-0.56">
        <ele>24.5</ele>
        <time>2021-06-03T15:48:34.000Z</time>
      </trkpt>
      <trkpt lat="44.82927" lon="-0.56004">
        <ele>24.1</ele>
        <time>2021-06-03T15:48:36.000Z</time>
      </trkpt>
      <trkpt lat="44.82919" lon="-0.56006">
        <ele>24.3</ele>
        <time>2021-06-03T15:48:40.000Z</time>
      </trkpt>
      <trkpt lat="44.82912" lon="-0.5601">
        <ele>24.5</ele>
        <time>2021-06-03T15:48:44.000Z</time>
      </trkpt>
      <trkpt lat="44.8291" lon="-0.56011">
        <ele>24.5</ele>
        <time>2021-06-03T15:48:45.000Z</time>
      </trkpt>
      <trkpt lat="44.82898" lon="-0.56018">
        <ele>25.1</ele>
        <time>2021-06-03T15:48:49.000Z</time>
      </trkpt>
      <trkpt lat="44.82892" lon="-0.56024">
        <ele>25.1</ele>
        <time>2021-06-03T15:48:51.000Z</time>
      </trkpt>
      <trkpt lat="44.82886" lon="-0.5603">
        <ele>24.7</ele>
        <time>2021-06-03T15:48:53.000Z</time>
      </trkpt>
      <trkpt lat="44.8288" lon="-0.56037">
        <ele>24.2</ele>
        <time>2021-06-03T15:48:55.000Z</time>
      </trkpt>
      <trkpt lat="44.82876" lon="-0.56043">
        <ele>24</ele>
        <time>2021-06-03T15:48:58.000Z</time>
      </trkpt>
      <trkpt lat="44.8287" lon="-0.56048">
        <ele>24.1</ele>
        <time>2021-06-03T15:49:00.000Z</time>
      </trkpt>
      <trkpt lat="44.82862" lon="-0.56053">
        <ele>23.5</ele>
        <time>2021-06-03T15:49:02.000Z</time>
      </trkpt>
      <trkpt lat="44.82858" lon="-0.56055">
        <ele>23.5</ele>
        <time>2021-06-03T15:49:03.000Z</time>
      </trkpt>
      <trkpt lat="44.82854" lon="-0.56058">
        <ele>23.4</ele>
        <time>2021-06-03T15:49:04.000Z</time>
      </trkpt>
      <trkpt lat="44.82849" lon="-0.56061">
        <ele>23.4</ele>
        <time>2021-06-03T15:49:05.000Z</time>
      </trkpt>
      <trkpt lat="44.82844" lon="-0.56064">
        <ele>23.5</ele>
        <time>2021-06-03T15:49:06.000Z</time>
      </trkpt>
      <trkpt lat="44.82839" lon="-0.56067">
        <ele>23.5</ele>
        <time>2021-06-03T15:49:07.000Z</time>
      </trkpt>
      <trkpt lat="44.82833" lon="-0.5607">
        <ele>24.1</ele>
        <time>2021-06-03T15:49:08.000Z</time>
      </trkpt>
      <trkpt lat="44.82827" lon="-0.56073">
        <ele>24.5</ele>
        <time>2021-06-03T15:49:09.000Z</time>
      </trkpt>
      <trkpt lat="44.82822" lon="-0.56077">
        <ele>24.9</ele>
        <time>2021-06-03T15:49:10.000Z</time>
      </trkpt>
      <trkpt lat="44.82817" lon="-0.56081">
        <ele>25.1</ele>
        <time>2021-06-03T15:49:11.000Z</time>
      </trkpt>
      <trkpt lat="44.8281" lon="-0.56085">
        <ele>25.3</ele>
        <time>2021-06-03T15:49:12.000Z</time>
      </trkpt>
      <trkpt lat="44.82805" lon="-0.5609">
        <ele>25.4</ele>
        <time>2021-06-03T15:49:13.000Z</time>
      </trkpt>
      <trkpt lat="44.82798" lon="-0.56094">
        <ele>25.5</ele>
        <time>2021-06-03T15:49:14.000Z</time>
      </trkpt>
      <trkpt lat="44.82792" lon="-0.56098">
        <ele>25.3</ele>
        <time>2021-06-03T15:49:15.000Z</time>
      </trkpt>
      <trkpt lat="44.82786" lon="-0.56101">
        <ele>25.2</ele>
        <time>2021-06-03T15:49:16.000Z</time>
      </trkpt>
      <trkpt lat="44.82779" lon="-0.56105">
        <ele>25.1</ele>
        <time>2021-06-03T15:49:17.000Z</time>
      </trkpt>
      <trkpt lat="44.82773" lon="-0.56108">
        <ele>25</ele>
        <time>2021-06-03T15:49:18.000Z</time>
      </trkpt>
      <trkpt lat="44.82768" lon="-0.56111">
        <ele>24.9</ele>
        <time>2021-06-03T15:49:19.000Z</time>
      </trkpt>
      <trkpt lat="44.82763" lon="-0.56114">
        <ele>25.3</ele>
        <time>2021-06-03T15:49:20.000Z</time>
      </trkpt>
      <trkpt lat="44.82758" lon="-0.56117">
        <ele>25.6</ele>
        <time>2021-06-03T15:49:21.000Z</time>
      </trkpt>
      <trkpt lat="44.82753" lon="-0.5612">
        <ele>25.7</ele>
        <time>2021-06-03T15:49:22.000Z</time>
      </trkpt>
      <trkpt lat="44.82747" lon="-0.56123">
        <ele>25.8</ele>
        <time>2021-06-03T15:49:23.000Z</time>
      </trkpt>
      <trkpt lat="44.82742" lon="-0.56126">
        <ele>25.8</ele>
        <time>2021-06-03T15:49:24.000Z</time>
      </trkpt>
      <trkpt lat="44.82737" lon="-0.56129">
        <ele>25.8</ele>
        <time>2021-06-03T15:49:25.000Z</time>
      </trkpt>
      <trkpt lat="44.82732" lon="-0.56132">
        <ele>25.9</ele>
        <time>2021-06-03T15:49:26.000Z</time>
      </trkpt>
      <trkpt lat="44.82727" lon="-0.56135">
        <ele>26.2</ele>
        <time>2021-06-03T15:49:27.000Z</time>
      </trkpt>
      <trkpt lat="44.82722" lon="-0.56138">
        <ele>26.4</ele>
        <time>2021-06-03T15:49:28.000Z</time>
      </trkpt>
      <trkpt lat="44.82717" lon="-0.56141">
        <ele>26.6</ele>
        <time>2021-06-03T15:49:29.000Z</time>
      </trkpt>
      <trkpt lat="44.82712" lon="-0.56145">
        <ele>26.7</ele>
        <time>2021-06-03T15:49:30.000Z</time>
      </trkpt>
      <trkpt lat="44.82708" lon="-0.56148">
        <ele>26.7</ele>
        <time>2021-06-03T15:49:31.000Z</time>
      </trkpt>
      <trkpt lat="44.82703" lon="-0.56151">
        <ele>26.7</ele>
        <time>2021-06-03T15:49:32.000Z</time>
      </trkpt>
      <trkpt lat="44.82698" lon="-0.56154">
        <ele>26.6</ele>
        <time>2021-06-03T15:49:33.000Z</time>
      </trkpt>
      <trkpt lat="44.82694" lon="-0.56157">
        <ele>26.7</ele>
        <time>2021-06-03T15:49:34.000Z</time>
      </trkpt>
      <trkpt lat="44.8269" lon="-0.5616">
        <ele>26.7</ele>
        <time>2021-06-03T15:49:35.000Z</time>
      </trkpt>
      <trkpt lat="44.82685" lon="-0.56163">
        <ele>26.7</ele>
        <time>2021-06-03T15:49:36.000Z</time>
      </trkpt>
      <trkpt lat="44.82681" lon="-0.56166">
        <ele>26.7</ele>
        <time>2021-06-03T15:49:37.000Z</time>
      </trkpt>
      <trkpt lat="44.82676" lon="-0.56169">
        <ele>26.6</ele>
        <time>2021-06-03T15:49:38.000Z</time>
      </trkpt>
      <trkpt lat="44.82671" lon="-0.56172">
        <ele>27.1</ele>
        <time>2021-06-03T15:49:39.000Z</time>
      </trkpt>
      <trkpt lat="44.82666" lon="-0.56175">
        <ele>27.6</ele>
        <time>2021-06-03T15:49:40.000Z</time>
      </trkpt>
      <trkpt lat="44.82661" lon="-0.56178">
        <ele>27.5</ele>
        <time>2021-06-03T15:49:41.000Z</time>
      </trkpt>
      <trkpt lat="44.82656" lon="-0.56181">
        <ele>27.5</ele>
        <time>2021-06-03T15:49:42.000Z</time>
      </trkpt>
      <trkpt lat="44.8265" lon="-0.56184">
        <ele>27.5</ele>
        <time>2021-06-03T15:49:43.000Z</time>
      </trkpt>
      <trkpt lat="44.82645" lon="-0.56188">
        <ele>27.6</ele>
        <time>2021-06-03T15:49:44.000Z</time>
      </trkpt>
      <trkpt lat="44.82639" lon="-0.56191">
        <ele>27.7</ele>
        <time>2021-06-03T15:49:45.000Z</time>
      </trkpt>
      <trkpt lat="44.82634" lon="-0.56194">
        <ele>27.3</ele>
        <time>2021-06-03T15:49:46.000Z</time>
      </trkpt>
      <trkpt lat="44.82628" lon="-0.56198">
        <ele>27</ele>
        <time>2021-06-03T15:49:47.000Z</time>
      </trkpt>
      <trkpt lat="44.82623" lon="-0.56202">
        <ele>26.8</ele>
        <time>2021-06-03T15:49:48.000Z</time>
      </trkpt>
      <trkpt lat="44.82618" lon="-0.56205">
        <ele>27.2</ele>
        <time>2021-06-03T15:49:49.000Z</time>
      </trkpt>
      <trkpt lat="44.82612" lon="-0.56208">
        <ele>27.4</ele>
        <time>2021-06-03T15:49:50.000Z</time>
      </trkpt>
      <trkpt lat="44.82607" lon="-0.56211">
        <ele>27.6</ele>
        <time>2021-06-03T15:49:51.000Z</time>
      </trkpt>
      <trkpt lat="44.82602" lon="-0.56215">
        <ele>27.7</ele>
        <time>2021-06-03T15:49:52.000Z</time>
      </trkpt>
      <trkpt lat="44.82598" lon="-0.56218">
        <ele>27.6</ele>
        <time>2021-06-03T15:49:53.000Z</time>
      </trkpt>
      <trkpt lat="44.82593" lon="-0.56222">
        <ele>27.6</ele>
        <time>2021-06-03T15:49:54.000Z</time>
      </trkpt>
      <trkpt lat="44.82588" lon="-0.56225">
        <ele>27.5</ele>
        <time>2021-06-03T15:49:55.000Z</time>
      </trkpt>
      <trkpt lat="44.82583" lon="-0.56229">
        <ele>28.1</ele>
        <time>2021-06-03T15:49:56.000Z</time>
      </trkpt>
      <trkpt lat="44.82578" lon="-0.56233">
        <ele>28.6</ele>
        <time>2021-06-03T15:49:57.000Z</time>
      </trkpt>
      <trkpt lat="44.82574" lon="-0.56238">
        <ele>28.4</ele>
        <time>2021-06-03T15:49:58.000Z</time>
      </trkpt>
      <trkpt lat="44.82569" lon="-0.56244">
        <ele>28.3</ele>
        <time>2021-06-03T15:49:59.000Z</time>
      </trkpt>
      <trkpt lat="44.82565" lon="-0.56249">
        <ele>28.1</ele>
        <time>2021-06-03T15:50:00.000Z</time>
      </trkpt>
      <trkpt lat="44.8256" lon="-0.56254">
        <ele>27.9</ele>
        <time>2021-06-03T15:50:01.000Z</time>
      </trkpt>
      <trkpt lat="44.82556" lon="-0.5626">
        <ele>27.7</ele>
        <time>2021-06-03T15:50:02.000Z</time>
      </trkpt>
      <trkpt lat="44.82551" lon="-0.56265">
        <ele>27.6</ele>
        <time>2021-06-03T15:50:03.000Z</time>
      </trkpt>
      <trkpt lat="44.82546" lon="-0.5627">
        <ele>27.5</ele>
        <time>2021-06-03T15:50:04.000Z</time>
      </trkpt>
      <trkpt lat="44.82542" lon="-0.56276">
        <ele>27.6</ele>
        <time>2021-06-03T15:50:05.000Z</time>
      </trkpt>
      <trkpt lat="44.82537" lon="-0.56281">
        <ele>27.6</ele>
        <time>2021-06-03T15:50:06.000Z</time>
      </trkpt>
      <trkpt lat="44.82533" lon="-0.56288">
        <ele>27.7</ele>
        <time>2021-06-03T15:50:07.000Z</time>
      </trkpt>
      <trkpt lat="44.82528" lon="-0.56293">
        <ele>27.6</ele>
        <time>2021-06-03T15:50:08.000Z</time>
      </trkpt>
      <trkpt lat="44.82524" lon="-0.56299">
        <ele>27.5</ele>
        <time>2021-06-03T15:50:09.000Z</time>
      </trkpt>
      <trkpt lat="44.8252" lon="-0.56304">
        <ele>27.3</ele>
        <time>2021-06-03T15:50:10.000Z</time>
      </trkpt>
      <trkpt lat="44.82516" lon="-0.56309">
        <ele>27.1</ele>
        <time>2021-06-03T15:50:11.000Z</time>
      </trkpt>
      <trkpt lat="44.82512" lon="-0.56315">
        <ele>27.4</ele>
        <time>2021-06-03T15:50:12.000Z</time>
      </trkpt>
      <trkpt lat="44.82508" lon="-0.5632">
        <ele>27.6</ele>
        <time>2021-06-03T15:50:13.000Z</time>
      </trkpt>
      <trkpt lat="44.82504" lon="-0.56325">
        <ele>27.8</ele>
        <time>2021-06-03T15:50:14.000Z</time>
      </trkpt>
      <trkpt lat="44.82501" lon="-0.5633">
        <ele>27.6</ele>
        <time>2021-06-03T15:50:15.000Z</time>
      </trkpt>
      <trkpt lat="44.82497" lon="-0.56334">
        <ele>27.5</ele>
        <time>2021-06-03T15:50:16.000Z</time>
      </trkpt>
      <trkpt lat="44.82491" lon="-0.56342">
        <ele>28</ele>
        <time>2021-06-03T15:50:18.000Z</time>
      </trkpt>
      <trkpt lat="44.82484" lon="-0.56351">
        <ele>28.6</ele>
        <time>2021-06-03T15:50:20.000Z</time>
      </trkpt>
      <trkpt lat="44.82481" lon="-0.56356">
        <ele>28.8</ele>
        <time>2021-06-03T15:50:21.000Z</time>
      </trkpt>
      <trkpt lat="44.82477" lon="-0.5636">
        <ele>29</ele>
        <time>2021-06-03T15:50:22.000Z</time>
      </trkpt>
      <trkpt lat="44.82474" lon="-0.56365">
        <ele>29.2</ele>
        <time>2021-06-03T15:50:23.000Z</time>
      </trkpt>
      <trkpt lat="44.82472" lon="-0.56371">
        <ele>29.2</ele>
        <time>2021-06-03T15:50:24.000Z</time>
      </trkpt>
      <trkpt lat="44.82469" lon="-0.56377">
        <ele>29.3</ele>
        <time>2021-06-03T15:50:25.000Z</time>
      </trkpt>
      <trkpt lat="44.82466" lon="-0.56382">
        <ele>29.3</ele>
        <time>2021-06-03T15:50:26.000Z</time>
      </trkpt>
      <trkpt lat="44.82463" lon="-0.56388">
        <ele>29.4</ele>
        <time>2021-06-03T15:50:27.000Z</time>
      </trkpt>
      <trkpt lat="44.8246" lon="-0.56394">
        <ele>29.5</ele>
        <time>2021-06-03T15:50:28.000Z</time>
      </trkpt>
      <trkpt lat="44.82457" lon="-0.564">
        <ele>29.4</ele>
        <time>2021-06-03T15:50:29.000Z</time>
      </trkpt>
      <trkpt lat="44.82454" lon="-0.56406">
        <ele>29.4</ele>
        <time>2021-06-03T15:50:30.000Z</time>
      </trkpt>
      <trkpt lat="44.82451" lon="-0.56411">
        <ele>29.6</ele>
        <time>2021-06-03T15:50:31.000Z</time>
      </trkpt>
      <trkpt lat="44.82448" lon="-0.56417">
        <ele>29.8</ele>
        <time>2021-06-03T15:50:32.000Z</time>
      </trkpt>
      <trkpt lat="44.82445" lon="-0.56423">
        <ele>29.9</ele>
        <time>2021-06-03T15:50:33.000Z</time>
      </trkpt>
      <trkpt lat="44.82443" lon="-0.56429">
        <ele>29.9</ele>
        <time>2021-06-03T15:50:34.000Z</time>
      </trkpt>
      <trkpt lat="44.8244" lon="-0.56435">
        <ele>29.9</ele>
        <time>2021-06-03T15:50:35.000Z</time>
      </trkpt>
      <trkpt lat="44.82437" lon="-0.56441">
        <ele>29.8</ele>
        <time>2021-06-03T15:50:36.000Z</time>
      </trkpt>
      <trkpt lat="44.82434" lon="-0.56446">
        <ele>29.7</ele>
        <time>2021-06-03T15:50:37.000Z</time>
      </trkpt>
      <trkpt lat="44.82431" lon="-0.56453">
        <ele>29.7</ele>
        <time>2021-06-03T15:50:38.000Z</time>
      </trkpt>
      <trkpt lat="44.82428" lon="-0.56459">
        <ele>29.6</ele>
        <time>2021-06-03T15:50:39.000Z</time>
      </trkpt>
      <trkpt lat="44.82425" lon="-0.56465">
        <ele>29.6</ele>
        <time>2021-06-03T15:50:40.000Z</time>
      </trkpt>
      <trkpt lat="44.82422" lon="-0.56471">
        <ele>29.6</ele>
        <time>2021-06-03T15:50:41.000Z</time>
      </trkpt>
      <trkpt lat="44.8242" lon="-0.56478">
        <ele>29.6</ele>
        <time>2021-06-03T15:50:42.000Z</time>
      </trkpt>
      <trkpt lat="44.82417" lon="-0.56484">
        <ele>29.6</ele>
        <time>2021-06-03T15:50:43.000Z</time>
      </trkpt>
      <trkpt lat="44.82413" lon="-0.56491">
        <ele>29.5</ele>
        <time>2021-06-03T15:50:44.000Z</time>
      </trkpt>
      <trkpt lat="44.8241" lon="-0.56497">
        <ele>29.3</ele>
        <time>2021-06-03T15:50:45.000Z</time>
      </trkpt>
      <trkpt lat="44.82406" lon="-0.56504">
        <ele>29.2</ele>
        <time>2021-06-03T15:50:46.000Z</time>
      </trkpt>
      <trkpt lat="44.82403" lon="-0.5651">
        <ele>29</ele>
        <time>2021-06-03T15:50:47.000Z</time>
      </trkpt>
      <trkpt lat="44.824" lon="-0.56516">
        <ele>29.2</ele>
        <time>2021-06-03T15:50:48.000Z</time>
      </trkpt>
      <trkpt lat="44.82396" lon="-0.56522">
        <ele>29.4</ele>
        <time>2021-06-03T15:50:49.000Z</time>
      </trkpt>
      <trkpt lat="44.82392" lon="-0.56528">
        <ele>29.4</ele>
        <time>2021-06-03T15:50:50.000Z</time>
      </trkpt>
      <trkpt lat="44.82389" lon="-0.56534">
        <ele>29.3</ele>
        <time>2021-06-03T15:50:51.000Z</time>
      </trkpt>
      <trkpt lat="44.82385" lon="-0.5654">
        <ele>29.3</ele>
        <time>2021-06-03T15:50:52.000Z</time>
      </trkpt>
      <trkpt lat="44.82381" lon="-0.56547">
        <ele>29.3</ele>
        <time>2021-06-03T15:50:53.000Z</time>
      </trkpt>
      <trkpt lat="44.82378" lon="-0.56554">
        <ele>29.2</ele>
        <time>2021-06-03T15:50:54.000Z</time>
      </trkpt>
      <trkpt lat="44.82374" lon="-0.56562">
        <ele>28.9</ele>
        <time>2021-06-03T15:50:55.000Z</time>
      </trkpt>
      <trkpt lat="44.8237" lon="-0.56569">
        <ele>28.6</ele>
        <time>2021-06-03T15:50:56.000Z</time>
      </trkpt>
      <trkpt lat="44.82366" lon="-0.56576">
        <ele>28.7</ele>
        <time>2021-06-03T15:50:57.000Z</time>
      </trkpt>
      <trkpt lat="44.82362" lon="-0.56583">
        <ele>28.8</ele>
        <time>2021-06-03T15:50:58.000Z</time>
      </trkpt>
      <trkpt lat="44.82357" lon="-0.5659">
        <ele>28.9</ele>
        <time>2021-06-03T15:50:59.000Z</time>
      </trkpt>
      <trkpt lat="44.82353" lon="-0.56597">
        <ele>29</ele>
        <time>2021-06-03T15:51:00.000Z</time>
      </trkpt>
      <trkpt lat="44.82349" lon="-0.56604">
        <ele>29</ele>
        <time>2021-06-03T15:51:01.000Z</time>
      </trkpt>
      <trkpt lat="44.82345" lon="-0.56611">
        <ele>29</ele>
        <time>2021-06-03T15:51:02.000Z</time>
      </trkpt>
      <trkpt lat="44.82341" lon="-0.56617">
        <ele>29</ele>
        <time>2021-06-03T15:51:03.000Z</time>
      </trkpt>
      <trkpt lat="44.82337" lon="-0.56623">
        <ele>29</ele>
        <time>2021-06-03T15:51:04.000Z</time>
      </trkpt>
      <trkpt lat="44.82333" lon="-0.5663">
        <ele>29</ele>
        <time>2021-06-03T15:51:05.000Z</time>
      </trkpt>
      <trkpt lat="44.8233" lon="-0.56636">
        <ele>29.1</ele>
        <time>2021-06-03T15:51:06.000Z</time>
      </trkpt>
      <trkpt lat="44.82326" lon="-0.56643">
        <ele>29.3</ele>
        <time>2021-06-03T15:51:07.000Z</time>
      </trkpt>
      <trkpt lat="44.82323" lon="-0.56649">
        <ele>29.5</ele>
        <time>2021-06-03T15:51:08.000Z</time>
      </trkpt>
      <trkpt lat="44.8232" lon="-0.56656">
        <ele>29.2</ele>
        <time>2021-06-03T15:51:09.000Z</time>
      </trkpt>
      <trkpt lat="44.82316" lon="-0.56662">
        <ele>29.1</ele>
        <time>2021-06-03T15:51:10.000Z</time>
      </trkpt>
      <trkpt lat="44.82313" lon="-0.56668">
        <ele>29</ele>
        <time>2021-06-03T15:51:11.000Z</time>
      </trkpt>
      <trkpt lat="44.8231" lon="-0.56675">
        <ele>29.1</ele>
        <time>2021-06-03T15:51:12.000Z</time>
      </trkpt>
      <trkpt lat="44.82307" lon="-0.56681">
        <ele>29.2</ele>
        <time>2021-06-03T15:51:13.000Z</time>
      </trkpt>
      <trkpt lat="44.82304" lon="-0.56688">
        <ele>29.7</ele>
        <time>2021-06-03T15:51:14.000Z</time>
      </trkpt>
      <trkpt lat="44.82301" lon="-0.56694">
        <ele>30</ele>
        <time>2021-06-03T15:51:15.000Z</time>
      </trkpt>
      <trkpt lat="44.82298" lon="-0.567">
        <ele>29.9</ele>
        <time>2021-06-03T15:51:16.000Z</time>
      </trkpt>
      <trkpt lat="44.82295" lon="-0.56707">
        <ele>29.8</ele>
        <time>2021-06-03T15:51:17.000Z</time>
      </trkpt>
      <trkpt lat="44.82292" lon="-0.56713">
        <ele>29.7</ele>
        <time>2021-06-03T15:51:18.000Z</time>
      </trkpt>
      <trkpt lat="44.82288" lon="-0.56719">
        <ele>29.9</ele>
        <time>2021-06-03T15:51:19.000Z</time>
      </trkpt>
      <trkpt lat="44.82285" lon="-0.56725">
        <ele>30</ele>
        <time>2021-06-03T15:51:20.000Z</time>
      </trkpt>
      <trkpt lat="44.82282" lon="-0.5673">
        <ele>30.3</ele>
        <time>2021-06-03T15:51:21.000Z</time>
      </trkpt>
      <trkpt lat="44.82279" lon="-0.56736">
        <ele>30.5</ele>
        <time>2021-06-03T15:51:22.000Z</time>
      </trkpt>
      <trkpt lat="44.82276" lon="-0.56742">
        <ele>30.4</ele>
        <time>2021-06-03T15:51:23.000Z</time>
      </trkpt>
      <trkpt lat="44.82273" lon="-0.56747">
        <ele>30.3</ele>
        <time>2021-06-03T15:51:24.000Z</time>
      </trkpt>
      <trkpt lat="44.8227" lon="-0.56753">
        <ele>30.2</ele>
        <time>2021-06-03T15:51:25.000Z</time>
      </trkpt>
      <trkpt lat="44.82266" lon="-0.56759">
        <ele>30.2</ele>
        <time>2021-06-03T15:51:26.000Z</time>
      </trkpt>
      <trkpt lat="44.82263" lon="-0.56765">
        <ele>30.1</ele>
        <time>2021-06-03T15:51:27.000Z</time>
      </trkpt>
      <trkpt lat="44.8226" lon="-0.5677">
        <ele>30.1</ele>
        <time>2021-06-03T15:51:28.000Z</time>
      </trkpt>
      <trkpt lat="44.82257" lon="-0.56776">
        <ele>30.1</ele>
        <time>2021-06-03T15:51:29.000Z</time>
      </trkpt>
      <trkpt lat="44.82254" lon="-0.56782">
        <ele>30.1</ele>
        <time>2021-06-03T15:51:30.000Z</time>
      </trkpt>
      <trkpt lat="44.82251" lon="-0.56788">
        <ele>30.1</ele>
        <time>2021-06-03T15:51:31.000Z</time>
      </trkpt>
      <trkpt lat="44.82247" lon="-0.56794">
        <ele>30</ele>
        <time>2021-06-03T15:51:32.000Z</time>
      </trkpt>
      <trkpt lat="44.82244" lon="-0.568">
        <ele>30.1</ele>
        <time>2021-06-03T15:51:33.000Z</time>
      </trkpt>
      <trkpt lat="44.82241" lon="-0.56806">
        <ele>30.1</ele>
        <time>2021-06-03T15:51:34.000Z</time>
      </trkpt>
      <trkpt lat="44.82238" lon="-0.56812">
        <ele>30.2</ele>
        <time>2021-06-03T15:51:35.000Z</time>
      </trkpt>
      <trkpt lat="44.82235" lon="-0.56818">
        <ele>30.2</ele>
        <time>2021-06-03T15:51:36.000Z</time>
      </trkpt>
      <trkpt lat="44.82232" lon="-0.56824">
        <ele>30.3</ele>
        <time>2021-06-03T15:51:37.000Z</time>
      </trkpt>
      <trkpt lat="44.82229" lon="-0.5683">
        <ele>30.5</ele>
        <time>2021-06-03T15:51:38.000Z</time>
      </trkpt>
      <trkpt lat="44.82225" lon="-0.56836">
        <ele>30.7</ele>
        <time>2021-06-03T15:51:39.000Z</time>
      </trkpt>
      <trkpt lat="44.82222" lon="-0.56842">
        <ele>30.7</ele>
        <time>2021-06-03T15:51:40.000Z</time>
      </trkpt>
      <trkpt lat="44.82218" lon="-0.56848">
        <ele>30.7</ele>
        <time>2021-06-03T15:51:41.000Z</time>
      </trkpt>
      <trkpt lat="44.82215" lon="-0.56855">
        <ele>30.7</ele>
        <time>2021-06-03T15:51:42.000Z</time>
      </trkpt>
      <trkpt lat="44.82212" lon="-0.5686">
        <ele>30.7</ele>
        <time>2021-06-03T15:51:43.000Z</time>
      </trkpt>
      <trkpt lat="44.82209" lon="-0.56866">
        <ele>30.8</ele>
        <time>2021-06-03T15:51:44.000Z</time>
      </trkpt>
      <trkpt lat="44.82205" lon="-0.56872">
        <ele>30.8</ele>
        <time>2021-06-03T15:51:45.000Z</time>
      </trkpt>
      <trkpt lat="44.82202" lon="-0.56879">
        <ele>30.9</ele>
        <time>2021-06-03T15:51:46.000Z</time>
      </trkpt>
      <trkpt lat="44.82198" lon="-0.56885">
        <ele>31.1</ele>
        <time>2021-06-03T15:51:47.000Z</time>
      </trkpt>
      <trkpt lat="44.82195" lon="-0.56892">
        <ele>31.2</ele>
        <time>2021-06-03T15:51:48.000Z</time>
      </trkpt>
      <trkpt lat="44.82191" lon="-0.56899">
        <ele>31.4</ele>
        <time>2021-06-03T15:51:49.000Z</time>
      </trkpt>
      <trkpt lat="44.82187" lon="-0.56906">
        <ele>31.3</ele>
        <time>2021-06-03T15:51:50.000Z</time>
      </trkpt>
      <trkpt lat="44.82184" lon="-0.56912">
        <ele>31.3</ele>
        <time>2021-06-03T15:51:51.000Z</time>
      </trkpt>
      <trkpt lat="44.8218" lon="-0.56919">
        <ele>31.1</ele>
        <time>2021-06-03T15:51:52.000Z</time>
      </trkpt>
      <trkpt lat="44.82177" lon="-0.56926">
        <ele>31</ele>
        <time>2021-06-03T15:51:53.000Z</time>
      </trkpt>
      <trkpt lat="44.82173" lon="-0.56932">
        <ele>31</ele>
        <time>2021-06-03T15:51:54.000Z</time>
      </trkpt>
      <trkpt lat="44.82169" lon="-0.56939">
        <ele>31</ele>
        <time>2021-06-03T15:51:55.000Z</time>
      </trkpt>
      <trkpt lat="44.82166" lon="-0.56946">
        <ele>31</ele>
        <time>2021-06-03T15:51:56.000Z</time>
      </trkpt>
      <trkpt lat="44.82162" lon="-0.56952">
        <ele>31</ele>
        <time>2021-06-03T15:51:57.000Z</time>
      </trkpt>
      <trkpt lat="44.82158" lon="-0.56959">
        <ele>31</ele>
        <time>2021-06-03T15:51:58.000Z</time>
      </trkpt>
      <trkpt lat="44.82155" lon="-0.56966">
        <ele>31</ele>
        <time>2021-06-03T15:51:59.000Z</time>
      </trkpt>
      <trkpt lat="44.82151" lon="-0.56973">
        <ele>30.9</ele>
        <time>2021-06-03T15:52:00.000Z</time>
      </trkpt>
      <trkpt lat="44.82147" lon="-0.5698">
        <ele>30.8</ele>
        <time>2021-06-03T15:52:01.000Z</time>
      </trkpt>
      <trkpt lat="44.82144" lon="-0.56987">
        <ele>30.7</ele>
        <time>2021-06-03T15:52:02.000Z</time>
      </trkpt>
      <trkpt lat="44.8214" lon="-0.56994">
        <ele>30.6</ele>
        <time>2021-06-03T15:52:03.000Z</time>
      </trkpt>
      <trkpt lat="44.82136" lon="-0.57001">
        <ele>30.5</ele>
        <time>2021-06-03T15:52:04.000Z</time>
      </trkpt>
      <trkpt lat="44.82132" lon="-0.57007">
        <ele>30.5</ele>
        <time>2021-06-03T15:52:05.000Z</time>
      </trkpt>
      <trkpt lat="44.82129" lon="-0.57014">
        <ele>30.6</ele>
        <time>2021-06-03T15:52:06.000Z</time>
      </trkpt>
      <trkpt lat="44.82125" lon="-0.5702">
        <ele>30.7</ele>
        <time>2021-06-03T15:52:07.000Z</time>
      </trkpt>
      <trkpt lat="44.82122" lon="-0.57026">
        <ele>30.8</ele>
        <time>2021-06-03T15:52:08.000Z</time>
      </trkpt>
      <trkpt lat="44.82118" lon="-0.57032">
        <ele>30.8</ele>
        <time>2021-06-03T15:52:09.000Z</time>
      </trkpt>
      <trkpt lat="44.82115" lon="-0.57038">
        <ele>30.8</ele>
        <time>2021-06-03T15:52:10.000Z</time>
      </trkpt>
      <trkpt lat="44.82111" lon="-0.57045">
        <ele>30.5</ele>
        <time>2021-06-03T15:52:11.000Z</time>
      </trkpt>
      <trkpt lat="44.82108" lon="-0.57051">
        <ele>30.3</ele>
        <time>2021-06-03T15:52:12.000Z</time>
      </trkpt>
      <trkpt lat="44.82104" lon="-0.57058">
        <ele>30.3</ele>
        <time>2021-06-03T15:52:13.000Z</time>
      </trkpt>
      <trkpt lat="44.82101" lon="-0.57065">
        <ele>30.3</ele>
        <time>2021-06-03T15:52:14.000Z</time>
      </trkpt>
      <trkpt lat="44.82098" lon="-0.57072">
        <ele>30.2</ele>
        <time>2021-06-03T15:52:15.000Z</time>
      </trkpt>
      <trkpt lat="44.82095" lon="-0.57079">
        <ele>30.3</ele>
        <time>2021-06-03T15:52:16.000Z</time>
      </trkpt>
      <trkpt lat="44.82092" lon="-0.57086">
        <ele>30.4</ele>
        <time>2021-06-03T15:52:17.000Z</time>
      </trkpt>
      <trkpt lat="44.82088" lon="-0.57093">
        <ele>30.3</ele>
        <time>2021-06-03T15:52:18.000Z</time>
      </trkpt>
      <trkpt lat="44.82085" lon="-0.571">
        <ele>30.2</ele>
        <time>2021-06-03T15:52:19.000Z</time>
      </trkpt>
      <trkpt lat="44.82082" lon="-0.57106">
        <ele>30.2</ele>
        <time>2021-06-03T15:52:20.000Z</time>
      </trkpt>
      <trkpt lat="44.82078" lon="-0.57112">
        <ele>30.1</ele>
        <time>2021-06-03T15:52:21.000Z</time>
      </trkpt>
      <trkpt lat="44.82075" lon="-0.57118">
        <ele>30.1</ele>
        <time>2021-06-03T15:52:22.000Z</time>
      </trkpt>
      <trkpt lat="44.82072" lon="-0.57123">
        <ele>30.1</ele>
        <time>2021-06-03T15:52:23.000Z</time>
      </trkpt>
      <trkpt lat="44.8207" lon="-0.57129">
        <ele>30.1</ele>
        <time>2021-06-03T15:52:24.000Z</time>
      </trkpt>
      <trkpt lat="44.82064" lon="-0.57138">
        <ele>30.1</ele>
        <time>2021-06-03T15:52:26.000Z</time>
      </trkpt>
      <trkpt lat="44.8206" lon="-0.57146">
        <ele>30.3</ele>
        <time>2021-06-03T15:52:28.000Z</time>
      </trkpt>
      <trkpt lat="44.82057" lon="-0.57156">
        <ele>30.4</ele>
        <time>2021-06-03T15:52:52.000Z</time>
      </trkpt>
      <trkpt lat="44.82056" lon="-0.57158">
        <ele>30.2</ele>
        <time>2021-06-03T15:52:53.000Z</time>
      </trkpt>
      <trkpt lat="44.8205" lon="-0.57176">
        <ele>30.6</ele>
        <time>2021-06-03T15:52:58.000Z</time>
      </trkpt>
      <trkpt lat="44.82043" lon="-0.57183">
        <ele>30.7</ele>
        <time>2021-06-03T15:53:00.000Z</time>
      </trkpt>
      <trkpt lat="44.8204" lon="-0.57188">
        <ele>30.8</ele>
        <time>2021-06-03T15:53:01.000Z</time>
      </trkpt>
      <trkpt lat="44.82034" lon="-0.57198">
        <ele>30.7</ele>
        <time>2021-06-03T15:53:03.000Z</time>
      </trkpt>
      <trkpt lat="44.82025" lon="-0.572">
        <ele>30.5</ele>
        <time>2021-06-03T15:53:05.000Z</time>
      </trkpt>
      <trkpt lat="44.82021" lon="-0.57198">
        <ele>30.5</ele>
        <time>2021-06-03T15:53:06.000Z</time>
      </trkpt>
      <trkpt lat="44.82017" lon="-0.57196">
        <ele>30.5</ele>
        <time>2021-06-03T15:53:07.000Z</time>
      </trkpt>
      <trkpt lat="44.82012" lon="-0.57195">
        <ele>30.9</ele>
        <time>2021-06-03T15:53:08.000Z</time>
      </trkpt>
      <trkpt lat="44.82003" lon="-0.57196">
        <ele>31.2</ele>
        <time>2021-06-03T15:53:10.000Z</time>
      </trkpt>
      <trkpt lat="44.81995" lon="-0.572">
        <ele>31.3</ele>
        <time>2021-06-03T15:53:12.000Z</time>
      </trkpt>
      <trkpt lat="44.8199" lon="-0.57201">
        <ele>31.4</ele>
        <time>2021-06-03T15:53:13.000Z</time>
      </trkpt>
      <trkpt lat="44.81985" lon="-0.57204">
        <ele>31.4</ele>
        <time>2021-06-03T15:53:14.000Z</time>
      </trkpt>
      <trkpt lat="44.8198" lon="-0.57206">
        <ele>31.4</ele>
        <time>2021-06-03T15:53:15.000Z</time>
      </trkpt>
      <trkpt lat="44.81975" lon="-0.57208">
        <ele>31.3</ele>
        <time>2021-06-03T15:53:16.000Z</time>
      </trkpt>
      <trkpt lat="44.8197" lon="-0.5721">
        <ele>31.4</ele>
        <time>2021-06-03T15:53:17.000Z</time>
      </trkpt>
      <trkpt lat="44.81964" lon="-0.57212">
        <ele>31.5</ele>
        <time>2021-06-03T15:53:18.000Z</time>
      </trkpt>
      <trkpt lat="44.8196" lon="-0.57215">
        <ele>31.5</ele>
        <time>2021-06-03T15:53:19.000Z</time>
      </trkpt>
      <trkpt lat="44.81955" lon="-0.57218">
        <ele>31.7</ele>
        <time>2021-06-03T15:53:20.000Z</time>
      </trkpt>
      <trkpt lat="44.8195" lon="-0.57221">
        <ele>31.8</ele>
        <time>2021-06-03T15:53:21.000Z</time>
      </trkpt>
      <trkpt lat="44.81945" lon="-0.57223">
        <ele>31.7</ele>
        <time>2021-06-03T15:53:22.000Z</time>
      </trkpt>
      <trkpt lat="44.81939" lon="-0.57226">
        <ele>31.7</ele>
        <time>2021-06-03T15:53:23.000Z</time>
      </trkpt>
      <trkpt lat="44.81934" lon="-0.57227">
        <ele>31.3</ele>
        <time>2021-06-03T15:53:24.000Z</time>
      </trkpt>
      <trkpt lat="44.81929" lon="-0.57227">
        <ele>31.1</ele>
        <time>2021-06-03T15:53:25.000Z</time>
      </trkpt>
      <trkpt lat="44.81923" lon="-0.57227">
        <ele>30.9</ele>
        <time>2021-06-03T15:53:26.000Z</time>
      </trkpt>
      <trkpt lat="44.81918" lon="-0.57227">
        <ele>31.4</ele>
        <time>2021-06-03T15:53:27.000Z</time>
      </trkpt>
      <trkpt lat="44.81913" lon="-0.57226">
        <ele>31.8</ele>
        <time>2021-06-03T15:53:28.000Z</time>
      </trkpt>
      <trkpt lat="44.81908" lon="-0.57226">
        <ele>31.9</ele>
        <time>2021-06-03T15:53:29.000Z</time>
      </trkpt>
      <trkpt lat="44.81903" lon="-0.57226">
        <ele>31.9</ele>
        <time>2021-06-03T15:53:30.000Z</time>
      </trkpt>
      <trkpt lat="44.81898" lon="-0.57226">
        <ele>31.9</ele>
        <time>2021-06-03T15:53:31.000Z</time>
      </trkpt>
      <trkpt lat="44.81893" lon="-0.57226">
        <ele>31.7</ele>
        <time>2021-06-03T15:53:32.000Z</time>
      </trkpt>
      <trkpt lat="44.81888" lon="-0.57225">
        <ele>31.6</ele>
        <time>2021-06-03T15:53:33.000Z</time>
      </trkpt>
      <trkpt lat="44.81883" lon="-0.57225">
        <ele>31.6</ele>
        <time>2021-06-03T15:53:34.000Z</time>
      </trkpt>
      <trkpt lat="44.81878" lon="-0.57225">
        <ele>31.6</ele>
        <time>2021-06-03T15:53:35.000Z</time>
      </trkpt>
      <trkpt lat="44.81874" lon="-0.57225">
        <ele>31.8</ele>
        <time>2021-06-03T15:53:36.000Z</time>
      </trkpt>
      <trkpt lat="44.81869" lon="-0.57225">
        <ele>31.9</ele>
        <time>2021-06-03T15:53:37.000Z</time>
      </trkpt>
      <trkpt lat="44.81864" lon="-0.57225">
        <ele>32</ele>
        <time>2021-06-03T15:53:38.000Z</time>
      </trkpt>
      <trkpt lat="44.81859" lon="-0.57225">
        <ele>32.2</ele>
        <time>2021-06-03T15:53:39.000Z</time>
      </trkpt>
      <trkpt lat="44.81855" lon="-0.57225">
        <ele>32.3</ele>
        <time>2021-06-03T15:53:40.000Z</time>
      </trkpt>
      <trkpt lat="44.8185" lon="-0.57224">
        <ele>32.1</ele>
        <time>2021-06-03T15:53:41.000Z</time>
      </trkpt>
      <trkpt lat="44.81845" lon="-0.57224">
        <ele>32</ele>
        <time>2021-06-03T15:53:42.000Z</time>
      </trkpt>
      <trkpt lat="44.8184" lon="-0.57223">
        <ele>32.1</ele>
        <time>2021-06-03T15:53:43.000Z</time>
      </trkpt>
      <trkpt lat="44.81835" lon="-0.57223">
        <ele>32.1</ele>
        <time>2021-06-03T15:53:44.000Z</time>
      </trkpt>
      <trkpt lat="44.8183" lon="-0.57222">
        <ele>32.2</ele>
        <time>2021-06-03T15:53:45.000Z</time>
      </trkpt>
      <trkpt lat="44.81826" lon="-0.57222">
        <ele>32.3</ele>
        <time>2021-06-03T15:53:46.000Z</time>
      </trkpt>
      <trkpt lat="44.81821" lon="-0.57222">
        <ele>32.4</ele>
        <time>2021-06-03T15:53:47.000Z</time>
      </trkpt>
      <trkpt lat="44.81816" lon="-0.57222">
        <ele>32.5</ele>
        <time>2021-06-03T15:53:48.000Z</time>
      </trkpt>
      <trkpt lat="44.81812" lon="-0.57221">
        <ele>32.6</ele>
        <time>2021-06-03T15:53:49.000Z</time>
      </trkpt>
      <trkpt lat="44.81807" lon="-0.57221">
        <ele>32.7</ele>
        <time>2021-06-03T15:53:50.000Z</time>
      </trkpt>
      <trkpt lat="44.81802" lon="-0.57221">
        <ele>32.8</ele>
        <time>2021-06-03T15:53:51.000Z</time>
      </trkpt>
      <trkpt lat="44.81797" lon="-0.5722">
        <ele>32.8</ele>
        <time>2021-06-03T15:53:52.000Z</time>
      </trkpt>
      <trkpt lat="44.81793" lon="-0.5722">
        <ele>32.8</ele>
        <time>2021-06-03T15:53:53.000Z</time>
      </trkpt>
      <trkpt lat="44.81788" lon="-0.5722">
        <ele>32.8</ele>
        <time>2021-06-03T15:53:54.000Z</time>
      </trkpt>
      <trkpt lat="44.81783" lon="-0.57219">
        <ele>33</ele>
        <time>2021-06-03T15:53:55.000Z</time>
      </trkpt>
      <trkpt lat="44.81777" lon="-0.57219">
        <ele>33.2</ele>
        <time>2021-06-03T15:53:56.000Z</time>
      </trkpt>
      <trkpt lat="44.81772" lon="-0.57219">
        <ele>33.3</ele>
        <time>2021-06-03T15:53:57.000Z</time>
      </trkpt>
      <trkpt lat="44.81766" lon="-0.57218">
        <ele>33.2</ele>
        <time>2021-06-03T15:53:58.000Z</time>
      </trkpt>
      <trkpt lat="44.8176" lon="-0.57218">
        <ele>33.1</ele>
        <time>2021-06-03T15:53:59.000Z</time>
      </trkpt>
      <trkpt lat="44.81754" lon="-0.57217">
        <ele>33.3</ele>
        <time>2021-06-03T15:54:00.000Z</time>
      </trkpt>
      <trkpt lat="44.81748" lon="-0.57216">
        <ele>33.4</ele>
        <time>2021-06-03T15:54:01.000Z</time>
      </trkpt>
      <trkpt lat="44.81742" lon="-0.57216">
        <ele>33.6</ele>
        <time>2021-06-03T15:54:02.000Z</time>
      </trkpt>
      <trkpt lat="44.81735" lon="-0.57216">
        <ele>33.7</ele>
        <time>2021-06-03T15:54:03.000Z</time>
      </trkpt>
      <trkpt lat="44.81728" lon="-0.57216">
        <ele>33.9</ele>
        <time>2021-06-03T15:54:04.000Z</time>
      </trkpt>
      <trkpt lat="44.81721" lon="-0.57217">
        <ele>33.8</ele>
        <time>2021-06-03T15:54:05.000Z</time>
      </trkpt>
      <trkpt lat="44.81714" lon="-0.57217">
        <ele>33.7</ele>
        <time>2021-06-03T15:54:06.000Z</time>
      </trkpt>
      <trkpt lat="44.81707" lon="-0.57218">
        <ele>33.6</ele>
        <time>2021-06-03T15:54:07.000Z</time>
      </trkpt>
      <trkpt lat="44.81701" lon="-0.57218">
        <ele>33.6</ele>
        <time>2021-06-03T15:54:08.000Z</time>
      </trkpt>
      <trkpt lat="44.81694" lon="-0.57218">
        <ele>33.5</ele>
        <time>2021-06-03T15:54:09.000Z</time>
      </trkpt>
      <trkpt lat="44.81688" lon="-0.57218">
        <ele>33.6</ele>
        <time>2021-06-03T15:54:10.000Z</time>
      </trkpt>
      <trkpt lat="44.81682" lon="-0.57219">
        <ele>33.7</ele>
        <time>2021-06-03T15:54:11.000Z</time>
      </trkpt>
      <trkpt lat="44.81677" lon="-0.57219">
        <ele>34.1</ele>
        <time>2021-06-03T15:54:12.000Z</time>
      </trkpt>
      <trkpt lat="44.81672" lon="-0.57221">
        <ele>34.4</ele>
        <time>2021-06-03T15:54:13.000Z</time>
      </trkpt>
      <trkpt lat="44.81667" lon="-0.57223">
        <ele>34.6</ele>
        <time>2021-06-03T15:54:14.000Z</time>
      </trkpt>
      <trkpt lat="44.81661" lon="-0.57224">
        <ele>34.7</ele>
        <time>2021-06-03T15:54:15.000Z</time>
      </trkpt>
      <trkpt lat="44.81656" lon="-0.57225">
        <ele>34.9</ele>
        <time>2021-06-03T15:54:16.000Z</time>
      </trkpt>
      <trkpt lat="44.8165" lon="-0.57226">
        <ele>34.8</ele>
        <time>2021-06-03T15:54:17.000Z</time>
      </trkpt>
      <trkpt lat="44.81644" lon="-0.57227">
        <ele>34.8</ele>
        <time>2021-06-03T15:54:18.000Z</time>
      </trkpt>
      <trkpt lat="44.81639" lon="-0.57228">
        <ele>34.5</ele>
        <time>2021-06-03T15:54:19.000Z</time>
      </trkpt>
      <trkpt lat="44.81634" lon="-0.57228">
        <ele>34.4</ele>
        <time>2021-06-03T15:54:20.000Z</time>
      </trkpt>
      <trkpt lat="44.81628" lon="-0.57229">
        <ele>34.4</ele>
        <time>2021-06-03T15:54:21.000Z</time>
      </trkpt>
      <trkpt lat="44.81622" lon="-0.5723">
        <ele>34.5</ele>
        <time>2021-06-03T15:54:22.000Z</time>
      </trkpt>
      <trkpt lat="44.81617" lon="-0.57232">
        <ele>34.5</ele>
        <time>2021-06-03T15:54:23.000Z</time>
      </trkpt>
      <trkpt lat="44.81611" lon="-0.57233">
        <ele>34.4</ele>
        <time>2021-06-03T15:54:24.000Z</time>
      </trkpt>
      <trkpt lat="44.81605" lon="-0.57234">
        <ele>34.3</ele>
        <time>2021-06-03T15:54:25.000Z</time>
      </trkpt>
      <trkpt lat="44.81599" lon="-0.57235">
        <ele>34.2</ele>
        <time>2021-06-03T15:54:26.000Z</time>
      </trkpt>
      <trkpt lat="44.81594" lon="-0.57236">
        <ele>34</ele>
        <time>2021-06-03T15:54:27.000Z</time>
      </trkpt>
      <trkpt lat="44.81588" lon="-0.57236">
        <ele>34</ele>
        <time>2021-06-03T15:54:28.000Z</time>
      </trkpt>
      <trkpt lat="44.81583" lon="-0.57237">
        <ele>33.9</ele>
        <time>2021-06-03T15:54:29.000Z</time>
      </trkpt>
      <trkpt lat="44.81578" lon="-0.57239">
        <ele>33.8</ele>
        <time>2021-06-03T15:54:30.000Z</time>
      </trkpt>
      <trkpt lat="44.81573" lon="-0.5724">
        <ele>34.1</ele>
        <time>2021-06-03T15:54:31.000Z</time>
      </trkpt>
      <trkpt lat="44.81568" lon="-0.57241">
        <ele>34.3</ele>
        <time>2021-06-03T15:54:32.000Z</time>
      </trkpt>
      <trkpt lat="44.81563" lon="-0.57242">
        <ele>34.4</ele>
        <time>2021-06-03T15:54:33.000Z</time>
      </trkpt>
      <trkpt lat="44.81555" lon="-0.57244">
        <ele>34.5</ele>
        <time>2021-06-03T15:54:35.000Z</time>
      </trkpt>
      <trkpt lat="44.81546" lon="-0.57246">
        <ele>34.2</ele>
        <time>2021-06-03T15:54:38.000Z</time>
      </trkpt>
      <trkpt lat="44.81538" lon="-0.57243">
        <ele>34.1</ele>
        <time>2021-06-03T15:54:47.000Z</time>
      </trkpt>
      <trkpt lat="44.8153" lon="-0.57244">
        <ele>33.7</ele>
        <time>2021-06-03T15:54:50.000Z</time>
      </trkpt>
      <trkpt lat="44.81522" lon="-0.57246">
        <ele>34</ele>
        <time>2021-06-03T15:54:52.000Z</time>
      </trkpt>
      <trkpt lat="44.81514" lon="-0.57248">
        <ele>34.3</ele>
        <time>2021-06-03T15:54:54.000Z</time>
      </trkpt>
      <trkpt lat="44.81512" lon="-0.57249">
        <ele>34.3</ele>
        <time>2021-06-03T15:54:55.000Z</time>
      </trkpt>
      <trkpt lat="44.81498" lon="-0.57254">
        <ele>34.3</ele>
        <time>2021-06-03T15:55:17.000Z</time>
      </trkpt>
      <trkpt lat="44.8149" lon="-0.57255">
        <ele>34</ele>
        <time>2021-06-03T15:55:25.000Z</time>
      </trkpt>
      <trkpt lat="44.81482" lon="-0.57257">
        <ele>34.3</ele>
        <time>2021-06-03T15:55:27.000Z</time>
      </trkpt>
      <trkpt lat="44.81477" lon="-0.57257">
        <ele>34.2</ele>
        <time>2021-06-03T15:55:28.000Z</time>
      </trkpt>
      <trkpt lat="44.81472" lon="-0.57256">
        <ele>34.2</ele>
        <time>2021-06-03T15:55:29.000Z</time>
      </trkpt>
      <trkpt lat="44.81468" lon="-0.57254">
        <ele>34.1</ele>
        <time>2021-06-03T15:55:30.000Z</time>
      </trkpt>
      <trkpt lat="44.81464" lon="-0.57249">
        <ele>34</ele>
        <time>2021-06-03T15:55:31.000Z</time>
      </trkpt>
      <trkpt lat="44.81462" lon="-0.57243">
        <ele>33.9</ele>
        <time>2021-06-03T15:55:32.000Z</time>
      </trkpt>
      <trkpt lat="44.8146" lon="-0.57235">
        <ele>33.9</ele>
        <time>2021-06-03T15:55:33.000Z</time>
      </trkpt>
      <trkpt lat="44.81459" lon="-0.57227">
        <ele>33.9</ele>
        <time>2021-06-03T15:55:34.000Z</time>
      </trkpt>
      <trkpt lat="44.81458" lon="-0.57219">
        <ele>33.9</ele>
        <time>2021-06-03T15:55:35.000Z</time>
      </trkpt>
      <trkpt lat="44.81456" lon="-0.5721">
        <ele>34</ele>
        <time>2021-06-03T15:55:36.000Z</time>
      </trkpt>
      <trkpt lat="44.81454" lon="-0.57201">
        <ele>33.9</ele>
        <time>2021-06-03T15:55:37.000Z</time>
      </trkpt>
      <trkpt lat="44.81453" lon="-0.57191">
        <ele>33.9</ele>
        <time>2021-06-03T15:55:38.000Z</time>
      </trkpt>
      <trkpt lat="44.81451" lon="-0.57182">
        <ele>33.9</ele>
        <time>2021-06-03T15:55:39.000Z</time>
      </trkpt>
      <trkpt lat="44.8145" lon="-0.57172">
        <ele>33.9</ele>
        <time>2021-06-03T15:55:40.000Z</time>
      </trkpt>
      <trkpt lat="44.81448" lon="-0.57163">
        <ele>33.9</ele>
        <time>2021-06-03T15:55:41.000Z</time>
      </trkpt>
      <trkpt lat="44.81447" lon="-0.57153">
        <ele>33.8</ele>
        <time>2021-06-03T15:55:42.000Z</time>
      </trkpt>
      <trkpt lat="44.81446" lon="-0.57144">
        <ele>33.7</ele>
        <time>2021-06-03T15:55:43.000Z</time>
      </trkpt>
      <trkpt lat="44.81444" lon="-0.57134">
        <ele>33.6</ele>
        <time>2021-06-03T15:55:44.000Z</time>
      </trkpt>
      <trkpt lat="44.81443" lon="-0.57125">
        <ele>33.6</ele>
        <time>2021-06-03T15:55:45.000Z</time>
      </trkpt>
      <trkpt lat="44.81441" lon="-0.57116">
        <ele>33.6</ele>
        <time>2021-06-03T15:55:46.000Z</time>
      </trkpt>
      <trkpt lat="44.8144" lon="-0.57107">
        <ele>33.8</ele>
        <time>2021-06-03T15:55:47.000Z</time>
      </trkpt>
      <trkpt lat="44.81439" lon="-0.57098">
        <ele>33.8</ele>
        <time>2021-06-03T15:55:48.000Z</time>
      </trkpt>
      <trkpt lat="44.81437" lon="-0.57089">
        <ele>33.7</ele>
        <time>2021-06-03T15:55:49.000Z</time>
      </trkpt>
      <trkpt lat="44.81436" lon="-0.57081">
        <ele>33.6</ele>
        <time>2021-06-03T15:55:50.000Z</time>
      </trkpt>
      <trkpt lat="44.81434" lon="-0.57074">
        <ele>33.5</ele>
        <time>2021-06-03T15:55:51.000Z</time>
      </trkpt>
      <trkpt lat="44.81427" lon="-0.57069">
        <ele>33.3</ele>
        <time>2021-06-03T15:55:53.000Z</time>
      </trkpt>
      <trkpt lat="44.81423" lon="-0.57071">
        <ele>32.9</ele>
        <time>2021-06-03T15:55:54.000Z</time>
      </trkpt>
      <trkpt lat="44.81419" lon="-0.57073">
        <ele>32.6</ele>
        <time>2021-06-03T15:55:55.000Z</time>
      </trkpt>
      <trkpt lat="44.81414" lon="-0.57075">
        <ele>32.7</ele>
        <time>2021-06-03T15:55:56.000Z</time>
      </trkpt>
      <trkpt lat="44.81409" lon="-0.57077">
        <ele>32.8</ele>
        <time>2021-06-03T15:55:57.000Z</time>
      </trkpt>
      <trkpt lat="44.81403" lon="-0.57079">
        <ele>32.9</ele>
        <time>2021-06-03T15:55:58.000Z</time>
      </trkpt>
      <trkpt lat="44.81398" lon="-0.57082">
        <ele>32.8</ele>
        <time>2021-06-03T15:55:59.000Z</time>
      </trkpt>
      <trkpt lat="44.81393" lon="-0.57084">
        <ele>32.7</ele>
        <time>2021-06-03T15:56:00.000Z</time>
      </trkpt>
      <trkpt lat="44.81388" lon="-0.57087">
        <ele>32.5</ele>
        <time>2021-06-03T15:56:01.000Z</time>
      </trkpt>
      <trkpt lat="44.81383" lon="-0.57089">
        <ele>32.5</ele>
        <time>2021-06-03T15:56:02.000Z</time>
      </trkpt>
      <trkpt lat="44.81378" lon="-0.57091">
        <ele>32.4</ele>
        <time>2021-06-03T15:56:03.000Z</time>
      </trkpt>
      <trkpt lat="44.81373" lon="-0.57093">
        <ele>32.3</ele>
        <time>2021-06-03T15:56:04.000Z</time>
      </trkpt>
      <trkpt lat="44.81368" lon="-0.57095">
        <ele>32.2</ele>
        <time>2021-06-03T15:56:05.000Z</time>
      </trkpt>
      <trkpt lat="44.81363" lon="-0.57096">
        <ele>32</ele>
        <time>2021-06-03T15:56:06.000Z</time>
      </trkpt>
      <trkpt lat="44.81359" lon="-0.57094">
        <ele>31.8</ele>
        <time>2021-06-03T15:56:07.000Z</time>
      </trkpt>
      <trkpt lat="44.81354" lon="-0.5709">
        <ele>31.9</ele>
        <time>2021-06-03T15:56:08.000Z</time>
      </trkpt>
      <trkpt lat="44.81349" lon="-0.57087">
        <ele>32</ele>
        <time>2021-06-03T15:56:09.000Z</time>
      </trkpt>
      <trkpt lat="44.81344" lon="-0.57084">
        <ele>32.1</ele>
        <time>2021-06-03T15:56:10.000Z</time>
      </trkpt>
      <trkpt lat="44.81338" lon="-0.57081">
        <ele>32</ele>
        <time>2021-06-03T15:56:11.000Z</time>
      </trkpt>
      <trkpt lat="44.81333" lon="-0.57077">
        <ele>31.9</ele>
        <time>2021-06-03T15:56:12.000Z</time>
      </trkpt>
      <trkpt lat="44.81328" lon="-0.57073">
        <ele>31.8</ele>
        <time>2021-06-03T15:56:13.000Z</time>
      </trkpt>
      <trkpt lat="44.81322" lon="-0.57069">
        <ele>31.7</ele>
        <time>2021-06-03T15:56:14.000Z</time>
      </trkpt>
      <trkpt lat="44.81317" lon="-0.57065">
        <ele>31.8</ele>
        <time>2021-06-03T15:56:15.000Z</time>
      </trkpt>
      <trkpt lat="44.81312" lon="-0.57061">
        <ele>31.8</ele>
        <time>2021-06-03T15:56:16.000Z</time>
      </trkpt>
      <trkpt lat="44.81306" lon="-0.57057">
        <ele>31.8</ele>
        <time>2021-06-03T15:56:17.000Z</time>
      </trkpt>
      <trkpt lat="44.813" lon="-0.57053">
        <ele>31.6</ele>
        <time>2021-06-03T15:56:18.000Z</time>
      </trkpt>
      <trkpt lat="44.81294" lon="-0.57051">
        <ele>31.3</ele>
        <time>2021-06-03T15:56:19.000Z</time>
      </trkpt>
      <trkpt lat="44.81289" lon="-0.57048">
        <ele>31.1</ele>
        <time>2021-06-03T15:56:20.000Z</time>
      </trkpt>
      <trkpt lat="44.81284" lon="-0.57045">
        <ele>30.9</ele>
        <time>2021-06-03T15:56:21.000Z</time>
      </trkpt>
      <trkpt lat="44.8128" lon="-0.57043">
        <ele>30.7</ele>
        <time>2021-06-03T15:56:22.000Z</time>
      </trkpt>
      <trkpt lat="44.81275" lon="-0.5704">
        <ele>30.7</ele>
        <time>2021-06-03T15:56:23.000Z</time>
      </trkpt>
      <trkpt lat="44.81269" lon="-0.57036">
        <ele>30.6</ele>
        <time>2021-06-03T15:56:24.000Z</time>
      </trkpt>
      <trkpt lat="44.81263" lon="-0.57033">
        <ele>30.4</ele>
        <time>2021-06-03T15:56:25.000Z</time>
      </trkpt>
      <trkpt lat="44.81257" lon="-0.57029">
        <ele>30.3</ele>
        <time>2021-06-03T15:56:26.000Z</time>
      </trkpt>
      <trkpt lat="44.8125" lon="-0.57025">
        <ele>29.7</ele>
        <time>2021-06-03T15:56:27.000Z</time>
      </trkpt>
      <trkpt lat="44.81243" lon="-0.57022">
        <ele>29.3</ele>
        <time>2021-06-03T15:56:28.000Z</time>
      </trkpt>
      <trkpt lat="44.81236" lon="-0.57018">
        <ele>29</ele>
        <time>2021-06-03T15:56:29.000Z</time>
      </trkpt>
      <trkpt lat="44.81228" lon="-0.57014">
        <ele>28.7</ele>
        <time>2021-06-03T15:56:30.000Z</time>
      </trkpt>
      <trkpt lat="44.81222" lon="-0.57011">
        <ele>28.5</ele>
        <time>2021-06-03T15:56:31.000Z</time>
      </trkpt>
      <trkpt lat="44.81216" lon="-0.57007">
        <ele>28.2</ele>
        <time>2021-06-03T15:56:32.000Z</time>
      </trkpt>
      <trkpt lat="44.81208" lon="-0.57003">
        <ele>27.3</ele>
        <time>2021-06-03T15:56:34.000Z</time>
      </trkpt>
      <trkpt lat="44.81203" lon="-0.56998">
        <ele>26.4</ele>
        <time>2021-06-03T15:56:36.000Z</time>
      </trkpt>
      <trkpt lat="44.81199" lon="-0.56996">
        <ele>26.1</ele>
        <time>2021-06-03T15:56:37.000Z</time>
      </trkpt>
      <trkpt lat="44.81194" lon="-0.56992">
        <ele>25.9</ele>
        <time>2021-06-03T15:56:38.000Z</time>
      </trkpt>
      <trkpt lat="44.81189" lon="-0.56989">
        <ele>26</ele>
        <time>2021-06-03T15:56:39.000Z</time>
      </trkpt>
      <trkpt lat="44.81184" lon="-0.56986">
        <ele>26.1</ele>
        <time>2021-06-03T15:56:40.000Z</time>
      </trkpt>
      <trkpt lat="44.81178" lon="-0.56983">
        <ele>25.9</ele>
        <time>2021-06-03T15:56:41.000Z</time>
      </trkpt>
      <trkpt lat="44.81172" lon="-0.5698">
        <ele>25.8</ele>
        <time>2021-06-03T15:56:42.000Z</time>
      </trkpt>
      <trkpt lat="44.81166" lon="-0.56978">
        <ele>25.6</ele>
        <time>2021-06-03T15:56:43.000Z</time>
      </trkpt>
      <trkpt lat="44.8116" lon="-0.56977">
        <ele>25.8</ele>
        <time>2021-06-03T15:56:44.000Z</time>
      </trkpt>
      <trkpt lat="44.81154" lon="-0.56975">
        <ele>26</ele>
        <time>2021-06-03T15:56:45.000Z</time>
      </trkpt>
      <trkpt lat="44.81147" lon="-0.56973">
        <ele>26.2</ele>
        <time>2021-06-03T15:56:46.000Z</time>
      </trkpt>
      <trkpt lat="44.81141" lon="-0.56972">
        <ele>26.3</ele>
        <time>2021-06-03T15:56:47.000Z</time>
      </trkpt>
      <trkpt lat="44.81135" lon="-0.5697">
        <ele>26.4</ele>
        <time>2021-06-03T15:56:48.000Z</time>
      </trkpt>
      <trkpt lat="44.81128" lon="-0.56968">
        <ele>26.8</ele>
        <time>2021-06-03T15:56:49.000Z</time>
      </trkpt>
      <trkpt lat="44.81122" lon="-0.56966">
        <ele>27.1</ele>
        <time>2021-06-03T15:56:50.000Z</time>
      </trkpt>
      <trkpt lat="44.81116" lon="-0.56965">
        <ele>27</ele>
        <time>2021-06-03T15:56:51.000Z</time>
      </trkpt>
      <trkpt lat="44.8111" lon="-0.56964">
        <ele>26.9</ele>
        <time>2021-06-03T15:56:52.000Z</time>
      </trkpt>
      <trkpt lat="44.81103" lon="-0.56963">
        <ele>26.7</ele>
        <time>2021-06-03T15:56:53.000Z</time>
      </trkpt>
      <trkpt lat="44.81097" lon="-0.56962">
        <ele>26.6</ele>
        <time>2021-06-03T15:56:54.000Z</time>
      </trkpt>
      <trkpt lat="44.81091" lon="-0.56961">
        <ele>26.5</ele>
        <time>2021-06-03T15:56:55.000Z</time>
      </trkpt>
      <trkpt lat="44.81085" lon="-0.5696">
        <ele>27.1</ele>
        <time>2021-06-03T15:56:56.000Z</time>
      </trkpt>
      <trkpt lat="44.81079" lon="-0.56959">
        <ele>27.6</ele>
        <time>2021-06-03T15:56:57.000Z</time>
      </trkpt>
      <trkpt lat="44.81073" lon="-0.56958">
        <ele>28</ele>
        <time>2021-06-03T15:56:58.000Z</time>
      </trkpt>
      <trkpt lat="44.81068" lon="-0.56956">
        <ele>28.3</ele>
        <time>2021-06-03T15:56:59.000Z</time>
      </trkpt>
      <trkpt lat="44.81062" lon="-0.56955">
        <ele>28.5</ele>
        <time>2021-06-03T15:57:00.000Z</time>
      </trkpt>
      <trkpt lat="44.81056" lon="-0.56954">
        <ele>28.6</ele>
        <time>2021-06-03T15:57:01.000Z</time>
      </trkpt>
      <trkpt lat="44.81051" lon="-0.56953">
        <ele>28.7</ele>
        <time>2021-06-03T15:57:02.000Z</time>
      </trkpt>
      <trkpt lat="44.81046" lon="-0.56951">
        <ele>29.5</ele>
        <time>2021-06-03T15:57:03.000Z</time>
      </trkpt>
      <trkpt lat="44.8104" lon="-0.5695">
        <ele>30.1</ele>
        <time>2021-06-03T15:57:04.000Z</time>
      </trkpt>
      <trkpt lat="44.81035" lon="-0.56948">
        <ele>30.4</ele>
        <time>2021-06-03T15:57:05.000Z</time>
      </trkpt>
      <trkpt lat="44.8103" lon="-0.56947">
        <ele>30.6</ele>
        <time>2021-06-03T15:57:06.000Z</time>
      </trkpt>
      <trkpt lat="44.81025" lon="-0.56945">
        <ele>30.8</ele>
        <time>2021-06-03T15:57:07.000Z</time>
      </trkpt>
      <trkpt lat="44.81021" lon="-0.56943">
        <ele>31.2</ele>
        <time>2021-06-03T15:57:08.000Z</time>
      </trkpt>
      <trkpt lat="44.81012" lon="-0.5694">
        <ele>31.7</ele>
        <time>2021-06-03T15:57:10.000Z</time>
      </trkpt>
      <trkpt lat="44.81004" lon="-0.56943">
        <ele>32.1</ele>
        <time>2021-06-03T15:57:12.000Z</time>
      </trkpt>
      <trkpt lat="44.80997" lon="-0.5695">
        <ele>32.5</ele>
        <time>2021-06-03T15:57:14.000Z</time>
      </trkpt>
      <trkpt lat="44.8099" lon="-0.56957">
        <ele>32.6</ele>
        <time>2021-06-03T15:57:16.000Z</time>
      </trkpt>
      <trkpt lat="44.80986" lon="-0.56961">
        <ele>32.7</ele>
        <time>2021-06-03T15:57:17.000Z</time>
      </trkpt>
      <trkpt lat="44.80983" lon="-0.56965">
        <ele>32.8</ele>
        <time>2021-06-03T15:57:18.000Z</time>
      </trkpt>
      <trkpt lat="44.80979" lon="-0.56968">
        <ele>32.8</ele>
        <time>2021-06-03T15:57:19.000Z</time>
      </trkpt>
      <trkpt lat="44.80975" lon="-0.56972">
        <ele>32.9</ele>
        <time>2021-06-03T15:57:20.000Z</time>
      </trkpt>
      <trkpt lat="44.80971" lon="-0.56976">
        <ele>33</ele>
        <time>2021-06-03T15:57:21.000Z</time>
      </trkpt>
      <trkpt lat="44.80967" lon="-0.5698">
        <ele>33</ele>
        <time>2021-06-03T15:57:22.000Z</time>
      </trkpt>
      <trkpt lat="44.80963" lon="-0.56984">
        <ele>33</ele>
        <time>2021-06-03T15:57:23.000Z</time>
      </trkpt>
      <trkpt lat="44.80959" lon="-0.56988">
        <ele>33.2</ele>
        <time>2021-06-03T15:57:24.000Z</time>
      </trkpt>
      <trkpt lat="44.80955" lon="-0.56993">
        <ele>33.3</ele>
        <time>2021-06-03T15:57:25.000Z</time>
      </trkpt>
      <trkpt lat="44.80951" lon="-0.56997">
        <ele>33.4</ele>
        <time>2021-06-03T15:57:26.000Z</time>
      </trkpt>
      <trkpt lat="44.80946" lon="-0.57002">
        <ele>33.3</ele>
        <time>2021-06-03T15:57:27.000Z</time>
      </trkpt>
      <trkpt lat="44.80942" lon="-0.57007">
        <ele>33.2</ele>
        <time>2021-06-03T15:57:28.000Z</time>
      </trkpt>
      <trkpt lat="44.80938" lon="-0.57012">
        <ele>33.5</ele>
        <time>2021-06-03T15:57:29.000Z</time>
      </trkpt>
      <trkpt lat="44.80934" lon="-0.57016">
        <ele>33.7</ele>
        <time>2021-06-03T15:57:30.000Z</time>
      </trkpt>
      <trkpt lat="44.80929" lon="-0.57021">
        <ele>33.2</ele>
        <time>2021-06-03T15:57:31.000Z</time>
      </trkpt>
      <trkpt lat="44.80925" lon="-0.57026">
        <ele>32.8</ele>
        <time>2021-06-03T15:57:32.000Z</time>
      </trkpt>
      <trkpt lat="44.80921" lon="-0.57031">
        <ele>32.5</ele>
        <time>2021-06-03T15:57:33.000Z</time>
      </trkpt>
      <trkpt lat="44.80916" lon="-0.57037">
        <ele>32.6</ele>
        <time>2021-06-03T15:57:34.000Z</time>
      </trkpt>
      <trkpt lat="44.80912" lon="-0.57041">
        <ele>32.7</ele>
        <time>2021-06-03T15:57:35.000Z</time>
      </trkpt>
      <trkpt lat="44.80907" lon="-0.57046">
        <ele>32.7</ele>
        <time>2021-06-03T15:57:36.000Z</time>
      </trkpt>
      <trkpt lat="44.80903" lon="-0.57051">
        <ele>32.6</ele>
        <time>2021-06-03T15:57:37.000Z</time>
      </trkpt>
      <trkpt lat="44.80898" lon="-0.57055">
        <ele>32.9</ele>
        <time>2021-06-03T15:57:38.000Z</time>
      </trkpt>
      <trkpt lat="44.80894" lon="-0.5706">
        <ele>33.1</ele>
        <time>2021-06-03T15:57:39.000Z</time>
      </trkpt>
      <trkpt lat="44.8089" lon="-0.57064">
        <ele>33.3</ele>
        <time>2021-06-03T15:57:40.000Z</time>
      </trkpt>
      <trkpt lat="44.80886" lon="-0.57068">
        <ele>33.1</ele>
        <time>2021-06-03T15:57:41.000Z</time>
      </trkpt>
      <trkpt lat="44.80881" lon="-0.57073">
        <ele>33</ele>
        <time>2021-06-03T15:57:42.000Z</time>
      </trkpt>
      <trkpt lat="44.80875" lon="-0.57079">
        <ele>33.7</ele>
        <time>2021-06-03T15:57:44.000Z</time>
      </trkpt>
      <trkpt lat="44.80869" lon="-0.57084">
        <ele>34</ele>
        <time>2021-06-03T15:57:46.000Z</time>
      </trkpt>
      <trkpt lat="44.80862" lon="-0.5709">
        <ele>33.6</ele>
        <time>2021-06-03T15:57:48.000Z</time>
      </trkpt>
      <trkpt lat="44.80856" lon="-0.57096">
        <ele>33.1</ele>
        <time>2021-06-03T15:57:50.000Z</time>
      </trkpt>
      <trkpt lat="44.80849" lon="-0.57102">
        <ele>32.8</ele>
        <time>2021-06-03T15:57:52.000Z</time>
      </trkpt>
      <trkpt lat="44.80842" lon="-0.57109">
        <ele>32.7</ele>
        <time>2021-06-03T15:57:54.000Z</time>
      </trkpt>
      <trkpt lat="44.80834" lon="-0.57115">
        <ele>32.6</ele>
        <time>2021-06-03T15:57:56.000Z</time>
      </trkpt>
      <trkpt lat="44.80831" lon="-0.57118">
        <ele>32.6</ele>
        <time>2021-06-03T15:57:57.000Z</time>
      </trkpt>
      <trkpt lat="44.80827" lon="-0.57122">
        <ele>32.6</ele>
        <time>2021-06-03T15:57:58.000Z</time>
      </trkpt>
      <trkpt lat="44.80822" lon="-0.57126">
        <ele>32.6</ele>
        <time>2021-06-03T15:57:59.000Z</time>
      </trkpt>
      <trkpt lat="44.80818" lon="-0.57129">
        <ele>32.4</ele>
        <time>2021-06-03T15:58:00.000Z</time>
      </trkpt>
      <trkpt lat="44.80813" lon="-0.57131">
        <ele>32.2</ele>
        <time>2021-06-03T15:58:01.000Z</time>
      </trkpt>
      <trkpt lat="44.80809" lon="-0.57134">
        <ele>32.3</ele>
        <time>2021-06-03T15:58:02.000Z</time>
      </trkpt>
      <trkpt lat="44.80804" lon="-0.57136">
        <ele>32.3</ele>
        <time>2021-06-03T15:58:03.000Z</time>
      </trkpt>
      <trkpt lat="44.80799" lon="-0.57139">
        <ele>32.3</ele>
        <time>2021-06-03T15:58:04.000Z</time>
      </trkpt>
      <trkpt lat="44.80794" lon="-0.57141">
        <ele>32.3</ele>
        <time>2021-06-03T15:58:05.000Z</time>
      </trkpt>
      <trkpt lat="44.80789" lon="-0.57144">
        <ele>32.2</ele>
        <time>2021-06-03T15:58:06.000Z</time>
      </trkpt>
      <trkpt lat="44.80783" lon="-0.57147">
        <ele>32.3</ele>
        <time>2021-06-03T15:58:07.000Z</time>
      </trkpt>
      <trkpt lat="44.80778" lon="-0.57149">
        <ele>32.3</ele>
        <time>2021-06-03T15:58:08.000Z</time>
      </trkpt>
      <trkpt lat="44.80773" lon="-0.57152">
        <ele>32.2</ele>
        <time>2021-06-03T15:58:09.000Z</time>
      </trkpt>
      <trkpt lat="44.80768" lon="-0.57154">
        <ele>32.2</ele>
        <time>2021-06-03T15:58:10.000Z</time>
      </trkpt>
      <trkpt lat="44.80763" lon="-0.57157">
        <ele>32.1</ele>
        <time>2021-06-03T15:58:11.000Z</time>
      </trkpt>
      <trkpt lat="44.80758" lon="-0.5716">
        <ele>32.2</ele>
        <time>2021-06-03T15:58:12.000Z</time>
      </trkpt>
      <trkpt lat="44.80753" lon="-0.57162">
        <ele>32.2</ele>
        <time>2021-06-03T15:58:13.000Z</time>
      </trkpt>
      <trkpt lat="44.80748" lon="-0.57164">
        <ele>32.5</ele>
        <time>2021-06-03T15:58:14.000Z</time>
      </trkpt>
      <trkpt lat="44.80742" lon="-0.57165">
        <ele>32.8</ele>
        <time>2021-06-03T15:58:15.000Z</time>
      </trkpt>
      <trkpt lat="44.80737" lon="-0.57166">
        <ele>33</ele>
        <time>2021-06-03T15:58:16.000Z</time>
      </trkpt>
      <trkpt lat="44.80732" lon="-0.57168">
        <ele>33.2</ele>
        <time>2021-06-03T15:58:17.000Z</time>
      </trkpt>
      <trkpt lat="44.80727" lon="-0.57169">
        <ele>33.3</ele>
        <time>2021-06-03T15:58:18.000Z</time>
      </trkpt>
      <trkpt lat="44.80722" lon="-0.57171">
        <ele>33</ele>
        <time>2021-06-03T15:58:19.000Z</time>
      </trkpt>
      <trkpt lat="44.80713" lon="-0.57171">
        <ele>32.9</ele>
        <time>2021-06-03T15:58:21.000Z</time>
      </trkpt>
      <trkpt lat="44.80707" lon="-0.57166">
        <ele>32.8</ele>
        <time>2021-06-03T15:58:23.000Z</time>
      </trkpt>
      <trkpt lat="44.80701" lon="-0.57159">
        <ele>32.6</ele>
        <time>2021-06-03T15:58:25.000Z</time>
      </trkpt>
      <trkpt lat="44.80693" lon="-0.57153">
        <ele>32.7</ele>
        <time>2021-06-03T15:58:27.000Z</time>
      </trkpt>
      <trkpt lat="44.80686" lon="-0.57149">
        <ele>32.4</ele>
        <time>2021-06-03T15:58:29.000Z</time>
      </trkpt>
      <trkpt lat="44.80678" lon="-0.57144">
        <ele>32</ele>
        <time>2021-06-03T15:58:31.000Z</time>
      </trkpt>
      <trkpt lat="44.80671" lon="-0.5714">
        <ele>31.8</ele>
        <time>2021-06-03T15:58:33.000Z</time>
      </trkpt>
      <trkpt lat="44.80663" lon="-0.57137">
        <ele>31.9</ele>
        <time>2021-06-03T15:58:36.000Z</time>
      </trkpt>
      <trkpt lat="44.80654" lon="-0.57135">
        <ele>32.1</ele>
        <time>2021-06-03T15:58:41.000Z</time>
      </trkpt>
      <trkpt lat="44.80647" lon="-0.5714">
        <ele>31.9</ele>
        <time>2021-06-03T16:00:25.000Z</time>
      </trkpt>
      <trkpt lat="44.80646" lon="-0.57141">
        <ele>31.9</ele>
        <time>2021-06-03T16:00:26.000Z</time>
      </trkpt>
      <trkpt lat="44.80636" lon="-0.57159">
        <ele>32.1</ele>
        <time>2021-06-03T16:01:13.000Z</time>
      </trkpt>
      <trkpt lat="44.80635" lon="-0.57171">
        <ele>31.6</ele>
        <time>2021-06-03T16:01:27.000Z</time>
      </trkpt>
      <trkpt lat="44.80635" lon="-0.57172">
        <ele>31.4</ele>
        <time>2021-06-03T16:01:28.000Z</time>
      </trkpt>
      <trkpt lat="44.80646" lon="-0.57154">
        <ele>32.6</ele>
        <time>2021-06-03T16:02:28.000Z</time>
      </trkpt>
      <trkpt lat="44.80646" lon="-0.57153">
        <ele>33</ele>
        <time>2021-06-03T16:02:29.000Z</time>
      </trkpt>
    </trkseg>
  </trk>
</gpx>